<?xml version="1.0" encoding="UTF-8" standalone="yes"?>
<gpx version="1.1" creator="outdooractive - http://www.outdooractive.com" xmlns="http://www.topografix.com/GPX/1/1" xmlns:xsi="http://www.w3.org/2001/XMLSchema-instance" xsi:schemaLocation="http://www.topografix.com/GPX/1/1 http://www.topografix.com/GPX/1/1/gpx.xsd" xmlns:oa="http://www.outdooractive.com/GPX/Extensions/1">
  <metadata>
    <name>Mombarone e Colle Lace</name>
    <author>
      <name>Davide Vottero Reis - Community</name>
    </author>
    <link href="https://www.outdooractive.com/r/299068070"/>
    <time>2024-08-10T17:22:56.963Z</time>
    <extensions>
      <oa:oaCategory>trackHikingTourTrail</oa:oaCategory>
    </extensions>
  </metadata>
  <trk>
    <name>Mombarone e Colle Lace</name>
    <type>trackHikingTourTrail</type>
    <trkseg>
      <trkpt lat="45.57634" lon="7.854232">
        <ele>1405.19995</ele>
        <time>2024-08-08T08:14:53.000Z</time>
      </trkpt>
      <trkpt lat="45.576337" lon="7.854183">
        <ele>1408.69995</ele>
        <time>2024-08-08T08:14:58.000Z</time>
      </trkpt>
      <trkpt lat="45.576328" lon="7.854213">
        <ele>1409.69983</ele>
        <time>2024-08-08T08:15:04.000Z</time>
      </trkpt>
      <trkpt lat="45.576327" lon="7.854307">
        <ele>1409.19995</ele>
        <time>2024-08-08T08:15:16.000Z</time>
      </trkpt>
      <trkpt lat="45.576337" lon="7.854328">
        <ele>1408.55994</ele>
        <time>2024-08-08T08:15:25.000Z</time>
      </trkpt>
      <trkpt lat="45.576277" lon="7.85432">
        <ele>1408.29993</ele>
        <time>2024-08-08T08:15:35.000Z</time>
      </trkpt>
      <trkpt lat="45.57626" lon="7.85431">
        <ele>1408.09998</ele>
        <time>2024-08-08T08:15:37.000Z</time>
      </trkpt>
      <trkpt lat="45.576245" lon="7.854293">
        <ele>1407.875</ele>
        <time>2024-08-08T08:15:41.000Z</time>
      </trkpt>
      <trkpt lat="45.576233" lon="7.854268">
        <ele>1407.51111</ele>
        <time>2024-08-08T08:15:48.000Z</time>
      </trkpt>
      <trkpt lat="45.576213" lon="7.854273">
        <ele>1407.19995</ele>
        <time>2024-08-08T08:15:50.000Z</time>
      </trkpt>
      <trkpt lat="45.576195" lon="7.854278">
        <ele>1406.90906</ele>
        <time>2024-08-08T08:15:52.000Z</time>
      </trkpt>
      <trkpt lat="45.576173" lon="7.854295">
        <ele>1406.65002</ele>
        <time>2024-08-08T08:15:55.000Z</time>
      </trkpt>
      <trkpt lat="45.576148" lon="7.854315">
        <ele>1406.41541</ele>
        <time>2024-08-08T08:15:57.000Z</time>
      </trkpt>
      <trkpt lat="45.576128" lon="7.854335">
        <ele>1406.19299</ele>
        <time>2024-08-08T08:15:59.000Z</time>
      </trkpt>
      <trkpt lat="45.576105" lon="7.854335">
        <ele>1406.02002</ele>
        <time>2024-08-08T08:16:02.000Z</time>
      </trkpt>
      <trkpt lat="45.576078" lon="7.854338">
        <ele>1405.875</ele>
        <time>2024-08-08T08:16:04.000Z</time>
      </trkpt>
      <trkpt lat="45.57606" lon="7.854345">
        <ele>1405.75293</ele>
        <time>2024-08-08T08:16:05.000Z</time>
      </trkpt>
      <trkpt lat="45.576033" lon="7.854355">
        <ele>1405.68335</ele>
        <time>2024-08-08T08:16:07.000Z</time>
      </trkpt>
      <trkpt lat="45.576007" lon="7.854353">
        <ele>1405.65271</ele>
        <time>2024-08-08T08:16:09.000Z</time>
      </trkpt>
      <trkpt lat="45.575983" lon="7.854353">
        <ele>1405.625</ele>
        <time>2024-08-08T08:16:11.000Z</time>
      </trkpt>
      <trkpt lat="45.57596" lon="7.854358">
        <ele>1405.63501</ele>
        <time>2024-08-08T08:16:13.000Z</time>
      </trkpt>
      <trkpt lat="45.575948" lon="7.854388">
        <ele>1405.32007</ele>
        <time>2024-08-08T08:16:15.000Z</time>
      </trkpt>
      <trkpt lat="45.57596" lon="7.854412">
        <ele>1405.07007</ele>
        <time>2024-08-08T08:16:18.000Z</time>
      </trkpt>
      <trkpt lat="45.575985" lon="7.85441">
        <ele>1405.0752</ele>
        <time>2024-08-08T08:16:21.000Z</time>
      </trkpt>
      <trkpt lat="45.576007" lon="7.854408">
        <ele>1405.2052</ele>
        <time>2024-08-08T08:16:24.000Z</time>
      </trkpt>
      <trkpt lat="45.576032" lon="7.854423">
        <ele>1405.31519</ele>
        <time>2024-08-08T08:16:27.000Z</time>
      </trkpt>
      <trkpt lat="45.57605" lon="7.85443">
        <ele>1405.42017</ele>
        <time>2024-08-08T08:16:30.000Z</time>
      </trkpt>
      <trkpt lat="45.576072" lon="7.854448">
        <ele>1405.54517</ele>
        <time>2024-08-08T08:16:32.000Z</time>
      </trkpt>
      <trkpt lat="45.576092" lon="7.854463">
        <ele>1405.74011</ele>
        <time>2024-08-08T08:16:34.000Z</time>
      </trkpt>
      <trkpt lat="45.576118" lon="7.854473">
        <ele>1405.93005</ele>
        <time>2024-08-08T08:16:37.000Z</time>
      </trkpt>
      <trkpt lat="45.576145" lon="7.854473">
        <ele>1406.13501</ele>
        <time>2024-08-08T08:16:39.000Z</time>
      </trkpt>
      <trkpt lat="45.576173" lon="7.854473">
        <ele>1406.34009</ele>
        <time>2024-08-08T08:16:41.000Z</time>
      </trkpt>
      <trkpt lat="45.576198" lon="7.854483">
        <ele>1406.54504</ele>
        <time>2024-08-08T08:16:44.000Z</time>
      </trkpt>
      <trkpt lat="45.57622" lon="7.854507">
        <ele>1406.72998</ele>
        <time>2024-08-08T08:16:47.000Z</time>
      </trkpt>
      <trkpt lat="45.576238" lon="7.85453">
        <ele>1406.88501</ele>
        <time>2024-08-08T08:16:49.000Z</time>
      </trkpt>
      <trkpt lat="45.576257" lon="7.854543">
        <ele>1407.03491</ele>
        <time>2024-08-08T08:16:51.000Z</time>
      </trkpt>
      <trkpt lat="45.576273" lon="7.854555">
        <ele>1407.21497</ele>
        <time>2024-08-08T08:16:53.000Z</time>
      </trkpt>
      <trkpt lat="45.576295" lon="7.854573">
        <ele>1407.35498</ele>
        <time>2024-08-08T08:16:55.000Z</time>
      </trkpt>
      <trkpt lat="45.576313" lon="7.85459">
        <ele>1407.44995</ele>
        <time>2024-08-08T08:16:57.000Z</time>
      </trkpt>
      <trkpt lat="45.576335" lon="7.854607">
        <ele>1407.54004</ele>
        <time>2024-08-08T08:17:00.000Z</time>
      </trkpt>
      <trkpt lat="45.576355" lon="7.85462">
        <ele>1407.63501</ele>
        <time>2024-08-08T08:17:03.000Z</time>
      </trkpt>
      <trkpt lat="45.576378" lon="7.854643">
        <ele>1407.72498</ele>
        <time>2024-08-08T08:17:06.000Z</time>
      </trkpt>
      <trkpt lat="45.576402" lon="7.85467">
        <ele>1407.80005</ele>
        <time>2024-08-08T08:17:08.000Z</time>
      </trkpt>
      <trkpt lat="45.576427" lon="7.854697">
        <ele>1407.80493</ele>
        <time>2024-08-08T08:17:10.000Z</time>
      </trkpt>
      <trkpt lat="45.576443" lon="7.854723">
        <ele>1407.82007</ele>
        <time>2024-08-08T08:17:12.000Z</time>
      </trkpt>
      <trkpt lat="45.57646" lon="7.85474">
        <ele>1408.1001</ele>
        <time>2024-08-08T08:17:19.000Z</time>
      </trkpt>
      <trkpt lat="45.576477" lon="7.854758">
        <ele>1408.41003</ele>
        <time>2024-08-08T08:17:22.000Z</time>
      </trkpt>
      <trkpt lat="45.576487" lon="7.85478">
        <ele>1408.71997</ele>
        <time>2024-08-08T08:17:24.000Z</time>
      </trkpt>
      <trkpt lat="45.576497" lon="7.854802">
        <ele>1409.02502</ele>
        <time>2024-08-08T08:17:26.000Z</time>
      </trkpt>
      <trkpt lat="45.57651" lon="7.854825">
        <ele>1409.32007</ele>
        <time>2024-08-08T08:17:28.000Z</time>
      </trkpt>
      <trkpt lat="45.576523" lon="7.85485">
        <ele>1409.61011</ele>
        <time>2024-08-08T08:17:30.000Z</time>
      </trkpt>
      <trkpt lat="45.576547" lon="7.854872">
        <ele>1409.88501</ele>
        <time>2024-08-08T08:17:32.000Z</time>
      </trkpt>
      <trkpt lat="45.576565" lon="7.854902">
        <ele>1410.14014</ele>
        <time>2024-08-08T08:17:34.000Z</time>
      </trkpt>
      <trkpt lat="45.576577" lon="7.854938">
        <ele>1410.42505</ele>
        <time>2024-08-08T08:17:37.000Z</time>
      </trkpt>
      <trkpt lat="45.57659" lon="7.854972">
        <ele>1410.74512</ele>
        <time>2024-08-08T08:17:39.000Z</time>
      </trkpt>
      <trkpt lat="45.576598" lon="7.855007">
        <ele>1411.09009</ele>
        <time>2024-08-08T08:17:41.000Z</time>
      </trkpt>
      <trkpt lat="45.576607" lon="7.855042">
        <ele>1411.41516</ele>
        <time>2024-08-08T08:17:43.000Z</time>
      </trkpt>
      <trkpt lat="45.576612" lon="7.855077">
        <ele>1411.75513</ele>
        <time>2024-08-08T08:17:46.000Z</time>
      </trkpt>
      <trkpt lat="45.576623" lon="7.855112">
        <ele>1412.12012</ele>
        <time>2024-08-08T08:17:49.000Z</time>
      </trkpt>
      <trkpt lat="45.576647" lon="7.855125">
        <ele>1412.55505</ele>
        <time>2024-08-08T08:17:53.000Z</time>
      </trkpt>
      <trkpt lat="45.576653" lon="7.855155">
        <ele>1413.0</ele>
        <time>2024-08-08T08:17:57.000Z</time>
      </trkpt>
      <trkpt lat="45.576655" lon="7.855182">
        <ele>1413.495</ele>
        <time>2024-08-08T08:18:00.000Z</time>
      </trkpt>
      <trkpt lat="45.576663" lon="7.855215">
        <ele>1414.04504</ele>
        <time>2024-08-08T08:18:03.000Z</time>
      </trkpt>
      <trkpt lat="45.576668" lon="7.855242">
        <ele>1414.67505</ele>
        <time>2024-08-08T08:18:06.000Z</time>
      </trkpt>
      <trkpt lat="45.576673" lon="7.855278">
        <ele>1415.30005</ele>
        <time>2024-08-08T08:18:09.000Z</time>
      </trkpt>
      <trkpt lat="45.576687" lon="7.855303">
        <ele>1415.65991</ele>
        <time>2024-08-08T08:18:11.000Z</time>
      </trkpt>
      <trkpt lat="45.576693" lon="7.855328">
        <ele>1416.03003</ele>
        <time>2024-08-08T08:18:13.000Z</time>
      </trkpt>
      <trkpt lat="45.576682" lon="7.855357">
        <ele>1416.43994</ele>
        <time>2024-08-08T08:18:15.000Z</time>
      </trkpt>
      <trkpt lat="45.576657" lon="7.855382">
        <ele>1416.875</ele>
        <time>2024-08-08T08:18:17.000Z</time>
      </trkpt>
      <trkpt lat="45.576635" lon="7.85539">
        <ele>1417.35498</ele>
        <time>2024-08-08T08:18:19.000Z</time>
      </trkpt>
      <trkpt lat="45.576613" lon="7.855388">
        <ele>1417.88</ele>
        <time>2024-08-08T08:18:21.000Z</time>
      </trkpt>
      <trkpt lat="45.57659" lon="7.855382">
        <ele>1418.44995</ele>
        <time>2024-08-08T08:18:23.000Z</time>
      </trkpt>
      <trkpt lat="45.57656" lon="7.855377">
        <ele>1419.08997</ele>
        <time>2024-08-08T08:18:25.000Z</time>
      </trkpt>
      <trkpt lat="45.576542" lon="7.855375">
        <ele>1419.745</ele>
        <time>2024-08-08T08:18:26.000Z</time>
      </trkpt>
      <trkpt lat="45.576512" lon="7.85538">
        <ele>1420.40002</ele>
        <time>2024-08-08T08:18:28.000Z</time>
      </trkpt>
      <trkpt lat="45.57649" lon="7.855368">
        <ele>1421.06506</ele>
        <time>2024-08-08T08:18:30.000Z</time>
      </trkpt>
      <trkpt lat="45.576467" lon="7.855365">
        <ele>1421.72498</ele>
        <time>2024-08-08T08:18:33.000Z</time>
      </trkpt>
      <trkpt lat="45.576448" lon="7.85537">
        <ele>1422.39001</ele>
        <time>2024-08-08T08:18:35.000Z</time>
      </trkpt>
      <trkpt lat="45.57642" lon="7.855347">
        <ele>1423.10498</ele>
        <time>2024-08-08T08:18:38.000Z</time>
      </trkpt>
      <trkpt lat="45.576387" lon="7.855342">
        <ele>1423.79004</ele>
        <time>2024-08-08T08:18:40.000Z</time>
      </trkpt>
      <trkpt lat="45.576363" lon="7.855335">
        <ele>1424.4751</ele>
        <time>2024-08-08T08:18:42.000Z</time>
      </trkpt>
      <trkpt lat="45.576352" lon="7.855303">
        <ele>1425.08521</ele>
        <time>2024-08-08T08:18:45.000Z</time>
      </trkpt>
      <trkpt lat="45.57636" lon="7.855277">
        <ele>1425.65015</ele>
        <time>2024-08-08T08:18:47.000Z</time>
      </trkpt>
      <trkpt lat="45.576378" lon="7.85525">
        <ele>1426.16528</ele>
        <time>2024-08-08T08:18:49.000Z</time>
      </trkpt>
      <trkpt lat="45.576395" lon="7.855232">
        <ele>1426.64526</ele>
        <time>2024-08-08T08:18:51.000Z</time>
      </trkpt>
      <trkpt lat="45.576417" lon="7.855213">
        <ele>1427.09521</ele>
        <time>2024-08-08T08:18:53.000Z</time>
      </trkpt>
      <trkpt lat="45.576433" lon="7.85519">
        <ele>1427.51526</ele>
        <time>2024-08-08T08:18:55.000Z</time>
      </trkpt>
      <trkpt lat="45.576455" lon="7.855192">
        <ele>1427.86523</ele>
        <time>2024-08-08T08:18:57.000Z</time>
      </trkpt>
      <trkpt lat="45.576483" lon="7.855213">
        <ele>1428.15515</ele>
        <time>2024-08-08T08:18:59.000Z</time>
      </trkpt>
      <trkpt lat="45.576513" lon="7.855237">
        <ele>1428.38013</ele>
        <time>2024-08-08T08:19:01.000Z</time>
      </trkpt>
      <trkpt lat="45.57653" lon="7.85525">
        <ele>1428.56018</ele>
        <time>2024-08-08T08:19:02.000Z</time>
      </trkpt>
      <trkpt lat="45.57655" lon="7.855265">
        <ele>1428.70508</ele>
        <time>2024-08-08T08:19:03.000Z</time>
      </trkpt>
      <trkpt lat="45.576572" lon="7.855275">
        <ele>1428.78503</ele>
        <time>2024-08-08T08:19:04.000Z</time>
      </trkpt>
      <trkpt lat="45.57659" lon="7.855283">
        <ele>1428.84009</ele>
        <time>2024-08-08T08:19:05.000Z</time>
      </trkpt>
      <trkpt lat="45.576613" lon="7.855297">
        <ele>1428.8501</ele>
        <time>2024-08-08T08:19:07.000Z</time>
      </trkpt>
      <trkpt lat="45.576637" lon="7.855307">
        <ele>1428.78003</ele>
        <time>2024-08-08T08:19:10.000Z</time>
      </trkpt>
      <trkpt lat="45.576657" lon="7.855323">
        <ele>1428.70007</ele>
        <time>2024-08-08T08:19:12.000Z</time>
      </trkpt>
      <trkpt lat="45.576687" lon="7.855337">
        <ele>1428.61499</ele>
        <time>2024-08-08T08:19:14.000Z</time>
      </trkpt>
      <trkpt lat="45.576713" lon="7.85535">
        <ele>1428.46997</ele>
        <time>2024-08-08T08:19:16.000Z</time>
      </trkpt>
      <trkpt lat="45.576735" lon="7.85536">
        <ele>1428.30005</ele>
        <time>2024-08-08T08:19:18.000Z</time>
      </trkpt>
      <trkpt lat="45.576763" lon="7.855382">
        <ele>1428.13</ele>
        <time>2024-08-08T08:19:21.000Z</time>
      </trkpt>
      <trkpt lat="45.57678" lon="7.855395">
        <ele>1427.98999</ele>
        <time>2024-08-08T08:19:23.000Z</time>
      </trkpt>
      <trkpt lat="45.576797" lon="7.855417">
        <ele>1427.84497</ele>
        <time>2024-08-08T08:19:25.000Z</time>
      </trkpt>
      <trkpt lat="45.57682" lon="7.855428">
        <ele>1427.67993</ele>
        <time>2024-08-08T08:19:28.000Z</time>
      </trkpt>
      <trkpt lat="45.57684" lon="7.855442">
        <ele>1427.50488</ele>
        <time>2024-08-08T08:19:31.000Z</time>
      </trkpt>
      <trkpt lat="45.576858" lon="7.85547">
        <ele>1427.32495</ele>
        <time>2024-08-08T08:19:34.000Z</time>
      </trkpt>
      <trkpt lat="45.576885" lon="7.85549">
        <ele>1427.13489</ele>
        <time>2024-08-08T08:19:36.000Z</time>
      </trkpt>
      <trkpt lat="45.576907" lon="7.855503">
        <ele>1426.97485</ele>
        <time>2024-08-08T08:19:37.000Z</time>
      </trkpt>
      <trkpt lat="45.57694" lon="7.855513">
        <ele>1426.84985</ele>
        <time>2024-08-08T08:19:39.000Z</time>
      </trkpt>
      <trkpt lat="45.57696" lon="7.855518">
        <ele>1426.755</ele>
        <time>2024-08-08T08:19:41.000Z</time>
      </trkpt>
      <trkpt lat="45.576977" lon="7.855505">
        <ele>1426.65002</ele>
        <time>2024-08-08T08:19:43.000Z</time>
      </trkpt>
      <trkpt lat="45.576995" lon="7.855497">
        <ele>1426.56006</ele>
        <time>2024-08-08T08:19:45.000Z</time>
      </trkpt>
      <trkpt lat="45.577012" lon="7.85547">
        <ele>1426.4801</ele>
        <time>2024-08-08T08:19:47.000Z</time>
      </trkpt>
      <trkpt lat="45.577033" lon="7.855447">
        <ele>1426.40503</ele>
        <time>2024-08-08T08:19:49.000Z</time>
      </trkpt>
      <trkpt lat="45.577045" lon="7.855425">
        <ele>1426.34497</ele>
        <time>2024-08-08T08:19:51.000Z</time>
      </trkpt>
      <trkpt lat="45.577048" lon="7.855397">
        <ele>1426.34497</ele>
        <time>2024-08-08T08:19:53.000Z</time>
      </trkpt>
      <trkpt lat="45.577062" lon="7.855362">
        <ele>1426.37</ele>
        <time>2024-08-08T08:19:55.000Z</time>
      </trkpt>
      <trkpt lat="45.577082" lon="7.855328">
        <ele>1426.38013</ele>
        <time>2024-08-08T08:19:57.000Z</time>
      </trkpt>
      <trkpt lat="45.577095" lon="7.855287">
        <ele>1426.37012</ele>
        <time>2024-08-08T08:19:59.000Z</time>
      </trkpt>
      <trkpt lat="45.577112" lon="7.855248">
        <ele>1426.33508</ele>
        <time>2024-08-08T08:20:01.000Z</time>
      </trkpt>
      <trkpt lat="45.577123" lon="7.855223">
        <ele>1426.25513</ele>
        <time>2024-08-08T08:20:03.000Z</time>
      </trkpt>
      <trkpt lat="45.57713" lon="7.855192">
        <ele>1426.13501</ele>
        <time>2024-08-08T08:20:05.000Z</time>
      </trkpt>
      <trkpt lat="45.577145" lon="7.855153">
        <ele>1425.95007</ele>
        <time>2024-08-08T08:20:07.000Z</time>
      </trkpt>
      <trkpt lat="45.577148" lon="7.855122">
        <ele>1425.76001</ele>
        <time>2024-08-08T08:20:09.000Z</time>
      </trkpt>
      <trkpt lat="45.577162" lon="7.855092">
        <ele>1425.55005</ele>
        <time>2024-08-08T08:20:11.000Z</time>
      </trkpt>
      <trkpt lat="45.577173" lon="7.855057">
        <ele>1425.3551</ele>
        <time>2024-08-08T08:20:13.000Z</time>
      </trkpt>
      <trkpt lat="45.577192" lon="7.855023">
        <ele>1425.16016</ele>
        <time>2024-08-08T08:20:15.000Z</time>
      </trkpt>
      <trkpt lat="45.577205" lon="7.855003">
        <ele>1425.00513</ele>
        <time>2024-08-08T08:20:17.000Z</time>
      </trkpt>
      <trkpt lat="45.577215" lon="7.854977">
        <ele>1424.92017</ele>
        <time>2024-08-08T08:20:19.000Z</time>
      </trkpt>
      <trkpt lat="45.57723" lon="7.854958">
        <ele>1424.90015</ele>
        <time>2024-08-08T08:20:23.000Z</time>
      </trkpt>
      <trkpt lat="45.577248" lon="7.854968">
        <ele>1424.94519</ele>
        <time>2024-08-08T08:20:26.000Z</time>
      </trkpt>
      <trkpt lat="45.577268" lon="7.85499">
        <ele>1425.04028</ele>
        <time>2024-08-08T08:20:28.000Z</time>
      </trkpt>
      <trkpt lat="45.577292" lon="7.85501">
        <ele>1425.17529</ele>
        <time>2024-08-08T08:20:30.000Z</time>
      </trkpt>
      <trkpt lat="45.577313" lon="7.855025">
        <ele>1425.34021</ele>
        <time>2024-08-08T08:20:32.000Z</time>
      </trkpt>
      <trkpt lat="45.577332" lon="7.855043">
        <ele>1425.53528</ele>
        <time>2024-08-08T08:20:34.000Z</time>
      </trkpt>
      <trkpt lat="45.577347" lon="7.85507">
        <ele>1425.72021</ele>
        <time>2024-08-08T08:20:36.000Z</time>
      </trkpt>
      <trkpt lat="45.577365" lon="7.855098">
        <ele>1425.89026</ele>
        <time>2024-08-08T08:20:38.000Z</time>
      </trkpt>
      <trkpt lat="45.577385" lon="7.855117">
        <ele>1426.10522</ele>
        <time>2024-08-08T08:20:40.000Z</time>
      </trkpt>
      <trkpt lat="45.57741" lon="7.855137">
        <ele>1426.37024</ele>
        <time>2024-08-08T08:20:43.000Z</time>
      </trkpt>
      <trkpt lat="45.577423" lon="7.855155">
        <ele>1426.65027</ele>
        <time>2024-08-08T08:20:44.000Z</time>
      </trkpt>
      <trkpt lat="45.57745" lon="7.855178">
        <ele>1426.94019</ele>
        <time>2024-08-08T08:20:46.000Z</time>
      </trkpt>
      <trkpt lat="45.577478" lon="7.855195">
        <ele>1427.24023</ele>
        <time>2024-08-08T08:20:48.000Z</time>
      </trkpt>
      <trkpt lat="45.577495" lon="7.85521">
        <ele>1427.54028</ele>
        <time>2024-08-08T08:20:50.000Z</time>
      </trkpt>
      <trkpt lat="45.577508" lon="7.855247">
        <ele>1427.84534</ele>
        <time>2024-08-08T08:20:52.000Z</time>
      </trkpt>
      <trkpt lat="45.577527" lon="7.855272">
        <ele>1428.17029</ele>
        <time>2024-08-08T08:20:54.000Z</time>
      </trkpt>
      <trkpt lat="45.577542" lon="7.855287">
        <ele>1428.46533</ele>
        <time>2024-08-08T08:20:56.000Z</time>
      </trkpt>
      <trkpt lat="45.577555" lon="7.855322">
        <ele>1428.6853</ele>
        <time>2024-08-08T08:20:58.000Z</time>
      </trkpt>
      <trkpt lat="45.57756" lon="7.855367">
        <ele>1428.87524</ele>
        <time>2024-08-08T08:21:00.000Z</time>
      </trkpt>
      <trkpt lat="45.577565" lon="7.855405">
        <ele>1429.03516</ele>
        <time>2024-08-08T08:21:02.000Z</time>
      </trkpt>
      <trkpt lat="45.577583" lon="7.85543">
        <ele>1429.25012</ele>
        <time>2024-08-08T08:21:04.000Z</time>
      </trkpt>
      <trkpt lat="45.577602" lon="7.855448">
        <ele>1429.65015</ele>
        <time>2024-08-08T08:21:09.000Z</time>
      </trkpt>
      <trkpt lat="45.57761" lon="7.855425">
        <ele>1430.23999</ele>
        <time>2024-08-08T08:21:26.000Z</time>
      </trkpt>
      <trkpt lat="45.577623" lon="7.855458">
        <ele>1430.80005</ele>
        <time>2024-08-08T08:21:29.000Z</time>
      </trkpt>
      <trkpt lat="45.57764" lon="7.855508">
        <ele>1431.33008</ele>
        <time>2024-08-08T08:21:31.000Z</time>
      </trkpt>
      <trkpt lat="45.577652" lon="7.855533">
        <ele>1431.82507</ele>
        <time>2024-08-08T08:21:32.000Z</time>
      </trkpt>
      <trkpt lat="45.577665" lon="7.855553">
        <ele>1432.30005</ele>
        <time>2024-08-08T08:21:33.000Z</time>
      </trkpt>
      <trkpt lat="45.57769" lon="7.855602">
        <ele>1432.71509</ele>
        <time>2024-08-08T08:21:35.000Z</time>
      </trkpt>
      <trkpt lat="45.577705" lon="7.855625">
        <ele>1433.08008</ele>
        <time>2024-08-08T08:21:36.000Z</time>
      </trkpt>
      <trkpt lat="45.577713" lon="7.85567">
        <ele>1433.42004</ele>
        <time>2024-08-08T08:21:38.000Z</time>
      </trkpt>
      <trkpt lat="45.577718" lon="7.855703">
        <ele>1433.69995</ele>
        <time>2024-08-08T08:21:40.000Z</time>
      </trkpt>
      <trkpt lat="45.577727" lon="7.855737">
        <ele>1433.9801</ele>
        <time>2024-08-08T08:21:43.000Z</time>
      </trkpt>
      <trkpt lat="45.577737" lon="7.85577">
        <ele>1434.28003</ele>
        <time>2024-08-08T08:21:45.000Z</time>
      </trkpt>
      <trkpt lat="45.577745" lon="7.855802">
        <ele>1434.65015</ele>
        <time>2024-08-08T08:21:47.000Z</time>
      </trkpt>
      <trkpt lat="45.577762" lon="7.855823">
        <ele>1435.04504</ele>
        <time>2024-08-08T08:21:48.000Z</time>
      </trkpt>
      <trkpt lat="45.57778" lon="7.855867">
        <ele>1435.44995</ele>
        <time>2024-08-08T08:21:50.000Z</time>
      </trkpt>
      <trkpt lat="45.577788" lon="7.85589">
        <ele>1435.88501</ele>
        <time>2024-08-08T08:21:51.000Z</time>
      </trkpt>
      <trkpt lat="45.577808" lon="7.855938">
        <ele>1436.38</ele>
        <time>2024-08-08T08:21:53.000Z</time>
      </trkpt>
      <trkpt lat="45.577817" lon="7.855962">
        <ele>1436.82495</ele>
        <time>2024-08-08T08:21:54.000Z</time>
      </trkpt>
      <trkpt lat="45.577822" lon="7.856005">
        <ele>1437.21509</ele>
        <time>2024-08-08T08:21:56.000Z</time>
      </trkpt>
      <trkpt lat="45.577827" lon="7.856038">
        <ele>1437.47009</ele>
        <time>2024-08-08T08:21:58.000Z</time>
      </trkpt>
      <trkpt lat="45.577843" lon="7.856068">
        <ele>1437.48999</ele>
        <time>2024-08-08T08:22:00.000Z</time>
      </trkpt>
      <trkpt lat="45.577853" lon="7.85609">
        <ele>1437.27002</ele>
        <time>2024-08-08T08:22:02.000Z</time>
      </trkpt>
      <trkpt lat="45.57787" lon="7.856117">
        <ele>1437.05005</ele>
        <time>2024-08-08T08:22:04.000Z</time>
      </trkpt>
      <trkpt lat="45.577892" lon="7.856142">
        <ele>1436.81995</ele>
        <time>2024-08-08T08:22:07.000Z</time>
      </trkpt>
      <trkpt lat="45.577905" lon="7.856168">
        <ele>1436.57983</ele>
        <time>2024-08-08T08:22:09.000Z</time>
      </trkpt>
      <trkpt lat="45.57791" lon="7.856193">
        <ele>1436.34497</ele>
        <time>2024-08-08T08:22:10.000Z</time>
      </trkpt>
      <trkpt lat="45.577918" lon="7.856217">
        <ele>1436.13989</ele>
        <time>2024-08-08T08:22:11.000Z</time>
      </trkpt>
      <trkpt lat="45.577928" lon="7.856243">
        <ele>1435.91492</ele>
        <time>2024-08-08T08:22:12.000Z</time>
      </trkpt>
      <trkpt lat="45.577938" lon="7.856267">
        <ele>1435.66492</ele>
        <time>2024-08-08T08:22:13.000Z</time>
      </trkpt>
      <trkpt lat="45.577948" lon="7.856303">
        <ele>1435.44495</ele>
        <time>2024-08-08T08:22:15.000Z</time>
      </trkpt>
      <trkpt lat="45.577968" lon="7.856337">
        <ele>1435.17993</ele>
        <time>2024-08-08T08:22:17.000Z</time>
      </trkpt>
      <trkpt lat="45.577985" lon="7.856348">
        <ele>1434.87488</ele>
        <time>2024-08-08T08:22:20.000Z</time>
      </trkpt>
      <trkpt lat="45.577998" lon="7.856382">
        <ele>1434.56982</ele>
        <time>2024-08-08T08:22:27.000Z</time>
      </trkpt>
      <trkpt lat="45.578003" lon="7.85642">
        <ele>1434.25989</ele>
        <time>2024-08-08T08:22:29.000Z</time>
      </trkpt>
      <trkpt lat="45.578003" lon="7.856448">
        <ele>1433.96484</ele>
        <time>2024-08-08T08:22:30.000Z</time>
      </trkpt>
      <trkpt lat="45.578008" lon="7.856478">
        <ele>1433.67493</ele>
        <time>2024-08-08T08:22:31.000Z</time>
      </trkpt>
      <trkpt lat="45.578022" lon="7.856512">
        <ele>1433.3999</ele>
        <time>2024-08-08T08:22:33.000Z</time>
      </trkpt>
      <trkpt lat="45.578045" lon="7.856545">
        <ele>1433.1499</ele>
        <time>2024-08-08T08:22:35.000Z</time>
      </trkpt>
      <trkpt lat="45.578055" lon="7.856577">
        <ele>1432.88989</ele>
        <time>2024-08-08T08:22:37.000Z</time>
      </trkpt>
      <trkpt lat="45.57806" lon="7.856605">
        <ele>1432.61487</ele>
        <time>2024-08-08T08:22:39.000Z</time>
      </trkpt>
      <trkpt lat="45.578078" lon="7.856632">
        <ele>1432.26489</ele>
        <time>2024-08-08T08:22:42.000Z</time>
      </trkpt>
      <trkpt lat="45.578095" lon="7.856667">
        <ele>1431.87988</ele>
        <time>2024-08-08T08:22:44.000Z</time>
      </trkpt>
      <trkpt lat="45.578113" lon="7.856697">
        <ele>1431.47485</ele>
        <time>2024-08-08T08:22:46.000Z</time>
      </trkpt>
      <trkpt lat="45.578127" lon="7.856725">
        <ele>1431.08496</ele>
        <time>2024-08-08T08:22:48.000Z</time>
      </trkpt>
      <trkpt lat="45.578142" lon="7.856765">
        <ele>1430.72498</ele>
        <time>2024-08-08T08:22:50.000Z</time>
      </trkpt>
      <trkpt lat="45.57816" lon="7.8568">
        <ele>1430.36499</ele>
        <time>2024-08-08T08:22:52.000Z</time>
      </trkpt>
      <trkpt lat="45.578175" lon="7.856835">
        <ele>1430.03503</ele>
        <time>2024-08-08T08:22:54.000Z</time>
      </trkpt>
      <trkpt lat="45.578192" lon="7.856873">
        <ele>1429.75513</ele>
        <time>2024-08-08T08:22:56.000Z</time>
      </trkpt>
      <trkpt lat="45.578207" lon="7.856898">
        <ele>1429.4751</ele>
        <time>2024-08-08T08:22:58.000Z</time>
      </trkpt>
      <trkpt lat="45.578227" lon="7.856912">
        <ele>1429.21008</ele>
        <time>2024-08-08T08:23:00.000Z</time>
      </trkpt>
      <trkpt lat="45.57823" lon="7.856952">
        <ele>1429.08508</ele>
        <time>2024-08-08T08:23:04.000Z</time>
      </trkpt>
      <trkpt lat="45.578212" lon="7.856972">
        <ele>1429.06506</ele>
        <time>2024-08-08T08:23:06.000Z</time>
      </trkpt>
      <trkpt lat="45.578222" lon="7.856942">
        <ele>1429.34009</ele>
        <time>2024-08-08T08:23:17.000Z</time>
      </trkpt>
      <trkpt lat="45.578233" lon="7.856963">
        <ele>1429.62</ele>
        <time>2024-08-08T08:23:35.000Z</time>
      </trkpt>
      <trkpt lat="45.578248" lon="7.856982">
        <ele>1429.86499</ele>
        <time>2024-08-08T08:23:37.000Z</time>
      </trkpt>
      <trkpt lat="45.578258" lon="7.85701">
        <ele>1430.10498</ele>
        <time>2024-08-08T08:23:39.000Z</time>
      </trkpt>
      <trkpt lat="45.57827" lon="7.857043">
        <ele>1430.34998</ele>
        <time>2024-08-08T08:23:41.000Z</time>
      </trkpt>
      <trkpt lat="45.57828" lon="7.857083">
        <ele>1430.59497</ele>
        <time>2024-08-08T08:23:43.000Z</time>
      </trkpt>
      <trkpt lat="45.578292" lon="7.85711">
        <ele>1430.88501</ele>
        <time>2024-08-08T08:23:46.000Z</time>
      </trkpt>
      <trkpt lat="45.5783" lon="7.857145">
        <ele>1431.22498</ele>
        <time>2024-08-08T08:23:48.000Z</time>
      </trkpt>
      <trkpt lat="45.578308" lon="7.85719">
        <ele>1431.68506</ele>
        <time>2024-08-08T08:23:50.000Z</time>
      </trkpt>
      <trkpt lat="45.578313" lon="7.857215">
        <ele>1432.17505</ele>
        <time>2024-08-08T08:23:51.000Z</time>
      </trkpt>
      <trkpt lat="45.578318" lon="7.857252">
        <ele>1432.70508</ele>
        <time>2024-08-08T08:23:53.000Z</time>
      </trkpt>
      <trkpt lat="45.578325" lon="7.857288">
        <ele>1433.2301</ele>
        <time>2024-08-08T08:23:56.000Z</time>
      </trkpt>
      <trkpt lat="45.578348" lon="7.857298">
        <ele>1433.75012</ele>
        <time>2024-08-08T08:23:58.000Z</time>
      </trkpt>
      <trkpt lat="45.578367" lon="7.857307">
        <ele>1434.27515</ele>
        <time>2024-08-08T08:24:00.000Z</time>
      </trkpt>
      <trkpt lat="45.578385" lon="7.857335">
        <ele>1434.78003</ele>
        <time>2024-08-08T08:24:02.000Z</time>
      </trkpt>
      <trkpt lat="45.578405" lon="7.857355">
        <ele>1435.2301</ele>
        <time>2024-08-08T08:24:04.000Z</time>
      </trkpt>
      <trkpt lat="45.578428" lon="7.857387">
        <ele>1435.65503</ele>
        <time>2024-08-08T08:24:06.000Z</time>
      </trkpt>
      <trkpt lat="45.578445" lon="7.857417">
        <ele>1436.04016</ele>
        <time>2024-08-08T08:24:08.000Z</time>
      </trkpt>
      <trkpt lat="45.57846" lon="7.857437">
        <ele>1436.31018</ele>
        <time>2024-08-08T08:24:09.000Z</time>
      </trkpt>
      <trkpt lat="45.578473" lon="7.857455">
        <ele>1436.48511</ele>
        <time>2024-08-08T08:24:10.000Z</time>
      </trkpt>
      <trkpt lat="45.578497" lon="7.857478">
        <ele>1436.35022</ele>
        <time>2024-08-08T08:24:12.000Z</time>
      </trkpt>
      <trkpt lat="45.578522" lon="7.857508">
        <ele>1436.16528</ele>
        <time>2024-08-08T08:24:14.000Z</time>
      </trkpt>
      <trkpt lat="45.578535" lon="7.857527">
        <ele>1435.98523</ele>
        <time>2024-08-08T08:24:15.000Z</time>
      </trkpt>
      <trkpt lat="45.578552" lon="7.857538">
        <ele>1435.77527</ele>
        <time>2024-08-08T08:24:16.000Z</time>
      </trkpt>
      <trkpt lat="45.578578" lon="7.857572">
        <ele>1435.59033</ele>
        <time>2024-08-08T08:24:18.000Z</time>
      </trkpt>
      <trkpt lat="45.578602" lon="7.857602">
        <ele>1435.39038</ele>
        <time>2024-08-08T08:24:20.000Z</time>
      </trkpt>
      <trkpt lat="45.57862" lon="7.85762">
        <ele>1435.20532</ele>
        <time>2024-08-08T08:24:23.000Z</time>
      </trkpt>
      <trkpt lat="45.578638" lon="7.85763">
        <ele>1435.01538</ele>
        <time>2024-08-08T08:24:25.000Z</time>
      </trkpt>
      <trkpt lat="45.578667" lon="7.857637">
        <ele>1434.77039</ele>
        <time>2024-08-08T08:24:27.000Z</time>
      </trkpt>
      <trkpt lat="45.578687" lon="7.85765">
        <ele>1434.51038</ele>
        <time>2024-08-08T08:24:29.000Z</time>
      </trkpt>
      <trkpt lat="45.578705" lon="7.857663">
        <ele>1434.1853</ele>
        <time>2024-08-08T08:24:31.000Z</time>
      </trkpt>
      <trkpt lat="45.578728" lon="7.857657">
        <ele>1433.86536</ele>
        <time>2024-08-08T08:24:33.000Z</time>
      </trkpt>
      <trkpt lat="45.578747" lon="7.857668">
        <ele>1433.5553</ele>
        <time>2024-08-08T08:24:35.000Z</time>
      </trkpt>
      <trkpt lat="45.578768" lon="7.857678">
        <ele>1433.25024</ele>
        <time>2024-08-08T08:24:38.000Z</time>
      </trkpt>
      <trkpt lat="45.578782" lon="7.857732">
        <ele>1433.17517</ele>
        <time>2024-08-08T08:24:50.000Z</time>
      </trkpt>
      <trkpt lat="45.578803" lon="7.85775">
        <ele>1433.12524</ele>
        <time>2024-08-08T08:24:53.000Z</time>
      </trkpt>
      <trkpt lat="45.578822" lon="7.857762">
        <ele>1433.12024</ele>
        <time>2024-08-08T08:24:55.000Z</time>
      </trkpt>
      <trkpt lat="45.578837" lon="7.857783">
        <ele>1433.14526</ele>
        <time>2024-08-08T08:24:57.000Z</time>
      </trkpt>
      <trkpt lat="45.578852" lon="7.857807">
        <ele>1433.16016</ele>
        <time>2024-08-08T08:24:59.000Z</time>
      </trkpt>
      <trkpt lat="45.578868" lon="7.857827">
        <ele>1433.16516</ele>
        <time>2024-08-08T08:25:01.000Z</time>
      </trkpt>
      <trkpt lat="45.578878" lon="7.857848">
        <ele>1433.10522</ele>
        <time>2024-08-08T08:25:02.000Z</time>
      </trkpt>
      <trkpt lat="45.578895" lon="7.857883">
        <ele>1433.01013</ele>
        <time>2024-08-08T08:25:04.000Z</time>
      </trkpt>
      <trkpt lat="45.578887" lon="7.857908">
        <ele>1432.8551</ele>
        <time>2024-08-08T08:25:10.000Z</time>
      </trkpt>
      <trkpt lat="45.5789" lon="7.857928">
        <ele>1432.71008</ele>
        <time>2024-08-08T08:25:13.000Z</time>
      </trkpt>
      <trkpt lat="45.578923" lon="7.857932">
        <ele>1432.53503</ele>
        <time>2024-08-08T08:25:16.000Z</time>
      </trkpt>
      <trkpt lat="45.578952" lon="7.857927">
        <ele>1432.39001</ele>
        <time>2024-08-08T08:25:19.000Z</time>
      </trkpt>
      <trkpt lat="45.578975" lon="7.857922">
        <ele>1432.23499</ele>
        <time>2024-08-08T08:25:21.000Z</time>
      </trkpt>
      <trkpt lat="45.578995" lon="7.857927">
        <ele>1432.08496</ele>
        <time>2024-08-08T08:25:23.000Z</time>
      </trkpt>
      <trkpt lat="45.579025" lon="7.85793">
        <ele>1431.96497</ele>
        <time>2024-08-08T08:25:26.000Z</time>
      </trkpt>
      <trkpt lat="45.579052" lon="7.857953">
        <ele>1431.82996</ele>
        <time>2024-08-08T08:25:28.000Z</time>
      </trkpt>
      <trkpt lat="45.579083" lon="7.85798">
        <ele>1431.71997</ele>
        <time>2024-08-08T08:25:30.000Z</time>
      </trkpt>
      <trkpt lat="45.579102" lon="7.857987">
        <ele>1431.59998</ele>
        <time>2024-08-08T08:25:31.000Z</time>
      </trkpt>
      <trkpt lat="45.579133" lon="7.857993">
        <ele>1431.46008</ele>
        <time>2024-08-08T08:25:33.000Z</time>
      </trkpt>
      <trkpt lat="45.579167" lon="7.857992">
        <ele>1431.30005</ele>
        <time>2024-08-08T08:25:35.000Z</time>
      </trkpt>
      <trkpt lat="45.579198" lon="7.857988">
        <ele>1430.92017</ele>
        <time>2024-08-08T08:25:37.000Z</time>
      </trkpt>
      <trkpt lat="45.57922" lon="7.857987">
        <ele>1430.55005</ele>
        <time>2024-08-08T08:25:39.000Z</time>
      </trkpt>
      <trkpt lat="45.579238" lon="7.857978">
        <ele>1430.21509</ele>
        <time>2024-08-08T08:25:41.000Z</time>
      </trkpt>
      <trkpt lat="45.579257" lon="7.857972">
        <ele>1429.94006</ele>
        <time>2024-08-08T08:25:43.000Z</time>
      </trkpt>
      <trkpt lat="45.579278" lon="7.857963">
        <ele>1429.72009</ele>
        <time>2024-08-08T08:25:45.000Z</time>
      </trkpt>
      <trkpt lat="45.579293" lon="7.857945">
        <ele>1429.53516</ele>
        <time>2024-08-08T08:25:47.000Z</time>
      </trkpt>
      <trkpt lat="45.579315" lon="7.857932">
        <ele>1429.40503</ele>
        <time>2024-08-08T08:25:49.000Z</time>
      </trkpt>
      <trkpt lat="45.579352" lon="7.857917">
        <ele>1429.3551</ele>
        <time>2024-08-08T08:25:51.000Z</time>
      </trkpt>
      <trkpt lat="45.579382" lon="7.857905">
        <ele>1429.41016</ele>
        <time>2024-08-08T08:25:53.000Z</time>
      </trkpt>
      <trkpt lat="45.579405" lon="7.857903">
        <ele>1429.50024</ele>
        <time>2024-08-08T08:25:55.000Z</time>
      </trkpt>
      <trkpt lat="45.579423" lon="7.857903">
        <ele>1429.63013</ele>
        <time>2024-08-08T08:25:57.000Z</time>
      </trkpt>
      <trkpt lat="45.57944" lon="7.857878">
        <ele>1429.81519</ele>
        <time>2024-08-08T08:26:00.000Z</time>
      </trkpt>
      <trkpt lat="45.579452" lon="7.857847">
        <ele>1430.06519</ele>
        <time>2024-08-08T08:26:03.000Z</time>
      </trkpt>
      <trkpt lat="45.57947" lon="7.857837">
        <ele>1430.37024</ele>
        <time>2024-08-08T08:26:06.000Z</time>
      </trkpt>
      <trkpt lat="45.579485" lon="7.857858">
        <ele>1430.73523</ele>
        <time>2024-08-08T08:26:10.000Z</time>
      </trkpt>
      <trkpt lat="45.579507" lon="7.857872">
        <ele>1431.19019</ele>
        <time>2024-08-08T08:26:13.000Z</time>
      </trkpt>
      <trkpt lat="45.579522" lon="7.857857">
        <ele>1431.7052</ele>
        <time>2024-08-08T08:26:17.000Z</time>
      </trkpt>
      <trkpt lat="45.579528" lon="7.857827">
        <ele>1432.22522</ele>
        <time>2024-08-08T08:26:20.000Z</time>
      </trkpt>
      <trkpt lat="45.579542" lon="7.857803">
        <ele>1432.74524</ele>
        <time>2024-08-08T08:26:24.000Z</time>
      </trkpt>
      <trkpt lat="45.579563" lon="7.857783">
        <ele>1433.28528</ele>
        <time>2024-08-08T08:26:28.000Z</time>
      </trkpt>
      <trkpt lat="45.579587" lon="7.857788">
        <ele>1433.86023</ele>
        <time>2024-08-08T08:26:30.000Z</time>
      </trkpt>
      <trkpt lat="45.579603" lon="7.857777">
        <ele>1434.5603</ele>
        <time>2024-08-08T08:26:33.000Z</time>
      </trkpt>
      <trkpt lat="45.57962" lon="7.857758">
        <ele>1435.28528</ele>
        <time>2024-08-08T08:26:35.000Z</time>
      </trkpt>
      <trkpt lat="45.579637" lon="7.857743">
        <ele>1435.99023</ele>
        <time>2024-08-08T08:26:37.000Z</time>
      </trkpt>
      <trkpt lat="45.579653" lon="7.857728">
        <ele>1436.69519</ele>
        <time>2024-08-08T08:26:39.000Z</time>
      </trkpt>
      <trkpt lat="45.579668" lon="7.857712">
        <ele>1437.40515</ele>
        <time>2024-08-08T08:26:41.000Z</time>
      </trkpt>
      <trkpt lat="45.579687" lon="7.85769">
        <ele>1438.10522</ele>
        <time>2024-08-08T08:26:43.000Z</time>
      </trkpt>
      <trkpt lat="45.579707" lon="7.857668">
        <ele>1438.79016</ele>
        <time>2024-08-08T08:26:45.000Z</time>
      </trkpt>
      <trkpt lat="45.579727" lon="7.857658">
        <ele>1439.42017</ele>
        <time>2024-08-08T08:26:47.000Z</time>
      </trkpt>
      <trkpt lat="45.579748" lon="7.857647">
        <ele>1439.95007</ele>
        <time>2024-08-08T08:26:50.000Z</time>
      </trkpt>
      <trkpt lat="45.579765" lon="7.857625">
        <ele>1440.41504</ele>
        <time>2024-08-08T08:26:52.000Z</time>
      </trkpt>
      <trkpt lat="45.579782" lon="7.8576">
        <ele>1440.86499</ele>
        <time>2024-08-08T08:26:55.000Z</time>
      </trkpt>
      <trkpt lat="45.579802" lon="7.857577">
        <ele>1441.24512</ele>
        <time>2024-08-08T08:26:58.000Z</time>
      </trkpt>
      <trkpt lat="45.579812" lon="7.857552">
        <ele>1441.56006</ele>
        <time>2024-08-08T08:27:00.000Z</time>
      </trkpt>
      <trkpt lat="45.579802" lon="7.857528">
        <ele>1441.80505</ele>
        <time>2024-08-08T08:27:02.000Z</time>
      </trkpt>
      <trkpt lat="45.579785" lon="7.857508">
        <ele>1442.01501</ele>
        <time>2024-08-08T08:27:04.000Z</time>
      </trkpt>
      <trkpt lat="45.57979" lon="7.857472">
        <ele>1442.15015</ele>
        <time>2024-08-08T08:27:07.000Z</time>
      </trkpt>
      <trkpt lat="45.5798" lon="7.857448">
        <ele>1442.26001</ele>
        <time>2024-08-08T08:27:09.000Z</time>
      </trkpt>
      <trkpt lat="45.579812" lon="7.857407">
        <ele>1442.38</ele>
        <time>2024-08-08T08:27:11.000Z</time>
      </trkpt>
      <trkpt lat="45.579827" lon="7.857387">
        <ele>1442.5199</ele>
        <time>2024-08-08T08:27:12.000Z</time>
      </trkpt>
      <trkpt lat="45.579848" lon="7.857357">
        <ele>1442.66992</ele>
        <time>2024-08-08T08:27:14.000Z</time>
      </trkpt>
      <trkpt lat="45.579858" lon="7.85733">
        <ele>1442.71497</ele>
        <time>2024-08-08T08:27:16.000Z</time>
      </trkpt>
      <trkpt lat="45.579875" lon="7.857313">
        <ele>1442.72498</ele>
        <time>2024-08-08T08:27:18.000Z</time>
      </trkpt>
      <trkpt lat="45.579893" lon="7.85729">
        <ele>1442.755</ele>
        <time>2024-08-08T08:27:20.000Z</time>
      </trkpt>
      <trkpt lat="45.579913" lon="7.857272">
        <ele>1442.76001</ele>
        <time>2024-08-08T08:27:22.000Z</time>
      </trkpt>
      <trkpt lat="45.579933" lon="7.857242">
        <ele>1442.71997</ele>
        <time>2024-08-08T08:27:24.000Z</time>
      </trkpt>
      <trkpt lat="45.579952" lon="7.857208">
        <ele>1442.66504</ele>
        <time>2024-08-08T08:27:26.000Z</time>
      </trkpt>
      <trkpt lat="45.579968" lon="7.857195">
        <ele>1442.6001</ele>
        <time>2024-08-08T08:27:27.000Z</time>
      </trkpt>
      <trkpt lat="45.579982" lon="7.857173">
        <ele>1442.53503</ele>
        <time>2024-08-08T08:27:28.000Z</time>
      </trkpt>
      <trkpt lat="45.580007" lon="7.857147">
        <ele>1442.53503</ele>
        <time>2024-08-08T08:27:30.000Z</time>
      </trkpt>
      <trkpt lat="45.580028" lon="7.857123">
        <ele>1442.52014</ele>
        <time>2024-08-08T08:27:32.000Z</time>
      </trkpt>
      <trkpt lat="45.580053" lon="7.857097">
        <ele>1442.45007</ele>
        <time>2024-08-08T08:27:34.000Z</time>
      </trkpt>
      <trkpt lat="45.580067" lon="7.857078">
        <ele>1442.37</ele>
        <time>2024-08-08T08:27:35.000Z</time>
      </trkpt>
      <trkpt lat="45.580093" lon="7.857048">
        <ele>1442.30505</ele>
        <time>2024-08-08T08:27:37.000Z</time>
      </trkpt>
      <trkpt lat="45.580115" lon="7.857033">
        <ele>1442.28003</ele>
        <time>2024-08-08T08:27:39.000Z</time>
      </trkpt>
      <trkpt lat="45.58014" lon="7.857028">
        <ele>1442.25012</ele>
        <time>2024-08-08T08:27:42.000Z</time>
      </trkpt>
      <trkpt lat="45.580162" lon="7.857033">
        <ele>1442.26001</ele>
        <time>2024-08-08T08:27:45.000Z</time>
      </trkpt>
      <trkpt lat="45.580182" lon="7.857042">
        <ele>1442.29517</ele>
        <time>2024-08-08T08:27:47.000Z</time>
      </trkpt>
      <trkpt lat="45.5802" lon="7.857048">
        <ele>1442.3252</ele>
        <time>2024-08-08T08:27:48.000Z</time>
      </trkpt>
      <trkpt lat="45.580223" lon="7.857058">
        <ele>1442.3302</ele>
        <time>2024-08-08T08:27:49.000Z</time>
      </trkpt>
      <trkpt lat="45.580245" lon="7.857065">
        <ele>1442.28516</ele>
        <time>2024-08-08T08:27:50.000Z</time>
      </trkpt>
      <trkpt lat="45.580268" lon="7.857077">
        <ele>1442.21509</ele>
        <time>2024-08-08T08:27:52.000Z</time>
      </trkpt>
      <trkpt lat="45.580292" lon="7.857078">
        <ele>1442.06519</ele>
        <time>2024-08-08T08:27:59.000Z</time>
      </trkpt>
      <trkpt lat="45.580327" lon="7.85708">
        <ele>1441.86511</ele>
        <time>2024-08-08T08:28:01.000Z</time>
      </trkpt>
      <trkpt lat="45.580348" lon="7.857077">
        <ele>1441.70007</ele>
        <time>2024-08-08T08:28:03.000Z</time>
      </trkpt>
      <trkpt lat="45.580367" lon="7.857087">
        <ele>1441.64514</ele>
        <time>2024-08-08T08:28:06.000Z</time>
      </trkpt>
      <trkpt lat="45.580387" lon="7.857098">
        <ele>1441.63013</ele>
        <time>2024-08-08T08:28:08.000Z</time>
      </trkpt>
      <trkpt lat="45.580403" lon="7.857108">
        <ele>1441.65015</ele>
        <time>2024-08-08T08:28:09.000Z</time>
      </trkpt>
      <trkpt lat="45.580433" lon="7.85714">
        <ele>1441.74524</ele>
        <time>2024-08-08T08:28:11.000Z</time>
      </trkpt>
      <trkpt lat="45.580458" lon="7.857167">
        <ele>1441.91528</ele>
        <time>2024-08-08T08:28:13.000Z</time>
      </trkpt>
      <trkpt lat="45.58048" lon="7.857187">
        <ele>1442.15515</ele>
        <time>2024-08-08T08:28:15.000Z</time>
      </trkpt>
      <trkpt lat="45.580503" lon="7.857202">
        <ele>1442.46021</ele>
        <time>2024-08-08T08:28:17.000Z</time>
      </trkpt>
      <trkpt lat="45.580523" lon="7.857207">
        <ele>1442.81519</ele>
        <time>2024-08-08T08:28:19.000Z</time>
      </trkpt>
      <trkpt lat="45.580537" lon="7.857225">
        <ele>1443.22021</ele>
        <time>2024-08-08T08:28:21.000Z</time>
      </trkpt>
      <trkpt lat="45.580552" lon="7.857248">
        <ele>1443.61011</ele>
        <time>2024-08-08T08:28:23.000Z</time>
      </trkpt>
      <trkpt lat="45.580575" lon="7.857265">
        <ele>1443.99011</ele>
        <time>2024-08-08T08:28:25.000Z</time>
      </trkpt>
      <trkpt lat="45.580588" lon="7.857303">
        <ele>1444.36511</ele>
        <time>2024-08-08T08:28:27.000Z</time>
      </trkpt>
      <trkpt lat="45.580598" lon="7.857328">
        <ele>1444.74011</ele>
        <time>2024-08-08T08:28:30.000Z</time>
      </trkpt>
      <trkpt lat="45.580608" lon="7.85735">
        <ele>1445.12012</ele>
        <time>2024-08-08T08:28:33.000Z</time>
      </trkpt>
      <trkpt lat="45.580625" lon="7.857383">
        <ele>1445.49011</ele>
        <time>2024-08-08T08:28:35.000Z</time>
      </trkpt>
      <trkpt lat="45.580642" lon="7.857413">
        <ele>1445.85522</ele>
        <time>2024-08-08T08:28:37.000Z</time>
      </trkpt>
      <trkpt lat="45.58066" lon="7.85744">
        <ele>1446.19019</ele>
        <time>2024-08-08T08:28:39.000Z</time>
      </trkpt>
      <trkpt lat="45.580673" lon="7.857485">
        <ele>1446.55005</ele>
        <time>2024-08-08T08:28:41.000Z</time>
      </trkpt>
      <trkpt lat="45.580687" lon="7.85751">
        <ele>1446.93518</ele>
        <time>2024-08-08T08:28:43.000Z</time>
      </trkpt>
      <trkpt lat="45.580695" lon="7.857535">
        <ele>1447.30518</ele>
        <time>2024-08-08T08:28:46.000Z</time>
      </trkpt>
      <trkpt lat="45.5807" lon="7.857565">
        <ele>1447.62012</ele>
        <time>2024-08-08T08:28:48.000Z</time>
      </trkpt>
      <trkpt lat="45.580707" lon="7.857593">
        <ele>1447.93005</ele>
        <time>2024-08-08T08:28:50.000Z</time>
      </trkpt>
      <trkpt lat="45.580717" lon="7.857618">
        <ele>1448.27002</ele>
        <time>2024-08-08T08:28:52.000Z</time>
      </trkpt>
      <trkpt lat="45.58072" lon="7.857662">
        <ele>1448.61011</ele>
        <time>2024-08-08T08:28:55.000Z</time>
      </trkpt>
      <trkpt lat="45.58073" lon="7.857702">
        <ele>1448.86499</ele>
        <time>2024-08-08T08:28:57.000Z</time>
      </trkpt>
      <trkpt lat="45.580735" lon="7.85773">
        <ele>1449.09509</ele>
        <time>2024-08-08T08:28:59.000Z</time>
      </trkpt>
      <trkpt lat="45.58074" lon="7.857767">
        <ele>1449.27014</ele>
        <time>2024-08-08T08:29:02.000Z</time>
      </trkpt>
      <trkpt lat="45.580748" lon="7.857795">
        <ele>1449.40503</ele>
        <time>2024-08-08T08:29:04.000Z</time>
      </trkpt>
      <trkpt lat="45.58075" lon="7.857843">
        <ele>1449.49512</ele>
        <time>2024-08-08T08:29:06.000Z</time>
      </trkpt>
      <trkpt lat="45.580755" lon="7.857888">
        <ele>1449.63513</ele>
        <time>2024-08-08T08:29:08.000Z</time>
      </trkpt>
      <trkpt lat="45.580757" lon="7.857923">
        <ele>1449.90015</ele>
        <time>2024-08-08T08:29:10.000Z</time>
      </trkpt>
      <trkpt lat="45.580763" lon="7.857957">
        <ele>1450.23022</ele>
        <time>2024-08-08T08:29:12.000Z</time>
      </trkpt>
      <trkpt lat="45.58077" lon="7.85799">
        <ele>1450.65515</ele>
        <time>2024-08-08T08:29:15.000Z</time>
      </trkpt>
      <trkpt lat="45.580778" lon="7.85803">
        <ele>1451.12524</ele>
        <time>2024-08-08T08:29:17.000Z</time>
      </trkpt>
      <trkpt lat="45.580788" lon="7.858068">
        <ele>1451.66528</ele>
        <time>2024-08-08T08:29:19.000Z</time>
      </trkpt>
      <trkpt lat="45.580793" lon="7.858105">
        <ele>1452.22021</ele>
        <time>2024-08-08T08:29:21.000Z</time>
      </trkpt>
      <trkpt lat="45.5808" lon="7.858132">
        <ele>1452.83521</ele>
        <time>2024-08-08T08:29:23.000Z</time>
      </trkpt>
      <trkpt lat="45.580803" lon="7.858158">
        <ele>1453.51526</ele>
        <time>2024-08-08T08:29:25.000Z</time>
      </trkpt>
      <trkpt lat="45.580813" lon="7.858195">
        <ele>1454.22021</ele>
        <time>2024-08-08T08:29:27.000Z</time>
      </trkpt>
      <trkpt lat="45.580818" lon="7.858228">
        <ele>1454.92017</ele>
        <time>2024-08-08T08:29:29.000Z</time>
      </trkpt>
      <trkpt lat="45.580827" lon="7.858262">
        <ele>1455.62024</ele>
        <time>2024-08-08T08:29:31.000Z</time>
      </trkpt>
      <trkpt lat="45.58084" lon="7.858293">
        <ele>1456.30017</ele>
        <time>2024-08-08T08:29:33.000Z</time>
      </trkpt>
      <trkpt lat="45.580852" lon="7.858325">
        <ele>1456.9552</ele>
        <time>2024-08-08T08:29:35.000Z</time>
      </trkpt>
      <trkpt lat="45.580865" lon="7.85836">
        <ele>1457.58521</ele>
        <time>2024-08-08T08:29:37.000Z</time>
      </trkpt>
      <trkpt lat="45.580872" lon="7.858393">
        <ele>1458.25513</ele>
        <time>2024-08-08T08:29:39.000Z</time>
      </trkpt>
      <trkpt lat="45.580873" lon="7.858433">
        <ele>1458.93518</ele>
        <time>2024-08-08T08:29:41.000Z</time>
      </trkpt>
      <trkpt lat="45.58088" lon="7.858462">
        <ele>1459.64514</ele>
        <time>2024-08-08T08:29:43.000Z</time>
      </trkpt>
      <trkpt lat="45.580883" lon="7.858497">
        <ele>1460.34009</ele>
        <time>2024-08-08T08:29:45.000Z</time>
      </trkpt>
      <trkpt lat="45.580882" lon="7.858533">
        <ele>1460.99512</ele>
        <time>2024-08-08T08:29:47.000Z</time>
      </trkpt>
      <trkpt lat="45.580897" lon="7.858572">
        <ele>1461.53003</ele>
        <time>2024-08-08T08:29:49.000Z</time>
      </trkpt>
      <trkpt lat="45.580907" lon="7.858598">
        <ele>1461.91504</ele>
        <time>2024-08-08T08:29:51.000Z</time>
      </trkpt>
      <trkpt lat="45.580908" lon="7.858632">
        <ele>1462.22009</ele>
        <time>2024-08-08T08:29:53.000Z</time>
      </trkpt>
      <trkpt lat="45.580908" lon="7.858668">
        <ele>1462.45007</ele>
        <time>2024-08-08T08:29:55.000Z</time>
      </trkpt>
      <trkpt lat="45.580913" lon="7.858698">
        <ele>1462.63501</ele>
        <time>2024-08-08T08:29:57.000Z</time>
      </trkpt>
      <trkpt lat="45.580915" lon="7.858735">
        <ele>1462.77002</ele>
        <time>2024-08-08T08:29:59.000Z</time>
      </trkpt>
      <trkpt lat="45.580918" lon="7.858775">
        <ele>1462.90002</ele>
        <time>2024-08-08T08:30:01.000Z</time>
      </trkpt>
      <trkpt lat="45.580923" lon="7.858805">
        <ele>1463.005</ele>
        <time>2024-08-08T08:30:03.000Z</time>
      </trkpt>
      <trkpt lat="45.580932" lon="7.858828">
        <ele>1463.08508</ele>
        <time>2024-08-08T08:30:05.000Z</time>
      </trkpt>
      <trkpt lat="45.580942" lon="7.85886">
        <ele>1463.09998</ele>
        <time>2024-08-08T08:30:08.000Z</time>
      </trkpt>
      <trkpt lat="45.580935" lon="7.858885">
        <ele>1463.11011</ele>
        <time>2024-08-08T08:30:10.000Z</time>
      </trkpt>
      <trkpt lat="45.580942" lon="7.858915">
        <ele>1463.14514</ele>
        <time>2024-08-08T08:30:15.000Z</time>
      </trkpt>
      <trkpt lat="45.580945" lon="7.858952">
        <ele>1463.18018</ele>
        <time>2024-08-08T08:30:17.000Z</time>
      </trkpt>
      <trkpt lat="45.58095" lon="7.858977">
        <ele>1463.2002</ele>
        <time>2024-08-08T08:30:19.000Z</time>
      </trkpt>
      <trkpt lat="45.58096" lon="7.859002">
        <ele>1463.21021</ele>
        <time>2024-08-08T08:30:21.000Z</time>
      </trkpt>
      <trkpt lat="45.580968" lon="7.859027">
        <ele>1463.19507</ele>
        <time>2024-08-08T08:30:23.000Z</time>
      </trkpt>
      <trkpt lat="45.580975" lon="7.859058">
        <ele>1463.20007</ele>
        <time>2024-08-08T08:30:26.000Z</time>
      </trkpt>
      <trkpt lat="45.580977" lon="7.859095">
        <ele>1463.20007</ele>
        <time>2024-08-08T08:30:28.000Z</time>
      </trkpt>
      <trkpt lat="45.580973" lon="7.859132">
        <ele>1463.22009</ele>
        <time>2024-08-08T08:30:30.000Z</time>
      </trkpt>
      <trkpt lat="45.580975" lon="7.85916">
        <ele>1463.29517</ele>
        <time>2024-08-08T08:30:32.000Z</time>
      </trkpt>
      <trkpt lat="45.580972" lon="7.859187">
        <ele>1463.44507</ele>
        <time>2024-08-08T08:30:36.000Z</time>
      </trkpt>
      <trkpt lat="45.580975" lon="7.859225">
        <ele>1463.73511</ele>
        <time>2024-08-08T08:30:40.000Z</time>
      </trkpt>
      <trkpt lat="45.580972" lon="7.859252">
        <ele>1464.09009</ele>
        <time>2024-08-08T08:30:42.000Z</time>
      </trkpt>
      <trkpt lat="45.580968" lon="7.859285">
        <ele>1464.52515</ele>
        <time>2024-08-08T08:30:45.000Z</time>
      </trkpt>
      <trkpt lat="45.58096" lon="7.85932">
        <ele>1465.03003</ele>
        <time>2024-08-08T08:30:47.000Z</time>
      </trkpt>
      <trkpt lat="45.580948" lon="7.859347">
        <ele>1465.63501</ele>
        <time>2024-08-08T08:30:50.000Z</time>
      </trkpt>
      <trkpt lat="45.580927" lon="7.85935">
        <ele>1466.32507</ele>
        <time>2024-08-08T08:30:52.000Z</time>
      </trkpt>
      <trkpt lat="45.580907" lon="7.85934">
        <ele>1467.12512</ele>
        <time>2024-08-08T08:30:54.000Z</time>
      </trkpt>
      <trkpt lat="45.580882" lon="7.859328">
        <ele>1467.94006</ele>
        <time>2024-08-08T08:30:56.000Z</time>
      </trkpt>
      <trkpt lat="45.580852" lon="7.859308">
        <ele>1468.80505</ele>
        <time>2024-08-08T08:30:58.000Z</time>
      </trkpt>
      <trkpt lat="45.580827" lon="7.859292">
        <ele>1469.69995</ele>
        <time>2024-08-08T08:31:00.000Z</time>
      </trkpt>
      <trkpt lat="45.580807" lon="7.859278">
        <ele>1470.55005</ele>
        <time>2024-08-08T08:31:02.000Z</time>
      </trkpt>
      <trkpt lat="45.580778" lon="7.859253">
        <ele>1471.40002</ele>
        <time>2024-08-08T08:31:04.000Z</time>
      </trkpt>
      <trkpt lat="45.580757" lon="7.85923">
        <ele>1472.23999</ele>
        <time>2024-08-08T08:31:06.000Z</time>
      </trkpt>
      <trkpt lat="45.58073" lon="7.859222">
        <ele>1473.04504</ele>
        <time>2024-08-08T08:31:08.000Z</time>
      </trkpt>
      <trkpt lat="45.580715" lon="7.859197">
        <ele>1473.84497</ele>
        <time>2024-08-08T08:31:11.000Z</time>
      </trkpt>
      <trkpt lat="45.580703" lon="7.859173">
        <ele>1474.59497</ele>
        <time>2024-08-08T08:31:13.000Z</time>
      </trkpt>
      <trkpt lat="45.580682" lon="7.859158">
        <ele>1475.33508</ele>
        <time>2024-08-08T08:31:16.000Z</time>
      </trkpt>
      <trkpt lat="45.58066" lon="7.859162">
        <ele>1476.06006</ele>
        <time>2024-08-08T08:31:19.000Z</time>
      </trkpt>
      <trkpt lat="45.580672" lon="7.859192">
        <ele>1476.69507</ele>
        <time>2024-08-08T08:31:23.000Z</time>
      </trkpt>
      <trkpt lat="45.580693" lon="7.859223">
        <ele>1477.30005</ele>
        <time>2024-08-08T08:31:27.000Z</time>
      </trkpt>
      <trkpt lat="45.58071" lon="7.85925">
        <ele>1477.78003</ele>
        <time>2024-08-08T08:31:29.000Z</time>
      </trkpt>
      <trkpt lat="45.580723" lon="7.859268">
        <ele>1478.21497</ele>
        <time>2024-08-08T08:31:31.000Z</time>
      </trkpt>
      <trkpt lat="45.580738" lon="7.85929">
        <ele>1478.59998</ele>
        <time>2024-08-08T08:31:34.000Z</time>
      </trkpt>
      <trkpt lat="45.580752" lon="7.859323">
        <ele>1478.94995</ele>
        <time>2024-08-08T08:31:37.000Z</time>
      </trkpt>
      <trkpt lat="45.58076" lon="7.85936">
        <ele>1479.21509</ele>
        <time>2024-08-08T08:31:39.000Z</time>
      </trkpt>
      <trkpt lat="45.580778" lon="7.859383">
        <ele>1479.44507</ele>
        <time>2024-08-08T08:31:41.000Z</time>
      </trkpt>
      <trkpt lat="45.58079" lon="7.859405">
        <ele>1479.7301</ele>
        <time>2024-08-08T08:31:46.000Z</time>
      </trkpt>
      <trkpt lat="45.580802" lon="7.859438">
        <ele>1480.07507</ele>
        <time>2024-08-08T08:31:50.000Z</time>
      </trkpt>
      <trkpt lat="45.580807" lon="7.859463">
        <ele>1480.49011</ele>
        <time>2024-08-08T08:31:52.000Z</time>
      </trkpt>
      <trkpt lat="45.58081" lon="7.859493">
        <ele>1480.93518</ele>
        <time>2024-08-08T08:31:54.000Z</time>
      </trkpt>
      <trkpt lat="45.580823" lon="7.859523">
        <ele>1481.40503</ele>
        <time>2024-08-08T08:31:56.000Z</time>
      </trkpt>
      <trkpt lat="45.580845" lon="7.859533">
        <ele>1481.91504</ele>
        <time>2024-08-08T08:31:59.000Z</time>
      </trkpt>
      <trkpt lat="45.580863" lon="7.859518">
        <ele>1482.44995</ele>
        <time>2024-08-08T08:32:01.000Z</time>
      </trkpt>
      <trkpt lat="45.580883" lon="7.859508">
        <ele>1483.02002</ele>
        <time>2024-08-08T08:32:03.000Z</time>
      </trkpt>
      <trkpt lat="45.580903" lon="7.859503">
        <ele>1483.59497</ele>
        <time>2024-08-08T08:32:07.000Z</time>
      </trkpt>
      <trkpt lat="45.580927" lon="7.859513">
        <ele>1484.15002</ele>
        <time>2024-08-08T08:32:09.000Z</time>
      </trkpt>
      <trkpt lat="45.580957" lon="7.85952">
        <ele>1484.67004</ele>
        <time>2024-08-08T08:32:12.000Z</time>
      </trkpt>
      <trkpt lat="45.58099" lon="7.859523">
        <ele>1485.14502</ele>
        <time>2024-08-08T08:32:14.000Z</time>
      </trkpt>
      <trkpt lat="45.58102" lon="7.859522">
        <ele>1485.64001</ele>
        <time>2024-08-08T08:32:16.000Z</time>
      </trkpt>
      <trkpt lat="45.581045" lon="7.859525">
        <ele>1486.12012</ele>
        <time>2024-08-08T08:32:18.000Z</time>
      </trkpt>
      <trkpt lat="45.581068" lon="7.859522">
        <ele>1486.62512</ele>
        <time>2024-08-08T08:32:20.000Z</time>
      </trkpt>
      <trkpt lat="45.581088" lon="7.859517">
        <ele>1487.13513</ele>
        <time>2024-08-08T08:32:22.000Z</time>
      </trkpt>
      <trkpt lat="45.581107" lon="7.859515">
        <ele>1487.61511</ele>
        <time>2024-08-08T08:32:24.000Z</time>
      </trkpt>
      <trkpt lat="45.58113" lon="7.859517">
        <ele>1488.09009</ele>
        <time>2024-08-08T08:32:27.000Z</time>
      </trkpt>
      <trkpt lat="45.58116" lon="7.859508">
        <ele>1488.57007</ele>
        <time>2024-08-08T08:32:30.000Z</time>
      </trkpt>
      <trkpt lat="45.58119" lon="7.859505">
        <ele>1488.99512</ele>
        <time>2024-08-08T08:32:32.000Z</time>
      </trkpt>
      <trkpt lat="45.58121" lon="7.859502">
        <ele>1489.25513</ele>
        <time>2024-08-08T08:32:33.000Z</time>
      </trkpt>
      <trkpt lat="45.581242" lon="7.859495">
        <ele>1489.44006</ele>
        <time>2024-08-08T08:32:35.000Z</time>
      </trkpt>
      <trkpt lat="45.581267" lon="7.859492">
        <ele>1489.55994</ele>
        <time>2024-08-08T08:32:37.000Z</time>
      </trkpt>
      <trkpt lat="45.58129" lon="7.859487">
        <ele>1489.625</ele>
        <time>2024-08-08T08:32:39.000Z</time>
      </trkpt>
      <trkpt lat="45.581317" lon="7.85947">
        <ele>1489.67004</ele>
        <time>2024-08-08T08:32:41.000Z</time>
      </trkpt>
      <trkpt lat="45.581335" lon="7.859463">
        <ele>1489.68506</ele>
        <time>2024-08-08T08:32:42.000Z</time>
      </trkpt>
      <trkpt lat="45.581362" lon="7.859462">
        <ele>1489.70007</ele>
        <time>2024-08-08T08:32:44.000Z</time>
      </trkpt>
      <trkpt lat="45.581388" lon="7.859475">
        <ele>1489.7301</ele>
        <time>2024-08-08T08:32:46.000Z</time>
      </trkpt>
      <trkpt lat="45.58141" lon="7.859488">
        <ele>1489.79004</ele>
        <time>2024-08-08T08:32:48.000Z</time>
      </trkpt>
      <trkpt lat="45.58144" lon="7.8595">
        <ele>1489.90015</ele>
        <time>2024-08-08T08:32:51.000Z</time>
      </trkpt>
      <trkpt lat="45.581465" lon="7.859513">
        <ele>1490.05505</ele>
        <time>2024-08-08T08:32:53.000Z</time>
      </trkpt>
      <trkpt lat="45.581492" lon="7.859528">
        <ele>1490.26001</ele>
        <time>2024-08-08T08:32:55.000Z</time>
      </trkpt>
      <trkpt lat="45.581515" lon="7.859542">
        <ele>1490.48999</ele>
        <time>2024-08-08T08:32:57.000Z</time>
      </trkpt>
      <trkpt lat="45.581545" lon="7.859543">
        <ele>1490.72998</ele>
        <time>2024-08-08T08:32:59.000Z</time>
      </trkpt>
      <trkpt lat="45.581582" lon="7.85955">
        <ele>1490.96997</ele>
        <time>2024-08-08T08:33:01.000Z</time>
      </trkpt>
      <trkpt lat="45.581602" lon="7.859555">
        <ele>1491.20996</ele>
        <time>2024-08-08T08:33:02.000Z</time>
      </trkpt>
      <trkpt lat="45.58162" lon="7.859562">
        <ele>1491.43994</ele>
        <time>2024-08-08T08:33:03.000Z</time>
      </trkpt>
      <trkpt lat="45.581647" lon="7.859548">
        <ele>1491.68494</ele>
        <time>2024-08-08T08:33:06.000Z</time>
      </trkpt>
      <trkpt lat="45.581672" lon="7.859545">
        <ele>1491.96997</ele>
        <time>2024-08-08T08:33:09.000Z</time>
      </trkpt>
      <trkpt lat="45.581697" lon="7.859547">
        <ele>1492.28003</ele>
        <time>2024-08-08T08:33:11.000Z</time>
      </trkpt>
      <trkpt lat="45.581723" lon="7.859555">
        <ele>1492.63989</ele>
        <time>2024-08-08T08:33:13.000Z</time>
      </trkpt>
      <trkpt lat="45.581743" lon="7.859557">
        <ele>1493.01489</ele>
        <time>2024-08-08T08:33:15.000Z</time>
      </trkpt>
      <trkpt lat="45.581762" lon="7.859557">
        <ele>1493.40991</ele>
        <time>2024-08-08T08:33:17.000Z</time>
      </trkpt>
      <trkpt lat="45.58178" lon="7.859543">
        <ele>1493.84497</ele>
        <time>2024-08-08T08:33:19.000Z</time>
      </trkpt>
      <trkpt lat="45.581798" lon="7.859538">
        <ele>1494.32996</ele>
        <time>2024-08-08T08:33:21.000Z</time>
      </trkpt>
      <trkpt lat="45.581818" lon="7.859535">
        <ele>1494.82495</ele>
        <time>2024-08-08T08:33:23.000Z</time>
      </trkpt>
      <trkpt lat="45.581842" lon="7.859543">
        <ele>1495.29993</ele>
        <time>2024-08-08T08:33:25.000Z</time>
      </trkpt>
      <trkpt lat="45.581868" lon="7.859553">
        <ele>1495.73499</ele>
        <time>2024-08-08T08:33:28.000Z</time>
      </trkpt>
      <trkpt lat="45.581893" lon="7.859565">
        <ele>1496.14001</ele>
        <time>2024-08-08T08:33:31.000Z</time>
      </trkpt>
      <trkpt lat="45.581918" lon="7.859567">
        <ele>1496.55005</ele>
        <time>2024-08-08T08:33:33.000Z</time>
      </trkpt>
      <trkpt lat="45.581938" lon="7.859558">
        <ele>1496.95996</ele>
        <time>2024-08-08T08:33:35.000Z</time>
      </trkpt>
      <trkpt lat="45.581958" lon="7.859552">
        <ele>1497.3949</ele>
        <time>2024-08-08T08:33:37.000Z</time>
      </trkpt>
      <trkpt lat="45.581977" lon="7.85956">
        <ele>1497.84497</ele>
        <time>2024-08-08T08:33:39.000Z</time>
      </trkpt>
      <trkpt lat="45.582" lon="7.85957">
        <ele>1498.28992</ele>
        <time>2024-08-08T08:33:41.000Z</time>
      </trkpt>
      <trkpt lat="45.582028" lon="7.859583">
        <ele>1498.72485</ele>
        <time>2024-08-08T08:33:43.000Z</time>
      </trkpt>
      <trkpt lat="45.582055" lon="7.8596">
        <ele>1499.1499</ele>
        <time>2024-08-08T08:33:45.000Z</time>
      </trkpt>
      <trkpt lat="45.582085" lon="7.859617">
        <ele>1499.57983</ele>
        <time>2024-08-08T08:33:47.000Z</time>
      </trkpt>
      <trkpt lat="45.582108" lon="7.85964">
        <ele>1499.94495</ele>
        <time>2024-08-08T08:33:49.000Z</time>
      </trkpt>
      <trkpt lat="45.582123" lon="7.859665">
        <ele>1500.22485</ele>
        <time>2024-08-08T08:33:51.000Z</time>
      </trkpt>
      <trkpt lat="45.58214" lon="7.859682">
        <ele>1500.46997</ele>
        <time>2024-08-08T08:33:53.000Z</time>
      </trkpt>
      <trkpt lat="45.582162" lon="7.859702">
        <ele>1500.65991</ele>
        <time>2024-08-08T08:33:56.000Z</time>
      </trkpt>
      <trkpt lat="45.582173" lon="7.859722">
        <ele>1500.83496</ele>
        <time>2024-08-08T08:33:58.000Z</time>
      </trkpt>
      <trkpt lat="45.58219" lon="7.859737">
        <ele>1500.96997</ele>
        <time>2024-08-08T08:34:00.000Z</time>
      </trkpt>
      <trkpt lat="45.58221" lon="7.859765">
        <ele>1501.05005</ele>
        <time>2024-08-08T08:34:02.000Z</time>
      </trkpt>
      <trkpt lat="45.582233" lon="7.859788">
        <ele>1501.05493</ele>
        <time>2024-08-08T08:34:04.000Z</time>
      </trkpt>
      <trkpt lat="45.582265" lon="7.859808">
        <ele>1501.04504</ele>
        <time>2024-08-08T08:34:06.000Z</time>
      </trkpt>
      <trkpt lat="45.582285" lon="7.859817">
        <ele>1501.02502</ele>
        <time>2024-08-08T08:34:07.000Z</time>
      </trkpt>
      <trkpt lat="45.582303" lon="7.859833">
        <ele>1501.01489</ele>
        <time>2024-08-08T08:34:09.000Z</time>
      </trkpt>
      <trkpt lat="45.582323" lon="7.859847">
        <ele>1501.00488</ele>
        <time>2024-08-08T08:34:11.000Z</time>
      </trkpt>
      <trkpt lat="45.582337" lon="7.859867">
        <ele>1500.97986</ele>
        <time>2024-08-08T08:34:13.000Z</time>
      </trkpt>
      <trkpt lat="45.58235" lon="7.859895">
        <ele>1500.95996</ele>
        <time>2024-08-08T08:34:15.000Z</time>
      </trkpt>
      <trkpt lat="45.582367" lon="7.859925">
        <ele>1500.92505</ele>
        <time>2024-08-08T08:34:18.000Z</time>
      </trkpt>
      <trkpt lat="45.582383" lon="7.85995">
        <ele>1500.875</ele>
        <time>2024-08-08T08:34:20.000Z</time>
      </trkpt>
      <trkpt lat="45.58241" lon="7.85997">
        <ele>1500.81506</ele>
        <time>2024-08-08T08:34:22.000Z</time>
      </trkpt>
      <trkpt lat="45.582447" lon="7.859985">
        <ele>1500.76501</ele>
        <time>2024-08-08T08:34:24.000Z</time>
      </trkpt>
      <trkpt lat="45.582465" lon="7.859993">
        <ele>1500.73999</ele>
        <time>2024-08-08T08:34:25.000Z</time>
      </trkpt>
      <trkpt lat="45.582485" lon="7.860005">
        <ele>1500.75513</ele>
        <time>2024-08-08T08:34:27.000Z</time>
      </trkpt>
      <trkpt lat="45.58251" lon="7.86002">
        <ele>1500.84998</ele>
        <time>2024-08-08T08:34:30.000Z</time>
      </trkpt>
      <trkpt lat="45.582525" lon="7.860037">
        <ele>1501.05994</ele>
        <time>2024-08-08T08:34:33.000Z</time>
      </trkpt>
      <trkpt lat="45.582543" lon="7.860058">
        <ele>1501.34998</ele>
        <time>2024-08-08T08:34:36.000Z</time>
      </trkpt>
      <trkpt lat="45.582558" lon="7.860082">
        <ele>1501.66504</ele>
        <time>2024-08-08T08:34:39.000Z</time>
      </trkpt>
      <trkpt lat="45.582568" lon="7.86011">
        <ele>1502.03003</ele>
        <time>2024-08-08T08:34:43.000Z</time>
      </trkpt>
      <trkpt lat="45.58259" lon="7.860123">
        <ele>1502.42505</ele>
        <time>2024-08-08T08:34:46.000Z</time>
      </trkpt>
      <trkpt lat="45.582607" lon="7.860138">
        <ele>1502.86499</ele>
        <time>2024-08-08T08:34:48.000Z</time>
      </trkpt>
      <trkpt lat="45.58263" lon="7.860158">
        <ele>1503.36499</ele>
        <time>2024-08-08T08:34:51.000Z</time>
      </trkpt>
      <trkpt lat="45.582647" lon="7.860172">
        <ele>1503.89001</ele>
        <time>2024-08-08T08:34:53.000Z</time>
      </trkpt>
      <trkpt lat="45.58267" lon="7.860177">
        <ele>1504.44995</ele>
        <time>2024-08-08T08:34:56.000Z</time>
      </trkpt>
      <trkpt lat="45.582688" lon="7.860185">
        <ele>1505.06006</ele>
        <time>2024-08-08T08:34:59.000Z</time>
      </trkpt>
      <trkpt lat="45.582705" lon="7.860198">
        <ele>1505.73999</ele>
        <time>2024-08-08T08:35:01.000Z</time>
      </trkpt>
      <trkpt lat="45.582725" lon="7.860205">
        <ele>1506.45508</ele>
        <time>2024-08-08T08:35:03.000Z</time>
      </trkpt>
      <trkpt lat="45.582747" lon="7.860213">
        <ele>1507.18506</ele>
        <time>2024-08-08T08:35:05.000Z</time>
      </trkpt>
      <trkpt lat="45.58277" lon="7.860218">
        <ele>1507.94006</ele>
        <time>2024-08-08T08:35:07.000Z</time>
      </trkpt>
      <trkpt lat="45.582795" lon="7.860217">
        <ele>1508.745</ele>
        <time>2024-08-08T08:35:10.000Z</time>
      </trkpt>
      <trkpt lat="45.582817" lon="7.860222">
        <ele>1509.57495</ele>
        <time>2024-08-08T08:35:13.000Z</time>
      </trkpt>
      <trkpt lat="45.582838" lon="7.860233">
        <ele>1510.41003</ele>
        <time>2024-08-08T08:35:16.000Z</time>
      </trkpt>
      <trkpt lat="45.582857" lon="7.860242">
        <ele>1511.2251</ele>
        <time>2024-08-08T08:35:18.000Z</time>
      </trkpt>
      <trkpt lat="45.58288" lon="7.860258">
        <ele>1512.00513</ele>
        <time>2024-08-08T08:35:20.000Z</time>
      </trkpt>
      <trkpt lat="45.582905" lon="7.860265">
        <ele>1512.75513</ele>
        <time>2024-08-08T08:35:23.000Z</time>
      </trkpt>
      <trkpt lat="45.582923" lon="7.860275">
        <ele>1513.46008</ele>
        <time>2024-08-08T08:35:26.000Z</time>
      </trkpt>
      <trkpt lat="45.582948" lon="7.860302">
        <ele>1514.14502</ele>
        <time>2024-08-08T08:35:29.000Z</time>
      </trkpt>
      <trkpt lat="45.582972" lon="7.860327">
        <ele>1514.83496</ele>
        <time>2024-08-08T08:35:31.000Z</time>
      </trkpt>
      <trkpt lat="45.582992" lon="7.860357">
        <ele>1515.48999</ele>
        <time>2024-08-08T08:35:33.000Z</time>
      </trkpt>
      <trkpt lat="45.582997" lon="7.860388">
        <ele>1516.15002</ele>
        <time>2024-08-08T08:35:35.000Z</time>
      </trkpt>
      <trkpt lat="45.582997" lon="7.86042">
        <ele>1516.80493</ele>
        <time>2024-08-08T08:35:38.000Z</time>
      </trkpt>
      <trkpt lat="45.582982" lon="7.860438">
        <ele>1517.42505</ele>
        <time>2024-08-08T08:35:40.000Z</time>
      </trkpt>
      <trkpt lat="45.582965" lon="7.860452">
        <ele>1518.02502</ele>
        <time>2024-08-08T08:35:42.000Z</time>
      </trkpt>
      <trkpt lat="45.582947" lon="7.860453">
        <ele>1518.59998</ele>
        <time>2024-08-08T08:35:43.000Z</time>
      </trkpt>
      <trkpt lat="45.582923" lon="7.860458">
        <ele>1519.13501</ele>
        <time>2024-08-08T08:35:45.000Z</time>
      </trkpt>
      <trkpt lat="45.582902" lon="7.860467">
        <ele>1519.625</ele>
        <time>2024-08-08T08:35:47.000Z</time>
      </trkpt>
      <trkpt lat="45.58289" lon="7.860487">
        <ele>1520.09497</ele>
        <time>2024-08-08T08:35:50.000Z</time>
      </trkpt>
      <trkpt lat="45.582867" lon="7.86051">
        <ele>1520.59985</ele>
        <time>2024-08-08T08:35:53.000Z</time>
      </trkpt>
      <trkpt lat="45.58285" lon="7.860527">
        <ele>1521.11499</ele>
        <time>2024-08-08T08:35:55.000Z</time>
      </trkpt>
      <trkpt lat="45.582825" lon="7.860537">
        <ele>1521.64502</ele>
        <time>2024-08-08T08:35:57.000Z</time>
      </trkpt>
      <trkpt lat="45.582802" lon="7.860543">
        <ele>1522.19995</ele>
        <time>2024-08-08T08:35:59.000Z</time>
      </trkpt>
      <trkpt lat="45.582772" lon="7.86055">
        <ele>1522.76489</ele>
        <time>2024-08-08T08:36:01.000Z</time>
      </trkpt>
      <trkpt lat="45.582747" lon="7.860565">
        <ele>1523.37488</ele>
        <time>2024-08-08T08:36:03.000Z</time>
      </trkpt>
      <trkpt lat="45.582732" lon="7.86058">
        <ele>1523.97485</ele>
        <time>2024-08-08T08:36:05.000Z</time>
      </trkpt>
      <trkpt lat="45.582712" lon="7.860573">
        <ele>1524.57996</ele>
        <time>2024-08-08T08:36:08.000Z</time>
      </trkpt>
      <trkpt lat="45.582692" lon="7.860563">
        <ele>1525.15002</ele>
        <time>2024-08-08T08:36:10.000Z</time>
      </trkpt>
      <trkpt lat="45.582672" lon="7.860567">
        <ele>1525.69995</ele>
        <time>2024-08-08T08:36:13.000Z</time>
      </trkpt>
      <trkpt lat="45.582647" lon="7.860573">
        <ele>1526.25</ele>
        <time>2024-08-08T08:36:16.000Z</time>
      </trkpt>
      <trkpt lat="45.582632" lon="7.860592">
        <ele>1526.78003</ele>
        <time>2024-08-08T08:36:18.000Z</time>
      </trkpt>
      <trkpt lat="45.582608" lon="7.860593">
        <ele>1527.31494</ele>
        <time>2024-08-08T08:36:20.000Z</time>
      </trkpt>
      <trkpt lat="45.582582" lon="7.860592">
        <ele>1527.86987</ele>
        <time>2024-08-08T08:36:22.000Z</time>
      </trkpt>
      <trkpt lat="45.582553" lon="7.860588">
        <ele>1528.46997</ele>
        <time>2024-08-08T08:36:24.000Z</time>
      </trkpt>
      <trkpt lat="45.582527" lon="7.860588">
        <ele>1529.13989</ele>
        <time>2024-08-08T08:36:27.000Z</time>
      </trkpt>
      <trkpt lat="45.582515" lon="7.860613">
        <ele>1529.89502</ele>
        <time>2024-08-08T08:36:30.000Z</time>
      </trkpt>
      <trkpt lat="45.582533" lon="7.860623">
        <ele>1530.65503</ele>
        <time>2024-08-08T08:36:33.000Z</time>
      </trkpt>
      <trkpt lat="45.582555" lon="7.86062">
        <ele>1531.38501</ele>
        <time>2024-08-08T08:36:35.000Z</time>
      </trkpt>
      <trkpt lat="45.582578" lon="7.860603">
        <ele>1532.08508</ele>
        <time>2024-08-08T08:36:37.000Z</time>
      </trkpt>
      <trkpt lat="45.582597" lon="7.860592">
        <ele>1532.69006</ele>
        <time>2024-08-08T08:36:40.000Z</time>
      </trkpt>
      <trkpt lat="45.582628" lon="7.860595">
        <ele>1533.17993</ele>
        <time>2024-08-08T08:36:42.000Z</time>
      </trkpt>
      <trkpt lat="45.582648" lon="7.860592">
        <ele>1533.61499</ele>
        <time>2024-08-08T08:36:43.000Z</time>
      </trkpt>
      <trkpt lat="45.582673" lon="7.860592">
        <ele>1533.97998</ele>
        <time>2024-08-08T08:36:46.000Z</time>
      </trkpt>
      <trkpt lat="45.582698" lon="7.86059">
        <ele>1534.32007</ele>
        <time>2024-08-08T08:36:49.000Z</time>
      </trkpt>
      <trkpt lat="45.582723" lon="7.860595">
        <ele>1534.64502</ele>
        <time>2024-08-08T08:36:54.000Z</time>
      </trkpt>
      <trkpt lat="45.582743" lon="7.86061">
        <ele>1534.98999</ele>
        <time>2024-08-08T08:36:57.000Z</time>
      </trkpt>
      <trkpt lat="45.582765" lon="7.860615">
        <ele>1535.27502</ele>
        <time>2024-08-08T08:36:59.000Z</time>
      </trkpt>
      <trkpt lat="45.582783" lon="7.860622">
        <ele>1535.53503</ele>
        <time>2024-08-08T08:37:01.000Z</time>
      </trkpt>
      <trkpt lat="45.582807" lon="7.86063">
        <ele>1535.77014</ele>
        <time>2024-08-08T08:37:03.000Z</time>
      </trkpt>
      <trkpt lat="45.582828" lon="7.860637">
        <ele>1536.00012</ele>
        <time>2024-08-08T08:37:05.000Z</time>
      </trkpt>
      <trkpt lat="45.58285" lon="7.860652">
        <ele>1536.2251</ele>
        <time>2024-08-08T08:37:07.000Z</time>
      </trkpt>
      <trkpt lat="45.582872" lon="7.860665">
        <ele>1536.39014</ele>
        <time>2024-08-08T08:37:09.000Z</time>
      </trkpt>
      <trkpt lat="45.58289" lon="7.860682">
        <ele>1536.50024</ele>
        <time>2024-08-08T08:37:11.000Z</time>
      </trkpt>
      <trkpt lat="45.582917" lon="7.860708">
        <ele>1536.52515</ele>
        <time>2024-08-08T08:37:13.000Z</time>
      </trkpt>
      <trkpt lat="45.582935" lon="7.860723">
        <ele>1536.46021</ele>
        <time>2024-08-08T08:37:15.000Z</time>
      </trkpt>
      <trkpt lat="45.582953" lon="7.860747">
        <ele>1536.27515</ele>
        <time>2024-08-08T08:37:17.000Z</time>
      </trkpt>
      <trkpt lat="45.582968" lon="7.860775">
        <ele>1536.05005</ele>
        <time>2024-08-08T08:37:19.000Z</time>
      </trkpt>
      <trkpt lat="45.582987" lon="7.860808">
        <ele>1535.79517</ele>
        <time>2024-08-08T08:37:21.000Z</time>
      </trkpt>
      <trkpt lat="45.583" lon="7.860835">
        <ele>1535.55017</ele>
        <time>2024-08-08T08:37:23.000Z</time>
      </trkpt>
      <trkpt lat="45.58302" lon="7.860857">
        <ele>1535.31519</ele>
        <time>2024-08-08T08:37:25.000Z</time>
      </trkpt>
      <trkpt lat="45.58304" lon="7.860873">
        <ele>1535.17529</ele>
        <time>2024-08-08T08:37:27.000Z</time>
      </trkpt>
      <trkpt lat="45.583058" lon="7.860885">
        <ele>1535.05029</ele>
        <time>2024-08-08T08:37:29.000Z</time>
      </trkpt>
      <trkpt lat="45.583088" lon="7.860903">
        <ele>1535.00525</ele>
        <time>2024-08-08T08:37:31.000Z</time>
      </trkpt>
      <trkpt lat="45.583102" lon="7.860922">
        <ele>1534.95032</ele>
        <time>2024-08-08T08:37:33.000Z</time>
      </trkpt>
      <trkpt lat="45.583113" lon="7.860945">
        <ele>1534.86035</ele>
        <time>2024-08-08T08:37:35.000Z</time>
      </trkpt>
      <trkpt lat="45.583137" lon="7.860962">
        <ele>1534.73035</ele>
        <time>2024-08-08T08:37:37.000Z</time>
      </trkpt>
      <trkpt lat="45.583147" lon="7.860995">
        <ele>1534.65039</ele>
        <time>2024-08-08T08:37:39.000Z</time>
      </trkpt>
      <trkpt lat="45.58316" lon="7.861017">
        <ele>1534.70532</ele>
        <time>2024-08-08T08:37:42.000Z</time>
      </trkpt>
      <trkpt lat="45.58318" lon="7.86104">
        <ele>1534.82031</ele>
        <time>2024-08-08T08:37:44.000Z</time>
      </trkpt>
      <trkpt lat="45.583193" lon="7.861062">
        <ele>1534.96533</ele>
        <time>2024-08-08T08:37:46.000Z</time>
      </trkpt>
      <trkpt lat="45.583208" lon="7.861082">
        <ele>1535.14539</ele>
        <time>2024-08-08T08:37:49.000Z</time>
      </trkpt>
      <trkpt lat="45.583217" lon="7.861105">
        <ele>1535.36548</ele>
        <time>2024-08-08T08:37:51.000Z</time>
      </trkpt>
      <trkpt lat="45.583222" lon="7.861132">
        <ele>1535.59045</ele>
        <time>2024-08-08T08:37:54.000Z</time>
      </trkpt>
      <trkpt lat="45.583213" lon="7.861157">
        <ele>1535.85034</ele>
        <time>2024-08-08T08:37:57.000Z</time>
      </trkpt>
      <trkpt lat="45.583197" lon="7.861172">
        <ele>1536.11047</ele>
        <time>2024-08-08T08:37:59.000Z</time>
      </trkpt>
      <trkpt lat="45.58317" lon="7.861183">
        <ele>1536.3855</ele>
        <time>2024-08-08T08:38:02.000Z</time>
      </trkpt>
      <trkpt lat="45.583145" lon="7.861182">
        <ele>1536.6604</ele>
        <time>2024-08-08T08:38:04.000Z</time>
      </trkpt>
      <trkpt lat="45.583113" lon="7.861185">
        <ele>1536.95544</ele>
        <time>2024-08-08T08:38:06.000Z</time>
      </trkpt>
      <trkpt lat="45.583088" lon="7.861183">
        <ele>1537.24536</ele>
        <time>2024-08-08T08:38:08.000Z</time>
      </trkpt>
      <trkpt lat="45.58307" lon="7.861187">
        <ele>1537.52539</ele>
        <time>2024-08-08T08:38:10.000Z</time>
      </trkpt>
      <trkpt lat="45.583045" lon="7.861178">
        <ele>1537.77539</ele>
        <time>2024-08-08T08:38:12.000Z</time>
      </trkpt>
      <trkpt lat="45.583018" lon="7.861172">
        <ele>1538.00537</ele>
        <time>2024-08-08T08:38:14.000Z</time>
      </trkpt>
      <trkpt lat="45.582995" lon="7.861193">
        <ele>1538.12537</ele>
        <time>2024-08-08T08:38:17.000Z</time>
      </trkpt>
      <trkpt lat="45.582977" lon="7.861188">
        <ele>1538.25537</ele>
        <time>2024-08-08T08:38:19.000Z</time>
      </trkpt>
      <trkpt lat="45.582955" lon="7.861192">
        <ele>1538.41528</ele>
        <time>2024-08-08T08:38:21.000Z</time>
      </trkpt>
      <trkpt lat="45.58293" lon="7.861202">
        <ele>1538.59534</ele>
        <time>2024-08-08T08:38:24.000Z</time>
      </trkpt>
      <trkpt lat="45.582912" lon="7.861203">
        <ele>1538.75024</ele>
        <time>2024-08-08T08:38:26.000Z</time>
      </trkpt>
      <trkpt lat="45.58289" lon="7.861202">
        <ele>1538.80029</ele>
        <time>2024-08-08T08:38:28.000Z</time>
      </trkpt>
      <trkpt lat="45.58287" lon="7.861197">
        <ele>1538.8053</ele>
        <time>2024-08-08T08:38:31.000Z</time>
      </trkpt>
      <trkpt lat="45.582852" lon="7.861198">
        <ele>1538.79529</ele>
        <time>2024-08-08T08:38:33.000Z</time>
      </trkpt>
      <trkpt lat="45.582822" lon="7.861193">
        <ele>1538.79028</ele>
        <time>2024-08-08T08:38:36.000Z</time>
      </trkpt>
      <trkpt lat="45.582802" lon="7.861187">
        <ele>1538.79028</ele>
        <time>2024-08-08T08:38:38.000Z</time>
      </trkpt>
      <trkpt lat="45.582785" lon="7.861198">
        <ele>1538.77026</ele>
        <time>2024-08-08T08:38:40.000Z</time>
      </trkpt>
      <trkpt lat="45.582757" lon="7.861212">
        <ele>1538.73022</ele>
        <time>2024-08-08T08:38:43.000Z</time>
      </trkpt>
      <trkpt lat="45.582737" lon="7.861203">
        <ele>1538.69507</ele>
        <time>2024-08-08T08:38:46.000Z</time>
      </trkpt>
      <trkpt lat="45.58271" lon="7.861188">
        <ele>1538.73022</ele>
        <time>2024-08-08T08:38:49.000Z</time>
      </trkpt>
      <trkpt lat="45.58268" lon="7.861172">
        <ele>1538.8501</ele>
        <time>2024-08-08T08:38:51.000Z</time>
      </trkpt>
      <trkpt lat="45.582652" lon="7.861168">
        <ele>1539.06506</ele>
        <time>2024-08-08T08:38:53.000Z</time>
      </trkpt>
      <trkpt lat="45.582632" lon="7.86117">
        <ele>1539.36499</ele>
        <time>2024-08-08T08:38:55.000Z</time>
      </trkpt>
      <trkpt lat="45.582607" lon="7.861163">
        <ele>1539.73511</ele>
        <time>2024-08-08T08:38:57.000Z</time>
      </trkpt>
      <trkpt lat="45.582587" lon="7.86116">
        <ele>1540.15503</ele>
        <time>2024-08-08T08:38:59.000Z</time>
      </trkpt>
      <trkpt lat="45.582562" lon="7.861148">
        <ele>1540.64001</ele>
        <time>2024-08-08T08:39:01.000Z</time>
      </trkpt>
      <trkpt lat="45.582532" lon="7.861137">
        <ele>1541.245</ele>
        <time>2024-08-08T08:39:03.000Z</time>
      </trkpt>
      <trkpt lat="45.582503" lon="7.861137">
        <ele>1541.90002</ele>
        <time>2024-08-08T08:39:05.000Z</time>
      </trkpt>
      <trkpt lat="45.582475" lon="7.861142">
        <ele>1542.55994</ele>
        <time>2024-08-08T08:39:07.000Z</time>
      </trkpt>
      <trkpt lat="45.582453" lon="7.861132">
        <ele>1543.27502</ele>
        <time>2024-08-08T08:39:09.000Z</time>
      </trkpt>
      <trkpt lat="45.58243" lon="7.861133">
        <ele>1544.01001</ele>
        <time>2024-08-08T08:39:11.000Z</time>
      </trkpt>
      <trkpt lat="45.582403" lon="7.861133">
        <ele>1544.74988</ele>
        <time>2024-08-08T08:39:13.000Z</time>
      </trkpt>
      <trkpt lat="45.582382" lon="7.86114">
        <ele>1545.5249</ele>
        <time>2024-08-08T08:39:17.000Z</time>
      </trkpt>
      <trkpt lat="45.582352" lon="7.861123">
        <ele>1546.29993</ele>
        <time>2024-08-08T08:39:19.000Z</time>
      </trkpt>
      <trkpt lat="45.582318" lon="7.8611">
        <ele>1547.04993</ele>
        <time>2024-08-08T08:39:21.000Z</time>
      </trkpt>
      <trkpt lat="45.5823" lon="7.861087">
        <ele>1547.78491</ele>
        <time>2024-08-08T08:39:22.000Z</time>
      </trkpt>
      <trkpt lat="45.582282" lon="7.861082">
        <ele>1548.55981</ele>
        <time>2024-08-08T08:39:23.000Z</time>
      </trkpt>
      <trkpt lat="45.582258" lon="7.861078">
        <ele>1549.36499</ele>
        <time>2024-08-08T08:39:24.000Z</time>
      </trkpt>
      <trkpt lat="45.582232" lon="7.861067">
        <ele>1550.21497</ele>
        <time>2024-08-08T08:39:26.000Z</time>
      </trkpt>
      <trkpt lat="45.58221" lon="7.861058">
        <ele>1551.04993</ele>
        <time>2024-08-08T08:39:28.000Z</time>
      </trkpt>
      <trkpt lat="45.582185" lon="7.86105">
        <ele>1551.84497</ele>
        <time>2024-08-08T08:39:30.000Z</time>
      </trkpt>
      <trkpt lat="45.582165" lon="7.861047">
        <ele>1552.57495</ele>
        <time>2024-08-08T08:39:32.000Z</time>
      </trkpt>
      <trkpt lat="45.58214" lon="7.861053">
        <ele>1553.22498</ele>
        <time>2024-08-08T08:39:34.000Z</time>
      </trkpt>
      <trkpt lat="45.582117" lon="7.861047">
        <ele>1553.82495</ele>
        <time>2024-08-08T08:39:36.000Z</time>
      </trkpt>
      <trkpt lat="45.582097" lon="7.861033">
        <ele>1554.3551</ele>
        <time>2024-08-08T08:39:38.000Z</time>
      </trkpt>
      <trkpt lat="45.582075" lon="7.861028">
        <ele>1554.80505</ele>
        <time>2024-08-08T08:39:40.000Z</time>
      </trkpt>
      <trkpt lat="45.582055" lon="7.861012">
        <ele>1555.20007</ele>
        <time>2024-08-08T08:39:42.000Z</time>
      </trkpt>
      <trkpt lat="45.58203" lon="7.861002">
        <ele>1555.54016</ele>
        <time>2024-08-08T08:39:44.000Z</time>
      </trkpt>
      <trkpt lat="45.582002" lon="7.860978">
        <ele>1555.83521</ele>
        <time>2024-08-08T08:39:46.000Z</time>
      </trkpt>
      <trkpt lat="45.581967" lon="7.860967">
        <ele>1556.03003</ele>
        <time>2024-08-08T08:39:48.000Z</time>
      </trkpt>
      <trkpt lat="45.581947" lon="7.860962">
        <ele>1556.18005</ele>
        <time>2024-08-08T08:39:49.000Z</time>
      </trkpt>
      <trkpt lat="45.581927" lon="7.860958">
        <ele>1556.30005</ele>
        <time>2024-08-08T08:39:50.000Z</time>
      </trkpt>
      <trkpt lat="45.5819" lon="7.860942">
        <ele>1556.34509</ele>
        <time>2024-08-08T08:39:52.000Z</time>
      </trkpt>
      <trkpt lat="45.581882" lon="7.860953">
        <ele>1556.32507</ele>
        <time>2024-08-08T08:39:54.000Z</time>
      </trkpt>
      <trkpt lat="45.581863" lon="7.860948">
        <ele>1556.32007</ele>
        <time>2024-08-08T08:39:56.000Z</time>
      </trkpt>
      <trkpt lat="45.581842" lon="7.860945">
        <ele>1556.32507</ele>
        <time>2024-08-08T08:39:58.000Z</time>
      </trkpt>
      <trkpt lat="45.581818" lon="7.860947">
        <ele>1556.33008</ele>
        <time>2024-08-08T08:40:01.000Z</time>
      </trkpt>
      <trkpt lat="45.581793" lon="7.860942">
        <ele>1556.34998</ele>
        <time>2024-08-08T08:40:03.000Z</time>
      </trkpt>
      <trkpt lat="45.581772" lon="7.86093">
        <ele>1556.375</ele>
        <time>2024-08-08T08:40:05.000Z</time>
      </trkpt>
      <trkpt lat="45.581748" lon="7.86092">
        <ele>1556.35999</ele>
        <time>2024-08-08T08:40:07.000Z</time>
      </trkpt>
      <trkpt lat="45.581723" lon="7.860923">
        <ele>1556.30493</ele>
        <time>2024-08-08T08:40:10.000Z</time>
      </trkpt>
      <trkpt lat="45.581703" lon="7.860942">
        <ele>1556.19995</ele>
        <time>2024-08-08T08:40:13.000Z</time>
      </trkpt>
      <trkpt lat="45.581682" lon="7.860945">
        <ele>1556.07495</ele>
        <time>2024-08-08T08:40:15.000Z</time>
      </trkpt>
      <trkpt lat="45.581658" lon="7.860945">
        <ele>1555.95483</ele>
        <time>2024-08-08T08:40:17.000Z</time>
      </trkpt>
      <trkpt lat="45.581632" lon="7.86094">
        <ele>1555.88989</ele>
        <time>2024-08-08T08:40:19.000Z</time>
      </trkpt>
      <trkpt lat="45.581602" lon="7.860945">
        <ele>1555.84485</ele>
        <time>2024-08-08T08:40:21.000Z</time>
      </trkpt>
      <trkpt lat="45.58158" lon="7.86095">
        <ele>1555.7998</ele>
        <time>2024-08-08T08:40:23.000Z</time>
      </trkpt>
      <trkpt lat="45.581557" lon="7.860965">
        <ele>1555.76978</ele>
        <time>2024-08-08T08:40:25.000Z</time>
      </trkpt>
      <trkpt lat="45.581533" lon="7.860975">
        <ele>1555.76978</ele>
        <time>2024-08-08T08:40:27.000Z</time>
      </trkpt>
      <trkpt lat="45.581507" lon="7.86097">
        <ele>1555.84985</ele>
        <time>2024-08-08T08:40:29.000Z</time>
      </trkpt>
      <trkpt lat="45.581478" lon="7.860962">
        <ele>1555.96997</ele>
        <time>2024-08-08T08:40:31.000Z</time>
      </trkpt>
      <trkpt lat="45.581448" lon="7.860965">
        <ele>1556.12488</ele>
        <time>2024-08-08T08:40:33.000Z</time>
      </trkpt>
      <trkpt lat="45.581415" lon="7.860992">
        <ele>1556.32495</ele>
        <time>2024-08-08T08:40:35.000Z</time>
      </trkpt>
      <trkpt lat="45.5814" lon="7.861017">
        <ele>1556.58997</ele>
        <time>2024-08-08T08:40:37.000Z</time>
      </trkpt>
      <trkpt lat="45.581387" lon="7.861058">
        <ele>1556.85498</ele>
        <time>2024-08-08T08:40:39.000Z</time>
      </trkpt>
      <trkpt lat="45.581382" lon="7.861097">
        <ele>1557.08496</ele>
        <time>2024-08-08T08:40:41.000Z</time>
      </trkpt>
      <trkpt lat="45.581373" lon="7.861128">
        <ele>1557.29504</ele>
        <time>2024-08-08T08:40:43.000Z</time>
      </trkpt>
      <trkpt lat="45.581355" lon="7.861152">
        <ele>1557.52515</ele>
        <time>2024-08-08T08:40:46.000Z</time>
      </trkpt>
      <trkpt lat="45.58133" lon="7.861163">
        <ele>1557.7301</ele>
        <time>2024-08-08T08:40:48.000Z</time>
      </trkpt>
      <trkpt lat="45.581302" lon="7.861175">
        <ele>1557.94019</ele>
        <time>2024-08-08T08:40:50.000Z</time>
      </trkpt>
      <trkpt lat="45.58128" lon="7.861187">
        <ele>1558.16516</ele>
        <time>2024-08-08T08:40:52.000Z</time>
      </trkpt>
      <trkpt lat="45.581253" lon="7.8612">
        <ele>1558.41516</ele>
        <time>2024-08-08T08:40:54.000Z</time>
      </trkpt>
      <trkpt lat="45.581227" lon="7.861213">
        <ele>1558.68518</ele>
        <time>2024-08-08T08:40:56.000Z</time>
      </trkpt>
      <trkpt lat="45.581193" lon="7.861222">
        <ele>1558.94507</ele>
        <time>2024-08-08T08:40:58.000Z</time>
      </trkpt>
      <trkpt lat="45.58116" lon="7.861227">
        <ele>1559.18005</ele>
        <time>2024-08-08T08:41:00.000Z</time>
      </trkpt>
      <trkpt lat="45.58113" lon="7.861233">
        <ele>1559.42004</ele>
        <time>2024-08-08T08:41:02.000Z</time>
      </trkpt>
      <trkpt lat="45.5811" lon="7.86124">
        <ele>1559.65503</ele>
        <time>2024-08-08T08:41:04.000Z</time>
      </trkpt>
      <trkpt lat="45.581085" lon="7.861255">
        <ele>1559.83997</ele>
        <time>2024-08-08T08:41:06.000Z</time>
      </trkpt>
      <trkpt lat="45.581055" lon="7.861258">
        <ele>1559.98499</ele>
        <time>2024-08-08T08:41:08.000Z</time>
      </trkpt>
      <trkpt lat="45.581027" lon="7.861263">
        <ele>1560.08496</ele>
        <time>2024-08-08T08:41:10.000Z</time>
      </trkpt>
      <trkpt lat="45.581007" lon="7.861265">
        <ele>1560.15503</ele>
        <time>2024-08-08T08:41:12.000Z</time>
      </trkpt>
      <trkpt lat="45.580978" lon="7.861272">
        <ele>1560.16504</ele>
        <time>2024-08-08T08:41:15.000Z</time>
      </trkpt>
      <trkpt lat="45.580947" lon="7.861282">
        <ele>1560.11499</ele>
        <time>2024-08-08T08:41:17.000Z</time>
      </trkpt>
      <trkpt lat="45.580925" lon="7.861295">
        <ele>1560.01501</ele>
        <time>2024-08-08T08:41:19.000Z</time>
      </trkpt>
      <trkpt lat="45.580903" lon="7.861307">
        <ele>1559.86499</ele>
        <time>2024-08-08T08:41:22.000Z</time>
      </trkpt>
      <trkpt lat="45.580877" lon="7.861318">
        <ele>1559.7251</ele>
        <time>2024-08-08T08:41:24.000Z</time>
      </trkpt>
      <trkpt lat="45.58086" lon="7.86133">
        <ele>1559.59497</ele>
        <time>2024-08-08T08:41:25.000Z</time>
      </trkpt>
      <trkpt lat="45.580843" lon="7.861342">
        <ele>1559.43494</ele>
        <time>2024-08-08T08:41:26.000Z</time>
      </trkpt>
      <trkpt lat="45.580823" lon="7.861353">
        <ele>1559.29004</ele>
        <time>2024-08-08T08:41:28.000Z</time>
      </trkpt>
      <trkpt lat="45.5808" lon="7.86137">
        <ele>1559.14502</ele>
        <time>2024-08-08T08:41:32.000Z</time>
      </trkpt>
      <trkpt lat="45.580777" lon="7.861382">
        <ele>1558.98999</ele>
        <time>2024-08-08T08:41:34.000Z</time>
      </trkpt>
      <trkpt lat="45.580753" lon="7.861398">
        <ele>1558.84509</ele>
        <time>2024-08-08T08:41:36.000Z</time>
      </trkpt>
      <trkpt lat="45.580725" lon="7.861417">
        <ele>1558.70508</ele>
        <time>2024-08-08T08:41:38.000Z</time>
      </trkpt>
      <trkpt lat="45.58071" lon="7.861432">
        <ele>1558.58008</ele>
        <time>2024-08-08T08:41:40.000Z</time>
      </trkpt>
      <trkpt lat="45.580698" lon="7.861452">
        <ele>1558.45007</ele>
        <time>2024-08-08T08:41:42.000Z</time>
      </trkpt>
      <trkpt lat="45.580677" lon="7.861488">
        <ele>1558.31018</ele>
        <time>2024-08-08T08:41:44.000Z</time>
      </trkpt>
      <trkpt lat="45.580667" lon="7.861515">
        <ele>1558.17517</ele>
        <time>2024-08-08T08:41:45.000Z</time>
      </trkpt>
      <trkpt lat="45.580653" lon="7.861557">
        <ele>1558.06018</ele>
        <time>2024-08-08T08:41:47.000Z</time>
      </trkpt>
      <trkpt lat="45.580642" lon="7.861592">
        <ele>1557.96509</ele>
        <time>2024-08-08T08:41:49.000Z</time>
      </trkpt>
      <trkpt lat="45.580642" lon="7.861623">
        <ele>1557.94019</ele>
        <time>2024-08-08T08:41:51.000Z</time>
      </trkpt>
      <trkpt lat="45.580643" lon="7.861652">
        <ele>1558.01013</ele>
        <time>2024-08-08T08:41:54.000Z</time>
      </trkpt>
      <trkpt lat="45.58064" lon="7.861683">
        <ele>1558.15515</ele>
        <time>2024-08-08T08:41:56.000Z</time>
      </trkpt>
      <trkpt lat="45.580635" lon="7.86172">
        <ele>1558.36523</ele>
        <time>2024-08-08T08:41:58.000Z</time>
      </trkpt>
      <trkpt lat="45.580632" lon="7.861747">
        <ele>1558.59021</ele>
        <time>2024-08-08T08:41:59.000Z</time>
      </trkpt>
      <trkpt lat="45.580627" lon="7.861775">
        <ele>1558.8252</ele>
        <time>2024-08-08T08:42:00.000Z</time>
      </trkpt>
      <trkpt lat="45.580622" lon="7.861802">
        <ele>1559.06018</ele>
        <time>2024-08-08T08:42:01.000Z</time>
      </trkpt>
      <trkpt lat="45.580615" lon="7.861852">
        <ele>1559.30017</ele>
        <time>2024-08-08T08:42:03.000Z</time>
      </trkpt>
      <trkpt lat="45.580613" lon="7.861888">
        <ele>1559.52515</ele>
        <time>2024-08-08T08:42:05.000Z</time>
      </trkpt>
      <trkpt lat="45.580615" lon="7.861927">
        <ele>1559.72522</ele>
        <time>2024-08-08T08:42:07.000Z</time>
      </trkpt>
      <trkpt lat="45.580613" lon="7.861963">
        <ele>1559.90515</ele>
        <time>2024-08-08T08:42:09.000Z</time>
      </trkpt>
      <trkpt lat="45.580613" lon="7.862002">
        <ele>1560.08521</ele>
        <time>2024-08-08T08:42:11.000Z</time>
      </trkpt>
      <trkpt lat="45.580612" lon="7.862035">
        <ele>1560.27515</ele>
        <time>2024-08-08T08:42:13.000Z</time>
      </trkpt>
      <trkpt lat="45.580617" lon="7.86206">
        <ele>1560.49011</ele>
        <time>2024-08-08T08:42:15.000Z</time>
      </trkpt>
      <trkpt lat="45.580623" lon="7.862085">
        <ele>1560.72522</ele>
        <time>2024-08-08T08:42:17.000Z</time>
      </trkpt>
      <trkpt lat="45.580642" lon="7.86211">
        <ele>1560.97021</ele>
        <time>2024-08-08T08:42:19.000Z</time>
      </trkpt>
      <trkpt lat="45.580657" lon="7.862148">
        <ele>1561.23022</ele>
        <time>2024-08-08T08:42:21.000Z</time>
      </trkpt>
      <trkpt lat="45.580665" lon="7.862173">
        <ele>1561.49011</ele>
        <time>2024-08-08T08:42:22.000Z</time>
      </trkpt>
      <trkpt lat="45.580675" lon="7.862197">
        <ele>1561.75513</ele>
        <time>2024-08-08T08:42:23.000Z</time>
      </trkpt>
      <trkpt lat="45.58069" lon="7.86223">
        <ele>1562.02026</ele>
        <time>2024-08-08T08:42:25.000Z</time>
      </trkpt>
      <trkpt lat="45.580698" lon="7.862255">
        <ele>1562.19019</ele>
        <time>2024-08-08T08:42:27.000Z</time>
      </trkpt>
      <trkpt lat="45.58071" lon="7.862277">
        <ele>1562.26013</ele>
        <time>2024-08-08T08:42:29.000Z</time>
      </trkpt>
      <trkpt lat="45.580728" lon="7.862305">
        <ele>1562.29517</ele>
        <time>2024-08-08T08:42:31.000Z</time>
      </trkpt>
      <trkpt lat="45.580745" lon="7.862347">
        <ele>1562.29517</ele>
        <time>2024-08-08T08:42:33.000Z</time>
      </trkpt>
      <trkpt lat="45.580748" lon="7.862393">
        <ele>1562.30505</ele>
        <time>2024-08-08T08:42:35.000Z</time>
      </trkpt>
      <trkpt lat="45.580737" lon="7.862417">
        <ele>1562.36511</ele>
        <time>2024-08-08T08:42:38.000Z</time>
      </trkpt>
      <trkpt lat="45.580737" lon="7.862455">
        <ele>1562.4552</ele>
        <time>2024-08-08T08:42:41.000Z</time>
      </trkpt>
      <trkpt lat="45.580737" lon="7.862483">
        <ele>1562.54016</ele>
        <time>2024-08-08T08:42:43.000Z</time>
      </trkpt>
      <trkpt lat="45.580733" lon="7.862528">
        <ele>1562.63513</ele>
        <time>2024-08-08T08:42:45.000Z</time>
      </trkpt>
      <trkpt lat="45.58074" lon="7.862573">
        <ele>1562.74011</ele>
        <time>2024-08-08T08:42:47.000Z</time>
      </trkpt>
      <trkpt lat="45.580747" lon="7.862615">
        <ele>1562.90015</ele>
        <time>2024-08-08T08:42:49.000Z</time>
      </trkpt>
      <trkpt lat="45.580755" lon="7.862657">
        <ele>1563.10522</ele>
        <time>2024-08-08T08:42:51.000Z</time>
      </trkpt>
      <trkpt lat="45.580763" lon="7.862693">
        <ele>1563.37024</ele>
        <time>2024-08-08T08:42:53.000Z</time>
      </trkpt>
      <trkpt lat="45.580777" lon="7.862723">
        <ele>1563.64026</ele>
        <time>2024-08-08T08:42:55.000Z</time>
      </trkpt>
      <trkpt lat="45.58078" lon="7.862753">
        <ele>1563.90515</ele>
        <time>2024-08-08T08:42:57.000Z</time>
      </trkpt>
      <trkpt lat="45.580787" lon="7.862787">
        <ele>1564.17517</ele>
        <time>2024-08-08T08:42:59.000Z</time>
      </trkpt>
      <trkpt lat="45.580792" lon="7.862825">
        <ele>1564.4502</ele>
        <time>2024-08-08T08:43:01.000Z</time>
      </trkpt>
      <trkpt lat="45.580788" lon="7.862862">
        <ele>1564.76025</ele>
        <time>2024-08-08T08:43:03.000Z</time>
      </trkpt>
      <trkpt lat="45.580782" lon="7.8629">
        <ele>1565.11023</ele>
        <time>2024-08-08T08:43:05.000Z</time>
      </trkpt>
      <trkpt lat="45.58078" lon="7.86294">
        <ele>1565.46021</ele>
        <time>2024-08-08T08:43:07.000Z</time>
      </trkpt>
      <trkpt lat="45.580772" lon="7.862977">
        <ele>1565.79529</ele>
        <time>2024-08-08T08:43:09.000Z</time>
      </trkpt>
      <trkpt lat="45.58076" lon="7.863017">
        <ele>1566.19531</ele>
        <time>2024-08-08T08:43:11.000Z</time>
      </trkpt>
      <trkpt lat="45.58075" lon="7.863048">
        <ele>1566.58032</ele>
        <time>2024-08-08T08:43:13.000Z</time>
      </trkpt>
      <trkpt lat="45.580745" lon="7.863082">
        <ele>1566.9502</ele>
        <time>2024-08-08T08:43:15.000Z</time>
      </trkpt>
      <trkpt lat="45.580735" lon="7.86311">
        <ele>1567.33521</ele>
        <time>2024-08-08T08:43:17.000Z</time>
      </trkpt>
      <trkpt lat="45.580717" lon="7.863138">
        <ele>1567.66516</ele>
        <time>2024-08-08T08:43:19.000Z</time>
      </trkpt>
      <trkpt lat="45.5807" lon="7.86316">
        <ele>1567.91016</ele>
        <time>2024-08-08T08:43:21.000Z</time>
      </trkpt>
      <trkpt lat="45.580685" lon="7.863187">
        <ele>1568.11523</ele>
        <time>2024-08-08T08:43:23.000Z</time>
      </trkpt>
      <trkpt lat="45.580665" lon="7.863217">
        <ele>1568.26526</ele>
        <time>2024-08-08T08:43:25.000Z</time>
      </trkpt>
      <trkpt lat="45.580645" lon="7.863262">
        <ele>1568.38525</ele>
        <time>2024-08-08T08:43:27.000Z</time>
      </trkpt>
      <trkpt lat="45.580625" lon="7.86329">
        <ele>1568.46021</ele>
        <time>2024-08-08T08:43:29.000Z</time>
      </trkpt>
      <trkpt lat="45.58061" lon="7.86333">
        <ele>1568.49536</ele>
        <time>2024-08-08T08:43:31.000Z</time>
      </trkpt>
      <trkpt lat="45.580597" lon="7.863367">
        <ele>1568.46533</ele>
        <time>2024-08-08T08:43:33.000Z</time>
      </trkpt>
      <trkpt lat="45.580583" lon="7.863402">
        <ele>1568.4303</ele>
        <time>2024-08-08T08:43:35.000Z</time>
      </trkpt>
      <trkpt lat="45.580578" lon="7.863435">
        <ele>1568.4303</ele>
        <time>2024-08-08T08:43:37.000Z</time>
      </trkpt>
      <trkpt lat="45.580573" lon="7.863472">
        <ele>1568.46021</ele>
        <time>2024-08-08T08:43:39.000Z</time>
      </trkpt>
      <trkpt lat="45.580578" lon="7.863503">
        <ele>1568.50024</ele>
        <time>2024-08-08T08:43:41.000Z</time>
      </trkpt>
      <trkpt lat="45.58058" lon="7.863535">
        <ele>1568.48523</ele>
        <time>2024-08-08T08:43:43.000Z</time>
      </trkpt>
      <trkpt lat="45.580575" lon="7.86356">
        <ele>1568.42017</ele>
        <time>2024-08-08T08:43:45.000Z</time>
      </trkpt>
      <trkpt lat="45.580577" lon="7.863593">
        <ele>1568.32019</ele>
        <time>2024-08-08T08:43:47.000Z</time>
      </trkpt>
      <trkpt lat="45.580578" lon="7.86362">
        <ele>1568.26526</ele>
        <time>2024-08-08T08:43:48.000Z</time>
      </trkpt>
      <trkpt lat="45.580577" lon="7.863658">
        <ele>1568.15015</ele>
        <time>2024-08-08T08:43:50.000Z</time>
      </trkpt>
      <trkpt lat="45.580567" lon="7.863695">
        <ele>1568.03528</ele>
        <time>2024-08-08T08:43:52.000Z</time>
      </trkpt>
      <trkpt lat="45.580557" lon="7.863737">
        <ele>1567.94531</ele>
        <time>2024-08-08T08:43:54.000Z</time>
      </trkpt>
      <trkpt lat="45.580547" lon="7.863777">
        <ele>1567.91528</ele>
        <time>2024-08-08T08:43:56.000Z</time>
      </trkpt>
      <trkpt lat="45.580538" lon="7.863807">
        <ele>1567.98535</ele>
        <time>2024-08-08T08:43:58.000Z</time>
      </trkpt>
      <trkpt lat="45.580528" lon="7.86384">
        <ele>1568.11035</ele>
        <time>2024-08-08T08:44:00.000Z</time>
      </trkpt>
      <trkpt lat="45.580515" lon="7.863877">
        <ele>1568.26538</ele>
        <time>2024-08-08T08:44:02.000Z</time>
      </trkpt>
      <trkpt lat="45.580505" lon="7.863922">
        <ele>1568.44031</ele>
        <time>2024-08-08T08:44:04.000Z</time>
      </trkpt>
      <trkpt lat="45.580492" lon="7.86395">
        <ele>1568.66528</ele>
        <time>2024-08-08T08:44:06.000Z</time>
      </trkpt>
      <trkpt lat="45.580482" lon="7.863983">
        <ele>1568.91028</ele>
        <time>2024-08-08T08:44:09.000Z</time>
      </trkpt>
      <trkpt lat="45.580472" lon="7.864012">
        <ele>1569.19019</ele>
        <time>2024-08-08T08:44:11.000Z</time>
      </trkpt>
      <trkpt lat="45.580455" lon="7.864035">
        <ele>1569.49023</ele>
        <time>2024-08-08T08:44:13.000Z</time>
      </trkpt>
      <trkpt lat="45.580442" lon="7.864055">
        <ele>1569.71521</ele>
        <time>2024-08-08T08:44:15.000Z</time>
      </trkpt>
      <trkpt lat="45.580425" lon="7.864075">
        <ele>1569.87524</ele>
        <time>2024-08-08T08:44:18.000Z</time>
      </trkpt>
      <trkpt lat="45.580398" lon="7.864088">
        <ele>1570.00024</ele>
        <time>2024-08-08T08:44:20.000Z</time>
      </trkpt>
      <trkpt lat="45.580375" lon="7.86408">
        <ele>1570.09534</ele>
        <time>2024-08-08T08:44:23.000Z</time>
      </trkpt>
      <trkpt lat="45.580355" lon="7.864073">
        <ele>1570.21533</ele>
        <time>2024-08-08T08:44:25.000Z</time>
      </trkpt>
      <trkpt lat="45.580332" lon="7.864068">
        <ele>1570.30542</ele>
        <time>2024-08-08T08:44:27.000Z</time>
      </trkpt>
      <trkpt lat="45.580305" lon="7.864063">
        <ele>1570.40039</ele>
        <time>2024-08-08T08:44:29.000Z</time>
      </trkpt>
      <trkpt lat="45.580278" lon="7.864055">
        <ele>1570.50537</ele>
        <time>2024-08-08T08:44:31.000Z</time>
      </trkpt>
      <trkpt lat="45.580253" lon="7.864045">
        <ele>1570.63538</ele>
        <time>2024-08-08T08:44:33.000Z</time>
      </trkpt>
      <trkpt lat="45.580237" lon="7.864035">
        <ele>1570.79028</ele>
        <time>2024-08-08T08:44:34.000Z</time>
      </trkpt>
      <trkpt lat="45.580208" lon="7.864023">
        <ele>1570.97534</ele>
        <time>2024-08-08T08:44:36.000Z</time>
      </trkpt>
      <trkpt lat="45.580182" lon="7.864013">
        <ele>1571.09033</ele>
        <time>2024-08-08T08:44:38.000Z</time>
      </trkpt>
      <trkpt lat="45.580155" lon="7.86401">
        <ele>1571.11023</ele>
        <time>2024-08-08T08:44:40.000Z</time>
      </trkpt>
      <trkpt lat="45.580127" lon="7.863998">
        <ele>1571.11023</ele>
        <time>2024-08-08T08:44:42.000Z</time>
      </trkpt>
      <trkpt lat="45.5801" lon="7.863993">
        <ele>1571.12524</ele>
        <time>2024-08-08T08:44:44.000Z</time>
      </trkpt>
      <trkpt lat="45.580083" lon="7.864003">
        <ele>1571.18518</ele>
        <time>2024-08-08T08:44:46.000Z</time>
      </trkpt>
      <trkpt lat="45.580063" lon="7.864007">
        <ele>1571.21509</ele>
        <time>2024-08-08T08:44:48.000Z</time>
      </trkpt>
      <trkpt lat="45.58004" lon="7.863992">
        <ele>1571.22021</ele>
        <time>2024-08-08T08:44:50.000Z</time>
      </trkpt>
      <trkpt lat="45.58002" lon="7.86398">
        <ele>1571.21021</ele>
        <time>2024-08-08T08:44:52.000Z</time>
      </trkpt>
      <trkpt lat="45.579995" lon="7.863967">
        <ele>1571.15015</ele>
        <time>2024-08-08T08:44:54.000Z</time>
      </trkpt>
      <trkpt lat="45.57997" lon="7.863957">
        <ele>1571.13013</ele>
        <time>2024-08-08T08:44:56.000Z</time>
      </trkpt>
      <trkpt lat="45.579953" lon="7.863947">
        <ele>1571.13013</ele>
        <time>2024-08-08T08:44:57.000Z</time>
      </trkpt>
      <trkpt lat="45.579915" lon="7.863933">
        <ele>1571.10022</ele>
        <time>2024-08-08T08:44:59.000Z</time>
      </trkpt>
      <trkpt lat="45.579883" lon="7.863923">
        <ele>1571.0752</ele>
        <time>2024-08-08T08:45:01.000Z</time>
      </trkpt>
      <trkpt lat="45.579865" lon="7.863922">
        <ele>1571.03516</ele>
        <time>2024-08-08T08:45:02.000Z</time>
      </trkpt>
      <trkpt lat="45.579843" lon="7.863925">
        <ele>1571.04016</ele>
        <time>2024-08-08T08:45:04.000Z</time>
      </trkpt>
      <trkpt lat="45.579822" lon="7.863898">
        <ele>1571.09509</ele>
        <time>2024-08-08T08:45:07.000Z</time>
      </trkpt>
      <trkpt lat="45.5798" lon="7.863892">
        <ele>1571.13013</ele>
        <time>2024-08-08T08:45:09.000Z</time>
      </trkpt>
      <trkpt lat="45.57978" lon="7.863883">
        <ele>1571.14514</ele>
        <time>2024-08-08T08:45:11.000Z</time>
      </trkpt>
      <trkpt lat="45.579758" lon="7.86387">
        <ele>1571.13013</ele>
        <time>2024-08-08T08:45:13.000Z</time>
      </trkpt>
      <trkpt lat="45.579735" lon="7.863853">
        <ele>1571.05005</ele>
        <time>2024-08-08T08:45:15.000Z</time>
      </trkpt>
      <trkpt lat="45.57971" lon="7.863833">
        <ele>1570.93506</ele>
        <time>2024-08-08T08:45:17.000Z</time>
      </trkpt>
      <trkpt lat="45.579683" lon="7.863818">
        <ele>1570.80505</ele>
        <time>2024-08-08T08:45:19.000Z</time>
      </trkpt>
      <trkpt lat="45.579662" lon="7.863798">
        <ele>1570.68506</ele>
        <time>2024-08-08T08:45:21.000Z</time>
      </trkpt>
      <trkpt lat="45.579645" lon="7.863782">
        <ele>1570.53503</ele>
        <time>2024-08-08T08:45:23.000Z</time>
      </trkpt>
      <trkpt lat="45.57962" lon="7.86377">
        <ele>1570.3501</ele>
        <time>2024-08-08T08:45:25.000Z</time>
      </trkpt>
      <trkpt lat="45.5796" lon="7.863753">
        <ele>1570.13501</ele>
        <time>2024-08-08T08:45:26.000Z</time>
      </trkpt>
      <trkpt lat="45.579578" lon="7.86374">
        <ele>1569.91003</ele>
        <time>2024-08-08T08:45:27.000Z</time>
      </trkpt>
      <trkpt lat="45.579557" lon="7.863732">
        <ele>1569.66003</ele>
        <time>2024-08-08T08:45:28.000Z</time>
      </trkpt>
      <trkpt lat="45.579528" lon="7.863718">
        <ele>1569.42017</ele>
        <time>2024-08-08T08:45:30.000Z</time>
      </trkpt>
      <trkpt lat="45.579502" lon="7.863705">
        <ele>1569.19507</ele>
        <time>2024-08-08T08:45:32.000Z</time>
      </trkpt>
      <trkpt lat="45.579478" lon="7.863685">
        <ele>1568.95007</ele>
        <time>2024-08-08T08:45:34.000Z</time>
      </trkpt>
      <trkpt lat="45.57945" lon="7.86367">
        <ele>1568.73511</ele>
        <time>2024-08-08T08:45:36.000Z</time>
      </trkpt>
      <trkpt lat="45.579428" lon="7.86366">
        <ele>1568.55005</ele>
        <time>2024-08-08T08:45:38.000Z</time>
      </trkpt>
      <trkpt lat="45.579405" lon="7.863658">
        <ele>1568.36011</ele>
        <time>2024-08-08T08:45:40.000Z</time>
      </trkpt>
      <trkpt lat="45.579378" lon="7.86367">
        <ele>1568.19507</ele>
        <time>2024-08-08T08:45:42.000Z</time>
      </trkpt>
      <trkpt lat="45.579353" lon="7.863668">
        <ele>1568.05005</ele>
        <time>2024-08-08T08:45:44.000Z</time>
      </trkpt>
      <trkpt lat="45.579328" lon="7.863657">
        <ele>1567.96021</ele>
        <time>2024-08-08T08:45:46.000Z</time>
      </trkpt>
      <trkpt lat="45.579312" lon="7.863667">
        <ele>1567.88013</ele>
        <time>2024-08-08T08:45:47.000Z</time>
      </trkpt>
      <trkpt lat="45.579287" lon="7.863677">
        <ele>1567.85522</ele>
        <time>2024-08-08T08:45:49.000Z</time>
      </trkpt>
      <trkpt lat="45.57926" lon="7.863687">
        <ele>1567.89014</ele>
        <time>2024-08-08T08:45:52.000Z</time>
      </trkpt>
      <trkpt lat="45.579232" lon="7.863685">
        <ele>1567.96021</ele>
        <time>2024-08-08T08:45:55.000Z</time>
      </trkpt>
      <trkpt lat="45.579205" lon="7.863692">
        <ele>1568.08521</ele>
        <time>2024-08-08T08:45:57.000Z</time>
      </trkpt>
      <trkpt lat="45.57918" lon="7.863698">
        <ele>1568.24512</ele>
        <time>2024-08-08T08:45:59.000Z</time>
      </trkpt>
      <trkpt lat="45.579163" lon="7.86371">
        <ele>1568.42517</ele>
        <time>2024-08-08T08:46:00.000Z</time>
      </trkpt>
      <trkpt lat="45.579147" lon="7.863723">
        <ele>1568.63013</ele>
        <time>2024-08-08T08:46:01.000Z</time>
      </trkpt>
      <trkpt lat="45.579128" lon="7.863732">
        <ele>1568.86011</ele>
        <time>2024-08-08T08:46:02.000Z</time>
      </trkpt>
      <trkpt lat="45.579105" lon="7.863755">
        <ele>1569.13513</ele>
        <time>2024-08-08T08:46:04.000Z</time>
      </trkpt>
      <trkpt lat="45.57908" lon="7.863768">
        <ele>1569.42017</ele>
        <time>2024-08-08T08:46:06.000Z</time>
      </trkpt>
      <trkpt lat="45.579055" lon="7.863788">
        <ele>1569.7052</ele>
        <time>2024-08-08T08:46:08.000Z</time>
      </trkpt>
      <trkpt lat="45.579037" lon="7.863803">
        <ele>1569.99011</ele>
        <time>2024-08-08T08:46:10.000Z</time>
      </trkpt>
      <trkpt lat="45.579025" lon="7.86384">
        <ele>1570.25513</ele>
        <time>2024-08-08T08:46:12.000Z</time>
      </trkpt>
      <trkpt lat="45.579023" lon="7.863882">
        <ele>1570.47021</ele>
        <time>2024-08-08T08:46:14.000Z</time>
      </trkpt>
      <trkpt lat="45.579022" lon="7.863912">
        <ele>1570.64026</ele>
        <time>2024-08-08T08:46:16.000Z</time>
      </trkpt>
      <trkpt lat="45.579007" lon="7.86393">
        <ele>1570.86011</ele>
        <time>2024-08-08T08:46:19.000Z</time>
      </trkpt>
      <trkpt lat="45.579002" lon="7.86396">
        <ele>1571.07507</ele>
        <time>2024-08-08T08:46:21.000Z</time>
      </trkpt>
      <trkpt lat="45.57899" lon="7.863988">
        <ele>1571.25513</ele>
        <time>2024-08-08T08:46:23.000Z</time>
      </trkpt>
      <trkpt lat="45.578985" lon="7.864022">
        <ele>1571.42004</ele>
        <time>2024-08-08T08:46:25.000Z</time>
      </trkpt>
      <trkpt lat="45.578988" lon="7.864053">
        <ele>1571.64502</ele>
        <time>2024-08-08T08:46:28.000Z</time>
      </trkpt>
      <trkpt lat="45.57899" lon="7.864082">
        <ele>1571.83008</ele>
        <time>2024-08-08T08:46:30.000Z</time>
      </trkpt>
      <trkpt lat="45.578985" lon="7.864108">
        <ele>1571.98511</ele>
        <time>2024-08-08T08:46:31.000Z</time>
      </trkpt>
      <trkpt lat="45.578975" lon="7.864137">
        <ele>1572.16516</ele>
        <time>2024-08-08T08:46:33.000Z</time>
      </trkpt>
      <trkpt lat="45.578958" lon="7.864168">
        <ele>1572.40515</ele>
        <time>2024-08-08T08:46:36.000Z</time>
      </trkpt>
      <trkpt lat="45.578947" lon="7.864195">
        <ele>1572.66016</ele>
        <time>2024-08-08T08:46:39.000Z</time>
      </trkpt>
      <trkpt lat="45.578938" lon="7.864222">
        <ele>1572.96021</ele>
        <time>2024-08-08T08:46:42.000Z</time>
      </trkpt>
      <trkpt lat="45.578942" lon="7.864248">
        <ele>1573.29517</ele>
        <time>2024-08-08T08:46:45.000Z</time>
      </trkpt>
      <trkpt lat="45.578948" lon="7.864285">
        <ele>1573.63525</ele>
        <time>2024-08-08T08:46:48.000Z</time>
      </trkpt>
      <trkpt lat="45.57894" lon="7.864315">
        <ele>1573.94519</ele>
        <time>2024-08-08T08:46:51.000Z</time>
      </trkpt>
      <trkpt lat="45.578937" lon="7.864343">
        <ele>1574.29028</ele>
        <time>2024-08-08T08:46:53.000Z</time>
      </trkpt>
      <trkpt lat="45.578945" lon="7.864372">
        <ele>1574.72522</ele>
        <time>2024-08-08T08:46:56.000Z</time>
      </trkpt>
      <trkpt lat="45.578943" lon="7.8644">
        <ele>1575.17517</ele>
        <time>2024-08-08T08:46:59.000Z</time>
      </trkpt>
      <trkpt lat="45.578948" lon="7.864438">
        <ele>1575.76013</ele>
        <time>2024-08-08T08:47:03.000Z</time>
      </trkpt>
      <trkpt lat="45.578942" lon="7.86447">
        <ele>1576.45007</ele>
        <time>2024-08-08T08:47:06.000Z</time>
      </trkpt>
      <trkpt lat="45.578937" lon="7.864497">
        <ele>1577.19019</ele>
        <time>2024-08-08T08:47:08.000Z</time>
      </trkpt>
      <trkpt lat="45.578923" lon="7.864525">
        <ele>1577.93018</ele>
        <time>2024-08-08T08:47:11.000Z</time>
      </trkpt>
      <trkpt lat="45.57892" lon="7.864555">
        <ele>1578.68018</ele>
        <time>2024-08-08T08:47:14.000Z</time>
      </trkpt>
      <trkpt lat="45.578907" lon="7.86458">
        <ele>1579.4502</ele>
        <time>2024-08-08T08:47:17.000Z</time>
      </trkpt>
      <trkpt lat="45.578897" lon="7.864612">
        <ele>1580.19019</ele>
        <time>2024-08-08T08:47:19.000Z</time>
      </trkpt>
      <trkpt lat="45.578885" lon="7.864637">
        <ele>1580.88513</ele>
        <time>2024-08-08T08:47:22.000Z</time>
      </trkpt>
      <trkpt lat="45.578903" lon="7.864627">
        <ele>1581.58521</ele>
        <time>2024-08-08T08:47:27.000Z</time>
      </trkpt>
      <trkpt lat="45.57891" lon="7.864597">
        <ele>1582.31519</ele>
        <time>2024-08-08T08:47:29.000Z</time>
      </trkpt>
      <trkpt lat="45.578912" lon="7.86457">
        <ele>1583.04016</ele>
        <time>2024-08-08T08:47:31.000Z</time>
      </trkpt>
      <trkpt lat="45.578918" lon="7.864542">
        <ele>1583.72009</ele>
        <time>2024-08-08T08:47:33.000Z</time>
      </trkpt>
      <trkpt lat="45.578935" lon="7.864527">
        <ele>1584.35522</ele>
        <time>2024-08-08T08:47:35.000Z</time>
      </trkpt>
      <trkpt lat="45.57896" lon="7.864515">
        <ele>1584.91016</ele>
        <time>2024-08-08T08:47:37.000Z</time>
      </trkpt>
      <trkpt lat="45.578983" lon="7.864505">
        <ele>1585.40015</ele>
        <time>2024-08-08T08:47:40.000Z</time>
      </trkpt>
      <trkpt lat="45.579002" lon="7.864495">
        <ele>1585.89014</ele>
        <time>2024-08-08T08:47:44.000Z</time>
      </trkpt>
      <trkpt lat="45.579022" lon="7.8645">
        <ele>1586.34509</ele>
        <time>2024-08-08T08:47:48.000Z</time>
      </trkpt>
      <trkpt lat="45.579042" lon="7.864513">
        <ele>1586.76501</ele>
        <time>2024-08-08T08:47:51.000Z</time>
      </trkpt>
      <trkpt lat="45.579058" lon="7.864527">
        <ele>1587.13501</ele>
        <time>2024-08-08T08:47:55.000Z</time>
      </trkpt>
      <trkpt lat="45.579045" lon="7.864505">
        <ele>1587.58008</ele>
        <time>2024-08-08T08:48:02.000Z</time>
      </trkpt>
      <trkpt lat="45.57906" lon="7.864477">
        <ele>1587.97009</ele>
        <time>2024-08-08T08:48:06.000Z</time>
      </trkpt>
      <trkpt lat="45.579078" lon="7.864457">
        <ele>1588.3302</ele>
        <time>2024-08-08T08:48:09.000Z</time>
      </trkpt>
      <trkpt lat="45.579113" lon="7.864498">
        <ele>1588.59509</ele>
        <time>2024-08-08T08:48:46.000Z</time>
      </trkpt>
      <trkpt lat="45.579093" lon="7.864492">
        <ele>1588.82507</ele>
        <time>2024-08-08T08:48:48.000Z</time>
      </trkpt>
      <trkpt lat="45.579075" lon="7.864493">
        <ele>1589.01514</ele>
        <time>2024-08-08T08:48:49.000Z</time>
      </trkpt>
      <trkpt lat="45.579055" lon="7.86451">
        <ele>1589.12012</ele>
        <time>2024-08-08T08:48:52.000Z</time>
      </trkpt>
      <trkpt lat="45.579035" lon="7.86453">
        <ele>1589.19019</ele>
        <time>2024-08-08T08:48:54.000Z</time>
      </trkpt>
      <trkpt lat="45.57901" lon="7.864548">
        <ele>1589.23022</ele>
        <time>2024-08-08T08:48:56.000Z</time>
      </trkpt>
      <trkpt lat="45.578988" lon="7.864557">
        <ele>1589.27515</ele>
        <time>2024-08-08T08:48:58.000Z</time>
      </trkpt>
      <trkpt lat="45.57898" lon="7.864585">
        <ele>1589.26514</ele>
        <time>2024-08-08T08:49:01.000Z</time>
      </trkpt>
      <trkpt lat="45.57896" lon="7.864593">
        <ele>1589.22009</ele>
        <time>2024-08-08T08:49:04.000Z</time>
      </trkpt>
      <trkpt lat="45.578898" lon="7.86461">
        <ele>1589.27014</ele>
        <time>2024-08-08T08:49:54.000Z</time>
      </trkpt>
      <trkpt lat="45.578895" lon="7.86458">
        <ele>1589.32007</ele>
        <time>2024-08-08T08:49:56.000Z</time>
      </trkpt>
      <trkpt lat="45.578903" lon="7.864543">
        <ele>1589.37512</ele>
        <time>2024-08-08T08:49:58.000Z</time>
      </trkpt>
      <trkpt lat="45.578927" lon="7.864523">
        <ele>1589.46021</ele>
        <time>2024-08-08T08:50:00.000Z</time>
      </trkpt>
      <trkpt lat="45.57895" lon="7.864503">
        <ele>1589.55505</ele>
        <time>2024-08-08T08:50:02.000Z</time>
      </trkpt>
      <trkpt lat="45.578973" lon="7.864493">
        <ele>1589.68005</ele>
        <time>2024-08-08T08:50:05.000Z</time>
      </trkpt>
      <trkpt lat="45.578997" lon="7.8645">
        <ele>1589.80005</ele>
        <time>2024-08-08T08:50:08.000Z</time>
      </trkpt>
      <trkpt lat="45.579015" lon="7.864503">
        <ele>1589.88513</ele>
        <time>2024-08-08T08:50:11.000Z</time>
      </trkpt>
      <trkpt lat="45.579065" lon="7.864503">
        <ele>1589.9751</ele>
        <time>2024-08-08T08:50:39.000Z</time>
      </trkpt>
      <trkpt lat="45.579047" lon="7.864513">
        <ele>1589.98999</ele>
        <time>2024-08-08T08:50:44.000Z</time>
      </trkpt>
      <trkpt lat="45.579022" lon="7.864513">
        <ele>1589.93506</ele>
        <time>2024-08-08T08:50:46.000Z</time>
      </trkpt>
      <trkpt lat="45.57901" lon="7.864537">
        <ele>1589.87512</ele>
        <time>2024-08-08T08:50:50.000Z</time>
      </trkpt>
      <trkpt lat="45.57903" lon="7.864542">
        <ele>1589.80505</ele>
        <time>2024-08-08T08:51:02.000Z</time>
      </trkpt>
      <trkpt lat="45.57905" lon="7.864545">
        <ele>1589.77002</ele>
        <time>2024-08-08T08:51:04.000Z</time>
      </trkpt>
      <trkpt lat="45.579032" lon="7.864535">
        <ele>1589.97498</ele>
        <time>2024-08-08T08:52:09.000Z</time>
      </trkpt>
      <trkpt lat="45.579022" lon="7.864512">
        <ele>1590.30994</ele>
        <time>2024-08-08T08:52:27.000Z</time>
      </trkpt>
      <trkpt lat="45.579" lon="7.864505">
        <ele>1590.63989</ele>
        <time>2024-08-08T08:52:29.000Z</time>
      </trkpt>
      <trkpt lat="45.578992" lon="7.864528">
        <ele>1590.83997</ele>
        <time>2024-08-08T08:52:37.000Z</time>
      </trkpt>
      <trkpt lat="45.578972" lon="7.864535">
        <ele>1591.05994</ele>
        <time>2024-08-08T08:52:40.000Z</time>
      </trkpt>
      <trkpt lat="45.578917" lon="7.864458">
        <ele>1590.98499</ele>
        <time>2024-08-08T08:53:00.000Z</time>
      </trkpt>
      <trkpt lat="45.578998" lon="7.864525">
        <ele>1590.68494</ele>
        <time>2024-08-08T08:54:24.000Z</time>
      </trkpt>
      <trkpt lat="45.578922" lon="7.86449">
        <ele>1590.96997</ele>
        <time>2024-08-08T08:55:04.000Z</time>
      </trkpt>
      <trkpt lat="45.578928" lon="7.864465">
        <ele>1591.32495</ele>
        <time>2024-08-08T08:55:27.000Z</time>
      </trkpt>
      <trkpt lat="45.579008" lon="7.864528">
        <ele>1591.51978</ele>
        <time>2024-08-08T08:57:15.000Z</time>
      </trkpt>
      <trkpt lat="45.579015" lon="7.864503">
        <ele>1591.40991</ele>
        <time>2024-08-08T08:57:59.000Z</time>
      </trkpt>
      <trkpt lat="45.579013" lon="7.864477">
        <ele>1591.57495</ele>
        <time>2024-08-08T08:58:39.000Z</time>
      </trkpt>
      <trkpt lat="45.579038" lon="7.864477">
        <ele>1591.72986</ele>
        <time>2024-08-08T08:58:42.000Z</time>
      </trkpt>
      <trkpt lat="45.579053" lon="7.864495">
        <ele>1591.87988</ele>
        <time>2024-08-08T08:58:44.000Z</time>
      </trkpt>
      <trkpt lat="45.579035" lon="7.864508">
        <ele>1591.87488</ele>
        <time>2024-08-08T08:58:50.000Z</time>
      </trkpt>
      <trkpt lat="45.57905" lon="7.864493">
        <ele>1591.84497</ele>
        <time>2024-08-08T08:58:59.000Z</time>
      </trkpt>
      <trkpt lat="45.579032" lon="7.864497">
        <ele>1591.8949</ele>
        <time>2024-08-08T08:59:04.000Z</time>
      </trkpt>
      <trkpt lat="45.579015" lon="7.864513">
        <ele>1591.99487</ele>
        <time>2024-08-08T08:59:08.000Z</time>
      </trkpt>
      <trkpt lat="45.579032" lon="7.8645">
        <ele>1592.125</ele>
        <time>2024-08-08T08:59:42.000Z</time>
      </trkpt>
      <trkpt lat="45.579052" lon="7.864502">
        <ele>1592.2301</ele>
        <time>2024-08-08T08:59:44.000Z</time>
      </trkpt>
      <trkpt lat="45.579053" lon="7.864528">
        <ele>1592.16016</ele>
        <time>2024-08-08T08:59:51.000Z</time>
      </trkpt>
      <trkpt lat="45.579072" lon="7.864548">
        <ele>1591.97522</ele>
        <time>2024-08-08T09:00:00.000Z</time>
      </trkpt>
      <trkpt lat="45.579093" lon="7.86455">
        <ele>1591.77515</ele>
        <time>2024-08-08T09:00:04.000Z</time>
      </trkpt>
      <trkpt lat="45.579115" lon="7.864572">
        <ele>1591.68518</ele>
        <time>2024-08-08T09:00:15.000Z</time>
      </trkpt>
      <trkpt lat="45.579133" lon="7.864575">
        <ele>1591.54517</ele>
        <time>2024-08-08T09:00:18.000Z</time>
      </trkpt>
      <trkpt lat="45.579152" lon="7.864567">
        <ele>1591.69019</ele>
        <time>2024-08-08T09:00:21.000Z</time>
      </trkpt>
      <trkpt lat="45.579168" lon="7.864587">
        <ele>1591.91028</ele>
        <time>2024-08-08T09:00:27.000Z</time>
      </trkpt>
      <trkpt lat="45.579168" lon="7.864613">
        <ele>1591.60522</ele>
        <time>2024-08-08T09:00:30.000Z</time>
      </trkpt>
      <trkpt lat="45.579165" lon="7.864648">
        <ele>1591.27527</ele>
        <time>2024-08-08T09:00:32.000Z</time>
      </trkpt>
      <trkpt lat="45.579158" lon="7.864683">
        <ele>1591.1554</ele>
        <time>2024-08-08T09:00:35.000Z</time>
      </trkpt>
      <trkpt lat="45.579155" lon="7.86472">
        <ele>1591.38037</ele>
        <time>2024-08-08T09:00:38.000Z</time>
      </trkpt>
      <trkpt lat="45.579178" lon="7.864735">
        <ele>1591.39526</ele>
        <time>2024-08-08T09:00:43.000Z</time>
      </trkpt>
      <trkpt lat="45.5792" lon="7.864742">
        <ele>1591.44531</ele>
        <time>2024-08-08T09:00:46.000Z</time>
      </trkpt>
      <trkpt lat="45.579218" lon="7.864742">
        <ele>1591.52026</ele>
        <time>2024-08-08T09:00:49.000Z</time>
      </trkpt>
      <trkpt lat="45.579237" lon="7.864737">
        <ele>1591.6554</ele>
        <time>2024-08-08T09:00:52.000Z</time>
      </trkpt>
      <trkpt lat="45.579258" lon="7.864757">
        <ele>1591.86035</ele>
        <time>2024-08-08T09:00:55.000Z</time>
      </trkpt>
      <trkpt lat="45.579278" lon="7.864763">
        <ele>1592.0553</ele>
        <time>2024-08-08T09:00:59.000Z</time>
      </trkpt>
      <trkpt lat="45.579295" lon="7.864777">
        <ele>1592.29517</ele>
        <time>2024-08-08T09:01:02.000Z</time>
      </trkpt>
      <trkpt lat="45.579308" lon="7.864807">
        <ele>1592.56519</ele>
        <time>2024-08-08T09:01:05.000Z</time>
      </trkpt>
      <trkpt lat="45.57932" lon="7.864835">
        <ele>1592.86011</ele>
        <time>2024-08-08T09:01:07.000Z</time>
      </trkpt>
      <trkpt lat="45.579335" lon="7.864863">
        <ele>1593.21997</ele>
        <time>2024-08-08T09:01:10.000Z</time>
      </trkpt>
      <trkpt lat="45.579352" lon="7.86488">
        <ele>1593.67004</ele>
        <time>2024-08-08T09:01:13.000Z</time>
      </trkpt>
      <trkpt lat="45.579365" lon="7.8649">
        <ele>1594.22498</ele>
        <time>2024-08-08T09:01:16.000Z</time>
      </trkpt>
      <trkpt lat="45.579385" lon="7.864908">
        <ele>1594.80994</ele>
        <time>2024-08-08T09:01:18.000Z</time>
      </trkpt>
      <trkpt lat="45.579403" lon="7.864907">
        <ele>1595.49487</ele>
        <time>2024-08-08T09:01:22.000Z</time>
      </trkpt>
      <trkpt lat="45.579423" lon="7.864905">
        <ele>1596.23499</ele>
        <time>2024-08-08T09:01:25.000Z</time>
      </trkpt>
      <trkpt lat="45.579442" lon="7.864913">
        <ele>1596.98499</ele>
        <time>2024-08-08T09:01:28.000Z</time>
      </trkpt>
      <trkpt lat="45.579463" lon="7.864917">
        <ele>1597.67993</ele>
        <time>2024-08-08T09:01:31.000Z</time>
      </trkpt>
      <trkpt lat="45.579485" lon="7.864898">
        <ele>1598.42505</ele>
        <time>2024-08-08T09:01:37.000Z</time>
      </trkpt>
      <trkpt lat="45.579497" lon="7.864877">
        <ele>1599.15503</ele>
        <time>2024-08-08T09:01:43.000Z</time>
      </trkpt>
      <trkpt lat="45.579495" lon="7.86492">
        <ele>1599.84497</ele>
        <time>2024-08-08T09:01:51.000Z</time>
      </trkpt>
      <trkpt lat="45.579493" lon="7.864957">
        <ele>1600.48999</ele>
        <time>2024-08-08T09:01:54.000Z</time>
      </trkpt>
      <trkpt lat="45.57949" lon="7.86499">
        <ele>1601.09509</ele>
        <time>2024-08-08T09:01:57.000Z</time>
      </trkpt>
      <trkpt lat="45.579475" lon="7.865015">
        <ele>1601.70007</ele>
        <time>2024-08-08T09:02:00.000Z</time>
      </trkpt>
      <trkpt lat="45.57947" lon="7.865048">
        <ele>1602.31006</ele>
        <time>2024-08-08T09:02:02.000Z</time>
      </trkpt>
      <trkpt lat="45.579465" lon="7.865075">
        <ele>1602.94006</ele>
        <time>2024-08-08T09:02:04.000Z</time>
      </trkpt>
      <trkpt lat="45.579448" lon="7.865093">
        <ele>1603.57007</ele>
        <time>2024-08-08T09:02:06.000Z</time>
      </trkpt>
      <trkpt lat="45.579435" lon="7.865115">
        <ele>1604.2002</ele>
        <time>2024-08-08T09:02:08.000Z</time>
      </trkpt>
      <trkpt lat="45.57942" lon="7.865132">
        <ele>1604.80017</ele>
        <time>2024-08-08T09:02:10.000Z</time>
      </trkpt>
      <trkpt lat="45.579457" lon="7.865182">
        <ele>1605.69519</ele>
        <time>2024-08-08T09:02:33.000Z</time>
      </trkpt>
      <trkpt lat="45.579457" lon="7.865208">
        <ele>1606.55518</ele>
        <time>2024-08-08T09:02:36.000Z</time>
      </trkpt>
      <trkpt lat="45.579455" lon="7.86524">
        <ele>1607.37012</ele>
        <time>2024-08-08T09:02:39.000Z</time>
      </trkpt>
      <trkpt lat="45.579473" lon="7.865238">
        <ele>1608.12524</ele>
        <time>2024-08-08T09:02:44.000Z</time>
      </trkpt>
      <trkpt lat="45.579492" lon="7.865225">
        <ele>1608.91028</ele>
        <time>2024-08-08T09:02:47.000Z</time>
      </trkpt>
      <trkpt lat="45.579508" lon="7.865242">
        <ele>1609.74524</ele>
        <time>2024-08-08T09:02:51.000Z</time>
      </trkpt>
      <trkpt lat="45.579513" lon="7.865268">
        <ele>1610.64026</ele>
        <time>2024-08-08T09:02:56.000Z</time>
      </trkpt>
      <trkpt lat="45.579525" lon="7.865317">
        <ele>1611.61023</ele>
        <time>2024-08-08T09:03:05.000Z</time>
      </trkpt>
      <trkpt lat="45.579523" lon="7.865353">
        <ele>1612.59521</ele>
        <time>2024-08-08T09:03:08.000Z</time>
      </trkpt>
      <trkpt lat="45.579532" lon="7.865387">
        <ele>1613.54028</ele>
        <time>2024-08-08T09:03:11.000Z</time>
      </trkpt>
      <trkpt lat="45.57954" lon="7.865412">
        <ele>1614.51526</ele>
        <time>2024-08-08T09:03:16.000Z</time>
      </trkpt>
      <trkpt lat="45.579545" lon="7.865477">
        <ele>1615.64526</ele>
        <time>2024-08-08T09:03:38.000Z</time>
      </trkpt>
      <trkpt lat="45.579543" lon="7.865508">
        <ele>1616.8103</ele>
        <time>2024-08-08T09:03:42.000Z</time>
      </trkpt>
      <trkpt lat="45.579562" lon="7.865517">
        <ele>1618.04028</ele>
        <time>2024-08-08T09:03:50.000Z</time>
      </trkpt>
      <trkpt lat="45.579558" lon="7.865485">
        <ele>1619.26526</ele>
        <time>2024-08-08T09:03:54.000Z</time>
      </trkpt>
      <trkpt lat="45.579578" lon="7.865485">
        <ele>1620.5752</ele>
        <time>2024-08-08T09:04:04.000Z</time>
      </trkpt>
      <trkpt lat="45.579593" lon="7.865507">
        <ele>1621.86523</ele>
        <time>2024-08-08T09:04:07.000Z</time>
      </trkpt>
      <trkpt lat="45.579607" lon="7.86553">
        <ele>1623.14526</ele>
        <time>2024-08-08T09:04:10.000Z</time>
      </trkpt>
      <trkpt lat="45.579617" lon="7.865562">
        <ele>1624.43518</ele>
        <time>2024-08-08T09:04:14.000Z</time>
      </trkpt>
      <trkpt lat="45.579623" lon="7.865593">
        <ele>1625.72522</ele>
        <time>2024-08-08T09:04:17.000Z</time>
      </trkpt>
      <trkpt lat="45.579635" lon="7.865625">
        <ele>1626.69519</ele>
        <time>2024-08-08T09:04:20.000Z</time>
      </trkpt>
      <trkpt lat="45.579645" lon="7.865647">
        <ele>1627.61523</ele>
        <time>2024-08-08T09:04:22.000Z</time>
      </trkpt>
      <trkpt lat="45.579655" lon="7.865678">
        <ele>1628.51025</ele>
        <time>2024-08-08T09:04:26.000Z</time>
      </trkpt>
      <trkpt lat="45.579655" lon="7.865705">
        <ele>1629.41028</ele>
        <time>2024-08-08T09:04:28.000Z</time>
      </trkpt>
      <trkpt lat="45.579658" lon="7.865737">
        <ele>1630.28027</ele>
        <time>2024-08-08T09:04:31.000Z</time>
      </trkpt>
      <trkpt lat="45.57966" lon="7.865768">
        <ele>1631.08533</ele>
        <time>2024-08-08T09:04:33.000Z</time>
      </trkpt>
      <trkpt lat="45.579648" lon="7.8658">
        <ele>1631.81531</ele>
        <time>2024-08-08T09:04:36.000Z</time>
      </trkpt>
      <trkpt lat="45.57964" lon="7.865823">
        <ele>1632.50024</ele>
        <time>2024-08-08T09:04:39.000Z</time>
      </trkpt>
      <trkpt lat="45.579627" lon="7.865853">
        <ele>1633.19531</ele>
        <time>2024-08-08T09:04:43.000Z</time>
      </trkpt>
      <trkpt lat="45.579608" lon="7.86587">
        <ele>1633.90027</ele>
        <time>2024-08-08T09:04:46.000Z</time>
      </trkpt>
      <trkpt lat="45.579588" lon="7.865873">
        <ele>1634.59534</ele>
        <time>2024-08-08T09:04:49.000Z</time>
      </trkpt>
      <trkpt lat="45.57956" lon="7.865883">
        <ele>1635.14526</ele>
        <time>2024-08-08T09:04:51.000Z</time>
      </trkpt>
      <trkpt lat="45.579538" lon="7.865883">
        <ele>1635.64526</ele>
        <time>2024-08-08T09:04:53.000Z</time>
      </trkpt>
      <trkpt lat="45.579522" lon="7.865867">
        <ele>1636.13525</ele>
        <time>2024-08-08T09:04:57.000Z</time>
      </trkpt>
      <trkpt lat="45.579495" lon="7.865872">
        <ele>1636.6853</ele>
        <time>2024-08-08T09:05:01.000Z</time>
      </trkpt>
      <trkpt lat="45.579477" lon="7.865883">
        <ele>1637.15027</ele>
        <time>2024-08-08T09:05:03.000Z</time>
      </trkpt>
      <trkpt lat="45.57946" lon="7.865898">
        <ele>1637.61536</ele>
        <time>2024-08-08T09:05:06.000Z</time>
      </trkpt>
      <trkpt lat="45.579443" lon="7.86591">
        <ele>1638.09033</ele>
        <time>2024-08-08T09:05:09.000Z</time>
      </trkpt>
      <trkpt lat="45.579428" lon="7.865925">
        <ele>1638.59045</ele>
        <time>2024-08-08T09:05:12.000Z</time>
      </trkpt>
      <trkpt lat="45.579418" lon="7.86595">
        <ele>1639.10034</ele>
        <time>2024-08-08T09:05:15.000Z</time>
      </trkpt>
      <trkpt lat="45.579412" lon="7.865982">
        <ele>1639.62036</ele>
        <time>2024-08-08T09:05:19.000Z</time>
      </trkpt>
      <trkpt lat="45.579395" lon="7.865997">
        <ele>1640.17542</ele>
        <time>2024-08-08T09:05:23.000Z</time>
      </trkpt>
      <trkpt lat="45.579372" lon="7.866005">
        <ele>1640.73535</ele>
        <time>2024-08-08T09:05:26.000Z</time>
      </trkpt>
      <trkpt lat="45.579358" lon="7.866023">
        <ele>1641.3053</ele>
        <time>2024-08-08T09:05:28.000Z</time>
      </trkpt>
      <trkpt lat="45.57936" lon="7.866057">
        <ele>1641.90015</ele>
        <time>2024-08-08T09:05:33.000Z</time>
      </trkpt>
      <trkpt lat="45.579362" lon="7.866087">
        <ele>1642.50513</ele>
        <time>2024-08-08T09:05:37.000Z</time>
      </trkpt>
      <trkpt lat="45.579378" lon="7.8661">
        <ele>1643.1051</ele>
        <time>2024-08-08T09:05:41.000Z</time>
      </trkpt>
      <trkpt lat="45.579393" lon="7.866115">
        <ele>1643.68518</ele>
        <time>2024-08-08T09:05:47.000Z</time>
      </trkpt>
      <trkpt lat="45.579377" lon="7.866138">
        <ele>1644.24023</ele>
        <time>2024-08-08T09:05:50.000Z</time>
      </trkpt>
      <trkpt lat="45.579363" lon="7.866165">
        <ele>1644.76013</ele>
        <time>2024-08-08T09:05:52.000Z</time>
      </trkpt>
      <trkpt lat="45.579358" lon="7.86619">
        <ele>1645.23511</ele>
        <time>2024-08-08T09:05:55.000Z</time>
      </trkpt>
      <trkpt lat="45.579345" lon="7.86621">
        <ele>1645.72522</ele>
        <time>2024-08-08T09:05:58.000Z</time>
      </trkpt>
      <trkpt lat="45.579337" lon="7.866237">
        <ele>1646.23511</ele>
        <time>2024-08-08T09:06:04.000Z</time>
      </trkpt>
      <trkpt lat="45.57933" lon="7.866262">
        <ele>1646.73511</ele>
        <time>2024-08-08T09:06:07.000Z</time>
      </trkpt>
      <trkpt lat="45.579318" lon="7.866288">
        <ele>1647.21521</ele>
        <time>2024-08-08T09:06:11.000Z</time>
      </trkpt>
      <trkpt lat="45.579313" lon="7.866313">
        <ele>1647.71021</ele>
        <time>2024-08-08T09:06:14.000Z</time>
      </trkpt>
      <trkpt lat="45.579312" lon="7.866342">
        <ele>1648.20508</ele>
        <time>2024-08-08T09:06:19.000Z</time>
      </trkpt>
      <trkpt lat="45.579295" lon="7.866387">
        <ele>1648.75</ele>
        <time>2024-08-08T09:06:27.000Z</time>
      </trkpt>
      <trkpt lat="45.579292" lon="7.866418">
        <ele>1649.24487</ele>
        <time>2024-08-08T09:06:29.000Z</time>
      </trkpt>
      <trkpt lat="45.579297" lon="7.866452">
        <ele>1649.72498</ele>
        <time>2024-08-08T09:06:32.000Z</time>
      </trkpt>
      <trkpt lat="45.579298" lon="7.866487">
        <ele>1650.20508</ele>
        <time>2024-08-08T09:06:35.000Z</time>
      </trkpt>
      <trkpt lat="45.579297" lon="7.866518">
        <ele>1650.69507</ele>
        <time>2024-08-08T09:06:39.000Z</time>
      </trkpt>
      <trkpt lat="45.57929" lon="7.866555">
        <ele>1651.2301</ele>
        <time>2024-08-08T09:06:43.000Z</time>
      </trkpt>
      <trkpt lat="45.57928" lon="7.866587">
        <ele>1651.76013</ele>
        <time>2024-08-08T09:06:46.000Z</time>
      </trkpt>
      <trkpt lat="45.579272" lon="7.86661">
        <ele>1652.25024</ele>
        <time>2024-08-08T09:06:48.000Z</time>
      </trkpt>
      <trkpt lat="45.579282" lon="7.866633">
        <ele>1652.78516</ele>
        <time>2024-08-08T09:06:52.000Z</time>
      </trkpt>
      <trkpt lat="45.57928" lon="7.866665">
        <ele>1653.3551</ele>
        <time>2024-08-08T09:06:57.000Z</time>
      </trkpt>
      <trkpt lat="45.579275" lon="7.86669">
        <ele>1653.96509</ele>
        <time>2024-08-08T09:07:00.000Z</time>
      </trkpt>
      <trkpt lat="45.579267" lon="7.866722">
        <ele>1654.66504</ele>
        <time>2024-08-08T09:07:03.000Z</time>
      </trkpt>
      <trkpt lat="45.579278" lon="7.866702">
        <ele>1655.40503</ele>
        <time>2024-08-08T09:07:06.000Z</time>
      </trkpt>
      <trkpt lat="45.57929" lon="7.866728">
        <ele>1656.125</ele>
        <time>2024-08-08T09:07:10.000Z</time>
      </trkpt>
      <trkpt lat="45.579302" lon="7.86675">
        <ele>1656.79517</ele>
        <time>2024-08-08T09:07:12.000Z</time>
      </trkpt>
      <trkpt lat="45.579315" lon="7.866778">
        <ele>1657.48511</ele>
        <time>2024-08-08T09:07:17.000Z</time>
      </trkpt>
      <trkpt lat="45.579322" lon="7.866808">
        <ele>1658.17017</ele>
        <time>2024-08-08T09:07:21.000Z</time>
      </trkpt>
      <trkpt lat="45.57933" lon="7.866833">
        <ele>1658.83008</ele>
        <time>2024-08-08T09:07:24.000Z</time>
      </trkpt>
      <trkpt lat="45.579353" lon="7.866852">
        <ele>1659.48999</ele>
        <time>2024-08-08T09:07:27.000Z</time>
      </trkpt>
      <trkpt lat="45.579377" lon="7.866845">
        <ele>1660.14514</ele>
        <time>2024-08-08T09:07:31.000Z</time>
      </trkpt>
      <trkpt lat="45.579395" lon="7.86684">
        <ele>1660.77014</ele>
        <time>2024-08-08T09:07:34.000Z</time>
      </trkpt>
      <trkpt lat="45.579417" lon="7.866853">
        <ele>1661.49512</ele>
        <time>2024-08-08T09:07:37.000Z</time>
      </trkpt>
      <trkpt lat="45.57944" lon="7.866858">
        <ele>1662.3551</ele>
        <time>2024-08-08T09:07:40.000Z</time>
      </trkpt>
      <trkpt lat="45.57946" lon="7.866865">
        <ele>1663.34998</ele>
        <time>2024-08-08T09:07:46.000Z</time>
      </trkpt>
      <trkpt lat="45.579478" lon="7.866873">
        <ele>1664.33008</ele>
        <time>2024-08-08T09:07:48.000Z</time>
      </trkpt>
      <trkpt lat="45.5795" lon="7.866897">
        <ele>1665.24512</ele>
        <time>2024-08-08T09:07:51.000Z</time>
      </trkpt>
      <trkpt lat="45.579523" lon="7.86689">
        <ele>1666.16504</ele>
        <time>2024-08-08T09:07:54.000Z</time>
      </trkpt>
      <trkpt lat="45.57954" lon="7.866902">
        <ele>1667.08008</ele>
        <time>2024-08-08T09:07:57.000Z</time>
      </trkpt>
      <trkpt lat="45.579557" lon="7.866912">
        <ele>1667.90002</ele>
        <time>2024-08-08T09:07:59.000Z</time>
      </trkpt>
      <trkpt lat="45.57957" lon="7.866943">
        <ele>1668.6449</ele>
        <time>2024-08-08T09:08:03.000Z</time>
      </trkpt>
      <trkpt lat="45.579595" lon="7.866965">
        <ele>1669.28491</ele>
        <time>2024-08-08T09:08:05.000Z</time>
      </trkpt>
      <trkpt lat="45.579608" lon="7.866983">
        <ele>1669.83008</ele>
        <time>2024-08-08T09:08:07.000Z</time>
      </trkpt>
      <trkpt lat="45.579628" lon="7.867002">
        <ele>1670.30005</ele>
        <time>2024-08-08T09:08:10.000Z</time>
      </trkpt>
      <trkpt lat="45.579652" lon="7.866997">
        <ele>1670.7301</ele>
        <time>2024-08-08T09:08:13.000Z</time>
      </trkpt>
      <trkpt lat="45.579635" lon="7.86701">
        <ele>1671.21021</ele>
        <time>2024-08-08T09:08:21.000Z</time>
      </trkpt>
      <trkpt lat="45.579667" lon="7.867002">
        <ele>1671.74023</ele>
        <time>2024-08-08T09:08:35.000Z</time>
      </trkpt>
      <trkpt lat="45.579687" lon="7.867012">
        <ele>1672.23022</ele>
        <time>2024-08-08T09:08:38.000Z</time>
      </trkpt>
      <trkpt lat="45.579705" lon="7.867018">
        <ele>1672.71033</ele>
        <time>2024-08-08T09:08:40.000Z</time>
      </trkpt>
      <trkpt lat="45.5797" lon="7.867053">
        <ele>1673.19043</ele>
        <time>2024-08-08T09:08:47.000Z</time>
      </trkpt>
      <trkpt lat="45.579705" lon="7.867085">
        <ele>1673.67029</ele>
        <time>2024-08-08T09:08:50.000Z</time>
      </trkpt>
      <trkpt lat="45.579703" lon="7.867117">
        <ele>1674.13025</ele>
        <time>2024-08-08T09:08:53.000Z</time>
      </trkpt>
      <trkpt lat="45.579682" lon="7.867127">
        <ele>1674.49536</ele>
        <time>2024-08-08T09:08:56.000Z</time>
      </trkpt>
      <trkpt lat="45.57966" lon="7.86717">
        <ele>1674.77026</ele>
        <time>2024-08-08T09:09:07.000Z</time>
      </trkpt>
      <trkpt lat="45.57964" lon="7.867192">
        <ele>1674.92542</ele>
        <time>2024-08-08T09:09:10.000Z</time>
      </trkpt>
      <trkpt lat="45.579635" lon="7.867247">
        <ele>1675.11035</ele>
        <time>2024-08-08T09:09:15.000Z</time>
      </trkpt>
      <trkpt lat="45.579635" lon="7.867303">
        <ele>1675.36548</ele>
        <time>2024-08-08T09:09:33.000Z</time>
      </trkpt>
      <trkpt lat="45.57963" lon="7.867278">
        <ele>1675.63049</ele>
        <time>2024-08-08T09:09:35.000Z</time>
      </trkpt>
      <trkpt lat="45.579617" lon="7.867302">
        <ele>1675.94043</ele>
        <time>2024-08-08T09:09:46.000Z</time>
      </trkpt>
      <trkpt lat="45.57961" lon="7.867328">
        <ele>1676.2854</ele>
        <time>2024-08-08T09:09:50.000Z</time>
      </trkpt>
      <trkpt lat="45.579575" lon="7.86739">
        <ele>1676.69531</ele>
        <time>2024-08-08T09:10:00.000Z</time>
      </trkpt>
      <trkpt lat="45.579558" lon="7.867403">
        <ele>1677.1803</ele>
        <time>2024-08-08T09:10:02.000Z</time>
      </trkpt>
      <trkpt lat="45.579545" lon="7.867422">
        <ele>1677.7002</ele>
        <time>2024-08-08T09:10:04.000Z</time>
      </trkpt>
      <trkpt lat="45.57954" lon="7.867453">
        <ele>1678.27014</ele>
        <time>2024-08-08T09:10:08.000Z</time>
      </trkpt>
      <trkpt lat="45.579537" lon="7.867483">
        <ele>1678.96021</ele>
        <time>2024-08-08T09:10:17.000Z</time>
      </trkpt>
      <trkpt lat="45.579537" lon="7.867517">
        <ele>1679.63513</ele>
        <time>2024-08-08T09:10:20.000Z</time>
      </trkpt>
      <trkpt lat="45.579523" lon="7.867538">
        <ele>1680.28003</ele>
        <time>2024-08-08T09:10:24.000Z</time>
      </trkpt>
      <trkpt lat="45.579532" lon="7.867562">
        <ele>1681.03516</ele>
        <time>2024-08-08T09:10:32.000Z</time>
      </trkpt>
      <trkpt lat="45.579533" lon="7.867593">
        <ele>1681.76501</ele>
        <time>2024-08-08T09:10:36.000Z</time>
      </trkpt>
      <trkpt lat="45.579542" lon="7.867655">
        <ele>1682.52502</ele>
        <time>2024-08-08T09:10:47.000Z</time>
      </trkpt>
      <trkpt lat="45.579532" lon="7.867685">
        <ele>1683.33008</ele>
        <time>2024-08-08T09:10:53.000Z</time>
      </trkpt>
      <trkpt lat="45.579545" lon="7.867713">
        <ele>1684.19995</ele>
        <time>2024-08-08T09:11:03.000Z</time>
      </trkpt>
      <trkpt lat="45.579555" lon="7.867738">
        <ele>1685.09998</ele>
        <time>2024-08-08T09:11:06.000Z</time>
      </trkpt>
      <trkpt lat="45.579615" lon="7.867812">
        <ele>1686.31995</ele>
        <time>2024-08-08T09:11:31.000Z</time>
      </trkpt>
      <trkpt lat="45.579612" lon="7.867785">
        <ele>1687.55493</ele>
        <time>2024-08-08T09:11:36.000Z</time>
      </trkpt>
      <trkpt lat="45.579633" lon="7.867788">
        <ele>1688.75977</ele>
        <time>2024-08-08T09:11:45.000Z</time>
      </trkpt>
      <trkpt lat="45.579652" lon="7.867788">
        <ele>1689.95972</ele>
        <time>2024-08-08T09:11:50.000Z</time>
      </trkpt>
      <trkpt lat="45.57967" lon="7.867792">
        <ele>1691.13477</ele>
        <time>2024-08-08T09:11:54.000Z</time>
      </trkpt>
      <trkpt lat="45.579687" lon="7.867802">
        <ele>1692.26978</ele>
        <time>2024-08-08T09:11:57.000Z</time>
      </trkpt>
      <trkpt lat="45.579732" lon="7.867847">
        <ele>1693.42969</ele>
        <time>2024-08-08T09:12:05.000Z</time>
      </trkpt>
      <trkpt lat="45.579732" lon="7.867873">
        <ele>1694.55981</ele>
        <time>2024-08-08T09:12:07.000Z</time>
      </trkpt>
      <trkpt lat="45.579723" lon="7.867903">
        <ele>1695.70972</ele>
        <time>2024-08-08T09:12:11.000Z</time>
      </trkpt>
      <trkpt lat="45.579713" lon="7.86793">
        <ele>1696.86487</ele>
        <time>2024-08-08T09:12:14.000Z</time>
      </trkpt>
      <trkpt lat="45.579732" lon="7.867937">
        <ele>1698.00977</ele>
        <time>2024-08-08T09:12:19.000Z</time>
      </trkpt>
      <trkpt lat="45.57975" lon="7.867947">
        <ele>1699.11975</ele>
        <time>2024-08-08T09:12:23.000Z</time>
      </trkpt>
      <trkpt lat="45.579763" lon="7.867973">
        <ele>1700.1947</ele>
        <time>2024-08-08T09:12:26.000Z</time>
      </trkpt>
      <trkpt lat="45.579785" lon="7.86798">
        <ele>1701.2146</ele>
        <time>2024-08-08T09:12:31.000Z</time>
      </trkpt>
      <trkpt lat="45.579808" lon="7.867983">
        <ele>1702.17456</ele>
        <time>2024-08-08T09:12:35.000Z</time>
      </trkpt>
      <trkpt lat="45.579823" lon="7.868008">
        <ele>1703.1897</ele>
        <time>2024-08-08T09:12:39.000Z</time>
      </trkpt>
      <trkpt lat="45.579817" lon="7.86804">
        <ele>1704.27466</ele>
        <time>2024-08-08T09:12:44.000Z</time>
      </trkpt>
      <trkpt lat="45.579807" lon="7.868068">
        <ele>1705.4397</ele>
        <time>2024-08-08T09:12:48.000Z</time>
      </trkpt>
      <trkpt lat="45.579795" lon="7.868092">
        <ele>1706.58459</ele>
        <time>2024-08-08T09:12:52.000Z</time>
      </trkpt>
      <trkpt lat="45.579797" lon="7.868123">
        <ele>1707.75952</ele>
        <time>2024-08-08T09:12:59.000Z</time>
      </trkpt>
      <trkpt lat="45.579793" lon="7.868157">
        <ele>1708.57947</ele>
        <time>2024-08-08T09:13:03.000Z</time>
      </trkpt>
      <trkpt lat="45.579787" lon="7.868182">
        <ele>1709.38452</ele>
        <time>2024-08-08T09:13:08.000Z</time>
      </trkpt>
      <trkpt lat="45.579787" lon="7.868213">
        <ele>1710.17944</ele>
        <time>2024-08-08T09:13:12.000Z</time>
      </trkpt>
      <trkpt lat="45.579785" lon="7.868243">
        <ele>1710.94458</ele>
        <time>2024-08-08T09:13:15.000Z</time>
      </trkpt>
      <trkpt lat="45.579778" lon="7.868273">
        <ele>1711.72949</ele>
        <time>2024-08-08T09:13:18.000Z</time>
      </trkpt>
      <trkpt lat="45.57979" lon="7.868295">
        <ele>1712.50952</ele>
        <time>2024-08-08T09:13:26.000Z</time>
      </trkpt>
      <trkpt lat="45.579807" lon="7.868385">
        <ele>1713.41467</ele>
        <time>2024-08-08T09:13:41.000Z</time>
      </trkpt>
      <trkpt lat="45.579825" lon="7.868395">
        <ele>1714.3396</ele>
        <time>2024-08-08T09:13:46.000Z</time>
      </trkpt>
      <trkpt lat="45.579845" lon="7.868412">
        <ele>1715.24451</ele>
        <time>2024-08-08T09:13:49.000Z</time>
      </trkpt>
      <trkpt lat="45.579862" lon="7.868433">
        <ele>1716.12463</ele>
        <time>2024-08-08T09:13:53.000Z</time>
      </trkpt>
      <trkpt lat="45.579875" lon="7.868452">
        <ele>1717.06958</ele>
        <time>2024-08-08T09:13:59.000Z</time>
      </trkpt>
      <trkpt lat="45.579888" lon="7.86847">
        <ele>1717.9895</ele>
        <time>2024-08-08T09:14:02.000Z</time>
      </trkpt>
      <trkpt lat="45.579912" lon="7.868477">
        <ele>1718.95959</ele>
        <time>2024-08-08T09:14:06.000Z</time>
      </trkpt>
      <trkpt lat="45.579935" lon="7.86848">
        <ele>1719.97949</ele>
        <time>2024-08-08T09:14:10.000Z</time>
      </trkpt>
      <trkpt lat="45.579947" lon="7.868503">
        <ele>1721.0144</ele>
        <time>2024-08-08T09:14:14.000Z</time>
      </trkpt>
      <trkpt lat="45.579955" lon="7.868528">
        <ele>1722.06445</ele>
        <time>2024-08-08T09:14:17.000Z</time>
      </trkpt>
      <trkpt lat="45.579962" lon="7.868553">
        <ele>1722.99451</ele>
        <time>2024-08-08T09:14:19.000Z</time>
      </trkpt>
      <trkpt lat="45.579977" lon="7.86857">
        <ele>1723.83948</ele>
        <time>2024-08-08T09:14:24.000Z</time>
      </trkpt>
      <trkpt lat="45.579988" lon="7.868592">
        <ele>1724.62952</ele>
        <time>2024-08-08T09:14:27.000Z</time>
      </trkpt>
      <trkpt lat="45.580003" lon="7.868615">
        <ele>1725.3894</ele>
        <time>2024-08-08T09:14:31.000Z</time>
      </trkpt>
      <trkpt lat="45.580022" lon="7.868623">
        <ele>1726.18433</ele>
        <time>2024-08-08T09:14:35.000Z</time>
      </trkpt>
      <trkpt lat="45.580043" lon="7.868617">
        <ele>1727.00427</ele>
        <time>2024-08-08T09:14:38.000Z</time>
      </trkpt>
      <trkpt lat="45.580053" lon="7.868593">
        <ele>1727.82935</ele>
        <time>2024-08-08T09:14:41.000Z</time>
      </trkpt>
      <trkpt lat="45.580052" lon="7.868632">
        <ele>1728.49927</ele>
        <time>2024-08-08T09:15:05.000Z</time>
      </trkpt>
      <trkpt lat="45.580053" lon="7.868602">
        <ele>1729.22424</ele>
        <time>2024-08-08T09:15:26.000Z</time>
      </trkpt>
      <trkpt lat="45.580067" lon="7.868583">
        <ele>1729.96912</ele>
        <time>2024-08-08T09:15:43.000Z</time>
      </trkpt>
      <trkpt lat="45.580083" lon="7.868623">
        <ele>1730.71423</ele>
        <time>2024-08-08T09:17:25.000Z</time>
      </trkpt>
      <trkpt lat="45.580065" lon="7.868593">
        <ele>1731.39917</ele>
        <time>2024-08-08T09:17:28.000Z</time>
      </trkpt>
      <trkpt lat="45.580067" lon="7.868647">
        <ele>1732.07422</ele>
        <time>2024-08-08T09:19:30.000Z</time>
      </trkpt>
      <trkpt lat="45.58007" lon="7.868678">
        <ele>1732.74927</ele>
        <time>2024-08-08T09:19:32.000Z</time>
      </trkpt>
      <trkpt lat="45.580072" lon="7.868713">
        <ele>1733.34436</ele>
        <time>2024-08-08T09:19:34.000Z</time>
      </trkpt>
      <trkpt lat="45.580072" lon="7.868747">
        <ele>1733.92444</ele>
        <time>2024-08-08T09:19:36.000Z</time>
      </trkpt>
      <trkpt lat="45.580077" lon="7.86878">
        <ele>1734.40942</ele>
        <time>2024-08-08T09:19:38.000Z</time>
      </trkpt>
      <trkpt lat="45.58009" lon="7.868802">
        <ele>1734.82947</ele>
        <time>2024-08-08T09:19:40.000Z</time>
      </trkpt>
      <trkpt lat="45.580108" lon="7.868828">
        <ele>1735.26953</ele>
        <time>2024-08-08T09:19:44.000Z</time>
      </trkpt>
      <trkpt lat="45.580133" lon="7.868823">
        <ele>1735.65454</ele>
        <time>2024-08-08T09:19:46.000Z</time>
      </trkpt>
      <trkpt lat="45.580153" lon="7.868835">
        <ele>1736.00952</ele>
        <time>2024-08-08T09:19:48.000Z</time>
      </trkpt>
      <trkpt lat="45.58018" lon="7.868872">
        <ele>1736.28967</ele>
        <time>2024-08-08T09:19:50.000Z</time>
      </trkpt>
      <trkpt lat="45.580183" lon="7.868907">
        <ele>1736.53455</ele>
        <time>2024-08-08T09:19:52.000Z</time>
      </trkpt>
      <trkpt lat="45.580187" lon="7.868935">
        <ele>1736.70959</ele>
        <time>2024-08-08T09:19:54.000Z</time>
      </trkpt>
      <trkpt lat="45.580195" lon="7.868967">
        <ele>1736.80957</ele>
        <time>2024-08-08T09:19:56.000Z</time>
      </trkpt>
      <trkpt lat="45.580202" lon="7.869003">
        <ele>1736.84961</ele>
        <time>2024-08-08T09:19:58.000Z</time>
      </trkpt>
      <trkpt lat="45.580208" lon="7.86903">
        <ele>1736.86951</ele>
        <time>2024-08-08T09:20:01.000Z</time>
      </trkpt>
      <trkpt lat="45.580222" lon="7.869048">
        <ele>1737.02466</ele>
        <time>2024-08-08T09:20:03.000Z</time>
      </trkpt>
      <trkpt lat="45.580213" lon="7.869077">
        <ele>1737.07458</ele>
        <time>2024-08-08T09:20:06.000Z</time>
      </trkpt>
      <trkpt lat="45.580218" lon="7.869107">
        <ele>1737.09961</ele>
        <time>2024-08-08T09:20:08.000Z</time>
      </trkpt>
      <trkpt lat="45.580223" lon="7.869135">
        <ele>1736.97461</ele>
        <time>2024-08-08T09:20:10.000Z</time>
      </trkpt>
      <trkpt lat="45.580225" lon="7.869165">
        <ele>1736.85474</ele>
        <time>2024-08-08T09:20:13.000Z</time>
      </trkpt>
      <trkpt lat="45.580235" lon="7.869187">
        <ele>1736.76978</ele>
        <time>2024-08-08T09:20:15.000Z</time>
      </trkpt>
      <trkpt lat="45.580243" lon="7.869222">
        <ele>1736.71973</ele>
        <time>2024-08-08T09:20:18.000Z</time>
      </trkpt>
      <trkpt lat="45.580262" lon="7.869242">
        <ele>1736.76978</ele>
        <time>2024-08-08T09:20:23.000Z</time>
      </trkpt>
      <trkpt lat="45.580278" lon="7.869258">
        <ele>1736.87463</ele>
        <time>2024-08-08T09:20:28.000Z</time>
      </trkpt>
      <trkpt lat="45.58029" lon="7.869282">
        <ele>1737.04956</ele>
        <time>2024-08-08T09:20:31.000Z</time>
      </trkpt>
      <trkpt lat="45.580305" lon="7.869298">
        <ele>1737.25452</ele>
        <time>2024-08-08T09:20:33.000Z</time>
      </trkpt>
      <trkpt lat="45.580317" lon="7.869318">
        <ele>1737.42944</ele>
        <time>2024-08-08T09:20:35.000Z</time>
      </trkpt>
      <trkpt lat="45.580335" lon="7.869337">
        <ele>1737.62952</ele>
        <time>2024-08-08T09:20:38.000Z</time>
      </trkpt>
      <trkpt lat="45.580342" lon="7.869365">
        <ele>1737.91956</ele>
        <time>2024-08-08T09:20:43.000Z</time>
      </trkpt>
      <trkpt lat="45.580338" lon="7.869397">
        <ele>1738.27954</ele>
        <time>2024-08-08T09:20:46.000Z</time>
      </trkpt>
      <trkpt lat="45.580342" lon="7.869428">
        <ele>1738.68945</ele>
        <time>2024-08-08T09:20:49.000Z</time>
      </trkpt>
      <trkpt lat="45.580353" lon="7.869458">
        <ele>1739.14941</ele>
        <time>2024-08-08T09:20:52.000Z</time>
      </trkpt>
      <trkpt lat="45.58035" lon="7.869492">
        <ele>1739.6344</ele>
        <time>2024-08-08T09:20:57.000Z</time>
      </trkpt>
      <trkpt lat="45.580352" lon="7.869518">
        <ele>1740.11938</ele>
        <time>2024-08-08T09:21:00.000Z</time>
      </trkpt>
      <trkpt lat="45.58035" lon="7.869547">
        <ele>1740.61938</ele>
        <time>2024-08-08T09:21:03.000Z</time>
      </trkpt>
      <trkpt lat="45.580352" lon="7.869573">
        <ele>1741.12427</ele>
        <time>2024-08-08T09:21:07.000Z</time>
      </trkpt>
      <trkpt lat="45.580343" lon="7.869598">
        <ele>1741.63416</ele>
        <time>2024-08-08T09:21:09.000Z</time>
      </trkpt>
      <trkpt lat="45.580322" lon="7.8696">
        <ele>1742.14417</ele>
        <time>2024-08-08T09:21:12.000Z</time>
      </trkpt>
      <trkpt lat="45.580307" lon="7.869622">
        <ele>1742.65894</ele>
        <time>2024-08-08T09:21:16.000Z</time>
      </trkpt>
      <trkpt lat="45.580318" lon="7.869675">
        <ele>1743.27405</ele>
        <time>2024-08-08T09:21:24.000Z</time>
      </trkpt>
      <trkpt lat="45.580317" lon="7.869703">
        <ele>1743.88904</ele>
        <time>2024-08-08T09:21:28.000Z</time>
      </trkpt>
      <trkpt lat="45.580327" lon="7.869728">
        <ele>1744.46899</ele>
        <time>2024-08-08T09:21:32.000Z</time>
      </trkpt>
      <trkpt lat="45.580332" lon="7.869758">
        <ele>1744.94397</ele>
        <time>2024-08-08T09:21:38.000Z</time>
      </trkpt>
      <trkpt lat="45.58034" lon="7.869785">
        <ele>1745.349</ele>
        <time>2024-08-08T09:21:42.000Z</time>
      </trkpt>
      <trkpt lat="45.580353" lon="7.869807">
        <ele>1745.75391</ele>
        <time>2024-08-08T09:21:44.000Z</time>
      </trkpt>
      <trkpt lat="45.580373" lon="7.86983">
        <ele>1746.23401</ele>
        <time>2024-08-08T09:21:49.000Z</time>
      </trkpt>
      <trkpt lat="45.580383" lon="7.869855">
        <ele>1746.70386</ele>
        <time>2024-08-08T09:21:51.000Z</time>
      </trkpt>
      <trkpt lat="45.580387" lon="7.869882">
        <ele>1747.23401</ele>
        <time>2024-08-08T09:21:58.000Z</time>
      </trkpt>
      <trkpt lat="45.580387" lon="7.869912">
        <ele>1747.69885</ele>
        <time>2024-08-08T09:22:01.000Z</time>
      </trkpt>
      <trkpt lat="45.580377" lon="7.86994">
        <ele>1748.15881</ele>
        <time>2024-08-08T09:22:07.000Z</time>
      </trkpt>
      <trkpt lat="45.58039" lon="7.869962">
        <ele>1748.61389</ele>
        <time>2024-08-08T09:22:11.000Z</time>
      </trkpt>
      <trkpt lat="45.580398" lon="7.869985">
        <ele>1749.03394</ele>
        <time>2024-08-08T09:22:13.000Z</time>
      </trkpt>
      <trkpt lat="45.580407" lon="7.870012">
        <ele>1749.45898</ele>
        <time>2024-08-08T09:22:16.000Z</time>
      </trkpt>
      <trkpt lat="45.580408" lon="7.870038">
        <ele>1749.89905</ele>
        <time>2024-08-08T09:22:19.000Z</time>
      </trkpt>
      <trkpt lat="45.580423" lon="7.87006">
        <ele>1750.36401</ele>
        <time>2024-08-08T09:22:26.000Z</time>
      </trkpt>
      <trkpt lat="45.580428" lon="7.87009">
        <ele>1750.83423</ele>
        <time>2024-08-08T09:22:30.000Z</time>
      </trkpt>
      <trkpt lat="45.580437" lon="7.870113">
        <ele>1751.35913</ele>
        <time>2024-08-08T09:22:33.000Z</time>
      </trkpt>
      <trkpt lat="45.580452" lon="7.870132">
        <ele>1751.91931</ele>
        <time>2024-08-08T09:22:38.000Z</time>
      </trkpt>
      <trkpt lat="45.580463" lon="7.87017">
        <ele>1752.46448</ele>
        <time>2024-08-08T09:22:41.000Z</time>
      </trkpt>
      <trkpt lat="45.580483" lon="7.870195">
        <ele>1752.93945</ele>
        <time>2024-08-08T09:22:43.000Z</time>
      </trkpt>
      <trkpt lat="45.580502" lon="7.870205">
        <ele>1753.42444</ele>
        <time>2024-08-08T09:22:47.000Z</time>
      </trkpt>
      <trkpt lat="45.580507" lon="7.87023">
        <ele>1753.90942</ele>
        <time>2024-08-08T09:22:49.000Z</time>
      </trkpt>
      <trkpt lat="45.580527" lon="7.87024">
        <ele>1754.46936</ele>
        <time>2024-08-08T09:22:55.000Z</time>
      </trkpt>
      <trkpt lat="45.580547" lon="7.870245">
        <ele>1755.10938</ele>
        <time>2024-08-08T09:23:00.000Z</time>
      </trkpt>
      <trkpt lat="45.580565" lon="7.87024">
        <ele>1755.74939</ele>
        <time>2024-08-08T09:23:04.000Z</time>
      </trkpt>
      <trkpt lat="45.580587" lon="7.87025">
        <ele>1756.31445</ele>
        <time>2024-08-08T09:23:07.000Z</time>
      </trkpt>
      <trkpt lat="45.580605" lon="7.870258">
        <ele>1756.84961</ele>
        <time>2024-08-08T09:23:10.000Z</time>
      </trkpt>
      <trkpt lat="45.580625" lon="7.870278">
        <ele>1757.26465</ele>
        <time>2024-08-08T09:23:15.000Z</time>
      </trkpt>
      <trkpt lat="45.58064" lon="7.8703">
        <ele>1757.70972</ele>
        <time>2024-08-08T09:23:18.000Z</time>
      </trkpt>
      <trkpt lat="45.580647" lon="7.870325">
        <ele>1758.13989</ele>
        <time>2024-08-08T09:23:21.000Z</time>
      </trkpt>
      <trkpt lat="45.580658" lon="7.870348">
        <ele>1758.60486</ele>
        <time>2024-08-08T09:23:27.000Z</time>
      </trkpt>
      <trkpt lat="45.580672" lon="7.870367">
        <ele>1759.13477</ele>
        <time>2024-08-08T09:23:32.000Z</time>
      </trkpt>
      <trkpt lat="45.58067" lon="7.870395">
        <ele>1759.65979</ele>
        <time>2024-08-08T09:23:36.000Z</time>
      </trkpt>
      <trkpt lat="45.580663" lon="7.87042">
        <ele>1760.18481</ele>
        <time>2024-08-08T09:23:39.000Z</time>
      </trkpt>
      <trkpt lat="45.580683" lon="7.870417">
        <ele>1760.74475</ele>
        <time>2024-08-08T09:23:44.000Z</time>
      </trkpt>
      <trkpt lat="45.5807" lon="7.870402">
        <ele>1761.30957</ele>
        <time>2024-08-08T09:23:48.000Z</time>
      </trkpt>
      <trkpt lat="45.580718" lon="7.8704">
        <ele>1761.84473</ele>
        <time>2024-08-08T09:23:51.000Z</time>
      </trkpt>
      <trkpt lat="45.580722" lon="7.87043">
        <ele>1762.45471</ele>
        <time>2024-08-08T09:23:57.000Z</time>
      </trkpt>
      <trkpt lat="45.58072" lon="7.870457">
        <ele>1763.13965</ele>
        <time>2024-08-08T09:24:01.000Z</time>
      </trkpt>
      <trkpt lat="45.580707" lon="7.870477">
        <ele>1763.85962</ele>
        <time>2024-08-08T09:24:04.000Z</time>
      </trkpt>
      <trkpt lat="45.580697" lon="7.870512">
        <ele>1764.57971</ele>
        <time>2024-08-08T09:24:08.000Z</time>
      </trkpt>
      <trkpt lat="45.580707" lon="7.870535">
        <ele>1765.33984</ele>
        <time>2024-08-08T09:24:11.000Z</time>
      </trkpt>
      <trkpt lat="45.580715" lon="7.870565">
        <ele>1766.06482</ele>
        <time>2024-08-08T09:24:15.000Z</time>
      </trkpt>
      <trkpt lat="45.580727" lon="7.870585">
        <ele>1766.72986</ele>
        <time>2024-08-08T09:24:18.000Z</time>
      </trkpt>
      <trkpt lat="45.580738" lon="7.870608">
        <ele>1767.38989</ele>
        <time>2024-08-08T09:24:23.000Z</time>
      </trkpt>
      <trkpt lat="45.580758" lon="7.870603">
        <ele>1768.05981</ele>
        <time>2024-08-08T09:24:31.000Z</time>
      </trkpt>
      <trkpt lat="45.580775" lon="7.870617">
        <ele>1768.78967</ele>
        <time>2024-08-08T09:24:35.000Z</time>
      </trkpt>
      <trkpt lat="45.58079" lon="7.87064">
        <ele>1769.60962</ele>
        <time>2024-08-08T09:24:38.000Z</time>
      </trkpt>
      <trkpt lat="45.5808" lon="7.87067">
        <ele>1770.41956</ele>
        <time>2024-08-08T09:24:41.000Z</time>
      </trkpt>
      <trkpt lat="45.580807" lon="7.870703">
        <ele>1771.24939</ele>
        <time>2024-08-08T09:24:44.000Z</time>
      </trkpt>
      <trkpt lat="45.58082" lon="7.870727">
        <ele>1772.04431</ele>
        <time>2024-08-08T09:24:47.000Z</time>
      </trkpt>
      <trkpt lat="45.580825" lon="7.870755">
        <ele>1772.83948</ele>
        <time>2024-08-08T09:24:52.000Z</time>
      </trkpt>
      <trkpt lat="45.580833" lon="7.870785">
        <ele>1773.68457</ele>
        <time>2024-08-08T09:24:57.000Z</time>
      </trkpt>
      <trkpt lat="45.58084" lon="7.870815">
        <ele>1774.5896</ele>
        <time>2024-08-08T09:25:01.000Z</time>
      </trkpt>
      <trkpt lat="45.580848" lon="7.870843">
        <ele>1775.4646</ele>
        <time>2024-08-08T09:25:07.000Z</time>
      </trkpt>
      <trkpt lat="45.580848" lon="7.87087">
        <ele>1776.2998</ele>
        <time>2024-08-08T09:25:12.000Z</time>
      </trkpt>
      <trkpt lat="45.58084" lon="7.870897">
        <ele>1777.13477</ele>
        <time>2024-08-08T09:25:15.000Z</time>
      </trkpt>
      <trkpt lat="45.580852" lon="7.870922">
        <ele>1777.87476</ele>
        <time>2024-08-08T09:25:20.000Z</time>
      </trkpt>
      <trkpt lat="45.580867" lon="7.87094">
        <ele>1778.54468</ele>
        <time>2024-08-08T09:25:25.000Z</time>
      </trkpt>
      <trkpt lat="45.58088" lon="7.870958">
        <ele>1779.20972</ele>
        <time>2024-08-08T09:25:29.000Z</time>
      </trkpt>
      <trkpt lat="45.580912" lon="7.870967">
        <ele>1779.87463</ele>
        <time>2024-08-08T09:25:38.000Z</time>
      </trkpt>
      <trkpt lat="45.58093" lon="7.870977">
        <ele>1780.47949</ele>
        <time>2024-08-08T09:25:41.000Z</time>
      </trkpt>
      <trkpt lat="45.580947" lon="7.870987">
        <ele>1781.06445</ele>
        <time>2024-08-08T09:25:44.000Z</time>
      </trkpt>
      <trkpt lat="45.580965" lon="7.870998">
        <ele>1781.67932</ele>
        <time>2024-08-08T09:25:47.000Z</time>
      </trkpt>
      <trkpt lat="45.580988" lon="7.870998">
        <ele>1782.31934</ele>
        <time>2024-08-08T09:25:50.000Z</time>
      </trkpt>
      <trkpt lat="45.581005" lon="7.871012">
        <ele>1782.98926</ele>
        <time>2024-08-08T09:25:54.000Z</time>
      </trkpt>
      <trkpt lat="45.581025" lon="7.871038">
        <ele>1783.74927</ele>
        <time>2024-08-08T09:26:01.000Z</time>
      </trkpt>
      <trkpt lat="45.58103" lon="7.871067">
        <ele>1784.49438</ele>
        <time>2024-08-08T09:26:04.000Z</time>
      </trkpt>
      <trkpt lat="45.581048" lon="7.871088">
        <ele>1785.28442</ele>
        <time>2024-08-08T09:26:09.000Z</time>
      </trkpt>
      <trkpt lat="45.581068" lon="7.871107">
        <ele>1786.07947</ele>
        <time>2024-08-08T09:26:14.000Z</time>
      </trkpt>
      <trkpt lat="45.58108" lon="7.87113">
        <ele>1786.83459</ele>
        <time>2024-08-08T09:26:17.000Z</time>
      </trkpt>
      <trkpt lat="45.581098" lon="7.871148">
        <ele>1787.55444</ele>
        <time>2024-08-08T09:26:23.000Z</time>
      </trkpt>
      <trkpt lat="45.581108" lon="7.871178">
        <ele>1788.21448</ele>
        <time>2024-08-08T09:26:29.000Z</time>
      </trkpt>
      <trkpt lat="45.581107" lon="7.871207">
        <ele>1788.83948</ele>
        <time>2024-08-08T09:26:33.000Z</time>
      </trkpt>
      <trkpt lat="45.581107" lon="7.871235">
        <ele>1789.50452</ele>
        <time>2024-08-08T09:26:37.000Z</time>
      </trkpt>
      <trkpt lat="45.581117" lon="7.871262">
        <ele>1790.28442</ele>
        <time>2024-08-08T09:26:47.000Z</time>
      </trkpt>
      <trkpt lat="45.581127" lon="7.871292">
        <ele>1791.11938</ele>
        <time>2024-08-08T09:26:51.000Z</time>
      </trkpt>
      <trkpt lat="45.581147" lon="7.871288">
        <ele>1791.98413</ele>
        <time>2024-08-08T09:26:55.000Z</time>
      </trkpt>
      <trkpt lat="45.581158" lon="7.871308">
        <ele>1792.88928</ele>
        <time>2024-08-08T09:27:01.000Z</time>
      </trkpt>
      <trkpt lat="45.581165" lon="7.871333">
        <ele>1793.79919</ele>
        <time>2024-08-08T09:27:05.000Z</time>
      </trkpt>
      <trkpt lat="45.581177" lon="7.871355">
        <ele>1794.68921</ele>
        <time>2024-08-08T09:27:09.000Z</time>
      </trkpt>
      <trkpt lat="45.581188" lon="7.871378">
        <ele>1795.59436</ele>
        <time>2024-08-08T09:27:13.000Z</time>
      </trkpt>
      <trkpt lat="45.581182" lon="7.871407">
        <ele>1796.45435</ele>
        <time>2024-08-08T09:27:19.000Z</time>
      </trkpt>
      <trkpt lat="45.581177" lon="7.871435">
        <ele>1797.24939</ele>
        <time>2024-08-08T09:27:24.000Z</time>
      </trkpt>
      <trkpt lat="45.581172" lon="7.871493">
        <ele>1797.96948</ele>
        <time>2024-08-08T09:27:34.000Z</time>
      </trkpt>
      <trkpt lat="45.581147" lon="7.871507">
        <ele>1798.66956</ele>
        <time>2024-08-08T09:27:37.000Z</time>
      </trkpt>
      <trkpt lat="45.581133" lon="7.871527">
        <ele>1799.27466</ele>
        <time>2024-08-08T09:27:43.000Z</time>
      </trkpt>
      <trkpt lat="45.581125" lon="7.87156">
        <ele>1799.96948</ele>
        <time>2024-08-08T09:27:50.000Z</time>
      </trkpt>
      <trkpt lat="45.58111" lon="7.871575">
        <ele>1800.64453</ele>
        <time>2024-08-08T09:27:54.000Z</time>
      </trkpt>
      <trkpt lat="45.5811" lon="7.871603">
        <ele>1801.34937</ele>
        <time>2024-08-08T09:28:05.000Z</time>
      </trkpt>
      <trkpt lat="45.581123" lon="7.87164">
        <ele>1802.1543</ele>
        <time>2024-08-08T09:28:13.000Z</time>
      </trkpt>
      <trkpt lat="45.581145" lon="7.871635">
        <ele>1802.98926</ele>
        <time>2024-08-08T09:28:18.000Z</time>
      </trkpt>
      <trkpt lat="45.581167" lon="7.871657">
        <ele>1803.84436</ele>
        <time>2024-08-08T09:28:21.000Z</time>
      </trkpt>
      <trkpt lat="45.581183" lon="7.871682">
        <ele>1804.70435</ele>
        <time>2024-08-08T09:28:24.000Z</time>
      </trkpt>
      <trkpt lat="45.581192" lon="7.87171">
        <ele>1805.46936</ele>
        <time>2024-08-08T09:28:28.000Z</time>
      </trkpt>
      <trkpt lat="45.581205" lon="7.871735">
        <ele>1806.17932</ele>
        <time>2024-08-08T09:28:32.000Z</time>
      </trkpt>
      <trkpt lat="45.58122" lon="7.871755">
        <ele>1806.81421</ele>
        <time>2024-08-08T09:28:34.000Z</time>
      </trkpt>
      <trkpt lat="45.5812" lon="7.871778">
        <ele>1807.40942</ele>
        <time>2024-08-08T09:28:37.000Z</time>
      </trkpt>
      <trkpt lat="45.581185" lon="7.8718">
        <ele>1807.95935</ele>
        <time>2024-08-08T09:28:40.000Z</time>
      </trkpt>
      <trkpt lat="45.581193" lon="7.87183">
        <ele>1808.44434</ele>
        <time>2024-08-08T09:28:45.000Z</time>
      </trkpt>
      <trkpt lat="45.581192" lon="7.871862">
        <ele>1808.91931</ele>
        <time>2024-08-08T09:28:49.000Z</time>
      </trkpt>
      <trkpt lat="45.581203" lon="7.871883">
        <ele>1809.44434</ele>
        <time>2024-08-08T09:28:54.000Z</time>
      </trkpt>
      <trkpt lat="45.58121" lon="7.871915">
        <ele>1810.02441</ele>
        <time>2024-08-08T09:28:59.000Z</time>
      </trkpt>
      <trkpt lat="45.58121" lon="7.871945">
        <ele>1810.64941</ele>
        <time>2024-08-08T09:29:01.000Z</time>
      </trkpt>
      <trkpt lat="45.58122" lon="7.87197">
        <ele>1811.36938</ele>
        <time>2024-08-08T09:29:04.000Z</time>
      </trkpt>
      <trkpt lat="45.581215" lon="7.872003">
        <ele>1812.10449</ele>
        <time>2024-08-08T09:29:09.000Z</time>
      </trkpt>
      <trkpt lat="45.58122" lon="7.872035">
        <ele>1812.77954</ele>
        <time>2024-08-08T09:29:11.000Z</time>
      </trkpt>
      <trkpt lat="45.58122" lon="7.872063">
        <ele>1813.34448</ele>
        <time>2024-08-08T09:29:13.000Z</time>
      </trkpt>
      <trkpt lat="45.581232" lon="7.872095">
        <ele>1813.90955</ele>
        <time>2024-08-08T09:29:16.000Z</time>
      </trkpt>
      <trkpt lat="45.581245" lon="7.872117">
        <ele>1814.43457</ele>
        <time>2024-08-08T09:29:19.000Z</time>
      </trkpt>
      <trkpt lat="45.581258" lon="7.872143">
        <ele>1814.85962</ele>
        <time>2024-08-08T09:29:22.000Z</time>
      </trkpt>
      <trkpt lat="45.581265" lon="7.872182">
        <ele>1815.20959</ele>
        <time>2024-08-08T09:29:25.000Z</time>
      </trkpt>
      <trkpt lat="45.581262" lon="7.872218">
        <ele>1815.55957</ele>
        <time>2024-08-08T09:29:27.000Z</time>
      </trkpt>
      <trkpt lat="45.581263" lon="7.872248">
        <ele>1815.88452</ele>
        <time>2024-08-08T09:29:29.000Z</time>
      </trkpt>
      <trkpt lat="45.581253" lon="7.872282">
        <ele>1816.27954</ele>
        <time>2024-08-08T09:29:33.000Z</time>
      </trkpt>
      <trkpt lat="45.581248" lon="7.872308">
        <ele>1816.72461</ele>
        <time>2024-08-08T09:29:37.000Z</time>
      </trkpt>
      <trkpt lat="45.581238" lon="7.87234">
        <ele>1817.23962</ele>
        <time>2024-08-08T09:29:41.000Z</time>
      </trkpt>
      <trkpt lat="45.581223" lon="7.872362">
        <ele>1817.77466</ele>
        <time>2024-08-08T09:29:44.000Z</time>
      </trkpt>
      <trkpt lat="45.581207" lon="7.872375">
        <ele>1818.29956</ele>
        <time>2024-08-08T09:29:46.000Z</time>
      </trkpt>
      <trkpt lat="45.581187" lon="7.872387">
        <ele>1818.84961</ele>
        <time>2024-08-08T09:29:48.000Z</time>
      </trkpt>
      <trkpt lat="45.581192" lon="7.87242">
        <ele>1819.54956</ele>
        <time>2024-08-08T09:29:56.000Z</time>
      </trkpt>
      <trkpt lat="45.581193" lon="7.872453">
        <ele>1820.23462</ele>
        <time>2024-08-08T09:30:00.000Z</time>
      </trkpt>
      <trkpt lat="45.58119" lon="7.87248">
        <ele>1820.90454</ele>
        <time>2024-08-08T09:30:04.000Z</time>
      </trkpt>
      <trkpt lat="45.581195" lon="7.87251">
        <ele>1821.52441</ele>
        <time>2024-08-08T09:30:07.000Z</time>
      </trkpt>
      <trkpt lat="45.581183" lon="7.87254">
        <ele>1822.08948</ele>
        <time>2024-08-08T09:30:11.000Z</time>
      </trkpt>
      <trkpt lat="45.581178" lon="7.872575">
        <ele>1822.59436</ele>
        <time>2024-08-08T09:30:16.000Z</time>
      </trkpt>
      <trkpt lat="45.58117" lon="7.872602">
        <ele>1823.09937</ele>
        <time>2024-08-08T09:30:18.000Z</time>
      </trkpt>
      <trkpt lat="45.581175" lon="7.872633">
        <ele>1823.57935</ele>
        <time>2024-08-08T09:30:22.000Z</time>
      </trkpt>
      <trkpt lat="45.581188" lon="7.872652">
        <ele>1824.04419</ele>
        <time>2024-08-08T09:30:25.000Z</time>
      </trkpt>
      <trkpt lat="45.581205" lon="7.87269">
        <ele>1824.50916</ele>
        <time>2024-08-08T09:30:32.000Z</time>
      </trkpt>
      <trkpt lat="45.581217" lon="7.87271">
        <ele>1825.02417</ele>
        <time>2024-08-08T09:30:34.000Z</time>
      </trkpt>
      <trkpt lat="45.581232" lon="7.872732">
        <ele>1825.69434</ele>
        <time>2024-08-08T09:30:39.000Z</time>
      </trkpt>
      <trkpt lat="45.58123" lon="7.872758">
        <ele>1826.41931</ele>
        <time>2024-08-08T09:30:44.000Z</time>
      </trkpt>
      <trkpt lat="45.581237" lon="7.872787">
        <ele>1827.16431</ele>
        <time>2024-08-08T09:30:51.000Z</time>
      </trkpt>
      <trkpt lat="45.581235" lon="7.872817">
        <ele>1827.82935</ele>
        <time>2024-08-08T09:30:54.000Z</time>
      </trkpt>
      <trkpt lat="45.581228" lon="7.872847">
        <ele>1828.4342</ele>
        <time>2024-08-08T09:30:57.000Z</time>
      </trkpt>
      <trkpt lat="45.581237" lon="7.872873">
        <ele>1828.96423</ele>
        <time>2024-08-08T09:31:02.000Z</time>
      </trkpt>
      <trkpt lat="45.581227" lon="7.872903">
        <ele>1829.45923</ele>
        <time>2024-08-08T09:31:05.000Z</time>
      </trkpt>
      <trkpt lat="45.581232" lon="7.872932">
        <ele>1829.99414</ele>
        <time>2024-08-08T09:31:09.000Z</time>
      </trkpt>
      <trkpt lat="45.581233" lon="7.872958">
        <ele>1830.53931</ele>
        <time>2024-08-08T09:31:14.000Z</time>
      </trkpt>
      <trkpt lat="45.581247" lon="7.872985">
        <ele>1830.92419</ele>
        <time>2024-08-08T09:31:18.000Z</time>
      </trkpt>
      <trkpt lat="45.581257" lon="7.873013">
        <ele>1831.29919</ele>
        <time>2024-08-08T09:31:21.000Z</time>
      </trkpt>
      <trkpt lat="45.581263" lon="7.873048">
        <ele>1831.67419</ele>
        <time>2024-08-08T09:31:24.000Z</time>
      </trkpt>
      <trkpt lat="45.581273" lon="7.873072">
        <ele>1832.08423</ele>
        <time>2024-08-08T09:31:26.000Z</time>
      </trkpt>
      <trkpt lat="45.581268" lon="7.873108">
        <ele>1832.53418</ele>
        <time>2024-08-08T09:31:29.000Z</time>
      </trkpt>
      <trkpt lat="45.581267" lon="7.873135">
        <ele>1832.99414</ele>
        <time>2024-08-08T09:31:31.000Z</time>
      </trkpt>
      <trkpt lat="45.581267" lon="7.873165">
        <ele>1833.49902</ele>
        <time>2024-08-08T09:31:33.000Z</time>
      </trkpt>
      <trkpt lat="45.581268" lon="7.873192">
        <ele>1834.08423</ele>
        <time>2024-08-08T09:31:36.000Z</time>
      </trkpt>
      <trkpt lat="45.58128" lon="7.873212">
        <ele>1834.70923</ele>
        <time>2024-08-08T09:31:39.000Z</time>
      </trkpt>
      <trkpt lat="45.581303" lon="7.873208">
        <ele>1835.37927</ele>
        <time>2024-08-08T09:31:44.000Z</time>
      </trkpt>
      <trkpt lat="45.58132" lon="7.873218">
        <ele>1836.04431</ele>
        <time>2024-08-08T09:31:46.000Z</time>
      </trkpt>
      <trkpt lat="45.581337" lon="7.873233">
        <ele>1836.67419</ele>
        <time>2024-08-08T09:31:50.000Z</time>
      </trkpt>
      <trkpt lat="45.58134" lon="7.87327">
        <ele>1837.24414</ele>
        <time>2024-08-08T09:31:53.000Z</time>
      </trkpt>
      <trkpt lat="45.58134" lon="7.873298">
        <ele>1837.75916</ele>
        <time>2024-08-08T09:31:56.000Z</time>
      </trkpt>
      <trkpt lat="45.581345" lon="7.87333">
        <ele>1838.29419</ele>
        <time>2024-08-08T09:32:01.000Z</time>
      </trkpt>
      <trkpt lat="45.581357" lon="7.873362">
        <ele>1838.81421</ele>
        <time>2024-08-08T09:32:04.000Z</time>
      </trkpt>
      <trkpt lat="45.581367" lon="7.873387">
        <ele>1839.33423</ele>
        <time>2024-08-08T09:32:07.000Z</time>
      </trkpt>
      <trkpt lat="45.58137" lon="7.873415">
        <ele>1839.84436</ele>
        <time>2024-08-08T09:32:10.000Z</time>
      </trkpt>
      <trkpt lat="45.581368" lon="7.873442">
        <ele>1840.3645</ele>
        <time>2024-08-08T09:32:14.000Z</time>
      </trkpt>
      <trkpt lat="45.581373" lon="7.873467">
        <ele>1840.91931</ele>
        <time>2024-08-08T09:32:18.000Z</time>
      </trkpt>
      <trkpt lat="45.581387" lon="7.873495">
        <ele>1841.46448</ele>
        <time>2024-08-08T09:32:22.000Z</time>
      </trkpt>
      <trkpt lat="45.5814" lon="7.873513">
        <ele>1841.99939</ele>
        <time>2024-08-08T09:32:24.000Z</time>
      </trkpt>
      <trkpt lat="45.581417" lon="7.873532">
        <ele>1842.60449</ele>
        <time>2024-08-08T09:32:28.000Z</time>
      </trkpt>
      <trkpt lat="45.581437" lon="7.873552">
        <ele>1843.18457</ele>
        <time>2024-08-08T09:32:32.000Z</time>
      </trkpt>
      <trkpt lat="45.581447" lon="7.873573">
        <ele>1843.75452</ele>
        <time>2024-08-08T09:32:35.000Z</time>
      </trkpt>
      <trkpt lat="45.581468" lon="7.873595">
        <ele>1844.36951</ele>
        <time>2024-08-08T09:32:41.000Z</time>
      </trkpt>
      <trkpt lat="45.58148" lon="7.873623">
        <ele>1844.98962</ele>
        <time>2024-08-08T09:32:44.000Z</time>
      </trkpt>
      <trkpt lat="45.581472" lon="7.873648">
        <ele>1845.60449</ele>
        <time>2024-08-08T09:32:48.000Z</time>
      </trkpt>
      <trkpt lat="45.581477" lon="7.873675">
        <ele>1846.22461</ele>
        <time>2024-08-08T09:32:54.000Z</time>
      </trkpt>
      <trkpt lat="45.581492" lon="7.873692">
        <ele>1846.76953</ele>
        <time>2024-08-08T09:32:57.000Z</time>
      </trkpt>
      <trkpt lat="45.581512" lon="7.873695">
        <ele>1847.30957</ele>
        <time>2024-08-08T09:33:00.000Z</time>
      </trkpt>
      <trkpt lat="45.581505" lon="7.873722">
        <ele>1847.73462</ele>
        <time>2024-08-08T09:33:06.000Z</time>
      </trkpt>
      <trkpt lat="45.581512" lon="7.87375">
        <ele>1848.0896</ele>
        <time>2024-08-08T09:33:10.000Z</time>
      </trkpt>
      <trkpt lat="45.581527" lon="7.873783">
        <ele>1848.49963</ele>
        <time>2024-08-08T09:33:14.000Z</time>
      </trkpt>
      <trkpt lat="45.581525" lon="7.87381">
        <ele>1848.96973</ele>
        <time>2024-08-08T09:33:17.000Z</time>
      </trkpt>
      <trkpt lat="45.581523" lon="7.873847">
        <ele>1849.49475</ele>
        <time>2024-08-08T09:33:21.000Z</time>
      </trkpt>
      <trkpt lat="45.581513" lon="7.873872">
        <ele>1850.07971</ele>
        <time>2024-08-08T09:33:24.000Z</time>
      </trkpt>
      <trkpt lat="45.581525" lon="7.8739">
        <ele>1850.69958</ele>
        <time>2024-08-08T09:33:30.000Z</time>
      </trkpt>
      <trkpt lat="45.581532" lon="7.873933">
        <ele>1851.31958</ele>
        <time>2024-08-08T09:33:34.000Z</time>
      </trkpt>
      <trkpt lat="45.581517" lon="7.873952">
        <ele>1851.89453</ele>
        <time>2024-08-08T09:33:37.000Z</time>
      </trkpt>
      <trkpt lat="45.581517" lon="7.873982">
        <ele>1852.48462</ele>
        <time>2024-08-08T09:33:40.000Z</time>
      </trkpt>
      <trkpt lat="45.58151" lon="7.874013">
        <ele>1853.06958</ele>
        <time>2024-08-08T09:33:42.000Z</time>
      </trkpt>
      <trkpt lat="45.581502" lon="7.874038">
        <ele>1853.6394</ele>
        <time>2024-08-08T09:33:47.000Z</time>
      </trkpt>
      <trkpt lat="45.58152" lon="7.874058">
        <ele>1854.27441</ele>
        <time>2024-08-08T09:33:51.000Z</time>
      </trkpt>
      <trkpt lat="45.581522" lon="7.874093">
        <ele>1854.90942</ele>
        <time>2024-08-08T09:33:54.000Z</time>
      </trkpt>
      <trkpt lat="45.581525" lon="7.874127">
        <ele>1855.49939</ele>
        <time>2024-08-08T09:33:56.000Z</time>
      </trkpt>
      <trkpt lat="45.581527" lon="7.874163">
        <ele>1856.0293</ele>
        <time>2024-08-08T09:33:59.000Z</time>
      </trkpt>
      <trkpt lat="45.581525" lon="7.874193">
        <ele>1856.48438</ele>
        <time>2024-08-08T09:34:01.000Z</time>
      </trkpt>
      <trkpt lat="45.581527" lon="7.874232">
        <ele>1856.84937</ele>
        <time>2024-08-08T09:34:04.000Z</time>
      </trkpt>
      <trkpt lat="45.58152" lon="7.874267">
        <ele>1857.19434</ele>
        <time>2024-08-08T09:34:06.000Z</time>
      </trkpt>
      <trkpt lat="45.581507" lon="7.874302">
        <ele>1857.50427</ele>
        <time>2024-08-08T09:34:08.000Z</time>
      </trkpt>
      <trkpt lat="45.581493" lon="7.874338">
        <ele>1857.86426</ele>
        <time>2024-08-08T09:34:10.000Z</time>
      </trkpt>
      <trkpt lat="45.581487" lon="7.874372">
        <ele>1858.3092</ele>
        <time>2024-08-08T09:34:12.000Z</time>
      </trkpt>
      <trkpt lat="45.581498" lon="7.874395">
        <ele>1858.74927</ele>
        <time>2024-08-08T09:34:15.000Z</time>
      </trkpt>
      <trkpt lat="45.581513" lon="7.874418">
        <ele>1859.16406</ele>
        <time>2024-08-08T09:34:17.000Z</time>
      </trkpt>
      <trkpt lat="45.581525" lon="7.874445">
        <ele>1859.51892</ele>
        <time>2024-08-08T09:34:20.000Z</time>
      </trkpt>
      <trkpt lat="45.581528" lon="7.874483">
        <ele>1859.849</ele>
        <time>2024-08-08T09:34:24.000Z</time>
      </trkpt>
      <trkpt lat="45.58154" lon="7.874505">
        <ele>1860.18909</ele>
        <time>2024-08-08T09:34:26.000Z</time>
      </trkpt>
      <trkpt lat="45.581557" lon="7.874532">
        <ele>1860.49902</ele>
        <time>2024-08-08T09:34:28.000Z</time>
      </trkpt>
      <trkpt lat="45.581573" lon="7.874553">
        <ele>1860.83398</ele>
        <time>2024-08-08T09:34:30.000Z</time>
      </trkpt>
      <trkpt lat="45.58159" lon="7.874567">
        <ele>1861.19397</ele>
        <time>2024-08-08T09:34:32.000Z</time>
      </trkpt>
      <trkpt lat="45.5816" lon="7.874592">
        <ele>1861.54907</ele>
        <time>2024-08-08T09:34:34.000Z</time>
      </trkpt>
      <trkpt lat="45.581605" lon="7.874617">
        <ele>1861.849</ele>
        <time>2024-08-08T09:34:36.000Z</time>
      </trkpt>
      <trkpt lat="45.581618" lon="7.874643">
        <ele>1862.099</ele>
        <time>2024-08-08T09:34:38.000Z</time>
      </trkpt>
      <trkpt lat="45.581627" lon="7.874668">
        <ele>1862.31409</ele>
        <time>2024-08-08T09:34:40.000Z</time>
      </trkpt>
      <trkpt lat="45.581638" lon="7.874692">
        <ele>1862.56409</ele>
        <time>2024-08-08T09:34:43.000Z</time>
      </trkpt>
      <trkpt lat="45.581642" lon="7.874725">
        <ele>1862.8291</ele>
        <time>2024-08-08T09:34:46.000Z</time>
      </trkpt>
      <trkpt lat="45.58165" lon="7.874752">
        <ele>1863.15918</ele>
        <time>2024-08-08T09:34:49.000Z</time>
      </trkpt>
      <trkpt lat="45.58167" lon="7.874772">
        <ele>1863.53906</ele>
        <time>2024-08-08T09:34:52.000Z</time>
      </trkpt>
      <trkpt lat="45.581688" lon="7.874783">
        <ele>1863.98413</ele>
        <time>2024-08-08T09:34:54.000Z</time>
      </trkpt>
      <trkpt lat="45.581703" lon="7.874823">
        <ele>1864.49414</ele>
        <time>2024-08-08T09:34:57.000Z</time>
      </trkpt>
      <trkpt lat="45.581698" lon="7.874863">
        <ele>1864.98926</ele>
        <time>2024-08-08T09:34:59.000Z</time>
      </trkpt>
      <trkpt lat="45.5817" lon="7.874897">
        <ele>1865.43921</ele>
        <time>2024-08-08T09:35:01.000Z</time>
      </trkpt>
      <trkpt lat="45.581708" lon="7.87493">
        <ele>1865.88416</ele>
        <time>2024-08-08T09:35:03.000Z</time>
      </trkpt>
      <trkpt lat="45.581715" lon="7.874955">
        <ele>1866.35425</ele>
        <time>2024-08-08T09:35:06.000Z</time>
      </trkpt>
      <trkpt lat="45.58172" lon="7.87498">
        <ele>1866.8844</ele>
        <time>2024-08-08T09:35:08.000Z</time>
      </trkpt>
      <trkpt lat="45.581732" lon="7.875003">
        <ele>1867.45935</ele>
        <time>2024-08-08T09:35:10.000Z</time>
      </trkpt>
      <trkpt lat="45.581758" lon="7.87501">
        <ele>1868.05933</ele>
        <time>2024-08-08T09:35:13.000Z</time>
      </trkpt>
      <trkpt lat="45.581777" lon="7.87501">
        <ele>1868.66443</ele>
        <time>2024-08-08T09:35:15.000Z</time>
      </trkpt>
      <trkpt lat="45.58179" lon="7.874983">
        <ele>1869.20447</ele>
        <time>2024-08-08T09:35:18.000Z</time>
      </trkpt>
      <trkpt lat="45.581802" lon="7.874963">
        <ele>1869.70935</ele>
        <time>2024-08-08T09:35:22.000Z</time>
      </trkpt>
      <trkpt lat="45.581815" lon="7.874982">
        <ele>1870.12927</ele>
        <time>2024-08-08T09:35:26.000Z</time>
      </trkpt>
      <trkpt lat="45.581807" lon="7.87501">
        <ele>1870.34436</ele>
        <time>2024-08-08T09:39:23.000Z</time>
      </trkpt>
      <trkpt lat="45.581813" lon="7.875035">
        <ele>1870.5144</ele>
        <time>2024-08-08T09:39:25.000Z</time>
      </trkpt>
      <trkpt lat="45.581818" lon="7.875065">
        <ele>1870.66956</ele>
        <time>2024-08-08T09:39:27.000Z</time>
      </trkpt>
      <trkpt lat="45.58183" lon="7.875093">
        <ele>1870.75952</ele>
        <time>2024-08-08T09:39:29.000Z</time>
      </trkpt>
      <trkpt lat="45.581843" lon="7.875123">
        <ele>1870.8147</ele>
        <time>2024-08-08T09:39:31.000Z</time>
      </trkpt>
      <trkpt lat="45.581843" lon="7.87515">
        <ele>1870.79956</ele>
        <time>2024-08-08T09:39:33.000Z</time>
      </trkpt>
      <trkpt lat="45.581855" lon="7.87518">
        <ele>1870.75464</ele>
        <time>2024-08-08T09:39:36.000Z</time>
      </trkpt>
      <trkpt lat="45.581865" lon="7.875207">
        <ele>1870.65466</ele>
        <time>2024-08-08T09:39:39.000Z</time>
      </trkpt>
      <trkpt lat="45.581882" lon="7.875192">
        <ele>1870.48474</ele>
        <time>2024-08-08T09:39:45.000Z</time>
      </trkpt>
      <trkpt lat="45.581903" lon="7.875212">
        <ele>1870.38965</ele>
        <time>2024-08-08T09:39:53.000Z</time>
      </trkpt>
      <trkpt lat="45.581923" lon="7.87524">
        <ele>1870.37463</ele>
        <time>2024-08-08T09:39:55.000Z</time>
      </trkpt>
      <trkpt lat="45.581938" lon="7.87527">
        <ele>1870.36462</ele>
        <time>2024-08-08T09:39:57.000Z</time>
      </trkpt>
      <trkpt lat="45.58195" lon="7.875298">
        <ele>1870.26953</ele>
        <time>2024-08-08T09:39:59.000Z</time>
      </trkpt>
      <trkpt lat="45.581957" lon="7.875325">
        <ele>1870.07458</ele>
        <time>2024-08-08T09:40:01.000Z</time>
      </trkpt>
      <trkpt lat="45.581942" lon="7.875342">
        <ele>1869.76465</ele>
        <time>2024-08-08T09:40:06.000Z</time>
      </trkpt>
      <trkpt lat="45.581952" lon="7.87537">
        <ele>1869.38452</ele>
        <time>2024-08-08T09:40:08.000Z</time>
      </trkpt>
      <trkpt lat="45.581967" lon="7.875385">
        <ele>1868.99451</ele>
        <time>2024-08-08T09:40:09.000Z</time>
      </trkpt>
      <trkpt lat="45.581985" lon="7.875403">
        <ele>1868.66956</ele>
        <time>2024-08-08T09:40:11.000Z</time>
      </trkpt>
      <trkpt lat="45.581997" lon="7.875433">
        <ele>1868.32458</ele>
        <time>2024-08-08T09:40:13.000Z</time>
      </trkpt>
      <trkpt lat="45.582005" lon="7.875457">
        <ele>1868.04468</ele>
        <time>2024-08-08T09:40:14.000Z</time>
      </trkpt>
      <trkpt lat="45.582018" lon="7.875498">
        <ele>1867.96973</ele>
        <time>2024-08-08T09:40:16.000Z</time>
      </trkpt>
      <trkpt lat="45.582025" lon="7.87553">
        <ele>1867.98962</ele>
        <time>2024-08-08T09:40:18.000Z</time>
      </trkpt>
      <trkpt lat="45.582033" lon="7.875567">
        <ele>1868.07971</ele>
        <time>2024-08-08T09:40:20.000Z</time>
      </trkpt>
      <trkpt lat="45.582037" lon="7.875602">
        <ele>1868.27466</ele>
        <time>2024-08-08T09:40:23.000Z</time>
      </trkpt>
      <trkpt lat="45.58204" lon="7.875632">
        <ele>1868.4895</ele>
        <time>2024-08-08T09:40:25.000Z</time>
      </trkpt>
      <trkpt lat="45.582052" lon="7.87567">
        <ele>1868.73438</ele>
        <time>2024-08-08T09:40:27.000Z</time>
      </trkpt>
      <trkpt lat="45.582065" lon="7.875698">
        <ele>1869.01929</ele>
        <time>2024-08-08T09:40:29.000Z</time>
      </trkpt>
      <trkpt lat="45.582075" lon="7.875727">
        <ele>1869.34436</ele>
        <time>2024-08-08T09:40:31.000Z</time>
      </trkpt>
      <trkpt lat="45.582073" lon="7.875753">
        <ele>1869.70923</ele>
        <time>2024-08-08T09:40:34.000Z</time>
      </trkpt>
      <trkpt lat="45.582087" lon="7.875793">
        <ele>1869.97925</ele>
        <time>2024-08-08T09:40:36.000Z</time>
      </trkpt>
      <trkpt lat="45.58209" lon="7.875828">
        <ele>1870.20935</ele>
        <time>2024-08-08T09:40:38.000Z</time>
      </trkpt>
      <trkpt lat="45.582095" lon="7.875857">
        <ele>1870.42444</ele>
        <time>2024-08-08T09:40:41.000Z</time>
      </trkpt>
      <trkpt lat="45.5821" lon="7.875885">
        <ele>1870.68945</ele>
        <time>2024-08-08T09:40:43.000Z</time>
      </trkpt>
      <trkpt lat="45.582098" lon="7.875918">
        <ele>1870.96936</ele>
        <time>2024-08-08T09:40:45.000Z</time>
      </trkpt>
      <trkpt lat="45.582107" lon="7.875958">
        <ele>1871.27417</ele>
        <time>2024-08-08T09:40:47.000Z</time>
      </trkpt>
      <trkpt lat="45.582105" lon="7.875995">
        <ele>1871.62927</ele>
        <time>2024-08-08T09:40:49.000Z</time>
      </trkpt>
      <trkpt lat="45.58211" lon="7.876032">
        <ele>1871.98926</ele>
        <time>2024-08-08T09:40:51.000Z</time>
      </trkpt>
      <trkpt lat="45.582118" lon="7.876057">
        <ele>1872.28931</ele>
        <time>2024-08-08T09:40:53.000Z</time>
      </trkpt>
      <trkpt lat="45.58212" lon="7.876095">
        <ele>1872.51428</ele>
        <time>2024-08-08T09:40:56.000Z</time>
      </trkpt>
      <trkpt lat="45.582132" lon="7.876123">
        <ele>1872.72424</ele>
        <time>2024-08-08T09:40:59.000Z</time>
      </trkpt>
      <trkpt lat="45.582142" lon="7.876152">
        <ele>1872.92932</ele>
        <time>2024-08-08T09:41:01.000Z</time>
      </trkpt>
      <trkpt lat="45.582152" lon="7.876195">
        <ele>1873.08435</ele>
        <time>2024-08-08T09:41:03.000Z</time>
      </trkpt>
      <trkpt lat="45.582158" lon="7.876223">
        <ele>1873.18921</ele>
        <time>2024-08-08T09:41:05.000Z</time>
      </trkpt>
      <trkpt lat="45.58215" lon="7.876252">
        <ele>1873.22424</ele>
        <time>2024-08-08T09:41:07.000Z</time>
      </trkpt>
      <trkpt lat="45.582143" lon="7.876287">
        <ele>1873.27417</ele>
        <time>2024-08-08T09:41:10.000Z</time>
      </trkpt>
      <trkpt lat="45.582143" lon="7.876322">
        <ele>1873.30432</ele>
        <time>2024-08-08T09:41:12.000Z</time>
      </trkpt>
      <trkpt lat="45.582145" lon="7.876352">
        <ele>1873.2793</ele>
        <time>2024-08-08T09:41:14.000Z</time>
      </trkpt>
      <trkpt lat="45.582162" lon="7.876377">
        <ele>1873.17419</ele>
        <time>2024-08-08T09:41:17.000Z</time>
      </trkpt>
      <trkpt lat="45.582172" lon="7.876407">
        <ele>1873.03931</ele>
        <time>2024-08-08T09:41:19.000Z</time>
      </trkpt>
      <trkpt lat="45.582183" lon="7.876435">
        <ele>1872.91919</ele>
        <time>2024-08-08T09:41:22.000Z</time>
      </trkpt>
      <trkpt lat="45.582197" lon="7.87646">
        <ele>1872.76404</ele>
        <time>2024-08-08T09:41:24.000Z</time>
      </trkpt>
      <trkpt lat="45.582205" lon="7.876493">
        <ele>1872.64417</ele>
        <time>2024-08-08T09:41:26.000Z</time>
      </trkpt>
      <trkpt lat="45.582202" lon="7.876525">
        <ele>1872.52417</ele>
        <time>2024-08-08T09:41:29.000Z</time>
      </trkpt>
      <trkpt lat="45.582205" lon="7.876553">
        <ele>1872.41931</ele>
        <time>2024-08-08T09:41:32.000Z</time>
      </trkpt>
      <trkpt lat="45.582202" lon="7.876582">
        <ele>1872.32446</ele>
        <time>2024-08-08T09:41:36.000Z</time>
      </trkpt>
      <trkpt lat="45.58221" lon="7.876612">
        <ele>1872.24438</ele>
        <time>2024-08-08T09:41:39.000Z</time>
      </trkpt>
      <trkpt lat="45.582222" lon="7.876638">
        <ele>1872.17932</ele>
        <time>2024-08-08T09:41:42.000Z</time>
      </trkpt>
      <trkpt lat="45.582232" lon="7.876665">
        <ele>1872.12927</ele>
        <time>2024-08-08T09:41:44.000Z</time>
      </trkpt>
      <trkpt lat="45.582248" lon="7.876693">
        <ele>1872.16931</ele>
        <time>2024-08-08T09:41:46.000Z</time>
      </trkpt>
      <trkpt lat="45.582255" lon="7.876723">
        <ele>1872.24939</ele>
        <time>2024-08-08T09:41:49.000Z</time>
      </trkpt>
      <trkpt lat="45.582262" lon="7.876752">
        <ele>1872.34436</ele>
        <time>2024-08-08T09:41:51.000Z</time>
      </trkpt>
      <trkpt lat="45.58228" lon="7.876768">
        <ele>1872.46423</ele>
        <time>2024-08-08T09:41:54.000Z</time>
      </trkpt>
      <trkpt lat="45.582295" lon="7.876787">
        <ele>1872.59436</ele>
        <time>2024-08-08T09:41:56.000Z</time>
      </trkpt>
      <trkpt lat="45.582302" lon="7.876818">
        <ele>1872.74939</ele>
        <time>2024-08-08T09:41:59.000Z</time>
      </trkpt>
      <trkpt lat="45.582312" lon="7.87685">
        <ele>1872.90955</ele>
        <time>2024-08-08T09:42:01.000Z</time>
      </trkpt>
      <trkpt lat="45.582313" lon="7.876882">
        <ele>1873.07947</ele>
        <time>2024-08-08T09:42:03.000Z</time>
      </trkpt>
      <trkpt lat="45.582312" lon="7.876912">
        <ele>1873.27954</ele>
        <time>2024-08-08T09:42:05.000Z</time>
      </trkpt>
      <trkpt lat="45.582292" lon="7.876937">
        <ele>1873.54456</ele>
        <time>2024-08-08T09:42:07.000Z</time>
      </trkpt>
      <trkpt lat="45.58227" lon="7.876942">
        <ele>1873.84961</ele>
        <time>2024-08-08T09:42:09.000Z</time>
      </trkpt>
      <trkpt lat="45.582253" lon="7.876957">
        <ele>1874.15979</ele>
        <time>2024-08-08T09:42:11.000Z</time>
      </trkpt>
      <trkpt lat="45.582243" lon="7.876983">
        <ele>1874.47986</ele>
        <time>2024-08-08T09:42:13.000Z</time>
      </trkpt>
      <trkpt lat="45.582237" lon="7.877022">
        <ele>1874.77991</ele>
        <time>2024-08-08T09:42:15.000Z</time>
      </trkpt>
      <trkpt lat="45.58225" lon="7.877055">
        <ele>1875.07983</ele>
        <time>2024-08-08T09:42:18.000Z</time>
      </trkpt>
      <trkpt lat="45.582262" lon="7.877077">
        <ele>1875.40979</ele>
        <time>2024-08-08T09:42:21.000Z</time>
      </trkpt>
      <trkpt lat="45.582255" lon="7.877112">
        <ele>1875.73962</ele>
        <time>2024-08-08T09:42:23.000Z</time>
      </trkpt>
      <trkpt lat="45.582247" lon="7.877135">
        <ele>1876.00464</ele>
        <time>2024-08-08T09:42:26.000Z</time>
      </trkpt>
      <trkpt lat="45.582247" lon="7.877167">
        <ele>1876.24976</ele>
        <time>2024-08-08T09:42:28.000Z</time>
      </trkpt>
      <trkpt lat="45.582238" lon="7.877202">
        <ele>1876.48474</ele>
        <time>2024-08-08T09:42:31.000Z</time>
      </trkpt>
      <trkpt lat="45.582222" lon="7.87722">
        <ele>1876.70471</ele>
        <time>2024-08-08T09:42:34.000Z</time>
      </trkpt>
      <trkpt lat="45.582215" lon="7.877247">
        <ele>1876.87463</ele>
        <time>2024-08-08T09:42:37.000Z</time>
      </trkpt>
      <trkpt lat="45.582212" lon="7.877277">
        <ele>1877.04956</ele>
        <time>2024-08-08T09:42:39.000Z</time>
      </trkpt>
      <trkpt lat="45.582212" lon="7.877303">
        <ele>1877.18457</ele>
        <time>2024-08-08T09:42:41.000Z</time>
      </trkpt>
      <trkpt lat="45.582222" lon="7.87734">
        <ele>1877.30957</ele>
        <time>2024-08-08T09:42:43.000Z</time>
      </trkpt>
      <trkpt lat="45.582223" lon="7.877367">
        <ele>1877.37952</ele>
        <time>2024-08-08T09:42:45.000Z</time>
      </trkpt>
      <trkpt lat="45.582222" lon="7.877395">
        <ele>1877.47437</ele>
        <time>2024-08-08T09:42:48.000Z</time>
      </trkpt>
      <trkpt lat="45.582238" lon="7.877405">
        <ele>1877.65454</ele>
        <time>2024-08-08T09:42:54.000Z</time>
      </trkpt>
      <trkpt lat="45.582253" lon="7.877422">
        <ele>1877.81958</ele>
        <time>2024-08-08T09:42:56.000Z</time>
      </trkpt>
      <trkpt lat="45.582265" lon="7.877452">
        <ele>1877.94458</ele>
        <time>2024-08-08T09:42:59.000Z</time>
      </trkpt>
      <trkpt lat="45.582277" lon="7.877478">
        <ele>1877.9895</ele>
        <time>2024-08-08T09:43:01.000Z</time>
      </trkpt>
      <trkpt lat="45.582288" lon="7.877503">
        <ele>1877.96936</ele>
        <time>2024-08-08T09:43:02.000Z</time>
      </trkpt>
      <trkpt lat="45.582303" lon="7.877522">
        <ele>1877.9043</ele>
        <time>2024-08-08T09:43:05.000Z</time>
      </trkpt>
      <trkpt lat="45.582312" lon="7.877545">
        <ele>1877.77417</ele>
        <time>2024-08-08T09:43:08.000Z</time>
      </trkpt>
      <trkpt lat="45.582323" lon="7.877565">
        <ele>1877.60413</ele>
        <time>2024-08-08T09:43:11.000Z</time>
      </trkpt>
      <trkpt lat="45.582335" lon="7.877593">
        <ele>1877.37915</ele>
        <time>2024-08-08T09:43:15.000Z</time>
      </trkpt>
      <trkpt lat="45.582338" lon="7.877622">
        <ele>1877.13928</ele>
        <time>2024-08-08T09:43:17.000Z</time>
      </trkpt>
      <trkpt lat="45.582355" lon="7.877645">
        <ele>1876.88416</ele>
        <time>2024-08-08T09:43:20.000Z</time>
      </trkpt>
      <trkpt lat="45.582372" lon="7.877665">
        <ele>1876.58911</ele>
        <time>2024-08-08T09:43:22.000Z</time>
      </trkpt>
      <trkpt lat="45.582398" lon="7.877685">
        <ele>1876.31909</ele>
        <time>2024-08-08T09:43:24.000Z</time>
      </trkpt>
      <trkpt lat="45.58242" lon="7.877698">
        <ele>1876.01917</ele>
        <time>2024-08-08T09:43:26.000Z</time>
      </trkpt>
      <trkpt lat="45.582437" lon="7.877717">
        <ele>1875.78906</ele>
        <time>2024-08-08T09:43:28.000Z</time>
      </trkpt>
      <trkpt lat="45.582452" lon="7.87774">
        <ele>1875.58398</ele>
        <time>2024-08-08T09:43:30.000Z</time>
      </trkpt>
      <trkpt lat="45.582467" lon="7.877755">
        <ele>1875.38904</ele>
        <time>2024-08-08T09:43:32.000Z</time>
      </trkpt>
      <trkpt lat="45.58248" lon="7.877788">
        <ele>1875.18396</ele>
        <time>2024-08-08T09:43:34.000Z</time>
      </trkpt>
      <trkpt lat="45.582495" lon="7.87782">
        <ele>1875.00903</ele>
        <time>2024-08-08T09:43:36.000Z</time>
      </trkpt>
      <trkpt lat="45.582505" lon="7.877845">
        <ele>1874.79907</ele>
        <time>2024-08-08T09:43:38.000Z</time>
      </trkpt>
      <trkpt lat="45.58252" lon="7.877862">
        <ele>1874.47888</ele>
        <time>2024-08-08T09:43:40.000Z</time>
      </trkpt>
      <trkpt lat="45.582528" lon="7.877893">
        <ele>1874.1189</ele>
        <time>2024-08-08T09:43:44.000Z</time>
      </trkpt>
      <trkpt lat="45.582543" lon="7.87792">
        <ele>1873.74902</ele>
        <time>2024-08-08T09:43:46.000Z</time>
      </trkpt>
      <trkpt lat="45.582563" lon="7.877938">
        <ele>1873.39417</ele>
        <time>2024-08-08T09:43:48.000Z</time>
      </trkpt>
      <trkpt lat="45.582577" lon="7.87796">
        <ele>1873.06909</ele>
        <time>2024-08-08T09:43:50.000Z</time>
      </trkpt>
      <trkpt lat="45.582588" lon="7.877997">
        <ele>1872.77405</ele>
        <time>2024-08-08T09:43:52.000Z</time>
      </trkpt>
      <trkpt lat="45.582595" lon="7.878035">
        <ele>1872.52405</ele>
        <time>2024-08-08T09:43:54.000Z</time>
      </trkpt>
      <trkpt lat="45.582593" lon="7.878068">
        <ele>1872.32397</ele>
        <time>2024-08-08T09:43:57.000Z</time>
      </trkpt>
      <trkpt lat="45.582595" lon="7.878095">
        <ele>1872.16406</ele>
        <time>2024-08-08T09:43:58.000Z</time>
      </trkpt>
      <trkpt lat="45.582595" lon="7.878128">
        <ele>1872.03906</ele>
        <time>2024-08-08T09:44:00.000Z</time>
      </trkpt>
      <trkpt lat="45.582587" lon="7.878153">
        <ele>1871.98413</ele>
        <time>2024-08-08T09:44:02.000Z</time>
      </trkpt>
      <trkpt lat="45.582592" lon="7.878188">
        <ele>1872.04919</ele>
        <time>2024-08-08T09:44:06.000Z</time>
      </trkpt>
      <trkpt lat="45.582597" lon="7.878217">
        <ele>1872.16919</ele>
        <time>2024-08-08T09:44:08.000Z</time>
      </trkpt>
      <trkpt lat="45.582593" lon="7.878247">
        <ele>1872.44922</ele>
        <time>2024-08-08T09:44:11.000Z</time>
      </trkpt>
      <trkpt lat="45.582582" lon="7.878275">
        <ele>1872.74927</ele>
        <time>2024-08-08T09:44:13.000Z</time>
      </trkpt>
      <trkpt lat="45.582585" lon="7.878302">
        <ele>1873.00427</ele>
        <time>2024-08-08T09:44:15.000Z</time>
      </trkpt>
      <trkpt lat="45.582603" lon="7.878315">
        <ele>1873.47424</ele>
        <time>2024-08-08T09:44:38.000Z</time>
      </trkpt>
      <trkpt lat="45.582617" lon="7.878365">
        <ele>1873.93921</ele>
        <time>2024-08-08T09:44:40.000Z</time>
      </trkpt>
      <trkpt lat="45.58262" lon="7.878392">
        <ele>1874.3844</ele>
        <time>2024-08-08T09:44:41.000Z</time>
      </trkpt>
      <trkpt lat="45.582635" lon="7.878422">
        <ele>1874.82446</ele>
        <time>2024-08-08T09:44:43.000Z</time>
      </trkpt>
      <trkpt lat="45.582635" lon="7.878458">
        <ele>1875.28943</ele>
        <time>2024-08-08T09:44:46.000Z</time>
      </trkpt>
      <trkpt lat="45.582628" lon="7.878483">
        <ele>1875.80933</ele>
        <time>2024-08-08T09:44:48.000Z</time>
      </trkpt>
      <trkpt lat="45.582638" lon="7.878522">
        <ele>1876.39917</ele>
        <time>2024-08-08T09:44:51.000Z</time>
      </trkpt>
      <trkpt lat="45.582653" lon="7.878543">
        <ele>1877.10913</ele>
        <time>2024-08-08T09:44:56.000Z</time>
      </trkpt>
      <trkpt lat="45.582657" lon="7.878573">
        <ele>1877.85425</ele>
        <time>2024-08-08T09:44:58.000Z</time>
      </trkpt>
      <trkpt lat="45.582658" lon="7.878612">
        <ele>1878.6543</ele>
        <time>2024-08-08T09:45:00.000Z</time>
      </trkpt>
      <trkpt lat="45.582665" lon="7.878642">
        <ele>1879.5094</ele>
        <time>2024-08-08T09:45:02.000Z</time>
      </trkpt>
      <trkpt lat="45.582658" lon="7.878667">
        <ele>1880.39941</ele>
        <time>2024-08-08T09:45:04.000Z</time>
      </trkpt>
      <trkpt lat="45.582658" lon="7.878695">
        <ele>1881.32446</ele>
        <time>2024-08-08T09:45:06.000Z</time>
      </trkpt>
      <trkpt lat="45.582658" lon="7.878722">
        <ele>1882.29431</ele>
        <time>2024-08-08T09:45:09.000Z</time>
      </trkpt>
      <trkpt lat="45.582648" lon="7.87875">
        <ele>1883.26929</ele>
        <time>2024-08-08T09:45:12.000Z</time>
      </trkpt>
      <trkpt lat="45.582628" lon="7.878767">
        <ele>1884.1543</ele>
        <time>2024-08-08T09:45:15.000Z</time>
      </trkpt>
      <trkpt lat="45.582605" lon="7.878777">
        <ele>1884.98438</ele>
        <time>2024-08-08T09:45:17.000Z</time>
      </trkpt>
      <trkpt lat="45.58259" lon="7.8788">
        <ele>1885.69434</ele>
        <time>2024-08-08T09:45:19.000Z</time>
      </trkpt>
      <trkpt lat="45.58258" lon="7.878827">
        <ele>1886.30933</ele>
        <time>2024-08-08T09:45:22.000Z</time>
      </trkpt>
      <trkpt lat="45.582565" lon="7.87886">
        <ele>1886.92444</ele>
        <time>2024-08-08T09:45:24.000Z</time>
      </trkpt>
      <trkpt lat="45.582547" lon="7.878883">
        <ele>1887.31445</ele>
        <time>2024-08-08T09:45:26.000Z</time>
      </trkpt>
      <trkpt lat="45.582537" lon="7.878915">
        <ele>1887.7395</ele>
        <time>2024-08-08T09:45:28.000Z</time>
      </trkpt>
      <trkpt lat="45.582538" lon="7.878943">
        <ele>1888.21936</ele>
        <time>2024-08-08T09:45:30.000Z</time>
      </trkpt>
      <trkpt lat="45.582532" lon="7.87898">
        <ele>1888.70435</ele>
        <time>2024-08-08T09:45:32.000Z</time>
      </trkpt>
      <trkpt lat="45.582513" lon="7.878995">
        <ele>1889.17444</ele>
        <time>2024-08-08T09:45:34.000Z</time>
      </trkpt>
      <trkpt lat="45.58249" lon="7.879007">
        <ele>1889.6394</ele>
        <time>2024-08-08T09:45:36.000Z</time>
      </trkpt>
      <trkpt lat="45.582477" lon="7.879028">
        <ele>1890.07458</ele>
        <time>2024-08-08T09:45:38.000Z</time>
      </trkpt>
      <trkpt lat="45.582467" lon="7.87905">
        <ele>1890.46948</ele>
        <time>2024-08-08T09:45:40.000Z</time>
      </trkpt>
      <trkpt lat="45.582457" lon="7.879075">
        <ele>1890.84937</ele>
        <time>2024-08-08T09:45:43.000Z</time>
      </trkpt>
      <trkpt lat="45.582435" lon="7.879103">
        <ele>1891.19946</ele>
        <time>2024-08-08T09:45:46.000Z</time>
      </trkpt>
      <trkpt lat="45.582425" lon="7.879137">
        <ele>1891.46423</ele>
        <time>2024-08-08T09:45:50.000Z</time>
      </trkpt>
      <trkpt lat="45.582438" lon="7.879168">
        <ele>1891.71423</ele>
        <time>2024-08-08T09:45:54.000Z</time>
      </trkpt>
      <trkpt lat="45.582447" lon="7.879192">
        <ele>1892.00916</ele>
        <time>2024-08-08T09:45:59.000Z</time>
      </trkpt>
      <trkpt lat="45.58245" lon="7.879222">
        <ele>1892.25415</ele>
        <time>2024-08-08T09:46:02.000Z</time>
      </trkpt>
      <trkpt lat="45.58246" lon="7.879245">
        <ele>1892.51917</ele>
        <time>2024-08-08T09:46:05.000Z</time>
      </trkpt>
      <trkpt lat="45.582442" lon="7.879258">
        <ele>1892.82935</ele>
        <time>2024-08-08T09:46:09.000Z</time>
      </trkpt>
      <trkpt lat="45.582423" lon="7.879268">
        <ele>1893.16931</ele>
        <time>2024-08-08T09:46:13.000Z</time>
      </trkpt>
      <trkpt lat="45.582405" lon="7.879283">
        <ele>1893.57446</ele>
        <time>2024-08-08T09:46:16.000Z</time>
      </trkpt>
      <trkpt lat="45.582392" lon="7.879335">
        <ele>1893.97437</ele>
        <time>2024-08-08T09:46:28.000Z</time>
      </trkpt>
      <trkpt lat="45.582377" lon="7.879358">
        <ele>1894.35938</ele>
        <time>2024-08-08T09:46:31.000Z</time>
      </trkpt>
      <trkpt lat="45.582358" lon="7.879375">
        <ele>1894.76929</ele>
        <time>2024-08-08T09:46:34.000Z</time>
      </trkpt>
      <trkpt lat="45.582343" lon="7.87939">
        <ele>1895.2793</ele>
        <time>2024-08-08T09:46:40.000Z</time>
      </trkpt>
      <trkpt lat="45.582335" lon="7.879418">
        <ele>1895.78442</ele>
        <time>2024-08-08T09:46:44.000Z</time>
      </trkpt>
      <trkpt lat="45.58236" lon="7.879478">
        <ele>1896.33923</ele>
        <time>2024-08-08T09:46:54.000Z</time>
      </trkpt>
      <trkpt lat="45.582352" lon="7.879507">
        <ele>1896.91919</ele>
        <time>2024-08-08T09:46:58.000Z</time>
      </trkpt>
      <trkpt lat="45.582333" lon="7.87953">
        <ele>1897.46411</ele>
        <time>2024-08-08T09:47:01.000Z</time>
      </trkpt>
      <trkpt lat="45.582325" lon="7.879557">
        <ele>1897.9939</ele>
        <time>2024-08-08T09:47:03.000Z</time>
      </trkpt>
      <trkpt lat="45.582337" lon="7.879578">
        <ele>1898.46899</ele>
        <time>2024-08-08T09:47:06.000Z</time>
      </trkpt>
      <trkpt lat="45.58234" lon="7.87961">
        <ele>1899.03906</ele>
        <time>2024-08-08T09:47:12.000Z</time>
      </trkpt>
      <trkpt lat="45.582338" lon="7.879648">
        <ele>1899.64417</ele>
        <time>2024-08-08T09:47:15.000Z</time>
      </trkpt>
      <trkpt lat="45.58236" lon="7.879658">
        <ele>1900.28418</ele>
        <time>2024-08-08T09:47:17.000Z</time>
      </trkpt>
      <trkpt lat="45.582372" lon="7.879678">
        <ele>1900.89417</ele>
        <time>2024-08-08T09:47:20.000Z</time>
      </trkpt>
      <trkpt lat="45.582363" lon="7.87971">
        <ele>1901.45435</ele>
        <time>2024-08-08T09:47:28.000Z</time>
      </trkpt>
      <trkpt lat="45.582373" lon="7.879733">
        <ele>1902.05432</ele>
        <time>2024-08-08T09:47:32.000Z</time>
      </trkpt>
      <trkpt lat="45.58238" lon="7.879765">
        <ele>1902.58923</ele>
        <time>2024-08-08T09:47:35.000Z</time>
      </trkpt>
      <trkpt lat="45.582367" lon="7.879793">
        <ele>1903.04419</ele>
        <time>2024-08-08T09:47:38.000Z</time>
      </trkpt>
      <trkpt lat="45.582352" lon="7.879808">
        <ele>1903.45923</ele>
        <time>2024-08-08T09:47:43.000Z</time>
      </trkpt>
      <trkpt lat="45.582353" lon="7.879838">
        <ele>1903.82397</ele>
        <time>2024-08-08T09:47:45.000Z</time>
      </trkpt>
      <trkpt lat="45.582368" lon="7.879855">
        <ele>1904.21912</ele>
        <time>2024-08-08T09:47:48.000Z</time>
      </trkpt>
      <trkpt lat="45.58239" lon="7.879847">
        <ele>1904.64417</ele>
        <time>2024-08-08T09:47:50.000Z</time>
      </trkpt>
      <trkpt lat="45.582407" lon="7.879835">
        <ele>1905.11914</ele>
        <time>2024-08-08T09:47:56.000Z</time>
      </trkpt>
      <trkpt lat="45.582393" lon="7.879858">
        <ele>1905.48926</ele>
        <time>2024-08-08T09:48:00.000Z</time>
      </trkpt>
      <trkpt lat="45.582372" lon="7.879873">
        <ele>1905.82422</ele>
        <time>2024-08-08T09:48:03.000Z</time>
      </trkpt>
      <trkpt lat="45.582352" lon="7.879893">
        <ele>1906.13928</ele>
        <time>2024-08-08T09:48:09.000Z</time>
      </trkpt>
      <trkpt lat="45.58236" lon="7.879917">
        <ele>1906.49438</ele>
        <time>2024-08-08T09:48:16.000Z</time>
      </trkpt>
      <trkpt lat="45.582372" lon="7.880052">
        <ele>1906.96448</ele>
        <time>2024-08-08T09:48:43.000Z</time>
      </trkpt>
      <trkpt lat="45.582393" lon="7.880087">
        <ele>1907.73462</ele>
        <time>2024-08-08T09:48:58.000Z</time>
      </trkpt>
      <trkpt lat="45.582407" lon="7.880105">
        <ele>1908.57971</ele>
        <time>2024-08-08T09:49:04.000Z</time>
      </trkpt>
      <trkpt lat="45.582412" lon="7.880132">
        <ele>1909.36951</ele>
        <time>2024-08-08T09:49:09.000Z</time>
      </trkpt>
      <trkpt lat="45.58241" lon="7.880163">
        <ele>1910.12952</ele>
        <time>2024-08-08T09:49:12.000Z</time>
      </trkpt>
      <trkpt lat="45.582397" lon="7.880183">
        <ele>1910.8645</ele>
        <time>2024-08-08T09:49:16.000Z</time>
      </trkpt>
      <trkpt lat="45.582407" lon="7.880255">
        <ele>1911.77954</ele>
        <time>2024-08-08T09:49:39.000Z</time>
      </trkpt>
      <trkpt lat="45.582425" lon="7.880273">
        <ele>1912.69946</ele>
        <time>2024-08-08T09:49:44.000Z</time>
      </trkpt>
      <trkpt lat="45.582438" lon="7.880295">
        <ele>1913.64453</ele>
        <time>2024-08-08T09:49:50.000Z</time>
      </trkpt>
      <trkpt lat="45.58242" lon="7.880292">
        <ele>1914.66443</ele>
        <time>2024-08-08T09:49:54.000Z</time>
      </trkpt>
      <trkpt lat="45.582395" lon="7.88029">
        <ele>1915.73462</ele>
        <time>2024-08-08T09:49:58.000Z</time>
      </trkpt>
      <trkpt lat="45.582378" lon="7.880305">
        <ele>1916.86951</ele>
        <time>2024-08-08T09:50:01.000Z</time>
      </trkpt>
      <trkpt lat="45.582373" lon="7.88034">
        <ele>1918.05469</ele>
        <time>2024-08-08T09:50:06.000Z</time>
      </trkpt>
      <trkpt lat="45.582377" lon="7.88037">
        <ele>1919.33459</ele>
        <time>2024-08-08T09:50:11.000Z</time>
      </trkpt>
      <trkpt lat="45.582397" lon="7.880398">
        <ele>1920.73462</ele>
        <time>2024-08-08T09:50:24.000Z</time>
      </trkpt>
      <trkpt lat="45.582413" lon="7.88041">
        <ele>1922.09448</ele>
        <time>2024-08-08T09:50:28.000Z</time>
      </trkpt>
      <trkpt lat="45.582425" lon="7.88043">
        <ele>1923.4895</ele>
        <time>2024-08-08T09:50:34.000Z</time>
      </trkpt>
      <trkpt lat="45.582423" lon="7.880458">
        <ele>1924.86951</ele>
        <time>2024-08-08T09:50:36.000Z</time>
      </trkpt>
      <trkpt lat="45.58242" lon="7.880487">
        <ele>1926.22949</ele>
        <time>2024-08-08T09:50:39.000Z</time>
      </trkpt>
      <trkpt lat="45.582422" lon="7.880525">
        <ele>1927.53442</ele>
        <time>2024-08-08T09:50:42.000Z</time>
      </trkpt>
      <trkpt lat="45.582413" lon="7.880555">
        <ele>1928.7594</ele>
        <time>2024-08-08T09:50:45.000Z</time>
      </trkpt>
      <trkpt lat="45.5824" lon="7.880588">
        <ele>1929.68921</ele>
        <time>2024-08-08T09:50:48.000Z</time>
      </trkpt>
      <trkpt lat="45.5824" lon="7.88062">
        <ele>1930.54919</ele>
        <time>2024-08-08T09:50:50.000Z</time>
      </trkpt>
      <trkpt lat="45.582405" lon="7.880645">
        <ele>1931.36938</ele>
        <time>2024-08-08T09:50:52.000Z</time>
      </trkpt>
      <trkpt lat="45.58242" lon="7.880663">
        <ele>1932.1543</ele>
        <time>2024-08-08T09:50:54.000Z</time>
      </trkpt>
      <trkpt lat="45.582415" lon="7.880693">
        <ele>1932.95935</ele>
        <time>2024-08-08T09:50:57.000Z</time>
      </trkpt>
      <trkpt lat="45.582397" lon="7.880698">
        <ele>1933.60449</ele>
        <time>2024-08-08T09:51:00.000Z</time>
      </trkpt>
      <trkpt lat="45.582383" lon="7.88072">
        <ele>1934.2395</ele>
        <time>2024-08-08T09:51:03.000Z</time>
      </trkpt>
      <trkpt lat="45.582387" lon="7.880748">
        <ele>1934.84436</ele>
        <time>2024-08-08T09:51:06.000Z</time>
      </trkpt>
      <trkpt lat="45.582438" lon="7.880777">
        <ele>1935.5144</ele>
        <time>2024-08-08T09:51:16.000Z</time>
      </trkpt>
      <trkpt lat="45.582457" lon="7.88077">
        <ele>1936.18433</ele>
        <time>2024-08-08T09:51:18.000Z</time>
      </trkpt>
      <trkpt lat="45.582482" lon="7.88076">
        <ele>1936.86426</ele>
        <time>2024-08-08T09:51:22.000Z</time>
      </trkpt>
      <trkpt lat="45.582505" lon="7.880765">
        <ele>1937.53931</ele>
        <time>2024-08-08T09:51:26.000Z</time>
      </trkpt>
      <trkpt lat="45.582527" lon="7.880783">
        <ele>1938.17932</ele>
        <time>2024-08-08T09:51:30.000Z</time>
      </trkpt>
      <trkpt lat="45.582543" lon="7.880797">
        <ele>1938.71936</ele>
        <time>2024-08-08T09:51:33.000Z</time>
      </trkpt>
      <trkpt lat="45.582563" lon="7.88081">
        <ele>1939.28442</ele>
        <time>2024-08-08T09:51:37.000Z</time>
      </trkpt>
      <trkpt lat="45.582582" lon="7.880808">
        <ele>1939.84937</ele>
        <time>2024-08-08T09:51:40.000Z</time>
      </trkpt>
      <trkpt lat="45.582608" lon="7.880812">
        <ele>1940.48438</ele>
        <time>2024-08-08T09:51:44.000Z</time>
      </trkpt>
      <trkpt lat="45.582632" lon="7.880815">
        <ele>1941.14941</ele>
        <time>2024-08-08T09:51:49.000Z</time>
      </trkpt>
      <trkpt lat="45.582648" lon="7.880832">
        <ele>1941.81958</ele>
        <time>2024-08-08T09:51:52.000Z</time>
      </trkpt>
      <trkpt lat="45.58267" lon="7.880845">
        <ele>1942.4895</ele>
        <time>2024-08-08T09:51:55.000Z</time>
      </trkpt>
      <trkpt lat="45.582697" lon="7.880845">
        <ele>1943.21948</ele>
        <time>2024-08-08T09:51:58.000Z</time>
      </trkpt>
      <trkpt lat="45.582717" lon="7.880833">
        <ele>1943.99451</ele>
        <time>2024-08-08T09:52:01.000Z</time>
      </trkpt>
      <trkpt lat="45.582733" lon="7.880818">
        <ele>1944.79944</ele>
        <time>2024-08-08T09:52:03.000Z</time>
      </trkpt>
      <trkpt lat="45.582753" lon="7.880827">
        <ele>1945.62952</ele>
        <time>2024-08-08T09:52:06.000Z</time>
      </trkpt>
      <trkpt lat="45.58277" lon="7.88084">
        <ele>1946.46448</ele>
        <time>2024-08-08T09:52:09.000Z</time>
      </trkpt>
      <trkpt lat="45.582787" lon="7.880852">
        <ele>1947.25427</ele>
        <time>2024-08-08T09:52:12.000Z</time>
      </trkpt>
      <trkpt lat="45.582805" lon="7.880865">
        <ele>1948.01929</ele>
        <time>2024-08-08T09:52:15.000Z</time>
      </trkpt>
      <trkpt lat="45.582825" lon="7.880877">
        <ele>1948.74939</ele>
        <time>2024-08-08T09:52:18.000Z</time>
      </trkpt>
      <trkpt lat="45.582843" lon="7.880887">
        <ele>1949.44946</ele>
        <time>2024-08-08T09:52:24.000Z</time>
      </trkpt>
      <trkpt lat="45.582825" lon="7.880902">
        <ele>1950.10449</ele>
        <time>2024-08-08T09:52:29.000Z</time>
      </trkpt>
      <trkpt lat="45.582817" lon="7.880938">
        <ele>1950.55444</ele>
        <time>2024-08-08T09:52:36.000Z</time>
      </trkpt>
      <trkpt lat="45.582803" lon="7.880985">
        <ele>1950.72437</ele>
        <time>2024-08-08T09:53:23.000Z</time>
      </trkpt>
      <trkpt lat="45.582825" lon="7.881007">
        <ele>1950.90454</ele>
        <time>2024-08-08T09:53:26.000Z</time>
      </trkpt>
      <trkpt lat="45.582838" lon="7.881027">
        <ele>1951.09937</ele>
        <time>2024-08-08T09:53:28.000Z</time>
      </trkpt>
      <trkpt lat="45.582845" lon="7.881073">
        <ele>1951.2594</ele>
        <time>2024-08-08T09:53:31.000Z</time>
      </trkpt>
      <trkpt lat="45.582862" lon="7.8811">
        <ele>1951.34436</ele>
        <time>2024-08-08T09:53:33.000Z</time>
      </trkpt>
      <trkpt lat="45.582875" lon="7.881118">
        <ele>1951.32446</ele>
        <time>2024-08-08T09:53:36.000Z</time>
      </trkpt>
      <trkpt lat="45.58289" lon="7.881133">
        <ele>1951.27441</ele>
        <time>2024-08-08T09:53:38.000Z</time>
      </trkpt>
      <trkpt lat="45.582898" lon="7.881157">
        <ele>1951.22437</ele>
        <time>2024-08-08T09:53:40.000Z</time>
      </trkpt>
      <trkpt lat="45.582912" lon="7.881183">
        <ele>1951.17444</ele>
        <time>2024-08-08T09:53:43.000Z</time>
      </trkpt>
      <trkpt lat="45.582923" lon="7.881208">
        <ele>1951.06445</ele>
        <time>2024-08-08T09:53:45.000Z</time>
      </trkpt>
      <trkpt lat="45.582937" lon="7.881232">
        <ele>1950.89941</ele>
        <time>2024-08-08T09:53:47.000Z</time>
      </trkpt>
      <trkpt lat="45.582952" lon="7.881253">
        <ele>1950.69458</ele>
        <time>2024-08-08T09:53:51.000Z</time>
      </trkpt>
      <trkpt lat="45.582968" lon="7.881282">
        <ele>1950.59448</ele>
        <time>2024-08-08T09:53:59.000Z</time>
      </trkpt>
      <trkpt lat="45.582987" lon="7.881297">
        <ele>1950.54456</ele>
        <time>2024-08-08T09:54:02.000Z</time>
      </trkpt>
      <trkpt lat="45.58301" lon="7.8813">
        <ele>1950.51953</ele>
        <time>2024-08-08T09:54:05.000Z</time>
      </trkpt>
      <trkpt lat="45.583033" lon="7.88131">
        <ele>1950.53943</ele>
        <time>2024-08-08T09:54:09.000Z</time>
      </trkpt>
      <trkpt lat="45.583057" lon="7.881327">
        <ele>1950.58948</ele>
        <time>2024-08-08T09:54:12.000Z</time>
      </trkpt>
      <trkpt lat="45.583078" lon="7.881338">
        <ele>1950.54944</ele>
        <time>2024-08-08T09:54:15.000Z</time>
      </trkpt>
      <trkpt lat="45.583095" lon="7.881352">
        <ele>1950.57446</ele>
        <time>2024-08-08T09:54:20.000Z</time>
      </trkpt>
      <trkpt lat="45.58311" lon="7.881368">
        <ele>1950.88452</ele>
        <time>2024-08-08T09:54:27.000Z</time>
      </trkpt>
      <trkpt lat="45.583125" lon="7.881395">
        <ele>1951.45447</ele>
        <time>2024-08-08T09:54:30.000Z</time>
      </trkpt>
      <trkpt lat="45.583133" lon="7.881422">
        <ele>1951.99939</ele>
        <time>2024-08-08T09:54:33.000Z</time>
      </trkpt>
      <trkpt lat="45.583155" lon="7.881442">
        <ele>1952.58948</ele>
        <time>2024-08-08T09:54:37.000Z</time>
      </trkpt>
      <trkpt lat="45.583168" lon="7.881463">
        <ele>1953.15454</ele>
        <time>2024-08-08T09:54:39.000Z</time>
      </trkpt>
      <trkpt lat="45.58318" lon="7.88149">
        <ele>1953.75952</ele>
        <time>2024-08-08T09:54:44.000Z</time>
      </trkpt>
      <trkpt lat="45.583193" lon="7.88152">
        <ele>1954.41443</ele>
        <time>2024-08-08T09:54:48.000Z</time>
      </trkpt>
      <trkpt lat="45.583207" lon="7.88154">
        <ele>1955.07446</ele>
        <time>2024-08-08T09:54:51.000Z</time>
      </trkpt>
      <trkpt lat="45.58322" lon="7.881565">
        <ele>1955.80432</ele>
        <time>2024-08-08T09:54:58.000Z</time>
      </trkpt>
      <trkpt lat="45.583238" lon="7.881575">
        <ele>1956.57422</ele>
        <time>2024-08-08T09:55:02.000Z</time>
      </trkpt>
      <trkpt lat="45.583255" lon="7.881587">
        <ele>1957.36401</ele>
        <time>2024-08-08T09:55:05.000Z</time>
      </trkpt>
      <trkpt lat="45.583277" lon="7.881603">
        <ele>1958.16919</ele>
        <time>2024-08-08T09:55:08.000Z</time>
      </trkpt>
      <trkpt lat="45.583297" lon="7.881622">
        <ele>1958.98901</ele>
        <time>2024-08-08T09:55:10.000Z</time>
      </trkpt>
      <trkpt lat="45.583318" lon="7.881643">
        <ele>1959.69409</ele>
        <time>2024-08-08T09:55:12.000Z</time>
      </trkpt>
      <trkpt lat="45.58334" lon="7.88165">
        <ele>1960.36914</ele>
        <time>2024-08-08T09:55:16.000Z</time>
      </trkpt>
      <trkpt lat="45.583362" lon="7.88166">
        <ele>1961.05432</ele>
        <time>2024-08-08T09:55:19.000Z</time>
      </trkpt>
      <trkpt lat="45.583382" lon="7.881675">
        <ele>1961.71936</ele>
        <time>2024-08-08T09:55:24.000Z</time>
      </trkpt>
      <trkpt lat="45.583402" lon="7.88167">
        <ele>1962.39941</ele>
        <time>2024-08-08T09:55:27.000Z</time>
      </trkpt>
      <trkpt lat="45.583423" lon="7.881677">
        <ele>1963.10425</ele>
        <time>2024-08-08T09:55:31.000Z</time>
      </trkpt>
      <trkpt lat="45.583442" lon="7.881675">
        <ele>1963.81421</ele>
        <time>2024-08-08T09:55:33.000Z</time>
      </trkpt>
      <trkpt lat="45.583467" lon="7.881692">
        <ele>1964.37915</ele>
        <time>2024-08-08T09:55:37.000Z</time>
      </trkpt>
      <trkpt lat="45.58349" lon="7.881703">
        <ele>1964.91431</ele>
        <time>2024-08-08T09:55:40.000Z</time>
      </trkpt>
      <trkpt lat="45.583508" lon="7.881725">
        <ele>1965.45435</ele>
        <time>2024-08-08T09:55:42.000Z</time>
      </trkpt>
      <trkpt lat="45.583533" lon="7.881748">
        <ele>1965.91431</ele>
        <time>2024-08-08T09:55:45.000Z</time>
      </trkpt>
      <trkpt lat="45.583558" lon="7.88175">
        <ele>1966.48926</ele>
        <time>2024-08-08T09:55:47.000Z</time>
      </trkpt>
      <trkpt lat="45.583575" lon="7.88176">
        <ele>1967.06909</ele>
        <time>2024-08-08T09:55:49.000Z</time>
      </trkpt>
      <trkpt lat="45.583598" lon="7.881767">
        <ele>1967.65405</ele>
        <time>2024-08-08T09:55:51.000Z</time>
      </trkpt>
      <trkpt lat="45.583615" lon="7.881778">
        <ele>1968.26428</ele>
        <time>2024-08-08T09:55:53.000Z</time>
      </trkpt>
      <trkpt lat="45.583632" lon="7.881797">
        <ele>1968.79431</ele>
        <time>2024-08-08T09:55:56.000Z</time>
      </trkpt>
      <trkpt lat="45.583655" lon="7.881807">
        <ele>1969.28943</ele>
        <time>2024-08-08T09:55:59.000Z</time>
      </trkpt>
      <trkpt lat="45.583675" lon="7.881815">
        <ele>1969.7644</ele>
        <time>2024-08-08T09:56:01.000Z</time>
      </trkpt>
      <trkpt lat="45.583693" lon="7.88184">
        <ele>1970.20935</ele>
        <time>2024-08-08T09:56:04.000Z</time>
      </trkpt>
      <trkpt lat="45.583713" lon="7.881855">
        <ele>1970.64941</ele>
        <time>2024-08-08T09:56:06.000Z</time>
      </trkpt>
      <trkpt lat="45.583725" lon="7.881878">
        <ele>1971.10425</ele>
        <time>2024-08-08T09:56:09.000Z</time>
      </trkpt>
      <trkpt lat="45.583748" lon="7.881892">
        <ele>1971.51929</ele>
        <time>2024-08-08T09:56:13.000Z</time>
      </trkpt>
      <trkpt lat="45.583762" lon="7.88191">
        <ele>1971.91931</ele>
        <time>2024-08-08T09:56:15.000Z</time>
      </trkpt>
      <trkpt lat="45.583787" lon="7.881923">
        <ele>1972.2793</ele>
        <time>2024-08-08T09:56:18.000Z</time>
      </trkpt>
      <trkpt lat="45.583808" lon="7.881947">
        <ele>1972.56909</ele>
        <time>2024-08-08T09:56:20.000Z</time>
      </trkpt>
      <trkpt lat="45.583825" lon="7.881962">
        <ele>1972.8092</ele>
        <time>2024-08-08T09:56:22.000Z</time>
      </trkpt>
      <trkpt lat="45.583838" lon="7.881987">
        <ele>1973.00916</ele>
        <time>2024-08-08T09:56:24.000Z</time>
      </trkpt>
      <trkpt lat="45.583863" lon="7.882002">
        <ele>1973.27417</ele>
        <time>2024-08-08T09:56:28.000Z</time>
      </trkpt>
      <trkpt lat="45.583875" lon="7.882022">
        <ele>1973.5791</ele>
        <time>2024-08-08T09:56:30.000Z</time>
      </trkpt>
      <trkpt lat="45.58389" lon="7.882042">
        <ele>1973.85901</ele>
        <time>2024-08-08T09:56:32.000Z</time>
      </trkpt>
      <trkpt lat="45.583895" lon="7.882067">
        <ele>1974.11401</ele>
        <time>2024-08-08T09:56:34.000Z</time>
      </trkpt>
      <trkpt lat="45.583905" lon="7.882105">
        <ele>1974.26404</ele>
        <time>2024-08-08T09:56:37.000Z</time>
      </trkpt>
      <trkpt lat="45.58391" lon="7.882143">
        <ele>1974.40405</ele>
        <time>2024-08-08T09:56:39.000Z</time>
      </trkpt>
      <trkpt lat="45.583913" lon="7.882178">
        <ele>1974.49414</ele>
        <time>2024-08-08T09:56:42.000Z</time>
      </trkpt>
      <trkpt lat="45.583928" lon="7.882217">
        <ele>1974.56409</ele>
        <time>2024-08-08T09:56:44.000Z</time>
      </trkpt>
      <trkpt lat="45.583942" lon="7.882247">
        <ele>1974.62402</ele>
        <time>2024-08-08T09:56:46.000Z</time>
      </trkpt>
      <trkpt lat="45.58395" lon="7.882277">
        <ele>1974.64392</ele>
        <time>2024-08-08T09:56:50.000Z</time>
      </trkpt>
      <trkpt lat="45.583968" lon="7.88229">
        <ele>1974.66895</ele>
        <time>2024-08-08T09:56:54.000Z</time>
      </trkpt>
      <trkpt lat="45.58399" lon="7.882308">
        <ele>1974.71387</ele>
        <time>2024-08-08T09:56:57.000Z</time>
      </trkpt>
      <trkpt lat="45.584007" lon="7.882325">
        <ele>1974.77893</ele>
        <time>2024-08-08T09:56:59.000Z</time>
      </trkpt>
      <trkpt lat="45.584022" lon="7.882355">
        <ele>1974.81384</ele>
        <time>2024-08-08T09:57:11.000Z</time>
      </trkpt>
      <trkpt lat="45.58402" lon="7.882325">
        <ele>1974.90881</ele>
        <time>2024-08-08T09:57:22.000Z</time>
      </trkpt>
      <trkpt lat="45.584025" lon="7.882353">
        <ele>1974.82361</ele>
        <time>2024-08-08T09:57:40.000Z</time>
      </trkpt>
      <trkpt lat="45.584085" lon="7.88241">
        <ele>1974.72876</ele>
        <time>2024-08-08T10:05:02.000Z</time>
      </trkpt>
      <trkpt lat="45.584087" lon="7.882437">
        <ele>1974.63892</ele>
        <time>2024-08-08T10:05:07.000Z</time>
      </trkpt>
      <trkpt lat="45.584068" lon="7.882433">
        <ele>1974.47388</ele>
        <time>2024-08-08T10:05:12.000Z</time>
      </trkpt>
      <trkpt lat="45.584008" lon="7.882405">
        <ele>1974.44373</ele>
        <time>2024-08-08T10:05:50.000Z</time>
      </trkpt>
      <trkpt lat="45.584023" lon="7.88239">
        <ele>1974.36877</ele>
        <time>2024-08-08T10:05:53.000Z</time>
      </trkpt>
      <trkpt lat="45.584022" lon="7.882343">
        <ele>1974.11877</ele>
        <time>2024-08-08T10:06:48.000Z</time>
      </trkpt>
      <trkpt lat="45.584035" lon="7.882363">
        <ele>1974.0437</ele>
        <time>2024-08-08T10:07:12.000Z</time>
      </trkpt>
      <trkpt lat="45.584018" lon="7.882347">
        <ele>1973.95374</ele>
        <time>2024-08-08T10:08:15.000Z</time>
      </trkpt>
      <trkpt lat="45.584028" lon="7.88237">
        <ele>1973.83862</ele>
        <time>2024-08-08T10:09:03.000Z</time>
      </trkpt>
      <trkpt lat="45.584043" lon="7.882393">
        <ele>1973.72876</ele>
        <time>2024-08-08T10:09:06.000Z</time>
      </trkpt>
      <trkpt lat="45.58408" lon="7.882403">
        <ele>1973.45874</ele>
        <time>2024-08-08T10:11:37.000Z</time>
      </trkpt>
      <trkpt lat="45.584083" lon="7.882375">
        <ele>1973.16382</ele>
        <time>2024-08-08T10:11:44.000Z</time>
      </trkpt>
      <trkpt lat="45.584045" lon="7.882367">
        <ele>1973.05396</ele>
        <time>2024-08-08T10:12:32.000Z</time>
      </trkpt>
      <trkpt lat="45.584075" lon="7.882472">
        <ele>1973.03882</ele>
        <time>2024-08-08T10:13:28.000Z</time>
      </trkpt>
      <trkpt lat="45.584052" lon="7.88241">
        <ele>1972.82397</ele>
        <time>2024-08-08T10:14:19.000Z</time>
      </trkpt>
      <trkpt lat="45.584035" lon="7.882428">
        <ele>1972.61914</ele>
        <time>2024-08-08T10:14:21.000Z</time>
      </trkpt>
      <trkpt lat="45.58402" lon="7.882458">
        <ele>1972.33423</ele>
        <time>2024-08-08T10:14:25.000Z</time>
      </trkpt>
      <trkpt lat="45.584027" lon="7.882483">
        <ele>1971.99927</ele>
        <time>2024-08-08T10:14:28.000Z</time>
      </trkpt>
      <trkpt lat="45.58405" lon="7.882503">
        <ele>1971.53931</ele>
        <time>2024-08-08T10:14:31.000Z</time>
      </trkpt>
      <trkpt lat="45.584043" lon="7.882533">
        <ele>1971.24438</ele>
        <time>2024-08-08T10:14:34.000Z</time>
      </trkpt>
      <trkpt lat="45.584043" lon="7.882565">
        <ele>1970.91931</ele>
        <time>2024-08-08T10:14:39.000Z</time>
      </trkpt>
      <trkpt lat="45.58406" lon="7.882582">
        <ele>1970.54431</ele>
        <time>2024-08-08T10:14:42.000Z</time>
      </trkpt>
      <trkpt lat="45.584057" lon="7.882612">
        <ele>1970.19946</ele>
        <time>2024-08-08T10:14:47.000Z</time>
      </trkpt>
      <trkpt lat="45.584067" lon="7.882648">
        <ele>1969.68945</ele>
        <time>2024-08-08T10:14:51.000Z</time>
      </trkpt>
      <trkpt lat="45.584072" lon="7.882675">
        <ele>1969.13452</ele>
        <time>2024-08-08T10:14:52.000Z</time>
      </trkpt>
      <trkpt lat="45.584083" lon="7.882718">
        <ele>1968.67969</ele>
        <time>2024-08-08T10:14:54.000Z</time>
      </trkpt>
      <trkpt lat="45.584103" lon="7.882748">
        <ele>1967.96973</ele>
        <time>2024-08-08T10:14:56.000Z</time>
      </trkpt>
      <trkpt lat="45.584117" lon="7.882778">
        <ele>1967.23474</ele>
        <time>2024-08-08T10:14:58.000Z</time>
      </trkpt>
      <trkpt lat="45.584127" lon="7.882817">
        <ele>1966.49487</ele>
        <time>2024-08-08T10:15:00.000Z</time>
      </trkpt>
      <trkpt lat="45.584138" lon="7.882837">
        <ele>1965.70996</ele>
        <time>2024-08-08T10:15:03.000Z</time>
      </trkpt>
      <trkpt lat="45.58413" lon="7.882862">
        <ele>1965.09497</ele>
        <time>2024-08-08T10:15:09.000Z</time>
      </trkpt>
      <trkpt lat="45.584115" lon="7.882878">
        <ele>1964.50488</ele>
        <time>2024-08-08T10:15:15.000Z</time>
      </trkpt>
      <trkpt lat="45.584098" lon="7.882865">
        <ele>1963.7998</ele>
        <time>2024-08-08T10:15:18.000Z</time>
      </trkpt>
      <trkpt lat="45.584102" lon="7.882908">
        <ele>1963.09497</ele>
        <time>2024-08-08T10:15:30.000Z</time>
      </trkpt>
      <trkpt lat="45.584113" lon="7.882932">
        <ele>1962.57983</ele>
        <time>2024-08-08T10:15:33.000Z</time>
      </trkpt>
      <trkpt lat="45.58411" lon="7.882963">
        <ele>1961.98474</ele>
        <time>2024-08-08T10:15:37.000Z</time>
      </trkpt>
      <trkpt lat="45.584113" lon="7.882997">
        <ele>1961.42969</ele>
        <time>2024-08-08T10:15:39.000Z</time>
      </trkpt>
      <trkpt lat="45.584118" lon="7.883028">
        <ele>1960.91467</ele>
        <time>2024-08-08T10:15:41.000Z</time>
      </trkpt>
      <trkpt lat="45.584123" lon="7.883053">
        <ele>1960.42456</ele>
        <time>2024-08-08T10:15:43.000Z</time>
      </trkpt>
      <trkpt lat="45.584127" lon="7.883097">
        <ele>1959.92456</ele>
        <time>2024-08-08T10:15:45.000Z</time>
      </trkpt>
      <trkpt lat="45.584118" lon="7.88313">
        <ele>1959.4397</ele>
        <time>2024-08-08T10:15:47.000Z</time>
      </trkpt>
      <trkpt lat="45.584122" lon="7.883165">
        <ele>1959.00452</ele>
        <time>2024-08-08T10:15:49.000Z</time>
      </trkpt>
      <trkpt lat="45.584113" lon="7.883188">
        <ele>1958.60449</ele>
        <time>2024-08-08T10:15:51.000Z</time>
      </trkpt>
      <trkpt lat="45.5841" lon="7.88321">
        <ele>1958.22949</ele>
        <time>2024-08-08T10:15:54.000Z</time>
      </trkpt>
      <trkpt lat="45.58408" lon="7.883208">
        <ele>1957.85449</ele>
        <time>2024-08-08T10:15:59.000Z</time>
      </trkpt>
      <trkpt lat="45.5841" lon="7.883217">
        <ele>1957.48438</ele>
        <time>2024-08-08T10:16:14.000Z</time>
      </trkpt>
      <trkpt lat="45.584088" lon="7.88325">
        <ele>1957.18945</ele>
        <time>2024-08-08T10:16:17.000Z</time>
      </trkpt>
      <trkpt lat="45.584068" lon="7.883267">
        <ele>1956.92444</ele>
        <time>2024-08-08T10:16:19.000Z</time>
      </trkpt>
      <trkpt lat="45.58406" lon="7.883292">
        <ele>1956.70435</ele>
        <time>2024-08-08T10:16:22.000Z</time>
      </trkpt>
      <trkpt lat="45.58406" lon="7.883323">
        <ele>1956.49414</ele>
        <time>2024-08-08T10:16:24.000Z</time>
      </trkpt>
      <trkpt lat="45.584057" lon="7.883353">
        <ele>1956.3291</ele>
        <time>2024-08-08T10:16:27.000Z</time>
      </trkpt>
      <trkpt lat="45.584045" lon="7.883373">
        <ele>1956.16406</ele>
        <time>2024-08-08T10:16:29.000Z</time>
      </trkpt>
      <trkpt lat="45.584037" lon="7.8834">
        <ele>1955.96411</ele>
        <time>2024-08-08T10:16:31.000Z</time>
      </trkpt>
      <trkpt lat="45.58402" lon="7.883412">
        <ele>1955.79395</ele>
        <time>2024-08-08T10:16:36.000Z</time>
      </trkpt>
      <trkpt lat="45.584023" lon="7.883442">
        <ele>1955.64392</ele>
        <time>2024-08-08T10:16:38.000Z</time>
      </trkpt>
      <trkpt lat="45.584013" lon="7.883472">
        <ele>1955.65894</ele>
        <time>2024-08-08T10:16:42.000Z</time>
      </trkpt>
      <trkpt lat="45.583997" lon="7.883493">
        <ele>1955.73401</ele>
        <time>2024-08-08T10:16:46.000Z</time>
      </trkpt>
      <trkpt lat="45.583997" lon="7.883532">
        <ele>1955.96912</ele>
        <time>2024-08-08T10:16:58.000Z</time>
      </trkpt>
      <trkpt lat="45.583978" lon="7.883542">
        <ele>1956.26428</ele>
        <time>2024-08-08T10:17:01.000Z</time>
      </trkpt>
      <trkpt lat="45.58397" lon="7.883565">
        <ele>1956.62427</ele>
        <time>2024-08-08T10:17:03.000Z</time>
      </trkpt>
      <trkpt lat="45.583952" lon="7.883585">
        <ele>1957.07422</ele>
        <time>2024-08-08T10:17:08.000Z</time>
      </trkpt>
      <trkpt lat="45.58393" lon="7.883605">
        <ele>1957.54919</ele>
        <time>2024-08-08T10:17:11.000Z</time>
      </trkpt>
      <trkpt lat="45.583928" lon="7.883632">
        <ele>1958.05432</ele>
        <time>2024-08-08T10:17:14.000Z</time>
      </trkpt>
      <trkpt lat="45.58391" lon="7.883642">
        <ele>1958.55933</ele>
        <time>2024-08-08T10:17:21.000Z</time>
      </trkpt>
      <trkpt lat="45.58386" lon="7.883597">
        <ele>1959.19922</ele>
        <time>2024-08-08T10:18:04.000Z</time>
      </trkpt>
      <trkpt lat="45.58384" lon="7.883595">
        <ele>1959.88928</ele>
        <time>2024-08-08T10:18:07.000Z</time>
      </trkpt>
      <trkpt lat="45.583838" lon="7.883623">
        <ele>1960.65918</ele>
        <time>2024-08-08T10:18:14.000Z</time>
      </trkpt>
      <trkpt lat="45.583848" lon="7.883647">
        <ele>1961.47913</ele>
        <time>2024-08-08T10:18:16.000Z</time>
      </trkpt>
      <trkpt lat="45.583858" lon="7.883672">
        <ele>1962.31409</ele>
        <time>2024-08-08T10:18:20.000Z</time>
      </trkpt>
      <trkpt lat="45.58387" lon="7.883702">
        <ele>1963.19409</ele>
        <time>2024-08-08T10:18:23.000Z</time>
      </trkpt>
      <trkpt lat="45.583863" lon="7.883735">
        <ele>1964.06909</ele>
        <time>2024-08-08T10:18:27.000Z</time>
      </trkpt>
      <trkpt lat="45.583855" lon="7.883767">
        <ele>1964.9541</ele>
        <time>2024-08-08T10:18:32.000Z</time>
      </trkpt>
      <trkpt lat="45.583857" lon="7.883795">
        <ele>1965.84924</ele>
        <time>2024-08-08T10:18:41.000Z</time>
      </trkpt>
      <trkpt lat="45.583845" lon="7.88382">
        <ele>1966.67419</ele>
        <time>2024-08-08T10:18:43.000Z</time>
      </trkpt>
      <trkpt lat="45.583835" lon="7.883848">
        <ele>1967.49927</ele>
        <time>2024-08-08T10:18:46.000Z</time>
      </trkpt>
      <trkpt lat="45.583847" lon="7.883873">
        <ele>1968.32935</ele>
        <time>2024-08-08T10:18:51.000Z</time>
      </trkpt>
      <trkpt lat="45.583863" lon="7.883893">
        <ele>1969.19434</ele>
        <time>2024-08-08T10:18:57.000Z</time>
      </trkpt>
      <trkpt lat="45.58387" lon="7.883927">
        <ele>1969.96936</ele>
        <time>2024-08-08T10:19:00.000Z</time>
      </trkpt>
      <trkpt lat="45.583885" lon="7.883945">
        <ele>1970.76428</ele>
        <time>2024-08-08T10:19:02.000Z</time>
      </trkpt>
      <trkpt lat="45.5839" lon="7.883975">
        <ele>1971.59924</ele>
        <time>2024-08-08T10:19:04.000Z</time>
      </trkpt>
      <trkpt lat="45.583912" lon="7.883995">
        <ele>1972.38416</ele>
        <time>2024-08-08T10:19:06.000Z</time>
      </trkpt>
      <trkpt lat="45.583922" lon="7.884018">
        <ele>1973.12927</ele>
        <time>2024-08-08T10:19:12.000Z</time>
      </trkpt>
      <trkpt lat="45.58392" lon="7.88405">
        <ele>1973.83423</ele>
        <time>2024-08-08T10:19:16.000Z</time>
      </trkpt>
      <trkpt lat="45.583928" lon="7.884078">
        <ele>1974.52405</ele>
        <time>2024-08-08T10:19:20.000Z</time>
      </trkpt>
      <trkpt lat="45.583912" lon="7.884065">
        <ele>1975.21912</ele>
        <time>2024-08-08T10:19:27.000Z</time>
      </trkpt>
      <trkpt lat="45.58388" lon="7.883985">
        <ele>1976.37427</ele>
        <time>2024-08-08T10:20:13.000Z</time>
      </trkpt>
      <trkpt lat="45.58389" lon="7.883928">
        <ele>1977.58423</ele>
        <time>2024-08-08T10:20:29.000Z</time>
      </trkpt>
      <trkpt lat="45.583897" lon="7.883972">
        <ele>1978.72424</ele>
        <time>2024-08-08T10:20:35.000Z</time>
      </trkpt>
      <trkpt lat="45.583905" lon="7.883998">
        <ele>1979.86938</ele>
        <time>2024-08-08T10:20:50.000Z</time>
      </trkpt>
      <trkpt lat="45.583887" lon="7.88399">
        <ele>1981.02441</ele>
        <time>2024-08-08T10:20:54.000Z</time>
      </trkpt>
      <trkpt lat="45.583865" lon="7.883992">
        <ele>1982.16443</ele>
        <time>2024-08-08T10:20:56.000Z</time>
      </trkpt>
      <trkpt lat="45.583845" lon="7.883993">
        <ele>1983.25452</ele>
        <time>2024-08-08T10:20:58.000Z</time>
      </trkpt>
      <trkpt lat="45.583823" lon="7.88401">
        <ele>1984.28943</ele>
        <time>2024-08-08T10:21:01.000Z</time>
      </trkpt>
      <trkpt lat="45.583805" lon="7.884017">
        <ele>1985.27954</ele>
        <time>2024-08-08T10:21:03.000Z</time>
      </trkpt>
      <trkpt lat="45.583795" lon="7.884047">
        <ele>1986.2395</ele>
        <time>2024-08-08T10:21:05.000Z</time>
      </trkpt>
      <trkpt lat="45.58376" lon="7.884048">
        <ele>1986.94434</ele>
        <time>2024-08-08T10:21:11.000Z</time>
      </trkpt>
      <trkpt lat="45.583738" lon="7.88404">
        <ele>1987.51929</ele>
        <time>2024-08-08T10:21:13.000Z</time>
      </trkpt>
      <trkpt lat="45.583723" lon="7.884017">
        <ele>1987.97424</ele>
        <time>2024-08-08T10:21:17.000Z</time>
      </trkpt>
      <trkpt lat="45.58372" lon="7.883982">
        <ele>1988.37427</ele>
        <time>2024-08-08T10:21:19.000Z</time>
      </trkpt>
      <trkpt lat="45.583728" lon="7.884005">
        <ele>1988.67932</ele>
        <time>2024-08-08T10:21:24.000Z</time>
      </trkpt>
      <trkpt lat="45.583725" lon="7.88405">
        <ele>1988.96423</ele>
        <time>2024-08-08T10:21:26.000Z</time>
      </trkpt>
      <trkpt lat="45.583712" lon="7.88408">
        <ele>1989.25427</ele>
        <time>2024-08-08T10:21:32.000Z</time>
      </trkpt>
      <trkpt lat="45.583703" lon="7.884112">
        <ele>1989.57446</ele>
        <time>2024-08-08T10:21:35.000Z</time>
      </trkpt>
      <trkpt lat="45.583697" lon="7.884142">
        <ele>1989.89941</ele>
        <time>2024-08-08T10:21:38.000Z</time>
      </trkpt>
      <trkpt lat="45.583702" lon="7.884178">
        <ele>1990.07935</ele>
        <time>2024-08-08T10:21:41.000Z</time>
      </trkpt>
      <trkpt lat="45.583705" lon="7.884207">
        <ele>1989.73926</ele>
        <time>2024-08-08T10:21:44.000Z</time>
      </trkpt>
      <trkpt lat="45.58369" lon="7.884228">
        <ele>1989.30432</ele>
        <time>2024-08-08T10:21:47.000Z</time>
      </trkpt>
      <trkpt lat="45.583673" lon="7.884238">
        <ele>1989.16431</ele>
        <time>2024-08-08T10:21:59.000Z</time>
      </trkpt>
      <trkpt lat="45.583652" lon="7.884245">
        <ele>1989.05432</ele>
        <time>2024-08-08T10:22:01.000Z</time>
      </trkpt>
      <trkpt lat="45.583633" lon="7.884262">
        <ele>1988.97424</ele>
        <time>2024-08-08T10:22:08.000Z</time>
      </trkpt>
      <trkpt lat="45.583637" lon="7.884293">
        <ele>1988.97424</ele>
        <time>2024-08-08T10:22:14.000Z</time>
      </trkpt>
      <trkpt lat="45.583652" lon="7.884332">
        <ele>1989.04419</ele>
        <time>2024-08-08T10:22:17.000Z</time>
      </trkpt>
      <trkpt lat="45.583677" lon="7.884335">
        <ele>1989.1842</ele>
        <time>2024-08-08T10:22:19.000Z</time>
      </trkpt>
      <trkpt lat="45.583687" lon="7.88436">
        <ele>1989.47424</ele>
        <time>2024-08-08T10:22:28.000Z</time>
      </trkpt>
      <trkpt lat="45.583692" lon="7.884385">
        <ele>1989.92419</ele>
        <time>2024-08-08T10:22:34.000Z</time>
      </trkpt>
      <trkpt lat="45.583683" lon="7.88441">
        <ele>1990.60425</ele>
        <time>2024-08-08T10:22:38.000Z</time>
      </trkpt>
      <trkpt lat="45.583662" lon="7.884413">
        <ele>1991.39429</ele>
        <time>2024-08-08T10:22:42.000Z</time>
      </trkpt>
      <trkpt lat="45.583665" lon="7.884442">
        <ele>1992.42932</ele>
        <time>2024-08-08T10:22:47.000Z</time>
      </trkpt>
      <trkpt lat="45.583678" lon="7.884467">
        <ele>1993.5293</ele>
        <time>2024-08-08T10:22:50.000Z</time>
      </trkpt>
      <trkpt lat="45.58369" lon="7.884493">
        <ele>1994.67932</ele>
        <time>2024-08-08T10:22:53.000Z</time>
      </trkpt>
      <trkpt lat="45.583708" lon="7.884513">
        <ele>1995.87927</ele>
        <time>2024-08-08T10:22:57.000Z</time>
      </trkpt>
      <trkpt lat="45.583728" lon="7.884528">
        <ele>1997.08923</ele>
        <time>2024-08-08T10:23:00.000Z</time>
      </trkpt>
      <trkpt lat="45.583742" lon="7.884548">
        <ele>1998.29419</ele>
        <time>2024-08-08T10:23:02.000Z</time>
      </trkpt>
      <trkpt lat="45.58376" lon="7.884568">
        <ele>1999.49927</ele>
        <time>2024-08-08T10:23:05.000Z</time>
      </trkpt>
      <trkpt lat="45.583758" lon="7.884597">
        <ele>2000.72925</ele>
        <time>2024-08-08T10:23:08.000Z</time>
      </trkpt>
      <trkpt lat="45.583735" lon="7.88462">
        <ele>2001.99927</ele>
        <time>2024-08-08T10:23:12.000Z</time>
      </trkpt>
      <trkpt lat="45.583737" lon="7.884647">
        <ele>2003.3092</ele>
        <time>2024-08-08T10:23:15.000Z</time>
      </trkpt>
      <trkpt lat="45.583753" lon="7.884658">
        <ele>2004.39429</ele>
        <time>2024-08-08T10:23:19.000Z</time>
      </trkpt>
      <trkpt lat="45.583762" lon="7.884685">
        <ele>2005.55432</ele>
        <time>2024-08-08T10:23:22.000Z</time>
      </trkpt>
      <trkpt lat="45.58378" lon="7.884698">
        <ele>2006.71423</ele>
        <time>2024-08-08T10:23:27.000Z</time>
      </trkpt>
      <trkpt lat="45.58378" lon="7.88473">
        <ele>2007.85913</ele>
        <time>2024-08-08T10:23:37.000Z</time>
      </trkpt>
      <trkpt lat="45.583802" lon="7.884743">
        <ele>2009.04919</ele>
        <time>2024-08-08T10:23:41.000Z</time>
      </trkpt>
      <trkpt lat="45.583807" lon="7.884775">
        <ele>2010.24927</ele>
        <time>2024-08-08T10:23:47.000Z</time>
      </trkpt>
      <trkpt lat="45.583798" lon="7.884802">
        <ele>2011.31421</ele>
        <time>2024-08-08T10:23:50.000Z</time>
      </trkpt>
      <trkpt lat="45.583787" lon="7.884822">
        <ele>2012.23413</ele>
        <time>2024-08-08T10:23:52.000Z</time>
      </trkpt>
      <trkpt lat="45.583788" lon="7.884853">
        <ele>2013.11914</ele>
        <time>2024-08-08T10:23:56.000Z</time>
      </trkpt>
      <trkpt lat="45.583785" lon="7.88488">
        <ele>2013.95898</ele>
        <time>2024-08-08T10:23:59.000Z</time>
      </trkpt>
      <trkpt lat="45.583778" lon="7.884908">
        <ele>2014.68909</ele>
        <time>2024-08-08T10:24:07.000Z</time>
      </trkpt>
      <trkpt lat="45.583788" lon="7.884933">
        <ele>2015.42908</ele>
        <time>2024-08-08T10:24:10.000Z</time>
      </trkpt>
      <trkpt lat="45.583808" lon="7.884957">
        <ele>2016.11401</ele>
        <time>2024-08-08T10:24:19.000Z</time>
      </trkpt>
      <trkpt lat="45.58383" lon="7.884968">
        <ele>2016.78418</ele>
        <time>2024-08-08T10:24:21.000Z</time>
      </trkpt>
      <trkpt lat="45.583838" lon="7.885002">
        <ele>2017.4541</ele>
        <time>2024-08-08T10:24:23.000Z</time>
      </trkpt>
      <trkpt lat="45.58385" lon="7.885027">
        <ele>2018.09412</ele>
        <time>2024-08-08T10:24:24.000Z</time>
      </trkpt>
      <trkpt lat="45.583847" lon="7.885065">
        <ele>2018.71411</ele>
        <time>2024-08-08T10:24:26.000Z</time>
      </trkpt>
      <trkpt lat="45.583843" lon="7.8851">
        <ele>2019.30896</ele>
        <time>2024-08-08T10:24:28.000Z</time>
      </trkpt>
      <trkpt lat="45.583842" lon="7.88513">
        <ele>2019.86401</ele>
        <time>2024-08-08T10:24:30.000Z</time>
      </trkpt>
      <trkpt lat="45.58383" lon="7.885152">
        <ele>2020.33911</ele>
        <time>2024-08-08T10:24:33.000Z</time>
      </trkpt>
      <trkpt lat="45.583828" lon="7.885185">
        <ele>2020.77405</ele>
        <time>2024-08-08T10:24:36.000Z</time>
      </trkpt>
      <trkpt lat="45.583828" lon="7.885212">
        <ele>2021.06409</ele>
        <time>2024-08-08T10:24:39.000Z</time>
      </trkpt>
      <trkpt lat="45.583825" lon="7.885245">
        <ele>2021.224</ele>
        <time>2024-08-08T10:24:42.000Z</time>
      </trkpt>
      <trkpt lat="45.583828" lon="7.885275">
        <ele>2021.30408</ele>
        <time>2024-08-08T10:24:45.000Z</time>
      </trkpt>
      <trkpt lat="45.583828" lon="7.885303">
        <ele>2021.31909</ele>
        <time>2024-08-08T10:24:49.000Z</time>
      </trkpt>
      <trkpt lat="45.583818" lon="7.885332">
        <ele>2021.31909</ele>
        <time>2024-08-08T10:24:54.000Z</time>
      </trkpt>
      <trkpt lat="45.583807" lon="7.885355">
        <ele>2021.33423</ele>
        <time>2024-08-08T10:24:56.000Z</time>
      </trkpt>
      <trkpt lat="45.583818" lon="7.88538">
        <ele>2021.39917</ele>
        <time>2024-08-08T10:24:59.000Z</time>
      </trkpt>
      <trkpt lat="45.583812" lon="7.885412">
        <ele>2021.59436</ele>
        <time>2024-08-08T10:25:12.000Z</time>
      </trkpt>
      <trkpt lat="45.583812" lon="7.885442">
        <ele>2022.08435</ele>
        <time>2024-08-08T10:25:35.000Z</time>
      </trkpt>
      <trkpt lat="45.583805" lon="7.885472">
        <ele>2022.53943</ele>
        <time>2024-08-08T10:25:39.000Z</time>
      </trkpt>
      <trkpt lat="45.583795" lon="7.885498">
        <ele>2022.97949</ele>
        <time>2024-08-08T10:25:44.000Z</time>
      </trkpt>
      <trkpt lat="45.5838" lon="7.885537">
        <ele>2023.45959</ele>
        <time>2024-08-08T10:25:47.000Z</time>
      </trkpt>
      <trkpt lat="45.583805" lon="7.885563">
        <ele>2023.94946</ele>
        <time>2024-08-08T10:25:50.000Z</time>
      </trkpt>
      <trkpt lat="45.583788" lon="7.885577">
        <ele>2024.49451</ele>
        <time>2024-08-08T10:25:54.000Z</time>
      </trkpt>
      <trkpt lat="45.58379" lon="7.88561">
        <ele>2025.01953</ele>
        <time>2024-08-08T10:25:59.000Z</time>
      </trkpt>
      <trkpt lat="45.583782" lon="7.88564">
        <ele>2025.5896</ele>
        <time>2024-08-08T10:26:02.000Z</time>
      </trkpt>
      <trkpt lat="45.583785" lon="7.88568">
        <ele>2026.19983</ele>
        <time>2024-08-08T10:26:07.000Z</time>
      </trkpt>
      <trkpt lat="45.583798" lon="7.885713">
        <ele>2026.83472</ele>
        <time>2024-08-08T10:26:13.000Z</time>
      </trkpt>
      <trkpt lat="45.583808" lon="7.885738">
        <ele>2027.43481</ele>
        <time>2024-08-08T10:26:15.000Z</time>
      </trkpt>
      <trkpt lat="45.5838" lon="7.885763">
        <ele>2028.09985</ele>
        <time>2024-08-08T10:26:24.000Z</time>
      </trkpt>
      <trkpt lat="45.583808" lon="7.885798">
        <ele>2028.8197</ele>
        <time>2024-08-08T10:26:30.000Z</time>
      </trkpt>
      <trkpt lat="45.583817" lon="7.885835">
        <ele>2029.53479</ele>
        <time>2024-08-08T10:26:33.000Z</time>
      </trkpt>
      <trkpt lat="45.5838" lon="7.885855">
        <ele>2030.22485</ele>
        <time>2024-08-08T10:26:37.000Z</time>
      </trkpt>
      <trkpt lat="45.583802" lon="7.885893">
        <ele>2030.90491</ele>
        <time>2024-08-08T10:26:41.000Z</time>
      </trkpt>
      <trkpt lat="45.583802" lon="7.885922">
        <ele>2031.61487</ele>
        <time>2024-08-08T10:26:46.000Z</time>
      </trkpt>
      <trkpt lat="45.583795" lon="7.885965">
        <ele>2032.37476</ele>
        <time>2024-08-08T10:26:54.000Z</time>
      </trkpt>
      <trkpt lat="45.583787" lon="7.88599">
        <ele>2033.10974</ele>
        <time>2024-08-08T10:26:59.000Z</time>
      </trkpt>
      <trkpt lat="45.583773" lon="7.88602">
        <ele>2033.67456</ele>
        <time>2024-08-08T10:27:03.000Z</time>
      </trkpt>
      <trkpt lat="45.58376" lon="7.886043">
        <ele>2033.93457</ele>
        <time>2024-08-08T10:27:07.000Z</time>
      </trkpt>
      <trkpt lat="45.583752" lon="7.886068">
        <ele>2034.19946</ele>
        <time>2024-08-08T10:27:09.000Z</time>
      </trkpt>
      <trkpt lat="45.583743" lon="7.886107">
        <ele>2034.43945</ele>
        <time>2024-08-08T10:27:12.000Z</time>
      </trkpt>
      <trkpt lat="45.583732" lon="7.886133">
        <ele>2034.64941</ele>
        <time>2024-08-08T10:27:15.000Z</time>
      </trkpt>
      <trkpt lat="45.583725" lon="7.886175">
        <ele>2034.80957</ele>
        <time>2024-08-08T10:27:19.000Z</time>
      </trkpt>
      <trkpt lat="45.58373" lon="7.886202">
        <ele>2034.99939</ele>
        <time>2024-08-08T10:27:23.000Z</time>
      </trkpt>
      <trkpt lat="45.583722" lon="7.886232">
        <ele>2035.28943</ele>
        <time>2024-08-08T10:27:26.000Z</time>
      </trkpt>
      <trkpt lat="45.583705" lon="7.886222">
        <ele>2035.6394</ele>
        <time>2024-08-08T10:27:29.000Z</time>
      </trkpt>
      <trkpt lat="45.583698" lon="7.886247">
        <ele>2036.06934</ele>
        <time>2024-08-08T10:27:35.000Z</time>
      </trkpt>
      <trkpt lat="45.583702" lon="7.886292">
        <ele>2036.57446</ele>
        <time>2024-08-08T10:27:43.000Z</time>
      </trkpt>
      <trkpt lat="45.583703" lon="7.886328">
        <ele>2037.12952</ele>
        <time>2024-08-08T10:27:45.000Z</time>
      </trkpt>
      <trkpt lat="45.583705" lon="7.886357">
        <ele>2037.67944</ele>
        <time>2024-08-08T10:27:47.000Z</time>
      </trkpt>
      <trkpt lat="45.583702" lon="7.88639">
        <ele>2038.39941</ele>
        <time>2024-08-08T10:27:58.000Z</time>
      </trkpt>
      <trkpt lat="45.58371" lon="7.886417">
        <ele>2039.20447</ele>
        <time>2024-08-08T10:28:00.000Z</time>
      </trkpt>
      <trkpt lat="45.583712" lon="7.886447">
        <ele>2040.06958</ele>
        <time>2024-08-08T10:28:03.000Z</time>
      </trkpt>
      <trkpt lat="45.583693" lon="7.88645">
        <ele>2040.94458</ele>
        <time>2024-08-08T10:28:05.000Z</time>
      </trkpt>
      <trkpt lat="45.583675" lon="7.886467">
        <ele>2041.74963</ele>
        <time>2024-08-08T10:28:09.000Z</time>
      </trkpt>
      <trkpt lat="45.58366" lon="7.886485">
        <ele>2042.46948</ele>
        <time>2024-08-08T10:28:11.000Z</time>
      </trkpt>
      <trkpt lat="45.58365" lon="7.886522">
        <ele>2043.17456</ele>
        <time>2024-08-08T10:28:16.000Z</time>
      </trkpt>
      <trkpt lat="45.583653" lon="7.886548">
        <ele>2043.89478</ele>
        <time>2024-08-08T10:28:18.000Z</time>
      </trkpt>
      <trkpt lat="45.583655" lon="7.886575">
        <ele>2044.63989</ele>
        <time>2024-08-08T10:28:21.000Z</time>
      </trkpt>
      <trkpt lat="45.583678" lon="7.886613">
        <ele>2045.38501</ele>
        <time>2024-08-08T10:28:25.000Z</time>
      </trkpt>
      <trkpt lat="45.583683" lon="7.886648">
        <ele>2046.14978</ele>
        <time>2024-08-08T10:28:29.000Z</time>
      </trkpt>
      <trkpt lat="45.583688" lon="7.886685">
        <ele>2046.99976</ele>
        <time>2024-08-08T10:28:33.000Z</time>
      </trkpt>
      <trkpt lat="45.583698" lon="7.88672">
        <ele>2047.86975</ele>
        <time>2024-08-08T10:28:36.000Z</time>
      </trkpt>
      <trkpt lat="45.583708" lon="7.886742">
        <ele>2048.68481</ele>
        <time>2024-08-08T10:28:39.000Z</time>
      </trkpt>
      <trkpt lat="45.583735" lon="7.886767">
        <ele>2049.55469</ele>
        <time>2024-08-08T10:28:47.000Z</time>
      </trkpt>
      <trkpt lat="45.583748" lon="7.886785">
        <ele>2050.4646</ele>
        <time>2024-08-08T10:28:52.000Z</time>
      </trkpt>
      <trkpt lat="45.583762" lon="7.886803">
        <ele>2051.39478</ele>
        <time>2024-08-08T10:29:00.000Z</time>
      </trkpt>
      <trkpt lat="45.583792" lon="7.886812">
        <ele>2052.25464</ele>
        <time>2024-08-08T10:29:03.000Z</time>
      </trkpt>
      <trkpt lat="45.583808" lon="7.8868">
        <ele>2053.0896</ele>
        <time>2024-08-08T10:29:07.000Z</time>
      </trkpt>
      <trkpt lat="45.583818" lon="7.886823">
        <ele>2053.85449</ele>
        <time>2024-08-08T10:29:10.000Z</time>
      </trkpt>
      <trkpt lat="45.583815" lon="7.886852">
        <ele>2054.38452</ele>
        <time>2024-08-08T10:29:12.000Z</time>
      </trkpt>
      <trkpt lat="45.58381" lon="7.886882">
        <ele>2054.87939</ele>
        <time>2024-08-08T10:29:17.000Z</time>
      </trkpt>
      <trkpt lat="45.583807" lon="7.886908">
        <ele>2055.34424</ele>
        <time>2024-08-08T10:29:19.000Z</time>
      </trkpt>
      <trkpt lat="45.583797" lon="7.886932">
        <ele>2055.78931</ele>
        <time>2024-08-08T10:29:21.000Z</time>
      </trkpt>
      <trkpt lat="45.583778" lon="7.886958">
        <ele>2056.28931</ele>
        <time>2024-08-08T10:29:27.000Z</time>
      </trkpt>
      <trkpt lat="45.583762" lon="7.886983">
        <ele>2056.81421</ele>
        <time>2024-08-08T10:29:30.000Z</time>
      </trkpt>
      <trkpt lat="45.583763" lon="7.887012">
        <ele>2057.31934</ele>
        <time>2024-08-08T10:29:33.000Z</time>
      </trkpt>
      <trkpt lat="45.583777" lon="7.887047">
        <ele>2057.8042</ele>
        <time>2024-08-08T10:29:36.000Z</time>
      </trkpt>
      <trkpt lat="45.583785" lon="7.887078">
        <ele>2058.27417</ele>
        <time>2024-08-08T10:29:38.000Z</time>
      </trkpt>
      <trkpt lat="45.583793" lon="7.887107">
        <ele>2058.71924</ele>
        <time>2024-08-08T10:29:40.000Z</time>
      </trkpt>
      <trkpt lat="45.583798" lon="7.887137">
        <ele>2059.10913</ele>
        <time>2024-08-08T10:29:42.000Z</time>
      </trkpt>
      <trkpt lat="45.583795" lon="7.88717">
        <ele>2059.42432</ele>
        <time>2024-08-08T10:29:44.000Z</time>
      </trkpt>
      <trkpt lat="45.583792" lon="7.8872">
        <ele>2059.72925</ele>
        <time>2024-08-08T10:29:48.000Z</time>
      </trkpt>
      <trkpt lat="45.583797" lon="7.887225">
        <ele>2060.02441</ele>
        <time>2024-08-08T10:29:52.000Z</time>
      </trkpt>
      <trkpt lat="45.583808" lon="7.887253">
        <ele>2060.24463</ele>
        <time>2024-08-08T10:29:55.000Z</time>
      </trkpt>
      <trkpt lat="45.583823" lon="7.887282">
        <ele>2060.44971</ele>
        <time>2024-08-08T10:30:00.000Z</time>
      </trkpt>
      <trkpt lat="45.583837" lon="7.887308">
        <ele>2060.58447</ele>
        <time>2024-08-08T10:30:07.000Z</time>
      </trkpt>
      <trkpt lat="45.583828" lon="7.887335">
        <ele>2060.82959</ele>
        <time>2024-08-08T10:30:22.000Z</time>
      </trkpt>
      <trkpt lat="45.583823" lon="7.88737">
        <ele>2061.07959</ele>
        <time>2024-08-08T10:30:25.000Z</time>
      </trkpt>
      <trkpt lat="45.583832" lon="7.887398">
        <ele>2061.49463</ele>
        <time>2024-08-08T10:30:31.000Z</time>
      </trkpt>
      <trkpt lat="45.583823" lon="7.887443">
        <ele>2061.77466</ele>
        <time>2024-08-08T10:30:41.000Z</time>
      </trkpt>
      <trkpt lat="45.583808" lon="7.887423">
        <ele>2061.99951</ele>
        <time>2024-08-08T10:30:48.000Z</time>
      </trkpt>
      <trkpt lat="45.583787" lon="7.887375">
        <ele>2062.53467</ele>
        <time>2024-08-08T10:31:06.000Z</time>
      </trkpt>
      <trkpt lat="45.583825" lon="7.8874">
        <ele>2063.08984</ele>
        <time>2024-08-08T10:31:26.000Z</time>
      </trkpt>
      <trkpt lat="45.583827" lon="7.887433">
        <ele>2063.56494</ele>
        <time>2024-08-08T10:31:29.000Z</time>
      </trkpt>
      <trkpt lat="45.58382" lon="7.887458">
        <ele>2064.03491</ele>
        <time>2024-08-08T10:31:32.000Z</time>
      </trkpt>
      <trkpt lat="45.583832" lon="7.88748">
        <ele>2064.52002</ele>
        <time>2024-08-08T10:31:35.000Z</time>
      </trkpt>
      <trkpt lat="45.58384" lon="7.887505">
        <ele>2064.99487</ele>
        <time>2024-08-08T10:31:38.000Z</time>
      </trkpt>
      <trkpt lat="45.583858" lon="7.887503">
        <ele>2065.5249</ele>
        <time>2024-08-08T10:31:43.000Z</time>
      </trkpt>
      <trkpt lat="45.58387" lon="7.88753">
        <ele>2066.27002</ele>
        <time>2024-08-08T10:32:01.000Z</time>
      </trkpt>
      <trkpt lat="45.583878" lon="7.887557">
        <ele>2067.03003</ele>
        <time>2024-08-08T10:32:03.000Z</time>
      </trkpt>
      <trkpt lat="45.58389" lon="7.887583">
        <ele>2067.76001</ele>
        <time>2024-08-08T10:32:05.000Z</time>
      </trkpt>
      <trkpt lat="45.583892" lon="7.887615">
        <ele>2068.46997</ele>
        <time>2024-08-08T10:32:07.000Z</time>
      </trkpt>
      <trkpt lat="45.583897" lon="7.887643">
        <ele>2069.12476</ele>
        <time>2024-08-08T10:32:12.000Z</time>
      </trkpt>
      <trkpt lat="45.583893" lon="7.887672">
        <ele>2069.79468</ele>
        <time>2024-08-08T10:32:16.000Z</time>
      </trkpt>
      <trkpt lat="45.583888" lon="7.887703">
        <ele>2070.40479</ele>
        <time>2024-08-08T10:32:19.000Z</time>
      </trkpt>
      <trkpt lat="45.583873" lon="7.88772">
        <ele>2070.9646</ele>
        <time>2024-08-08T10:32:23.000Z</time>
      </trkpt>
      <trkpt lat="45.583873" lon="7.887762">
        <ele>2071.41968</ele>
        <time>2024-08-08T10:32:27.000Z</time>
      </trkpt>
      <trkpt lat="45.583882" lon="7.887792">
        <ele>2071.87964</ele>
        <time>2024-08-08T10:32:30.000Z</time>
      </trkpt>
      <trkpt lat="45.583885" lon="7.887818">
        <ele>2072.20459</ele>
        <time>2024-08-08T10:32:34.000Z</time>
      </trkpt>
      <trkpt lat="45.583885" lon="7.887845">
        <ele>2072.6897</ele>
        <time>2024-08-08T10:32:39.000Z</time>
      </trkpt>
      <trkpt lat="45.583893" lon="7.88788">
        <ele>2073.25464</ele>
        <time>2024-08-08T10:32:44.000Z</time>
      </trkpt>
      <trkpt lat="45.583902" lon="7.887912">
        <ele>2073.5647</ele>
        <time>2024-08-08T10:32:47.000Z</time>
      </trkpt>
      <trkpt lat="45.583902" lon="7.887945">
        <ele>2073.90967</ele>
        <time>2024-08-08T10:32:51.000Z</time>
      </trkpt>
      <trkpt lat="45.583892" lon="7.887973">
        <ele>2074.35962</ele>
        <time>2024-08-08T10:32:56.000Z</time>
      </trkpt>
      <trkpt lat="45.583872" lon="7.887997">
        <ele>2074.85962</ele>
        <time>2024-08-08T10:33:03.000Z</time>
      </trkpt>
      <trkpt lat="45.583875" lon="7.888025">
        <ele>2075.35962</ele>
        <time>2024-08-08T10:33:08.000Z</time>
      </trkpt>
      <trkpt lat="45.583855" lon="7.88804">
        <ele>2075.90967</ele>
        <time>2024-08-08T10:33:12.000Z</time>
      </trkpt>
      <trkpt lat="45.583857" lon="7.888067">
        <ele>2076.39453</ele>
        <time>2024-08-08T10:33:15.000Z</time>
      </trkpt>
      <trkpt lat="45.583875" lon="7.888085">
        <ele>2076.78442</ele>
        <time>2024-08-08T10:33:27.000Z</time>
      </trkpt>
      <trkpt lat="45.583883" lon="7.888137">
        <ele>2077.21948</ele>
        <time>2024-08-08T10:33:35.000Z</time>
      </trkpt>
      <trkpt lat="45.583875" lon="7.888162">
        <ele>2077.66943</ele>
        <time>2024-08-08T10:33:39.000Z</time>
      </trkpt>
      <trkpt lat="45.58385" lon="7.88819">
        <ele>2078.1394</ele>
        <time>2024-08-08T10:33:46.000Z</time>
      </trkpt>
      <trkpt lat="45.583837" lon="7.888208">
        <ele>2078.64453</ele>
        <time>2024-08-08T10:33:50.000Z</time>
      </trkpt>
      <trkpt lat="45.583843" lon="7.88824">
        <ele>2079.01953</ele>
        <time>2024-08-08T10:34:11.000Z</time>
      </trkpt>
      <trkpt lat="45.583875" lon="7.888233">
        <ele>2079.14453</ele>
        <time>2024-08-08T10:36:05.000Z</time>
      </trkpt>
      <trkpt lat="45.583795" lon="7.888178">
        <ele>2080.27954</ele>
        <time>2024-08-08T10:37:47.000Z</time>
      </trkpt>
      <trkpt lat="45.583795" lon="7.88821">
        <ele>2081.34937</ele>
        <time>2024-08-08T10:38:07.000Z</time>
      </trkpt>
      <trkpt lat="45.583783" lon="7.888238">
        <ele>2082.53467</ele>
        <time>2024-08-08T10:38:11.000Z</time>
      </trkpt>
      <trkpt lat="45.583762" lon="7.888245">
        <ele>2083.76953</ele>
        <time>2024-08-08T10:38:15.000Z</time>
      </trkpt>
      <trkpt lat="45.583747" lon="7.88827">
        <ele>2084.98462</ele>
        <time>2024-08-08T10:38:22.000Z</time>
      </trkpt>
      <trkpt lat="45.58373" lon="7.888295">
        <ele>2086.1897</ele>
        <time>2024-08-08T10:38:25.000Z</time>
      </trkpt>
      <trkpt lat="45.583718" lon="7.888315">
        <ele>2087.3147</ele>
        <time>2024-08-08T10:38:27.000Z</time>
      </trkpt>
      <trkpt lat="45.583708" lon="7.888337">
        <ele>2088.36475</ele>
        <time>2024-08-08T10:38:30.000Z</time>
      </trkpt>
      <trkpt lat="45.5837" lon="7.888372">
        <ele>2089.34448</ele>
        <time>2024-08-08T10:38:34.000Z</time>
      </trkpt>
      <trkpt lat="45.583697" lon="7.888398">
        <ele>2090.29443</ele>
        <time>2024-08-08T10:38:37.000Z</time>
      </trkpt>
      <trkpt lat="45.58368" lon="7.888423">
        <ele>2091.32959</ele>
        <time>2024-08-08T10:38:43.000Z</time>
      </trkpt>
      <trkpt lat="45.58369" lon="7.888447">
        <ele>2092.3645</ele>
        <time>2024-08-08T10:38:48.000Z</time>
      </trkpt>
      <trkpt lat="45.583682" lon="7.88848">
        <ele>2093.38428</ele>
        <time>2024-08-08T10:38:53.000Z</time>
      </trkpt>
      <trkpt lat="45.583668" lon="7.888503">
        <ele>2094.27954</ele>
        <time>2024-08-08T10:38:56.000Z</time>
      </trkpt>
      <trkpt lat="45.583687" lon="7.888513">
        <ele>2095.23438</ele>
        <time>2024-08-08T10:39:05.000Z</time>
      </trkpt>
      <trkpt lat="45.583703" lon="7.8885">
        <ele>2096.54443</ele>
        <time>2024-08-08T10:39:22.000Z</time>
      </trkpt>
      <trkpt lat="45.583747" lon="7.888538">
        <ele>2097.83447</ele>
        <time>2024-08-08T10:39:29.000Z</time>
      </trkpt>
      <trkpt lat="45.583757" lon="7.888567">
        <ele>2099.07471</ele>
        <time>2024-08-08T10:39:32.000Z</time>
      </trkpt>
      <trkpt lat="45.583752" lon="7.888592">
        <ele>2100.3396</ele>
        <time>2024-08-08T10:39:39.000Z</time>
      </trkpt>
      <trkpt lat="45.583765" lon="7.88861">
        <ele>2101.79443</ele>
        <time>2024-08-08T10:39:43.000Z</time>
      </trkpt>
      <trkpt lat="45.583797" lon="7.88865">
        <ele>2102.29956</ele>
        <time>2024-08-08T10:39:51.000Z</time>
      </trkpt>
      <trkpt lat="45.583788" lon="7.888683">
        <ele>2102.82959</ele>
        <time>2024-08-08T10:39:56.000Z</time>
      </trkpt>
      <trkpt lat="45.583792" lon="7.888715">
        <ele>2103.24951</ele>
        <time>2024-08-08T10:39:58.000Z</time>
      </trkpt>
      <trkpt lat="45.583812" lon="7.888737">
        <ele>2103.63477</ele>
        <time>2024-08-08T10:40:01.000Z</time>
      </trkpt>
      <trkpt lat="45.583835" lon="7.888732">
        <ele>2104.09473</ele>
        <time>2024-08-08T10:40:06.000Z</time>
      </trkpt>
      <trkpt lat="45.583855" lon="7.888733">
        <ele>2104.62451</ele>
        <time>2024-08-08T10:40:10.000Z</time>
      </trkpt>
      <trkpt lat="45.58387" lon="7.888718">
        <ele>2105.22949</ele>
        <time>2024-08-08T10:40:14.000Z</time>
      </trkpt>
      <trkpt lat="45.583888" lon="7.8887">
        <ele>2105.93945</ele>
        <time>2024-08-08T10:40:18.000Z</time>
      </trkpt>
      <trkpt lat="45.583883" lon="7.888672">
        <ele>2106.66943</ele>
        <time>2024-08-08T10:40:23.000Z</time>
      </trkpt>
      <trkpt lat="45.583903" lon="7.888687">
        <ele>2107.39941</ele>
        <time>2024-08-08T10:40:29.000Z</time>
      </trkpt>
      <trkpt lat="45.5839" lon="7.888713">
        <ele>2108.0144</ele>
        <time>2024-08-08T10:40:37.000Z</time>
      </trkpt>
      <trkpt lat="45.583902" lon="7.888753">
        <ele>2108.59937</ele>
        <time>2024-08-08T10:40:40.000Z</time>
      </trkpt>
      <trkpt lat="45.583898" lon="7.888787">
        <ele>2109.1394</ele>
        <time>2024-08-08T10:40:44.000Z</time>
      </trkpt>
      <trkpt lat="45.58388" lon="7.888797">
        <ele>2109.66943</ele>
        <time>2024-08-08T10:40:50.000Z</time>
      </trkpt>
      <trkpt lat="45.58387" lon="7.888825">
        <ele>2110.12451</ele>
        <time>2024-08-08T10:40:54.000Z</time>
      </trkpt>
      <trkpt lat="45.583873" lon="7.888857">
        <ele>2110.24951</ele>
        <time>2024-08-08T10:40:56.000Z</time>
      </trkpt>
      <trkpt lat="45.58388" lon="7.888885">
        <ele>2110.38428</ele>
        <time>2024-08-08T10:40:58.000Z</time>
      </trkpt>
      <trkpt lat="45.58388" lon="7.888915">
        <ele>2110.55933</ele>
        <time>2024-08-08T10:41:00.000Z</time>
      </trkpt>
      <trkpt lat="45.583868" lon="7.888938">
        <ele>2110.89429</ele>
        <time>2024-08-08T10:41:09.000Z</time>
      </trkpt>
      <trkpt lat="45.583865" lon="7.88897">
        <ele>2111.22949</ele>
        <time>2024-08-08T10:41:13.000Z</time>
      </trkpt>
      <trkpt lat="45.583868" lon="7.888997">
        <ele>2111.56445</ele>
        <time>2024-08-08T10:41:18.000Z</time>
      </trkpt>
      <trkpt lat="45.583852" lon="7.889007">
        <ele>2111.97949</ele>
        <time>2024-08-08T10:41:22.000Z</time>
      </trkpt>
      <trkpt lat="45.583842" lon="7.889032">
        <ele>2112.42944</ele>
        <time>2024-08-08T10:41:26.000Z</time>
      </trkpt>
      <trkpt lat="45.58384" lon="7.889062">
        <ele>2112.89429</ele>
        <time>2024-08-08T10:41:30.000Z</time>
      </trkpt>
      <trkpt lat="45.58385" lon="7.889093">
        <ele>2113.38428</ele>
        <time>2024-08-08T10:41:35.000Z</time>
      </trkpt>
      <trkpt lat="45.583867" lon="7.889105">
        <ele>2113.83936</ele>
        <time>2024-08-08T10:41:37.000Z</time>
      </trkpt>
      <trkpt lat="45.583853" lon="7.88913">
        <ele>2114.27466</ele>
        <time>2024-08-08T10:41:44.000Z</time>
      </trkpt>
      <trkpt lat="45.583833" lon="7.889112">
        <ele>2114.68457</ele>
        <time>2024-08-08T10:41:47.000Z</time>
      </trkpt>
      <trkpt lat="45.583845" lon="7.889137">
        <ele>2115.25952</ele>
        <time>2024-08-08T10:41:59.000Z</time>
      </trkpt>
      <trkpt lat="45.583837" lon="7.889167">
        <ele>2115.78467</ele>
        <time>2024-08-08T10:42:06.000Z</time>
      </trkpt>
      <trkpt lat="45.583825" lon="7.889187">
        <ele>2116.33447</ele>
        <time>2024-08-08T10:42:14.000Z</time>
      </trkpt>
      <trkpt lat="45.583803" lon="7.88921">
        <ele>2116.90967</ele>
        <time>2024-08-08T10:42:23.000Z</time>
      </trkpt>
      <trkpt lat="45.583803" lon="7.889243">
        <ele>2117.57471</ele>
        <time>2024-08-08T10:42:28.000Z</time>
      </trkpt>
      <trkpt lat="45.583783" lon="7.889255">
        <ele>2118.26978</ele>
        <time>2024-08-08T10:42:36.000Z</time>
      </trkpt>
      <trkpt lat="45.583765" lon="7.88926">
        <ele>2119.05981</ele>
        <time>2024-08-08T10:42:42.000Z</time>
      </trkpt>
      <trkpt lat="45.583777" lon="7.889282">
        <ele>2119.91968</ele>
        <time>2024-08-08T10:42:49.000Z</time>
      </trkpt>
      <trkpt lat="45.58378" lon="7.889345">
        <ele>2120.87964</ele>
        <time>2024-08-08T10:42:57.000Z</time>
      </trkpt>
      <trkpt lat="45.583787" lon="7.88937">
        <ele>2121.89966</ele>
        <time>2024-08-08T10:43:00.000Z</time>
      </trkpt>
      <trkpt lat="45.583787" lon="7.889402">
        <ele>2122.79443</ele>
        <time>2024-08-08T10:43:06.000Z</time>
      </trkpt>
      <trkpt lat="45.58378" lon="7.889432">
        <ele>2123.70947</ele>
        <time>2024-08-08T10:43:10.000Z</time>
      </trkpt>
      <trkpt lat="45.583787" lon="7.889467">
        <ele>2124.55933</ele>
        <time>2024-08-08T10:43:13.000Z</time>
      </trkpt>
      <trkpt lat="45.583793" lon="7.889502">
        <ele>2125.43921</ele>
        <time>2024-08-08T10:43:21.000Z</time>
      </trkpt>
      <trkpt lat="45.583795" lon="7.889528">
        <ele>2126.48413</ele>
        <time>2024-08-08T10:43:32.000Z</time>
      </trkpt>
      <trkpt lat="45.583813" lon="7.889522">
        <ele>2127.63428</ele>
        <time>2024-08-08T10:43:37.000Z</time>
      </trkpt>
      <trkpt lat="45.583832" lon="7.889525">
        <ele>2128.75928</ele>
        <time>2024-08-08T10:43:42.000Z</time>
      </trkpt>
      <trkpt lat="45.583823" lon="7.889553">
        <ele>2129.89917</ele>
        <time>2024-08-08T10:43:49.000Z</time>
      </trkpt>
      <trkpt lat="45.583818" lon="7.889587">
        <ele>2131.04419</ele>
        <time>2024-08-08T10:43:56.000Z</time>
      </trkpt>
      <trkpt lat="45.583818" lon="7.889622">
        <ele>2132.15918</ele>
        <time>2024-08-08T10:44:00.000Z</time>
      </trkpt>
      <trkpt lat="45.583812" lon="7.889647">
        <ele>2133.08423</ele>
        <time>2024-08-08T10:44:03.000Z</time>
      </trkpt>
      <trkpt lat="45.583797" lon="7.889662">
        <ele>2134.09424</ele>
        <time>2024-08-08T10:44:08.000Z</time>
      </trkpt>
      <trkpt lat="45.583808" lon="7.889683">
        <ele>2135.14893</ele>
        <time>2024-08-08T10:44:11.000Z</time>
      </trkpt>
      <trkpt lat="45.583812" lon="7.889718">
        <ele>2136.26416</ele>
        <time>2024-08-08T10:44:21.000Z</time>
      </trkpt>
      <trkpt lat="45.583813" lon="7.889748">
        <ele>2137.34912</ele>
        <time>2024-08-08T10:44:24.000Z</time>
      </trkpt>
      <trkpt lat="45.58382" lon="7.889788">
        <ele>2138.44385</ele>
        <time>2024-08-08T10:44:28.000Z</time>
      </trkpt>
      <trkpt lat="45.583805" lon="7.889838">
        <ele>2139.41382</ele>
        <time>2024-08-08T10:44:38.000Z</time>
      </trkpt>
      <trkpt lat="45.583818" lon="7.889857">
        <ele>2140.30396</ele>
        <time>2024-08-08T10:44:41.000Z</time>
      </trkpt>
      <trkpt lat="45.583828" lon="7.889827">
        <ele>2141.12402</ele>
        <time>2024-08-08T10:44:46.000Z</time>
      </trkpt>
      <trkpt lat="45.583845" lon="7.889808">
        <ele>2141.93896</ele>
        <time>2024-08-08T10:44:50.000Z</time>
      </trkpt>
      <trkpt lat="45.583865" lon="7.889793">
        <ele>2142.88428</ele>
        <time>2024-08-08T10:44:55.000Z</time>
      </trkpt>
      <trkpt lat="45.583875" lon="7.889768">
        <ele>2143.86426</ele>
        <time>2024-08-08T10:44:59.000Z</time>
      </trkpt>
      <trkpt lat="45.583892" lon="7.889753">
        <ele>2144.87939</ele>
        <time>2024-08-08T10:45:03.000Z</time>
      </trkpt>
      <trkpt lat="45.58391" lon="7.889743">
        <ele>2145.84937</ele>
        <time>2024-08-08T10:45:06.000Z</time>
      </trkpt>
      <trkpt lat="45.58393" lon="7.889732">
        <ele>2147.25952</ele>
        <time>2024-08-08T10:46:14.000Z</time>
      </trkpt>
      <trkpt lat="45.58395" lon="7.889725">
        <ele>2148.44482</ele>
        <time>2024-08-08T10:46:18.000Z</time>
      </trkpt>
      <trkpt lat="45.583968" lon="7.889717">
        <ele>2149.49951</ele>
        <time>2024-08-08T10:46:21.000Z</time>
      </trkpt>
      <trkpt lat="45.583992" lon="7.889708">
        <ele>2150.43945</ele>
        <time>2024-08-08T10:46:26.000Z</time>
      </trkpt>
      <trkpt lat="45.583987" lon="7.889653">
        <ele>2151.61963</ele>
        <time>2024-08-08T10:46:49.000Z</time>
      </trkpt>
      <trkpt lat="45.584003" lon="7.889672">
        <ele>2152.70459</ele>
        <time>2024-08-08T10:46:59.000Z</time>
      </trkpt>
      <trkpt lat="45.584013" lon="7.889707">
        <ele>2153.77954</ele>
        <time>2024-08-08T10:47:03.000Z</time>
      </trkpt>
      <trkpt lat="45.584022" lon="7.88974">
        <ele>2154.78467</ele>
        <time>2024-08-08T10:47:06.000Z</time>
      </trkpt>
      <trkpt lat="45.584035" lon="7.88976">
        <ele>2155.78467</ele>
        <time>2024-08-08T10:47:11.000Z</time>
      </trkpt>
      <trkpt lat="45.58405" lon="7.889783">
        <ele>2156.73462</ele>
        <time>2024-08-08T10:47:14.000Z</time>
      </trkpt>
      <trkpt lat="45.584067" lon="7.889773">
        <ele>2157.6897</ele>
        <time>2024-08-08T10:47:18.000Z</time>
      </trkpt>
      <trkpt lat="45.584078" lon="7.8898">
        <ele>2158.61475</ele>
        <time>2024-08-08T10:47:23.000Z</time>
      </trkpt>
      <trkpt lat="45.5841" lon="7.889825">
        <ele>2159.59961</ele>
        <time>2024-08-08T10:47:26.000Z</time>
      </trkpt>
      <trkpt lat="45.58412" lon="7.889825">
        <ele>2160.66455</ele>
        <time>2024-08-08T10:47:30.000Z</time>
      </trkpt>
      <trkpt lat="45.58414" lon="7.889812">
        <ele>2161.83936</ele>
        <time>2024-08-08T10:47:37.000Z</time>
      </trkpt>
      <trkpt lat="45.58414" lon="7.889785">
        <ele>2162.97437</ele>
        <time>2024-08-08T10:47:41.000Z</time>
      </trkpt>
      <trkpt lat="45.584142" lon="7.889755">
        <ele>2164.02441</ele>
        <time>2024-08-08T10:47:46.000Z</time>
      </trkpt>
      <trkpt lat="45.584138" lon="7.889727">
        <ele>2165.09424</ele>
        <time>2024-08-08T10:47:48.000Z</time>
      </trkpt>
      <trkpt lat="45.584158" lon="7.889723">
        <ele>2166.19946</ele>
        <time>2024-08-08T10:47:53.000Z</time>
      </trkpt>
      <trkpt lat="45.584175" lon="7.889742">
        <ele>2167.26416</ele>
        <time>2024-08-08T10:47:57.000Z</time>
      </trkpt>
      <trkpt lat="45.584188" lon="7.889762">
        <ele>2167.68921</ele>
        <time>2024-08-08T10:48:00.000Z</time>
      </trkpt>
      <trkpt lat="45.584132" lon="7.889787">
        <ele>2168.27417</ele>
        <time>2024-08-08T10:48:20.000Z</time>
      </trkpt>
      <trkpt lat="45.584153" lon="7.889782">
        <ele>2168.94922</ele>
        <time>2024-08-08T10:48:27.000Z</time>
      </trkpt>
      <trkpt lat="45.584175" lon="7.88978">
        <ele>2169.68433</ele>
        <time>2024-08-08T10:48:30.000Z</time>
      </trkpt>
      <trkpt lat="45.58417" lon="7.889817">
        <ele>2170.20435</ele>
        <time>2024-08-08T10:48:45.000Z</time>
      </trkpt>
      <trkpt lat="45.584185" lon="7.889797">
        <ele>2170.81934</ele>
        <time>2024-08-08T10:48:50.000Z</time>
      </trkpt>
      <trkpt lat="45.584202" lon="7.889812">
        <ele>2171.44434</ele>
        <time>2024-08-08T10:48:52.000Z</time>
      </trkpt>
      <trkpt lat="45.584208" lon="7.889838">
        <ele>2171.99438</ele>
        <time>2024-08-08T10:48:58.000Z</time>
      </trkpt>
      <trkpt lat="45.584213" lon="7.889868">
        <ele>2172.44434</ele>
        <time>2024-08-08T10:49:03.000Z</time>
      </trkpt>
      <trkpt lat="45.584225" lon="7.88989">
        <ele>2172.81934</ele>
        <time>2024-08-08T10:49:06.000Z</time>
      </trkpt>
      <trkpt lat="45.584235" lon="7.889913">
        <ele>2173.12427</ele>
        <time>2024-08-08T10:49:10.000Z</time>
      </trkpt>
      <trkpt lat="45.584247" lon="7.889935">
        <ele>2173.39917</ele>
        <time>2024-08-08T10:49:20.000Z</time>
      </trkpt>
      <trkpt lat="45.584275" lon="7.88996">
        <ele>2173.70923</ele>
        <time>2024-08-08T10:49:28.000Z</time>
      </trkpt>
      <trkpt lat="45.58434" lon="7.889968">
        <ele>2174.05908</ele>
        <time>2024-08-08T10:49:51.000Z</time>
      </trkpt>
      <trkpt lat="45.584358" lon="7.889987">
        <ele>2174.34424</ele>
        <time>2024-08-08T10:50:05.000Z</time>
      </trkpt>
      <trkpt lat="45.584378" lon="7.88998">
        <ele>2174.73901</ele>
        <time>2024-08-08T10:50:12.000Z</time>
      </trkpt>
      <trkpt lat="45.58439" lon="7.890013">
        <ele>2175.18408</ele>
        <time>2024-08-08T10:50:17.000Z</time>
      </trkpt>
      <trkpt lat="45.584382" lon="7.890047">
        <ele>2175.59424</ele>
        <time>2024-08-08T10:50:21.000Z</time>
      </trkpt>
      <trkpt lat="45.584387" lon="7.890072">
        <ele>2175.9541</ele>
        <time>2024-08-08T10:50:23.000Z</time>
      </trkpt>
      <trkpt lat="45.58439" lon="7.890042">
        <ele>2176.51416</ele>
        <time>2024-08-08T10:50:31.000Z</time>
      </trkpt>
      <trkpt lat="45.584388" lon="7.890012">
        <ele>2177.11914</ele>
        <time>2024-08-08T10:50:34.000Z</time>
      </trkpt>
      <trkpt lat="45.584395" lon="7.889987">
        <ele>2177.66919</ele>
        <time>2024-08-08T10:50:36.000Z</time>
      </trkpt>
      <trkpt lat="45.584405" lon="7.88996">
        <ele>2178.21436</ele>
        <time>2024-08-08T10:50:39.000Z</time>
      </trkpt>
      <trkpt lat="45.584415" lon="7.889935">
        <ele>2178.8291</ele>
        <time>2024-08-08T10:50:43.000Z</time>
      </trkpt>
      <trkpt lat="45.584428" lon="7.889907">
        <ele>2179.4292</ele>
        <time>2024-08-08T10:50:47.000Z</time>
      </trkpt>
      <trkpt lat="45.584433" lon="7.889933">
        <ele>2179.95923</ele>
        <time>2024-08-08T10:50:55.000Z</time>
      </trkpt>
      <trkpt lat="45.584453" lon="7.889923">
        <ele>2180.52417</ele>
        <time>2024-08-08T10:51:01.000Z</time>
      </trkpt>
      <trkpt lat="45.584477" lon="7.889983">
        <ele>2180.95435</ele>
        <time>2024-08-08T10:52:43.000Z</time>
      </trkpt>
      <trkpt lat="45.584493" lon="7.889993">
        <ele>2181.39429</ele>
        <time>2024-08-08T10:53:29.000Z</time>
      </trkpt>
      <trkpt lat="45.584485" lon="7.890017">
        <ele>2181.90942</ele>
        <time>2024-08-08T10:53:36.000Z</time>
      </trkpt>
      <trkpt lat="45.584443" lon="7.890015">
        <ele>2182.50439</ele>
        <time>2024-08-08T10:53:57.000Z</time>
      </trkpt>
      <trkpt lat="45.584465" lon="7.890012">
        <ele>2183.02466</ele>
        <time>2024-08-08T10:54:01.000Z</time>
      </trkpt>
      <trkpt lat="45.584437" lon="7.890015">
        <ele>2183.63965</ele>
        <time>2024-08-08T10:54:34.000Z</time>
      </trkpt>
      <trkpt lat="45.584475" lon="7.889978">
        <ele>2184.22485</ele>
        <time>2024-08-08T10:55:07.000Z</time>
      </trkpt>
      <trkpt lat="45.584493" lon="7.889978">
        <ele>2184.51489</ele>
        <time>2024-08-08T10:55:56.000Z</time>
      </trkpt>
      <trkpt lat="45.584475" lon="7.889983">
        <ele>2184.65479</ele>
        <time>2024-08-08T10:56:05.000Z</time>
      </trkpt>
      <trkpt lat="45.584457" lon="7.889992">
        <ele>2184.68994</ele>
        <time>2024-08-08T10:56:12.000Z</time>
      </trkpt>
      <trkpt lat="45.584475" lon="7.889977">
        <ele>2184.66479</ele>
        <time>2024-08-08T10:56:29.000Z</time>
      </trkpt>
      <trkpt lat="45.584487" lon="7.889957">
        <ele>2184.61963</ele>
        <time>2024-08-08T10:56:37.000Z</time>
      </trkpt>
      <trkpt lat="45.584458" lon="7.88997">
        <ele>2184.46973</ele>
        <time>2024-08-08T10:56:55.000Z</time>
      </trkpt>
      <trkpt lat="45.584475" lon="7.889988">
        <ele>2184.34473</ele>
        <time>2024-08-08T10:57:56.000Z</time>
      </trkpt>
      <trkpt lat="45.5845" lon="7.889983">
        <ele>2184.15967</ele>
        <time>2024-08-08T10:58:05.000Z</time>
      </trkpt>
      <trkpt lat="45.58452" lon="7.88998">
        <ele>2183.94971</ele>
        <time>2024-08-08T10:58:10.000Z</time>
      </trkpt>
      <trkpt lat="45.58453" lon="7.89001">
        <ele>2183.6897</ele>
        <time>2024-08-08T10:58:18.000Z</time>
      </trkpt>
      <trkpt lat="45.584547" lon="7.889995">
        <ele>2183.55957</ele>
        <time>2024-08-08T10:58:31.000Z</time>
      </trkpt>
      <trkpt lat="45.584555" lon="7.889968">
        <ele>2183.47949</ele>
        <time>2024-08-08T10:58:33.000Z</time>
      </trkpt>
      <trkpt lat="45.584568" lon="7.88995">
        <ele>2183.35938</ele>
        <time>2024-08-08T10:58:36.000Z</time>
      </trkpt>
      <trkpt lat="45.584562" lon="7.889917">
        <ele>2183.49438</ele>
        <time>2024-08-08T10:58:40.000Z</time>
      </trkpt>
      <trkpt lat="45.584577" lon="7.88989">
        <ele>2183.67432</ele>
        <time>2024-08-08T10:58:43.000Z</time>
      </trkpt>
      <trkpt lat="45.584585" lon="7.889862">
        <ele>2183.79443</ele>
        <time>2024-08-08T10:58:47.000Z</time>
      </trkpt>
      <trkpt lat="45.584592" lon="7.889837">
        <ele>2183.86426</ele>
        <time>2024-08-08T10:58:50.000Z</time>
      </trkpt>
      <trkpt lat="45.584607" lon="7.889862">
        <ele>2184.12915</ele>
        <time>2024-08-08T10:58:59.000Z</time>
      </trkpt>
      <trkpt lat="45.58463" lon="7.889872">
        <ele>2184.28418</ele>
        <time>2024-08-08T10:59:05.000Z</time>
      </trkpt>
      <trkpt lat="45.584642" lon="7.889892">
        <ele>2184.41919</ele>
        <time>2024-08-08T10:59:11.000Z</time>
      </trkpt>
      <trkpt lat="45.584655" lon="7.889913">
        <ele>2184.77393</ele>
        <time>2024-08-08T10:59:14.000Z</time>
      </trkpt>
      <trkpt lat="45.584662" lon="7.88994">
        <ele>2185.18896</ele>
        <time>2024-08-08T10:59:17.000Z</time>
      </trkpt>
      <trkpt lat="45.584662" lon="7.889967">
        <ele>2185.64917</ele>
        <time>2024-08-08T10:59:22.000Z</time>
      </trkpt>
      <trkpt lat="45.58468" lon="7.889983">
        <ele>2186.354</ele>
        <time>2024-08-08T10:59:36.000Z</time>
      </trkpt>
      <trkpt lat="45.584688" lon="7.890015">
        <ele>2187.08936</ele>
        <time>2024-08-08T10:59:41.000Z</time>
      </trkpt>
      <trkpt lat="45.584675" lon="7.890033">
        <ele>2187.78931</ele>
        <time>2024-08-08T10:59:46.000Z</time>
      </trkpt>
      <trkpt lat="45.58467" lon="7.890067">
        <ele>2188.44434</ele>
        <time>2024-08-08T10:59:49.000Z</time>
      </trkpt>
      <trkpt lat="45.58468" lon="7.890103">
        <ele>2189.12939</ele>
        <time>2024-08-08T10:59:51.000Z</time>
      </trkpt>
      <trkpt lat="45.584675" lon="7.890132">
        <ele>2189.84424</ele>
        <time>2024-08-08T10:59:53.000Z</time>
      </trkpt>
      <trkpt lat="45.584672" lon="7.890167">
        <ele>2190.5542</ele>
        <time>2024-08-08T10:59:56.000Z</time>
      </trkpt>
      <trkpt lat="45.584665" lon="7.890193">
        <ele>2191.1543</ele>
        <time>2024-08-08T11:00:00.000Z</time>
      </trkpt>
      <trkpt lat="45.58465" lon="7.890215">
        <ele>2191.88428</ele>
        <time>2024-08-08T11:00:08.000Z</time>
      </trkpt>
      <trkpt lat="45.584633" lon="7.890225">
        <ele>2192.70947</ele>
        <time>2024-08-08T11:00:12.000Z</time>
      </trkpt>
      <trkpt lat="45.584632" lon="7.890253">
        <ele>2193.58447</ele>
        <time>2024-08-08T11:00:16.000Z</time>
      </trkpt>
      <trkpt lat="45.584637" lon="7.890297">
        <ele>2194.50928</ele>
        <time>2024-08-08T11:00:21.000Z</time>
      </trkpt>
      <trkpt lat="45.584637" lon="7.890328">
        <ele>2195.46436</ele>
        <time>2024-08-08T11:00:25.000Z</time>
      </trkpt>
      <trkpt lat="45.584625" lon="7.890348">
        <ele>2196.47437</ele>
        <time>2024-08-08T11:00:30.000Z</time>
      </trkpt>
      <trkpt lat="45.584628" lon="7.890407">
        <ele>2197.43457</ele>
        <time>2024-08-08T11:00:38.000Z</time>
      </trkpt>
      <trkpt lat="45.584622" lon="7.890442">
        <ele>2198.35449</ele>
        <time>2024-08-08T11:00:41.000Z</time>
      </trkpt>
      <trkpt lat="45.58461" lon="7.890463">
        <ele>2199.21948</ele>
        <time>2024-08-08T11:00:44.000Z</time>
      </trkpt>
      <trkpt lat="45.584612" lon="7.890495">
        <ele>2200.13452</ele>
        <time>2024-08-08T11:00:52.000Z</time>
      </trkpt>
      <trkpt lat="45.584613" lon="7.890525">
        <ele>2201.03955</ele>
        <time>2024-08-08T11:00:55.000Z</time>
      </trkpt>
      <trkpt lat="45.58461" lon="7.890557">
        <ele>2201.9397</ele>
        <time>2024-08-08T11:01:02.000Z</time>
      </trkpt>
      <trkpt lat="45.58461" lon="7.890583">
        <ele>2202.63965</ele>
        <time>2024-08-08T11:01:05.000Z</time>
      </trkpt>
      <trkpt lat="45.584612" lon="7.890615">
        <ele>2203.40967</ele>
        <time>2024-08-08T11:01:14.000Z</time>
      </trkpt>
      <trkpt lat="45.584627" lon="7.890632">
        <ele>2204.14453</ele>
        <time>2024-08-08T11:01:17.000Z</time>
      </trkpt>
      <trkpt lat="45.584617" lon="7.89068">
        <ele>2204.92944</ele>
        <time>2024-08-08T11:01:39.000Z</time>
      </trkpt>
      <trkpt lat="45.584625" lon="7.890707">
        <ele>2205.71948</ele>
        <time>2024-08-08T11:01:44.000Z</time>
      </trkpt>
      <trkpt lat="45.584625" lon="7.890733">
        <ele>2206.49463</ele>
        <time>2024-08-08T11:01:47.000Z</time>
      </trkpt>
      <trkpt lat="45.584635" lon="7.890758">
        <ele>2207.25952</ele>
        <time>2024-08-08T11:01:51.000Z</time>
      </trkpt>
      <trkpt lat="45.584648" lon="7.890788">
        <ele>2208.03467</ele>
        <time>2024-08-08T11:01:58.000Z</time>
      </trkpt>
      <trkpt lat="45.58465" lon="7.890817">
        <ele>2208.69971</ele>
        <time>2024-08-08T11:02:03.000Z</time>
      </trkpt>
      <trkpt lat="45.584658" lon="7.890845">
        <ele>2209.28467</ele>
        <time>2024-08-08T11:02:06.000Z</time>
      </trkpt>
      <trkpt lat="45.584662" lon="7.890873">
        <ele>2209.82959</ele>
        <time>2024-08-08T11:02:09.000Z</time>
      </trkpt>
      <trkpt lat="45.584645" lon="7.890883">
        <ele>2210.33936</ele>
        <time>2024-08-08T11:02:12.000Z</time>
      </trkpt>
      <trkpt lat="45.58464" lon="7.890913">
        <ele>2210.8894</ele>
        <time>2024-08-08T11:02:17.000Z</time>
      </trkpt>
      <trkpt lat="45.58463" lon="7.890935">
        <ele>2211.49463</ele>
        <time>2024-08-08T11:02:27.000Z</time>
      </trkpt>
      <trkpt lat="45.584608" lon="7.890958">
        <ele>2212.17944</ele>
        <time>2024-08-08T11:02:34.000Z</time>
      </trkpt>
      <trkpt lat="45.584598" lon="7.890983">
        <ele>2212.94458</ele>
        <time>2024-08-08T11:02:39.000Z</time>
      </trkpt>
      <trkpt lat="45.584592" lon="7.891013">
        <ele>2213.73438</ele>
        <time>2024-08-08T11:02:44.000Z</time>
      </trkpt>
      <trkpt lat="45.584595" lon="7.891043">
        <ele>2214.51929</ele>
        <time>2024-08-08T11:02:47.000Z</time>
      </trkpt>
      <trkpt lat="45.584588" lon="7.891072">
        <ele>2215.33423</ele>
        <time>2024-08-08T11:02:51.000Z</time>
      </trkpt>
      <trkpt lat="45.584567" lon="7.89108">
        <ele>2216.13916</ele>
        <time>2024-08-08T11:02:54.000Z</time>
      </trkpt>
      <trkpt lat="45.584562" lon="7.891105">
        <ele>2216.9541</ele>
        <time>2024-08-08T11:02:58.000Z</time>
      </trkpt>
      <trkpt lat="45.584527" lon="7.891212">
        <ele>2217.72412</ele>
        <time>2024-08-08T11:03:27.000Z</time>
      </trkpt>
      <trkpt lat="45.584517" lon="7.891238">
        <ele>2218.7439</ele>
        <time>2024-08-08T11:03:38.000Z</time>
      </trkpt>
      <trkpt lat="45.584522" lon="7.891265">
        <ele>2219.7439</ele>
        <time>2024-08-08T11:03:44.000Z</time>
      </trkpt>
      <trkpt lat="45.584505" lon="7.891298">
        <ele>2220.80884</ele>
        <time>2024-08-08T11:03:49.000Z</time>
      </trkpt>
      <trkpt lat="45.584495" lon="7.891323">
        <ele>2221.8938</ele>
        <time>2024-08-08T11:03:56.000Z</time>
      </trkpt>
      <trkpt lat="45.58449" lon="7.891348">
        <ele>2222.97388</ele>
        <time>2024-08-08T11:04:01.000Z</time>
      </trkpt>
      <trkpt lat="45.58447" lon="7.89149">
        <ele>2224.15381</ele>
        <time>2024-08-08T11:04:41.000Z</time>
      </trkpt>
      <trkpt lat="45.584468" lon="7.891518">
        <ele>2225.31396</ele>
        <time>2024-08-08T11:04:45.000Z</time>
      </trkpt>
      <trkpt lat="45.584452" lon="7.891528">
        <ele>2226.479</ele>
        <time>2024-08-08T11:04:50.000Z</time>
      </trkpt>
      <trkpt lat="45.584438" lon="7.891548">
        <ele>2227.64404</ele>
        <time>2024-08-08T11:04:54.000Z</time>
      </trkpt>
      <trkpt lat="45.584433" lon="7.891577">
        <ele>2228.82886</ele>
        <time>2024-08-08T11:04:57.000Z</time>
      </trkpt>
      <trkpt lat="45.584422" lon="7.891605">
        <ele>2229.9939</ele>
        <time>2024-08-08T11:05:00.000Z</time>
      </trkpt>
      <trkpt lat="45.5844" lon="7.891623">
        <ele>2231.1189</ele>
        <time>2024-08-08T11:05:03.000Z</time>
      </trkpt>
      <trkpt lat="45.584383" lon="7.891635">
        <ele>2232.17383</ele>
        <time>2024-08-08T11:05:07.000Z</time>
      </trkpt>
      <trkpt lat="45.584367" lon="7.891648">
        <ele>2233.14893</ele>
        <time>2024-08-08T11:05:09.000Z</time>
      </trkpt>
      <trkpt lat="45.584348" lon="7.891667">
        <ele>2234.14404</ele>
        <time>2024-08-08T11:05:13.000Z</time>
      </trkpt>
      <trkpt lat="45.584343" lon="7.891692">
        <ele>2235.17407</ele>
        <time>2024-08-08T11:05:16.000Z</time>
      </trkpt>
      <trkpt lat="45.584342" lon="7.891718">
        <ele>2236.229</ele>
        <time>2024-08-08T11:05:19.000Z</time>
      </trkpt>
      <trkpt lat="45.584337" lon="7.891743">
        <ele>2237.31909</ele>
        <time>2024-08-08T11:05:24.000Z</time>
      </trkpt>
      <trkpt lat="45.584322" lon="7.891775">
        <ele>2238.46924</ele>
        <time>2024-08-08T11:05:35.000Z</time>
      </trkpt>
      <trkpt lat="45.584313" lon="7.8918">
        <ele>2239.60913</ele>
        <time>2024-08-08T11:05:38.000Z</time>
      </trkpt>
      <trkpt lat="45.584328" lon="7.891828">
        <ele>2240.52417</ele>
        <time>2024-08-08T11:05:42.000Z</time>
      </trkpt>
      <trkpt lat="45.584343" lon="7.891813">
        <ele>2241.50439</ele>
        <time>2024-08-08T11:05:49.000Z</time>
      </trkpt>
      <trkpt lat="45.584367" lon="7.891797">
        <ele>2242.43945</ele>
        <time>2024-08-08T11:05:54.000Z</time>
      </trkpt>
      <trkpt lat="45.584387" lon="7.891795">
        <ele>2243.35962</ele>
        <time>2024-08-08T11:05:57.000Z</time>
      </trkpt>
      <trkpt lat="45.584403" lon="7.891777">
        <ele>2244.29956</ele>
        <time>2024-08-08T11:06:00.000Z</time>
      </trkpt>
      <trkpt lat="45.584407" lon="7.891748">
        <ele>2245.12451</ele>
        <time>2024-08-08T11:06:05.000Z</time>
      </trkpt>
      <trkpt lat="45.584423" lon="7.891778">
        <ele>2245.9397</ele>
        <time>2024-08-08T11:06:08.000Z</time>
      </trkpt>
      <trkpt lat="45.584422" lon="7.891812">
        <ele>2246.77979</ele>
        <time>2024-08-08T11:06:15.000Z</time>
      </trkpt>
      <trkpt lat="45.584417" lon="7.89184">
        <ele>2247.60986</ele>
        <time>2024-08-08T11:06:20.000Z</time>
      </trkpt>
      <trkpt lat="45.584413" lon="7.891872">
        <ele>2248.49976</ele>
        <time>2024-08-08T11:06:27.000Z</time>
      </trkpt>
      <trkpt lat="45.584423" lon="7.891895">
        <ele>2249.32471</ele>
        <time>2024-08-08T11:06:32.000Z</time>
      </trkpt>
      <trkpt lat="45.584422" lon="7.891923">
        <ele>2250.07471</ele>
        <time>2024-08-08T11:06:36.000Z</time>
      </trkpt>
      <trkpt lat="45.584407" lon="7.891945">
        <ele>2250.75488</ele>
        <time>2024-08-08T11:06:40.000Z</time>
      </trkpt>
      <trkpt lat="45.584403" lon="7.891972">
        <ele>2251.46484</ele>
        <time>2024-08-08T11:06:43.000Z</time>
      </trkpt>
      <trkpt lat="45.584408" lon="7.892013">
        <ele>2252.15479</ele>
        <time>2024-08-08T11:06:48.000Z</time>
      </trkpt>
      <trkpt lat="45.584422" lon="7.892037">
        <ele>2252.86475</ele>
        <time>2024-08-08T11:06:54.000Z</time>
      </trkpt>
      <trkpt lat="45.584402" lon="7.892053">
        <ele>2253.49976</ele>
        <time>2024-08-08T11:07:00.000Z</time>
      </trkpt>
      <trkpt lat="45.584402" lon="7.89212">
        <ele>2254.1748</ele>
        <time>2024-08-08T11:07:15.000Z</time>
      </trkpt>
      <trkpt lat="45.5844" lon="7.89215">
        <ele>2254.85498</ele>
        <time>2024-08-08T11:07:18.000Z</time>
      </trkpt>
      <trkpt lat="45.584408" lon="7.892177">
        <ele>2255.54492</ele>
        <time>2024-08-08T11:07:23.000Z</time>
      </trkpt>
      <trkpt lat="45.584408" lon="7.892205">
        <ele>2256.37988</ele>
        <time>2024-08-08T11:07:38.000Z</time>
      </trkpt>
      <trkpt lat="45.584397" lon="7.892237">
        <ele>2257.08984</ele>
        <time>2024-08-08T11:07:41.000Z</time>
      </trkpt>
      <trkpt lat="45.584382" lon="7.892252">
        <ele>2257.85986</ele>
        <time>2024-08-08T11:07:44.000Z</time>
      </trkpt>
      <trkpt lat="45.584383" lon="7.892278">
        <ele>2258.73486</ele>
        <time>2024-08-08T11:07:51.000Z</time>
      </trkpt>
      <trkpt lat="45.584365" lon="7.892295">
        <ele>2259.65479</ele>
        <time>2024-08-08T11:07:57.000Z</time>
      </trkpt>
      <trkpt lat="45.584352" lon="7.892315">
        <ele>2260.60986</ele>
        <time>2024-08-08T11:08:01.000Z</time>
      </trkpt>
      <trkpt lat="45.584355" lon="7.892345">
        <ele>2261.57959</ele>
        <time>2024-08-08T11:08:05.000Z</time>
      </trkpt>
      <trkpt lat="45.584335" lon="7.892355">
        <ele>2262.47974</ele>
        <time>2024-08-08T11:08:12.000Z</time>
      </trkpt>
      <trkpt lat="45.584367" lon="7.892288">
        <ele>2263.29443</ele>
        <time>2024-08-08T11:08:59.000Z</time>
      </trkpt>
      <trkpt lat="45.584367" lon="7.892353">
        <ele>2264.29443</ele>
        <time>2024-08-08T11:09:37.000Z</time>
      </trkpt>
      <trkpt lat="45.58437" lon="7.892385">
        <ele>2265.29443</ele>
        <time>2024-08-08T11:09:40.000Z</time>
      </trkpt>
      <trkpt lat="45.584367" lon="7.892425">
        <ele>2266.30444</ele>
        <time>2024-08-08T11:09:43.000Z</time>
      </trkpt>
      <trkpt lat="45.58435" lon="7.89245">
        <ele>2267.30444</ele>
        <time>2024-08-08T11:09:47.000Z</time>
      </trkpt>
      <trkpt lat="45.584343" lon="7.892478">
        <ele>2268.20947</ele>
        <time>2024-08-08T11:09:49.000Z</time>
      </trkpt>
      <trkpt lat="45.58434" lon="7.892513">
        <ele>2269.04443</ele>
        <time>2024-08-08T11:09:52.000Z</time>
      </trkpt>
      <trkpt lat="45.584323" lon="7.892528">
        <ele>2269.79443</ele>
        <time>2024-08-08T11:09:56.000Z</time>
      </trkpt>
      <trkpt lat="45.58432" lon="7.892555">
        <ele>2270.57959</ele>
        <time>2024-08-08T11:10:01.000Z</time>
      </trkpt>
      <trkpt lat="45.584327" lon="7.89258">
        <ele>2271.30444</ele>
        <time>2024-08-08T11:10:03.000Z</time>
      </trkpt>
      <trkpt lat="45.584332" lon="7.892612">
        <ele>2271.99951</ele>
        <time>2024-08-08T11:10:06.000Z</time>
      </trkpt>
      <trkpt lat="45.584305" lon="7.892583">
        <ele>2272.85449</ele>
        <time>2024-08-08T11:10:24.000Z</time>
      </trkpt>
      <trkpt lat="45.584322" lon="7.892563">
        <ele>2273.56445</ele>
        <time>2024-08-08T11:10:28.000Z</time>
      </trkpt>
      <trkpt lat="45.584345" lon="7.89257">
        <ele>2274.28442</ele>
        <time>2024-08-08T11:10:32.000Z</time>
      </trkpt>
      <trkpt lat="45.584363" lon="7.892572">
        <ele>2274.92432</ele>
        <time>2024-08-08T11:10:35.000Z</time>
      </trkpt>
      <trkpt lat="45.584375" lon="7.8926">
        <ele>2275.43945</ele>
        <time>2024-08-08T11:10:39.000Z</time>
      </trkpt>
      <trkpt lat="45.584393" lon="7.892592">
        <ele>2275.91943</ele>
        <time>2024-08-08T11:10:44.000Z</time>
      </trkpt>
      <trkpt lat="45.584417" lon="7.892578">
        <ele>2276.39453</ele>
        <time>2024-08-08T11:10:51.000Z</time>
      </trkpt>
      <trkpt lat="45.58443" lon="7.892557">
        <ele>2276.93945</ele>
        <time>2024-08-08T11:10:57.000Z</time>
      </trkpt>
      <trkpt lat="45.584448" lon="7.892563">
        <ele>2277.6145</ele>
        <time>2024-08-08T11:11:03.000Z</time>
      </trkpt>
      <trkpt lat="45.584463" lon="7.892542">
        <ele>2278.37451</ele>
        <time>2024-08-08T11:11:06.000Z</time>
      </trkpt>
      <trkpt lat="45.584478" lon="7.892522">
        <ele>2278.99951</ele>
        <time>2024-08-08T11:11:11.000Z</time>
      </trkpt>
      <trkpt lat="45.584498" lon="7.892513">
        <ele>2279.7146</ele>
        <time>2024-08-08T11:11:15.000Z</time>
      </trkpt>
      <trkpt lat="45.584518" lon="7.892503">
        <ele>2280.47461</ele>
        <time>2024-08-08T11:11:18.000Z</time>
      </trkpt>
      <trkpt lat="45.58453" lon="7.892478">
        <ele>2281.33447</ele>
        <time>2024-08-08T11:11:24.000Z</time>
      </trkpt>
      <trkpt lat="45.584543" lon="7.892453">
        <ele>2282.23462</ele>
        <time>2024-08-08T11:11:27.000Z</time>
      </trkpt>
      <trkpt lat="45.584562" lon="7.892447">
        <ele>2283.19458</ele>
        <time>2024-08-08T11:11:30.000Z</time>
      </trkpt>
      <trkpt lat="45.584585" lon="7.892445">
        <ele>2284.24463</ele>
        <time>2024-08-08T11:11:38.000Z</time>
      </trkpt>
      <trkpt lat="45.584605" lon="7.892432">
        <ele>2285.3147</ele>
        <time>2024-08-08T11:11:42.000Z</time>
      </trkpt>
      <trkpt lat="45.584627" lon="7.892432">
        <ele>2286.44971</ele>
        <time>2024-08-08T11:11:46.000Z</time>
      </trkpt>
      <trkpt lat="45.58465" lon="7.892413">
        <ele>2287.57471</ele>
        <time>2024-08-08T11:11:53.000Z</time>
      </trkpt>
      <trkpt lat="45.584663" lon="7.892395">
        <ele>2288.52466</ele>
        <time>2024-08-08T11:12:00.000Z</time>
      </trkpt>
      <trkpt lat="45.584682" lon="7.89239">
        <ele>2289.45972</ele>
        <time>2024-08-08T11:12:04.000Z</time>
      </trkpt>
      <trkpt lat="45.5847" lon="7.892385">
        <ele>2290.37476</ele>
        <time>2024-08-08T11:12:07.000Z</time>
      </trkpt>
      <trkpt lat="45.584722" lon="7.892368">
        <ele>2291.2749</ele>
        <time>2024-08-08T11:12:11.000Z</time>
      </trkpt>
      <trkpt lat="45.58474" lon="7.892355">
        <ele>2292.1897</ele>
        <time>2024-08-08T11:12:14.000Z</time>
      </trkpt>
      <trkpt lat="45.584753" lon="7.89238">
        <ele>2293.09961</ele>
        <time>2024-08-08T11:12:19.000Z</time>
      </trkpt>
      <trkpt lat="45.584757" lon="7.892407">
        <ele>2293.98462</ele>
        <time>2024-08-08T11:12:23.000Z</time>
      </trkpt>
      <trkpt lat="45.584767" lon="7.892448">
        <ele>2294.86475</ele>
        <time>2024-08-08T11:12:30.000Z</time>
      </trkpt>
      <trkpt lat="45.584753" lon="7.892472">
        <ele>2295.66968</ele>
        <time>2024-08-08T11:12:35.000Z</time>
      </trkpt>
      <trkpt lat="45.584747" lon="7.892508">
        <ele>2296.48462</ele>
        <time>2024-08-08T11:12:41.000Z</time>
      </trkpt>
      <trkpt lat="45.584738" lon="7.892535">
        <ele>2297.16943</ele>
        <time>2024-08-08T11:12:46.000Z</time>
      </trkpt>
      <trkpt lat="45.584742" lon="7.892565">
        <ele>2297.86963</ele>
        <time>2024-08-08T11:12:52.000Z</time>
      </trkpt>
      <trkpt lat="45.584733" lon="7.892588">
        <ele>2298.61963</ele>
        <time>2024-08-08T11:12:55.000Z</time>
      </trkpt>
      <trkpt lat="45.584745" lon="7.892618">
        <ele>2299.35449</ele>
        <time>2024-08-08T11:12:58.000Z</time>
      </trkpt>
      <trkpt lat="45.584735" lon="7.892645">
        <ele>2300.08936</ele>
        <time>2024-08-08T11:13:03.000Z</time>
      </trkpt>
      <trkpt lat="45.584735" lon="7.892675">
        <ele>2300.79443</ele>
        <time>2024-08-08T11:13:06.000Z</time>
      </trkpt>
      <trkpt lat="45.58473" lon="7.89271">
        <ele>2301.43457</ele>
        <time>2024-08-08T11:13:12.000Z</time>
      </trkpt>
      <trkpt lat="45.58473" lon="7.89277">
        <ele>2302.16943</ele>
        <time>2024-08-08T11:13:26.000Z</time>
      </trkpt>
      <trkpt lat="45.584717" lon="7.892788">
        <ele>2302.86963</ele>
        <time>2024-08-08T11:13:29.000Z</time>
      </trkpt>
      <trkpt lat="45.584725" lon="7.892813">
        <ele>2303.59961</ele>
        <time>2024-08-08T11:13:35.000Z</time>
      </trkpt>
      <trkpt lat="45.584708" lon="7.892833">
        <ele>2304.35449</ele>
        <time>2024-08-08T11:13:38.000Z</time>
      </trkpt>
      <trkpt lat="45.58471" lon="7.89287">
        <ele>2305.08447</ele>
        <time>2024-08-08T11:13:42.000Z</time>
      </trkpt>
      <trkpt lat="45.584712" lon="7.892897">
        <ele>2305.83447</ele>
        <time>2024-08-08T11:13:45.000Z</time>
      </trkpt>
      <trkpt lat="45.584705" lon="7.892927">
        <ele>2306.62939</ele>
        <time>2024-08-08T11:13:48.000Z</time>
      </trkpt>
      <trkpt lat="45.58469" lon="7.892952">
        <ele>2307.43945</ele>
        <time>2024-08-08T11:13:52.000Z</time>
      </trkpt>
      <trkpt lat="45.58468" lon="7.892973">
        <ele>2308.30444</ele>
        <time>2024-08-08T11:14:00.000Z</time>
      </trkpt>
      <trkpt lat="45.584682" lon="7.893002">
        <ele>2309.15942</ele>
        <time>2024-08-08T11:14:05.000Z</time>
      </trkpt>
      <trkpt lat="45.584675" lon="7.893038">
        <ele>2309.96924</ele>
        <time>2024-08-08T11:14:11.000Z</time>
      </trkpt>
      <trkpt lat="45.584665" lon="7.89306">
        <ele>2310.78931</ele>
        <time>2024-08-08T11:14:15.000Z</time>
      </trkpt>
      <trkpt lat="45.584667" lon="7.893092">
        <ele>2311.59937</ele>
        <time>2024-08-08T11:14:19.000Z</time>
      </trkpt>
      <trkpt lat="45.584665" lon="7.893118">
        <ele>2312.39453</ele>
        <time>2024-08-08T11:14:21.000Z</time>
      </trkpt>
      <trkpt lat="45.584657" lon="7.893142">
        <ele>2313.12451</ele>
        <time>2024-08-08T11:14:26.000Z</time>
      </trkpt>
      <trkpt lat="45.584652" lon="7.893177">
        <ele>2313.77441</ele>
        <time>2024-08-08T11:14:29.000Z</time>
      </trkpt>
      <trkpt lat="45.58464" lon="7.893198">
        <ele>2314.37451</ele>
        <time>2024-08-08T11:14:32.000Z</time>
      </trkpt>
      <trkpt lat="45.58462" lon="7.893207">
        <ele>2314.96924</ele>
        <time>2024-08-08T11:14:35.000Z</time>
      </trkpt>
      <trkpt lat="45.584603" lon="7.893222">
        <ele>2315.56934</ele>
        <time>2024-08-08T11:14:37.000Z</time>
      </trkpt>
      <trkpt lat="45.584583" lon="7.893242">
        <ele>2316.12939</ele>
        <time>2024-08-08T11:14:41.000Z</time>
      </trkpt>
      <trkpt lat="45.584573" lon="7.893265">
        <ele>2316.59912</ele>
        <time>2024-08-08T11:14:43.000Z</time>
      </trkpt>
      <trkpt lat="45.584562" lon="7.893285">
        <ele>2317.04932</ele>
        <time>2024-08-08T11:14:46.000Z</time>
      </trkpt>
      <trkpt lat="45.584558" lon="7.893313">
        <ele>2317.44409</ele>
        <time>2024-08-08T11:14:49.000Z</time>
      </trkpt>
      <trkpt lat="45.58457" lon="7.893338">
        <ele>2317.85913</ele>
        <time>2024-08-08T11:14:56.000Z</time>
      </trkpt>
      <trkpt lat="45.584563" lon="7.893365">
        <ele>2318.33423</ele>
        <time>2024-08-08T11:15:01.000Z</time>
      </trkpt>
      <trkpt lat="45.584567" lon="7.893397">
        <ele>2318.78931</ele>
        <time>2024-08-08T11:15:06.000Z</time>
      </trkpt>
      <trkpt lat="45.584555" lon="7.893427">
        <ele>2319.21924</ele>
        <time>2024-08-08T11:15:14.000Z</time>
      </trkpt>
      <trkpt lat="45.58454" lon="7.893457">
        <ele>2319.65918</ele>
        <time>2024-08-08T11:15:19.000Z</time>
      </trkpt>
      <trkpt lat="45.58452" lon="7.893467">
        <ele>2320.0791</ele>
        <time>2024-08-08T11:15:21.000Z</time>
      </trkpt>
      <trkpt lat="45.584503" lon="7.89349">
        <ele>2320.48926</ele>
        <time>2024-08-08T11:15:25.000Z</time>
      </trkpt>
      <trkpt lat="45.58449" lon="7.893522">
        <ele>2320.95435</ele>
        <time>2024-08-08T11:15:29.000Z</time>
      </trkpt>
      <trkpt lat="45.584475" lon="7.893552">
        <ele>2321.43921</ele>
        <time>2024-08-08T11:15:31.000Z</time>
      </trkpt>
      <trkpt lat="45.584472" lon="7.893582">
        <ele>2321.95923</ele>
        <time>2024-08-08T11:15:33.000Z</time>
      </trkpt>
      <trkpt lat="45.584453" lon="7.893583">
        <ele>2322.54907</ele>
        <time>2024-08-08T11:15:35.000Z</time>
      </trkpt>
      <trkpt lat="45.584432" lon="7.893592">
        <ele>2323.17407</ele>
        <time>2024-08-08T11:15:38.000Z</time>
      </trkpt>
      <trkpt lat="45.584413" lon="7.893603">
        <ele>2323.79907</ele>
        <time>2024-08-08T11:15:40.000Z</time>
      </trkpt>
      <trkpt lat="45.584403" lon="7.893628">
        <ele>2324.38428</ele>
        <time>2024-08-08T11:15:43.000Z</time>
      </trkpt>
      <trkpt lat="45.58439" lon="7.893647">
        <ele>2324.96924</ele>
        <time>2024-08-08T11:15:46.000Z</time>
      </trkpt>
      <trkpt lat="45.584377" lon="7.893665">
        <ele>2325.53418</ele>
        <time>2024-08-08T11:15:50.000Z</time>
      </trkpt>
      <trkpt lat="45.584362" lon="7.893687">
        <ele>2326.08423</ele>
        <time>2024-08-08T11:15:54.000Z</time>
      </trkpt>
      <trkpt lat="45.584352" lon="7.893728">
        <ele>2326.57935</ele>
        <time>2024-08-08T11:15:59.000Z</time>
      </trkpt>
      <trkpt lat="45.58435" lon="7.893757">
        <ele>2327.06934</ele>
        <time>2024-08-08T11:16:01.000Z</time>
      </trkpt>
      <trkpt lat="45.58434" lon="7.89378">
        <ele>2327.56934</ele>
        <time>2024-08-08T11:16:06.000Z</time>
      </trkpt>
      <trkpt lat="45.584338" lon="7.893818">
        <ele>2327.98926</ele>
        <time>2024-08-08T11:16:09.000Z</time>
      </trkpt>
      <trkpt lat="45.584333" lon="7.89385">
        <ele>2328.34912</ele>
        <time>2024-08-08T11:16:11.000Z</time>
      </trkpt>
      <trkpt lat="45.584315" lon="7.89387">
        <ele>2328.75928</ele>
        <time>2024-08-08T11:16:14.000Z</time>
      </trkpt>
      <trkpt lat="45.584302" lon="7.893892">
        <ele>2329.27417</ele>
        <time>2024-08-08T11:16:18.000Z</time>
      </trkpt>
      <trkpt lat="45.584285" lon="7.893907">
        <ele>2329.79932</ele>
        <time>2024-08-08T11:16:22.000Z</time>
      </trkpt>
      <trkpt lat="45.584273" lon="7.893935">
        <ele>2330.3042</ele>
        <time>2024-08-08T11:16:28.000Z</time>
      </trkpt>
      <trkpt lat="45.584265" lon="7.893958">
        <ele>2330.8042</ele>
        <time>2024-08-08T11:16:32.000Z</time>
      </trkpt>
      <trkpt lat="45.58426" lon="7.894053">
        <ele>2331.46436</ele>
        <time>2024-08-08T11:17:05.000Z</time>
      </trkpt>
      <trkpt lat="45.58428" lon="7.894048">
        <ele>2331.99438</ele>
        <time>2024-08-08T11:18:59.000Z</time>
      </trkpt>
      <trkpt lat="45.584293" lon="7.894028">
        <ele>2332.46924</ele>
        <time>2024-08-08T11:19:05.000Z</time>
      </trkpt>
      <trkpt lat="45.584308" lon="7.894008">
        <ele>2332.89429</ele>
        <time>2024-08-08T11:19:08.000Z</time>
      </trkpt>
      <trkpt lat="45.584332" lon="7.894003">
        <ele>2333.30933</ele>
        <time>2024-08-08T11:19:12.000Z</time>
      </trkpt>
      <trkpt lat="45.58435" lon="7.894008">
        <ele>2333.75928</ele>
        <time>2024-08-08T11:19:16.000Z</time>
      </trkpt>
      <trkpt lat="45.584375" lon="7.894015">
        <ele>2334.29443</ele>
        <time>2024-08-08T11:19:20.000Z</time>
      </trkpt>
      <trkpt lat="45.584398" lon="7.894013">
        <ele>2334.85425</ele>
        <time>2024-08-08T11:19:24.000Z</time>
      </trkpt>
      <trkpt lat="45.584417" lon="7.894032">
        <ele>2335.56445</ele>
        <time>2024-08-08T11:19:32.000Z</time>
      </trkpt>
      <trkpt lat="45.584438" lon="7.894033">
        <ele>2336.32959</ele>
        <time>2024-08-08T11:19:35.000Z</time>
      </trkpt>
      <trkpt lat="45.584457" lon="7.894043">
        <ele>2337.12451</ele>
        <time>2024-08-08T11:19:38.000Z</time>
      </trkpt>
      <trkpt lat="45.584475" lon="7.894032">
        <ele>2337.92944</ele>
        <time>2024-08-08T11:19:45.000Z</time>
      </trkpt>
      <trkpt lat="45.584492" lon="7.894015">
        <ele>2338.7644</ele>
        <time>2024-08-08T11:19:50.000Z</time>
      </trkpt>
      <trkpt lat="45.584512" lon="7.894015">
        <ele>2339.69458</ele>
        <time>2024-08-08T11:20:01.000Z</time>
      </trkpt>
      <trkpt lat="45.584533" lon="7.894017">
        <ele>2340.61475</ele>
        <time>2024-08-08T11:20:06.000Z</time>
      </trkpt>
      <trkpt lat="45.584553" lon="7.894018">
        <ele>2341.50464</ele>
        <time>2024-08-08T11:20:10.000Z</time>
      </trkpt>
      <trkpt lat="45.584592" lon="7.894018">
        <ele>2342.33447</ele>
        <time>2024-08-08T11:20:19.000Z</time>
      </trkpt>
      <trkpt lat="45.584608" lon="7.894007">
        <ele>2343.14478</ele>
        <time>2024-08-08T11:20:21.000Z</time>
      </trkpt>
      <trkpt lat="45.584637" lon="7.894045">
        <ele>2343.98462</ele>
        <time>2024-08-08T11:20:27.000Z</time>
      </trkpt>
      <trkpt lat="45.584653" lon="7.894065">
        <ele>2344.84937</ele>
        <time>2024-08-08T11:20:30.000Z</time>
      </trkpt>
      <trkpt lat="45.584668" lon="7.894085">
        <ele>2345.50439</ele>
        <time>2024-08-08T11:20:33.000Z</time>
      </trkpt>
      <trkpt lat="45.584687" lon="7.89407">
        <ele>2346.30933</ele>
        <time>2024-08-08T11:20:41.000Z</time>
      </trkpt>
      <trkpt lat="45.58471" lon="7.89407">
        <ele>2347.1145</ele>
        <time>2024-08-08T11:20:46.000Z</time>
      </trkpt>
      <trkpt lat="45.584722" lon="7.894093">
        <ele>2348.03955</ele>
        <time>2024-08-08T11:20:52.000Z</time>
      </trkpt>
      <trkpt lat="45.584742" lon="7.894115">
        <ele>2349.03442</ele>
        <time>2024-08-08T11:21:06.000Z</time>
      </trkpt>
      <trkpt lat="45.584752" lon="7.89414">
        <ele>2350.00928</ele>
        <time>2024-08-08T11:21:09.000Z</time>
      </trkpt>
      <trkpt lat="45.58477" lon="7.894132">
        <ele>2350.95435</ele>
        <time>2024-08-08T11:21:14.000Z</time>
      </trkpt>
      <trkpt lat="45.584775" lon="7.894102">
        <ele>2351.94434</ele>
        <time>2024-08-08T11:21:18.000Z</time>
      </trkpt>
      <trkpt lat="45.584795" lon="7.894093">
        <ele>2352.81934</ele>
        <time>2024-08-08T11:21:23.000Z</time>
      </trkpt>
      <trkpt lat="45.584813" lon="7.894093">
        <ele>2353.74438</ele>
        <time>2024-08-08T11:21:30.000Z</time>
      </trkpt>
      <trkpt lat="45.584832" lon="7.894073">
        <ele>2354.67432</ele>
        <time>2024-08-08T11:21:35.000Z</time>
      </trkpt>
      <trkpt lat="45.584852" lon="7.894067">
        <ele>2355.59937</ele>
        <time>2024-08-08T11:21:41.000Z</time>
      </trkpt>
      <trkpt lat="45.584872" lon="7.89408">
        <ele>2356.46436</ele>
        <time>2024-08-08T11:21:46.000Z</time>
      </trkpt>
      <trkpt lat="45.584898" lon="7.894097">
        <ele>2357.22949</ele>
        <time>2024-08-08T11:21:57.000Z</time>
      </trkpt>
      <trkpt lat="45.584917" lon="7.894107">
        <ele>2357.98438</ele>
        <time>2024-08-08T11:22:01.000Z</time>
      </trkpt>
      <trkpt lat="45.584925" lon="7.89413">
        <ele>2358.78442</ele>
        <time>2024-08-08T11:22:10.000Z</time>
      </trkpt>
      <trkpt lat="45.584937" lon="7.894157">
        <ele>2359.52954</ele>
        <time>2024-08-08T11:22:14.000Z</time>
      </trkpt>
      <trkpt lat="45.584952" lon="7.894185">
        <ele>2360.25439</ele>
        <time>2024-08-08T11:22:16.000Z</time>
      </trkpt>
      <trkpt lat="45.58495" lon="7.894222">
        <ele>2360.90454</ele>
        <time>2024-08-08T11:22:18.000Z</time>
      </trkpt>
      <trkpt lat="45.584928" lon="7.89424">
        <ele>2361.51953</ele>
        <time>2024-08-08T11:22:20.000Z</time>
      </trkpt>
      <trkpt lat="45.584907" lon="7.894252">
        <ele>2362.2644</ele>
        <time>2024-08-08T11:22:33.000Z</time>
      </trkpt>
      <trkpt lat="45.584893" lon="7.894273">
        <ele>2362.93945</ele>
        <time>2024-08-08T11:24:27.000Z</time>
      </trkpt>
      <trkpt lat="45.584935" lon="7.894233">
        <ele>2363.43945</ele>
        <time>2024-08-08T11:24:44.000Z</time>
      </trkpt>
      <trkpt lat="45.584937" lon="7.894262">
        <ele>2363.83447</ele>
        <time>2024-08-08T11:24:48.000Z</time>
      </trkpt>
      <trkpt lat="45.584918" lon="7.894265">
        <ele>2364.11475</ele>
        <time>2024-08-08T11:24:50.000Z</time>
      </trkpt>
      <trkpt lat="45.584898" lon="7.89426">
        <ele>2364.36475</ele>
        <time>2024-08-08T11:24:52.000Z</time>
      </trkpt>
      <trkpt lat="45.584878" lon="7.894243">
        <ele>2364.5896</ele>
        <time>2024-08-08T11:24:54.000Z</time>
      </trkpt>
      <trkpt lat="45.58486" lon="7.894238">
        <ele>2364.73975</ele>
        <time>2024-08-08T11:24:56.000Z</time>
      </trkpt>
      <trkpt lat="45.584842" lon="7.894235">
        <ele>2364.85449</ele>
        <time>2024-08-08T11:24:58.000Z</time>
      </trkpt>
      <trkpt lat="45.58485" lon="7.894262">
        <ele>2364.88452</ele>
        <time>2024-08-08T11:25:29.000Z</time>
      </trkpt>
      <trkpt lat="45.58487" lon="7.894282">
        <ele>2364.94458</ele>
        <time>2024-08-08T11:25:32.000Z</time>
      </trkpt>
      <trkpt lat="45.58489" lon="7.894283">
        <ele>2365.05444</ele>
        <time>2024-08-08T11:25:36.000Z</time>
      </trkpt>
      <trkpt lat="45.5849" lon="7.894262">
        <ele>2365.20459</ele>
        <time>2024-08-08T11:25:42.000Z</time>
      </trkpt>
      <trkpt lat="45.5849" lon="7.894233">
        <ele>2365.38428</ele>
        <time>2024-08-08T11:25:45.000Z</time>
      </trkpt>
      <trkpt lat="45.584932" lon="7.894232">
        <ele>2365.5144</ele>
        <time>2024-08-08T11:26:26.000Z</time>
      </trkpt>
      <trkpt lat="45.58495" lon="7.894232">
        <ele>2365.58936</ele>
        <time>2024-08-08T11:26:29.000Z</time>
      </trkpt>
      <trkpt lat="45.584972" lon="7.894213">
        <ele>2365.69434</ele>
        <time>2024-08-08T11:26:31.000Z</time>
      </trkpt>
      <trkpt lat="45.585002" lon="7.894202">
        <ele>2365.81934</ele>
        <time>2024-08-08T11:26:33.000Z</time>
      </trkpt>
      <trkpt lat="45.585027" lon="7.894195">
        <ele>2365.97437</ele>
        <time>2024-08-08T11:26:35.000Z</time>
      </trkpt>
      <trkpt lat="45.58505" lon="7.894187">
        <ele>2366.10938</ele>
        <time>2024-08-08T11:26:37.000Z</time>
      </trkpt>
      <trkpt lat="45.585068" lon="7.894177">
        <ele>2366.06445</ele>
        <time>2024-08-08T11:26:40.000Z</time>
      </trkpt>
      <trkpt lat="45.585082" lon="7.894155">
        <ele>2365.99463</ele>
        <time>2024-08-08T11:26:42.000Z</time>
      </trkpt>
      <trkpt lat="45.585102" lon="7.894158">
        <ele>2366.12451</ele>
        <time>2024-08-08T11:26:46.000Z</time>
      </trkpt>
      <trkpt lat="45.58512" lon="7.894138">
        <ele>2366.27441</ele>
        <time>2024-08-08T11:26:50.000Z</time>
      </trkpt>
      <trkpt lat="45.585122" lon="7.894112">
        <ele>2366.45459</ele>
        <time>2024-08-08T11:26:53.000Z</time>
      </trkpt>
      <trkpt lat="45.585138" lon="7.894085">
        <ele>2366.69458</ele>
        <time>2024-08-08T11:26:56.000Z</time>
      </trkpt>
      <trkpt lat="45.585153" lon="7.894057">
        <ele>2366.9397</ele>
        <time>2024-08-08T11:27:02.000Z</time>
      </trkpt>
      <trkpt lat="45.585173" lon="7.894043">
        <ele>2367.19458</ele>
        <time>2024-08-08T11:27:04.000Z</time>
      </trkpt>
      <trkpt lat="45.5852" lon="7.894027">
        <ele>2367.48462</ele>
        <time>2024-08-08T11:27:07.000Z</time>
      </trkpt>
      <trkpt lat="45.585225" lon="7.894028">
        <ele>2367.81445</ele>
        <time>2024-08-08T11:27:09.000Z</time>
      </trkpt>
      <trkpt lat="45.585243" lon="7.89403">
        <ele>2368.09937</ele>
        <time>2024-08-08T11:27:11.000Z</time>
      </trkpt>
      <trkpt lat="45.585263" lon="7.894027">
        <ele>2368.34424</ele>
        <time>2024-08-08T11:27:14.000Z</time>
      </trkpt>
      <trkpt lat="45.585287" lon="7.89402">
        <ele>2368.56934</ele>
        <time>2024-08-08T11:27:19.000Z</time>
      </trkpt>
      <trkpt lat="45.58531" lon="7.894013">
        <ele>2368.76929</ele>
        <time>2024-08-08T11:27:22.000Z</time>
      </trkpt>
      <trkpt lat="45.585328" lon="7.894008">
        <ele>2369.03931</ele>
        <time>2024-08-08T11:27:26.000Z</time>
      </trkpt>
      <trkpt lat="45.585348" lon="7.89401">
        <ele>2369.28931</ele>
        <time>2024-08-08T11:27:29.000Z</time>
      </trkpt>
      <trkpt lat="45.585372" lon="7.894008">
        <ele>2369.44922</ele>
        <time>2024-08-08T11:27:32.000Z</time>
      </trkpt>
      <trkpt lat="45.58539" lon="7.894013">
        <ele>2369.5791</ele>
        <time>2024-08-08T11:27:34.000Z</time>
      </trkpt>
      <trkpt lat="45.585417" lon="7.894013">
        <ele>2369.67407</ele>
        <time>2024-08-08T11:27:36.000Z</time>
      </trkpt>
      <trkpt lat="45.585433" lon="7.894003">
        <ele>2369.77905</ele>
        <time>2024-08-08T11:27:38.000Z</time>
      </trkpt>
      <trkpt lat="45.58545" lon="7.893988">
        <ele>2369.88916</ele>
        <time>2024-08-08T11:27:41.000Z</time>
      </trkpt>
      <trkpt lat="45.585472" lon="7.893993">
        <ele>2370.04419</ele>
        <time>2024-08-08T11:27:44.000Z</time>
      </trkpt>
      <trkpt lat="45.585495" lon="7.893987">
        <ele>2370.15918</ele>
        <time>2024-08-08T11:27:48.000Z</time>
      </trkpt>
      <trkpt lat="45.585517" lon="7.893975">
        <ele>2370.20923</ele>
        <time>2024-08-08T11:27:51.000Z</time>
      </trkpt>
      <trkpt lat="45.585535" lon="7.89397">
        <ele>2370.23413</ele>
        <time>2024-08-08T11:27:53.000Z</time>
      </trkpt>
      <trkpt lat="45.58555" lon="7.893955">
        <ele>2370.21924</ele>
        <time>2024-08-08T11:27:55.000Z</time>
      </trkpt>
      <trkpt lat="45.585568" lon="7.89396">
        <ele>2370.1792</ele>
        <time>2024-08-08T11:27:59.000Z</time>
      </trkpt>
      <trkpt lat="45.58559" lon="7.893952">
        <ele>2370.104</ele>
        <time>2024-08-08T11:28:02.000Z</time>
      </trkpt>
      <trkpt lat="45.585608" lon="7.893945">
        <ele>2369.98901</ele>
        <time>2024-08-08T11:28:04.000Z</time>
      </trkpt>
      <trkpt lat="45.58563" lon="7.893993">
        <ele>2369.8291</ele>
        <time>2024-08-08T11:28:28.000Z</time>
      </trkpt>
      <trkpt lat="45.585653" lon="7.89399">
        <ele>2369.69409</ele>
        <time>2024-08-08T11:28:30.000Z</time>
      </trkpt>
      <trkpt lat="45.585675" lon="7.893987">
        <ele>2369.58936</ele>
        <time>2024-08-08T11:28:34.000Z</time>
      </trkpt>
      <trkpt lat="45.585692" lon="7.893997">
        <ele>2369.46924</ele>
        <time>2024-08-08T11:28:36.000Z</time>
      </trkpt>
      <trkpt lat="45.585713" lon="7.893997">
        <ele>2369.33936</ele>
        <time>2024-08-08T11:28:42.000Z</time>
      </trkpt>
      <trkpt lat="45.585728" lon="7.894018">
        <ele>2369.22461</ele>
        <time>2024-08-08T11:28:45.000Z</time>
      </trkpt>
      <trkpt lat="45.585752" lon="7.894027">
        <ele>2369.12451</ele>
        <time>2024-08-08T11:28:47.000Z</time>
      </trkpt>
      <trkpt lat="45.585768" lon="7.894037">
        <ele>2369.0896</ele>
        <time>2024-08-08T11:28:50.000Z</time>
      </trkpt>
      <trkpt lat="45.58579" lon="7.894022">
        <ele>2369.03955</ele>
        <time>2024-08-08T11:28:54.000Z</time>
      </trkpt>
      <trkpt lat="45.585813" lon="7.894025">
        <ele>2369.01465</ele>
        <time>2024-08-08T11:28:57.000Z</time>
      </trkpt>
      <trkpt lat="45.585832" lon="7.894028">
        <ele>2369.00952</ele>
        <time>2024-08-08T11:28:59.000Z</time>
      </trkpt>
      <trkpt lat="45.58585" lon="7.894027">
        <ele>2369.00952</ele>
        <time>2024-08-08T11:29:01.000Z</time>
      </trkpt>
      <trkpt lat="45.585868" lon="7.894035">
        <ele>2368.99951</ele>
        <time>2024-08-08T11:29:03.000Z</time>
      </trkpt>
      <trkpt lat="45.585888" lon="7.89404">
        <ele>2369.04443</ele>
        <time>2024-08-08T11:29:06.000Z</time>
      </trkpt>
      <trkpt lat="45.585913" lon="7.894042">
        <ele>2369.14429</ele>
        <time>2024-08-08T11:29:09.000Z</time>
      </trkpt>
      <trkpt lat="45.585932" lon="7.894038">
        <ele>2369.29443</ele>
        <time>2024-08-08T11:29:11.000Z</time>
      </trkpt>
      <trkpt lat="45.58595" lon="7.89405">
        <ele>2369.47437</ele>
        <time>2024-08-08T11:29:13.000Z</time>
      </trkpt>
      <trkpt lat="45.585965" lon="7.894067">
        <ele>2369.71924</ele>
        <time>2024-08-08T11:29:15.000Z</time>
      </trkpt>
      <trkpt lat="45.585985" lon="7.894073">
        <ele>2369.99951</ele>
        <time>2024-08-08T11:29:18.000Z</time>
      </trkpt>
      <trkpt lat="45.586003" lon="7.894077">
        <ele>2370.30957</ele>
        <time>2024-08-08T11:29:20.000Z</time>
      </trkpt>
      <trkpt lat="45.586025" lon="7.894065">
        <ele>2370.62451</ele>
        <time>2024-08-08T11:29:25.000Z</time>
      </trkpt>
      <trkpt lat="45.586043" lon="7.894067">
        <ele>2370.9397</ele>
        <time>2024-08-08T11:29:27.000Z</time>
      </trkpt>
      <trkpt lat="45.586062" lon="7.894083">
        <ele>2371.21948</ele>
        <time>2024-08-08T11:29:29.000Z</time>
      </trkpt>
      <trkpt lat="45.586082" lon="7.894105">
        <ele>2371.49463</ele>
        <time>2024-08-08T11:29:32.000Z</time>
      </trkpt>
      <trkpt lat="45.586102" lon="7.894107">
        <ele>2371.80444</ele>
        <time>2024-08-08T11:29:35.000Z</time>
      </trkpt>
      <trkpt lat="45.586123" lon="7.894113">
        <ele>2372.10938</ele>
        <time>2024-08-08T11:29:38.000Z</time>
      </trkpt>
      <trkpt lat="45.586142" lon="7.894113">
        <ele>2372.41943</ele>
        <time>2024-08-08T11:29:41.000Z</time>
      </trkpt>
      <trkpt lat="45.586167" lon="7.894123">
        <ele>2372.70435</ele>
        <time>2024-08-08T11:29:44.000Z</time>
      </trkpt>
      <trkpt lat="45.586185" lon="7.894125">
        <ele>2372.97437</ele>
        <time>2024-08-08T11:29:49.000Z</time>
      </trkpt>
      <trkpt lat="45.586202" lon="7.894112">
        <ele>2373.21436</ele>
        <time>2024-08-08T11:29:53.000Z</time>
      </trkpt>
      <trkpt lat="45.58623" lon="7.8941">
        <ele>2373.43945</ele>
        <time>2024-08-08T11:29:58.000Z</time>
      </trkpt>
      <trkpt lat="45.586248" lon="7.894102">
        <ele>2373.67944</ele>
        <time>2024-08-08T11:30:02.000Z</time>
      </trkpt>
      <trkpt lat="45.586268" lon="7.894117">
        <ele>2373.90967</ele>
        <time>2024-08-08T11:30:06.000Z</time>
      </trkpt>
      <trkpt lat="45.586287" lon="7.894123">
        <ele>2374.11963</ele>
        <time>2024-08-08T11:30:10.000Z</time>
      </trkpt>
      <trkpt lat="45.586305" lon="7.894135">
        <ele>2374.28467</ele>
        <time>2024-08-08T11:30:14.000Z</time>
      </trkpt>
      <trkpt lat="45.586325" lon="7.894142">
        <ele>2374.41455</ele>
        <time>2024-08-08T11:30:18.000Z</time>
      </trkpt>
      <trkpt lat="45.586343" lon="7.894135">
        <ele>2374.53955</ele>
        <time>2024-08-08T11:30:22.000Z</time>
      </trkpt>
      <trkpt lat="45.586375" lon="7.89414">
        <ele>2374.70972</ele>
        <time>2024-08-08T11:30:27.000Z</time>
      </trkpt>
      <trkpt lat="45.586395" lon="7.894137">
        <ele>2374.86963</ele>
        <time>2024-08-08T11:30:29.000Z</time>
      </trkpt>
      <trkpt lat="45.586415" lon="7.894122">
        <ele>2375.02979</ele>
        <time>2024-08-08T11:30:34.000Z</time>
      </trkpt>
      <trkpt lat="45.586432" lon="7.894108">
        <ele>2375.2146</ele>
        <time>2024-08-08T11:30:37.000Z</time>
      </trkpt>
      <trkpt lat="45.586442" lon="7.894022">
        <ele>2375.37964</ele>
        <time>2024-08-08T11:30:50.000Z</time>
      </trkpt>
      <trkpt lat="45.586423" lon="7.894007">
        <ele>2375.51978</ele>
        <time>2024-08-08T11:30:54.000Z</time>
      </trkpt>
      <trkpt lat="45.58639" lon="7.89397">
        <ele>2375.74463</ele>
        <time>2024-08-08T11:31:04.000Z</time>
      </trkpt>
      <trkpt lat="45.586373" lon="7.893957">
        <ele>2375.95972</ele>
        <time>2024-08-08T11:31:07.000Z</time>
      </trkpt>
      <trkpt lat="45.586357" lon="7.893935">
        <ele>2376.13989</ele>
        <time>2024-08-08T11:31:11.000Z</time>
      </trkpt>
      <trkpt lat="45.58634" lon="7.89392">
        <ele>2376.32471</ele>
        <time>2024-08-08T11:31:14.000Z</time>
      </trkpt>
      <trkpt lat="45.586322" lon="7.893905">
        <ele>2376.53979</ele>
        <time>2024-08-08T11:31:17.000Z</time>
      </trkpt>
      <trkpt lat="45.586303" lon="7.893903">
        <ele>2376.81494</ele>
        <time>2024-08-08T11:31:20.000Z</time>
      </trkpt>
      <trkpt lat="45.586282" lon="7.893897">
        <ele>2377.18506</ele>
        <time>2024-08-08T11:31:24.000Z</time>
      </trkpt>
      <trkpt lat="45.586267" lon="7.893882">
        <ele>2377.56494</ele>
        <time>2024-08-08T11:31:27.000Z</time>
      </trkpt>
      <trkpt lat="45.586253" lon="7.893855">
        <ele>2377.8999</ele>
        <time>2024-08-08T11:31:30.000Z</time>
      </trkpt>
      <trkpt lat="45.586245" lon="7.893828">
        <ele>2378.21997</ele>
        <time>2024-08-08T11:31:34.000Z</time>
      </trkpt>
      <trkpt lat="45.586228" lon="7.893815">
        <ele>2378.59985</ele>
        <time>2024-08-08T11:31:42.000Z</time>
      </trkpt>
      <trkpt lat="45.586217" lon="7.893793">
        <ele>2379.0249</ele>
        <time>2024-08-08T11:31:46.000Z</time>
      </trkpt>
      <trkpt lat="45.586233" lon="7.893775">
        <ele>2379.62476</ele>
        <time>2024-08-08T11:31:59.000Z</time>
      </trkpt>
      <trkpt lat="45.586252" lon="7.893768">
        <ele>2380.24976</ele>
        <time>2024-08-08T11:32:02.000Z</time>
      </trkpt>
      <trkpt lat="45.58627" lon="7.893757">
        <ele>2380.84473</ele>
        <time>2024-08-08T11:32:05.000Z</time>
      </trkpt>
      <trkpt lat="45.586287" lon="7.893747">
        <ele>2381.51978</ele>
        <time>2024-08-08T11:32:10.000Z</time>
      </trkpt>
      <trkpt lat="45.586302" lon="7.893732">
        <ele>2382.24463</ele>
        <time>2024-08-08T11:32:14.000Z</time>
      </trkpt>
      <trkpt lat="45.586322" lon="7.893725">
        <ele>2383.00977</ele>
        <time>2024-08-08T11:32:18.000Z</time>
      </trkpt>
      <trkpt lat="45.58634" lon="7.89372">
        <ele>2383.80981</ele>
        <time>2024-08-08T11:32:21.000Z</time>
      </trkpt>
      <trkpt lat="45.58636" lon="7.893713">
        <ele>2384.65967</ele>
        <time>2024-08-08T11:32:26.000Z</time>
      </trkpt>
      <trkpt lat="45.586392" lon="7.893682">
        <ele>2385.51465</ele>
        <time>2024-08-08T11:32:34.000Z</time>
      </trkpt>
      <trkpt lat="45.586375" lon="7.893668">
        <ele>2386.35962</ele>
        <time>2024-08-08T11:32:37.000Z</time>
      </trkpt>
      <trkpt lat="45.586367" lon="7.893645">
        <ele>2387.21436</ele>
        <time>2024-08-08T11:32:41.000Z</time>
      </trkpt>
      <trkpt lat="45.586362" lon="7.89362">
        <ele>2388.11963</ele>
        <time>2024-08-08T11:32:51.000Z</time>
      </trkpt>
      <trkpt lat="45.58637" lon="7.893567">
        <ele>2389.07471</ele>
        <time>2024-08-08T11:33:00.000Z</time>
      </trkpt>
      <trkpt lat="45.586353" lon="7.893555">
        <ele>2390.02466</ele>
        <time>2024-08-08T11:33:02.000Z</time>
      </trkpt>
      <trkpt lat="45.586347" lon="7.89353">
        <ele>2390.96948</ele>
        <time>2024-08-08T11:33:10.000Z</time>
      </trkpt>
      <trkpt lat="45.58634" lon="7.893497">
        <ele>2391.8894</ele>
        <time>2024-08-08T11:33:14.000Z</time>
      </trkpt>
      <trkpt lat="45.586322" lon="7.893488">
        <ele>2392.83447</ele>
        <time>2024-08-08T11:33:18.000Z</time>
      </trkpt>
      <trkpt lat="45.5863" lon="7.893488">
        <ele>2393.78955</ele>
        <time>2024-08-08T11:33:21.000Z</time>
      </trkpt>
      <trkpt lat="45.58628" lon="7.893483">
        <ele>2394.65967</ele>
        <time>2024-08-08T11:33:23.000Z</time>
      </trkpt>
      <trkpt lat="45.586257" lon="7.893492">
        <ele>2395.54932</ele>
        <time>2024-08-08T11:33:26.000Z</time>
      </trkpt>
      <trkpt lat="45.586238" lon="7.89348">
        <ele>2396.31445</ele>
        <time>2024-08-08T11:33:29.000Z</time>
      </trkpt>
      <trkpt lat="45.58622" lon="7.893472">
        <ele>2397.07959</ele>
        <time>2024-08-08T11:33:32.000Z</time>
      </trkpt>
      <trkpt lat="45.586197" lon="7.893472">
        <ele>2397.84448</ele>
        <time>2024-08-08T11:33:36.000Z</time>
      </trkpt>
      <trkpt lat="45.586177" lon="7.893462">
        <ele>2398.59961</ele>
        <time>2024-08-08T11:33:40.000Z</time>
      </trkpt>
      <trkpt lat="45.586155" lon="7.893455">
        <ele>2399.32959</ele>
        <time>2024-08-08T11:33:46.000Z</time>
      </trkpt>
      <trkpt lat="45.58614" lon="7.893438">
        <ele>2400.02954</ele>
        <time>2024-08-08T11:33:51.000Z</time>
      </trkpt>
      <trkpt lat="45.586133" lon="7.89341">
        <ele>2400.67432</ele>
        <time>2024-08-08T11:33:54.000Z</time>
      </trkpt>
      <trkpt lat="45.586122" lon="7.893385">
        <ele>2401.27441</ele>
        <time>2024-08-08T11:33:57.000Z</time>
      </trkpt>
      <trkpt lat="45.586105" lon="7.893365">
        <ele>2401.78955</ele>
        <time>2024-08-08T11:34:00.000Z</time>
      </trkpt>
      <trkpt lat="45.586088" lon="7.893347">
        <ele>2402.29443</ele>
        <time>2024-08-08T11:34:04.000Z</time>
      </trkpt>
      <trkpt lat="45.586072" lon="7.893335">
        <ele>2402.8147</ele>
        <time>2024-08-08T11:34:07.000Z</time>
      </trkpt>
      <trkpt lat="45.586055" lon="7.893325">
        <ele>2403.33447</ele>
        <time>2024-08-08T11:34:13.000Z</time>
      </trkpt>
      <trkpt lat="45.586045" lon="7.893303">
        <ele>2403.82471</ele>
        <time>2024-08-08T11:34:19.000Z</time>
      </trkpt>
      <trkpt lat="45.586037" lon="7.893275">
        <ele>2404.32959</ele>
        <time>2024-08-08T11:34:23.000Z</time>
      </trkpt>
      <trkpt lat="45.586018" lon="7.89327">
        <ele>2404.78955</ele>
        <time>2024-08-08T11:34:31.000Z</time>
      </trkpt>
      <trkpt lat="45.585982" lon="7.893232">
        <ele>2405.29956</ele>
        <time>2024-08-08T11:34:41.000Z</time>
      </trkpt>
      <trkpt lat="45.585952" lon="7.893212">
        <ele>2405.92969</ele>
        <time>2024-08-08T11:34:55.000Z</time>
      </trkpt>
      <trkpt lat="45.585932" lon="7.893167">
        <ele>2406.65967</ele>
        <time>2024-08-08T11:35:02.000Z</time>
      </trkpt>
      <trkpt lat="45.585923" lon="7.893143">
        <ele>2407.4646</ele>
        <time>2024-08-08T11:35:06.000Z</time>
      </trkpt>
      <trkpt lat="45.585935" lon="7.893122">
        <ele>2408.2998</ele>
        <time>2024-08-08T11:35:12.000Z</time>
      </trkpt>
      <trkpt lat="45.585923" lon="7.893095">
        <ele>2409.16968</ele>
        <time>2024-08-08T11:35:17.000Z</time>
      </trkpt>
      <trkpt lat="45.585913" lon="7.893068">
        <ele>2410.01978</ele>
        <time>2024-08-08T11:35:21.000Z</time>
      </trkpt>
      <trkpt lat="45.58592" lon="7.893037">
        <ele>2410.86475</ele>
        <time>2024-08-08T11:35:26.000Z</time>
      </trkpt>
      <trkpt lat="45.585923" lon="7.893">
        <ele>2411.69971</ele>
        <time>2024-08-08T11:35:31.000Z</time>
      </trkpt>
      <trkpt lat="45.585935" lon="7.89297">
        <ele>2412.54956</ele>
        <time>2024-08-08T11:35:34.000Z</time>
      </trkpt>
      <trkpt lat="45.585955" lon="7.892952">
        <ele>2413.38965</ele>
        <time>2024-08-08T11:35:37.000Z</time>
      </trkpt>
      <trkpt lat="45.585973" lon="7.89295">
        <ele>2414.23975</ele>
        <time>2024-08-08T11:35:39.000Z</time>
      </trkpt>
      <trkpt lat="45.585992" lon="7.892952">
        <ele>2415.08447</ele>
        <time>2024-08-08T11:35:42.000Z</time>
      </trkpt>
      <trkpt lat="45.586015" lon="7.89297">
        <ele>2415.91943</ele>
        <time>2024-08-08T11:35:45.000Z</time>
      </trkpt>
      <trkpt lat="45.586032" lon="7.892987">
        <ele>2416.79932</ele>
        <time>2024-08-08T11:35:49.000Z</time>
      </trkpt>
      <trkpt lat="45.586013" lon="7.892992">
        <ele>2417.84424</ele>
        <time>2024-08-08T11:38:41.000Z</time>
      </trkpt>
      <trkpt lat="45.585995" lon="7.893008">
        <ele>2418.82446</ele>
        <time>2024-08-08T11:38:45.000Z</time>
      </trkpt>
      <trkpt lat="45.585983" lon="7.89303">
        <ele>2419.76416</ele>
        <time>2024-08-08T11:38:48.000Z</time>
      </trkpt>
      <trkpt lat="45.58598" lon="7.893057">
        <ele>2420.6543</ele>
        <time>2024-08-08T11:38:54.000Z</time>
      </trkpt>
      <trkpt lat="45.585985" lon="7.893032">
        <ele>2421.46436</ele>
        <time>2024-08-08T11:39:20.000Z</time>
      </trkpt>
      <trkpt lat="45.585997" lon="7.893008">
        <ele>2422.21924</ele>
        <time>2024-08-08T11:39:23.000Z</time>
      </trkpt>
      <trkpt lat="45.585982" lon="7.893027">
        <ele>2422.89404</ele>
        <time>2024-08-08T11:39:47.000Z</time>
      </trkpt>
      <trkpt lat="45.586005" lon="7.892998">
        <ele>2423.40405</ele>
        <time>2024-08-08T11:40:46.000Z</time>
      </trkpt>
      <trkpt lat="45.586023" lon="7.892977">
        <ele>2423.70923</ele>
        <time>2024-08-08T11:41:09.000Z</time>
      </trkpt>
      <trkpt lat="45.586005" lon="7.89297">
        <ele>2423.91406</ele>
        <time>2024-08-08T11:41:14.000Z</time>
      </trkpt>
      <trkpt lat="45.585978" lon="7.893">
        <ele>2424.06396</ele>
        <time>2024-08-08T11:41:31.000Z</time>
      </trkpt>
      <trkpt lat="45.58602" lon="7.892982">
        <ele>2424.17407</ele>
        <time>2024-08-08T11:42:03.000Z</time>
      </trkpt>
      <trkpt lat="45.58604" lon="7.892992">
        <ele>2424.3042</ele>
        <time>2024-08-08T11:42:09.000Z</time>
      </trkpt>
      <trkpt lat="45.586058" lon="7.892998">
        <ele>2424.39404</ele>
        <time>2024-08-08T11:42:13.000Z</time>
      </trkpt>
      <trkpt lat="45.586037" lon="7.89299">
        <ele>2424.47925</ele>
        <time>2024-08-08T11:44:49.000Z</time>
      </trkpt>
      <trkpt lat="45.586058" lon="7.893018">
        <ele>2424.47412</ele>
        <time>2024-08-08T11:47:08.000Z</time>
      </trkpt>
      <trkpt lat="45.586052" lon="7.892993">
        <ele>2424.46924</ele>
        <time>2024-08-08T11:47:28.000Z</time>
      </trkpt>
      <trkpt lat="45.586077" lon="7.893068">
        <ele>2424.35913</ele>
        <time>2024-08-08T11:50:10.000Z</time>
      </trkpt>
      <trkpt lat="45.586052" lon="7.89301">
        <ele>2424.25439</ele>
        <time>2024-08-08T11:50:54.000Z</time>
      </trkpt>
      <trkpt lat="45.58604" lon="7.892955">
        <ele>2424.2644</ele>
        <time>2024-08-08T11:51:51.000Z</time>
      </trkpt>
      <trkpt lat="45.586043" lon="7.892987">
        <ele>2424.08447</ele>
        <time>2024-08-08T11:51:55.000Z</time>
      </trkpt>
      <trkpt lat="45.586052" lon="7.893012">
        <ele>2423.80957</ele>
        <time>2024-08-08T11:52:05.000Z</time>
      </trkpt>
      <trkpt lat="45.58605" lon="7.89304">
        <ele>2423.48462</ele>
        <time>2024-08-08T11:52:13.000Z</time>
      </trkpt>
      <trkpt lat="45.586032" lon="7.893027">
        <ele>2423.06958</ele>
        <time>2024-08-08T11:52:28.000Z</time>
      </trkpt>
      <trkpt lat="45.586082" lon="7.89315">
        <ele>2422.71948</ele>
        <time>2024-08-08T11:52:40.000Z</time>
      </trkpt>
      <trkpt lat="45.586102" lon="7.89318">
        <ele>2422.4397</ele>
        <time>2024-08-08T11:52:42.000Z</time>
      </trkpt>
      <trkpt lat="45.586095" lon="7.893148">
        <ele>2422.20459</ele>
        <time>2024-08-08T11:52:57.000Z</time>
      </trkpt>
      <trkpt lat="45.586093" lon="7.893122">
        <ele>2422.03955</ele>
        <time>2024-08-08T11:53:00.000Z</time>
      </trkpt>
      <trkpt lat="45.586085" lon="7.893093">
        <ele>2422.01465</ele>
        <time>2024-08-08T11:53:04.000Z</time>
      </trkpt>
      <trkpt lat="45.58607" lon="7.893078">
        <ele>2422.02466</ele>
        <time>2024-08-08T11:53:09.000Z</time>
      </trkpt>
      <trkpt lat="45.58605" lon="7.893087">
        <ele>2422.0647</ele>
        <time>2024-08-08T11:53:21.000Z</time>
      </trkpt>
      <trkpt lat="45.586035" lon="7.893072">
        <ele>2421.92969</ele>
        <time>2024-08-08T11:53:42.000Z</time>
      </trkpt>
      <trkpt lat="45.586027" lon="7.893045">
        <ele>2421.71973</ele>
        <time>2024-08-08T11:53:44.000Z</time>
      </trkpt>
      <trkpt lat="45.586023" lon="7.893002">
        <ele>2421.51465</ele>
        <time>2024-08-08T11:53:46.000Z</time>
      </trkpt>
      <trkpt lat="45.58604" lon="7.893023">
        <ele>2421.32471</ele>
        <time>2024-08-08T11:53:54.000Z</time>
      </trkpt>
      <trkpt lat="45.58603" lon="7.892998">
        <ele>2421.17969</ele>
        <time>2024-08-08T11:54:03.000Z</time>
      </trkpt>
      <trkpt lat="45.586025" lon="7.892973">
        <ele>2421.0498</ele>
        <time>2024-08-08T11:54:08.000Z</time>
      </trkpt>
      <trkpt lat="45.586017" lon="7.892945">
        <ele>2421.04492</ele>
        <time>2024-08-08T11:54:13.000Z</time>
      </trkpt>
      <trkpt lat="45.586015" lon="7.892975">
        <ele>2421.10986</ele>
        <time>2024-08-08T11:54:21.000Z</time>
      </trkpt>
      <trkpt lat="45.586027" lon="7.893007">
        <ele>2421.02979</ele>
        <time>2024-08-08T11:54:25.000Z</time>
      </trkpt>
      <trkpt lat="45.586038" lon="7.89303">
        <ele>2420.99463</ele>
        <time>2024-08-08T11:54:32.000Z</time>
      </trkpt>
      <trkpt lat="45.586048" lon="7.893057">
        <ele>2421.06958</ele>
        <time>2024-08-08T11:54:38.000Z</time>
      </trkpt>
      <trkpt lat="45.586067" lon="7.893075">
        <ele>2421.19458</ele>
        <time>2024-08-08T11:54:42.000Z</time>
      </trkpt>
      <trkpt lat="45.586048" lon="7.893055">
        <ele>2421.47949</ele>
        <time>2024-08-08T11:54:57.000Z</time>
      </trkpt>
      <trkpt lat="45.586038" lon="7.893032">
        <ele>2421.76465</ele>
        <time>2024-08-08T11:54:59.000Z</time>
      </trkpt>
      <trkpt lat="45.58603" lon="7.893005">
        <ele>2421.99463</ele>
        <time>2024-08-08T11:55:01.000Z</time>
      </trkpt>
      <trkpt lat="45.586048" lon="7.893047">
        <ele>2422.13452</ele>
        <time>2024-08-08T11:55:21.000Z</time>
      </trkpt>
      <trkpt lat="45.586057" lon="7.893073">
        <ele>2422.28955</ele>
        <time>2024-08-08T11:55:28.000Z</time>
      </trkpt>
      <trkpt lat="45.586048" lon="7.893048">
        <ele>2422.47974</ele>
        <time>2024-08-08T11:55:31.000Z</time>
      </trkpt>
      <trkpt lat="45.58603" lon="7.893038">
        <ele>2422.66968</ele>
        <time>2024-08-08T11:55:51.000Z</time>
      </trkpt>
      <trkpt lat="45.58603" lon="7.893077">
        <ele>2422.76489</ele>
        <time>2024-08-08T11:55:55.000Z</time>
      </trkpt>
      <trkpt lat="45.58602" lon="7.893052">
        <ele>2423.0498</ele>
        <time>2024-08-08T11:56:01.000Z</time>
      </trkpt>
      <trkpt lat="45.586015" lon="7.893018">
        <ele>2423.34473</ele>
        <time>2024-08-08T11:56:04.000Z</time>
      </trkpt>
      <trkpt lat="45.585997" lon="7.893025">
        <ele>2423.61963</ele>
        <time>2024-08-08T11:56:16.000Z</time>
      </trkpt>
      <trkpt lat="45.585988" lon="7.892993">
        <ele>2423.84961</ele>
        <time>2024-08-08T11:56:20.000Z</time>
      </trkpt>
      <trkpt lat="45.586002" lon="7.89296">
        <ele>2424.17944</ele>
        <time>2024-08-08T11:56:28.000Z</time>
      </trkpt>
      <trkpt lat="45.58602" lon="7.89297">
        <ele>2424.50928</ele>
        <time>2024-08-08T11:56:33.000Z</time>
      </trkpt>
      <trkpt lat="45.586035" lon="7.893002">
        <ele>2424.79932</ele>
        <time>2024-08-08T11:56:37.000Z</time>
      </trkpt>
      <trkpt lat="45.58604" lon="7.89303">
        <ele>2424.99927</ele>
        <time>2024-08-08T11:56:41.000Z</time>
      </trkpt>
      <trkpt lat="45.586025" lon="7.893013">
        <ele>2425.14404</ele>
        <time>2024-08-08T11:57:11.000Z</time>
      </trkpt>
      <trkpt lat="45.586027" lon="7.892942">
        <ele>2425.2793</ele>
        <time>2024-08-08T11:57:37.000Z</time>
      </trkpt>
      <trkpt lat="45.586033" lon="7.892972">
        <ele>2425.41431</ele>
        <time>2024-08-08T11:58:03.000Z</time>
      </trkpt>
      <trkpt lat="45.586045" lon="7.892997">
        <ele>2425.5542</ele>
        <time>2024-08-08T11:58:06.000Z</time>
      </trkpt>
      <trkpt lat="45.586052" lon="7.893023">
        <ele>2425.62451</ele>
        <time>2024-08-08T11:58:09.000Z</time>
      </trkpt>
      <trkpt lat="45.586067" lon="7.893043">
        <ele>2425.69946</ele>
        <time>2024-08-08T11:58:17.000Z</time>
      </trkpt>
      <trkpt lat="45.586078" lon="7.893065">
        <ele>2425.78442</ele>
        <time>2024-08-08T11:58:30.000Z</time>
      </trkpt>
      <trkpt lat="45.586083" lon="7.893092">
        <ele>2425.88428</ele>
        <time>2024-08-08T11:58:34.000Z</time>
      </trkpt>
      <trkpt lat="45.586083" lon="7.893118">
        <ele>2425.96924</ele>
        <time>2024-08-08T11:58:37.000Z</time>
      </trkpt>
      <trkpt lat="45.586078" lon="7.893093">
        <ele>2425.96924</ele>
        <time>2024-08-08T11:58:43.000Z</time>
      </trkpt>
      <trkpt lat="45.586053" lon="7.893088">
        <ele>2425.87939</ele>
        <time>2024-08-08T11:59:21.000Z</time>
      </trkpt>
      <trkpt lat="45.58605" lon="7.893013">
        <ele>2426.11426</ele>
        <time>2024-08-08T11:59:54.000Z</time>
      </trkpt>
      <trkpt lat="45.586058" lon="7.893037">
        <ele>2426.32422</ele>
        <time>2024-08-08T11:59:57.000Z</time>
      </trkpt>
      <trkpt lat="45.58607" lon="7.893072">
        <ele>2426.50439</ele>
        <time>2024-08-08T12:00:02.000Z</time>
      </trkpt>
      <trkpt lat="45.586083" lon="7.893098">
        <ele>2426.61938</ele>
        <time>2024-08-08T12:00:08.000Z</time>
      </trkpt>
      <trkpt lat="45.586063" lon="7.893077">
        <ele>2426.68433</ele>
        <time>2024-08-08T12:00:16.000Z</time>
      </trkpt>
      <trkpt lat="45.58605" lon="7.89305">
        <ele>2426.70459</ele>
        <time>2024-08-08T12:00:18.000Z</time>
      </trkpt>
      <trkpt lat="45.586037" lon="7.89302">
        <ele>2426.73975</ele>
        <time>2024-08-08T12:00:22.000Z</time>
      </trkpt>
      <trkpt lat="45.586048" lon="7.892998">
        <ele>2426.80981</ele>
        <time>2024-08-08T12:00:27.000Z</time>
      </trkpt>
      <trkpt lat="45.58606" lon="7.89302">
        <ele>2426.84985</ele>
        <time>2024-08-08T12:00:33.000Z</time>
      </trkpt>
      <trkpt lat="45.586055" lon="7.893053">
        <ele>2426.8999</ele>
        <time>2024-08-08T12:00:50.000Z</time>
      </trkpt>
      <trkpt lat="45.586082" lon="7.893075">
        <ele>2426.91455</ele>
        <time>2024-08-08T12:01:05.000Z</time>
      </trkpt>
      <trkpt lat="45.58607" lon="7.893053">
        <ele>2426.9646</ele>
        <time>2024-08-08T12:01:09.000Z</time>
      </trkpt>
      <trkpt lat="45.58606" lon="7.893078">
        <ele>2427.04468</ele>
        <time>2024-08-08T12:01:18.000Z</time>
      </trkpt>
      <trkpt lat="45.58606" lon="7.89305">
        <ele>2427.25977</ele>
        <time>2024-08-08T12:01:31.000Z</time>
      </trkpt>
      <trkpt lat="45.58605" lon="7.893025">
        <ele>2427.52979</ele>
        <time>2024-08-08T12:01:36.000Z</time>
      </trkpt>
      <trkpt lat="45.586038" lon="7.893005">
        <ele>2427.88989</ele>
        <time>2024-08-08T12:02:01.000Z</time>
      </trkpt>
      <trkpt lat="45.586053" lon="7.89302">
        <ele>2428.13989</ele>
        <time>2024-08-08T12:02:06.000Z</time>
      </trkpt>
      <trkpt lat="45.586035" lon="7.89302">
        <ele>2428.2749</ele>
        <time>2024-08-08T12:02:21.000Z</time>
      </trkpt>
      <trkpt lat="45.58605" lon="7.893042">
        <ele>2428.40479</ele>
        <time>2024-08-08T12:02:25.000Z</time>
      </trkpt>
      <trkpt lat="45.586063" lon="7.893067">
        <ele>2428.5498</ele>
        <time>2024-08-08T12:02:31.000Z</time>
      </trkpt>
      <trkpt lat="45.586073" lon="7.893045">
        <ele>2428.37964</ele>
        <time>2024-08-08T12:02:55.000Z</time>
      </trkpt>
      <trkpt lat="45.58609" lon="7.893065">
        <ele>2428.19971</ele>
        <time>2024-08-08T12:03:04.000Z</time>
      </trkpt>
      <trkpt lat="45.586095" lon="7.893092">
        <ele>2427.95972</ele>
        <time>2024-08-08T12:03:12.000Z</time>
      </trkpt>
      <trkpt lat="45.586107" lon="7.893117">
        <ele>2427.71973</ele>
        <time>2024-08-08T12:03:15.000Z</time>
      </trkpt>
      <trkpt lat="45.586127" lon="7.893165">
        <ele>2427.31982</ele>
        <time>2024-08-08T12:03:31.000Z</time>
      </trkpt>
      <trkpt lat="45.58614" lon="7.893183">
        <ele>2426.72461</ele>
        <time>2024-08-08T12:03:49.000Z</time>
      </trkpt>
      <trkpt lat="45.586123" lon="7.893197">
        <ele>2426.13452</ele>
        <time>2024-08-08T12:03:52.000Z</time>
      </trkpt>
      <trkpt lat="45.586075" lon="7.893158">
        <ele>2425.72949</ele>
        <time>2024-08-08T12:04:11.000Z</time>
      </trkpt>
      <trkpt lat="45.58607" lon="7.893132">
        <ele>2425.39966</ele>
        <time>2024-08-08T12:04:14.000Z</time>
      </trkpt>
      <trkpt lat="45.586065" lon="7.893075">
        <ele>2425.18481</ele>
        <time>2024-08-08T12:04:20.000Z</time>
      </trkpt>
      <trkpt lat="45.586047" lon="7.893083">
        <ele>2425.04492</ele>
        <time>2024-08-08T12:04:31.000Z</time>
      </trkpt>
      <trkpt lat="45.586047" lon="7.893055">
        <ele>2424.91479</ele>
        <time>2024-08-08T12:04:35.000Z</time>
      </trkpt>
      <trkpt lat="45.586045" lon="7.893027">
        <ele>2424.90967</ele>
        <time>2024-08-08T12:04:49.000Z</time>
      </trkpt>
      <trkpt lat="45.586047" lon="7.892997">
        <ele>2424.84961</ele>
        <time>2024-08-08T12:04:55.000Z</time>
      </trkpt>
      <trkpt lat="45.586032" lon="7.892978">
        <ele>2424.78467</ele>
        <time>2024-08-08T12:05:28.000Z</time>
      </trkpt>
      <trkpt lat="45.58605" lon="7.892967">
        <ele>2424.54932</ele>
        <time>2024-08-08T12:06:22.000Z</time>
      </trkpt>
      <trkpt lat="45.586033" lon="7.892983">
        <ele>2424.42432</ele>
        <time>2024-08-08T12:07:19.000Z</time>
      </trkpt>
      <trkpt lat="45.586022" lon="7.893003">
        <ele>2424.3894</ele>
        <time>2024-08-08T12:11:02.000Z</time>
      </trkpt>
      <trkpt lat="45.586015" lon="7.893035">
        <ele>2424.42944</ele>
        <time>2024-08-08T12:11:05.000Z</time>
      </trkpt>
      <trkpt lat="45.586" lon="7.893053">
        <ele>2424.50439</ele>
        <time>2024-08-08T12:11:10.000Z</time>
      </trkpt>
      <trkpt lat="45.586018" lon="7.893055">
        <ele>2424.60962</ele>
        <time>2024-08-08T12:11:31.000Z</time>
      </trkpt>
      <trkpt lat="45.586038" lon="7.893055">
        <ele>2424.75952</ele>
        <time>2024-08-08T12:11:33.000Z</time>
      </trkpt>
      <trkpt lat="45.586067" lon="7.893057">
        <ele>2425.00952</ele>
        <time>2024-08-08T12:11:35.000Z</time>
      </trkpt>
      <trkpt lat="45.586085" lon="7.893055">
        <ele>2425.36475</ele>
        <time>2024-08-08T12:11:39.000Z</time>
      </trkpt>
      <trkpt lat="45.5861" lon="7.89303">
        <ele>2425.90967</ele>
        <time>2024-08-08T12:12:10.000Z</time>
      </trkpt>
      <trkpt lat="45.586115" lon="7.893015">
        <ele>2426.63477</ele>
        <time>2024-08-08T12:12:13.000Z</time>
      </trkpt>
      <trkpt lat="45.586135" lon="7.893047">
        <ele>2427.16968</ele>
        <time>2024-08-08T12:12:21.000Z</time>
      </trkpt>
      <trkpt lat="45.58615" lon="7.893068">
        <ele>2427.47485</ele>
        <time>2024-08-08T12:12:22.000Z</time>
      </trkpt>
      <trkpt lat="45.586167" lon="7.893088">
        <ele>2427.72974</ele>
        <time>2024-08-08T12:12:23.000Z</time>
      </trkpt>
      <trkpt lat="45.58619" lon="7.893108">
        <ele>2427.87451</ele>
        <time>2024-08-08T12:12:25.000Z</time>
      </trkpt>
      <trkpt lat="45.586208" lon="7.893093">
        <ele>2427.94458</ele>
        <time>2024-08-08T12:12:27.000Z</time>
      </trkpt>
      <trkpt lat="45.58623" lon="7.89309">
        <ele>2427.92456</ele>
        <time>2024-08-08T12:12:29.000Z</time>
      </trkpt>
      <trkpt lat="45.586252" lon="7.893093">
        <ele>2427.7146</ele>
        <time>2024-08-08T12:12:31.000Z</time>
      </trkpt>
      <trkpt lat="45.58625" lon="7.893123">
        <ele>2427.36475</ele>
        <time>2024-08-08T12:12:34.000Z</time>
      </trkpt>
      <trkpt lat="45.586237" lon="7.89315">
        <ele>2426.92969</ele>
        <time>2024-08-08T12:12:36.000Z</time>
      </trkpt>
      <trkpt lat="45.58623" lon="7.893182">
        <ele>2426.57471</ele>
        <time>2024-08-08T12:12:38.000Z</time>
      </trkpt>
      <trkpt lat="45.586255" lon="7.893185">
        <ele>2426.20459</ele>
        <time>2024-08-08T12:12:41.000Z</time>
      </trkpt>
      <trkpt lat="45.586278" lon="7.893182">
        <ele>2425.82959</ele>
        <time>2024-08-08T12:12:43.000Z</time>
      </trkpt>
      <trkpt lat="45.586305" lon="7.89319">
        <ele>2425.39966</ele>
        <time>2024-08-08T12:12:46.000Z</time>
      </trkpt>
      <trkpt lat="45.586335" lon="7.893185">
        <ele>2424.97949</ele>
        <time>2024-08-08T12:12:48.000Z</time>
      </trkpt>
      <trkpt lat="45.586358" lon="7.893185">
        <ele>2424.53467</ele>
        <time>2024-08-08T12:12:50.000Z</time>
      </trkpt>
      <trkpt lat="45.586392" lon="7.89319">
        <ele>2424.05444</ele>
        <time>2024-08-08T12:12:52.000Z</time>
      </trkpt>
      <trkpt lat="45.586418" lon="7.893198">
        <ele>2423.55933</ele>
        <time>2024-08-08T12:12:54.000Z</time>
      </trkpt>
      <trkpt lat="45.586447" lon="7.893212">
        <ele>2423.03442</ele>
        <time>2024-08-08T12:12:56.000Z</time>
      </trkpt>
      <trkpt lat="45.586478" lon="7.893227">
        <ele>2422.53442</ele>
        <time>2024-08-08T12:12:58.000Z</time>
      </trkpt>
      <trkpt lat="45.5865" lon="7.893245">
        <ele>2422.0144</ele>
        <time>2024-08-08T12:13:00.000Z</time>
      </trkpt>
      <trkpt lat="45.586523" lon="7.893253">
        <ele>2421.64941</ele>
        <time>2024-08-08T12:13:02.000Z</time>
      </trkpt>
      <trkpt lat="45.58654" lon="7.893278">
        <ele>2421.2395</ele>
        <time>2024-08-08T12:13:06.000Z</time>
      </trkpt>
      <trkpt lat="45.586555" lon="7.893295">
        <ele>2420.80957</ele>
        <time>2024-08-08T12:13:08.000Z</time>
      </trkpt>
      <trkpt lat="45.586587" lon="7.89331">
        <ele>2420.38452</ele>
        <time>2024-08-08T12:13:10.000Z</time>
      </trkpt>
      <trkpt lat="45.5866" lon="7.893328">
        <ele>2419.99951</ele>
        <time>2024-08-08T12:13:14.000Z</time>
      </trkpt>
      <trkpt lat="45.586618" lon="7.893338">
        <ele>2419.62939</ele>
        <time>2024-08-08T12:13:17.000Z</time>
      </trkpt>
      <trkpt lat="45.58664" lon="7.893328">
        <ele>2419.28467</ele>
        <time>2024-08-08T12:13:20.000Z</time>
      </trkpt>
      <trkpt lat="45.586655" lon="7.893353">
        <ele>2418.94971</ele>
        <time>2024-08-08T12:13:23.000Z</time>
      </trkpt>
      <trkpt lat="45.586668" lon="7.893377">
        <ele>2418.64966</ele>
        <time>2024-08-08T12:13:25.000Z</time>
      </trkpt>
      <trkpt lat="45.586685" lon="7.893392">
        <ele>2418.34448</ele>
        <time>2024-08-08T12:13:27.000Z</time>
      </trkpt>
      <trkpt lat="45.586707" lon="7.893392">
        <ele>2418.04956</ele>
        <time>2024-08-08T12:13:29.000Z</time>
      </trkpt>
      <trkpt lat="45.586728" lon="7.893405">
        <ele>2417.78955</ele>
        <time>2024-08-08T12:13:33.000Z</time>
      </trkpt>
      <trkpt lat="45.586748" lon="7.893412">
        <ele>2417.55469</ele>
        <time>2024-08-08T12:13:35.000Z</time>
      </trkpt>
      <trkpt lat="45.586767" lon="7.893408">
        <ele>2417.32959</ele>
        <time>2024-08-08T12:13:37.000Z</time>
      </trkpt>
      <trkpt lat="45.586782" lon="7.893427">
        <ele>2417.05957</ele>
        <time>2024-08-08T12:13:44.000Z</time>
      </trkpt>
      <trkpt lat="45.586797" lon="7.893445">
        <ele>2416.59961</ele>
        <time>2024-08-08T12:15:18.000Z</time>
      </trkpt>
      <trkpt lat="45.586825" lon="7.893462">
        <ele>2416.14966</ele>
        <time>2024-08-08T12:15:20.000Z</time>
      </trkpt>
      <trkpt lat="45.586843" lon="7.893475">
        <ele>2415.64453</ele>
        <time>2024-08-08T12:15:23.000Z</time>
      </trkpt>
      <trkpt lat="45.586862" lon="7.893498">
        <ele>2415.06958</ele>
        <time>2024-08-08T12:15:26.000Z</time>
      </trkpt>
      <trkpt lat="45.58689" lon="7.893508">
        <ele>2414.51953</ele>
        <time>2024-08-08T12:15:28.000Z</time>
      </trkpt>
      <trkpt lat="45.586917" lon="7.893515">
        <ele>2413.96948</ele>
        <time>2024-08-08T12:15:30.000Z</time>
      </trkpt>
      <trkpt lat="45.586933" lon="7.893528">
        <ele>2413.49463</ele>
        <time>2024-08-08T12:15:32.000Z</time>
      </trkpt>
      <trkpt lat="45.586943" lon="7.893557">
        <ele>2413.04443</ele>
        <time>2024-08-08T12:15:35.000Z</time>
      </trkpt>
      <trkpt lat="45.586965" lon="7.893567">
        <ele>2412.62451</ele>
        <time>2024-08-08T12:15:38.000Z</time>
      </trkpt>
      <trkpt lat="45.586985" lon="7.893582">
        <ele>2412.17944</ele>
        <time>2024-08-08T12:15:41.000Z</time>
      </trkpt>
      <trkpt lat="45.587005" lon="7.8936">
        <ele>2411.70947</ele>
        <time>2024-08-08T12:15:44.000Z</time>
      </trkpt>
      <trkpt lat="45.587028" lon="7.893613">
        <ele>2411.19946</ele>
        <time>2024-08-08T12:15:46.000Z</time>
      </trkpt>
      <trkpt lat="45.587047" lon="7.893622">
        <ele>2410.69458</ele>
        <time>2024-08-08T12:15:49.000Z</time>
      </trkpt>
      <trkpt lat="45.587067" lon="7.893647">
        <ele>2410.09961</ele>
        <time>2024-08-08T12:15:52.000Z</time>
      </trkpt>
      <trkpt lat="45.587082" lon="7.893667">
        <ele>2409.4646</ele>
        <time>2024-08-08T12:15:54.000Z</time>
      </trkpt>
      <trkpt lat="45.587102" lon="7.893695">
        <ele>2408.80957</ele>
        <time>2024-08-08T12:15:56.000Z</time>
      </trkpt>
      <trkpt lat="45.587125" lon="7.893718">
        <ele>2408.1394</ele>
        <time>2024-08-08T12:15:58.000Z</time>
      </trkpt>
      <trkpt lat="45.587142" lon="7.893738">
        <ele>2407.42944</ele>
        <time>2024-08-08T12:16:00.000Z</time>
      </trkpt>
      <trkpt lat="45.587147" lon="7.893763">
        <ele>2406.69971</ele>
        <time>2024-08-08T12:16:02.000Z</time>
      </trkpt>
      <trkpt lat="45.587147" lon="7.893793">
        <ele>2406.01978</ele>
        <time>2024-08-08T12:16:04.000Z</time>
      </trkpt>
      <trkpt lat="45.587155" lon="7.893835">
        <ele>2405.55981</ele>
        <time>2024-08-08T12:16:06.000Z</time>
      </trkpt>
      <trkpt lat="45.587165" lon="7.893868">
        <ele>2405.09985</ele>
        <time>2024-08-08T12:16:08.000Z</time>
      </trkpt>
      <trkpt lat="45.587173" lon="7.893897">
        <ele>2404.70972</ele>
        <time>2024-08-08T12:16:12.000Z</time>
      </trkpt>
      <trkpt lat="45.58719" lon="7.893912">
        <ele>2404.32471</ele>
        <time>2024-08-08T12:16:16.000Z</time>
      </trkpt>
      <trkpt lat="45.58721" lon="7.893927">
        <ele>2403.91455</ele>
        <time>2024-08-08T12:16:19.000Z</time>
      </trkpt>
      <trkpt lat="45.587233" lon="7.893953">
        <ele>2403.51978</ele>
        <time>2024-08-08T12:16:22.000Z</time>
      </trkpt>
      <trkpt lat="45.587245" lon="7.893975">
        <ele>2403.12964</ele>
        <time>2024-08-08T12:16:23.000Z</time>
      </trkpt>
      <trkpt lat="45.587255" lon="7.894017">
        <ele>2402.76953</ele>
        <time>2024-08-08T12:16:25.000Z</time>
      </trkpt>
      <trkpt lat="45.587275" lon="7.894038">
        <ele>2402.39941</ele>
        <time>2024-08-08T12:16:27.000Z</time>
      </trkpt>
      <trkpt lat="45.587295" lon="7.894045">
        <ele>2402.01953</ele>
        <time>2024-08-08T12:16:29.000Z</time>
      </trkpt>
      <trkpt lat="45.587312" lon="7.894055">
        <ele>2401.64453</ele>
        <time>2024-08-08T12:16:32.000Z</time>
      </trkpt>
      <trkpt lat="45.58733" lon="7.894065">
        <ele>2401.27979</ele>
        <time>2024-08-08T12:16:34.000Z</time>
      </trkpt>
      <trkpt lat="45.58736" lon="7.894077">
        <ele>2400.94458</ele>
        <time>2024-08-08T12:16:36.000Z</time>
      </trkpt>
      <trkpt lat="45.587378" lon="7.89409">
        <ele>2400.64453</ele>
        <time>2024-08-08T12:16:39.000Z</time>
      </trkpt>
      <trkpt lat="45.5874" lon="7.894105">
        <ele>2400.34448</ele>
        <time>2024-08-08T12:16:49.000Z</time>
      </trkpt>
      <trkpt lat="45.587422" lon="7.894115">
        <ele>2400.04443</ele>
        <time>2024-08-08T12:16:52.000Z</time>
      </trkpt>
      <trkpt lat="45.587438" lon="7.894128">
        <ele>2399.73975</ele>
        <time>2024-08-08T12:16:54.000Z</time>
      </trkpt>
      <trkpt lat="45.587453" lon="7.894153">
        <ele>2399.44971</ele>
        <time>2024-08-08T12:16:56.000Z</time>
      </trkpt>
      <trkpt lat="45.58746" lon="7.894178">
        <ele>2399.16455</ele>
        <time>2024-08-08T12:16:57.000Z</time>
      </trkpt>
      <trkpt lat="45.58747" lon="7.894215">
        <ele>2398.89453</ele>
        <time>2024-08-08T12:16:59.000Z</time>
      </trkpt>
      <trkpt lat="45.587485" lon="7.894242">
        <ele>2398.6394</ele>
        <time>2024-08-08T12:17:01.000Z</time>
      </trkpt>
      <trkpt lat="45.587507" lon="7.894257">
        <ele>2398.39453</ele>
        <time>2024-08-08T12:17:03.000Z</time>
      </trkpt>
      <trkpt lat="45.58753" lon="7.894277">
        <ele>2398.13965</ele>
        <time>2024-08-08T12:17:05.000Z</time>
      </trkpt>
      <trkpt lat="45.58755" lon="7.89429">
        <ele>2397.92969</ele>
        <time>2024-08-08T12:17:07.000Z</time>
      </trkpt>
      <trkpt lat="45.587575" lon="7.894305">
        <ele>2397.70947</ele>
        <time>2024-08-08T12:17:09.000Z</time>
      </trkpt>
      <trkpt lat="45.587597" lon="7.894308">
        <ele>2397.44458</ele>
        <time>2024-08-08T12:17:11.000Z</time>
      </trkpt>
      <trkpt lat="45.58761" lon="7.894285">
        <ele>2397.1145</ele>
        <time>2024-08-08T12:17:17.000Z</time>
      </trkpt>
      <trkpt lat="45.587633" lon="7.894283">
        <ele>2396.75439</ele>
        <time>2024-08-08T12:17:20.000Z</time>
      </trkpt>
      <trkpt lat="45.587658" lon="7.894303">
        <ele>2396.34961</ele>
        <time>2024-08-08T12:17:24.000Z</time>
      </trkpt>
      <trkpt lat="45.58767" lon="7.894328">
        <ele>2395.90454</ele>
        <time>2024-08-08T12:17:26.000Z</time>
      </trkpt>
      <trkpt lat="45.587683" lon="7.894353">
        <ele>2395.43457</ele>
        <time>2024-08-08T12:17:29.000Z</time>
      </trkpt>
      <trkpt lat="45.587695" lon="7.894382">
        <ele>2394.91943</ele>
        <time>2024-08-08T12:17:32.000Z</time>
      </trkpt>
      <trkpt lat="45.587717" lon="7.894393">
        <ele>2394.36475</ele>
        <time>2024-08-08T12:17:34.000Z</time>
      </trkpt>
      <trkpt lat="45.587743" lon="7.894403">
        <ele>2393.78955</ele>
        <time>2024-08-08T12:17:36.000Z</time>
      </trkpt>
      <trkpt lat="45.587775" lon="7.894403">
        <ele>2393.2146</ele>
        <time>2024-08-08T12:17:38.000Z</time>
      </trkpt>
      <trkpt lat="45.587798" lon="7.89441">
        <ele>2392.67969</ele>
        <time>2024-08-08T12:17:40.000Z</time>
      </trkpt>
      <trkpt lat="45.58782" lon="7.894408">
        <ele>2392.15967</ele>
        <time>2024-08-08T12:17:42.000Z</time>
      </trkpt>
      <trkpt lat="45.587838" lon="7.894413">
        <ele>2391.66455</ele>
        <time>2024-08-08T12:17:44.000Z</time>
      </trkpt>
      <trkpt lat="45.587858" lon="7.894405">
        <ele>2391.17456</ele>
        <time>2024-08-08T12:17:46.000Z</time>
      </trkpt>
      <trkpt lat="45.587878" lon="7.894415">
        <ele>2390.68457</ele>
        <time>2024-08-08T12:17:48.000Z</time>
      </trkpt>
      <trkpt lat="45.587895" lon="7.894428">
        <ele>2390.1897</ele>
        <time>2024-08-08T12:17:50.000Z</time>
      </trkpt>
      <trkpt lat="45.587922" lon="7.894428">
        <ele>2389.65479</ele>
        <time>2024-08-08T12:17:54.000Z</time>
      </trkpt>
      <trkpt lat="45.587943" lon="7.894443">
        <ele>2389.11963</ele>
        <time>2024-08-08T12:17:56.000Z</time>
      </trkpt>
      <trkpt lat="45.587958" lon="7.894465">
        <ele>2388.56958</ele>
        <time>2024-08-08T12:17:58.000Z</time>
      </trkpt>
      <trkpt lat="45.587978" lon="7.894482">
        <ele>2387.97949</ele>
        <time>2024-08-08T12:18:00.000Z</time>
      </trkpt>
      <trkpt lat="45.587997" lon="7.894488">
        <ele>2387.37939</ele>
        <time>2024-08-08T12:18:02.000Z</time>
      </trkpt>
      <trkpt lat="45.588013" lon="7.894502">
        <ele>2386.80957</ele>
        <time>2024-08-08T12:18:04.000Z</time>
      </trkpt>
      <trkpt lat="45.588027" lon="7.894525">
        <ele>2386.2146</ele>
        <time>2024-08-08T12:18:06.000Z</time>
      </trkpt>
      <trkpt lat="45.588042" lon="7.894543">
        <ele>2385.60962</ele>
        <time>2024-08-08T12:18:09.000Z</time>
      </trkpt>
      <trkpt lat="45.588055" lon="7.894572">
        <ele>2385.02979</ele>
        <time>2024-08-08T12:18:13.000Z</time>
      </trkpt>
      <trkpt lat="45.58807" lon="7.894597">
        <ele>2384.49951</ele>
        <time>2024-08-08T12:18:15.000Z</time>
      </trkpt>
      <trkpt lat="45.588087" lon="7.894615">
        <ele>2384.03467</ele>
        <time>2024-08-08T12:18:17.000Z</time>
      </trkpt>
      <trkpt lat="45.588097" lon="7.894637">
        <ele>2383.61963</ele>
        <time>2024-08-08T12:18:18.000Z</time>
      </trkpt>
      <trkpt lat="45.588103" lon="7.894673">
        <ele>2383.21436</ele>
        <time>2024-08-08T12:18:20.000Z</time>
      </trkpt>
      <trkpt lat="45.588107" lon="7.894703">
        <ele>2382.78442</ele>
        <time>2024-08-08T12:18:23.000Z</time>
      </trkpt>
      <trkpt lat="45.588118" lon="7.894735">
        <ele>2382.30933</ele>
        <time>2024-08-08T12:18:26.000Z</time>
      </trkpt>
      <trkpt lat="45.588132" lon="7.894755">
        <ele>2381.81934</ele>
        <time>2024-08-08T12:18:28.000Z</time>
      </trkpt>
      <trkpt lat="45.588142" lon="7.894777">
        <ele>2381.30933</ele>
        <time>2024-08-08T12:18:31.000Z</time>
      </trkpt>
      <trkpt lat="45.588158" lon="7.894802">
        <ele>2380.79443</ele>
        <time>2024-08-08T12:18:33.000Z</time>
      </trkpt>
      <trkpt lat="45.588173" lon="7.894832">
        <ele>2380.26929</ele>
        <time>2024-08-08T12:18:36.000Z</time>
      </trkpt>
      <trkpt lat="45.588198" lon="7.89485">
        <ele>2379.71924</ele>
        <time>2024-08-08T12:18:38.000Z</time>
      </trkpt>
      <trkpt lat="45.588208" lon="7.894883">
        <ele>2379.16431</ele>
        <time>2024-08-08T12:18:40.000Z</time>
      </trkpt>
      <trkpt lat="45.58823" lon="7.8949">
        <ele>2378.57446</ele>
        <time>2024-08-08T12:18:42.000Z</time>
      </trkpt>
      <trkpt lat="45.588253" lon="7.894898">
        <ele>2377.97437</ele>
        <time>2024-08-08T12:18:45.000Z</time>
      </trkpt>
      <trkpt lat="45.588272" lon="7.894923">
        <ele>2377.43945</ele>
        <time>2024-08-08T12:18:48.000Z</time>
      </trkpt>
      <trkpt lat="45.588287" lon="7.89494">
        <ele>2376.92432</ele>
        <time>2024-08-08T12:18:50.000Z</time>
      </trkpt>
      <trkpt lat="45.588307" lon="7.894955">
        <ele>2376.42432</ele>
        <time>2024-08-08T12:18:53.000Z</time>
      </trkpt>
      <trkpt lat="45.588327" lon="7.894965">
        <ele>2375.95947</ele>
        <time>2024-08-08T12:18:56.000Z</time>
      </trkpt>
      <trkpt lat="45.588348" lon="7.894968">
        <ele>2375.56445</ele>
        <time>2024-08-08T12:18:59.000Z</time>
      </trkpt>
      <trkpt lat="45.588365" lon="7.894985">
        <ele>2375.19946</ele>
        <time>2024-08-08T12:19:01.000Z</time>
      </trkpt>
      <trkpt lat="45.588378" lon="7.895003">
        <ele>2374.8645</ele>
        <time>2024-08-08T12:19:04.000Z</time>
      </trkpt>
      <trkpt lat="45.588395" lon="7.89502">
        <ele>2374.57446</ele>
        <time>2024-08-08T12:19:07.000Z</time>
      </trkpt>
      <trkpt lat="45.588415" lon="7.895037">
        <ele>2374.30933</ele>
        <time>2024-08-08T12:19:09.000Z</time>
      </trkpt>
      <trkpt lat="45.588442" lon="7.89505">
        <ele>2374.1145</ele>
        <time>2024-08-08T12:19:11.000Z</time>
      </trkpt>
      <trkpt lat="45.588467" lon="7.895072">
        <ele>2373.99463</ele>
        <time>2024-08-08T12:19:13.000Z</time>
      </trkpt>
      <trkpt lat="45.588483" lon="7.895095">
        <ele>2373.89453</ele>
        <time>2024-08-08T12:19:15.000Z</time>
      </trkpt>
      <trkpt lat="45.588497" lon="7.895115">
        <ele>2373.79443</ele>
        <time>2024-08-08T12:19:17.000Z</time>
      </trkpt>
      <trkpt lat="45.588515" lon="7.895123">
        <ele>2373.67432</ele>
        <time>2024-08-08T12:19:19.000Z</time>
      </trkpt>
      <trkpt lat="45.588542" lon="7.895135">
        <ele>2373.57959</ele>
        <time>2024-08-08T12:19:21.000Z</time>
      </trkpt>
      <trkpt lat="45.588568" lon="7.895155">
        <ele>2373.49951</ele>
        <time>2024-08-08T12:19:23.000Z</time>
      </trkpt>
      <trkpt lat="45.58859" lon="7.895177">
        <ele>2373.46436</ele>
        <time>2024-08-08T12:19:25.000Z</time>
      </trkpt>
      <trkpt lat="45.588607" lon="7.895197">
        <ele>2373.45459</ele>
        <time>2024-08-08T12:19:28.000Z</time>
      </trkpt>
      <trkpt lat="45.588625" lon="7.89521">
        <ele>2373.46436</ele>
        <time>2024-08-08T12:19:32.000Z</time>
      </trkpt>
      <trkpt lat="45.588643" lon="7.895233">
        <ele>2373.47949</ele>
        <time>2024-08-08T12:19:35.000Z</time>
      </trkpt>
      <trkpt lat="45.588648" lon="7.895262">
        <ele>2373.47949</ele>
        <time>2024-08-08T12:19:37.000Z</time>
      </trkpt>
      <trkpt lat="45.588658" lon="7.895292">
        <ele>2373.46948</ele>
        <time>2024-08-08T12:19:39.000Z</time>
      </trkpt>
      <trkpt lat="45.58867" lon="7.895315">
        <ele>2373.46948</ele>
        <time>2024-08-08T12:19:41.000Z</time>
      </trkpt>
      <trkpt lat="45.588688" lon="7.895335">
        <ele>2373.47949</ele>
        <time>2024-08-08T12:19:43.000Z</time>
      </trkpt>
      <trkpt lat="45.58871" lon="7.895353">
        <ele>2373.4895</ele>
        <time>2024-08-08T12:19:45.000Z</time>
      </trkpt>
      <trkpt lat="45.58873" lon="7.895382">
        <ele>2373.50928</ele>
        <time>2024-08-08T12:19:47.000Z</time>
      </trkpt>
      <trkpt lat="45.588748" lon="7.89541">
        <ele>2373.51929</ele>
        <time>2024-08-08T12:19:49.000Z</time>
      </trkpt>
      <trkpt lat="45.588763" lon="7.895445">
        <ele>2373.49951</ele>
        <time>2024-08-08T12:19:51.000Z</time>
      </trkpt>
      <trkpt lat="45.588782" lon="7.895462">
        <ele>2373.46436</ele>
        <time>2024-08-08T12:19:53.000Z</time>
      </trkpt>
      <trkpt lat="45.588808" lon="7.895473">
        <ele>2373.39429</ele>
        <time>2024-08-08T12:19:55.000Z</time>
      </trkpt>
      <trkpt lat="45.58883" lon="7.895478">
        <ele>2373.28931</ele>
        <time>2024-08-08T12:19:58.000Z</time>
      </trkpt>
      <trkpt lat="45.588857" lon="7.895492">
        <ele>2373.21436</ele>
        <time>2024-08-08T12:20:01.000Z</time>
      </trkpt>
      <trkpt lat="45.588867" lon="7.895523">
        <ele>2373.15942</ele>
        <time>2024-08-08T12:20:04.000Z</time>
      </trkpt>
      <trkpt lat="45.588877" lon="7.895553">
        <ele>2373.16943</ele>
        <time>2024-08-08T12:20:07.000Z</time>
      </trkpt>
      <trkpt lat="45.588893" lon="7.895575">
        <ele>2373.1792</ele>
        <time>2024-08-08T12:20:10.000Z</time>
      </trkpt>
      <trkpt lat="45.588913" lon="7.89559">
        <ele>2373.18921</ele>
        <time>2024-08-08T12:20:12.000Z</time>
      </trkpt>
      <trkpt lat="45.58893" lon="7.89561">
        <ele>2373.18433</ele>
        <time>2024-08-08T12:20:14.000Z</time>
      </trkpt>
      <trkpt lat="45.588952" lon="7.895635">
        <ele>2373.1792</ele>
        <time>2024-08-08T12:20:17.000Z</time>
      </trkpt>
      <trkpt lat="45.588972" lon="7.895638">
        <ele>2373.16943</ele>
        <time>2024-08-08T12:20:19.000Z</time>
      </trkpt>
      <trkpt lat="45.58899" lon="7.895652">
        <ele>2373.19946</ele>
        <time>2024-08-08T12:20:22.000Z</time>
      </trkpt>
      <trkpt lat="45.589008" lon="7.895663">
        <ele>2373.27441</ele>
        <time>2024-08-08T12:20:24.000Z</time>
      </trkpt>
      <trkpt lat="45.589032" lon="7.89567">
        <ele>2373.40454</ele>
        <time>2024-08-08T12:20:26.000Z</time>
      </trkpt>
      <trkpt lat="45.589052" lon="7.89567">
        <ele>2373.54443</ele>
        <time>2024-08-08T12:20:28.000Z</time>
      </trkpt>
      <trkpt lat="45.589072" lon="7.895673">
        <ele>2373.66943</ele>
        <time>2024-08-08T12:20:31.000Z</time>
      </trkpt>
      <trkpt lat="45.589095" lon="7.895675">
        <ele>2373.79932</ele>
        <time>2024-08-08T12:20:34.000Z</time>
      </trkpt>
      <trkpt lat="45.589117" lon="7.895687">
        <ele>2373.94458</ele>
        <time>2024-08-08T12:20:36.000Z</time>
      </trkpt>
      <trkpt lat="45.58913" lon="7.895707">
        <ele>2374.12939</ele>
        <time>2024-08-08T12:20:40.000Z</time>
      </trkpt>
      <trkpt lat="45.589148" lon="7.895715">
        <ele>2374.3645</ele>
        <time>2024-08-08T12:20:43.000Z</time>
      </trkpt>
      <trkpt lat="45.58916" lon="7.895735">
        <ele>2374.65942</ele>
        <time>2024-08-08T12:20:48.000Z</time>
      </trkpt>
      <trkpt lat="45.58918" lon="7.89575">
        <ele>2374.9895</ele>
        <time>2024-08-08T12:20:52.000Z</time>
      </trkpt>
      <trkpt lat="45.589202" lon="7.895767">
        <ele>2375.35449</ele>
        <time>2024-08-08T12:20:56.000Z</time>
      </trkpt>
      <trkpt lat="45.58922" lon="7.895775">
        <ele>2375.71436</ele>
        <time>2024-08-08T12:20:59.000Z</time>
      </trkpt>
      <trkpt lat="45.58924" lon="7.895782">
        <ele>2376.12939</ele>
        <time>2024-08-08T12:21:04.000Z</time>
      </trkpt>
      <trkpt lat="45.589258" lon="7.89578">
        <ele>2376.49951</ele>
        <time>2024-08-08T12:21:08.000Z</time>
      </trkpt>
      <trkpt lat="45.589253" lon="7.89574">
        <ele>2376.88452</ele>
        <time>2024-08-08T12:21:16.000Z</time>
      </trkpt>
      <trkpt lat="45.589255" lon="7.89571">
        <ele>2377.33447</ele>
        <time>2024-08-08T12:21:20.000Z</time>
      </trkpt>
      <trkpt lat="45.589238" lon="7.89569">
        <ele>2377.79956</ele>
        <time>2024-08-08T12:21:24.000Z</time>
      </trkpt>
      <trkpt lat="45.589233" lon="7.89566">
        <ele>2378.30957</ele>
        <time>2024-08-08T12:21:28.000Z</time>
      </trkpt>
      <trkpt lat="45.589247" lon="7.895635">
        <ele>2378.87451</ele>
        <time>2024-08-08T12:21:32.000Z</time>
      </trkpt>
      <trkpt lat="45.589268" lon="7.89563">
        <ele>2379.46924</ele>
        <time>2024-08-08T12:21:36.000Z</time>
      </trkpt>
      <trkpt lat="45.58929" lon="7.89562">
        <ele>2380.14941</ele>
        <time>2024-08-08T12:21:40.000Z</time>
      </trkpt>
      <trkpt lat="45.589312" lon="7.89564">
        <ele>2380.87451</ele>
        <time>2024-08-08T12:21:44.000Z</time>
      </trkpt>
      <trkpt lat="45.589328" lon="7.895652">
        <ele>2381.60425</ele>
        <time>2024-08-08T12:21:47.000Z</time>
      </trkpt>
      <trkpt lat="45.58935" lon="7.895665">
        <ele>2382.36426</ele>
        <time>2024-08-08T12:21:50.000Z</time>
      </trkpt>
      <trkpt lat="45.589367" lon="7.895675">
        <ele>2383.13428</ele>
        <time>2024-08-08T12:21:52.000Z</time>
      </trkpt>
      <trkpt lat="45.589385" lon="7.895692">
        <ele>2383.93921</ele>
        <time>2024-08-08T12:21:55.000Z</time>
      </trkpt>
      <trkpt lat="45.589405" lon="7.895707">
        <ele>2384.75928</ele>
        <time>2024-08-08T12:22:00.000Z</time>
      </trkpt>
      <trkpt lat="45.589415" lon="7.89573">
        <ele>2385.59424</ele>
        <time>2024-08-08T12:22:03.000Z</time>
      </trkpt>
      <trkpt lat="45.58943" lon="7.895748">
        <ele>2386.39429</ele>
        <time>2024-08-08T12:22:06.000Z</time>
      </trkpt>
      <trkpt lat="45.589455" lon="7.895752">
        <ele>2387.16431</ele>
        <time>2024-08-08T12:22:09.000Z</time>
      </trkpt>
      <trkpt lat="45.589475" lon="7.895767">
        <ele>2387.89429</ele>
        <time>2024-08-08T12:22:12.000Z</time>
      </trkpt>
      <trkpt lat="45.589497" lon="7.895777">
        <ele>2388.58447</ele>
        <time>2024-08-08T12:22:15.000Z</time>
      </trkpt>
      <trkpt lat="45.589507" lon="7.89581">
        <ele>2389.26416</ele>
        <time>2024-08-08T12:22:20.000Z</time>
      </trkpt>
      <trkpt lat="45.589508" lon="7.895842">
        <ele>2390.01904</ele>
        <time>2024-08-08T12:22:24.000Z</time>
      </trkpt>
      <trkpt lat="45.589522" lon="7.895865">
        <ele>2390.98901</ele>
        <time>2024-08-08T12:24:36.000Z</time>
      </trkpt>
      <trkpt lat="45.589538" lon="7.895833">
        <ele>2391.84424</ele>
        <time>2024-08-08T12:25:56.000Z</time>
      </trkpt>
      <trkpt lat="45.589543" lon="7.895803">
        <ele>2392.64893</ele>
        <time>2024-08-08T12:25:59.000Z</time>
      </trkpt>
      <trkpt lat="45.589543" lon="7.895832">
        <ele>2393.37402</ele>
        <time>2024-08-08T12:26:04.000Z</time>
      </trkpt>
      <trkpt lat="45.589537" lon="7.89586">
        <ele>2394.04419</ele>
        <time>2024-08-08T12:26:07.000Z</time>
      </trkpt>
      <trkpt lat="45.589535" lon="7.895888">
        <ele>2394.63916</ele>
        <time>2024-08-08T12:26:11.000Z</time>
      </trkpt>
      <trkpt lat="45.589527" lon="7.895913">
        <ele>2395.11401</ele>
        <time>2024-08-08T12:26:13.000Z</time>
      </trkpt>
      <trkpt lat="45.589535" lon="7.895883">
        <ele>2395.62402</ele>
        <time>2024-08-08T12:26:24.000Z</time>
      </trkpt>
      <trkpt lat="45.589537" lon="7.895845">
        <ele>2396.15894</ele>
        <time>2024-08-08T12:26:27.000Z</time>
      </trkpt>
      <trkpt lat="45.58954" lon="7.895813">
        <ele>2396.66406</ele>
        <time>2024-08-08T12:26:29.000Z</time>
      </trkpt>
      <trkpt lat="45.589553" lon="7.895792">
        <ele>2397.15405</ele>
        <time>2024-08-08T12:26:33.000Z</time>
      </trkpt>
      <trkpt lat="45.589563" lon="7.895762">
        <ele>2397.57422</ele>
        <time>2024-08-08T12:26:38.000Z</time>
      </trkpt>
      <trkpt lat="45.589568" lon="7.895727">
        <ele>2397.94409</ele>
        <time>2024-08-08T12:26:41.000Z</time>
      </trkpt>
      <trkpt lat="45.589562" lon="7.8957">
        <ele>2398.23926</ele>
        <time>2024-08-08T12:26:44.000Z</time>
      </trkpt>
      <trkpt lat="45.58956" lon="7.895673">
        <ele>2398.45435</ele>
        <time>2024-08-08T12:26:48.000Z</time>
      </trkpt>
      <trkpt lat="45.58958" lon="7.895688">
        <ele>2398.63428</ele>
        <time>2024-08-08T12:26:53.000Z</time>
      </trkpt>
      <trkpt lat="45.589563" lon="7.895637">
        <ele>2398.56421</ele>
        <time>2024-08-08T12:27:04.000Z</time>
      </trkpt>
      <trkpt lat="45.589588" lon="7.895625">
        <ele>2398.42432</ele>
        <time>2024-08-08T12:27:09.000Z</time>
      </trkpt>
      <trkpt lat="45.589603" lon="7.89561">
        <ele>2398.03418</ele>
        <time>2024-08-08T12:27:20.000Z</time>
      </trkpt>
      <trkpt lat="45.589622" lon="7.89561">
        <ele>2397.5542</ele>
        <time>2024-08-08T12:27:23.000Z</time>
      </trkpt>
      <trkpt lat="45.589642" lon="7.895618">
        <ele>2396.74438</ele>
        <time>2024-08-08T12:27:27.000Z</time>
      </trkpt>
      <trkpt lat="45.58966" lon="7.895627">
        <ele>2395.91943</ele>
        <time>2024-08-08T12:27:31.000Z</time>
      </trkpt>
      <trkpt lat="45.589678" lon="7.895637">
        <ele>2395.10938</ele>
        <time>2024-08-08T12:27:34.000Z</time>
      </trkpt>
      <trkpt lat="45.589697" lon="7.895633">
        <ele>2394.35449</ele>
        <time>2024-08-08T12:27:37.000Z</time>
      </trkpt>
      <trkpt lat="45.589705" lon="7.895608">
        <ele>2393.60449</ele>
        <time>2024-08-08T12:27:44.000Z</time>
      </trkpt>
      <trkpt lat="45.589705" lon="7.89558">
        <ele>2392.86963</ele>
        <time>2024-08-08T12:27:47.000Z</time>
      </trkpt>
      <trkpt lat="45.589723" lon="7.895587">
        <ele>2392.07959</ele>
        <time>2024-08-08T12:27:52.000Z</time>
      </trkpt>
      <trkpt lat="45.589732" lon="7.895558">
        <ele>2390.98438</ele>
        <time>2024-08-08T12:27:59.000Z</time>
      </trkpt>
      <trkpt lat="45.589752" lon="7.895553">
        <ele>2389.7644</ele>
        <time>2024-08-08T12:28:03.000Z</time>
      </trkpt>
      <trkpt lat="45.589772" lon="7.895557">
        <ele>2388.45947</ele>
        <time>2024-08-08T12:28:06.000Z</time>
      </trkpt>
      <trkpt lat="45.58979" lon="7.895567">
        <ele>2386.98926</ele>
        <time>2024-08-08T12:28:11.000Z</time>
      </trkpt>
      <trkpt lat="45.589812" lon="7.895543">
        <ele>2385.44922</ele>
        <time>2024-08-08T12:28:18.000Z</time>
      </trkpt>
      <trkpt lat="45.589823" lon="7.895515">
        <ele>2383.88428</ele>
        <time>2024-08-08T12:28:22.000Z</time>
      </trkpt>
      <trkpt lat="45.589838" lon="7.895498">
        <ele>2382.30908</ele>
        <time>2024-08-08T12:28:26.000Z</time>
      </trkpt>
      <trkpt lat="45.589857" lon="7.895497">
        <ele>2380.76904</ele>
        <time>2024-08-08T12:28:29.000Z</time>
      </trkpt>
      <trkpt lat="45.589875" lon="7.895492">
        <ele>2379.26416</ele>
        <time>2024-08-08T12:28:33.000Z</time>
      </trkpt>
      <trkpt lat="45.589903" lon="7.895483">
        <ele>2378.02417</ele>
        <time>2024-08-08T12:28:40.000Z</time>
      </trkpt>
      <trkpt lat="45.589933" lon="7.89549">
        <ele>2376.82935</ele>
        <time>2024-08-08T12:28:42.000Z</time>
      </trkpt>
      <trkpt lat="45.589953" lon="7.895493">
        <ele>2375.72925</ele>
        <time>2024-08-08T12:28:45.000Z</time>
      </trkpt>
      <trkpt lat="45.589972" lon="7.895503">
        <ele>2374.55908</ele>
        <time>2024-08-08T12:28:48.000Z</time>
      </trkpt>
      <trkpt lat="45.589992" lon="7.895502">
        <ele>2373.37939</ele>
        <time>2024-08-08T12:28:51.000Z</time>
      </trkpt>
      <trkpt lat="45.590007" lon="7.895478">
        <ele>2372.1792</ele>
        <time>2024-08-08T12:28:55.000Z</time>
      </trkpt>
      <trkpt lat="45.590025" lon="7.895465">
        <ele>2370.94434</ele>
        <time>2024-08-08T12:29:00.000Z</time>
      </trkpt>
      <trkpt lat="45.590043" lon="7.895455">
        <ele>2369.63428</ele>
        <time>2024-08-08T12:29:03.000Z</time>
      </trkpt>
      <trkpt lat="45.590067" lon="7.895448">
        <ele>2368.26929</ele>
        <time>2024-08-08T12:29:06.000Z</time>
      </trkpt>
      <trkpt lat="45.590083" lon="7.895433">
        <ele>2366.85425</ele>
        <time>2024-08-08T12:29:08.000Z</time>
      </trkpt>
      <trkpt lat="45.590107" lon="7.895412">
        <ele>2365.48926</ele>
        <time>2024-08-08T12:29:11.000Z</time>
      </trkpt>
      <trkpt lat="45.590128" lon="7.895415">
        <ele>2364.30933</ele>
        <time>2024-08-08T12:29:14.000Z</time>
      </trkpt>
      <trkpt lat="45.590145" lon="7.895425">
        <ele>2363.20435</ele>
        <time>2024-08-08T12:29:16.000Z</time>
      </trkpt>
      <trkpt lat="45.590163" lon="7.895427">
        <ele>2362.23438</ele>
        <time>2024-08-08T12:29:18.000Z</time>
      </trkpt>
      <trkpt lat="45.590182" lon="7.895427">
        <ele>2361.41455</ele>
        <time>2024-08-08T12:29:21.000Z</time>
      </trkpt>
      <trkpt lat="45.590203" lon="7.895412">
        <ele>2360.63428</ele>
        <time>2024-08-08T12:29:34.000Z</time>
      </trkpt>
      <trkpt lat="45.590228" lon="7.895417">
        <ele>2359.87939</ele>
        <time>2024-08-08T12:29:36.000Z</time>
      </trkpt>
      <trkpt lat="45.590252" lon="7.895417">
        <ele>2359.18945</ele>
        <time>2024-08-08T12:29:38.000Z</time>
      </trkpt>
      <trkpt lat="45.590277" lon="7.895402">
        <ele>2358.58447</ele>
        <time>2024-08-08T12:29:41.000Z</time>
      </trkpt>
      <trkpt lat="45.590298" lon="7.895387">
        <ele>2358.02979</ele>
        <time>2024-08-08T12:29:43.000Z</time>
      </trkpt>
      <trkpt lat="45.590317" lon="7.895375">
        <ele>2357.53955</ele>
        <time>2024-08-08T12:29:47.000Z</time>
      </trkpt>
      <trkpt lat="45.590333" lon="7.895355">
        <ele>2357.13452</ele>
        <time>2024-08-08T12:29:51.000Z</time>
      </trkpt>
      <trkpt lat="45.590333" lon="7.895328">
        <ele>2356.80469</ele>
        <time>2024-08-08T12:29:55.000Z</time>
      </trkpt>
      <trkpt lat="45.590348" lon="7.895312">
        <ele>2356.50977</ele>
        <time>2024-08-08T12:29:59.000Z</time>
      </trkpt>
      <trkpt lat="45.590398" lon="7.895328">
        <ele>2356.16968</ele>
        <time>2024-08-08T12:30:13.000Z</time>
      </trkpt>
      <trkpt lat="45.590403" lon="7.895353">
        <ele>2355.91968</ele>
        <time>2024-08-08T12:30:16.000Z</time>
      </trkpt>
      <trkpt lat="45.590415" lon="7.895373">
        <ele>2355.74463</ele>
        <time>2024-08-08T12:30:19.000Z</time>
      </trkpt>
      <trkpt lat="45.590433" lon="7.895373">
        <ele>2355.63965</ele>
        <time>2024-08-08T12:30:21.000Z</time>
      </trkpt>
      <trkpt lat="45.590452" lon="7.895377">
        <ele>2355.54468</ele>
        <time>2024-08-08T12:30:24.000Z</time>
      </trkpt>
      <trkpt lat="45.59047" lon="7.895367">
        <ele>2355.37988</ele>
        <time>2024-08-08T12:30:29.000Z</time>
      </trkpt>
      <trkpt lat="45.59048" lon="7.89534">
        <ele>2355.07495</ele>
        <time>2024-08-08T12:30:36.000Z</time>
      </trkpt>
      <trkpt lat="45.5905" lon="7.895332">
        <ele>2354.73999</ele>
        <time>2024-08-08T12:30:40.000Z</time>
      </trkpt>
      <trkpt lat="45.590518" lon="7.895313">
        <ele>2354.37524</ele>
        <time>2024-08-08T12:30:44.000Z</time>
      </trkpt>
      <trkpt lat="45.590545" lon="7.895263">
        <ele>2353.89502</ele>
        <time>2024-08-08T12:31:08.000Z</time>
      </trkpt>
      <trkpt lat="45.590563" lon="7.895255">
        <ele>2353.3501</ele>
        <time>2024-08-08T12:31:16.000Z</time>
      </trkpt>
      <trkpt lat="45.590588" lon="7.895242">
        <ele>2352.84009</ele>
        <time>2024-08-08T12:31:18.000Z</time>
      </trkpt>
      <trkpt lat="45.590615" lon="7.895235">
        <ele>2352.27979</ele>
        <time>2024-08-08T12:31:20.000Z</time>
      </trkpt>
      <trkpt lat="45.590633" lon="7.895238">
        <ele>2351.66479</ele>
        <time>2024-08-08T12:31:22.000Z</time>
      </trkpt>
      <trkpt lat="45.590657" lon="7.895235">
        <ele>2350.94971</ele>
        <time>2024-08-08T12:31:25.000Z</time>
      </trkpt>
      <trkpt lat="45.590677" lon="7.895222">
        <ele>2350.19971</ele>
        <time>2024-08-08T12:31:27.000Z</time>
      </trkpt>
      <trkpt lat="45.5907" lon="7.89521">
        <ele>2349.38477</ele>
        <time>2024-08-08T12:31:29.000Z</time>
      </trkpt>
      <trkpt lat="45.590723" lon="7.895195">
        <ele>2348.53467</ele>
        <time>2024-08-08T12:31:31.000Z</time>
      </trkpt>
      <trkpt lat="45.590745" lon="7.89518">
        <ele>2347.68481</ele>
        <time>2024-08-08T12:31:34.000Z</time>
      </trkpt>
      <trkpt lat="45.590763" lon="7.89517">
        <ele>2346.86475</ele>
        <time>2024-08-08T12:31:36.000Z</time>
      </trkpt>
      <trkpt lat="45.590785" lon="7.895168">
        <ele>2346.12988</ele>
        <time>2024-08-08T12:31:38.000Z</time>
      </trkpt>
      <trkpt lat="45.59081" lon="7.895158">
        <ele>2345.34473</ele>
        <time>2024-08-08T12:31:40.000Z</time>
      </trkpt>
      <trkpt lat="45.590837" lon="7.895152">
        <ele>2344.50464</ele>
        <time>2024-08-08T12:31:43.000Z</time>
      </trkpt>
      <trkpt lat="45.590857" lon="7.89514">
        <ele>2343.68481</ele>
        <time>2024-08-08T12:31:45.000Z</time>
      </trkpt>
      <trkpt lat="45.590873" lon="7.895122">
        <ele>2342.93481</ele>
        <time>2024-08-08T12:31:48.000Z</time>
      </trkpt>
      <trkpt lat="45.590883" lon="7.895098">
        <ele>2342.33472</ele>
        <time>2024-08-08T12:31:50.000Z</time>
      </trkpt>
      <trkpt lat="45.590892" lon="7.895075">
        <ele>2341.87451</ele>
        <time>2024-08-08T12:31:52.000Z</time>
      </trkpt>
      <trkpt lat="45.590912" lon="7.89507">
        <ele>2341.40967</ele>
        <time>2024-08-08T12:31:54.000Z</time>
      </trkpt>
      <trkpt lat="45.590932" lon="7.895068">
        <ele>2340.96948</ele>
        <time>2024-08-08T12:31:56.000Z</time>
      </trkpt>
      <trkpt lat="45.590953" lon="7.89507">
        <ele>2340.54956</ele>
        <time>2024-08-08T12:31:59.000Z</time>
      </trkpt>
      <trkpt lat="45.590972" lon="7.895073">
        <ele>2340.15479</ele>
        <time>2024-08-08T12:32:02.000Z</time>
      </trkpt>
      <trkpt lat="45.59099" lon="7.895065">
        <ele>2339.6897</ele>
        <time>2024-08-08T12:32:06.000Z</time>
      </trkpt>
      <trkpt lat="45.591008" lon="7.895053">
        <ele>2339.23975</ele>
        <time>2024-08-08T12:32:08.000Z</time>
      </trkpt>
      <trkpt lat="45.591027" lon="7.895042">
        <ele>2338.69971</ele>
        <time>2024-08-08T12:32:17.000Z</time>
      </trkpt>
      <trkpt lat="45.591038" lon="7.895018">
        <ele>2337.94971</ele>
        <time>2024-08-08T12:32:36.000Z</time>
      </trkpt>
      <trkpt lat="45.591052" lon="7.894987">
        <ele>2337.19458</ele>
        <time>2024-08-08T12:32:39.000Z</time>
      </trkpt>
      <trkpt lat="45.591075" lon="7.894978">
        <ele>2336.42456</ele>
        <time>2024-08-08T12:32:42.000Z</time>
      </trkpt>
      <trkpt lat="45.591095" lon="7.89498">
        <ele>2335.61963</ele>
        <time>2024-08-08T12:32:44.000Z</time>
      </trkpt>
      <trkpt lat="45.591118" lon="7.894962">
        <ele>2334.86475</ele>
        <time>2024-08-08T12:32:46.000Z</time>
      </trkpt>
      <trkpt lat="45.59114" lon="7.89495">
        <ele>2334.14453</ele>
        <time>2024-08-08T12:32:48.000Z</time>
      </trkpt>
      <trkpt lat="45.591163" lon="7.894948">
        <ele>2333.41943</ele>
        <time>2024-08-08T12:32:51.000Z</time>
      </trkpt>
      <trkpt lat="45.591175" lon="7.894928">
        <ele>2332.70947</ele>
        <time>2024-08-08T12:32:53.000Z</time>
      </trkpt>
      <trkpt lat="45.59118" lon="7.894903">
        <ele>2331.99951</ele>
        <time>2024-08-08T12:32:55.000Z</time>
      </trkpt>
      <trkpt lat="45.591197" lon="7.89487">
        <ele>2331.25952</ele>
        <time>2024-08-08T12:32:58.000Z</time>
      </trkpt>
      <trkpt lat="45.59121" lon="7.89485">
        <ele>2330.48462</ele>
        <time>2024-08-08T12:32:59.000Z</time>
      </trkpt>
      <trkpt lat="45.59122" lon="7.894828">
        <ele>2329.70459</ele>
        <time>2024-08-08T12:33:00.000Z</time>
      </trkpt>
      <trkpt lat="45.59124" lon="7.894795">
        <ele>2328.95459</ele>
        <time>2024-08-08T12:33:02.000Z</time>
      </trkpt>
      <trkpt lat="45.591257" lon="7.894782">
        <ele>2328.28442</ele>
        <time>2024-08-08T12:33:04.000Z</time>
      </trkpt>
      <trkpt lat="45.591268" lon="7.89476">
        <ele>2327.62451</ele>
        <time>2024-08-08T12:33:08.000Z</time>
      </trkpt>
      <trkpt lat="45.591277" lon="7.894727">
        <ele>2326.95947</ele>
        <time>2024-08-08T12:33:11.000Z</time>
      </trkpt>
      <trkpt lat="45.591298" lon="7.894718">
        <ele>2326.24438</ele>
        <time>2024-08-08T12:33:16.000Z</time>
      </trkpt>
      <trkpt lat="45.591315" lon="7.89469">
        <ele>2325.59937</ele>
        <time>2024-08-08T12:33:20.000Z</time>
      </trkpt>
      <trkpt lat="45.591328" lon="7.894672">
        <ele>2324.96436</ele>
        <time>2024-08-08T12:33:22.000Z</time>
      </trkpt>
      <trkpt lat="45.591342" lon="7.894637">
        <ele>2324.39453</ele>
        <time>2024-08-08T12:33:25.000Z</time>
      </trkpt>
      <trkpt lat="45.591357" lon="7.894615">
        <ele>2324.08447</ele>
        <time>2024-08-08T12:33:27.000Z</time>
      </trkpt>
      <trkpt lat="45.591382" lon="7.894593">
        <ele>2323.74951</ele>
        <time>2024-08-08T12:33:30.000Z</time>
      </trkpt>
      <trkpt lat="45.5914" lon="7.89457">
        <ele>2323.41943</ele>
        <time>2024-08-08T12:33:32.000Z</time>
      </trkpt>
      <trkpt lat="45.591418" lon="7.89456">
        <ele>2323.12451</ele>
        <time>2024-08-08T12:33:34.000Z</time>
      </trkpt>
      <trkpt lat="45.591442" lon="7.894542">
        <ele>2322.78955</ele>
        <time>2024-08-08T12:33:36.000Z</time>
      </trkpt>
      <trkpt lat="45.591462" lon="7.894513">
        <ele>2322.41455</ele>
        <time>2024-08-08T12:33:38.000Z</time>
      </trkpt>
      <trkpt lat="45.591487" lon="7.894487">
        <ele>2322.0542</ele>
        <time>2024-08-08T12:33:40.000Z</time>
      </trkpt>
      <trkpt lat="45.591502" lon="7.894463">
        <ele>2321.6792</ele>
        <time>2024-08-08T12:33:44.000Z</time>
      </trkpt>
      <trkpt lat="45.591493" lon="7.894432">
        <ele>2321.18408</ele>
        <time>2024-08-08T12:33:56.000Z</time>
      </trkpt>
      <trkpt lat="45.591483" lon="7.89439">
        <ele>2320.62915</ele>
        <time>2024-08-08T12:34:03.000Z</time>
      </trkpt>
      <trkpt lat="45.591467" lon="7.894378">
        <ele>2320.05908</ele>
        <time>2024-08-08T12:34:05.000Z</time>
      </trkpt>
      <trkpt lat="45.591483" lon="7.894358">
        <ele>2319.41406</ele>
        <time>2024-08-08T12:34:09.000Z</time>
      </trkpt>
      <trkpt lat="45.591505" lon="7.894367">
        <ele>2318.73413</ele>
        <time>2024-08-08T12:34:11.000Z</time>
      </trkpt>
      <trkpt lat="45.591523" lon="7.894355">
        <ele>2317.99927</ele>
        <time>2024-08-08T12:34:14.000Z</time>
      </trkpt>
      <trkpt lat="45.591545" lon="7.89434">
        <ele>2317.1792</ele>
        <time>2024-08-08T12:34:22.000Z</time>
      </trkpt>
      <trkpt lat="45.591567" lon="7.89432">
        <ele>2316.37915</ele>
        <time>2024-08-08T12:34:26.000Z</time>
      </trkpt>
      <trkpt lat="45.591587" lon="7.894308">
        <ele>2315.63916</ele>
        <time>2024-08-08T12:34:28.000Z</time>
      </trkpt>
      <trkpt lat="45.591607" lon="7.894283">
        <ele>2314.87402</ele>
        <time>2024-08-08T12:34:30.000Z</time>
      </trkpt>
      <trkpt lat="45.591627" lon="7.894273">
        <ele>2314.07397</ele>
        <time>2024-08-08T12:34:32.000Z</time>
      </trkpt>
      <trkpt lat="45.59164" lon="7.894292">
        <ele>2313.22412</ele>
        <time>2024-08-08T12:34:35.000Z</time>
      </trkpt>
      <trkpt lat="45.591658" lon="7.89429">
        <ele>2312.354</ele>
        <time>2024-08-08T12:34:37.000Z</time>
      </trkpt>
      <trkpt lat="45.591677" lon="7.894293">
        <ele>2311.46387</ele>
        <time>2024-08-08T12:34:40.000Z</time>
      </trkpt>
      <trkpt lat="45.591695" lon="7.89429">
        <ele>2310.53882</ele>
        <time>2024-08-08T12:34:43.000Z</time>
      </trkpt>
      <trkpt lat="45.591717" lon="7.894268">
        <ele>2309.61377</ele>
        <time>2024-08-08T12:34:46.000Z</time>
      </trkpt>
      <trkpt lat="45.59174" lon="7.894242">
        <ele>2308.70386</ele>
        <time>2024-08-08T12:34:49.000Z</time>
      </trkpt>
      <trkpt lat="45.591763" lon="7.894222">
        <ele>2307.83887</ele>
        <time>2024-08-08T12:34:52.000Z</time>
      </trkpt>
      <trkpt lat="45.591777" lon="7.894197">
        <ele>2307.01904</ele>
        <time>2024-08-08T12:34:54.000Z</time>
      </trkpt>
      <trkpt lat="45.591803" lon="7.894185">
        <ele>2306.23389</ele>
        <time>2024-08-08T12:34:57.000Z</time>
      </trkpt>
      <trkpt lat="45.591828" lon="7.894173">
        <ele>2305.604</ele>
        <time>2024-08-08T12:34:59.000Z</time>
      </trkpt>
      <trkpt lat="45.591848" lon="7.894158">
        <ele>2305.00415</ele>
        <time>2024-08-08T12:35:02.000Z</time>
      </trkpt>
      <trkpt lat="45.59187" lon="7.894145">
        <ele>2304.43408</ele>
        <time>2024-08-08T12:35:05.000Z</time>
      </trkpt>
      <trkpt lat="45.59188" lon="7.89409">
        <ele>2303.89893</ele>
        <time>2024-08-08T12:36:41.000Z</time>
      </trkpt>
      <trkpt lat="45.59189" lon="7.89412">
        <ele>2303.29395</ele>
        <time>2024-08-08T12:37:32.000Z</time>
      </trkpt>
      <trkpt lat="45.591903" lon="7.894102">
        <ele>2302.64893</ele>
        <time>2024-08-08T12:38:45.000Z</time>
      </trkpt>
      <trkpt lat="45.591915" lon="7.894073">
        <ele>2302.0791</ele>
        <time>2024-08-08T12:39:16.000Z</time>
      </trkpt>
      <trkpt lat="45.591927" lon="7.894047">
        <ele>2301.54932</ele>
        <time>2024-08-08T12:39:19.000Z</time>
      </trkpt>
      <trkpt lat="45.59194" lon="7.894018">
        <ele>2301.00439</ele>
        <time>2024-08-08T12:39:22.000Z</time>
      </trkpt>
      <trkpt lat="45.591962" lon="7.89399">
        <ele>2300.41943</ele>
        <time>2024-08-08T12:39:24.000Z</time>
      </trkpt>
      <trkpt lat="45.591972" lon="7.89396">
        <ele>2299.81934</ele>
        <time>2024-08-08T12:39:27.000Z</time>
      </trkpt>
      <trkpt lat="45.591977" lon="7.893928">
        <ele>2299.20435</ele>
        <time>2024-08-08T12:39:29.000Z</time>
      </trkpt>
      <trkpt lat="45.591992" lon="7.893902">
        <ele>2298.53442</ele>
        <time>2024-08-08T12:39:32.000Z</time>
      </trkpt>
      <trkpt lat="45.592003" lon="7.89388">
        <ele>2297.8894</ele>
        <time>2024-08-08T12:39:35.000Z</time>
      </trkpt>
      <trkpt lat="45.592018" lon="7.893857">
        <ele>2297.27441</ele>
        <time>2024-08-08T12:39:37.000Z</time>
      </trkpt>
      <trkpt lat="45.592022" lon="7.89383">
        <ele>2296.61963</ele>
        <time>2024-08-08T12:39:39.000Z</time>
      </trkpt>
      <trkpt lat="45.592028" lon="7.893803">
        <ele>2295.94946</ele>
        <time>2024-08-08T12:39:41.000Z</time>
      </trkpt>
      <trkpt lat="45.592045" lon="7.893778">
        <ele>2295.25952</ele>
        <time>2024-08-08T12:39:44.000Z</time>
      </trkpt>
      <trkpt lat="45.592065" lon="7.893752">
        <ele>2294.53955</ele>
        <time>2024-08-08T12:39:46.000Z</time>
      </trkpt>
      <trkpt lat="45.592063" lon="7.89372">
        <ele>2293.79468</ele>
        <time>2024-08-08T12:39:48.000Z</time>
      </trkpt>
      <trkpt lat="45.592067" lon="7.89369">
        <ele>2292.99951</ele>
        <time>2024-08-08T12:39:50.000Z</time>
      </trkpt>
      <trkpt lat="45.592088" lon="7.893652">
        <ele>2292.17969</ele>
        <time>2024-08-08T12:39:52.000Z</time>
      </trkpt>
      <trkpt lat="45.592103" lon="7.893637">
        <ele>2291.33447</ele>
        <time>2024-08-08T12:39:54.000Z</time>
      </trkpt>
      <trkpt lat="45.592125" lon="7.893615">
        <ele>2290.47461</ele>
        <time>2024-08-08T12:39:56.000Z</time>
      </trkpt>
      <trkpt lat="45.592147" lon="7.893597">
        <ele>2289.64966</ele>
        <time>2024-08-08T12:40:00.000Z</time>
      </trkpt>
      <trkpt lat="45.592137" lon="7.893572">
        <ele>2288.87939</ele>
        <time>2024-08-08T12:40:06.000Z</time>
      </trkpt>
      <trkpt lat="45.592117" lon="7.893562">
        <ele>2287.97437</ele>
        <time>2024-08-08T12:40:19.000Z</time>
      </trkpt>
      <trkpt lat="45.592117" lon="7.893533">
        <ele>2286.98438</ele>
        <time>2024-08-08T12:40:23.000Z</time>
      </trkpt>
      <trkpt lat="45.59214" lon="7.893528">
        <ele>2285.97437</ele>
        <time>2024-08-08T12:40:27.000Z</time>
      </trkpt>
      <trkpt lat="45.59216" lon="7.893527">
        <ele>2284.92432</ele>
        <time>2024-08-08T12:40:32.000Z</time>
      </trkpt>
      <trkpt lat="45.592183" lon="7.893512">
        <ele>2283.87939</ele>
        <time>2024-08-08T12:40:36.000Z</time>
      </trkpt>
      <trkpt lat="45.592177" lon="7.893478">
        <ele>2282.91455</ele>
        <time>2024-08-08T12:40:39.000Z</time>
      </trkpt>
      <trkpt lat="45.59218" lon="7.893452">
        <ele>2281.97437</ele>
        <time>2024-08-08T12:40:42.000Z</time>
      </trkpt>
      <trkpt lat="45.592197" lon="7.893437">
        <ele>2280.98926</ele>
        <time>2024-08-08T12:40:46.000Z</time>
      </trkpt>
      <trkpt lat="45.59221" lon="7.893418">
        <ele>2279.99438</ele>
        <time>2024-08-08T12:40:48.000Z</time>
      </trkpt>
      <trkpt lat="45.592228" lon="7.893408">
        <ele>2278.99927</ele>
        <time>2024-08-08T12:40:50.000Z</time>
      </trkpt>
      <trkpt lat="45.592245" lon="7.893397">
        <ele>2277.99438</ele>
        <time>2024-08-08T12:40:52.000Z</time>
      </trkpt>
      <trkpt lat="45.592253" lon="7.893368">
        <ele>2276.95923</ele>
        <time>2024-08-08T12:40:57.000Z</time>
      </trkpt>
      <trkpt lat="45.592273" lon="7.893345">
        <ele>2275.94897</ele>
        <time>2024-08-08T12:41:00.000Z</time>
      </trkpt>
      <trkpt lat="45.592267" lon="7.893318">
        <ele>2274.95386</ele>
        <time>2024-08-08T12:41:05.000Z</time>
      </trkpt>
      <trkpt lat="45.592263" lon="7.89329">
        <ele>2273.94897</ele>
        <time>2024-08-08T12:41:09.000Z</time>
      </trkpt>
      <trkpt lat="45.592275" lon="7.893267">
        <ele>2272.97412</ele>
        <time>2024-08-08T12:41:11.000Z</time>
      </trkpt>
      <trkpt lat="45.59229" lon="7.89324">
        <ele>2271.99414</ele>
        <time>2024-08-08T12:41:15.000Z</time>
      </trkpt>
      <trkpt lat="45.59231" lon="7.893233">
        <ele>2271.05908</ele>
        <time>2024-08-08T12:41:17.000Z</time>
      </trkpt>
      <trkpt lat="45.592333" lon="7.893223">
        <ele>2270.17432</ele>
        <time>2024-08-08T12:41:19.000Z</time>
      </trkpt>
      <trkpt lat="45.592348" lon="7.893208">
        <ele>2269.29932</ele>
        <time>2024-08-08T12:41:21.000Z</time>
      </trkpt>
      <trkpt lat="45.592367" lon="7.8932">
        <ele>2268.57935</ele>
        <time>2024-08-08T12:41:24.000Z</time>
      </trkpt>
      <trkpt lat="45.592382" lon="7.893177">
        <ele>2267.85913</ele>
        <time>2024-08-08T12:41:29.000Z</time>
      </trkpt>
      <trkpt lat="45.592403" lon="7.89316">
        <ele>2267.19409</ele>
        <time>2024-08-08T12:41:31.000Z</time>
      </trkpt>
      <trkpt lat="45.592422" lon="7.893145">
        <ele>2266.68408</ele>
        <time>2024-08-08T12:41:33.000Z</time>
      </trkpt>
      <trkpt lat="45.592442" lon="7.893122">
        <ele>2266.23413</ele>
        <time>2024-08-08T12:41:35.000Z</time>
      </trkpt>
      <trkpt lat="45.59246" lon="7.893097">
        <ele>2265.83936</ele>
        <time>2024-08-08T12:41:38.000Z</time>
      </trkpt>
      <trkpt lat="45.592468" lon="7.893072">
        <ele>2265.50439</ele>
        <time>2024-08-08T12:41:40.000Z</time>
      </trkpt>
      <trkpt lat="45.59247" lon="7.893043">
        <ele>2265.2644</ele>
        <time>2024-08-08T12:41:45.000Z</time>
      </trkpt>
      <trkpt lat="45.592485" lon="7.89302">
        <ele>2265.08447</ele>
        <time>2024-08-08T12:41:49.000Z</time>
      </trkpt>
      <trkpt lat="45.592495" lon="7.892993">
        <ele>2264.95947</ele>
        <time>2024-08-08T12:41:51.000Z</time>
      </trkpt>
      <trkpt lat="45.592497" lon="7.892958">
        <ele>2264.84937</ele>
        <time>2024-08-08T12:41:55.000Z</time>
      </trkpt>
      <trkpt lat="45.592513" lon="7.89294">
        <ele>2264.79932</ele>
        <time>2024-08-08T12:41:57.000Z</time>
      </trkpt>
      <trkpt lat="45.59252" lon="7.892915">
        <ele>2264.80957</ele>
        <time>2024-08-08T12:42:00.000Z</time>
      </trkpt>
      <trkpt lat="45.592525" lon="7.892887">
        <ele>2264.82471</ele>
        <time>2024-08-08T12:42:06.000Z</time>
      </trkpt>
      <trkpt lat="45.59254" lon="7.89287">
        <ele>2264.87939</ele>
        <time>2024-08-08T12:42:09.000Z</time>
      </trkpt>
      <trkpt lat="45.592562" lon="7.892888">
        <ele>2264.89941</ele>
        <time>2024-08-08T12:42:19.000Z</time>
      </trkpt>
      <trkpt lat="45.592577" lon="7.892912">
        <ele>2264.97437</ele>
        <time>2024-08-08T12:42:23.000Z</time>
      </trkpt>
      <trkpt lat="45.592602" lon="7.892897">
        <ele>2265.05444</ele>
        <time>2024-08-08T12:42:25.000Z</time>
      </trkpt>
      <trkpt lat="45.59262" lon="7.892888">
        <ele>2265.14453</ele>
        <time>2024-08-08T12:42:27.000Z</time>
      </trkpt>
      <trkpt lat="45.59264" lon="7.892887">
        <ele>2265.26953</ele>
        <time>2024-08-08T12:42:31.000Z</time>
      </trkpt>
      <trkpt lat="45.59266" lon="7.892888">
        <ele>2265.41455</ele>
        <time>2024-08-08T12:42:34.000Z</time>
      </trkpt>
      <trkpt lat="45.592677" lon="7.892898">
        <ele>2265.67944</ele>
        <time>2024-08-08T12:42:37.000Z</time>
      </trkpt>
      <trkpt lat="45.592698" lon="7.89289">
        <ele>2265.97437</ele>
        <time>2024-08-08T12:42:39.000Z</time>
      </trkpt>
      <trkpt lat="45.592722" lon="7.892872">
        <ele>2266.19946</ele>
        <time>2024-08-08T12:42:41.000Z</time>
      </trkpt>
      <trkpt lat="45.59274" lon="7.892857">
        <ele>2266.3894</ele>
        <time>2024-08-08T12:42:44.000Z</time>
      </trkpt>
      <trkpt lat="45.592758" lon="7.892837">
        <ele>2266.52441</ele>
        <time>2024-08-08T12:42:47.000Z</time>
      </trkpt>
      <trkpt lat="45.592777" lon="7.892825">
        <ele>2266.59937</ele>
        <time>2024-08-08T12:42:50.000Z</time>
      </trkpt>
      <trkpt lat="45.592795" lon="7.892807">
        <ele>2266.61426</ele>
        <time>2024-08-08T12:42:53.000Z</time>
      </trkpt>
      <trkpt lat="45.59281" lon="7.89279">
        <ele>2266.56934</ele>
        <time>2024-08-08T12:42:56.000Z</time>
      </trkpt>
      <trkpt lat="45.592818" lon="7.89276">
        <ele>2266.50928</ele>
        <time>2024-08-08T12:42:58.000Z</time>
      </trkpt>
      <trkpt lat="45.592825" lon="7.89273">
        <ele>2266.42432</ele>
        <time>2024-08-08T12:43:01.000Z</time>
      </trkpt>
      <trkpt lat="45.592825" lon="7.892698">
        <ele>2266.33936</ele>
        <time>2024-08-08T12:43:04.000Z</time>
      </trkpt>
      <trkpt lat="45.59283" lon="7.892667">
        <ele>2266.2041</ele>
        <time>2024-08-08T12:43:08.000Z</time>
      </trkpt>
      <trkpt lat="45.592852" lon="7.892647">
        <ele>2266.03906</ele>
        <time>2024-08-08T12:43:10.000Z</time>
      </trkpt>
      <trkpt lat="45.592867" lon="7.892628">
        <ele>2265.79419</ele>
        <time>2024-08-08T12:43:13.000Z</time>
      </trkpt>
      <trkpt lat="45.592878" lon="7.892607">
        <ele>2265.53418</ele>
        <time>2024-08-08T12:43:16.000Z</time>
      </trkpt>
      <trkpt lat="45.592892" lon="7.892577">
        <ele>2265.22412</ele>
        <time>2024-08-08T12:43:18.000Z</time>
      </trkpt>
      <trkpt lat="45.592897" lon="7.892548">
        <ele>2264.89917</ele>
        <time>2024-08-08T12:43:19.000Z</time>
      </trkpt>
      <trkpt lat="45.592915" lon="7.892517">
        <ele>2264.57422</ele>
        <time>2024-08-08T12:43:21.000Z</time>
      </trkpt>
      <trkpt lat="45.592925" lon="7.892482">
        <ele>2264.24927</ele>
        <time>2024-08-08T12:43:23.000Z</time>
      </trkpt>
      <trkpt lat="45.592923" lon="7.892447">
        <ele>2263.95435</ele>
        <time>2024-08-08T12:43:27.000Z</time>
      </trkpt>
      <trkpt lat="45.592912" lon="7.892415">
        <ele>2263.67432</ele>
        <time>2024-08-08T12:43:32.000Z</time>
      </trkpt>
      <trkpt lat="45.592908" lon="7.892385">
        <ele>2263.41455</ele>
        <time>2024-08-08T12:43:35.000Z</time>
      </trkpt>
      <trkpt lat="45.592913" lon="7.892357">
        <ele>2263.23438</ele>
        <time>2024-08-08T12:43:39.000Z</time>
      </trkpt>
      <trkpt lat="45.592913" lon="7.892315">
        <ele>2263.14917</ele>
        <time>2024-08-08T12:43:49.000Z</time>
      </trkpt>
      <trkpt lat="45.592923" lon="7.892278">
        <ele>2263.06909</ele>
        <time>2024-08-08T12:43:51.000Z</time>
      </trkpt>
      <trkpt lat="45.59293" lon="7.892252">
        <ele>2263.01904</ele>
        <time>2024-08-08T12:43:53.000Z</time>
      </trkpt>
      <trkpt lat="45.592947" lon="7.892228">
        <ele>2262.96924</ele>
        <time>2024-08-08T12:43:56.000Z</time>
      </trkpt>
      <trkpt lat="45.592963" lon="7.89221">
        <ele>2262.94409</ele>
        <time>2024-08-08T12:43:59.000Z</time>
      </trkpt>
      <trkpt lat="45.592977" lon="7.892192">
        <ele>2262.91406</ele>
        <time>2024-08-08T12:44:03.000Z</time>
      </trkpt>
      <trkpt lat="45.592982" lon="7.892218">
        <ele>2262.97412</ele>
        <time>2024-08-08T12:44:10.000Z</time>
      </trkpt>
      <trkpt lat="45.593003" lon="7.892195">
        <ele>2263.13916</ele>
        <time>2024-08-08T12:44:17.000Z</time>
      </trkpt>
      <trkpt lat="45.593015" lon="7.89217">
        <ele>2263.34424</ele>
        <time>2024-08-08T12:44:21.000Z</time>
      </trkpt>
      <trkpt lat="45.593018" lon="7.892142">
        <ele>2263.6394</ele>
        <time>2024-08-08T12:44:25.000Z</time>
      </trkpt>
      <trkpt lat="45.593025" lon="7.892117">
        <ele>2264.04443</ele>
        <time>2024-08-08T12:44:27.000Z</time>
      </trkpt>
      <trkpt lat="45.593038" lon="7.892093">
        <ele>2264.55957</ele>
        <time>2024-08-08T12:44:29.000Z</time>
      </trkpt>
      <trkpt lat="45.593057" lon="7.892063">
        <ele>2265.13452</ele>
        <time>2024-08-08T12:44:32.000Z</time>
      </trkpt>
      <trkpt lat="45.59308" lon="7.892057">
        <ele>2265.72949</ele>
        <time>2024-08-08T12:44:34.000Z</time>
      </trkpt>
      <trkpt lat="45.593095" lon="7.892042">
        <ele>2266.30933</ele>
        <time>2024-08-08T12:44:37.000Z</time>
      </trkpt>
      <trkpt lat="45.593115" lon="7.892028">
        <ele>2266.85449</ele>
        <time>2024-08-08T12:44:39.000Z</time>
      </trkpt>
      <trkpt lat="45.593138" lon="7.892022">
        <ele>2267.33936</ele>
        <time>2024-08-08T12:44:41.000Z</time>
      </trkpt>
      <trkpt lat="45.593167" lon="7.89202">
        <ele>2267.75928</ele>
        <time>2024-08-08T12:44:44.000Z</time>
      </trkpt>
      <trkpt lat="45.593188" lon="7.89201">
        <ele>2268.09424</ele>
        <time>2024-08-08T12:44:47.000Z</time>
      </trkpt>
      <trkpt lat="45.593207" lon="7.891988">
        <ele>2268.32446</ele>
        <time>2024-08-08T12:44:51.000Z</time>
      </trkpt>
      <trkpt lat="45.593228" lon="7.89197">
        <ele>2268.49951</ele>
        <time>2024-08-08T12:44:54.000Z</time>
      </trkpt>
      <trkpt lat="45.593248" lon="7.891955">
        <ele>2268.71948</ele>
        <time>2024-08-08T12:44:56.000Z</time>
      </trkpt>
      <trkpt lat="45.593275" lon="7.89194">
        <ele>2268.96948</ele>
        <time>2024-08-08T12:44:58.000Z</time>
      </trkpt>
      <trkpt lat="45.593295" lon="7.89193">
        <ele>2269.22974</ele>
        <time>2024-08-08T12:45:00.000Z</time>
      </trkpt>
      <trkpt lat="45.593298" lon="7.8919">
        <ele>2269.4397</ele>
        <time>2024-08-08T12:45:06.000Z</time>
      </trkpt>
      <trkpt lat="45.59332" lon="7.891883">
        <ele>2269.61963</ele>
        <time>2024-08-08T12:45:09.000Z</time>
      </trkpt>
      <trkpt lat="45.593342" lon="7.891863">
        <ele>2269.73975</ele>
        <time>2024-08-08T12:45:12.000Z</time>
      </trkpt>
      <trkpt lat="45.593362" lon="7.891842">
        <ele>2269.77466</ele>
        <time>2024-08-08T12:45:15.000Z</time>
      </trkpt>
      <trkpt lat="45.59338" lon="7.89182">
        <ele>2269.76465</ele>
        <time>2024-08-08T12:45:18.000Z</time>
      </trkpt>
      <trkpt lat="45.593397" lon="7.8918">
        <ele>2269.70947</ele>
        <time>2024-08-08T12:45:21.000Z</time>
      </trkpt>
      <trkpt lat="45.593413" lon="7.891787">
        <ele>2269.60449</ele>
        <time>2024-08-08T12:45:24.000Z</time>
      </trkpt>
      <trkpt lat="45.59343" lon="7.891775">
        <ele>2269.47437</ele>
        <time>2024-08-08T12:45:27.000Z</time>
      </trkpt>
      <trkpt lat="45.593452" lon="7.891765">
        <ele>2269.26929</ele>
        <time>2024-08-08T12:45:30.000Z</time>
      </trkpt>
      <trkpt lat="45.593468" lon="7.891743">
        <ele>2269.01416</ele>
        <time>2024-08-08T12:45:33.000Z</time>
      </trkpt>
      <trkpt lat="45.59348" lon="7.891717">
        <ele>2268.75928</ele>
        <time>2024-08-08T12:45:36.000Z</time>
      </trkpt>
      <trkpt lat="45.5935" lon="7.891703">
        <ele>2268.51416</ele>
        <time>2024-08-08T12:45:39.000Z</time>
      </trkpt>
      <trkpt lat="45.593518" lon="7.89169">
        <ele>2268.32422</ele>
        <time>2024-08-08T12:45:42.000Z</time>
      </trkpt>
      <trkpt lat="45.593532" lon="7.89167">
        <ele>2268.15918</ele>
        <time>2024-08-08T12:45:45.000Z</time>
      </trkpt>
      <trkpt lat="45.593543" lon="7.89165">
        <ele>2268.0293</ele>
        <time>2024-08-08T12:45:47.000Z</time>
      </trkpt>
      <trkpt lat="45.593555" lon="7.891615">
        <ele>2267.93408</ele>
        <time>2024-08-08T12:45:51.000Z</time>
      </trkpt>
      <trkpt lat="45.593568" lon="7.891597">
        <ele>2267.80908</ele>
        <time>2024-08-08T12:45:56.000Z</time>
      </trkpt>
      <trkpt lat="45.593563" lon="7.891568">
        <ele>2267.67432</ele>
        <time>2024-08-08T12:46:01.000Z</time>
      </trkpt>
      <trkpt lat="45.593575" lon="7.891542">
        <ele>2267.48926</ele>
        <time>2024-08-08T12:46:05.000Z</time>
      </trkpt>
      <trkpt lat="45.593588" lon="7.891522">
        <ele>2267.29419</ele>
        <time>2024-08-08T12:46:08.000Z</time>
      </trkpt>
      <trkpt lat="45.5936" lon="7.891502">
        <ele>2267.13428</ele>
        <time>2024-08-08T12:46:12.000Z</time>
      </trkpt>
      <trkpt lat="45.593598" lon="7.891532">
        <ele>2267.02417</ele>
        <time>2024-08-08T12:46:19.000Z</time>
      </trkpt>
      <trkpt lat="45.59363" lon="7.891535">
        <ele>2266.84912</ele>
        <time>2024-08-08T12:46:34.000Z</time>
      </trkpt>
      <trkpt lat="45.593667" lon="7.891473">
        <ele>2266.64429</ele>
        <time>2024-08-08T12:47:08.000Z</time>
      </trkpt>
      <trkpt lat="45.593685" lon="7.891462">
        <ele>2266.47412</ele>
        <time>2024-08-08T12:47:11.000Z</time>
      </trkpt>
      <trkpt lat="45.593663" lon="7.891473">
        <ele>2266.27417</ele>
        <time>2024-08-08T12:47:38.000Z</time>
      </trkpt>
      <trkpt lat="45.593673" lon="7.891443">
        <ele>2266.12427</ele>
        <time>2024-08-08T12:47:41.000Z</time>
      </trkpt>
      <trkpt lat="45.593698" lon="7.891427">
        <ele>2265.93921</ele>
        <time>2024-08-08T12:47:43.000Z</time>
      </trkpt>
      <trkpt lat="45.593717" lon="7.891418">
        <ele>2265.72925</ele>
        <time>2024-08-08T12:47:46.000Z</time>
      </trkpt>
      <trkpt lat="45.59374" lon="7.891405">
        <ele>2265.49438</ele>
        <time>2024-08-08T12:47:49.000Z</time>
      </trkpt>
      <trkpt lat="45.593758" lon="7.891385">
        <ele>2265.20947</ele>
        <time>2024-08-08T12:47:52.000Z</time>
      </trkpt>
      <trkpt lat="45.593777" lon="7.891402">
        <ele>2264.83447</ele>
        <time>2024-08-08T12:47:57.000Z</time>
      </trkpt>
      <trkpt lat="45.593795" lon="7.891395">
        <ele>2264.41943</ele>
        <time>2024-08-08T12:48:00.000Z</time>
      </trkpt>
      <trkpt lat="45.593813" lon="7.89139">
        <ele>2263.97925</ele>
        <time>2024-08-08T12:48:03.000Z</time>
      </trkpt>
      <trkpt lat="45.59384" lon="7.891345">
        <ele>2263.2793</ele>
        <time>2024-08-08T12:48:25.000Z</time>
      </trkpt>
      <trkpt lat="45.593862" lon="7.891332">
        <ele>2262.56934</ele>
        <time>2024-08-08T12:48:28.000Z</time>
      </trkpt>
      <trkpt lat="45.593888" lon="7.89133">
        <ele>2261.81934</ele>
        <time>2024-08-08T12:48:32.000Z</time>
      </trkpt>
      <trkpt lat="45.593895" lon="7.891362">
        <ele>2261.00928</ele>
        <time>2024-08-08T12:48:35.000Z</time>
      </trkpt>
      <trkpt lat="45.593907" lon="7.891387">
        <ele>2260.2041</ele>
        <time>2024-08-08T12:48:37.000Z</time>
      </trkpt>
      <trkpt lat="45.593937" lon="7.891387">
        <ele>2259.40918</ele>
        <time>2024-08-08T12:48:39.000Z</time>
      </trkpt>
      <trkpt lat="45.593955" lon="7.891363">
        <ele>2258.58911</ele>
        <time>2024-08-08T12:48:41.000Z</time>
      </trkpt>
      <trkpt lat="45.593972" lon="7.891342">
        <ele>2257.7439</ele>
        <time>2024-08-08T12:48:43.000Z</time>
      </trkpt>
      <trkpt lat="45.593987" lon="7.89132">
        <ele>2256.93896</ele>
        <time>2024-08-08T12:48:45.000Z</time>
      </trkpt>
      <trkpt lat="45.594003" lon="7.891298">
        <ele>2256.10889</ele>
        <time>2024-08-08T12:48:47.000Z</time>
      </trkpt>
      <trkpt lat="45.594022" lon="7.891283">
        <ele>2255.229</ele>
        <time>2024-08-08T12:48:49.000Z</time>
      </trkpt>
      <trkpt lat="45.594043" lon="7.891265">
        <ele>2254.35889</ele>
        <time>2024-08-08T12:48:51.000Z</time>
      </trkpt>
      <trkpt lat="45.594062" lon="7.891247">
        <ele>2253.46411</ele>
        <time>2024-08-08T12:48:53.000Z</time>
      </trkpt>
      <trkpt lat="45.59409" lon="7.891242">
        <ele>2252.61914</ele>
        <time>2024-08-08T12:48:55.000Z</time>
      </trkpt>
      <trkpt lat="45.594117" lon="7.891232">
        <ele>2251.84424</ele>
        <time>2024-08-08T12:48:57.000Z</time>
      </trkpt>
      <trkpt lat="45.594137" lon="7.891223">
        <ele>2251.0542</ele>
        <time>2024-08-08T12:49:00.000Z</time>
      </trkpt>
      <trkpt lat="45.594155" lon="7.891213">
        <ele>2250.33398</ele>
        <time>2024-08-08T12:49:02.000Z</time>
      </trkpt>
      <trkpt lat="45.594183" lon="7.891202">
        <ele>2249.6792</ele>
        <time>2024-08-08T12:49:04.000Z</time>
      </trkpt>
      <trkpt lat="45.594203" lon="7.891203">
        <ele>2248.979</ele>
        <time>2024-08-08T12:49:08.000Z</time>
      </trkpt>
      <trkpt lat="45.594222" lon="7.891187">
        <ele>2248.31421</ele>
        <time>2024-08-08T12:49:10.000Z</time>
      </trkpt>
      <trkpt lat="45.594232" lon="7.891157">
        <ele>2247.95923</ele>
        <time>2024-08-08T12:49:12.000Z</time>
      </trkpt>
      <trkpt lat="45.594243" lon="7.891128">
        <ele>2247.61914</ele>
        <time>2024-08-08T12:49:15.000Z</time>
      </trkpt>
      <trkpt lat="45.594258" lon="7.891108">
        <ele>2247.32422</ele>
        <time>2024-08-08T12:49:20.000Z</time>
      </trkpt>
      <trkpt lat="45.594273" lon="7.891093">
        <ele>2247.05933</ele>
        <time>2024-08-08T12:49:22.000Z</time>
      </trkpt>
      <trkpt lat="45.59429" lon="7.891083">
        <ele>2246.79443</ele>
        <time>2024-08-08T12:49:24.000Z</time>
      </trkpt>
      <trkpt lat="45.594313" lon="7.891072">
        <ele>2246.50928</ele>
        <time>2024-08-08T12:49:27.000Z</time>
      </trkpt>
      <trkpt lat="45.59434" lon="7.891062">
        <ele>2246.23438</ele>
        <time>2024-08-08T12:49:30.000Z</time>
      </trkpt>
      <trkpt lat="45.594362" lon="7.891037">
        <ele>2245.96436</ele>
        <time>2024-08-08T12:49:33.000Z</time>
      </trkpt>
      <trkpt lat="45.594385" lon="7.891013">
        <ele>2245.72949</ele>
        <time>2024-08-08T12:49:35.000Z</time>
      </trkpt>
      <trkpt lat="45.594402" lon="7.890982">
        <ele>2245.57446</ele>
        <time>2024-08-08T12:49:37.000Z</time>
      </trkpt>
      <trkpt lat="45.594417" lon="7.890957">
        <ele>2245.48438</ele>
        <time>2024-08-08T12:49:39.000Z</time>
      </trkpt>
      <trkpt lat="45.594438" lon="7.890928">
        <ele>2245.44922</ele>
        <time>2024-08-08T12:49:41.000Z</time>
      </trkpt>
      <trkpt lat="45.59445" lon="7.890905">
        <ele>2245.4541</ele>
        <time>2024-08-08T12:49:42.000Z</time>
      </trkpt>
      <trkpt lat="45.594463" lon="7.89088">
        <ele>2245.48389</ele>
        <time>2024-08-08T12:49:44.000Z</time>
      </trkpt>
      <trkpt lat="45.594482" lon="7.89087">
        <ele>2245.52881</ele>
        <time>2024-08-08T12:49:46.000Z</time>
      </trkpt>
      <trkpt lat="45.594498" lon="7.890838">
        <ele>2245.66406</ele>
        <time>2024-08-08T12:49:53.000Z</time>
      </trkpt>
      <trkpt lat="45.594507" lon="7.8908">
        <ele>2245.78418</ele>
        <time>2024-08-08T12:49:56.000Z</time>
      </trkpt>
      <trkpt lat="45.594515" lon="7.890777">
        <ele>2245.92432</ele>
        <time>2024-08-08T12:49:58.000Z</time>
      </trkpt>
      <trkpt lat="45.594527" lon="7.89074">
        <ele>2246.09912</ele>
        <time>2024-08-08T12:50:00.000Z</time>
      </trkpt>
      <trkpt lat="45.594528" lon="7.890712">
        <ele>2246.19922</ele>
        <time>2024-08-08T12:50:02.000Z</time>
      </trkpt>
      <trkpt lat="45.594515" lon="7.89069">
        <ele>2246.31421</ele>
        <time>2024-08-08T12:50:24.000Z</time>
      </trkpt>
      <trkpt lat="45.594492" lon="7.890745">
        <ele>2246.47925</ele>
        <time>2024-08-08T12:50:35.000Z</time>
      </trkpt>
      <trkpt lat="45.594483" lon="7.890775">
        <ele>2246.61426</ele>
        <time>2024-08-08T12:50:37.000Z</time>
      </trkpt>
      <trkpt lat="45.59449" lon="7.8908">
        <ele>2246.69922</ele>
        <time>2024-08-08T12:50:41.000Z</time>
      </trkpt>
      <trkpt lat="45.594545" lon="7.890815">
        <ele>2246.91943</ele>
        <time>2024-08-08T12:52:09.000Z</time>
      </trkpt>
      <trkpt lat="45.59457" lon="7.890833">
        <ele>2247.19434</ele>
        <time>2024-08-08T12:52:12.000Z</time>
      </trkpt>
      <trkpt lat="45.594588" lon="7.89084">
        <ele>2247.52441</ele>
        <time>2024-08-08T12:52:14.000Z</time>
      </trkpt>
      <trkpt lat="45.594605" lon="7.89086">
        <ele>2247.84937</ele>
        <time>2024-08-08T12:52:17.000Z</time>
      </trkpt>
      <trkpt lat="45.594615" lon="7.890883">
        <ele>2248.2395</ele>
        <time>2024-08-08T12:52:20.000Z</time>
      </trkpt>
      <trkpt lat="45.594617" lon="7.890913">
        <ele>2248.58936</ele>
        <time>2024-08-08T12:52:22.000Z</time>
      </trkpt>
      <trkpt lat="45.594625" lon="7.89094">
        <ele>2248.91455</ele>
        <time>2024-08-08T12:52:25.000Z</time>
      </trkpt>
      <trkpt lat="45.594635" lon="7.890962">
        <ele>2249.22949</ele>
        <time>2024-08-08T12:52:28.000Z</time>
      </trkpt>
      <trkpt lat="45.594648" lon="7.890982">
        <ele>2249.47949</ele>
        <time>2024-08-08T12:52:31.000Z</time>
      </trkpt>
      <trkpt lat="45.594667" lon="7.891005">
        <ele>2249.68945</ele>
        <time>2024-08-08T12:52:34.000Z</time>
      </trkpt>
      <trkpt lat="45.594685" lon="7.89102">
        <ele>2249.88452</ele>
        <time>2024-08-08T12:52:36.000Z</time>
      </trkpt>
      <trkpt lat="45.59471" lon="7.891035">
        <ele>2250.08936</ele>
        <time>2024-08-08T12:52:38.000Z</time>
      </trkpt>
      <trkpt lat="45.594723" lon="7.891055">
        <ele>2250.29932</ele>
        <time>2024-08-08T12:52:40.000Z</time>
      </trkpt>
      <trkpt lat="45.594737" lon="7.891077">
        <ele>2250.52441</ele>
        <time>2024-08-08T12:52:42.000Z</time>
      </trkpt>
      <trkpt lat="45.594757" lon="7.89109">
        <ele>2250.78467</ele>
        <time>2024-08-08T12:52:44.000Z</time>
      </trkpt>
      <trkpt lat="45.594777" lon="7.891103">
        <ele>2251.12451</ele>
        <time>2024-08-08T12:52:47.000Z</time>
      </trkpt>
      <trkpt lat="45.594798" lon="7.891088">
        <ele>2251.42432</ele>
        <time>2024-08-08T12:52:51.000Z</time>
      </trkpt>
      <trkpt lat="45.594797" lon="7.891053">
        <ele>2251.72437</ele>
        <time>2024-08-08T12:52:54.000Z</time>
      </trkpt>
      <trkpt lat="45.594792" lon="7.891018">
        <ele>2252.07959</ele>
        <time>2024-08-08T12:52:56.000Z</time>
      </trkpt>
      <trkpt lat="45.594792" lon="7.890992">
        <ele>2252.51953</ele>
        <time>2024-08-08T12:52:58.000Z</time>
      </trkpt>
      <trkpt lat="45.594792" lon="7.890958">
        <ele>2252.93457</ele>
        <time>2024-08-08T12:53:01.000Z</time>
      </trkpt>
      <trkpt lat="45.594783" lon="7.890923">
        <ele>2253.35449</ele>
        <time>2024-08-08T12:53:03.000Z</time>
      </trkpt>
      <trkpt lat="45.594783" lon="7.890893">
        <ele>2253.77441</ele>
        <time>2024-08-08T12:53:05.000Z</time>
      </trkpt>
      <trkpt lat="45.594772" lon="7.890873">
        <ele>2254.19434</ele>
        <time>2024-08-08T12:53:08.000Z</time>
      </trkpt>
      <trkpt lat="45.594753" lon="7.890833">
        <ele>2254.57446</ele>
        <time>2024-08-08T12:53:11.000Z</time>
      </trkpt>
      <trkpt lat="45.59474" lon="7.8908">
        <ele>2254.93945</ele>
        <time>2024-08-08T12:53:13.000Z</time>
      </trkpt>
      <trkpt lat="45.594733" lon="7.890772">
        <ele>2255.27954</ele>
        <time>2024-08-08T12:53:15.000Z</time>
      </trkpt>
      <trkpt lat="45.59473" lon="7.890745">
        <ele>2255.6145</ele>
        <time>2024-08-08T12:53:17.000Z</time>
      </trkpt>
      <trkpt lat="45.594735" lon="7.890707">
        <ele>2255.97437</ele>
        <time>2024-08-08T12:53:20.000Z</time>
      </trkpt>
      <trkpt lat="45.594747" lon="7.890668">
        <ele>2256.32446</ele>
        <time>2024-08-08T12:53:22.000Z</time>
      </trkpt>
      <trkpt lat="45.594757" lon="7.890635">
        <ele>2256.62939</ele>
        <time>2024-08-08T12:53:25.000Z</time>
      </trkpt>
      <trkpt lat="45.594763" lon="7.890607">
        <ele>2256.92432</ele>
        <time>2024-08-08T12:53:27.000Z</time>
      </trkpt>
      <trkpt lat="45.594753" lon="7.890577">
        <ele>2257.23438</ele>
        <time>2024-08-08T12:53:31.000Z</time>
      </trkpt>
      <trkpt lat="45.594743" lon="7.890545">
        <ele>2257.54932</ele>
        <time>2024-08-08T12:53:36.000Z</time>
      </trkpt>
      <trkpt lat="45.594748" lon="7.89052">
        <ele>2257.854</ele>
        <time>2024-08-08T12:53:39.000Z</time>
      </trkpt>
      <trkpt lat="45.594768" lon="7.890518">
        <ele>2258.16431</ele>
        <time>2024-08-08T12:53:43.000Z</time>
      </trkpt>
      <trkpt lat="45.594787" lon="7.890505">
        <ele>2258.50928</ele>
        <time>2024-08-08T12:53:46.000Z</time>
      </trkpt>
      <trkpt lat="45.594798" lon="7.890482">
        <ele>2258.88428</ele>
        <time>2024-08-08T12:53:52.000Z</time>
      </trkpt>
      <trkpt lat="45.594805" lon="7.890445">
        <ele>2259.27417</ele>
        <time>2024-08-08T12:53:59.000Z</time>
      </trkpt>
      <trkpt lat="45.5948" lon="7.89041">
        <ele>2259.62427</ele>
        <time>2024-08-08T12:54:04.000Z</time>
      </trkpt>
      <trkpt lat="45.594807" lon="7.890383">
        <ele>2259.89917</ele>
        <time>2024-08-08T12:54:06.000Z</time>
      </trkpt>
      <trkpt lat="45.59481" lon="7.890353">
        <ele>2260.14917</ele>
        <time>2024-08-08T12:54:08.000Z</time>
      </trkpt>
      <trkpt lat="45.594812" lon="7.890318">
        <ele>2260.39429</ele>
        <time>2024-08-08T12:54:11.000Z</time>
      </trkpt>
      <trkpt lat="45.594822" lon="7.890283">
        <ele>2260.62939</ele>
        <time>2024-08-08T12:54:13.000Z</time>
      </trkpt>
      <trkpt lat="45.594828" lon="7.890255">
        <ele>2260.81445</ele>
        <time>2024-08-08T12:54:15.000Z</time>
      </trkpt>
      <trkpt lat="45.594842" lon="7.890223">
        <ele>2260.94946</ele>
        <time>2024-08-08T12:54:17.000Z</time>
      </trkpt>
      <trkpt lat="45.594858" lon="7.89018">
        <ele>2261.07446</ele>
        <time>2024-08-08T12:54:19.000Z</time>
      </trkpt>
      <trkpt lat="45.594868" lon="7.890143">
        <ele>2261.17944</ele>
        <time>2024-08-08T12:54:21.000Z</time>
      </trkpt>
      <trkpt lat="45.594878" lon="7.890122">
        <ele>2261.30957</ele>
        <time>2024-08-08T12:54:24.000Z</time>
      </trkpt>
      <trkpt lat="45.594892" lon="7.8901">
        <ele>2261.48462</ele>
        <time>2024-08-08T12:54:28.000Z</time>
      </trkpt>
      <trkpt lat="45.594905" lon="7.890082">
        <ele>2261.70947</ele>
        <time>2024-08-08T12:54:33.000Z</time>
      </trkpt>
      <trkpt lat="45.594922" lon="7.890072">
        <ele>2261.89941</ele>
        <time>2024-08-08T12:54:38.000Z</time>
      </trkpt>
      <trkpt lat="45.594942" lon="7.890053">
        <ele>2262.02954</ele>
        <time>2024-08-08T12:54:41.000Z</time>
      </trkpt>
      <trkpt lat="45.594963" lon="7.890058">
        <ele>2262.09961</ele>
        <time>2024-08-08T12:54:44.000Z</time>
      </trkpt>
      <trkpt lat="45.594982" lon="7.890072">
        <ele>2262.0896</ele>
        <time>2024-08-08T12:54:47.000Z</time>
      </trkpt>
      <trkpt lat="45.595003" lon="7.890083">
        <ele>2261.97461</ele>
        <time>2024-08-08T12:54:50.000Z</time>
      </trkpt>
      <trkpt lat="45.595022" lon="7.890082">
        <ele>2261.77466</ele>
        <time>2024-08-08T12:54:52.000Z</time>
      </trkpt>
      <trkpt lat="45.595045" lon="7.890077">
        <ele>2261.38965</ele>
        <time>2024-08-08T12:54:55.000Z</time>
      </trkpt>
      <trkpt lat="45.595063" lon="7.890078">
        <ele>2260.91943</ele>
        <time>2024-08-08T12:54:57.000Z</time>
      </trkpt>
      <trkpt lat="45.595082" lon="7.890077">
        <ele>2260.43433</ele>
        <time>2024-08-08T12:54:59.000Z</time>
      </trkpt>
      <trkpt lat="45.595102" lon="7.89007">
        <ele>2259.89917</ele>
        <time>2024-08-08T12:55:02.000Z</time>
      </trkpt>
      <trkpt lat="45.595122" lon="7.890057">
        <ele>2259.29932</ele>
        <time>2024-08-08T12:55:05.000Z</time>
      </trkpt>
      <trkpt lat="45.595143" lon="7.890057">
        <ele>2258.61914</ele>
        <time>2024-08-08T12:55:08.000Z</time>
      </trkpt>
      <trkpt lat="45.595162" lon="7.890068">
        <ele>2257.90894</ele>
        <time>2024-08-08T12:55:13.000Z</time>
      </trkpt>
      <trkpt lat="45.595173" lon="7.8901">
        <ele>2257.20386</ele>
        <time>2024-08-08T12:55:15.000Z</time>
      </trkpt>
      <trkpt lat="45.595187" lon="7.890118">
        <ele>2256.53394</ele>
        <time>2024-08-08T12:55:16.000Z</time>
      </trkpt>
      <trkpt lat="45.595207" lon="7.890137">
        <ele>2255.87402</ele>
        <time>2024-08-08T12:55:18.000Z</time>
      </trkpt>
      <trkpt lat="45.595217" lon="7.890158">
        <ele>2255.22412</ele>
        <time>2024-08-08T12:55:20.000Z</time>
      </trkpt>
      <trkpt lat="45.595233" lon="7.890185">
        <ele>2254.55908</ele>
        <time>2024-08-08T12:55:23.000Z</time>
      </trkpt>
      <trkpt lat="45.59525" lon="7.890195">
        <ele>2253.85889</ele>
        <time>2024-08-08T12:55:26.000Z</time>
      </trkpt>
      <trkpt lat="45.59527" lon="7.890212">
        <ele>2253.12915</ele>
        <time>2024-08-08T12:55:29.000Z</time>
      </trkpt>
      <trkpt lat="45.595297" lon="7.89023">
        <ele>2252.39404</ele>
        <time>2024-08-08T12:55:32.000Z</time>
      </trkpt>
      <trkpt lat="45.595317" lon="7.890252">
        <ele>2251.69409</ele>
        <time>2024-08-08T12:55:34.000Z</time>
      </trkpt>
      <trkpt lat="45.59533" lon="7.890287">
        <ele>2250.979</ele>
        <time>2024-08-08T12:55:37.000Z</time>
      </trkpt>
      <trkpt lat="45.595355" lon="7.890298">
        <ele>2250.31909</ele>
        <time>2024-08-08T12:55:39.000Z</time>
      </trkpt>
      <trkpt lat="45.59537" lon="7.890315">
        <ele>2249.73901</ele>
        <time>2024-08-08T12:55:42.000Z</time>
      </trkpt>
      <trkpt lat="45.595385" lon="7.890332">
        <ele>2249.19922</ele>
        <time>2024-08-08T12:55:44.000Z</time>
      </trkpt>
      <trkpt lat="45.5954" lon="7.890355">
        <ele>2248.74927</ele>
        <time>2024-08-08T12:55:46.000Z</time>
      </trkpt>
      <trkpt lat="45.595417" lon="7.890372">
        <ele>2248.33936</ele>
        <time>2024-08-08T12:55:48.000Z</time>
      </trkpt>
      <trkpt lat="45.595433" lon="7.890388">
        <ele>2247.98438</ele>
        <time>2024-08-08T12:55:50.000Z</time>
      </trkpt>
      <trkpt lat="45.595452" lon="7.890412">
        <ele>2247.64453</ele>
        <time>2024-08-08T12:55:53.000Z</time>
      </trkpt>
      <trkpt lat="45.595482" lon="7.89043">
        <ele>2247.3894</ele>
        <time>2024-08-08T12:55:55.000Z</time>
      </trkpt>
      <trkpt lat="45.595495" lon="7.890452">
        <ele>2247.21436</ele>
        <time>2024-08-08T12:55:57.000Z</time>
      </trkpt>
      <trkpt lat="45.595512" lon="7.890475">
        <ele>2247.04443</ele>
        <time>2024-08-08T12:56:00.000Z</time>
      </trkpt>
      <trkpt lat="45.59553" lon="7.890487">
        <ele>2246.89966</ele>
        <time>2024-08-08T12:56:03.000Z</time>
      </trkpt>
      <trkpt lat="45.59555" lon="7.890502">
        <ele>2246.72974</ele>
        <time>2024-08-08T12:56:06.000Z</time>
      </trkpt>
      <trkpt lat="45.59556" lon="7.890525">
        <ele>2246.51465</ele>
        <time>2024-08-08T12:56:08.000Z</time>
      </trkpt>
      <trkpt lat="45.595575" lon="7.890543">
        <ele>2246.26465</ele>
        <time>2024-08-08T12:56:10.000Z</time>
      </trkpt>
      <trkpt lat="45.595587" lon="7.890572">
        <ele>2246.00977</ele>
        <time>2024-08-08T12:56:13.000Z</time>
      </trkpt>
      <trkpt lat="45.595602" lon="7.890593">
        <ele>2245.71997</ele>
        <time>2024-08-08T12:56:17.000Z</time>
      </trkpt>
      <trkpt lat="45.595622" lon="7.890603">
        <ele>2245.3999</ele>
        <time>2024-08-08T12:56:20.000Z</time>
      </trkpt>
      <trkpt lat="45.595642" lon="7.890615">
        <ele>2245.08472</ele>
        <time>2024-08-08T12:56:23.000Z</time>
      </trkpt>
      <trkpt lat="45.59566" lon="7.890628">
        <ele>2244.80469</ele>
        <time>2024-08-08T12:56:26.000Z</time>
      </trkpt>
      <trkpt lat="45.595677" lon="7.890652">
        <ele>2244.57959</ele>
        <time>2024-08-08T12:56:30.000Z</time>
      </trkpt>
      <trkpt lat="45.59569" lon="7.890672">
        <ele>2244.35474</ele>
        <time>2024-08-08T12:56:32.000Z</time>
      </trkpt>
      <trkpt lat="45.595713" lon="7.890677">
        <ele>2244.11963</ele>
        <time>2024-08-08T12:56:34.000Z</time>
      </trkpt>
      <trkpt lat="45.595737" lon="7.89069">
        <ele>2243.87451</ele>
        <time>2024-08-08T12:56:36.000Z</time>
      </trkpt>
      <trkpt lat="45.59576" lon="7.89071">
        <ele>2243.64966</ele>
        <time>2024-08-08T12:56:39.000Z</time>
      </trkpt>
      <trkpt lat="45.59578" lon="7.890715">
        <ele>2243.49951</ele>
        <time>2024-08-08T12:56:46.000Z</time>
      </trkpt>
      <trkpt lat="45.595798" lon="7.890722">
        <ele>2243.35962</ele>
        <time>2024-08-08T12:56:51.000Z</time>
      </trkpt>
      <trkpt lat="45.595795" lon="7.89069">
        <ele>2243.23462</ele>
        <time>2024-08-08T12:56:59.000Z</time>
      </trkpt>
      <trkpt lat="45.595798" lon="7.890718">
        <ele>2242.8396</ele>
        <time>2024-08-08T12:57:54.000Z</time>
      </trkpt>
      <trkpt lat="45.595807" lon="7.890692">
        <ele>2242.49951</ele>
        <time>2024-08-08T12:58:06.000Z</time>
      </trkpt>
      <trkpt lat="45.59581" lon="7.890738">
        <ele>2242.30957</ele>
        <time>2024-08-08T12:58:24.000Z</time>
      </trkpt>
      <trkpt lat="45.595782" lon="7.890718">
        <ele>2242.08936</ele>
        <time>2024-08-08T12:58:44.000Z</time>
      </trkpt>
      <trkpt lat="45.595778" lon="7.890688">
        <ele>2241.88428</ele>
        <time>2024-08-08T12:58:50.000Z</time>
      </trkpt>
      <trkpt lat="45.595777" lon="7.890657">
        <ele>2241.71924</ele>
        <time>2024-08-08T12:58:55.000Z</time>
      </trkpt>
      <trkpt lat="45.59579" lon="7.890638">
        <ele>2241.56421</ele>
        <time>2024-08-08T12:58:58.000Z</time>
      </trkpt>
      <trkpt lat="45.595807" lon="7.89065">
        <ele>2241.38916</ele>
        <time>2024-08-08T12:59:04.000Z</time>
      </trkpt>
      <trkpt lat="45.595802" lon="7.890715">
        <ele>2241.16431</ele>
        <time>2024-08-08T13:00:30.000Z</time>
      </trkpt>
      <trkpt lat="45.59582" lon="7.890712">
        <ele>2241.10938</ele>
        <time>2024-08-08T13:01:07.000Z</time>
      </trkpt>
      <trkpt lat="45.595832" lon="7.890732">
        <ele>2241.15942</ele>
        <time>2024-08-08T13:01:30.000Z</time>
      </trkpt>
      <trkpt lat="45.595838" lon="7.890763">
        <ele>2241.19434</ele>
        <time>2024-08-08T13:02:27.000Z</time>
      </trkpt>
      <trkpt lat="45.595852" lon="7.890782">
        <ele>2241.21436</ele>
        <time>2024-08-08T13:02:31.000Z</time>
      </trkpt>
      <trkpt lat="45.59589" lon="7.890775">
        <ele>2241.14917</ele>
        <time>2024-08-08T13:02:51.000Z</time>
      </trkpt>
      <trkpt lat="45.595908" lon="7.890775">
        <ele>2241.12427</ele>
        <time>2024-08-08T13:02:55.000Z</time>
      </trkpt>
      <trkpt lat="45.595927" lon="7.890763">
        <ele>2241.13916</ele>
        <time>2024-08-08T13:03:02.000Z</time>
      </trkpt>
      <trkpt lat="45.595948" lon="7.890757">
        <ele>2241.12939</ele>
        <time>2024-08-08T13:03:07.000Z</time>
      </trkpt>
      <trkpt lat="45.595967" lon="7.89076">
        <ele>2240.98438</ele>
        <time>2024-08-08T13:03:12.000Z</time>
      </trkpt>
      <trkpt lat="45.595985" lon="7.890763">
        <ele>2240.7793</ele>
        <time>2024-08-08T13:03:14.000Z</time>
      </trkpt>
      <trkpt lat="45.596005" lon="7.890782">
        <ele>2240.54932</ele>
        <time>2024-08-08T13:03:17.000Z</time>
      </trkpt>
      <trkpt lat="45.595988" lon="7.890795">
        <ele>2240.43408</ele>
        <time>2024-08-08T13:03:23.000Z</time>
      </trkpt>
      <trkpt lat="45.596033" lon="7.890787">
        <ele>2240.1792</ele>
        <time>2024-08-08T13:03:43.000Z</time>
      </trkpt>
      <trkpt lat="45.596053" lon="7.890782">
        <ele>2239.80933</ele>
        <time>2024-08-08T13:03:44.000Z</time>
      </trkpt>
      <trkpt lat="45.596073" lon="7.890772">
        <ele>2239.43945</ele>
        <time>2024-08-08T13:03:45.000Z</time>
      </trkpt>
      <trkpt lat="45.596103" lon="7.890755">
        <ele>2239.03442</ele>
        <time>2024-08-08T13:03:47.000Z</time>
      </trkpt>
      <trkpt lat="45.59613" lon="7.890748">
        <ele>2238.54932</ele>
        <time>2024-08-08T13:03:49.000Z</time>
      </trkpt>
      <trkpt lat="45.596152" lon="7.890742">
        <ele>2237.96948</ele>
        <time>2024-08-08T13:03:51.000Z</time>
      </trkpt>
      <trkpt lat="45.596177" lon="7.89074">
        <ele>2237.34937</ele>
        <time>2024-08-08T13:03:53.000Z</time>
      </trkpt>
      <trkpt lat="45.596205" lon="7.890737">
        <ele>2236.73438</ele>
        <time>2024-08-08T13:03:55.000Z</time>
      </trkpt>
      <trkpt lat="45.596225" lon="7.890745">
        <ele>2235.92432</ele>
        <time>2024-08-08T13:03:57.000Z</time>
      </trkpt>
      <trkpt lat="45.59625" lon="7.890758">
        <ele>2234.96924</ele>
        <time>2024-08-08T13:04:00.000Z</time>
      </trkpt>
      <trkpt lat="45.596272" lon="7.890752">
        <ele>2233.93945</ele>
        <time>2024-08-08T13:04:03.000Z</time>
      </trkpt>
      <trkpt lat="45.596293" lon="7.890765">
        <ele>2232.88452</ele>
        <time>2024-08-08T13:04:06.000Z</time>
      </trkpt>
      <trkpt lat="45.596315" lon="7.890768">
        <ele>2231.91943</ele>
        <time>2024-08-08T13:04:09.000Z</time>
      </trkpt>
      <trkpt lat="45.596333" lon="7.890767">
        <ele>2230.93945</ele>
        <time>2024-08-08T13:04:11.000Z</time>
      </trkpt>
      <trkpt lat="45.596352" lon="7.89077">
        <ele>2229.95459</ele>
        <time>2024-08-08T13:04:14.000Z</time>
      </trkpt>
      <trkpt lat="45.596373" lon="7.890758">
        <ele>2229.02441</ele>
        <time>2024-08-08T13:04:18.000Z</time>
      </trkpt>
      <trkpt lat="45.596392" lon="7.890738">
        <ele>2228.19434</ele>
        <time>2024-08-08T13:04:21.000Z</time>
      </trkpt>
      <trkpt lat="45.59641" lon="7.890732">
        <ele>2227.37939</ele>
        <time>2024-08-08T13:04:24.000Z</time>
      </trkpt>
      <trkpt lat="45.596433" lon="7.89074">
        <ele>2226.56958</ele>
        <time>2024-08-08T13:04:27.000Z</time>
      </trkpt>
      <trkpt lat="45.596458" lon="7.890735">
        <ele>2225.88965</ele>
        <time>2024-08-08T13:04:29.000Z</time>
      </trkpt>
      <trkpt lat="45.596478" lon="7.890717">
        <ele>2225.2146</ele>
        <time>2024-08-08T13:04:31.000Z</time>
      </trkpt>
      <trkpt lat="45.596505" lon="7.890715">
        <ele>2224.42456</ele>
        <time>2024-08-08T13:04:34.000Z</time>
      </trkpt>
      <trkpt lat="45.596525" lon="7.89073">
        <ele>2223.56958</ele>
        <time>2024-08-08T13:04:36.000Z</time>
      </trkpt>
      <trkpt lat="45.596547" lon="7.890755">
        <ele>2222.73462</ele>
        <time>2024-08-08T13:04:38.000Z</time>
      </trkpt>
      <trkpt lat="45.596567" lon="7.890773">
        <ele>2221.96436</ele>
        <time>2024-08-08T13:04:40.000Z</time>
      </trkpt>
      <trkpt lat="45.596585" lon="7.890782">
        <ele>2221.25439</ele>
        <time>2024-08-08T13:04:42.000Z</time>
      </trkpt>
      <trkpt lat="45.596602" lon="7.890793">
        <ele>2220.56445</ele>
        <time>2024-08-08T13:04:44.000Z</time>
      </trkpt>
      <trkpt lat="45.59662" lon="7.890805">
        <ele>2219.90942</ele>
        <time>2024-08-08T13:04:46.000Z</time>
      </trkpt>
      <trkpt lat="45.596645" lon="7.89082">
        <ele>2219.30933</ele>
        <time>2024-08-08T13:04:48.000Z</time>
      </trkpt>
      <trkpt lat="45.596677" lon="7.890825">
        <ele>2218.76416</ele>
        <time>2024-08-08T13:04:50.000Z</time>
      </trkpt>
      <trkpt lat="45.59671" lon="7.89081">
        <ele>2218.28931</ele>
        <time>2024-08-08T13:04:52.000Z</time>
      </trkpt>
      <trkpt lat="45.596737" lon="7.890795">
        <ele>2217.85425</ele>
        <time>2024-08-08T13:04:54.000Z</time>
      </trkpt>
      <trkpt lat="45.596758" lon="7.8908">
        <ele>2217.48438</ele>
        <time>2024-08-08T13:04:58.000Z</time>
      </trkpt>
      <trkpt lat="45.596787" lon="7.890803">
        <ele>2217.10938</ele>
        <time>2024-08-08T13:05:01.000Z</time>
      </trkpt>
      <trkpt lat="45.596808" lon="7.890788">
        <ele>2216.72925</ele>
        <time>2024-08-08T13:05:04.000Z</time>
      </trkpt>
      <trkpt lat="45.596822" lon="7.890767">
        <ele>2216.33447</ele>
        <time>2024-08-08T13:05:06.000Z</time>
      </trkpt>
      <trkpt lat="45.596832" lon="7.890738">
        <ele>2215.8894</ele>
        <time>2024-08-08T13:05:09.000Z</time>
      </trkpt>
      <trkpt lat="45.596855" lon="7.890743">
        <ele>2215.38428</ele>
        <time>2024-08-08T13:05:13.000Z</time>
      </trkpt>
      <trkpt lat="45.596875" lon="7.890743">
        <ele>2214.87939</ele>
        <time>2024-08-08T13:05:15.000Z</time>
      </trkpt>
      <trkpt lat="45.596897" lon="7.890752">
        <ele>2214.3042</ele>
        <time>2024-08-08T13:05:18.000Z</time>
      </trkpt>
      <trkpt lat="45.596925" lon="7.89076">
        <ele>2213.73926</ele>
        <time>2024-08-08T13:05:20.000Z</time>
      </trkpt>
      <trkpt lat="45.59695" lon="7.890768">
        <ele>2213.24438</ele>
        <time>2024-08-08T13:05:22.000Z</time>
      </trkpt>
      <trkpt lat="45.596972" lon="7.890783">
        <ele>2212.78955</ele>
        <time>2024-08-08T13:05:25.000Z</time>
      </trkpt>
      <trkpt lat="45.596993" lon="7.890797">
        <ele>2212.32959</ele>
        <time>2024-08-08T13:05:27.000Z</time>
      </trkpt>
      <trkpt lat="45.597015" lon="7.8908">
        <ele>2211.89453</ele>
        <time>2024-08-08T13:05:29.000Z</time>
      </trkpt>
      <trkpt lat="45.597045" lon="7.890792">
        <ele>2211.44946</ele>
        <time>2024-08-08T13:05:33.000Z</time>
      </trkpt>
      <trkpt lat="45.597068" lon="7.890778">
        <ele>2211.03955</ele>
        <time>2024-08-08T13:05:35.000Z</time>
      </trkpt>
      <trkpt lat="45.59709" lon="7.890773">
        <ele>2210.67944</ele>
        <time>2024-08-08T13:05:37.000Z</time>
      </trkpt>
      <trkpt lat="45.597118" lon="7.890757">
        <ele>2210.37451</ele>
        <time>2024-08-08T13:05:40.000Z</time>
      </trkpt>
      <trkpt lat="45.597142" lon="7.890762">
        <ele>2210.10474</ele>
        <time>2024-08-08T13:05:42.000Z</time>
      </trkpt>
      <trkpt lat="45.597162" lon="7.890767">
        <ele>2209.86475</ele>
        <time>2024-08-08T13:05:44.000Z</time>
      </trkpt>
      <trkpt lat="45.59718" lon="7.890765">
        <ele>2209.64453</ele>
        <time>2024-08-08T13:05:46.000Z</time>
      </trkpt>
      <trkpt lat="45.597203" lon="7.890757">
        <ele>2209.33936</ele>
        <time>2024-08-08T13:05:49.000Z</time>
      </trkpt>
      <trkpt lat="45.597222" lon="7.890758">
        <ele>2209.00952</ele>
        <time>2024-08-08T13:05:51.000Z</time>
      </trkpt>
      <trkpt lat="45.597243" lon="7.890757">
        <ele>2208.63452</ele>
        <time>2024-08-08T13:05:54.000Z</time>
      </trkpt>
      <trkpt lat="45.597272" lon="7.89076">
        <ele>2208.22461</ele>
        <time>2024-08-08T13:05:56.000Z</time>
      </trkpt>
      <trkpt lat="45.59729" lon="7.89077">
        <ele>2207.82959</ele>
        <time>2024-08-08T13:05:58.000Z</time>
      </trkpt>
      <trkpt lat="45.597313" lon="7.890785">
        <ele>2207.50952</ele>
        <time>2024-08-08T13:06:01.000Z</time>
      </trkpt>
      <trkpt lat="45.597338" lon="7.890798">
        <ele>2207.18457</ele>
        <time>2024-08-08T13:06:04.000Z</time>
      </trkpt>
      <trkpt lat="45.597363" lon="7.890813">
        <ele>2206.92432</ele>
        <time>2024-08-08T13:06:06.000Z</time>
      </trkpt>
      <trkpt lat="45.597383" lon="7.890817">
        <ele>2206.72437</ele>
        <time>2024-08-08T13:06:08.000Z</time>
      </trkpt>
      <trkpt lat="45.597403" lon="7.890822">
        <ele>2206.55933</ele>
        <time>2024-08-08T13:06:10.000Z</time>
      </trkpt>
      <trkpt lat="45.597415" lon="7.890862">
        <ele>2206.41943</ele>
        <time>2024-08-08T13:06:13.000Z</time>
      </trkpt>
      <trkpt lat="45.597435" lon="7.890883">
        <ele>2206.34424</ele>
        <time>2024-08-08T13:06:15.000Z</time>
      </trkpt>
      <trkpt lat="45.597442" lon="7.890913">
        <ele>2206.26929</ele>
        <time>2024-08-08T13:06:18.000Z</time>
      </trkpt>
      <trkpt lat="45.59744" lon="7.89095">
        <ele>2206.23438</ele>
        <time>2024-08-08T13:06:21.000Z</time>
      </trkpt>
      <trkpt lat="45.597458" lon="7.890967">
        <ele>2206.18433</ele>
        <time>2024-08-08T13:06:24.000Z</time>
      </trkpt>
      <trkpt lat="45.597478" lon="7.890972">
        <ele>2206.13428</ele>
        <time>2024-08-08T13:06:26.000Z</time>
      </trkpt>
      <trkpt lat="45.597495" lon="7.890982">
        <ele>2206.01416</ele>
        <time>2024-08-08T13:06:28.000Z</time>
      </trkpt>
      <trkpt lat="45.59749" lon="7.891013">
        <ele>2205.82422</ele>
        <time>2024-08-08T13:06:30.000Z</time>
      </trkpt>
      <trkpt lat="45.597482" lon="7.891047">
        <ele>2205.55908</ele>
        <time>2024-08-08T13:06:32.000Z</time>
      </trkpt>
      <trkpt lat="45.59748" lon="7.891078">
        <ele>2205.22412</ele>
        <time>2024-08-08T13:06:34.000Z</time>
      </trkpt>
      <trkpt lat="45.597487" lon="7.891105">
        <ele>2204.87939</ele>
        <time>2024-08-08T13:06:36.000Z</time>
      </trkpt>
      <trkpt lat="45.597498" lon="7.891128">
        <ele>2204.5542</ele>
        <time>2024-08-08T13:06:39.000Z</time>
      </trkpt>
      <trkpt lat="45.597525" lon="7.89114">
        <ele>2204.26416</ele>
        <time>2024-08-08T13:06:41.000Z</time>
      </trkpt>
      <trkpt lat="45.597547" lon="7.891157">
        <ele>2204.01416</ele>
        <time>2024-08-08T13:06:42.000Z</time>
      </trkpt>
      <trkpt lat="45.59758" lon="7.891177">
        <ele>2203.79932</ele>
        <time>2024-08-08T13:06:44.000Z</time>
      </trkpt>
      <trkpt lat="45.597598" lon="7.891182">
        <ele>2203.61401</ele>
        <time>2024-08-08T13:06:45.000Z</time>
      </trkpt>
      <trkpt lat="45.597628" lon="7.89119">
        <ele>2203.53418</ele>
        <time>2024-08-08T13:06:47.000Z</time>
      </trkpt>
      <trkpt lat="45.597653" lon="7.891203">
        <ele>2203.47925</ele>
        <time>2024-08-08T13:06:50.000Z</time>
      </trkpt>
      <trkpt lat="45.597678" lon="7.891212">
        <ele>2203.36938</ele>
        <time>2024-08-08T13:06:53.000Z</time>
      </trkpt>
      <trkpt lat="45.597712" lon="7.891215">
        <ele>2203.23926</ele>
        <time>2024-08-08T13:06:55.000Z</time>
      </trkpt>
      <trkpt lat="45.597747" lon="7.891223">
        <ele>2203.12939</ele>
        <time>2024-08-08T13:06:57.000Z</time>
      </trkpt>
      <trkpt lat="45.597777" lon="7.891232">
        <ele>2202.98438</ele>
        <time>2024-08-08T13:06:59.000Z</time>
      </trkpt>
      <trkpt lat="45.597795" lon="7.891235">
        <ele>2202.83447</ele>
        <time>2024-08-08T13:07:00.000Z</time>
      </trkpt>
      <trkpt lat="45.59782" lon="7.89124">
        <ele>2202.71924</ele>
        <time>2024-08-08T13:07:02.000Z</time>
      </trkpt>
      <trkpt lat="45.597852" lon="7.891247">
        <ele>2202.62939</ele>
        <time>2024-08-08T13:07:04.000Z</time>
      </trkpt>
      <trkpt lat="45.597875" lon="7.891255">
        <ele>2202.52417</ele>
        <time>2024-08-08T13:07:06.000Z</time>
      </trkpt>
      <trkpt lat="45.597893" lon="7.891252">
        <ele>2202.42432</ele>
        <time>2024-08-08T13:07:10.000Z</time>
      </trkpt>
      <trkpt lat="45.59792" lon="7.891228">
        <ele>2202.17432</ele>
        <time>2024-08-08T13:07:35.000Z</time>
      </trkpt>
      <trkpt lat="45.597945" lon="7.891222">
        <ele>2201.94409</ele>
        <time>2024-08-08T13:07:38.000Z</time>
      </trkpt>
      <trkpt lat="45.597972" lon="7.891215">
        <ele>2201.74414</ele>
        <time>2024-08-08T13:07:41.000Z</time>
      </trkpt>
      <trkpt lat="45.597995" lon="7.891205">
        <ele>2201.59912</ele>
        <time>2024-08-08T13:07:43.000Z</time>
      </trkpt>
      <trkpt lat="45.598017" lon="7.8912">
        <ele>2201.44385</ele>
        <time>2024-08-08T13:07:46.000Z</time>
      </trkpt>
      <trkpt lat="45.598042" lon="7.891207">
        <ele>2201.25415</ele>
        <time>2024-08-08T13:07:49.000Z</time>
      </trkpt>
      <trkpt lat="45.598063" lon="7.891205">
        <ele>2201.01904</ele>
        <time>2024-08-08T13:07:51.000Z</time>
      </trkpt>
      <trkpt lat="45.598087" lon="7.891208">
        <ele>2200.75903</ele>
        <time>2024-08-08T13:07:53.000Z</time>
      </trkpt>
      <trkpt lat="45.598108" lon="7.8912">
        <ele>2200.50903</ele>
        <time>2024-08-08T13:07:55.000Z</time>
      </trkpt>
      <trkpt lat="45.598133" lon="7.891188">
        <ele>2200.229</ele>
        <time>2024-08-08T13:07:57.000Z</time>
      </trkpt>
      <trkpt lat="45.598157" lon="7.891182">
        <ele>2199.96899</ele>
        <time>2024-08-08T13:07:59.000Z</time>
      </trkpt>
      <trkpt lat="45.598185" lon="7.891172">
        <ele>2199.79883</ele>
        <time>2024-08-08T13:08:01.000Z</time>
      </trkpt>
      <trkpt lat="45.598202" lon="7.891162">
        <ele>2199.66895</ele>
        <time>2024-08-08T13:08:02.000Z</time>
      </trkpt>
      <trkpt lat="45.59823" lon="7.891155">
        <ele>2199.50391</ele>
        <time>2024-08-08T13:08:04.000Z</time>
      </trkpt>
      <trkpt lat="45.59825" lon="7.891152">
        <ele>2199.27881</ele>
        <time>2024-08-08T13:08:08.000Z</time>
      </trkpt>
      <trkpt lat="45.598263" lon="7.891172">
        <ele>2198.99902</ele>
        <time>2024-08-08T13:08:11.000Z</time>
      </trkpt>
      <trkpt lat="45.598282" lon="7.89119">
        <ele>2198.56396</ele>
        <time>2024-08-08T13:08:15.000Z</time>
      </trkpt>
      <trkpt lat="45.598303" lon="7.891188">
        <ele>2198.02905</ele>
        <time>2024-08-08T13:08:23.000Z</time>
      </trkpt>
      <trkpt lat="45.598323" lon="7.891197">
        <ele>2197.45923</ele>
        <time>2024-08-08T13:08:26.000Z</time>
      </trkpt>
      <trkpt lat="45.598342" lon="7.8912">
        <ele>2196.90918</ele>
        <time>2024-08-08T13:08:28.000Z</time>
      </trkpt>
      <trkpt lat="45.59836" lon="7.89121">
        <ele>2196.50928</ele>
        <time>2024-08-08T13:08:31.000Z</time>
      </trkpt>
      <trkpt lat="45.598375" lon="7.891225">
        <ele>2196.03931</ele>
        <time>2024-08-08T13:08:35.000Z</time>
      </trkpt>
      <trkpt lat="45.598395" lon="7.891238">
        <ele>2195.46924</ele>
        <time>2024-08-08T13:08:39.000Z</time>
      </trkpt>
      <trkpt lat="45.598408" lon="7.891265">
        <ele>2194.78442</ele>
        <time>2024-08-08T13:08:42.000Z</time>
      </trkpt>
      <trkpt lat="45.598435" lon="7.89127">
        <ele>2194.07959</ele>
        <time>2024-08-08T13:08:45.000Z</time>
      </trkpt>
      <trkpt lat="45.598457" lon="7.891273">
        <ele>2193.38428</ele>
        <time>2024-08-08T13:08:47.000Z</time>
      </trkpt>
      <trkpt lat="45.598478" lon="7.891263">
        <ele>2192.70947</ele>
        <time>2024-08-08T13:08:50.000Z</time>
      </trkpt>
      <trkpt lat="45.598493" lon="7.891283">
        <ele>2191.97437</ele>
        <time>2024-08-08T13:08:53.000Z</time>
      </trkpt>
      <trkpt lat="45.598508" lon="7.891302">
        <ele>2191.09448</ele>
        <time>2024-08-08T13:09:01.000Z</time>
      </trkpt>
      <trkpt lat="45.598528" lon="7.89133">
        <ele>2190.14966</ele>
        <time>2024-08-08T13:09:09.000Z</time>
      </trkpt>
      <trkpt lat="45.59855" lon="7.89134">
        <ele>2189.15454</ele>
        <time>2024-08-08T13:09:13.000Z</time>
      </trkpt>
      <trkpt lat="45.59857" lon="7.891337">
        <ele>2188.10449</ele>
        <time>2024-08-08T13:09:16.000Z</time>
      </trkpt>
      <trkpt lat="45.598587" lon="7.891353">
        <ele>2186.93945</ele>
        <time>2024-08-08T13:09:20.000Z</time>
      </trkpt>
      <trkpt lat="45.598608" lon="7.891352">
        <ele>2185.66455</ele>
        <time>2024-08-08T13:09:28.000Z</time>
      </trkpt>
      <trkpt lat="45.598628" lon="7.891363">
        <ele>2184.4292</ele>
        <time>2024-08-08T13:09:30.000Z</time>
      </trkpt>
      <trkpt lat="45.598653" lon="7.891362">
        <ele>2183.23413</ele>
        <time>2024-08-08T13:09:32.000Z</time>
      </trkpt>
      <trkpt lat="45.598678" lon="7.891363">
        <ele>2182.18921</ele>
        <time>2024-08-08T13:09:35.000Z</time>
      </trkpt>
      <trkpt lat="45.598707" lon="7.891368">
        <ele>2181.22412</ele>
        <time>2024-08-08T13:09:37.000Z</time>
      </trkpt>
      <trkpt lat="45.598738" lon="7.891373">
        <ele>2180.25928</ele>
        <time>2024-08-08T13:09:39.000Z</time>
      </trkpt>
      <trkpt lat="45.598765" lon="7.89138">
        <ele>2179.25439</ele>
        <time>2024-08-08T13:09:41.000Z</time>
      </trkpt>
      <trkpt lat="45.598783" lon="7.891392">
        <ele>2178.22437</ele>
        <time>2024-08-08T13:09:43.000Z</time>
      </trkpt>
      <trkpt lat="45.598802" lon="7.891388">
        <ele>2177.07446</ele>
        <time>2024-08-08T13:09:50.000Z</time>
      </trkpt>
      <trkpt lat="45.59882" lon="7.89139">
        <ele>2176.01416</ele>
        <time>2024-08-08T13:09:52.000Z</time>
      </trkpt>
      <trkpt lat="45.59884" lon="7.891408">
        <ele>2175.01929</ele>
        <time>2024-08-08T13:09:55.000Z</time>
      </trkpt>
      <trkpt lat="45.598865" lon="7.891432">
        <ele>2174.0293</ele>
        <time>2024-08-08T13:09:57.000Z</time>
      </trkpt>
      <trkpt lat="45.59888" lon="7.891447">
        <ele>2173.0293</ele>
        <time>2024-08-08T13:09:59.000Z</time>
      </trkpt>
      <trkpt lat="45.598897" lon="7.891458">
        <ele>2172.04443</ele>
        <time>2024-08-08T13:10:01.000Z</time>
      </trkpt>
      <trkpt lat="45.598913" lon="7.891483">
        <ele>2171.14429</ele>
        <time>2024-08-08T13:10:03.000Z</time>
      </trkpt>
      <trkpt lat="45.598917" lon="7.89151">
        <ele>2170.44922</ele>
        <time>2024-08-08T13:10:09.000Z</time>
      </trkpt>
      <trkpt lat="45.59892" lon="7.891537">
        <ele>2169.85913</ele>
        <time>2024-08-08T13:10:16.000Z</time>
      </trkpt>
      <trkpt lat="45.598943" lon="7.891542">
        <ele>2169.2793</ele>
        <time>2024-08-08T13:11:18.000Z</time>
      </trkpt>
      <trkpt lat="45.598953" lon="7.891513">
        <ele>2168.60425</ele>
        <time>2024-08-08T13:11:53.000Z</time>
      </trkpt>
      <trkpt lat="45.598972" lon="7.891507">
        <ele>2168.28418</ele>
        <time>2024-08-08T13:12:29.000Z</time>
      </trkpt>
      <trkpt lat="45.598975" lon="7.89148">
        <ele>2168.08936</ele>
        <time>2024-08-08T13:12:32.000Z</time>
      </trkpt>
      <trkpt lat="45.598938" lon="7.891465">
        <ele>2167.86938</ele>
        <time>2024-08-08T13:13:03.000Z</time>
      </trkpt>
      <trkpt lat="45.598943" lon="7.891498">
        <ele>2167.64429</ele>
        <time>2024-08-08T13:13:08.000Z</time>
      </trkpt>
      <trkpt lat="45.598932" lon="7.89152">
        <ele>2167.41943</ele>
        <time>2024-08-08T13:13:16.000Z</time>
      </trkpt>
      <trkpt lat="45.598947" lon="7.8915">
        <ele>2167.25928</ele>
        <time>2024-08-08T13:13:25.000Z</time>
      </trkpt>
      <trkpt lat="45.59895" lon="7.891468">
        <ele>2167.16943</ele>
        <time>2024-08-08T13:13:28.000Z</time>
      </trkpt>
      <trkpt lat="45.598932" lon="7.891443">
        <ele>2167.03931</ele>
        <time>2024-08-08T13:13:33.000Z</time>
      </trkpt>
      <trkpt lat="45.598957" lon="7.891455">
        <ele>2166.79419</ele>
        <time>2024-08-08T13:13:43.000Z</time>
      </trkpt>
      <trkpt lat="45.598968" lon="7.891427">
        <ele>2166.71411</ele>
        <time>2024-08-08T13:13:47.000Z</time>
      </trkpt>
      <trkpt lat="45.598952" lon="7.891398">
        <ele>2166.61401</ele>
        <time>2024-08-08T13:13:52.000Z</time>
      </trkpt>
      <trkpt lat="45.598935" lon="7.891408">
        <ele>2166.47412</ele>
        <time>2024-08-08T13:13:56.000Z</time>
      </trkpt>
      <trkpt lat="45.59892" lon="7.891385">
        <ele>2166.29907</ele>
        <time>2024-08-08T13:13:59.000Z</time>
      </trkpt>
      <trkpt lat="45.598932" lon="7.89135">
        <ele>2166.0791</ele>
        <time>2024-08-08T13:14:03.000Z</time>
      </trkpt>
      <trkpt lat="45.598937" lon="7.891323">
        <ele>2165.82422</ele>
        <time>2024-08-08T13:14:05.000Z</time>
      </trkpt>
      <trkpt lat="45.598945" lon="7.89129">
        <ele>2165.48413</ele>
        <time>2024-08-08T13:14:09.000Z</time>
      </trkpt>
      <trkpt lat="45.598975" lon="7.89128">
        <ele>2164.98926</ele>
        <time>2024-08-08T13:14:13.000Z</time>
      </trkpt>
      <trkpt lat="45.599" lon="7.891277">
        <ele>2164.36914</ele>
        <time>2024-08-08T13:14:17.000Z</time>
      </trkpt>
      <trkpt lat="45.599025" lon="7.891273">
        <ele>2163.75415</ele>
        <time>2024-08-08T13:14:19.000Z</time>
      </trkpt>
      <trkpt lat="45.59904" lon="7.891257">
        <ele>2163.25415</ele>
        <time>2024-08-08T13:14:21.000Z</time>
      </trkpt>
      <trkpt lat="45.599063" lon="7.891255">
        <ele>2162.48926</ele>
        <time>2024-08-08T13:14:23.000Z</time>
      </trkpt>
      <trkpt lat="45.599087" lon="7.891247">
        <ele>2161.7041</ele>
        <time>2024-08-08T13:14:25.000Z</time>
      </trkpt>
      <trkpt lat="45.599112" lon="7.891245">
        <ele>2160.979</ele>
        <time>2024-08-08T13:14:27.000Z</time>
      </trkpt>
      <trkpt lat="45.59913" lon="7.891218">
        <ele>2160.22412</ele>
        <time>2024-08-08T13:14:32.000Z</time>
      </trkpt>
      <trkpt lat="45.599128" lon="7.89118">
        <ele>2159.39917</ele>
        <time>2024-08-08T13:14:35.000Z</time>
      </trkpt>
      <trkpt lat="45.599155" lon="7.891153">
        <ele>2158.40918</ele>
        <time>2024-08-08T13:14:38.000Z</time>
      </trkpt>
      <trkpt lat="45.599177" lon="7.891138">
        <ele>2157.34912</ele>
        <time>2024-08-08T13:14:39.000Z</time>
      </trkpt>
      <trkpt lat="45.599197" lon="7.891115">
        <ele>2156.34912</ele>
        <time>2024-08-08T13:14:40.000Z</time>
      </trkpt>
      <trkpt lat="45.599213" lon="7.891097">
        <ele>2155.50439</ele>
        <time>2024-08-08T13:14:41.000Z</time>
      </trkpt>
      <trkpt lat="45.599237" lon="7.891088">
        <ele>2154.68433</ele>
        <time>2024-08-08T13:14:43.000Z</time>
      </trkpt>
      <trkpt lat="45.599253" lon="7.891107">
        <ele>2153.90454</ele>
        <time>2024-08-08T13:14:45.000Z</time>
      </trkpt>
      <trkpt lat="45.599268" lon="7.89113">
        <ele>2153.12451</ele>
        <time>2024-08-08T13:14:47.000Z</time>
      </trkpt>
      <trkpt lat="45.599298" lon="7.89112">
        <ele>2152.3645</ele>
        <time>2024-08-08T13:14:49.000Z</time>
      </trkpt>
      <trkpt lat="45.599328" lon="7.891108">
        <ele>2151.65942</ele>
        <time>2024-08-08T13:14:51.000Z</time>
      </trkpt>
      <trkpt lat="45.59935" lon="7.891108">
        <ele>2150.94922</ele>
        <time>2024-08-08T13:14:54.000Z</time>
      </trkpt>
      <trkpt lat="45.599368" lon="7.891102">
        <ele>2150.29443</ele>
        <time>2024-08-08T13:14:56.000Z</time>
      </trkpt>
      <trkpt lat="45.5994" lon="7.89111">
        <ele>2149.67432</ele>
        <time>2024-08-08T13:14:58.000Z</time>
      </trkpt>
      <trkpt lat="45.599423" lon="7.891095">
        <ele>2149.06445</ele>
        <time>2024-08-08T13:15:00.000Z</time>
      </trkpt>
      <trkpt lat="45.59944" lon="7.891067">
        <ele>2148.39429</ele>
        <time>2024-08-08T13:15:02.000Z</time>
      </trkpt>
      <trkpt lat="45.59945" lon="7.891042">
        <ele>2147.67944</ele>
        <time>2024-08-08T13:15:04.000Z</time>
      </trkpt>
      <trkpt lat="45.599452" lon="7.891012">
        <ele>2147.03955</ele>
        <time>2024-08-08T13:15:07.000Z</time>
      </trkpt>
      <trkpt lat="45.59947" lon="7.890997">
        <ele>2146.41943</ele>
        <time>2024-08-08T13:15:10.000Z</time>
      </trkpt>
      <trkpt lat="45.599493" lon="7.890993">
        <ele>2145.77466</ele>
        <time>2024-08-08T13:15:12.000Z</time>
      </trkpt>
      <trkpt lat="45.599517" lon="7.890983">
        <ele>2145.12939</ele>
        <time>2024-08-08T13:15:14.000Z</time>
      </trkpt>
      <trkpt lat="45.599533" lon="7.890958">
        <ele>2144.53442</ele>
        <time>2024-08-08T13:15:16.000Z</time>
      </trkpt>
      <trkpt lat="45.599545" lon="7.890923">
        <ele>2144.02954</ele>
        <time>2024-08-08T13:15:18.000Z</time>
      </trkpt>
      <trkpt lat="45.599562" lon="7.8909">
        <ele>2143.5144</ele>
        <time>2024-08-08T13:15:21.000Z</time>
      </trkpt>
      <trkpt lat="45.599572" lon="7.890875">
        <ele>2142.99463</ele>
        <time>2024-08-08T13:15:24.000Z</time>
      </trkpt>
      <trkpt lat="45.599592" lon="7.890855">
        <ele>2142.52441</ele>
        <time>2024-08-08T13:15:26.000Z</time>
      </trkpt>
      <trkpt lat="45.599607" lon="7.890835">
        <ele>2142.08936</ele>
        <time>2024-08-08T13:15:28.000Z</time>
      </trkpt>
      <trkpt lat="45.599612" lon="7.890805">
        <ele>2141.71924</ele>
        <time>2024-08-08T13:15:30.000Z</time>
      </trkpt>
      <trkpt lat="45.599632" lon="7.890778">
        <ele>2141.45947</ele>
        <time>2024-08-08T13:15:32.000Z</time>
      </trkpt>
      <trkpt lat="45.599643" lon="7.890757">
        <ele>2141.24927</ele>
        <time>2024-08-08T13:15:34.000Z</time>
      </trkpt>
      <trkpt lat="45.59966" lon="7.890742">
        <ele>2141.06421</ele>
        <time>2024-08-08T13:15:37.000Z</time>
      </trkpt>
      <trkpt lat="45.599675" lon="7.890718">
        <ele>2140.89429</ele>
        <time>2024-08-08T13:15:40.000Z</time>
      </trkpt>
      <trkpt lat="45.599692" lon="7.8907">
        <ele>2140.71924</ele>
        <time>2024-08-08T13:15:42.000Z</time>
      </trkpt>
      <trkpt lat="45.599707" lon="7.89068">
        <ele>2140.53418</ele>
        <time>2024-08-08T13:15:44.000Z</time>
      </trkpt>
      <trkpt lat="45.599723" lon="7.890663">
        <ele>2140.37427</ele>
        <time>2024-08-08T13:15:46.000Z</time>
      </trkpt>
      <trkpt lat="45.599737" lon="7.890637">
        <ele>2140.23926</ele>
        <time>2024-08-08T13:15:51.000Z</time>
      </trkpt>
      <trkpt lat="45.599748" lon="7.890612">
        <ele>2140.13428</ele>
        <time>2024-08-08T13:15:54.000Z</time>
      </trkpt>
      <trkpt lat="45.599767" lon="7.890592">
        <ele>2139.99414</ele>
        <time>2024-08-08T13:15:58.000Z</time>
      </trkpt>
      <trkpt lat="45.599788" lon="7.890598">
        <ele>2139.87427</ele>
        <time>2024-08-08T13:16:02.000Z</time>
      </trkpt>
      <trkpt lat="45.599808" lon="7.890593">
        <ele>2139.79419</ele>
        <time>2024-08-08T13:16:05.000Z</time>
      </trkpt>
      <trkpt lat="45.599825" lon="7.890568">
        <ele>2139.83936</ele>
        <time>2024-08-08T13:16:09.000Z</time>
      </trkpt>
      <trkpt lat="45.599847" lon="7.890568">
        <ele>2139.87939</ele>
        <time>2024-08-08T13:16:15.000Z</time>
      </trkpt>
      <trkpt lat="45.599863" lon="7.890552">
        <ele>2139.94434</ele>
        <time>2024-08-08T13:16:19.000Z</time>
      </trkpt>
      <trkpt lat="45.599882" lon="7.89052">
        <ele>2140.08447</ele>
        <time>2024-08-08T13:16:22.000Z</time>
      </trkpt>
      <trkpt lat="45.599892" lon="7.890495">
        <ele>2140.30933</ele>
        <time>2024-08-08T13:16:24.000Z</time>
      </trkpt>
      <trkpt lat="45.5999" lon="7.89047">
        <ele>2140.54443</ele>
        <time>2024-08-08T13:16:27.000Z</time>
      </trkpt>
      <trkpt lat="45.599918" lon="7.890448">
        <ele>2140.77441</ele>
        <time>2024-08-08T13:16:29.000Z</time>
      </trkpt>
      <trkpt lat="45.599938" lon="7.89043">
        <ele>2140.97949</ele>
        <time>2024-08-08T13:16:31.000Z</time>
      </trkpt>
      <trkpt lat="45.59996" lon="7.8904">
        <ele>2141.20947</ele>
        <time>2024-08-08T13:16:34.000Z</time>
      </trkpt>
      <trkpt lat="45.599978" lon="7.89038">
        <ele>2141.45459</ele>
        <time>2024-08-08T13:16:36.000Z</time>
      </trkpt>
      <trkpt lat="45.599993" lon="7.890365">
        <ele>2141.69482</ele>
        <time>2024-08-08T13:16:39.000Z</time>
      </trkpt>
      <trkpt lat="45.600015" lon="7.890352">
        <ele>2141.98975</ele>
        <time>2024-08-08T13:16:42.000Z</time>
      </trkpt>
      <trkpt lat="45.600033" lon="7.89034">
        <ele>2142.3147</ele>
        <time>2024-08-08T13:16:44.000Z</time>
      </trkpt>
      <trkpt lat="45.60005" lon="7.890317">
        <ele>2142.72974</ele>
        <time>2024-08-08T13:16:48.000Z</time>
      </trkpt>
      <trkpt lat="45.60007" lon="7.890305">
        <ele>2143.1897</ele>
        <time>2024-08-08T13:16:51.000Z</time>
      </trkpt>
      <trkpt lat="45.600087" lon="7.890288">
        <ele>2143.76465</ele>
        <time>2024-08-08T13:16:54.000Z</time>
      </trkpt>
      <trkpt lat="45.600107" lon="7.89027">
        <ele>2144.39478</ele>
        <time>2024-08-08T13:16:57.000Z</time>
      </trkpt>
      <trkpt lat="45.600133" lon="7.890277">
        <ele>2145.05469</ele>
        <time>2024-08-08T13:17:00.000Z</time>
      </trkpt>
      <trkpt lat="45.600152" lon="7.890277">
        <ele>2145.74463</ele>
        <time>2024-08-08T13:17:03.000Z</time>
      </trkpt>
      <trkpt lat="45.600172" lon="7.890275">
        <ele>2146.40454</ele>
        <time>2024-08-08T13:17:05.000Z</time>
      </trkpt>
      <trkpt lat="45.600197" lon="7.890263">
        <ele>2146.99438</ele>
        <time>2024-08-08T13:17:07.000Z</time>
      </trkpt>
      <trkpt lat="45.600218" lon="7.89024">
        <ele>2147.61426</ele>
        <time>2024-08-08T13:17:09.000Z</time>
      </trkpt>
      <trkpt lat="45.60023" lon="7.89021">
        <ele>2148.229</ele>
        <time>2024-08-08T13:17:12.000Z</time>
      </trkpt>
      <trkpt lat="45.60023" lon="7.89018">
        <ele>2148.84424</ele>
        <time>2024-08-08T13:17:14.000Z</time>
      </trkpt>
      <trkpt lat="45.600237" lon="7.890153">
        <ele>2149.43408</ele>
        <time>2024-08-08T13:17:16.000Z</time>
      </trkpt>
      <trkpt lat="45.600245" lon="7.890123">
        <ele>2149.96411</ele>
        <time>2024-08-08T13:17:18.000Z</time>
      </trkpt>
      <trkpt lat="45.600258" lon="7.8901">
        <ele>2150.4541</ele>
        <time>2024-08-08T13:17:20.000Z</time>
      </trkpt>
      <trkpt lat="45.600272" lon="7.890082">
        <ele>2150.90405</ele>
        <time>2024-08-08T13:17:22.000Z</time>
      </trkpt>
      <trkpt lat="45.600295" lon="7.890063">
        <ele>2151.29907</ele>
        <time>2024-08-08T13:17:24.000Z</time>
      </trkpt>
      <trkpt lat="45.600317" lon="7.890045">
        <ele>2151.66895</ele>
        <time>2024-08-08T13:17:26.000Z</time>
      </trkpt>
      <trkpt lat="45.600333" lon="7.890022">
        <ele>2152.02881</ele>
        <time>2024-08-08T13:17:28.000Z</time>
      </trkpt>
      <trkpt lat="45.60035" lon="7.89">
        <ele>2152.3689</ele>
        <time>2024-08-08T13:17:30.000Z</time>
      </trkpt>
      <trkpt lat="45.600365" lon="7.889972">
        <ele>2152.71387</ele>
        <time>2024-08-08T13:17:32.000Z</time>
      </trkpt>
      <trkpt lat="45.60038" lon="7.889947">
        <ele>2153.05908</ele>
        <time>2024-08-08T13:17:35.000Z</time>
      </trkpt>
      <trkpt lat="45.60039" lon="7.88992">
        <ele>2153.40894</ele>
        <time>2024-08-08T13:17:37.000Z</time>
      </trkpt>
      <trkpt lat="45.600405" lon="7.889883">
        <ele>2153.71411</ele>
        <time>2024-08-08T13:17:39.000Z</time>
      </trkpt>
      <trkpt lat="45.600413" lon="7.88986">
        <ele>2153.97412</ele>
        <time>2024-08-08T13:17:40.000Z</time>
      </trkpt>
      <trkpt lat="45.600428" lon="7.889837">
        <ele>2154.18896</ele>
        <time>2024-08-08T13:17:41.000Z</time>
      </trkpt>
      <trkpt lat="45.600435" lon="7.889808">
        <ele>2154.38428</ele>
        <time>2024-08-08T13:17:43.000Z</time>
      </trkpt>
      <trkpt lat="45.600442" lon="7.889783">
        <ele>2154.59424</ele>
        <time>2024-08-08T13:17:45.000Z</time>
      </trkpt>
      <trkpt lat="45.600453" lon="7.889762">
        <ele>2154.78418</ele>
        <time>2024-08-08T13:17:48.000Z</time>
      </trkpt>
      <trkpt lat="45.600468" lon="7.889728">
        <ele>2154.93408</ele>
        <time>2024-08-08T13:17:50.000Z</time>
      </trkpt>
      <trkpt lat="45.600482" lon="7.889702">
        <ele>2155.11426</ele>
        <time>2024-08-08T13:17:52.000Z</time>
      </trkpt>
      <trkpt lat="45.600477" lon="7.889672">
        <ele>2155.2793</ele>
        <time>2024-08-08T13:17:55.000Z</time>
      </trkpt>
      <trkpt lat="45.600485" lon="7.889648">
        <ele>2155.42432</ele>
        <time>2024-08-08T13:17:57.000Z</time>
      </trkpt>
      <trkpt lat="45.600497" lon="7.889622">
        <ele>2155.56934</ele>
        <time>2024-08-08T13:17:59.000Z</time>
      </trkpt>
      <trkpt lat="45.600515" lon="7.889587">
        <ele>2155.74438</ele>
        <time>2024-08-08T13:18:01.000Z</time>
      </trkpt>
      <trkpt lat="45.60053" lon="7.889553">
        <ele>2155.95435</ele>
        <time>2024-08-08T13:18:03.000Z</time>
      </trkpt>
      <trkpt lat="45.600547" lon="7.889533">
        <ele>2156.12451</ele>
        <time>2024-08-08T13:18:05.000Z</time>
      </trkpt>
      <trkpt lat="45.600565" lon="7.889498">
        <ele>2156.24951</ele>
        <time>2024-08-08T13:18:07.000Z</time>
      </trkpt>
      <trkpt lat="45.60058" lon="7.889468">
        <ele>2156.39429</ele>
        <time>2024-08-08T13:18:09.000Z</time>
      </trkpt>
      <trkpt lat="45.600593" lon="7.889447">
        <ele>2156.55933</ele>
        <time>2024-08-08T13:18:12.000Z</time>
      </trkpt>
      <trkpt lat="45.600607" lon="7.88942">
        <ele>2156.73438</ele>
        <time>2024-08-08T13:18:14.000Z</time>
      </trkpt>
      <trkpt lat="45.600622" lon="7.8894">
        <ele>2156.87427</ele>
        <time>2024-08-08T13:18:16.000Z</time>
      </trkpt>
      <trkpt lat="45.600635" lon="7.889377">
        <ele>2156.97925</ele>
        <time>2024-08-08T13:18:18.000Z</time>
      </trkpt>
      <trkpt lat="45.600647" lon="7.889352">
        <ele>2157.0542</ele>
        <time>2024-08-08T13:18:20.000Z</time>
      </trkpt>
      <trkpt lat="45.600668" lon="7.889323">
        <ele>2157.15918</ele>
        <time>2024-08-08T13:18:22.000Z</time>
      </trkpt>
      <trkpt lat="45.600678" lon="7.889302">
        <ele>2157.3291</ele>
        <time>2024-08-08T13:18:24.000Z</time>
      </trkpt>
      <trkpt lat="45.600692" lon="7.889282">
        <ele>2157.50903</ele>
        <time>2024-08-08T13:18:26.000Z</time>
      </trkpt>
      <trkpt lat="45.600713" lon="7.889262">
        <ele>2157.68896</ele>
        <time>2024-08-08T13:18:28.000Z</time>
      </trkpt>
      <trkpt lat="45.600735" lon="7.88925">
        <ele>2157.854</ele>
        <time>2024-08-08T13:18:30.000Z</time>
      </trkpt>
      <trkpt lat="45.600757" lon="7.88924">
        <ele>2157.99927</ele>
        <time>2024-08-08T13:18:32.000Z</time>
      </trkpt>
      <trkpt lat="45.60077" lon="7.889213">
        <ele>2158.08423</ele>
        <time>2024-08-08T13:18:35.000Z</time>
      </trkpt>
      <trkpt lat="45.600782" lon="7.889193">
        <ele>2158.104</ele>
        <time>2024-08-08T13:18:37.000Z</time>
      </trkpt>
      <trkpt lat="45.600803" lon="7.889165">
        <ele>2158.08423</ele>
        <time>2024-08-08T13:18:39.000Z</time>
      </trkpt>
      <trkpt lat="45.600822" lon="7.889148">
        <ele>2158.06909</ele>
        <time>2024-08-08T13:18:41.000Z</time>
      </trkpt>
      <trkpt lat="45.60083" lon="7.889123">
        <ele>2158.06421</ele>
        <time>2024-08-08T13:18:44.000Z</time>
      </trkpt>
      <trkpt lat="45.600845" lon="7.889095">
        <ele>2158.04443</ele>
        <time>2024-08-08T13:18:46.000Z</time>
      </trkpt>
      <trkpt lat="45.600855" lon="7.88905">
        <ele>2158.0542</ele>
        <time>2024-08-08T13:18:48.000Z</time>
      </trkpt>
      <trkpt lat="45.60086" lon="7.889012">
        <ele>2158.13428</ele>
        <time>2024-08-08T13:18:50.000Z</time>
      </trkpt>
      <trkpt lat="45.600875" lon="7.888982">
        <ele>2158.22949</ele>
        <time>2024-08-08T13:18:52.000Z</time>
      </trkpt>
      <trkpt lat="45.600897" lon="7.888973">
        <ele>2158.34448</ele>
        <time>2024-08-08T13:18:56.000Z</time>
      </trkpt>
      <trkpt lat="45.60091" lon="7.888952">
        <ele>2158.51953</ele>
        <time>2024-08-08T13:19:00.000Z</time>
      </trkpt>
      <trkpt lat="45.60093" lon="7.888927">
        <ele>2158.66943</ele>
        <time>2024-08-08T13:19:02.000Z</time>
      </trkpt>
      <trkpt lat="45.600943" lon="7.888902">
        <ele>2158.84937</ele>
        <time>2024-08-08T13:19:05.000Z</time>
      </trkpt>
      <trkpt lat="45.60096" lon="7.888883">
        <ele>2158.9895</ele>
        <time>2024-08-08T13:19:08.000Z</time>
      </trkpt>
      <trkpt lat="45.600977" lon="7.888867">
        <ele>2159.11963</ele>
        <time>2024-08-08T13:19:10.000Z</time>
      </trkpt>
      <trkpt lat="45.600998" lon="7.888853">
        <ele>2159.15967</ele>
        <time>2024-08-08T13:19:12.000Z</time>
      </trkpt>
      <trkpt lat="45.601025" lon="7.888837">
        <ele>2159.14966</ele>
        <time>2024-08-08T13:19:14.000Z</time>
      </trkpt>
      <trkpt lat="45.601047" lon="7.888807">
        <ele>2159.09448</ele>
        <time>2024-08-08T13:19:16.000Z</time>
      </trkpt>
      <trkpt lat="45.601067" lon="7.888777">
        <ele>2159.01953</ele>
        <time>2024-08-08T13:19:18.000Z</time>
      </trkpt>
      <trkpt lat="45.601077" lon="7.88874">
        <ele>2158.92432</ele>
        <time>2024-08-08T13:19:20.000Z</time>
      </trkpt>
      <trkpt lat="45.601077" lon="7.8887">
        <ele>2158.84937</ele>
        <time>2024-08-08T13:19:22.000Z</time>
      </trkpt>
      <trkpt lat="45.60108" lon="7.88867">
        <ele>2158.84448</ele>
        <time>2024-08-08T13:19:24.000Z</time>
      </trkpt>
      <trkpt lat="45.601093" lon="7.888635">
        <ele>2158.91943</ele>
        <time>2024-08-08T13:19:27.000Z</time>
      </trkpt>
      <trkpt lat="45.601102" lon="7.88861">
        <ele>2159.02441</ele>
        <time>2024-08-08T13:19:29.000Z</time>
      </trkpt>
      <trkpt lat="45.60112" lon="7.888578">
        <ele>2159.10425</ele>
        <time>2024-08-08T13:19:31.000Z</time>
      </trkpt>
      <trkpt lat="45.601133" lon="7.888553">
        <ele>2159.1792</ele>
        <time>2024-08-08T13:19:33.000Z</time>
      </trkpt>
      <trkpt lat="45.601153" lon="7.888548">
        <ele>2159.19434</ele>
        <time>2024-08-08T13:19:37.000Z</time>
      </trkpt>
      <trkpt lat="45.601147" lon="7.88863">
        <ele>2159.21436</ele>
        <time>2024-08-08T13:20:52.000Z</time>
      </trkpt>
      <trkpt lat="45.601153" lon="7.888598">
        <ele>2159.32422</ele>
        <time>2024-08-08T13:21:00.000Z</time>
      </trkpt>
      <trkpt lat="45.60115" lon="7.888562">
        <ele>2159.43921</ele>
        <time>2024-08-08T13:21:03.000Z</time>
      </trkpt>
      <trkpt lat="45.601163" lon="7.888537">
        <ele>2159.48926</ele>
        <time>2024-08-08T13:21:05.000Z</time>
      </trkpt>
      <trkpt lat="45.601185" lon="7.888523">
        <ele>2159.53931</ele>
        <time>2024-08-08T13:21:08.000Z</time>
      </trkpt>
      <trkpt lat="45.60119" lon="7.888497">
        <ele>2159.69946</ele>
        <time>2024-08-08T13:21:40.000Z</time>
      </trkpt>
      <trkpt lat="45.601218" lon="7.888502">
        <ele>2160.03442</ele>
        <time>2024-08-08T13:21:56.000Z</time>
      </trkpt>
      <trkpt lat="45.601242" lon="7.888495">
        <ele>2160.3042</ele>
        <time>2024-08-08T13:21:58.000Z</time>
      </trkpt>
      <trkpt lat="45.601272" lon="7.888487">
        <ele>2160.56934</ele>
        <time>2024-08-08T13:22:00.000Z</time>
      </trkpt>
      <trkpt lat="45.601293" lon="7.88848">
        <ele>2160.85425</ele>
        <time>2024-08-08T13:22:02.000Z</time>
      </trkpt>
      <trkpt lat="45.601313" lon="7.888473">
        <ele>2161.16943</ele>
        <time>2024-08-08T13:22:05.000Z</time>
      </trkpt>
      <trkpt lat="45.601297" lon="7.888452">
        <ele>2161.44946</ele>
        <time>2024-08-08T13:22:09.000Z</time>
      </trkpt>
      <trkpt lat="45.60129" lon="7.888415">
        <ele>2161.77441</ele>
        <time>2024-08-08T13:22:11.000Z</time>
      </trkpt>
      <trkpt lat="45.601298" lon="7.888392">
        <ele>2162.08936</ele>
        <time>2024-08-08T13:22:13.000Z</time>
      </trkpt>
      <trkpt lat="45.60129" lon="7.88836">
        <ele>2162.31934</ele>
        <time>2024-08-08T13:22:18.000Z</time>
      </trkpt>
      <trkpt lat="45.601275" lon="7.88834">
        <ele>2162.45435</ele>
        <time>2024-08-08T13:22:20.000Z</time>
      </trkpt>
      <trkpt lat="45.601283" lon="7.888303">
        <ele>2162.49438</ele>
        <time>2024-08-08T13:22:23.000Z</time>
      </trkpt>
      <trkpt lat="45.601295" lon="7.888272">
        <ele>2162.49438</ele>
        <time>2024-08-08T13:22:25.000Z</time>
      </trkpt>
      <trkpt lat="45.601305" lon="7.88825">
        <ele>2162.43921</ele>
        <time>2024-08-08T13:22:27.000Z</time>
      </trkpt>
      <trkpt lat="45.601318" lon="7.888232">
        <ele>2162.41431</ele>
        <time>2024-08-08T13:22:29.000Z</time>
      </trkpt>
      <trkpt lat="45.60133" lon="7.8882">
        <ele>2162.30933</ele>
        <time>2024-08-08T13:22:32.000Z</time>
      </trkpt>
      <trkpt lat="45.601328" lon="7.88817">
        <ele>2162.0293</ele>
        <time>2024-08-08T13:22:35.000Z</time>
      </trkpt>
      <trkpt lat="45.60133" lon="7.888137">
        <ele>2161.63916</ele>
        <time>2024-08-08T13:22:38.000Z</time>
      </trkpt>
      <trkpt lat="45.601338" lon="7.888113">
        <ele>2161.1792</ele>
        <time>2024-08-08T13:22:41.000Z</time>
      </trkpt>
      <trkpt lat="45.60135" lon="7.888085">
        <ele>2160.6792</ele>
        <time>2024-08-08T13:22:43.000Z</time>
      </trkpt>
      <trkpt lat="45.601367" lon="7.888055">
        <ele>2160.01904</ele>
        <time>2024-08-08T13:22:45.000Z</time>
      </trkpt>
      <trkpt lat="45.601382" lon="7.888037">
        <ele>2159.19409</ele>
        <time>2024-08-08T13:22:47.000Z</time>
      </trkpt>
      <trkpt lat="45.601395" lon="7.888017">
        <ele>2158.38916</ele>
        <time>2024-08-08T13:22:49.000Z</time>
      </trkpt>
      <trkpt lat="45.601403" lon="7.88797">
        <ele>2157.61426</ele>
        <time>2024-08-08T13:22:51.000Z</time>
      </trkpt>
      <trkpt lat="45.601415" lon="7.887937">
        <ele>2156.85425</ele>
        <time>2024-08-08T13:22:53.000Z</time>
      </trkpt>
      <trkpt lat="45.60143" lon="7.887908">
        <ele>2156.16431</ele>
        <time>2024-08-08T13:22:56.000Z</time>
      </trkpt>
      <trkpt lat="45.60144" lon="7.88788">
        <ele>2155.59424</ele>
        <time>2024-08-08T13:22:58.000Z</time>
      </trkpt>
      <trkpt lat="45.601453" lon="7.887857">
        <ele>2155.04932</ele>
        <time>2024-08-08T13:23:00.000Z</time>
      </trkpt>
      <trkpt lat="45.601477" lon="7.887847">
        <ele>2154.49927</ele>
        <time>2024-08-08T13:23:02.000Z</time>
      </trkpt>
      <trkpt lat="45.601497" lon="7.887847">
        <ele>2153.99438</ele>
        <time>2024-08-08T13:23:04.000Z</time>
      </trkpt>
      <trkpt lat="45.601517" lon="7.887845">
        <ele>2153.51416</ele>
        <time>2024-08-08T13:23:08.000Z</time>
      </trkpt>
      <trkpt lat="45.601538" lon="7.887835">
        <ele>2153.10938</ele>
        <time>2024-08-08T13:23:11.000Z</time>
      </trkpt>
      <trkpt lat="45.601552" lon="7.887807">
        <ele>2152.72437</ele>
        <time>2024-08-08T13:23:14.000Z</time>
      </trkpt>
      <trkpt lat="45.60156" lon="7.887772">
        <ele>2152.37451</ele>
        <time>2024-08-08T13:23:18.000Z</time>
      </trkpt>
      <trkpt lat="45.601567" lon="7.887743">
        <ele>2152.0293</ele>
        <time>2024-08-08T13:23:20.000Z</time>
      </trkpt>
      <trkpt lat="45.60158" lon="7.887713">
        <ele>2151.72412</ele>
        <time>2024-08-08T13:23:22.000Z</time>
      </trkpt>
      <trkpt lat="45.601592" lon="7.887685">
        <ele>2151.46924</ele>
        <time>2024-08-08T13:23:24.000Z</time>
      </trkpt>
      <trkpt lat="45.601598" lon="7.887652">
        <ele>2151.23438</ele>
        <time>2024-08-08T13:23:27.000Z</time>
      </trkpt>
      <trkpt lat="45.601612" lon="7.887627">
        <ele>2151.02441</ele>
        <time>2024-08-08T13:23:30.000Z</time>
      </trkpt>
      <trkpt lat="45.601622" lon="7.8876">
        <ele>2150.84937</ele>
        <time>2024-08-08T13:23:32.000Z</time>
      </trkpt>
      <trkpt lat="45.601625" lon="7.887573">
        <ele>2150.66943</ele>
        <time>2024-08-08T13:23:34.000Z</time>
      </trkpt>
      <trkpt lat="45.601633" lon="7.887543">
        <ele>2150.50439</ele>
        <time>2024-08-08T13:23:37.000Z</time>
      </trkpt>
      <trkpt lat="45.601647" lon="7.887508">
        <ele>2150.33936</ele>
        <time>2024-08-08T13:23:39.000Z</time>
      </trkpt>
      <trkpt lat="45.601653" lon="7.887472">
        <ele>2150.1145</ele>
        <time>2024-08-08T13:23:41.000Z</time>
      </trkpt>
      <trkpt lat="45.601652" lon="7.887437">
        <ele>2149.85449</ele>
        <time>2024-08-08T13:23:44.000Z</time>
      </trkpt>
      <trkpt lat="45.601657" lon="7.887407">
        <ele>2149.52466</ele>
        <time>2024-08-08T13:23:46.000Z</time>
      </trkpt>
      <trkpt lat="45.601663" lon="7.887367">
        <ele>2149.0647</ele>
        <time>2024-08-08T13:23:49.000Z</time>
      </trkpt>
      <trkpt lat="45.60167" lon="7.887327">
        <ele>2148.53955</ele>
        <time>2024-08-08T13:23:51.000Z</time>
      </trkpt>
      <trkpt lat="45.601675" lon="7.887302">
        <ele>2148.00952</ele>
        <time>2024-08-08T13:23:52.000Z</time>
      </trkpt>
      <trkpt lat="45.601682" lon="7.887275">
        <ele>2147.46948</ele>
        <time>2024-08-08T13:23:53.000Z</time>
      </trkpt>
      <trkpt lat="45.601685" lon="7.887248">
        <ele>2146.91943</ele>
        <time>2024-08-08T13:23:54.000Z</time>
      </trkpt>
      <trkpt lat="45.601692" lon="7.88722">
        <ele>2146.35938</ele>
        <time>2024-08-08T13:23:58.000Z</time>
      </trkpt>
      <trkpt lat="45.60169" lon="7.88719">
        <ele>2145.81445</ele>
        <time>2024-08-08T13:24:01.000Z</time>
      </trkpt>
      <trkpt lat="45.601697" lon="7.88716">
        <ele>2145.27954</ele>
        <time>2024-08-08T13:24:05.000Z</time>
      </trkpt>
      <trkpt lat="45.601697" lon="7.88713">
        <ele>2144.75439</ele>
        <time>2024-08-08T13:24:13.000Z</time>
      </trkpt>
      <trkpt lat="45.601705" lon="7.887098">
        <ele>2144.24463</ele>
        <time>2024-08-08T13:24:15.000Z</time>
      </trkpt>
      <trkpt lat="45.6017" lon="7.88706">
        <ele>2143.78467</ele>
        <time>2024-08-08T13:24:20.000Z</time>
      </trkpt>
      <trkpt lat="45.601697" lon="7.887027">
        <ele>2143.37939</ele>
        <time>2024-08-08T13:24:22.000Z</time>
      </trkpt>
      <trkpt lat="45.601707" lon="7.88699">
        <ele>2142.96924</ele>
        <time>2024-08-08T13:24:24.000Z</time>
      </trkpt>
      <trkpt lat="45.601703" lon="7.88695">
        <ele>2142.57446</ele>
        <time>2024-08-08T13:24:26.000Z</time>
      </trkpt>
      <trkpt lat="45.601698" lon="7.886922">
        <ele>2142.20947</ele>
        <time>2024-08-08T13:24:28.000Z</time>
      </trkpt>
      <trkpt lat="45.601697" lon="7.886895">
        <ele>2141.87939</ele>
        <time>2024-08-08T13:24:31.000Z</time>
      </trkpt>
      <trkpt lat="45.60169" lon="7.886862">
        <ele>2141.58447</ele>
        <time>2024-08-08T13:24:34.000Z</time>
      </trkpt>
      <trkpt lat="45.601693" lon="7.886832">
        <ele>2141.33447</ele>
        <time>2024-08-08T13:24:36.000Z</time>
      </trkpt>
      <trkpt lat="45.601697" lon="7.886798">
        <ele>2141.07935</ele>
        <time>2024-08-08T13:24:38.000Z</time>
      </trkpt>
      <trkpt lat="45.601697" lon="7.886763">
        <ele>2140.80908</ele>
        <time>2024-08-08T13:24:40.000Z</time>
      </trkpt>
      <trkpt lat="45.601695" lon="7.886733">
        <ele>2140.61914</ele>
        <time>2024-08-08T13:24:42.000Z</time>
      </trkpt>
      <trkpt lat="45.601705" lon="7.886712">
        <ele>2140.31909</ele>
        <time>2024-08-08T13:24:57.000Z</time>
      </trkpt>
      <trkpt lat="45.601722" lon="7.886677">
        <ele>2139.98413</ele>
        <time>2024-08-08T13:24:59.000Z</time>
      </trkpt>
      <trkpt lat="45.601735" lon="7.886635">
        <ele>2139.61914</ele>
        <time>2024-08-08T13:25:01.000Z</time>
      </trkpt>
      <trkpt lat="45.601733" lon="7.886583">
        <ele>2139.26416</ele>
        <time>2024-08-08T13:25:03.000Z</time>
      </trkpt>
      <trkpt lat="45.601733" lon="7.886555">
        <ele>2138.91943</ele>
        <time>2024-08-08T13:25:04.000Z</time>
      </trkpt>
      <trkpt lat="45.60174" lon="7.886513">
        <ele>2138.58423</ele>
        <time>2024-08-08T13:25:06.000Z</time>
      </trkpt>
      <trkpt lat="45.601747" lon="7.886477">
        <ele>2138.24414</ele>
        <time>2024-08-08T13:25:08.000Z</time>
      </trkpt>
      <trkpt lat="45.601748" lon="7.886448">
        <ele>2137.92432</ele>
        <time>2024-08-08T13:25:10.000Z</time>
      </trkpt>
      <trkpt lat="45.601733" lon="7.886425">
        <ele>2137.62915</ele>
        <time>2024-08-08T13:25:13.000Z</time>
      </trkpt>
      <trkpt lat="45.60174" lon="7.886395">
        <ele>2137.3042</ele>
        <time>2024-08-08T13:25:15.000Z</time>
      </trkpt>
      <trkpt lat="45.601742" lon="7.886368">
        <ele>2136.96411</ele>
        <time>2024-08-08T13:25:17.000Z</time>
      </trkpt>
      <trkpt lat="45.60174" lon="7.886342">
        <ele>2136.62915</ele>
        <time>2024-08-08T13:25:20.000Z</time>
      </trkpt>
      <trkpt lat="45.601748" lon="7.88629">
        <ele>2136.24902</ele>
        <time>2024-08-08T13:25:23.000Z</time>
      </trkpt>
      <trkpt lat="45.601757" lon="7.886267">
        <ele>2135.854</ele>
        <time>2024-08-08T13:25:24.000Z</time>
      </trkpt>
      <trkpt lat="45.601773" lon="7.886235">
        <ele>2135.40405</ele>
        <time>2024-08-08T13:25:26.000Z</time>
      </trkpt>
      <trkpt lat="45.60178" lon="7.886198">
        <ele>2134.87915</ele>
        <time>2024-08-08T13:25:29.000Z</time>
      </trkpt>
      <trkpt lat="45.601778" lon="7.886172">
        <ele>2134.31396</ele>
        <time>2024-08-08T13:25:32.000Z</time>
      </trkpt>
      <trkpt lat="45.601783" lon="7.886147">
        <ele>2133.76416</ele>
        <time>2024-08-08T13:25:35.000Z</time>
      </trkpt>
      <trkpt lat="45.601792" lon="7.886115">
        <ele>2133.1792</ele>
        <time>2024-08-08T13:25:38.000Z</time>
      </trkpt>
      <trkpt lat="45.601803" lon="7.886095">
        <ele>2132.59424</ele>
        <time>2024-08-08T13:25:39.000Z</time>
      </trkpt>
      <trkpt lat="45.601823" lon="7.886075">
        <ele>2132.1792</ele>
        <time>2024-08-08T13:25:41.000Z</time>
      </trkpt>
      <trkpt lat="45.601842" lon="7.88605">
        <ele>2131.84424</ele>
        <time>2024-08-08T13:25:43.000Z</time>
      </trkpt>
      <trkpt lat="45.601857" lon="7.886027">
        <ele>2131.5542</ele>
        <time>2024-08-08T13:25:45.000Z</time>
      </trkpt>
      <trkpt lat="45.601875" lon="7.885988">
        <ele>2131.23901</ele>
        <time>2024-08-08T13:25:47.000Z</time>
      </trkpt>
      <trkpt lat="45.601887" lon="7.885967">
        <ele>2130.89404</ele>
        <time>2024-08-08T13:25:48.000Z</time>
      </trkpt>
      <trkpt lat="45.601903" lon="7.885943">
        <ele>2130.47412</ele>
        <time>2024-08-08T13:25:50.000Z</time>
      </trkpt>
      <trkpt lat="45.601913" lon="7.885908">
        <ele>2130.06421</ele>
        <time>2024-08-08T13:25:52.000Z</time>
      </trkpt>
      <trkpt lat="45.601922" lon="7.88588">
        <ele>2129.68408</ele>
        <time>2024-08-08T13:25:56.000Z</time>
      </trkpt>
      <trkpt lat="45.601928" lon="7.885853">
        <ele>2129.25928</ele>
        <time>2024-08-08T13:25:58.000Z</time>
      </trkpt>
      <trkpt lat="45.601942" lon="7.885828">
        <ele>2128.79907</ele>
        <time>2024-08-08T13:26:00.000Z</time>
      </trkpt>
      <trkpt lat="45.60196" lon="7.885795">
        <ele>2128.31396</ele>
        <time>2024-08-08T13:26:02.000Z</time>
      </trkpt>
      <trkpt lat="45.601973" lon="7.885765">
        <ele>2127.83911</ele>
        <time>2024-08-08T13:26:04.000Z</time>
      </trkpt>
      <trkpt lat="45.601982" lon="7.88573">
        <ele>2127.354</ele>
        <time>2024-08-08T13:26:06.000Z</time>
      </trkpt>
      <trkpt lat="45.601992" lon="7.885703">
        <ele>2126.854</ele>
        <time>2024-08-08T13:26:08.000Z</time>
      </trkpt>
      <trkpt lat="45.602003" lon="7.885668">
        <ele>2126.37427</ele>
        <time>2024-08-08T13:26:10.000Z</time>
      </trkpt>
      <trkpt lat="45.602008" lon="7.885637">
        <ele>2125.96411</ele>
        <time>2024-08-08T13:26:12.000Z</time>
      </trkpt>
      <trkpt lat="45.602015" lon="7.885592">
        <ele>2125.58423</ele>
        <time>2024-08-08T13:26:14.000Z</time>
      </trkpt>
      <trkpt lat="45.60202" lon="7.885545">
        <ele>2125.18921</ele>
        <time>2024-08-08T13:26:16.000Z</time>
      </trkpt>
      <trkpt lat="45.602038" lon="7.885508">
        <ele>2124.81421</ele>
        <time>2024-08-08T13:26:18.000Z</time>
      </trkpt>
      <trkpt lat="45.602058" lon="7.885495">
        <ele>2124.40918</ele>
        <time>2024-08-08T13:26:20.000Z</time>
      </trkpt>
      <trkpt lat="45.602078" lon="7.885488">
        <ele>2123.97412</ele>
        <time>2024-08-08T13:26:22.000Z</time>
      </trkpt>
      <trkpt lat="45.602097" lon="7.885465">
        <ele>2123.48926</ele>
        <time>2024-08-08T13:26:25.000Z</time>
      </trkpt>
      <trkpt lat="45.6021" lon="7.885437">
        <ele>2122.97925</ele>
        <time>2024-08-08T13:26:28.000Z</time>
      </trkpt>
      <trkpt lat="45.602108" lon="7.8854">
        <ele>2122.49927</ele>
        <time>2024-08-08T13:26:31.000Z</time>
      </trkpt>
      <trkpt lat="45.60212" lon="7.885378">
        <ele>2122.02417</ele>
        <time>2024-08-08T13:26:33.000Z</time>
      </trkpt>
      <trkpt lat="45.602118" lon="7.885347">
        <ele>2121.62427</ele>
        <time>2024-08-08T13:26:36.000Z</time>
      </trkpt>
      <trkpt lat="45.602117" lon="7.885305">
        <ele>2121.20435</ele>
        <time>2024-08-08T13:26:39.000Z</time>
      </trkpt>
      <trkpt lat="45.602112" lon="7.885258">
        <ele>2120.7793</ele>
        <time>2024-08-08T13:26:41.000Z</time>
      </trkpt>
      <trkpt lat="45.602108" lon="7.885213">
        <ele>2120.38428</ele>
        <time>2024-08-08T13:26:43.000Z</time>
      </trkpt>
      <trkpt lat="45.602112" lon="7.88517">
        <ele>2119.9895</ele>
        <time>2024-08-08T13:26:45.000Z</time>
      </trkpt>
      <trkpt lat="45.602112" lon="7.885143">
        <ele>2119.59937</ele>
        <time>2024-08-08T13:26:46.000Z</time>
      </trkpt>
      <trkpt lat="45.602118" lon="7.885108">
        <ele>2119.2395</ele>
        <time>2024-08-08T13:26:48.000Z</time>
      </trkpt>
      <trkpt lat="45.60211" lon="7.88507">
        <ele>2118.92944</ele>
        <time>2024-08-08T13:26:50.000Z</time>
      </trkpt>
      <trkpt lat="45.602105" lon="7.88503">
        <ele>2118.65454</ele>
        <time>2024-08-08T13:26:52.000Z</time>
      </trkpt>
      <trkpt lat="45.60211" lon="7.884995">
        <ele>2118.41943</ele>
        <time>2024-08-08T13:26:54.000Z</time>
      </trkpt>
      <trkpt lat="45.602095" lon="7.884962">
        <ele>2118.21948</ele>
        <time>2024-08-08T13:26:57.000Z</time>
      </trkpt>
      <trkpt lat="45.602085" lon="7.884937">
        <ele>2118.00439</ele>
        <time>2024-08-08T13:26:59.000Z</time>
      </trkpt>
      <trkpt lat="45.602067" lon="7.8849">
        <ele>2117.81958</ele>
        <time>2024-08-08T13:27:01.000Z</time>
      </trkpt>
      <trkpt lat="45.602058" lon="7.884852">
        <ele>2117.65454</ele>
        <time>2024-08-08T13:27:03.000Z</time>
      </trkpt>
      <trkpt lat="45.602052" lon="7.884818">
        <ele>2117.51465</ele>
        <time>2024-08-08T13:27:06.000Z</time>
      </trkpt>
      <trkpt lat="45.602045" lon="7.884787">
        <ele>2117.32471</ele>
        <time>2024-08-08T13:27:08.000Z</time>
      </trkpt>
      <trkpt lat="45.602037" lon="7.884762">
        <ele>2117.14966</ele>
        <time>2024-08-08T13:27:10.000Z</time>
      </trkpt>
      <trkpt lat="45.602027" lon="7.88473">
        <ele>2117.00952</ele>
        <time>2024-08-08T13:27:12.000Z</time>
      </trkpt>
      <trkpt lat="45.602017" lon="7.884697">
        <ele>2116.90479</ele>
        <time>2024-08-08T13:27:14.000Z</time>
      </trkpt>
      <trkpt lat="45.602013" lon="7.884668">
        <ele>2116.84961</ele>
        <time>2024-08-08T13:27:16.000Z</time>
      </trkpt>
      <trkpt lat="45.602022" lon="7.884643">
        <ele>2116.78955</ele>
        <time>2024-08-08T13:27:18.000Z</time>
      </trkpt>
      <trkpt lat="45.602027" lon="7.88461">
        <ele>2116.76465</ele>
        <time>2024-08-08T13:27:21.000Z</time>
      </trkpt>
      <trkpt lat="45.602027" lon="7.884583">
        <ele>2116.72461</ele>
        <time>2024-08-08T13:27:23.000Z</time>
      </trkpt>
      <trkpt lat="45.602018" lon="7.884557">
        <ele>2116.68457</ele>
        <time>2024-08-08T13:27:25.000Z</time>
      </trkpt>
      <trkpt lat="45.602015" lon="7.884522">
        <ele>2116.63965</ele>
        <time>2024-08-08T13:27:28.000Z</time>
      </trkpt>
      <trkpt lat="45.602013" lon="7.884492">
        <ele>2116.59961</ele>
        <time>2024-08-08T13:27:30.000Z</time>
      </trkpt>
      <trkpt lat="45.602003" lon="7.884455">
        <ele>2116.54956</ele>
        <time>2024-08-08T13:27:32.000Z</time>
      </trkpt>
      <trkpt lat="45.601987" lon="7.884423">
        <ele>2116.50952</ele>
        <time>2024-08-08T13:27:34.000Z</time>
      </trkpt>
      <trkpt lat="45.601973" lon="7.884397">
        <ele>2116.46436</ele>
        <time>2024-08-08T13:27:36.000Z</time>
      </trkpt>
      <trkpt lat="45.601965" lon="7.884367">
        <ele>2116.3645</ele>
        <time>2024-08-08T13:27:38.000Z</time>
      </trkpt>
      <trkpt lat="45.601967" lon="7.884332">
        <ele>2116.19971</ele>
        <time>2024-08-08T13:27:40.000Z</time>
      </trkpt>
      <trkpt lat="45.601975" lon="7.884293">
        <ele>2116.08447</ele>
        <time>2024-08-08T13:27:42.000Z</time>
      </trkpt>
      <trkpt lat="45.601982" lon="7.884255">
        <ele>2115.97949</ele>
        <time>2024-08-08T13:27:44.000Z</time>
      </trkpt>
      <trkpt lat="45.601977" lon="7.884225">
        <ele>2115.87939</ele>
        <time>2024-08-08T13:27:46.000Z</time>
      </trkpt>
      <trkpt lat="45.601968" lon="7.884188">
        <ele>2115.77441</ele>
        <time>2024-08-08T13:27:48.000Z</time>
      </trkpt>
      <trkpt lat="45.601975" lon="7.884158">
        <ele>2115.74463</ele>
        <time>2024-08-08T13:27:50.000Z</time>
      </trkpt>
      <trkpt lat="45.601975" lon="7.884128">
        <ele>2115.70947</ele>
        <time>2024-08-08T13:27:53.000Z</time>
      </trkpt>
      <trkpt lat="45.601978" lon="7.884095">
        <ele>2115.70459</ele>
        <time>2024-08-08T13:27:56.000Z</time>
      </trkpt>
      <trkpt lat="45.601977" lon="7.884055">
        <ele>2115.67456</ele>
        <time>2024-08-08T13:27:58.000Z</time>
      </trkpt>
      <trkpt lat="45.601982" lon="7.884007">
        <ele>2115.60962</ele>
        <time>2024-08-08T13:28:00.000Z</time>
      </trkpt>
      <trkpt lat="45.601985" lon="7.883978">
        <ele>2115.54956</ele>
        <time>2024-08-08T13:28:02.000Z</time>
      </trkpt>
      <trkpt lat="45.601987" lon="7.883948">
        <ele>2115.46948</ele>
        <time>2024-08-08T13:28:04.000Z</time>
      </trkpt>
      <trkpt lat="45.601998" lon="7.883913">
        <ele>2115.35962</ele>
        <time>2024-08-08T13:28:06.000Z</time>
      </trkpt>
      <trkpt lat="45.602005" lon="7.883885">
        <ele>2115.2146</ele>
        <time>2024-08-08T13:28:07.000Z</time>
      </trkpt>
      <trkpt lat="45.602017" lon="7.883853">
        <ele>2115.0896</ele>
        <time>2024-08-08T13:28:09.000Z</time>
      </trkpt>
      <trkpt lat="45.602022" lon="7.883813">
        <ele>2114.91968</ele>
        <time>2024-08-08T13:28:11.000Z</time>
      </trkpt>
      <trkpt lat="45.602033" lon="7.883782">
        <ele>2114.7146</ele>
        <time>2024-08-08T13:28:13.000Z</time>
      </trkpt>
      <trkpt lat="45.602042" lon="7.883753">
        <ele>2114.47974</ele>
        <time>2024-08-08T13:28:16.000Z</time>
      </trkpt>
      <trkpt lat="45.602038" lon="7.883727">
        <ele>2114.17969</ele>
        <time>2024-08-08T13:28:21.000Z</time>
      </trkpt>
      <trkpt lat="45.602043" lon="7.8837">
        <ele>2113.89966</ele>
        <time>2024-08-08T13:28:24.000Z</time>
      </trkpt>
      <trkpt lat="45.602042" lon="7.883663">
        <ele>2113.60449</ele>
        <time>2024-08-08T13:28:28.000Z</time>
      </trkpt>
      <trkpt lat="45.60205" lon="7.883637">
        <ele>2113.27954</ele>
        <time>2024-08-08T13:28:31.000Z</time>
      </trkpt>
      <trkpt lat="45.60206" lon="7.883612">
        <ele>2112.91455</ele>
        <time>2024-08-08T13:28:34.000Z</time>
      </trkpt>
      <trkpt lat="45.602063" lon="7.883578">
        <ele>2112.56445</ele>
        <time>2024-08-08T13:28:38.000Z</time>
      </trkpt>
      <trkpt lat="45.602065" lon="7.883547">
        <ele>2112.22437</ele>
        <time>2024-08-08T13:28:41.000Z</time>
      </trkpt>
      <trkpt lat="45.602065" lon="7.88352">
        <ele>2111.86426</ele>
        <time>2024-08-08T13:28:43.000Z</time>
      </trkpt>
      <trkpt lat="45.602067" lon="7.883493">
        <ele>2111.55908</ele>
        <time>2024-08-08T13:28:45.000Z</time>
      </trkpt>
      <trkpt lat="45.602075" lon="7.883465">
        <ele>2111.25415</ele>
        <time>2024-08-08T13:28:47.000Z</time>
      </trkpt>
      <trkpt lat="45.60207" lon="7.88343">
        <ele>2110.97412</ele>
        <time>2024-08-08T13:28:49.000Z</time>
      </trkpt>
      <trkpt lat="45.602063" lon="7.883392">
        <ele>2110.70898</ele>
        <time>2024-08-08T13:28:51.000Z</time>
      </trkpt>
      <trkpt lat="45.602048" lon="7.883355">
        <ele>2110.43408</ele>
        <time>2024-08-08T13:28:53.000Z</time>
      </trkpt>
      <trkpt lat="45.602035" lon="7.883328">
        <ele>2110.17896</ele>
        <time>2024-08-08T13:28:55.000Z</time>
      </trkpt>
      <trkpt lat="45.60204" lon="7.883298">
        <ele>2109.92896</ele>
        <time>2024-08-08T13:28:57.000Z</time>
      </trkpt>
      <trkpt lat="45.602053" lon="7.883265">
        <ele>2109.67383</ele>
        <time>2024-08-08T13:28:59.000Z</time>
      </trkpt>
      <trkpt lat="45.602055" lon="7.883223">
        <ele>2109.43872</ele>
        <time>2024-08-08T13:29:01.000Z</time>
      </trkpt>
      <trkpt lat="45.602062" lon="7.883193">
        <ele>2109.23877</ele>
        <time>2024-08-08T13:29:03.000Z</time>
      </trkpt>
      <trkpt lat="45.602072" lon="7.883157">
        <ele>2109.07373</ele>
        <time>2024-08-08T13:29:05.000Z</time>
      </trkpt>
      <trkpt lat="45.602078" lon="7.883118">
        <ele>2108.92383</ele>
        <time>2024-08-08T13:29:07.000Z</time>
      </trkpt>
      <trkpt lat="45.60208" lon="7.883078">
        <ele>2108.86377</ele>
        <time>2024-08-08T13:29:09.000Z</time>
      </trkpt>
      <trkpt lat="45.60207" lon="7.883042">
        <ele>2108.81396</ele>
        <time>2024-08-08T13:29:11.000Z</time>
      </trkpt>
      <trkpt lat="45.602052" lon="7.883023">
        <ele>2108.78882</ele>
        <time>2024-08-08T13:29:13.000Z</time>
      </trkpt>
      <trkpt lat="45.602043" lon="7.882995">
        <ele>2108.73389</ele>
        <time>2024-08-08T13:29:15.000Z</time>
      </trkpt>
      <trkpt lat="45.602042" lon="7.882968">
        <ele>2108.67383</ele>
        <time>2024-08-08T13:29:17.000Z</time>
      </trkpt>
      <trkpt lat="45.60204" lon="7.882937">
        <ele>2108.62378</ele>
        <time>2024-08-08T13:29:19.000Z</time>
      </trkpt>
      <trkpt lat="45.602035" lon="7.8829">
        <ele>2108.61377</ele>
        <time>2024-08-08T13:29:21.000Z</time>
      </trkpt>
      <trkpt lat="45.602022" lon="7.882873">
        <ele>2108.62402</ele>
        <time>2024-08-08T13:29:23.000Z</time>
      </trkpt>
      <trkpt lat="45.602005" lon="7.88285">
        <ele>2108.59912</ele>
        <time>2024-08-08T13:29:26.000Z</time>
      </trkpt>
      <trkpt lat="45.60199" lon="7.88282">
        <ele>2108.5542</ele>
        <time>2024-08-08T13:29:28.000Z</time>
      </trkpt>
      <trkpt lat="45.601978" lon="7.882798">
        <ele>2108.479</ele>
        <time>2024-08-08T13:29:30.000Z</time>
      </trkpt>
      <trkpt lat="45.601957" lon="7.882775">
        <ele>2108.41431</ele>
        <time>2024-08-08T13:29:33.000Z</time>
      </trkpt>
      <trkpt lat="45.601938" lon="7.882738">
        <ele>2108.37915</ele>
        <time>2024-08-08T13:29:35.000Z</time>
      </trkpt>
      <trkpt lat="45.601918" lon="7.882707">
        <ele>2108.3291</ele>
        <time>2024-08-08T13:29:37.000Z</time>
      </trkpt>
      <trkpt lat="45.601903" lon="7.882682">
        <ele>2108.27417</ele>
        <time>2024-08-08T13:29:39.000Z</time>
      </trkpt>
      <trkpt lat="45.601893" lon="7.882657">
        <ele>2108.27417</ele>
        <time>2024-08-08T13:29:41.000Z</time>
      </trkpt>
      <trkpt lat="45.601882" lon="7.882627">
        <ele>2108.28442</ele>
        <time>2024-08-08T13:29:43.000Z</time>
      </trkpt>
      <trkpt lat="45.60187" lon="7.882592">
        <ele>2108.33447</ele>
        <time>2024-08-08T13:29:45.000Z</time>
      </trkpt>
      <trkpt lat="45.601862" lon="7.882568">
        <ele>2108.36426</ele>
        <time>2024-08-08T13:29:47.000Z</time>
      </trkpt>
      <trkpt lat="45.601853" lon="7.88254">
        <ele>2108.37939</ele>
        <time>2024-08-08T13:29:49.000Z</time>
      </trkpt>
      <trkpt lat="45.601855" lon="7.882502">
        <ele>2108.34912</ele>
        <time>2024-08-08T13:29:51.000Z</time>
      </trkpt>
      <trkpt lat="45.601852" lon="7.882465">
        <ele>2108.3042</ele>
        <time>2024-08-08T13:29:53.000Z</time>
      </trkpt>
      <trkpt lat="45.601848" lon="7.882432">
        <ele>2108.25439</ele>
        <time>2024-08-08T13:29:55.000Z</time>
      </trkpt>
      <trkpt lat="45.601842" lon="7.882403">
        <ele>2108.19434</ele>
        <time>2024-08-08T13:29:58.000Z</time>
      </trkpt>
      <trkpt lat="45.601847" lon="7.882375">
        <ele>2108.16943</ele>
        <time>2024-08-08T13:30:00.000Z</time>
      </trkpt>
      <trkpt lat="45.601843" lon="7.882343">
        <ele>2108.12939</ele>
        <time>2024-08-08T13:30:02.000Z</time>
      </trkpt>
      <trkpt lat="45.60184" lon="7.882312">
        <ele>2108.06445</ele>
        <time>2024-08-08T13:30:05.000Z</time>
      </trkpt>
      <trkpt lat="45.601822" lon="7.882292">
        <ele>2107.96924</ele>
        <time>2024-08-08T13:30:08.000Z</time>
      </trkpt>
      <trkpt lat="45.601817" lon="7.882265">
        <ele>2107.86938</ele>
        <time>2024-08-08T13:30:10.000Z</time>
      </trkpt>
      <trkpt lat="45.601817" lon="7.882238">
        <ele>2107.74438</ele>
        <time>2024-08-08T13:30:12.000Z</time>
      </trkpt>
      <trkpt lat="45.601833" lon="7.882223">
        <ele>2107.57446</ele>
        <time>2024-08-08T13:30:15.000Z</time>
      </trkpt>
      <trkpt lat="45.601847" lon="7.882205">
        <ele>2107.36938</ele>
        <time>2024-08-08T13:30:20.000Z</time>
      </trkpt>
      <trkpt lat="45.601847" lon="7.882242">
        <ele>2106.64941</ele>
        <time>2024-08-08T13:33:52.000Z</time>
      </trkpt>
      <trkpt lat="45.601827" lon="7.882255">
        <ele>2105.87939</ele>
        <time>2024-08-08T13:33:54.000Z</time>
      </trkpt>
      <trkpt lat="45.601805" lon="7.882253">
        <ele>2105.09937</ele>
        <time>2024-08-08T13:33:58.000Z</time>
      </trkpt>
      <trkpt lat="45.60181" lon="7.882228">
        <ele>2104.31958</ele>
        <time>2024-08-08T13:34:03.000Z</time>
      </trkpt>
      <trkpt lat="45.601792" lon="7.882258">
        <ele>2103.28442</ele>
        <time>2024-08-08T13:35:19.000Z</time>
      </trkpt>
      <trkpt lat="45.601777" lon="7.88228">
        <ele>2102.20947</ele>
        <time>2024-08-08T13:35:21.000Z</time>
      </trkpt>
      <trkpt lat="45.601762" lon="7.882295">
        <ele>2101.14941</ele>
        <time>2024-08-08T13:35:23.000Z</time>
      </trkpt>
      <trkpt lat="45.601745" lon="7.882327">
        <ele>2100.09424</ele>
        <time>2024-08-08T13:35:25.000Z</time>
      </trkpt>
      <trkpt lat="45.601723" lon="7.88235">
        <ele>2099.03442</ele>
        <time>2024-08-08T13:35:27.000Z</time>
      </trkpt>
      <trkpt lat="45.6017" lon="7.88238">
        <ele>2097.93433</ele>
        <time>2024-08-08T13:35:29.000Z</time>
      </trkpt>
      <trkpt lat="45.60168" lon="7.882397">
        <ele>2096.80933</ele>
        <time>2024-08-08T13:35:31.000Z</time>
      </trkpt>
      <trkpt lat="45.601657" lon="7.8824">
        <ele>2095.69434</ele>
        <time>2024-08-08T13:35:33.000Z</time>
      </trkpt>
      <trkpt lat="45.601638" lon="7.882397">
        <ele>2094.56445</ele>
        <time>2024-08-08T13:35:34.000Z</time>
      </trkpt>
      <trkpt lat="45.60162" lon="7.88238">
        <ele>2093.41455</ele>
        <time>2024-08-08T13:35:36.000Z</time>
      </trkpt>
      <trkpt lat="45.60163" lon="7.882345">
        <ele>2092.28467</ele>
        <time>2024-08-08T13:35:38.000Z</time>
      </trkpt>
      <trkpt lat="45.601637" lon="7.88232">
        <ele>2091.16943</ele>
        <time>2024-08-08T13:35:40.000Z</time>
      </trkpt>
      <trkpt lat="45.601623" lon="7.882298">
        <ele>2090.05444</ele>
        <time>2024-08-08T13:35:43.000Z</time>
      </trkpt>
      <trkpt lat="45.601623" lon="7.882265">
        <ele>2088.95947</ele>
        <time>2024-08-08T13:35:46.000Z</time>
      </trkpt>
      <trkpt lat="45.601607" lon="7.882242">
        <ele>2087.9043</ele>
        <time>2024-08-08T13:35:50.000Z</time>
      </trkpt>
      <trkpt lat="45.60159" lon="7.882223">
        <ele>2086.84424</ele>
        <time>2024-08-08T13:35:52.000Z</time>
      </trkpt>
      <trkpt lat="45.60158" lon="7.882195">
        <ele>2086.23926</ele>
        <time>2024-08-08T13:35:54.000Z</time>
      </trkpt>
      <trkpt lat="45.601568" lon="7.882173">
        <ele>2085.66431</ele>
        <time>2024-08-08T13:35:56.000Z</time>
      </trkpt>
      <trkpt lat="45.601545" lon="7.882155">
        <ele>2085.10425</ele>
        <time>2024-08-08T13:35:59.000Z</time>
      </trkpt>
      <trkpt lat="45.601527" lon="7.88214">
        <ele>2084.53418</ele>
        <time>2024-08-08T13:36:01.000Z</time>
      </trkpt>
      <trkpt lat="45.601502" lon="7.882127">
        <ele>2084.18921</ele>
        <time>2024-08-08T13:36:03.000Z</time>
      </trkpt>
      <trkpt lat="45.601472" lon="7.882137">
        <ele>2083.87427</ele>
        <time>2024-08-08T13:36:05.000Z</time>
      </trkpt>
      <trkpt lat="45.60144" lon="7.882135">
        <ele>2083.60425</ele>
        <time>2024-08-08T13:36:07.000Z</time>
      </trkpt>
      <trkpt lat="45.601417" lon="7.882133">
        <ele>2083.35425</ele>
        <time>2024-08-08T13:36:09.000Z</time>
      </trkpt>
      <trkpt lat="45.601393" lon="7.882122">
        <ele>2083.12451</ele>
        <time>2024-08-08T13:36:11.000Z</time>
      </trkpt>
      <trkpt lat="45.601372" lon="7.882113">
        <ele>2082.93921</ele>
        <time>2024-08-08T13:36:13.000Z</time>
      </trkpt>
      <trkpt lat="45.601355" lon="7.882103">
        <ele>2082.78442</ele>
        <time>2024-08-08T13:36:16.000Z</time>
      </trkpt>
      <trkpt lat="45.601342" lon="7.882085">
        <ele>2082.63428</ele>
        <time>2024-08-08T13:36:18.000Z</time>
      </trkpt>
      <trkpt lat="45.60133" lon="7.882065">
        <ele>2082.51416</ele>
        <time>2024-08-08T13:36:20.000Z</time>
      </trkpt>
      <trkpt lat="45.601313" lon="7.882052">
        <ele>2082.43921</ele>
        <time>2024-08-08T13:36:22.000Z</time>
      </trkpt>
      <trkpt lat="45.60129" lon="7.882042">
        <ele>2082.37427</ele>
        <time>2024-08-08T13:36:24.000Z</time>
      </trkpt>
      <trkpt lat="45.60126" lon="7.882017">
        <ele>2082.34424</ele>
        <time>2024-08-08T13:36:26.000Z</time>
      </trkpt>
      <trkpt lat="45.601238" lon="7.88201">
        <ele>2082.33447</ele>
        <time>2024-08-08T13:36:27.000Z</time>
      </trkpt>
      <trkpt lat="45.601215" lon="7.881987">
        <ele>2082.38428</ele>
        <time>2024-08-08T13:36:29.000Z</time>
      </trkpt>
      <trkpt lat="45.601197" lon="7.881968">
        <ele>2082.43945</ele>
        <time>2024-08-08T13:36:31.000Z</time>
      </trkpt>
      <trkpt lat="45.601175" lon="7.881952">
        <ele>2082.54443</ele>
        <time>2024-08-08T13:36:33.000Z</time>
      </trkpt>
      <trkpt lat="45.60116" lon="7.881932">
        <ele>2082.70459</ele>
        <time>2024-08-08T13:36:35.000Z</time>
      </trkpt>
      <trkpt lat="45.601137" lon="7.881905">
        <ele>2082.89941</ele>
        <time>2024-08-08T13:36:37.000Z</time>
      </trkpt>
      <trkpt lat="45.601105" lon="7.88189">
        <ele>2083.12939</ele>
        <time>2024-08-08T13:36:39.000Z</time>
      </trkpt>
      <trkpt lat="45.601082" lon="7.88187">
        <ele>2083.33936</ele>
        <time>2024-08-08T13:36:41.000Z</time>
      </trkpt>
      <trkpt lat="45.601065" lon="7.881853">
        <ele>2083.54443</ele>
        <time>2024-08-08T13:36:44.000Z</time>
      </trkpt>
      <trkpt lat="45.601045" lon="7.881838">
        <ele>2083.74951</ele>
        <time>2024-08-08T13:36:46.000Z</time>
      </trkpt>
      <trkpt lat="45.601022" lon="7.881822">
        <ele>2083.91943</ele>
        <time>2024-08-08T13:36:48.000Z</time>
      </trkpt>
      <trkpt lat="45.601007" lon="7.881803">
        <ele>2084.07446</ele>
        <time>2024-08-08T13:36:51.000Z</time>
      </trkpt>
      <trkpt lat="45.601003" lon="7.881777">
        <ele>2084.16431</ele>
        <time>2024-08-08T13:36:53.000Z</time>
      </trkpt>
      <trkpt lat="45.600998" lon="7.88175">
        <ele>2084.21436</ele>
        <time>2024-08-08T13:36:55.000Z</time>
      </trkpt>
      <trkpt lat="45.600987" lon="7.881722">
        <ele>2084.26904</ele>
        <time>2024-08-08T13:36:57.000Z</time>
      </trkpt>
      <trkpt lat="45.600977" lon="7.881698">
        <ele>2084.33423</ele>
        <time>2024-08-08T13:36:58.000Z</time>
      </trkpt>
      <trkpt lat="45.600968" lon="7.881662">
        <ele>2084.36914</ele>
        <time>2024-08-08T13:37:00.000Z</time>
      </trkpt>
      <trkpt lat="45.600965" lon="7.881623">
        <ele>2084.35889</ele>
        <time>2024-08-08T13:37:02.000Z</time>
      </trkpt>
      <trkpt lat="45.600948" lon="7.881592">
        <ele>2084.28394</ele>
        <time>2024-08-08T13:37:04.000Z</time>
      </trkpt>
      <trkpt lat="45.600937" lon="7.88156">
        <ele>2084.11377</ele>
        <time>2024-08-08T13:37:06.000Z</time>
      </trkpt>
      <trkpt lat="45.600925" lon="7.88154">
        <ele>2083.89404</ele>
        <time>2024-08-08T13:37:08.000Z</time>
      </trkpt>
      <trkpt lat="45.600913" lon="7.88151">
        <ele>2083.56885</ele>
        <time>2024-08-08T13:37:10.000Z</time>
      </trkpt>
      <trkpt lat="45.600902" lon="7.88148">
        <ele>2083.23389</ele>
        <time>2024-08-08T13:37:12.000Z</time>
      </trkpt>
      <trkpt lat="45.600885" lon="7.881453">
        <ele>2082.88403</ele>
        <time>2024-08-08T13:37:14.000Z</time>
      </trkpt>
      <trkpt lat="45.600875" lon="7.881428">
        <ele>2082.51904</ele>
        <time>2024-08-08T13:37:16.000Z</time>
      </trkpt>
      <trkpt lat="45.60086" lon="7.881412">
        <ele>2082.12402</ele>
        <time>2024-08-08T13:37:18.000Z</time>
      </trkpt>
      <trkpt lat="45.60085" lon="7.881372">
        <ele>2081.6792</ele>
        <time>2024-08-08T13:37:20.000Z</time>
      </trkpt>
      <trkpt lat="45.600835" lon="7.881352">
        <ele>2081.23926</ele>
        <time>2024-08-08T13:37:22.000Z</time>
      </trkpt>
      <trkpt lat="45.600817" lon="7.881325">
        <ele>2080.8291</ele>
        <time>2024-08-08T13:37:24.000Z</time>
      </trkpt>
      <trkpt lat="45.600802" lon="7.881303">
        <ele>2080.35889</ele>
        <time>2024-08-08T13:37:26.000Z</time>
      </trkpt>
      <trkpt lat="45.60078" lon="7.881285">
        <ele>2079.83911</ele>
        <time>2024-08-08T13:37:28.000Z</time>
      </trkpt>
      <trkpt lat="45.600757" lon="7.88127">
        <ele>2079.28906</ele>
        <time>2024-08-08T13:37:30.000Z</time>
      </trkpt>
      <trkpt lat="45.600733" lon="7.881257">
        <ele>2078.75928</ele>
        <time>2024-08-08T13:37:33.000Z</time>
      </trkpt>
      <trkpt lat="45.600708" lon="7.881247">
        <ele>2078.23413</ele>
        <time>2024-08-08T13:37:36.000Z</time>
      </trkpt>
      <trkpt lat="45.600687" lon="7.881252">
        <ele>2077.65918</ele>
        <time>2024-08-08T13:37:38.000Z</time>
      </trkpt>
      <trkpt lat="45.600663" lon="7.881255">
        <ele>2076.99927</ele>
        <time>2024-08-08T13:37:42.000Z</time>
      </trkpt>
      <trkpt lat="45.600652" lon="7.881217">
        <ele>2076.1792</ele>
        <time>2024-08-08T13:38:50.000Z</time>
      </trkpt>
      <trkpt lat="45.600647" lon="7.881188">
        <ele>2075.34424</ele>
        <time>2024-08-08T13:38:53.000Z</time>
      </trkpt>
      <trkpt lat="45.600623" lon="7.881193">
        <ele>2074.49927</ele>
        <time>2024-08-08T13:38:57.000Z</time>
      </trkpt>
      <trkpt lat="45.6006" lon="7.88119">
        <ele>2073.69434</ele>
        <time>2024-08-08T13:39:00.000Z</time>
      </trkpt>
      <trkpt lat="45.600578" lon="7.8812">
        <ele>2072.88428</ele>
        <time>2024-08-08T13:39:03.000Z</time>
      </trkpt>
      <trkpt lat="45.600562" lon="7.881215">
        <ele>2072.20435</ele>
        <time>2024-08-08T13:39:14.000Z</time>
      </trkpt>
      <trkpt lat="45.600538" lon="7.88121">
        <ele>2071.78418</ele>
        <time>2024-08-08T13:39:26.000Z</time>
      </trkpt>
      <trkpt lat="45.600525" lon="7.881175">
        <ele>2071.42432</ele>
        <time>2024-08-08T13:39:28.000Z</time>
      </trkpt>
      <trkpt lat="45.600523" lon="7.88113">
        <ele>2071.13428</ele>
        <time>2024-08-08T13:39:30.000Z</time>
      </trkpt>
      <trkpt lat="45.600522" lon="7.8811">
        <ele>2070.87915</ele>
        <time>2024-08-08T13:39:32.000Z</time>
      </trkpt>
      <trkpt lat="45.60054" lon="7.881087">
        <ele>2070.56396</ele>
        <time>2024-08-08T13:39:38.000Z</time>
      </trkpt>
      <trkpt lat="45.600555" lon="7.881067">
        <ele>2070.22412</ele>
        <time>2024-08-08T13:39:42.000Z</time>
      </trkpt>
      <trkpt lat="45.600538" lon="7.881083">
        <ele>2069.76904</ele>
        <time>2024-08-08T13:39:48.000Z</time>
      </trkpt>
      <trkpt lat="45.60056" lon="7.881073">
        <ele>2069.20923</ele>
        <time>2024-08-08T13:40:12.000Z</time>
      </trkpt>
      <trkpt lat="45.600542" lon="7.881075">
        <ele>2068.68408</ele>
        <time>2024-08-08T13:40:14.000Z</time>
      </trkpt>
      <trkpt lat="45.600518" lon="7.881072">
        <ele>2068.19922</ele>
        <time>2024-08-08T13:40:16.000Z</time>
      </trkpt>
      <trkpt lat="45.600482" lon="7.881078">
        <ele>2067.75928</ele>
        <time>2024-08-08T13:40:18.000Z</time>
      </trkpt>
      <trkpt lat="45.600463" lon="7.881088">
        <ele>2067.36426</ele>
        <time>2024-08-08T13:40:20.000Z</time>
      </trkpt>
      <trkpt lat="45.600438" lon="7.881092">
        <ele>2067.03442</ele>
        <time>2024-08-08T13:40:22.000Z</time>
      </trkpt>
      <trkpt lat="45.600417" lon="7.881105">
        <ele>2066.80933</ele>
        <time>2024-08-08T13:40:24.000Z</time>
      </trkpt>
      <trkpt lat="45.600408" lon="7.88113">
        <ele>2066.72925</ele>
        <time>2024-08-08T13:40:27.000Z</time>
      </trkpt>
      <trkpt lat="45.600407" lon="7.881163">
        <ele>2066.69946</ele>
        <time>2024-08-08T13:40:29.000Z</time>
      </trkpt>
      <trkpt lat="45.600402" lon="7.881205">
        <ele>2066.72949</ele>
        <time>2024-08-08T13:40:31.000Z</time>
      </trkpt>
      <trkpt lat="45.600402" lon="7.881245">
        <ele>2066.78442</ele>
        <time>2024-08-08T13:40:33.000Z</time>
      </trkpt>
      <trkpt lat="45.600407" lon="7.881277">
        <ele>2066.83447</ele>
        <time>2024-08-08T13:40:37.000Z</time>
      </trkpt>
      <trkpt lat="45.600413" lon="7.881315">
        <ele>2066.73438</ele>
        <time>2024-08-08T13:40:40.000Z</time>
      </trkpt>
      <trkpt lat="45.60042" lon="7.881347">
        <ele>2066.35449</ele>
        <time>2024-08-08T13:40:42.000Z</time>
      </trkpt>
      <trkpt lat="45.600418" lon="7.88138">
        <ele>2065.86963</ele>
        <time>2024-08-08T13:40:46.000Z</time>
      </trkpt>
      <trkpt lat="45.600415" lon="7.881407">
        <ele>2065.21436</ele>
        <time>2024-08-08T13:40:51.000Z</time>
      </trkpt>
      <trkpt lat="45.60041" lon="7.88144">
        <ele>2064.42456</ele>
        <time>2024-08-08T13:40:57.000Z</time>
      </trkpt>
      <trkpt lat="45.600415" lon="7.88147">
        <ele>2063.66455</ele>
        <time>2024-08-08T13:40:59.000Z</time>
      </trkpt>
      <trkpt lat="45.600415" lon="7.881512">
        <ele>2062.87451</ele>
        <time>2024-08-08T13:41:01.000Z</time>
      </trkpt>
      <trkpt lat="45.600423" lon="7.881545">
        <ele>2062.13965</ele>
        <time>2024-08-08T13:41:03.000Z</time>
      </trkpt>
      <trkpt lat="45.600433" lon="7.88159">
        <ele>2061.52466</ele>
        <time>2024-08-08T13:41:05.000Z</time>
      </trkpt>
      <trkpt lat="45.600432" lon="7.88164">
        <ele>2060.91455</ele>
        <time>2024-08-08T13:41:07.000Z</time>
      </trkpt>
      <trkpt lat="45.600432" lon="7.881678">
        <ele>2060.31445</ele>
        <time>2024-08-08T13:41:09.000Z</time>
      </trkpt>
      <trkpt lat="45.600442" lon="7.881702">
        <ele>2059.71436</ele>
        <time>2024-08-08T13:41:11.000Z</time>
      </trkpt>
      <trkpt lat="45.600448" lon="7.881728">
        <ele>2059.08936</ele>
        <time>2024-08-08T13:41:13.000Z</time>
      </trkpt>
      <trkpt lat="45.600458" lon="7.881752">
        <ele>2058.44946</ele>
        <time>2024-08-08T13:41:15.000Z</time>
      </trkpt>
      <trkpt lat="45.600468" lon="7.881785">
        <ele>2057.80933</ele>
        <time>2024-08-08T13:41:17.000Z</time>
      </trkpt>
      <trkpt lat="45.600485" lon="7.881818">
        <ele>2057.18945</ele>
        <time>2024-08-08T13:41:19.000Z</time>
      </trkpt>
      <trkpt lat="45.6005" lon="7.881857">
        <ele>2056.54443</ele>
        <time>2024-08-08T13:41:21.000Z</time>
      </trkpt>
      <trkpt lat="45.600517" lon="7.881882">
        <ele>2055.87451</ele>
        <time>2024-08-08T13:41:23.000Z</time>
      </trkpt>
      <trkpt lat="45.600518" lon="7.881913">
        <ele>2055.23462</ele>
        <time>2024-08-08T13:41:25.000Z</time>
      </trkpt>
      <trkpt lat="45.600518" lon="7.881947">
        <ele>2054.67969</ele>
        <time>2024-08-08T13:41:27.000Z</time>
      </trkpt>
      <trkpt lat="45.60053" lon="7.881973">
        <ele>2054.18457</ele>
        <time>2024-08-08T13:41:29.000Z</time>
      </trkpt>
      <trkpt lat="45.600532" lon="7.882017">
        <ele>2053.69971</ele>
        <time>2024-08-08T13:41:32.000Z</time>
      </trkpt>
      <trkpt lat="45.600532" lon="7.882045">
        <ele>2053.20947</ele>
        <time>2024-08-08T13:41:34.000Z</time>
      </trkpt>
      <trkpt lat="45.600528" lon="7.882075">
        <ele>2052.80469</ele>
        <time>2024-08-08T13:41:36.000Z</time>
      </trkpt>
      <trkpt lat="45.600515" lon="7.882097">
        <ele>2052.52466</ele>
        <time>2024-08-08T13:41:39.000Z</time>
      </trkpt>
      <trkpt lat="45.600502" lon="7.882117">
        <ele>2052.25952</ele>
        <time>2024-08-08T13:41:42.000Z</time>
      </trkpt>
      <trkpt lat="45.600492" lon="7.88214">
        <ele>2051.99951</ele>
        <time>2024-08-08T13:41:46.000Z</time>
      </trkpt>
      <trkpt lat="45.600473" lon="7.882158">
        <ele>2051.72461</ele>
        <time>2024-08-08T13:41:49.000Z</time>
      </trkpt>
      <trkpt lat="45.600455" lon="7.882175">
        <ele>2051.41968</ele>
        <time>2024-08-08T13:41:52.000Z</time>
      </trkpt>
      <trkpt lat="45.600433" lon="7.882177">
        <ele>2051.06494</ele>
        <time>2024-08-08T13:41:54.000Z</time>
      </trkpt>
      <trkpt lat="45.600413" lon="7.882193">
        <ele>2050.66968</ele>
        <time>2024-08-08T13:41:56.000Z</time>
      </trkpt>
      <trkpt lat="45.600403" lon="7.882225">
        <ele>2050.25464</ele>
        <time>2024-08-08T13:41:58.000Z</time>
      </trkpt>
      <trkpt lat="45.600388" lon="7.882242">
        <ele>2049.8147</ele>
        <time>2024-08-08T13:42:02.000Z</time>
      </trkpt>
      <trkpt lat="45.600368" lon="7.882245">
        <ele>2049.46948</ele>
        <time>2024-08-08T13:42:13.000Z</time>
      </trkpt>
      <trkpt lat="45.600347" lon="7.882255">
        <ele>2049.13965</ele>
        <time>2024-08-08T13:42:16.000Z</time>
      </trkpt>
      <trkpt lat="45.600323" lon="7.882247">
        <ele>2048.79956</ele>
        <time>2024-08-08T13:42:19.000Z</time>
      </trkpt>
      <trkpt lat="45.6003" lon="7.88225">
        <ele>2048.45947</ele>
        <time>2024-08-08T13:42:22.000Z</time>
      </trkpt>
      <trkpt lat="45.60028" lon="7.882248">
        <ele>2048.09937</ele>
        <time>2024-08-08T13:42:24.000Z</time>
      </trkpt>
      <trkpt lat="45.600258" lon="7.882252">
        <ele>2047.70435</ele>
        <time>2024-08-08T13:42:26.000Z</time>
      </trkpt>
      <trkpt lat="45.60024" lon="7.882248">
        <ele>2047.25427</ele>
        <time>2024-08-08T13:42:27.000Z</time>
      </trkpt>
      <trkpt lat="45.600208" lon="7.882253">
        <ele>2046.79944</ele>
        <time>2024-08-08T13:42:29.000Z</time>
      </trkpt>
      <trkpt lat="45.600173" lon="7.882255">
        <ele>2046.34937</ele>
        <time>2024-08-08T13:42:31.000Z</time>
      </trkpt>
      <trkpt lat="45.600147" lon="7.882245">
        <ele>2045.90454</ele>
        <time>2024-08-08T13:42:33.000Z</time>
      </trkpt>
      <trkpt lat="45.600127" lon="7.882257">
        <ele>2045.43945</ele>
        <time>2024-08-08T13:42:35.000Z</time>
      </trkpt>
      <trkpt lat="45.600105" lon="7.88226">
        <ele>2044.92444</ele>
        <time>2024-08-08T13:42:37.000Z</time>
      </trkpt>
      <trkpt lat="45.600077" lon="7.882273">
        <ele>2044.39453</ele>
        <time>2024-08-08T13:42:40.000Z</time>
      </trkpt>
      <trkpt lat="45.600052" lon="7.8823">
        <ele>2043.85449</ele>
        <time>2024-08-08T13:42:42.000Z</time>
      </trkpt>
      <trkpt lat="45.600038" lon="7.882323">
        <ele>2043.33948</ele>
        <time>2024-08-08T13:42:43.000Z</time>
      </trkpt>
      <trkpt lat="45.600018" lon="7.882348">
        <ele>2042.85938</ele>
        <time>2024-08-08T13:42:46.000Z</time>
      </trkpt>
      <trkpt lat="45.599993" lon="7.882353">
        <ele>2042.41431</ele>
        <time>2024-08-08T13:42:48.000Z</time>
      </trkpt>
      <trkpt lat="45.59997" lon="7.882343">
        <ele>2041.93433</ele>
        <time>2024-08-08T13:42:51.000Z</time>
      </trkpt>
      <trkpt lat="45.599952" lon="7.882355">
        <ele>2041.49939</ele>
        <time>2024-08-08T13:42:54.000Z</time>
      </trkpt>
      <trkpt lat="45.599928" lon="7.882355">
        <ele>2041.21448</ele>
        <time>2024-08-08T13:42:57.000Z</time>
      </trkpt>
      <trkpt lat="45.599905" lon="7.882348">
        <ele>2040.91443</ele>
        <time>2024-08-08T13:42:59.000Z</time>
      </trkpt>
      <trkpt lat="45.599877" lon="7.882352">
        <ele>2040.60938</ele>
        <time>2024-08-08T13:43:01.000Z</time>
      </trkpt>
      <trkpt lat="45.599848" lon="7.882355">
        <ele>2040.34436</ele>
        <time>2024-08-08T13:43:03.000Z</time>
      </trkpt>
      <trkpt lat="45.59983" lon="7.882353">
        <ele>2040.15942</ele>
        <time>2024-08-08T13:43:06.000Z</time>
      </trkpt>
      <trkpt lat="45.599815" lon="7.882332">
        <ele>2040.03442</ele>
        <time>2024-08-08T13:43:09.000Z</time>
      </trkpt>
      <trkpt lat="45.599788" lon="7.882327">
        <ele>2039.90454</ele>
        <time>2024-08-08T13:43:11.000Z</time>
      </trkpt>
      <trkpt lat="45.599772" lon="7.882317">
        <ele>2039.7594</ele>
        <time>2024-08-08T13:43:14.000Z</time>
      </trkpt>
      <trkpt lat="45.599752" lon="7.882307">
        <ele>2039.57935</ele>
        <time>2024-08-08T13:43:20.000Z</time>
      </trkpt>
      <trkpt lat="45.599735" lon="7.882283">
        <ele>2039.42419</ele>
        <time>2024-08-08T13:43:24.000Z</time>
      </trkpt>
      <trkpt lat="45.59972" lon="7.882267">
        <ele>2039.31909</ele>
        <time>2024-08-08T13:43:26.000Z</time>
      </trkpt>
      <trkpt lat="45.599692" lon="7.882272">
        <ele>2039.23901</ele>
        <time>2024-08-08T13:43:28.000Z</time>
      </trkpt>
      <trkpt lat="45.59968" lon="7.882292">
        <ele>2039.17407</ele>
        <time>2024-08-08T13:43:30.000Z</time>
      </trkpt>
      <trkpt lat="45.599665" lon="7.882307">
        <ele>2039.13892</ele>
        <time>2024-08-08T13:43:32.000Z</time>
      </trkpt>
      <trkpt lat="45.599653" lon="7.882287">
        <ele>2039.14392</ele>
        <time>2024-08-08T13:43:40.000Z</time>
      </trkpt>
      <trkpt lat="45.599633" lon="7.882288">
        <ele>2039.17383</ele>
        <time>2024-08-08T13:43:42.000Z</time>
      </trkpt>
      <trkpt lat="45.599613" lon="7.882297">
        <ele>2039.21899</ele>
        <time>2024-08-08T13:43:45.000Z</time>
      </trkpt>
      <trkpt lat="45.599593" lon="7.882305">
        <ele>2039.23901</ele>
        <time>2024-08-08T13:43:48.000Z</time>
      </trkpt>
      <trkpt lat="45.59961" lon="7.882295">
        <ele>2039.27893</ele>
        <time>2024-08-08T13:43:51.000Z</time>
      </trkpt>
      <trkpt lat="45.599592" lon="7.882295">
        <ele>2039.20898</ele>
        <time>2024-08-08T13:43:56.000Z</time>
      </trkpt>
      <trkpt lat="45.599573" lon="7.882273">
        <ele>2038.90894</ele>
        <time>2024-08-08T13:44:01.000Z</time>
      </trkpt>
      <trkpt lat="45.599547" lon="7.882257">
        <ele>2038.46411</ele>
        <time>2024-08-08T13:44:05.000Z</time>
      </trkpt>
      <trkpt lat="45.59952" lon="7.882257">
        <ele>2037.95898</ele>
        <time>2024-08-08T13:44:07.000Z</time>
      </trkpt>
      <trkpt lat="45.599502" lon="7.882268">
        <ele>2037.27405</ele>
        <time>2024-08-08T13:44:12.000Z</time>
      </trkpt>
      <trkpt lat="45.599477" lon="7.882277">
        <ele>2036.46912</ele>
        <time>2024-08-08T13:44:15.000Z</time>
      </trkpt>
      <trkpt lat="45.599458" lon="7.882278">
        <ele>2035.59924</ele>
        <time>2024-08-08T13:44:17.000Z</time>
      </trkpt>
      <trkpt lat="45.599438" lon="7.882267">
        <ele>2034.70923</ele>
        <time>2024-08-08T13:44:19.000Z</time>
      </trkpt>
      <trkpt lat="45.59942" lon="7.882283">
        <ele>2033.79919</ele>
        <time>2024-08-08T13:44:21.000Z</time>
      </trkpt>
      <trkpt lat="45.599425" lon="7.88231">
        <ele>2032.86426</ele>
        <time>2024-08-08T13:44:23.000Z</time>
      </trkpt>
      <trkpt lat="45.599435" lon="7.882347">
        <ele>2031.87927</ele>
        <time>2024-08-08T13:44:26.000Z</time>
      </trkpt>
      <trkpt lat="45.59943" lon="7.882372">
        <ele>2030.80933</ele>
        <time>2024-08-08T13:44:31.000Z</time>
      </trkpt>
      <trkpt lat="45.599412" lon="7.882375">
        <ele>2029.72437</ele>
        <time>2024-08-08T13:44:34.000Z</time>
      </trkpt>
      <trkpt lat="45.599383" lon="7.88239">
        <ele>2028.67944</ele>
        <time>2024-08-08T13:44:37.000Z</time>
      </trkpt>
      <trkpt lat="45.599363" lon="7.88239">
        <ele>2027.63965</ele>
        <time>2024-08-08T13:44:39.000Z</time>
      </trkpt>
      <trkpt lat="45.599345" lon="7.882373">
        <ele>2026.66956</ele>
        <time>2024-08-08T13:44:42.000Z</time>
      </trkpt>
      <trkpt lat="45.599327" lon="7.882367">
        <ele>2025.72461</ele>
        <time>2024-08-08T13:44:45.000Z</time>
      </trkpt>
      <trkpt lat="45.599307" lon="7.88237">
        <ele>2024.75452</ele>
        <time>2024-08-08T13:44:48.000Z</time>
      </trkpt>
      <trkpt lat="45.599282" lon="7.882383">
        <ele>2023.77954</ele>
        <time>2024-08-08T13:44:50.000Z</time>
      </trkpt>
      <trkpt lat="45.59926" lon="7.882383">
        <ele>2022.76953</ele>
        <time>2024-08-08T13:44:54.000Z</time>
      </trkpt>
      <trkpt lat="45.599238" lon="7.882383">
        <ele>2021.83948</ele>
        <time>2024-08-08T13:44:56.000Z</time>
      </trkpt>
      <trkpt lat="45.599213" lon="7.882382">
        <ele>2021.04456</ele>
        <time>2024-08-08T13:44:58.000Z</time>
      </trkpt>
      <trkpt lat="45.599193" lon="7.882402">
        <ele>2020.27466</ele>
        <time>2024-08-08T13:45:01.000Z</time>
      </trkpt>
      <trkpt lat="45.599175" lon="7.882417">
        <ele>2019.49963</ele>
        <time>2024-08-08T13:45:03.000Z</time>
      </trkpt>
      <trkpt lat="45.599153" lon="7.88243">
        <ele>2018.8197</ele>
        <time>2024-08-08T13:45:05.000Z</time>
      </trkpt>
      <trkpt lat="45.599132" lon="7.882435">
        <ele>2018.16467</ele>
        <time>2024-08-08T13:45:07.000Z</time>
      </trkpt>
      <trkpt lat="45.599115" lon="7.882425">
        <ele>2017.51978</ele>
        <time>2024-08-08T13:45:09.000Z</time>
      </trkpt>
      <trkpt lat="45.599095" lon="7.882428">
        <ele>2016.88965</ele>
        <time>2024-08-08T13:45:12.000Z</time>
      </trkpt>
      <trkpt lat="45.599077" lon="7.882437">
        <ele>2016.18481</ele>
        <time>2024-08-08T13:45:21.000Z</time>
      </trkpt>
      <trkpt lat="45.59906" lon="7.882452">
        <ele>2015.49475</ele>
        <time>2024-08-08T13:45:24.000Z</time>
      </trkpt>
      <trkpt lat="45.599038" lon="7.88245">
        <ele>2014.83472</ele>
        <time>2024-08-08T13:45:26.000Z</time>
      </trkpt>
      <trkpt lat="45.599017" lon="7.882457">
        <ele>2014.25464</ele>
        <time>2024-08-08T13:45:28.000Z</time>
      </trkpt>
      <trkpt lat="45.598997" lon="7.882452">
        <ele>2013.69983</ele>
        <time>2024-08-08T13:45:30.000Z</time>
      </trkpt>
      <trkpt lat="45.598987" lon="7.882485">
        <ele>2013.0697</ele>
        <time>2024-08-08T13:45:33.000Z</time>
      </trkpt>
      <trkpt lat="45.59898" lon="7.882512">
        <ele>2012.42969</ele>
        <time>2024-08-08T13:45:35.000Z</time>
      </trkpt>
      <trkpt lat="45.598993" lon="7.882545">
        <ele>2011.53479</ele>
        <time>2024-08-08T13:45:47.000Z</time>
      </trkpt>
      <trkpt lat="45.598983" lon="7.882573">
        <ele>2010.52478</ele>
        <time>2024-08-08T13:45:52.000Z</time>
      </trkpt>
      <trkpt lat="45.598972" lon="7.882593">
        <ele>2009.44983</ele>
        <time>2024-08-08T13:45:57.000Z</time>
      </trkpt>
      <trkpt lat="45.598962" lon="7.882625">
        <ele>2008.30469</ele>
        <time>2024-08-08T13:46:01.000Z</time>
      </trkpt>
      <trkpt lat="45.598967" lon="7.882655">
        <ele>2007.1897</ele>
        <time>2024-08-08T13:46:03.000Z</time>
      </trkpt>
      <trkpt lat="45.598962" lon="7.882683">
        <ele>2006.07971</ele>
        <time>2024-08-08T13:46:05.000Z</time>
      </trkpt>
      <trkpt lat="45.59896" lon="7.882715">
        <ele>2004.94958</ele>
        <time>2024-08-08T13:46:09.000Z</time>
      </trkpt>
      <trkpt lat="45.598947" lon="7.882735">
        <ele>2003.8645</ele>
        <time>2024-08-08T13:46:12.000Z</time>
      </trkpt>
      <trkpt lat="45.598932" lon="7.882757">
        <ele>2002.79956</ele>
        <time>2024-08-08T13:46:15.000Z</time>
      </trkpt>
      <trkpt lat="45.598933" lon="7.882783">
        <ele>2001.7395</ele>
        <time>2024-08-08T13:46:19.000Z</time>
      </trkpt>
      <trkpt lat="45.598915" lon="7.882777">
        <ele>2000.66956</ele>
        <time>2024-08-08T13:46:26.000Z</time>
      </trkpt>
      <trkpt lat="45.598893" lon="7.88277">
        <ele>1999.60938</ele>
        <time>2024-08-08T13:46:30.000Z</time>
      </trkpt>
      <trkpt lat="45.598868" lon="7.882778">
        <ele>1998.53442</ele>
        <time>2024-08-08T13:46:34.000Z</time>
      </trkpt>
      <trkpt lat="45.59885" lon="7.882798">
        <ele>1997.53931</ele>
        <time>2024-08-08T13:46:37.000Z</time>
      </trkpt>
      <trkpt lat="45.598832" lon="7.882793">
        <ele>1996.52417</ele>
        <time>2024-08-08T13:46:40.000Z</time>
      </trkpt>
      <trkpt lat="45.598808" lon="7.88279">
        <ele>1995.45923</ele>
        <time>2024-08-08T13:46:43.000Z</time>
      </trkpt>
      <trkpt lat="45.598792" lon="7.882778">
        <ele>1994.35425</ele>
        <time>2024-08-08T13:46:45.000Z</time>
      </trkpt>
      <trkpt lat="45.59878" lon="7.882755">
        <ele>1993.22925</ele>
        <time>2024-08-08T13:46:48.000Z</time>
      </trkpt>
      <trkpt lat="45.598762" lon="7.882743">
        <ele>1992.10938</ele>
        <time>2024-08-08T13:46:50.000Z</time>
      </trkpt>
      <trkpt lat="45.598738" lon="7.88273">
        <ele>1990.98926</ele>
        <time>2024-08-08T13:46:53.000Z</time>
      </trkpt>
      <trkpt lat="45.598717" lon="7.882712">
        <ele>1990.04419</ele>
        <time>2024-08-08T13:46:56.000Z</time>
      </trkpt>
      <trkpt lat="45.598698" lon="7.882703">
        <ele>1989.10913</ele>
        <time>2024-08-08T13:47:00.000Z</time>
      </trkpt>
      <trkpt lat="45.598678" lon="7.882698">
        <ele>1988.24927</ele>
        <time>2024-08-08T13:47:02.000Z</time>
      </trkpt>
      <trkpt lat="45.59866" lon="7.8827">
        <ele>1987.42419</ele>
        <time>2024-08-08T13:47:05.000Z</time>
      </trkpt>
      <trkpt lat="45.598638" lon="7.882707">
        <ele>1986.58435</ele>
        <time>2024-08-08T13:47:08.000Z</time>
      </trkpt>
      <trkpt lat="45.598632" lon="7.882733">
        <ele>1985.70435</ele>
        <time>2024-08-08T13:47:12.000Z</time>
      </trkpt>
      <trkpt lat="45.598615" lon="7.882752">
        <ele>1984.79431</ele>
        <time>2024-08-08T13:47:15.000Z</time>
      </trkpt>
      <trkpt lat="45.59859" lon="7.882752">
        <ele>1983.83948</ele>
        <time>2024-08-08T13:47:19.000Z</time>
      </trkpt>
      <trkpt lat="45.598565" lon="7.882757">
        <ele>1982.89429</ele>
        <time>2024-08-08T13:47:22.000Z</time>
      </trkpt>
      <trkpt lat="45.598547" lon="7.882753">
        <ele>1982.0144</ele>
        <time>2024-08-08T13:47:24.000Z</time>
      </trkpt>
      <trkpt lat="45.598528" lon="7.882762">
        <ele>1981.16931</ele>
        <time>2024-08-08T13:47:26.000Z</time>
      </trkpt>
      <trkpt lat="45.598508" lon="7.882765">
        <ele>1980.30933</ele>
        <time>2024-08-08T13:47:28.000Z</time>
      </trkpt>
      <trkpt lat="45.598488" lon="7.88277">
        <ele>1979.44946</ele>
        <time>2024-08-08T13:47:30.000Z</time>
      </trkpt>
      <trkpt lat="45.598467" lon="7.882753">
        <ele>1978.59937</ele>
        <time>2024-08-08T13:47:34.000Z</time>
      </trkpt>
      <trkpt lat="45.598447" lon="7.88274">
        <ele>1977.81445</ele>
        <time>2024-08-08T13:47:37.000Z</time>
      </trkpt>
      <trkpt lat="45.598427" lon="7.882752">
        <ele>1977.07446</ele>
        <time>2024-08-08T13:47:39.000Z</time>
      </trkpt>
      <trkpt lat="45.59841" lon="7.882762">
        <ele>1976.33923</ele>
        <time>2024-08-08T13:47:41.000Z</time>
      </trkpt>
      <trkpt lat="45.598387" lon="7.882765">
        <ele>1975.62915</ele>
        <time>2024-08-08T13:47:44.000Z</time>
      </trkpt>
      <trkpt lat="45.598368" lon="7.88277">
        <ele>1974.99902</ele>
        <time>2024-08-08T13:47:47.000Z</time>
      </trkpt>
      <trkpt lat="45.598345" lon="7.882755">
        <ele>1974.41919</ele>
        <time>2024-08-08T13:47:49.000Z</time>
      </trkpt>
      <trkpt lat="45.598323" lon="7.882735">
        <ele>1973.85913</ele>
        <time>2024-08-08T13:47:51.000Z</time>
      </trkpt>
      <trkpt lat="45.598305" lon="7.882737">
        <ele>1973.36914</ele>
        <time>2024-08-08T13:47:57.000Z</time>
      </trkpt>
      <trkpt lat="45.59828" lon="7.882733">
        <ele>1972.85913</ele>
        <time>2024-08-08T13:48:00.000Z</time>
      </trkpt>
      <trkpt lat="45.598255" lon="7.882713">
        <ele>1972.38416</ele>
        <time>2024-08-08T13:48:02.000Z</time>
      </trkpt>
      <trkpt lat="45.598238" lon="7.882703">
        <ele>1971.96411</ele>
        <time>2024-08-08T13:48:03.000Z</time>
      </trkpt>
      <trkpt lat="45.598202" lon="7.882673">
        <ele>1971.63416</ele>
        <time>2024-08-08T13:48:05.000Z</time>
      </trkpt>
      <trkpt lat="45.598193" lon="7.88264">
        <ele>1971.36401</ele>
        <time>2024-08-08T13:48:07.000Z</time>
      </trkpt>
      <trkpt lat="45.598183" lon="7.882615">
        <ele>1971.1189</ele>
        <time>2024-08-08T13:48:09.000Z</time>
      </trkpt>
      <trkpt lat="45.598163" lon="7.882605">
        <ele>1970.76892</ele>
        <time>2024-08-08T13:48:15.000Z</time>
      </trkpt>
      <trkpt lat="45.59814" lon="7.88261">
        <ele>1970.34888</ele>
        <time>2024-08-08T13:48:18.000Z</time>
      </trkpt>
      <trkpt lat="45.598115" lon="7.882608">
        <ele>1969.84399</ele>
        <time>2024-08-08T13:48:21.000Z</time>
      </trkpt>
      <trkpt lat="45.598093" lon="7.882603">
        <ele>1969.28906</ele>
        <time>2024-08-08T13:48:25.000Z</time>
      </trkpt>
      <trkpt lat="45.598072" lon="7.88259">
        <ele>1968.74414</ele>
        <time>2024-08-08T13:48:27.000Z</time>
      </trkpt>
      <trkpt lat="45.598053" lon="7.882597">
        <ele>1968.21423</ele>
        <time>2024-08-08T13:48:29.000Z</time>
      </trkpt>
      <trkpt lat="45.598035" lon="7.88258">
        <ele>1967.63416</ele>
        <time>2024-08-08T13:48:33.000Z</time>
      </trkpt>
      <trkpt lat="45.598015" lon="7.882567">
        <ele>1967.07422</ele>
        <time>2024-08-08T13:48:35.000Z</time>
      </trkpt>
      <trkpt lat="45.597995" lon="7.882555">
        <ele>1966.52417</ele>
        <time>2024-08-08T13:48:37.000Z</time>
      </trkpt>
      <trkpt lat="45.597978" lon="7.882535">
        <ele>1965.95935</ele>
        <time>2024-08-08T13:48:40.000Z</time>
      </trkpt>
      <trkpt lat="45.597958" lon="7.882525">
        <ele>1965.31958</ele>
        <time>2024-08-08T13:48:43.000Z</time>
      </trkpt>
      <trkpt lat="45.597942" lon="7.88254">
        <ele>1964.57446</ele>
        <time>2024-08-08T13:48:46.000Z</time>
      </trkpt>
      <trkpt lat="45.597922" lon="7.882542">
        <ele>1963.78943</ele>
        <time>2024-08-08T13:48:48.000Z</time>
      </trkpt>
      <trkpt lat="45.597898" lon="7.882548">
        <ele>1962.92944</ele>
        <time>2024-08-08T13:48:52.000Z</time>
      </trkpt>
      <trkpt lat="45.597872" lon="7.882552">
        <ele>1962.09448</ele>
        <time>2024-08-08T13:48:54.000Z</time>
      </trkpt>
      <trkpt lat="45.597848" lon="7.882548">
        <ele>1961.27966</ele>
        <time>2024-08-08T13:48:56.000Z</time>
      </trkpt>
      <trkpt lat="45.597828" lon="7.882537">
        <ele>1960.4397</ele>
        <time>2024-08-08T13:48:58.000Z</time>
      </trkpt>
      <trkpt lat="45.597805" lon="7.882532">
        <ele>1959.52954</ele>
        <time>2024-08-08T13:49:00.000Z</time>
      </trkpt>
      <trkpt lat="45.597785" lon="7.882518">
        <ele>1958.57458</ele>
        <time>2024-08-08T13:49:02.000Z</time>
      </trkpt>
      <trkpt lat="45.597765" lon="7.882525">
        <ele>1957.63477</ele>
        <time>2024-08-08T13:49:14.000Z</time>
      </trkpt>
      <trkpt lat="45.597748" lon="7.882513">
        <ele>1956.82983</ele>
        <time>2024-08-08T13:49:15.000Z</time>
      </trkpt>
      <trkpt lat="45.597722" lon="7.882497">
        <ele>1956.10999</ele>
        <time>2024-08-08T13:49:17.000Z</time>
      </trkpt>
      <trkpt lat="45.597702" lon="7.882473">
        <ele>1955.52478</ele>
        <time>2024-08-08T13:49:19.000Z</time>
      </trkpt>
      <trkpt lat="45.597677" lon="7.882453">
        <ele>1955.04468</ele>
        <time>2024-08-08T13:49:21.000Z</time>
      </trkpt>
      <trkpt lat="45.597663" lon="7.88243">
        <ele>1954.5896</ele>
        <time>2024-08-08T13:49:22.000Z</time>
      </trkpt>
      <trkpt lat="45.597645" lon="7.882412">
        <ele>1954.11951</ele>
        <time>2024-08-08T13:49:24.000Z</time>
      </trkpt>
      <trkpt lat="45.597622" lon="7.882415">
        <ele>1953.60962</ele>
        <time>2024-08-08T13:49:27.000Z</time>
      </trkpt>
      <trkpt lat="45.597598" lon="7.882395">
        <ele>1953.09448</ele>
        <time>2024-08-08T13:49:30.000Z</time>
      </trkpt>
      <trkpt lat="45.597582" lon="7.882377">
        <ele>1952.62964</ele>
        <time>2024-08-08T13:49:32.000Z</time>
      </trkpt>
      <trkpt lat="45.597563" lon="7.882372">
        <ele>1952.14966</ele>
        <time>2024-08-08T13:49:35.000Z</time>
      </trkpt>
      <trkpt lat="45.597545" lon="7.88237">
        <ele>1951.69958</ele>
        <time>2024-08-08T13:49:37.000Z</time>
      </trkpt>
      <trkpt lat="45.597515" lon="7.882373">
        <ele>1951.27966</ele>
        <time>2024-08-08T13:49:41.000Z</time>
      </trkpt>
      <trkpt lat="45.597495" lon="7.882383">
        <ele>1950.89966</ele>
        <time>2024-08-08T13:49:45.000Z</time>
      </trkpt>
      <trkpt lat="45.597468" lon="7.882372">
        <ele>1950.57458</ele>
        <time>2024-08-08T13:49:49.000Z</time>
      </trkpt>
      <trkpt lat="45.597445" lon="7.882383">
        <ele>1950.20447</ele>
        <time>2024-08-08T13:49:51.000Z</time>
      </trkpt>
      <trkpt lat="45.597422" lon="7.882363">
        <ele>1949.80444</ele>
        <time>2024-08-08T13:49:53.000Z</time>
      </trkpt>
      <trkpt lat="45.597405" lon="7.882353">
        <ele>1949.4397</ele>
        <time>2024-08-08T13:49:56.000Z</time>
      </trkpt>
      <trkpt lat="45.59739" lon="7.88233">
        <ele>1949.10474</ele>
        <time>2024-08-08T13:49:58.000Z</time>
      </trkpt>
      <trkpt lat="45.597383" lon="7.882305">
        <ele>1948.8147</ele>
        <time>2024-08-08T13:50:00.000Z</time>
      </trkpt>
      <trkpt lat="45.597375" lon="7.882268">
        <ele>1948.51465</ele>
        <time>2024-08-08T13:50:02.000Z</time>
      </trkpt>
      <trkpt lat="45.597365" lon="7.882238">
        <ele>1948.19458</ele>
        <time>2024-08-08T13:50:04.000Z</time>
      </trkpt>
      <trkpt lat="45.59735" lon="7.882222">
        <ele>1947.79456</ele>
        <time>2024-08-08T13:50:07.000Z</time>
      </trkpt>
      <trkpt lat="45.597343" lon="7.882187">
        <ele>1947.33459</ele>
        <time>2024-08-08T13:50:10.000Z</time>
      </trkpt>
      <trkpt lat="45.597333" lon="7.882158">
        <ele>1946.82947</ele>
        <time>2024-08-08T13:50:12.000Z</time>
      </trkpt>
      <trkpt lat="45.597322" lon="7.882122">
        <ele>1946.32947</ele>
        <time>2024-08-08T13:50:15.000Z</time>
      </trkpt>
      <trkpt lat="45.597307" lon="7.882098">
        <ele>1945.84448</ele>
        <time>2024-08-08T13:50:17.000Z</time>
      </trkpt>
      <trkpt lat="45.597288" lon="7.882095">
        <ele>1945.39966</ele>
        <time>2024-08-08T13:50:21.000Z</time>
      </trkpt>
      <trkpt lat="45.597268" lon="7.882083">
        <ele>1944.99451</ele>
        <time>2024-08-08T13:50:26.000Z</time>
      </trkpt>
      <trkpt lat="45.597255" lon="7.882057">
        <ele>1944.58948</ele>
        <time>2024-08-08T13:50:29.000Z</time>
      </trkpt>
      <trkpt lat="45.597238" lon="7.882033">
        <ele>1944.2395</ele>
        <time>2024-08-08T13:50:31.000Z</time>
      </trkpt>
      <trkpt lat="45.597217" lon="7.882023">
        <ele>1943.89941</ele>
        <time>2024-08-08T13:50:34.000Z</time>
      </trkpt>
      <trkpt lat="45.597203" lon="7.882003">
        <ele>1943.60449</ele>
        <time>2024-08-08T13:50:36.000Z</time>
      </trkpt>
      <trkpt lat="45.59719" lon="7.881978">
        <ele>1943.31958</ele>
        <time>2024-08-08T13:50:38.000Z</time>
      </trkpt>
      <trkpt lat="45.597178" lon="7.881945">
        <ele>1943.06958</ele>
        <time>2024-08-08T13:50:40.000Z</time>
      </trkpt>
      <trkpt lat="45.597163" lon="7.881907">
        <ele>1942.84448</ele>
        <time>2024-08-08T13:50:43.000Z</time>
      </trkpt>
      <trkpt lat="45.597145" lon="7.881878">
        <ele>1942.56958</ele>
        <time>2024-08-08T13:50:46.000Z</time>
      </trkpt>
      <trkpt lat="45.597135" lon="7.881855">
        <ele>1942.30933</ele>
        <time>2024-08-08T13:50:47.000Z</time>
      </trkpt>
      <trkpt lat="45.597122" lon="7.881835">
        <ele>1942.03442</ele>
        <time>2024-08-08T13:50:48.000Z</time>
      </trkpt>
      <trkpt lat="45.597108" lon="7.881813">
        <ele>1941.71936</ele>
        <time>2024-08-08T13:50:50.000Z</time>
      </trkpt>
      <trkpt lat="45.597092" lon="7.881795">
        <ele>1941.4342</ele>
        <time>2024-08-08T13:50:52.000Z</time>
      </trkpt>
      <trkpt lat="45.597075" lon="7.881777">
        <ele>1941.17419</ele>
        <time>2024-08-08T13:50:53.000Z</time>
      </trkpt>
      <trkpt lat="45.597053" lon="7.881735">
        <ele>1940.98926</ele>
        <time>2024-08-08T13:50:55.000Z</time>
      </trkpt>
      <trkpt lat="45.597033" lon="7.881708">
        <ele>1940.82422</ele>
        <time>2024-08-08T13:50:57.000Z</time>
      </trkpt>
      <trkpt lat="45.597023" lon="7.881687">
        <ele>1940.67419</ele>
        <time>2024-08-08T13:50:59.000Z</time>
      </trkpt>
      <trkpt lat="45.597035" lon="7.881658">
        <ele>1940.61914</ele>
        <time>2024-08-08T13:51:02.000Z</time>
      </trkpt>
      <trkpt lat="45.597022" lon="7.881635">
        <ele>1940.59924</ele>
        <time>2024-08-08T13:51:05.000Z</time>
      </trkpt>
      <trkpt lat="45.597015" lon="7.881597">
        <ele>1940.66431</ele>
        <time>2024-08-08T13:51:08.000Z</time>
      </trkpt>
      <trkpt lat="45.597008" lon="7.881568">
        <ele>1940.66431</ele>
        <time>2024-08-08T13:51:11.000Z</time>
      </trkpt>
      <trkpt lat="45.59701" lon="7.881535">
        <ele>1940.64429</ele>
        <time>2024-08-08T13:51:15.000Z</time>
      </trkpt>
      <trkpt lat="45.597003" lon="7.881502">
        <ele>1940.58435</ele>
        <time>2024-08-08T13:51:16.000Z</time>
      </trkpt>
      <trkpt lat="45.596987" lon="7.88146">
        <ele>1940.54431</ele>
        <time>2024-08-08T13:51:18.000Z</time>
      </trkpt>
      <trkpt lat="45.596983" lon="7.88143">
        <ele>1940.50916</ele>
        <time>2024-08-08T13:51:20.000Z</time>
      </trkpt>
      <trkpt lat="45.596978" lon="7.881398">
        <ele>1940.46423</ele>
        <time>2024-08-08T13:51:23.000Z</time>
      </trkpt>
      <trkpt lat="45.596962" lon="7.881362">
        <ele>1940.43921</ele>
        <time>2024-08-08T13:51:26.000Z</time>
      </trkpt>
      <trkpt lat="45.596953" lon="7.881335">
        <ele>1940.44434</ele>
        <time>2024-08-08T13:51:28.000Z</time>
      </trkpt>
      <trkpt lat="45.596957" lon="7.881303">
        <ele>1940.49927</ele>
        <time>2024-08-08T13:51:30.000Z</time>
      </trkpt>
      <trkpt lat="45.596957" lon="7.88126">
        <ele>1940.5094</ele>
        <time>2024-08-08T13:51:32.000Z</time>
      </trkpt>
      <trkpt lat="45.596942" lon="7.88124">
        <ele>1940.47437</ele>
        <time>2024-08-08T13:51:34.000Z</time>
      </trkpt>
      <trkpt lat="45.596935" lon="7.88121">
        <ele>1940.3894</ele>
        <time>2024-08-08T13:51:37.000Z</time>
      </trkpt>
      <trkpt lat="45.596932" lon="7.881182">
        <ele>1940.31445</ele>
        <time>2024-08-08T13:51:39.000Z</time>
      </trkpt>
      <trkpt lat="45.59693" lon="7.881155">
        <ele>1940.2395</ele>
        <time>2024-08-08T13:51:40.000Z</time>
      </trkpt>
      <trkpt lat="45.59692" lon="7.881117">
        <ele>1940.14429</ele>
        <time>2024-08-08T13:51:42.000Z</time>
      </trkpt>
      <trkpt lat="45.596913" lon="7.88109">
        <ele>1940.00452</ele>
        <time>2024-08-08T13:51:44.000Z</time>
      </trkpt>
      <trkpt lat="45.59692" lon="7.881053">
        <ele>1939.87952</ele>
        <time>2024-08-08T13:51:47.000Z</time>
      </trkpt>
      <trkpt lat="45.596932" lon="7.881023">
        <ele>1939.66467</ele>
        <time>2024-08-08T13:51:49.000Z</time>
      </trkpt>
      <trkpt lat="45.596947" lon="7.88099">
        <ele>1939.42944</ele>
        <time>2024-08-08T13:51:51.000Z</time>
      </trkpt>
      <trkpt lat="45.596945" lon="7.88096">
        <ele>1939.19434</ele>
        <time>2024-08-08T13:51:54.000Z</time>
      </trkpt>
      <trkpt lat="45.596932" lon="7.880933">
        <ele>1938.97949</ele>
        <time>2024-08-08T13:51:57.000Z</time>
      </trkpt>
      <trkpt lat="45.596912" lon="7.880912">
        <ele>1938.73438</ele>
        <time>2024-08-08T13:52:00.000Z</time>
      </trkpt>
      <trkpt lat="45.596897" lon="7.880887">
        <ele>1938.49438</ele>
        <time>2024-08-08T13:52:02.000Z</time>
      </trkpt>
      <trkpt lat="45.596883" lon="7.880862">
        <ele>1938.22437</ele>
        <time>2024-08-08T13:52:04.000Z</time>
      </trkpt>
      <trkpt lat="45.596862" lon="7.88084">
        <ele>1937.94458</ele>
        <time>2024-08-08T13:52:07.000Z</time>
      </trkpt>
      <trkpt lat="45.596852" lon="7.880815">
        <ele>1937.61951</ele>
        <time>2024-08-08T13:52:09.000Z</time>
      </trkpt>
      <trkpt lat="45.596828" lon="7.880802">
        <ele>1937.2395</ele>
        <time>2024-08-08T13:52:11.000Z</time>
      </trkpt>
      <trkpt lat="45.596808" lon="7.880788">
        <ele>1936.83948</ele>
        <time>2024-08-08T13:52:14.000Z</time>
      </trkpt>
      <trkpt lat="45.59679" lon="7.880783">
        <ele>1936.42444</ele>
        <time>2024-08-08T13:52:26.000Z</time>
      </trkpt>
      <trkpt lat="45.596767" lon="7.880762">
        <ele>1936.04431</ele>
        <time>2024-08-08T13:52:28.000Z</time>
      </trkpt>
      <trkpt lat="45.596748" lon="7.880742">
        <ele>1935.6344</ele>
        <time>2024-08-08T13:52:31.000Z</time>
      </trkpt>
      <trkpt lat="45.59673" lon="7.880745">
        <ele>1935.09937</ele>
        <time>2024-08-08T13:52:34.000Z</time>
      </trkpt>
      <trkpt lat="45.596712" lon="7.880753">
        <ele>1934.41443</ele>
        <time>2024-08-08T13:52:37.000Z</time>
      </trkpt>
      <trkpt lat="45.596693" lon="7.880757">
        <ele>1933.6394</ele>
        <time>2024-08-08T13:52:41.000Z</time>
      </trkpt>
      <trkpt lat="45.596685" lon="7.880728">
        <ele>1932.87463</ele>
        <time>2024-08-08T13:52:45.000Z</time>
      </trkpt>
      <trkpt lat="45.596673" lon="7.880707">
        <ele>1932.11951</ele>
        <time>2024-08-08T13:52:48.000Z</time>
      </trkpt>
      <trkpt lat="45.596653" lon="7.880695">
        <ele>1931.35474</ele>
        <time>2024-08-08T13:52:50.000Z</time>
      </trkpt>
      <trkpt lat="45.59663" lon="7.880675">
        <ele>1930.50464</ele>
        <time>2024-08-08T13:52:59.000Z</time>
      </trkpt>
      <trkpt lat="45.596618" lon="7.880655">
        <ele>1929.67969</ele>
        <time>2024-08-08T13:53:01.000Z</time>
      </trkpt>
      <trkpt lat="45.596613" lon="7.880627">
        <ele>1928.8197</ele>
        <time>2024-08-08T13:53:04.000Z</time>
      </trkpt>
      <trkpt lat="45.59661" lon="7.8806">
        <ele>1927.94958</ele>
        <time>2024-08-08T13:53:06.000Z</time>
      </trkpt>
      <trkpt lat="45.596597" lon="7.88058">
        <ele>1927.0896</ele>
        <time>2024-08-08T13:53:08.000Z</time>
      </trkpt>
      <trkpt lat="45.596572" lon="7.880577">
        <ele>1926.14966</ele>
        <time>2024-08-08T13:53:12.000Z</time>
      </trkpt>
      <trkpt lat="45.596552" lon="7.880578">
        <ele>1925.16956</ele>
        <time>2024-08-08T13:53:15.000Z</time>
      </trkpt>
      <trkpt lat="45.596535" lon="7.880592">
        <ele>1924.14941</ele>
        <time>2024-08-08T13:53:17.000Z</time>
      </trkpt>
      <trkpt lat="45.596518" lon="7.880575">
        <ele>1923.16443</ele>
        <time>2024-08-08T13:53:21.000Z</time>
      </trkpt>
      <trkpt lat="45.5965" lon="7.88058">
        <ele>1922.18945</ele>
        <time>2024-08-08T13:53:24.000Z</time>
      </trkpt>
      <trkpt lat="45.59648" lon="7.880603">
        <ele>1921.15942</ele>
        <time>2024-08-08T13:53:27.000Z</time>
      </trkpt>
      <trkpt lat="45.59646" lon="7.880605">
        <ele>1920.10449</ele>
        <time>2024-08-08T13:53:31.000Z</time>
      </trkpt>
      <trkpt lat="45.596467" lon="7.880573">
        <ele>1919.02441</ele>
        <time>2024-08-08T13:53:34.000Z</time>
      </trkpt>
      <trkpt lat="45.596443" lon="7.88058">
        <ele>1917.83948</ele>
        <time>2024-08-08T13:53:42.000Z</time>
      </trkpt>
      <trkpt lat="45.59642" lon="7.880593">
        <ele>1916.79431</ele>
        <time>2024-08-08T13:53:45.000Z</time>
      </trkpt>
      <trkpt lat="45.596407" lon="7.880623">
        <ele>1915.82446</ele>
        <time>2024-08-08T13:53:48.000Z</time>
      </trkpt>
      <trkpt lat="45.596395" lon="7.880643">
        <ele>1914.90454</ele>
        <time>2024-08-08T13:53:50.000Z</time>
      </trkpt>
      <trkpt lat="45.596378" lon="7.880662">
        <ele>1913.94434</ele>
        <time>2024-08-08T13:53:52.000Z</time>
      </trkpt>
      <trkpt lat="45.59636" lon="7.88068">
        <ele>1912.93433</ele>
        <time>2024-08-08T13:53:56.000Z</time>
      </trkpt>
      <trkpt lat="45.596343" lon="7.880693">
        <ele>1911.87927</ele>
        <time>2024-08-08T13:54:00.000Z</time>
      </trkpt>
      <trkpt lat="45.596328" lon="7.88071">
        <ele>1910.82935</ele>
        <time>2024-08-08T13:54:04.000Z</time>
      </trkpt>
      <trkpt lat="45.5963" lon="7.880718">
        <ele>1909.72437</ele>
        <time>2024-08-08T13:54:07.000Z</time>
      </trkpt>
      <trkpt lat="45.596275" lon="7.8807">
        <ele>1908.56958</ele>
        <time>2024-08-08T13:54:09.000Z</time>
      </trkpt>
      <trkpt lat="45.596263" lon="7.880675">
        <ele>1907.38452</ele>
        <time>2024-08-08T13:54:11.000Z</time>
      </trkpt>
      <trkpt lat="45.596258" lon="7.880635">
        <ele>1906.16956</ele>
        <time>2024-08-08T13:54:13.000Z</time>
      </trkpt>
      <trkpt lat="45.596257" lon="7.880593">
        <ele>1904.97949</ele>
        <time>2024-08-08T13:54:15.000Z</time>
      </trkpt>
      <trkpt lat="45.596267" lon="7.880555">
        <ele>1903.80444</ele>
        <time>2024-08-08T13:54:17.000Z</time>
      </trkpt>
      <trkpt lat="45.596267" lon="7.880525">
        <ele>1902.67456</ele>
        <time>2024-08-08T13:54:19.000Z</time>
      </trkpt>
      <trkpt lat="45.596257" lon="7.880503">
        <ele>1901.54956</ele>
        <time>2024-08-08T13:54:22.000Z</time>
      </trkpt>
      <trkpt lat="45.596247" lon="7.880475">
        <ele>1900.4646</ele>
        <time>2024-08-08T13:54:24.000Z</time>
      </trkpt>
      <trkpt lat="45.596245" lon="7.880433">
        <ele>1899.48474</ele>
        <time>2024-08-08T13:54:26.000Z</time>
      </trkpt>
      <trkpt lat="45.596247" lon="7.880393">
        <ele>1898.61462</ele>
        <time>2024-08-08T13:54:28.000Z</time>
      </trkpt>
      <trkpt lat="45.596255" lon="7.880357">
        <ele>1897.76978</ele>
        <time>2024-08-08T13:54:30.000Z</time>
      </trkpt>
      <trkpt lat="45.596263" lon="7.880325">
        <ele>1897.07971</ele>
        <time>2024-08-08T13:54:34.000Z</time>
      </trkpt>
      <trkpt lat="45.596278" lon="7.880292">
        <ele>1896.43481</ele>
        <time>2024-08-08T13:54:36.000Z</time>
      </trkpt>
      <trkpt lat="45.59629" lon="7.88026">
        <ele>1895.83472</ele>
        <time>2024-08-08T13:54:38.000Z</time>
      </trkpt>
      <trkpt lat="45.5963" lon="7.880223">
        <ele>1895.23962</ele>
        <time>2024-08-08T13:54:40.000Z</time>
      </trkpt>
      <trkpt lat="45.596302" lon="7.880185">
        <ele>1894.61975</ele>
        <time>2024-08-08T13:54:42.000Z</time>
      </trkpt>
      <trkpt lat="45.596313" lon="7.880165">
        <ele>1894.03967</ele>
        <time>2024-08-08T13:54:44.000Z</time>
      </trkpt>
      <trkpt lat="45.596318" lon="7.880138">
        <ele>1893.4447</ele>
        <time>2024-08-08T13:54:46.000Z</time>
      </trkpt>
      <trkpt lat="45.596318" lon="7.880112">
        <ele>1892.88452</ele>
        <time>2024-08-08T13:54:48.000Z</time>
      </trkpt>
      <trkpt lat="45.596315" lon="7.880083">
        <ele>1892.3645</ele>
        <time>2024-08-08T13:54:50.000Z</time>
      </trkpt>
      <trkpt lat="45.596313" lon="7.880057">
        <ele>1891.90942</ele>
        <time>2024-08-08T13:54:52.000Z</time>
      </trkpt>
      <trkpt lat="45.596313" lon="7.880015">
        <ele>1891.52441</ele>
        <time>2024-08-08T13:54:54.000Z</time>
      </trkpt>
      <trkpt lat="45.596318" lon="7.879987">
        <ele>1891.18433</ele>
        <time>2024-08-08T13:54:55.000Z</time>
      </trkpt>
      <trkpt lat="45.59631" lon="7.879942">
        <ele>1890.91443</ele>
        <time>2024-08-08T13:54:57.000Z</time>
      </trkpt>
      <trkpt lat="45.596302" lon="7.879907">
        <ele>1890.72437</ele>
        <time>2024-08-08T13:54:59.000Z</time>
      </trkpt>
      <trkpt lat="45.596298" lon="7.879858">
        <ele>1890.58435</ele>
        <time>2024-08-08T13:55:01.000Z</time>
      </trkpt>
      <trkpt lat="45.596292" lon="7.87983">
        <ele>1890.46423</ele>
        <time>2024-08-08T13:55:03.000Z</time>
      </trkpt>
      <trkpt lat="45.59629" lon="7.879792">
        <ele>1890.32422</ele>
        <time>2024-08-08T13:55:06.000Z</time>
      </trkpt>
      <trkpt lat="45.59629" lon="7.879758">
        <ele>1890.13904</ele>
        <time>2024-08-08T13:55:08.000Z</time>
      </trkpt>
      <trkpt lat="45.596295" lon="7.879723">
        <ele>1889.93909</ele>
        <time>2024-08-08T13:55:10.000Z</time>
      </trkpt>
      <trkpt lat="45.5963" lon="7.879673">
        <ele>1889.73401</ele>
        <time>2024-08-08T13:55:12.000Z</time>
      </trkpt>
      <trkpt lat="45.596307" lon="7.879628">
        <ele>1889.56384</ele>
        <time>2024-08-08T13:55:14.000Z</time>
      </trkpt>
      <trkpt lat="45.59632" lon="7.879582">
        <ele>1889.44885</ele>
        <time>2024-08-08T13:55:16.000Z</time>
      </trkpt>
      <trkpt lat="45.596327" lon="7.879542">
        <ele>1889.38379</ele>
        <time>2024-08-08T13:55:18.000Z</time>
      </trkpt>
      <trkpt lat="45.59633" lon="7.879515">
        <ele>1889.40881</ele>
        <time>2024-08-08T13:55:20.000Z</time>
      </trkpt>
      <trkpt lat="45.59634" lon="7.879477">
        <ele>1889.56873</ele>
        <time>2024-08-08T13:55:23.000Z</time>
      </trkpt>
      <trkpt lat="45.59635" lon="7.87945">
        <ele>1889.78882</ele>
        <time>2024-08-08T13:55:25.000Z</time>
      </trkpt>
      <trkpt lat="45.596362" lon="7.87941">
        <ele>1890.0437</ele>
        <time>2024-08-08T13:55:27.000Z</time>
      </trkpt>
      <trkpt lat="45.596372" lon="7.879375">
        <ele>1890.31873</ele>
        <time>2024-08-08T13:55:29.000Z</time>
      </trkpt>
      <trkpt lat="45.596387" lon="7.879342">
        <ele>1890.59375</ele>
        <time>2024-08-08T13:55:31.000Z</time>
      </trkpt>
      <trkpt lat="45.596392" lon="7.87931">
        <ele>1890.88867</ele>
        <time>2024-08-08T13:55:33.000Z</time>
      </trkpt>
      <trkpt lat="45.596392" lon="7.879265">
        <ele>1891.17871</ele>
        <time>2024-08-08T13:55:36.000Z</time>
      </trkpt>
      <trkpt lat="45.596378" lon="7.879233">
        <ele>1891.47876</ele>
        <time>2024-08-08T13:55:38.000Z</time>
      </trkpt>
      <trkpt lat="45.59637" lon="7.879202">
        <ele>1891.77869</ele>
        <time>2024-08-08T13:55:40.000Z</time>
      </trkpt>
      <trkpt lat="45.596362" lon="7.879175">
        <ele>1892.07385</ele>
        <time>2024-08-08T13:55:42.000Z</time>
      </trkpt>
      <trkpt lat="45.596367" lon="7.879145">
        <ele>1892.35876</ele>
        <time>2024-08-08T13:55:44.000Z</time>
      </trkpt>
      <trkpt lat="45.596367" lon="7.879118">
        <ele>1892.67896</ele>
        <time>2024-08-08T13:55:46.000Z</time>
      </trkpt>
      <trkpt lat="45.59636" lon="7.87908">
        <ele>1893.05896</ele>
        <time>2024-08-08T13:55:48.000Z</time>
      </trkpt>
      <trkpt lat="45.59635" lon="7.87904">
        <ele>1893.56409</ele>
        <time>2024-08-08T13:55:50.000Z</time>
      </trkpt>
      <trkpt lat="45.59634" lon="7.879007">
        <ele>1894.16919</ele>
        <time>2024-08-08T13:55:52.000Z</time>
      </trkpt>
      <trkpt lat="45.596335" lon="7.878982">
        <ele>1894.78418</ele>
        <time>2024-08-08T13:55:53.000Z</time>
      </trkpt>
      <trkpt lat="45.596318" lon="7.878937">
        <ele>1895.46936</ele>
        <time>2024-08-08T13:55:55.000Z</time>
      </trkpt>
      <trkpt lat="45.596305" lon="7.878895">
        <ele>1896.12927</ele>
        <time>2024-08-08T13:55:57.000Z</time>
      </trkpt>
      <trkpt lat="45.596287" lon="7.878857">
        <ele>1896.71936</ele>
        <time>2024-08-08T13:55:59.000Z</time>
      </trkpt>
      <trkpt lat="45.59627" lon="7.87883">
        <ele>1897.22925</ele>
        <time>2024-08-08T13:56:01.000Z</time>
      </trkpt>
      <trkpt lat="45.596268" lon="7.878803">
        <ele>1897.62439</ele>
        <time>2024-08-08T13:56:03.000Z</time>
      </trkpt>
      <trkpt lat="45.59626" lon="7.878765">
        <ele>1897.98926</ele>
        <time>2024-08-08T13:56:06.000Z</time>
      </trkpt>
      <trkpt lat="45.59626" lon="7.878735">
        <ele>1898.32935</ele>
        <time>2024-08-08T13:56:09.000Z</time>
      </trkpt>
      <trkpt lat="45.596282" lon="7.878722">
        <ele>1898.46936</ele>
        <time>2024-08-08T13:56:17.000Z</time>
      </trkpt>
      <trkpt lat="45.596277" lon="7.878693">
        <ele>1898.55933</ele>
        <time>2024-08-08T13:59:00.000Z</time>
      </trkpt>
      <trkpt lat="45.596258" lon="7.878663">
        <ele>1898.59448</ele>
        <time>2024-08-08T13:59:02.000Z</time>
      </trkpt>
      <trkpt lat="45.596243" lon="7.878635">
        <ele>1898.59448</ele>
        <time>2024-08-08T13:59:04.000Z</time>
      </trkpt>
      <trkpt lat="45.596242" lon="7.878608">
        <ele>1898.54956</ele>
        <time>2024-08-08T13:59:07.000Z</time>
      </trkpt>
      <trkpt lat="45.596232" lon="7.878587">
        <ele>1897.86462</ele>
        <time>2024-08-08T14:00:52.000Z</time>
      </trkpt>
      <trkpt lat="45.596227" lon="7.878562">
        <ele>1897.12463</ele>
        <time>2024-08-08T14:00:56.000Z</time>
      </trkpt>
      <trkpt lat="45.596218" lon="7.878533">
        <ele>1896.3396</ele>
        <time>2024-08-08T14:00:58.000Z</time>
      </trkpt>
      <trkpt lat="45.596213" lon="7.878505">
        <ele>1895.51465</ele>
        <time>2024-08-08T14:01:00.000Z</time>
      </trkpt>
      <trkpt lat="45.596205" lon="7.878475">
        <ele>1894.63965</ele>
        <time>2024-08-08T14:01:02.000Z</time>
      </trkpt>
      <trkpt lat="45.596198" lon="7.878448">
        <ele>1893.65955</ele>
        <time>2024-08-08T14:01:04.000Z</time>
      </trkpt>
      <trkpt lat="45.59619" lon="7.878422">
        <ele>1892.56958</ele>
        <time>2024-08-08T14:01:06.000Z</time>
      </trkpt>
      <trkpt lat="45.596178" lon="7.878397">
        <ele>1891.48462</ele>
        <time>2024-08-08T14:01:08.000Z</time>
      </trkpt>
      <trkpt lat="45.596167" lon="7.87837">
        <ele>1890.3645</ele>
        <time>2024-08-08T14:01:10.000Z</time>
      </trkpt>
      <trkpt lat="45.596158" lon="7.878343">
        <ele>1889.24451</ele>
        <time>2024-08-08T14:01:12.000Z</time>
      </trkpt>
      <trkpt lat="45.596155" lon="7.878307">
        <ele>1888.16443</ele>
        <time>2024-08-08T14:01:15.000Z</time>
      </trkpt>
      <trkpt lat="45.596145" lon="7.878267">
        <ele>1887.1394</ele>
        <time>2024-08-08T14:01:18.000Z</time>
      </trkpt>
      <trkpt lat="45.59614" lon="7.878242">
        <ele>1886.14429</ele>
        <time>2024-08-08T14:01:20.000Z</time>
      </trkpt>
      <trkpt lat="45.59614" lon="7.878213">
        <ele>1885.12952</ele>
        <time>2024-08-08T14:01:22.000Z</time>
      </trkpt>
      <trkpt lat="45.59614" lon="7.878187">
        <ele>1884.16443</ele>
        <time>2024-08-08T14:01:24.000Z</time>
      </trkpt>
      <trkpt lat="45.596135" lon="7.878157">
        <ele>1883.42944</ele>
        <time>2024-08-08T14:01:26.000Z</time>
      </trkpt>
      <trkpt lat="45.59613" lon="7.878118">
        <ele>1882.75952</ele>
        <time>2024-08-08T14:01:28.000Z</time>
      </trkpt>
      <trkpt lat="45.596117" lon="7.878085">
        <ele>1882.10962</ele>
        <time>2024-08-08T14:01:30.000Z</time>
      </trkpt>
      <trkpt lat="45.596102" lon="7.878057">
        <ele>1881.46448</ele>
        <time>2024-08-08T14:01:32.000Z</time>
      </trkpt>
      <trkpt lat="45.596087" lon="7.878022">
        <ele>1880.83435</ele>
        <time>2024-08-08T14:01:34.000Z</time>
      </trkpt>
      <trkpt lat="45.596075" lon="7.877992">
        <ele>1880.81421</ele>
        <time>2024-08-08T14:01:36.000Z</time>
      </trkpt>
      <trkpt lat="45.596068" lon="7.877958">
        <ele>1880.7793</ele>
        <time>2024-08-08T14:01:38.000Z</time>
      </trkpt>
      <trkpt lat="45.596065" lon="7.877932">
        <ele>1880.72925</ele>
        <time>2024-08-08T14:01:40.000Z</time>
      </trkpt>
      <trkpt lat="45.596062" lon="7.877905">
        <ele>1880.62427</ele>
        <time>2024-08-08T14:01:42.000Z</time>
      </trkpt>
      <trkpt lat="45.59606" lon="7.877875">
        <ele>1880.51917</ele>
        <time>2024-08-08T14:01:44.000Z</time>
      </trkpt>
      <trkpt lat="45.596058" lon="7.877848">
        <ele>1880.42419</ele>
        <time>2024-08-08T14:01:46.000Z</time>
      </trkpt>
      <trkpt lat="45.596057" lon="7.877812">
        <ele>1880.33923</ele>
        <time>2024-08-08T14:01:48.000Z</time>
      </trkpt>
      <trkpt lat="45.596052" lon="7.87778">
        <ele>1880.23413</ele>
        <time>2024-08-08T14:01:50.000Z</time>
      </trkpt>
      <trkpt lat="45.596043" lon="7.877755">
        <ele>1880.10913</ele>
        <time>2024-08-08T14:01:52.000Z</time>
      </trkpt>
      <trkpt lat="45.596038" lon="7.877717">
        <ele>1879.97913</ele>
        <time>2024-08-08T14:01:55.000Z</time>
      </trkpt>
      <trkpt lat="45.596037" lon="7.877688">
        <ele>1879.8092</ele>
        <time>2024-08-08T14:01:57.000Z</time>
      </trkpt>
      <trkpt lat="45.596032" lon="7.877657">
        <ele>1879.58923</ele>
        <time>2024-08-08T14:01:59.000Z</time>
      </trkpt>
      <trkpt lat="45.59603" lon="7.877628">
        <ele>1879.33435</ele>
        <time>2024-08-08T14:02:01.000Z</time>
      </trkpt>
      <trkpt lat="45.596018" lon="7.8776">
        <ele>1879.08435</ele>
        <time>2024-08-08T14:02:03.000Z</time>
      </trkpt>
      <trkpt lat="45.59601" lon="7.877572">
        <ele>1878.80933</ele>
        <time>2024-08-08T14:02:05.000Z</time>
      </trkpt>
      <trkpt lat="45.596003" lon="7.87754">
        <ele>1878.5144</ele>
        <time>2024-08-08T14:02:07.000Z</time>
      </trkpt>
      <trkpt lat="45.595995" lon="7.877508">
        <ele>1878.22437</ele>
        <time>2024-08-08T14:02:09.000Z</time>
      </trkpt>
      <trkpt lat="45.595985" lon="7.877477">
        <ele>1877.94434</ele>
        <time>2024-08-08T14:02:11.000Z</time>
      </trkpt>
      <trkpt lat="45.595975" lon="7.877452">
        <ele>1877.64941</ele>
        <time>2024-08-08T14:02:13.000Z</time>
      </trkpt>
      <trkpt lat="45.595963" lon="7.877415">
        <ele>1877.37952</ele>
        <time>2024-08-08T14:02:16.000Z</time>
      </trkpt>
      <trkpt lat="45.595963" lon="7.877388">
        <ele>1877.10962</ele>
        <time>2024-08-08T14:02:18.000Z</time>
      </trkpt>
      <trkpt lat="45.595958" lon="7.877357">
        <ele>1876.87952</ele>
        <time>2024-08-08T14:02:20.000Z</time>
      </trkpt>
      <trkpt lat="45.595957" lon="7.877328">
        <ele>1876.67444</ele>
        <time>2024-08-08T14:02:22.000Z</time>
      </trkpt>
      <trkpt lat="45.595948" lon="7.877303">
        <ele>1876.53943</ele>
        <time>2024-08-08T14:02:24.000Z</time>
      </trkpt>
      <trkpt lat="45.595938" lon="7.87728">
        <ele>1876.42444</ele>
        <time>2024-08-08T14:02:26.000Z</time>
      </trkpt>
      <trkpt lat="45.595932" lon="7.877247">
        <ele>1876.30933</ele>
        <time>2024-08-08T14:02:28.000Z</time>
      </trkpt>
      <trkpt lat="45.595928" lon="7.87722">
        <ele>1876.21936</ele>
        <time>2024-08-08T14:02:30.000Z</time>
      </trkpt>
      <trkpt lat="45.59593" lon="7.877192">
        <ele>1876.10938</ele>
        <time>2024-08-08T14:02:32.000Z</time>
      </trkpt>
      <trkpt lat="45.595928" lon="7.877157">
        <ele>1875.94434</ele>
        <time>2024-08-08T14:02:34.000Z</time>
      </trkpt>
      <trkpt lat="45.595928" lon="7.87713">
        <ele>1875.79944</ele>
        <time>2024-08-08T14:02:36.000Z</time>
      </trkpt>
      <trkpt lat="45.595923" lon="7.877102">
        <ele>1875.68945</ele>
        <time>2024-08-08T14:02:38.000Z</time>
      </trkpt>
      <trkpt lat="45.595912" lon="7.87707">
        <ele>1875.56958</ele>
        <time>2024-08-08T14:02:40.000Z</time>
      </trkpt>
      <trkpt lat="45.595898" lon="7.877038">
        <ele>1875.47949</ele>
        <time>2024-08-08T14:02:42.000Z</time>
      </trkpt>
      <trkpt lat="45.59589" lon="7.877008">
        <ele>1875.44434</ele>
        <time>2024-08-08T14:02:44.000Z</time>
      </trkpt>
      <trkpt lat="45.59588" lon="7.876975">
        <ele>1875.42932</ele>
        <time>2024-08-08T14:02:46.000Z</time>
      </trkpt>
      <trkpt lat="45.59587" lon="7.876933">
        <ele>1875.41431</ele>
        <time>2024-08-08T14:02:48.000Z</time>
      </trkpt>
      <trkpt lat="45.595858" lon="7.876902">
        <ele>1875.35425</ele>
        <time>2024-08-08T14:02:50.000Z</time>
      </trkpt>
      <trkpt lat="45.595847" lon="7.876872">
        <ele>1875.2793</ele>
        <time>2024-08-08T14:02:52.000Z</time>
      </trkpt>
      <trkpt lat="45.595838" lon="7.876842">
        <ele>1875.23413</ele>
        <time>2024-08-08T14:02:54.000Z</time>
      </trkpt>
      <trkpt lat="45.595828" lon="7.876812">
        <ele>1875.18921</ele>
        <time>2024-08-08T14:02:56.000Z</time>
      </trkpt>
      <trkpt lat="45.595822" lon="7.876783">
        <ele>1875.13416</ele>
        <time>2024-08-08T14:02:58.000Z</time>
      </trkpt>
      <trkpt lat="45.595818" lon="7.876753">
        <ele>1875.0592</ele>
        <time>2024-08-08T14:03:00.000Z</time>
      </trkpt>
      <trkpt lat="45.595817" lon="7.876717">
        <ele>1874.95923</ele>
        <time>2024-08-08T14:03:02.000Z</time>
      </trkpt>
      <trkpt lat="45.595813" lon="7.87668">
        <ele>1874.81409</ele>
        <time>2024-08-08T14:03:04.000Z</time>
      </trkpt>
      <trkpt lat="45.595803" lon="7.876645">
        <ele>1874.58911</ele>
        <time>2024-08-08T14:03:06.000Z</time>
      </trkpt>
      <trkpt lat="45.5958" lon="7.876612">
        <ele>1874.33423</ele>
        <time>2024-08-08T14:03:08.000Z</time>
      </trkpt>
      <trkpt lat="45.595802" lon="7.876572">
        <ele>1874.00427</ele>
        <time>2024-08-08T14:03:10.000Z</time>
      </trkpt>
      <trkpt lat="45.595797" lon="7.876532">
        <ele>1873.64941</ele>
        <time>2024-08-08T14:03:12.000Z</time>
      </trkpt>
      <trkpt lat="45.595788" lon="7.876503">
        <ele>1873.33948</ele>
        <time>2024-08-08T14:03:14.000Z</time>
      </trkpt>
      <trkpt lat="45.595787" lon="7.87647">
        <ele>1872.99451</ele>
        <time>2024-08-08T14:03:16.000Z</time>
      </trkpt>
      <trkpt lat="45.59578" lon="7.876433">
        <ele>1872.64453</ele>
        <time>2024-08-08T14:03:18.000Z</time>
      </trkpt>
      <trkpt lat="45.595782" lon="7.876398">
        <ele>1872.30933</ele>
        <time>2024-08-08T14:03:20.000Z</time>
      </trkpt>
      <trkpt lat="45.59578" lon="7.87636">
        <ele>1871.99939</ele>
        <time>2024-08-08T14:03:22.000Z</time>
      </trkpt>
      <trkpt lat="45.595772" lon="7.876325">
        <ele>1871.66443</ele>
        <time>2024-08-08T14:03:24.000Z</time>
      </trkpt>
      <trkpt lat="45.595767" lon="7.87629">
        <ele>1871.32458</ele>
        <time>2024-08-08T14:03:26.000Z</time>
      </trkpt>
      <trkpt lat="45.59576" lon="7.876253">
        <ele>1870.99451</ele>
        <time>2024-08-08T14:03:28.000Z</time>
      </trkpt>
      <trkpt lat="45.595757" lon="7.876213">
        <ele>1870.68945</ele>
        <time>2024-08-08T14:03:30.000Z</time>
      </trkpt>
      <trkpt lat="45.59575" lon="7.876177">
        <ele>1870.39453</ele>
        <time>2024-08-08T14:03:32.000Z</time>
      </trkpt>
      <trkpt lat="45.59574" lon="7.876152">
        <ele>1870.05469</ele>
        <time>2024-08-08T14:03:34.000Z</time>
      </trkpt>
      <trkpt lat="45.595727" lon="7.876123">
        <ele>1869.65466</ele>
        <time>2024-08-08T14:03:36.000Z</time>
      </trkpt>
      <trkpt lat="45.595708" lon="7.876097">
        <ele>1869.25464</ele>
        <time>2024-08-08T14:03:38.000Z</time>
      </trkpt>
      <trkpt lat="45.595697" lon="7.876067">
        <ele>1868.85474</ele>
        <time>2024-08-08T14:03:40.000Z</time>
      </trkpt>
      <trkpt lat="45.595692" lon="7.876027">
        <ele>1868.49475</ele>
        <time>2024-08-08T14:03:42.000Z</time>
      </trkpt>
      <trkpt lat="45.595685" lon="7.875995">
        <ele>1868.09985</ele>
        <time>2024-08-08T14:03:44.000Z</time>
      </trkpt>
      <trkpt lat="45.59567" lon="7.875965">
        <ele>1867.70972</ele>
        <time>2024-08-08T14:03:46.000Z</time>
      </trkpt>
      <trkpt lat="45.595662" lon="7.875933">
        <ele>1867.35974</ele>
        <time>2024-08-08T14:03:48.000Z</time>
      </trkpt>
      <trkpt lat="45.595657" lon="7.875898">
        <ele>1867.03967</ele>
        <time>2024-08-08T14:03:50.000Z</time>
      </trkpt>
      <trkpt lat="45.595648" lon="7.875863">
        <ele>1866.75452</ele>
        <time>2024-08-08T14:03:52.000Z</time>
      </trkpt>
      <trkpt lat="45.595638" lon="7.875823">
        <ele>1866.41443</ele>
        <time>2024-08-08T14:03:54.000Z</time>
      </trkpt>
      <trkpt lat="45.595633" lon="7.875798">
        <ele>1866.04944</ele>
        <time>2024-08-08T14:03:55.000Z</time>
      </trkpt>
      <trkpt lat="45.595623" lon="7.875767">
        <ele>1865.62439</ele>
        <time>2024-08-08T14:03:57.000Z</time>
      </trkpt>
      <trkpt lat="45.595618" lon="7.875738">
        <ele>1865.18457</ele>
        <time>2024-08-08T14:03:59.000Z</time>
      </trkpt>
      <trkpt lat="45.595612" lon="7.875703">
        <ele>1864.7395</ele>
        <time>2024-08-08T14:04:01.000Z</time>
      </trkpt>
      <trkpt lat="45.59561" lon="7.875667">
        <ele>1864.29456</ele>
        <time>2024-08-08T14:04:03.000Z</time>
      </trkpt>
      <trkpt lat="45.595615" lon="7.875627">
        <ele>1863.84448</ele>
        <time>2024-08-08T14:04:05.000Z</time>
      </trkpt>
      <trkpt lat="45.595622" lon="7.875593">
        <ele>1863.36462</ele>
        <time>2024-08-08T14:04:07.000Z</time>
      </trkpt>
      <trkpt lat="45.59563" lon="7.875567">
        <ele>1862.90466</ele>
        <time>2024-08-08T14:04:09.000Z</time>
      </trkpt>
      <trkpt lat="45.595635" lon="7.875533">
        <ele>1862.45959</ele>
        <time>2024-08-08T14:04:11.000Z</time>
      </trkpt>
      <trkpt lat="45.595642" lon="7.875498">
        <ele>1862.04944</ele>
        <time>2024-08-08T14:04:13.000Z</time>
      </trkpt>
      <trkpt lat="45.595647" lon="7.875463">
        <ele>1861.66431</ele>
        <time>2024-08-08T14:04:15.000Z</time>
      </trkpt>
      <trkpt lat="45.595655" lon="7.875433">
        <ele>1861.29431</ele>
        <time>2024-08-08T14:04:17.000Z</time>
      </trkpt>
      <trkpt lat="45.595662" lon="7.875397">
        <ele>1860.95935</ele>
        <time>2024-08-08T14:04:19.000Z</time>
      </trkpt>
      <trkpt lat="45.595668" lon="7.875362">
        <ele>1860.59436</ele>
        <time>2024-08-08T14:04:21.000Z</time>
      </trkpt>
      <trkpt lat="45.595672" lon="7.875328">
        <ele>1860.26929</ele>
        <time>2024-08-08T14:04:23.000Z</time>
      </trkpt>
      <trkpt lat="45.595677" lon="7.875293">
        <ele>1859.97437</ele>
        <time>2024-08-08T14:04:25.000Z</time>
      </trkpt>
      <trkpt lat="45.59568" lon="7.875253">
        <ele>1859.64941</ele>
        <time>2024-08-08T14:04:27.000Z</time>
      </trkpt>
      <trkpt lat="45.595682" lon="7.875223">
        <ele>1859.3645</ele>
        <time>2024-08-08T14:04:29.000Z</time>
      </trkpt>
      <trkpt lat="45.595682" lon="7.875188">
        <ele>1859.08459</ele>
        <time>2024-08-08T14:04:31.000Z</time>
      </trkpt>
      <trkpt lat="45.595685" lon="7.875155">
        <ele>1858.85474</ele>
        <time>2024-08-08T14:04:33.000Z</time>
      </trkpt>
      <trkpt lat="45.595687" lon="7.875125">
        <ele>1858.69958</ele>
        <time>2024-08-08T14:04:35.000Z</time>
      </trkpt>
      <trkpt lat="45.595675" lon="7.875095">
        <ele>1858.64453</ele>
        <time>2024-08-08T14:04:37.000Z</time>
      </trkpt>
      <trkpt lat="45.595667" lon="7.875055">
        <ele>1858.6394</ele>
        <time>2024-08-08T14:04:39.000Z</time>
      </trkpt>
      <trkpt lat="45.595657" lon="7.875017">
        <ele>1858.60449</ele>
        <time>2024-08-08T14:04:41.000Z</time>
      </trkpt>
      <trkpt lat="45.595645" lon="7.874982">
        <ele>1858.54456</ele>
        <time>2024-08-08T14:04:43.000Z</time>
      </trkpt>
      <trkpt lat="45.595632" lon="7.874958">
        <ele>1858.46448</ele>
        <time>2024-08-08T14:04:45.000Z</time>
      </trkpt>
      <trkpt lat="45.59562" lon="7.87493">
        <ele>1858.3645</ele>
        <time>2024-08-08T14:04:47.000Z</time>
      </trkpt>
      <trkpt lat="45.59561" lon="7.874898">
        <ele>1858.22437</ele>
        <time>2024-08-08T14:04:49.000Z</time>
      </trkpt>
      <trkpt lat="45.595597" lon="7.874865">
        <ele>1858.05933</ele>
        <time>2024-08-08T14:04:51.000Z</time>
      </trkpt>
      <trkpt lat="45.59559" lon="7.87484">
        <ele>1857.89941</ele>
        <time>2024-08-08T14:04:52.000Z</time>
      </trkpt>
      <trkpt lat="45.595582" lon="7.874793">
        <ele>1857.76953</ele>
        <time>2024-08-08T14:04:54.000Z</time>
      </trkpt>
      <trkpt lat="45.595575" lon="7.87475">
        <ele>1857.58948</ele>
        <time>2024-08-08T14:04:56.000Z</time>
      </trkpt>
      <trkpt lat="45.595565" lon="7.874703">
        <ele>1857.33948</ele>
        <time>2024-08-08T14:04:58.000Z</time>
      </trkpt>
      <trkpt lat="45.595555" lon="7.874658">
        <ele>1857.05957</ele>
        <time>2024-08-08T14:05:00.000Z</time>
      </trkpt>
      <trkpt lat="45.595538" lon="7.874625">
        <ele>1856.73962</ele>
        <time>2024-08-08T14:05:02.000Z</time>
      </trkpt>
      <trkpt lat="45.595525" lon="7.874592">
        <ele>1856.44958</ele>
        <time>2024-08-08T14:05:04.000Z</time>
      </trkpt>
      <trkpt lat="45.59551" lon="7.874548">
        <ele>1856.20447</ele>
        <time>2024-08-08T14:05:06.000Z</time>
      </trkpt>
      <trkpt lat="45.595497" lon="7.87453">
        <ele>1855.93457</ele>
        <time>2024-08-08T14:05:07.000Z</time>
      </trkpt>
      <trkpt lat="45.595483" lon="7.874512">
        <ele>1855.66443</ele>
        <time>2024-08-08T14:05:08.000Z</time>
      </trkpt>
      <trkpt lat="45.59546" lon="7.874477">
        <ele>1855.35449</ele>
        <time>2024-08-08T14:05:10.000Z</time>
      </trkpt>
      <trkpt lat="45.595438" lon="7.874443">
        <ele>1854.96948</ele>
        <time>2024-08-08T14:05:12.000Z</time>
      </trkpt>
      <trkpt lat="45.595432" lon="7.87441">
        <ele>1854.55957</ele>
        <time>2024-08-08T14:05:14.000Z</time>
      </trkpt>
      <trkpt lat="45.595427" lon="7.874378">
        <ele>1854.15955</ele>
        <time>2024-08-08T14:05:16.000Z</time>
      </trkpt>
      <trkpt lat="45.595415" lon="7.874348">
        <ele>1853.76465</ele>
        <time>2024-08-08T14:05:18.000Z</time>
      </trkpt>
      <trkpt lat="45.595403" lon="7.87431">
        <ele>1853.34961</ele>
        <time>2024-08-08T14:05:20.000Z</time>
      </trkpt>
      <trkpt lat="45.595395" lon="7.874272">
        <ele>1852.92969</ele>
        <time>2024-08-08T14:05:22.000Z</time>
      </trkpt>
      <trkpt lat="45.595385" lon="7.874235">
        <ele>1852.54456</ele>
        <time>2024-08-08T14:05:24.000Z</time>
      </trkpt>
      <trkpt lat="45.595375" lon="7.874193">
        <ele>1852.16956</ele>
        <time>2024-08-08T14:05:26.000Z</time>
      </trkpt>
      <trkpt lat="45.595367" lon="7.874153">
        <ele>1851.75464</ele>
        <time>2024-08-08T14:05:28.000Z</time>
      </trkpt>
      <trkpt lat="45.595358" lon="7.874115">
        <ele>1851.34473</ele>
        <time>2024-08-08T14:05:30.000Z</time>
      </trkpt>
      <trkpt lat="45.595345" lon="7.874082">
        <ele>1850.93481</ele>
        <time>2024-08-08T14:05:32.000Z</time>
      </trkpt>
      <trkpt lat="45.595333" lon="7.874055">
        <ele>1850.59985</ele>
        <time>2024-08-08T14:05:34.000Z</time>
      </trkpt>
      <trkpt lat="45.595322" lon="7.874023">
        <ele>1850.32483</ele>
        <time>2024-08-08T14:05:36.000Z</time>
      </trkpt>
      <trkpt lat="45.595308" lon="7.87399">
        <ele>1850.08472</ele>
        <time>2024-08-08T14:05:38.000Z</time>
      </trkpt>
      <trkpt lat="45.595295" lon="7.87395">
        <ele>1849.8396</ele>
        <time>2024-08-08T14:05:40.000Z</time>
      </trkpt>
      <trkpt lat="45.59528" lon="7.87391">
        <ele>1849.55981</ele>
        <time>2024-08-08T14:05:42.000Z</time>
      </trkpt>
      <trkpt lat="45.595262" lon="7.873875">
        <ele>1849.23987</ele>
        <time>2024-08-08T14:05:44.000Z</time>
      </trkpt>
      <trkpt lat="45.59525" lon="7.873845">
        <ele>1848.87476</ele>
        <time>2024-08-08T14:05:46.000Z</time>
      </trkpt>
      <trkpt lat="45.595235" lon="7.873813">
        <ele>1848.47485</ele>
        <time>2024-08-08T14:05:48.000Z</time>
      </trkpt>
      <trkpt lat="45.595225" lon="7.87378">
        <ele>1848.05981</ele>
        <time>2024-08-08T14:05:50.000Z</time>
      </trkpt>
      <trkpt lat="45.595213" lon="7.873747">
        <ele>1847.62476</ele>
        <time>2024-08-08T14:05:52.000Z</time>
      </trkpt>
      <trkpt lat="45.595202" lon="7.873713">
        <ele>1847.16968</ele>
        <time>2024-08-08T14:05:54.000Z</time>
      </trkpt>
      <trkpt lat="45.595185" lon="7.873683">
        <ele>1846.66467</ele>
        <time>2024-08-08T14:05:56.000Z</time>
      </trkpt>
      <trkpt lat="45.595167" lon="7.873653">
        <ele>1846.16956</ele>
        <time>2024-08-08T14:05:58.000Z</time>
      </trkpt>
      <trkpt lat="45.595147" lon="7.87362">
        <ele>1845.70959</ele>
        <time>2024-08-08T14:06:00.000Z</time>
      </trkpt>
      <trkpt lat="45.595127" lon="7.873592">
        <ele>1845.29456</ele>
        <time>2024-08-08T14:06:02.000Z</time>
      </trkpt>
      <trkpt lat="45.595105" lon="7.873563">
        <ele>1844.88452</ele>
        <time>2024-08-08T14:06:04.000Z</time>
      </trkpt>
      <trkpt lat="45.595083" lon="7.873532">
        <ele>1844.44458</ele>
        <time>2024-08-08T14:06:06.000Z</time>
      </trkpt>
      <trkpt lat="45.595063" lon="7.873505">
        <ele>1844.00452</ele>
        <time>2024-08-08T14:06:08.000Z</time>
      </trkpt>
      <trkpt lat="45.595045" lon="7.873473">
        <ele>1843.50452</ele>
        <time>2024-08-08T14:06:10.000Z</time>
      </trkpt>
      <trkpt lat="45.595033" lon="7.873447">
        <ele>1842.95935</ele>
        <time>2024-08-08T14:06:12.000Z</time>
      </trkpt>
      <trkpt lat="45.59501" lon="7.873432">
        <ele>1842.33948</ele>
        <time>2024-08-08T14:06:14.000Z</time>
      </trkpt>
      <trkpt lat="45.594997" lon="7.873412">
        <ele>1841.68433</ele>
        <time>2024-08-08T14:06:16.000Z</time>
      </trkpt>
      <trkpt lat="45.594977" lon="7.873393">
        <ele>1841.05933</ele>
        <time>2024-08-08T14:06:18.000Z</time>
      </trkpt>
      <trkpt lat="45.594958" lon="7.873373">
        <ele>1840.55444</ele>
        <time>2024-08-08T14:06:20.000Z</time>
      </trkpt>
      <trkpt lat="45.594932" lon="7.873355">
        <ele>1840.08435</ele>
        <time>2024-08-08T14:06:22.000Z</time>
      </trkpt>
      <trkpt lat="45.594905" lon="7.873335">
        <ele>1839.62927</ele>
        <time>2024-08-08T14:06:24.000Z</time>
      </trkpt>
      <trkpt lat="45.594882" lon="7.873313">
        <ele>1839.1543</ele>
        <time>2024-08-08T14:06:26.000Z</time>
      </trkpt>
      <trkpt lat="45.594853" lon="7.873297">
        <ele>1838.70435</ele>
        <time>2024-08-08T14:06:28.000Z</time>
      </trkpt>
      <trkpt lat="45.59483" lon="7.87328">
        <ele>1838.33423</ele>
        <time>2024-08-08T14:06:30.000Z</time>
      </trkpt>
      <trkpt lat="45.59481" lon="7.87327">
        <ele>1838.01404</ele>
        <time>2024-08-08T14:06:32.000Z</time>
      </trkpt>
      <trkpt lat="45.594792" lon="7.873247">
        <ele>1837.6842</ele>
        <time>2024-08-08T14:06:34.000Z</time>
      </trkpt>
      <trkpt lat="45.594775" lon="7.87322">
        <ele>1837.32422</ele>
        <time>2024-08-08T14:06:36.000Z</time>
      </trkpt>
      <trkpt lat="45.594762" lon="7.873192">
        <ele>1836.91931</ele>
        <time>2024-08-08T14:06:38.000Z</time>
      </trkpt>
      <trkpt lat="45.594743" lon="7.87316">
        <ele>1836.51428</ele>
        <time>2024-08-08T14:06:40.000Z</time>
      </trkpt>
      <trkpt lat="45.594732" lon="7.87312">
        <ele>1836.08923</ele>
        <time>2024-08-08T14:06:42.000Z</time>
      </trkpt>
      <trkpt lat="45.594717" lon="7.87309">
        <ele>1835.66931</ele>
        <time>2024-08-08T14:06:44.000Z</time>
      </trkpt>
      <trkpt lat="45.5947" lon="7.873062">
        <ele>1835.29944</ele>
        <time>2024-08-08T14:06:46.000Z</time>
      </trkpt>
      <trkpt lat="45.59468" lon="7.87303">
        <ele>1834.99939</ele>
        <time>2024-08-08T14:06:48.000Z</time>
      </trkpt>
      <trkpt lat="45.59466" lon="7.873">
        <ele>1834.75452</ele>
        <time>2024-08-08T14:06:50.000Z</time>
      </trkpt>
      <trkpt lat="45.594638" lon="7.872972">
        <ele>1834.55957</ele>
        <time>2024-08-08T14:06:52.000Z</time>
      </trkpt>
      <trkpt lat="45.594615" lon="7.872952">
        <ele>1834.43457</ele>
        <time>2024-08-08T14:06:54.000Z</time>
      </trkpt>
      <trkpt lat="45.594593" lon="7.872932">
        <ele>1834.35474</ele>
        <time>2024-08-08T14:06:56.000Z</time>
      </trkpt>
      <trkpt lat="45.594568" lon="7.872912">
        <ele>1834.25977</ele>
        <time>2024-08-08T14:06:58.000Z</time>
      </trkpt>
      <trkpt lat="45.594543" lon="7.872902">
        <ele>1834.11975</ele>
        <time>2024-08-08T14:07:00.000Z</time>
      </trkpt>
      <trkpt lat="45.594518" lon="7.872892">
        <ele>1833.97485</ele>
        <time>2024-08-08T14:07:02.000Z</time>
      </trkpt>
      <trkpt lat="45.59449" lon="7.872885">
        <ele>1833.84497</ele>
        <time>2024-08-08T14:07:04.000Z</time>
      </trkpt>
      <trkpt lat="45.594465" lon="7.87287">
        <ele>1833.77478</ele>
        <time>2024-08-08T14:07:06.000Z</time>
      </trkpt>
      <trkpt lat="45.594442" lon="7.872855">
        <ele>1833.71484</ele>
        <time>2024-08-08T14:07:08.000Z</time>
      </trkpt>
      <trkpt lat="45.594412" lon="7.87284">
        <ele>1833.625</ele>
        <time>2024-08-08T14:07:10.000Z</time>
      </trkpt>
      <trkpt lat="45.594392" lon="7.872823">
        <ele>1833.51501</ele>
        <time>2024-08-08T14:07:12.000Z</time>
      </trkpt>
      <trkpt lat="45.594377" lon="7.872795">
        <ele>1833.375</ele>
        <time>2024-08-08T14:07:14.000Z</time>
      </trkpt>
      <trkpt lat="45.594363" lon="7.872768">
        <ele>1833.24512</ele>
        <time>2024-08-08T14:07:16.000Z</time>
      </trkpt>
      <trkpt lat="45.594342" lon="7.872742">
        <ele>1833.17017</ele>
        <time>2024-08-08T14:07:18.000Z</time>
      </trkpt>
      <trkpt lat="45.594327" lon="7.872718">
        <ele>1833.05505</ele>
        <time>2024-08-08T14:07:20.000Z</time>
      </trkpt>
      <trkpt lat="45.594308" lon="7.872693">
        <ele>1832.95508</ele>
        <time>2024-08-08T14:07:22.000Z</time>
      </trkpt>
      <trkpt lat="45.594288" lon="7.872678">
        <ele>1832.85999</ele>
        <time>2024-08-08T14:07:24.000Z</time>
      </trkpt>
      <trkpt lat="45.594265" lon="7.872662">
        <ele>1832.74487</ele>
        <time>2024-08-08T14:07:26.000Z</time>
      </trkpt>
      <trkpt lat="45.594242" lon="7.87265">
        <ele>1832.57483</ele>
        <time>2024-08-08T14:07:28.000Z</time>
      </trkpt>
      <trkpt lat="45.594215" lon="7.872623">
        <ele>1832.37964</ele>
        <time>2024-08-08T14:07:30.000Z</time>
      </trkpt>
      <trkpt lat="45.5942" lon="7.872608">
        <ele>1832.16467</ele>
        <time>2024-08-08T14:07:31.000Z</time>
      </trkpt>
      <trkpt lat="45.594177" lon="7.872588">
        <ele>1831.89966</ele>
        <time>2024-08-08T14:07:33.000Z</time>
      </trkpt>
      <trkpt lat="45.594157" lon="7.872565">
        <ele>1831.56445</ele>
        <time>2024-08-08T14:07:35.000Z</time>
      </trkpt>
      <trkpt lat="45.59414" lon="7.872537">
        <ele>1831.17932</ele>
        <time>2024-08-08T14:07:37.000Z</time>
      </trkpt>
      <trkpt lat="45.59412" lon="7.872502">
        <ele>1830.75916</ele>
        <time>2024-08-08T14:07:39.000Z</time>
      </trkpt>
      <trkpt lat="45.5941" lon="7.872458">
        <ele>1830.29919</ele>
        <time>2024-08-08T14:07:41.000Z</time>
      </trkpt>
      <trkpt lat="45.594088" lon="7.872437">
        <ele>1829.80408</ele>
        <time>2024-08-08T14:07:42.000Z</time>
      </trkpt>
      <trkpt lat="45.594065" lon="7.872418">
        <ele>1829.24414</ele>
        <time>2024-08-08T14:07:44.000Z</time>
      </trkpt>
      <trkpt lat="45.594035" lon="7.872425">
        <ele>1828.65405</ele>
        <time>2024-08-08T14:07:46.000Z</time>
      </trkpt>
      <trkpt lat="45.594013" lon="7.872452">
        <ele>1828.05896</ele>
        <time>2024-08-08T14:07:48.000Z</time>
      </trkpt>
      <trkpt lat="45.594008" lon="7.872493">
        <ele>1827.42407</ele>
        <time>2024-08-08T14:07:50.000Z</time>
      </trkpt>
      <trkpt lat="45.594007" lon="7.872527">
        <ele>1826.78906</ele>
        <time>2024-08-08T14:07:52.000Z</time>
      </trkpt>
      <trkpt lat="45.594003" lon="7.872557">
        <ele>1826.16406</ele>
        <time>2024-08-08T14:07:54.000Z</time>
      </trkpt>
      <trkpt lat="45.594003" lon="7.872592">
        <ele>1825.51404</ele>
        <time>2024-08-08T14:07:56.000Z</time>
      </trkpt>
      <trkpt lat="45.594007" lon="7.872623">
        <ele>1824.88416</ele>
        <time>2024-08-08T14:07:58.000Z</time>
      </trkpt>
      <trkpt lat="45.594012" lon="7.872662">
        <ele>1824.22424</ele>
        <time>2024-08-08T14:08:00.000Z</time>
      </trkpt>
      <trkpt lat="45.594015" lon="7.87269">
        <ele>1823.53931</ele>
        <time>2024-08-08T14:08:02.000Z</time>
      </trkpt>
      <trkpt lat="45.594023" lon="7.872727">
        <ele>1822.83923</ele>
        <time>2024-08-08T14:08:05.000Z</time>
      </trkpt>
      <trkpt lat="45.594023" lon="7.872772">
        <ele>1822.18433</ele>
        <time>2024-08-08T14:08:07.000Z</time>
      </trkpt>
      <trkpt lat="45.594023" lon="7.872817">
        <ele>1821.53442</ele>
        <time>2024-08-08T14:08:09.000Z</time>
      </trkpt>
      <trkpt lat="45.59402" lon="7.872862">
        <ele>1820.8844</ele>
        <time>2024-08-08T14:08:11.000Z</time>
      </trkpt>
      <trkpt lat="45.594012" lon="7.872887">
        <ele>1820.31445</ele>
        <time>2024-08-08T14:08:12.000Z</time>
      </trkpt>
      <trkpt lat="45.593988" lon="7.872923">
        <ele>1819.81445</ele>
        <time>2024-08-08T14:08:14.000Z</time>
      </trkpt>
      <trkpt lat="45.593963" lon="7.872938">
        <ele>1819.37463</ele>
        <time>2024-08-08T14:08:16.000Z</time>
      </trkpt>
      <trkpt lat="45.59394" lon="7.872933">
        <ele>1818.9447</ele>
        <time>2024-08-08T14:08:18.000Z</time>
      </trkpt>
      <trkpt lat="45.593925" lon="7.872915">
        <ele>1818.53455</ele>
        <time>2024-08-08T14:08:20.000Z</time>
      </trkpt>
      <trkpt lat="45.593908" lon="7.87288">
        <ele>1818.11462</ele>
        <time>2024-08-08T14:08:22.000Z</time>
      </trkpt>
      <trkpt lat="45.593885" lon="7.872848">
        <ele>1817.74963</ele>
        <time>2024-08-08T14:08:24.000Z</time>
      </trkpt>
      <trkpt lat="45.593865" lon="7.872827">
        <ele>1817.43481</ele>
        <time>2024-08-08T14:08:26.000Z</time>
      </trkpt>
      <trkpt lat="45.593847" lon="7.872808">
        <ele>1817.13477</ele>
        <time>2024-08-08T14:08:28.000Z</time>
      </trkpt>
      <trkpt lat="45.593822" lon="7.872788">
        <ele>1816.86487</ele>
        <time>2024-08-08T14:08:30.000Z</time>
      </trkpt>
      <trkpt lat="45.593788" lon="7.872777">
        <ele>1816.61975</ele>
        <time>2024-08-08T14:08:32.000Z</time>
      </trkpt>
      <trkpt lat="45.59376" lon="7.87275">
        <ele>1816.38452</ele>
        <time>2024-08-08T14:08:34.000Z</time>
      </trkpt>
      <trkpt lat="45.593747" lon="7.872722">
        <ele>1816.10962</ele>
        <time>2024-08-08T14:08:36.000Z</time>
      </trkpt>
      <trkpt lat="45.593733" lon="7.872687">
        <ele>1815.82446</ele>
        <time>2024-08-08T14:08:38.000Z</time>
      </trkpt>
      <trkpt lat="45.59372" lon="7.872657">
        <ele>1815.56934</ele>
        <time>2024-08-08T14:08:40.000Z</time>
      </trkpt>
      <trkpt lat="45.5937" lon="7.872625">
        <ele>1815.34436</ele>
        <time>2024-08-08T14:08:42.000Z</time>
      </trkpt>
      <trkpt lat="45.593687" lon="7.872605">
        <ele>1815.12927</ele>
        <time>2024-08-08T14:08:43.000Z</time>
      </trkpt>
      <trkpt lat="45.59367" lon="7.872567">
        <ele>1814.85913</ele>
        <time>2024-08-08T14:08:45.000Z</time>
      </trkpt>
      <trkpt lat="45.593662" lon="7.87253">
        <ele>1814.61426</ele>
        <time>2024-08-08T14:08:47.000Z</time>
      </trkpt>
      <trkpt lat="45.593652" lon="7.872497">
        <ele>1814.4043</ele>
        <time>2024-08-08T14:08:49.000Z</time>
      </trkpt>
      <trkpt lat="45.593633" lon="7.872467">
        <ele>1814.27417</ele>
        <time>2024-08-08T14:08:51.000Z</time>
      </trkpt>
      <trkpt lat="45.593615" lon="7.872425">
        <ele>1814.12427</ele>
        <time>2024-08-08T14:08:53.000Z</time>
      </trkpt>
      <trkpt lat="45.593603" lon="7.872393">
        <ele>1813.9541</ele>
        <time>2024-08-08T14:08:55.000Z</time>
      </trkpt>
      <trkpt lat="45.593592" lon="7.87236">
        <ele>1813.83911</ele>
        <time>2024-08-08T14:08:57.000Z</time>
      </trkpt>
      <trkpt lat="45.593582" lon="7.872333">
        <ele>1813.79919</ele>
        <time>2024-08-08T14:08:59.000Z</time>
      </trkpt>
      <trkpt lat="45.593568" lon="7.872307">
        <ele>1813.8092</ele>
        <time>2024-08-08T14:09:01.000Z</time>
      </trkpt>
      <trkpt lat="45.59355" lon="7.87228">
        <ele>1813.76929</ele>
        <time>2024-08-08T14:09:03.000Z</time>
      </trkpt>
      <trkpt lat="45.593537" lon="7.872247">
        <ele>1813.6842</ele>
        <time>2024-08-08T14:09:05.000Z</time>
      </trkpt>
      <trkpt lat="45.59352" lon="7.872215">
        <ele>1813.56909</ele>
        <time>2024-08-08T14:09:07.000Z</time>
      </trkpt>
      <trkpt lat="45.593502" lon="7.87219">
        <ele>1813.46411</ele>
        <time>2024-08-08T14:09:09.000Z</time>
      </trkpt>
      <trkpt lat="45.593488" lon="7.872158">
        <ele>1813.35913</ele>
        <time>2024-08-08T14:09:11.000Z</time>
      </trkpt>
      <trkpt lat="45.593475" lon="7.872125">
        <ele>1813.24438</ele>
        <time>2024-08-08T14:09:13.000Z</time>
      </trkpt>
      <trkpt lat="45.593463" lon="7.872082">
        <ele>1813.10425</ele>
        <time>2024-08-08T14:09:15.000Z</time>
      </trkpt>
      <trkpt lat="45.593448" lon="7.872047">
        <ele>1812.95435</ele>
        <time>2024-08-08T14:09:17.000Z</time>
      </trkpt>
      <trkpt lat="45.59343" lon="7.87201">
        <ele>1812.7793</ele>
        <time>2024-08-08T14:09:19.000Z</time>
      </trkpt>
      <trkpt lat="45.593417" lon="7.871965">
        <ele>1812.51428</ele>
        <time>2024-08-08T14:09:21.000Z</time>
      </trkpt>
      <trkpt lat="45.593403" lon="7.871943">
        <ele>1812.23926</ele>
        <time>2024-08-08T14:09:22.000Z</time>
      </trkpt>
      <trkpt lat="45.593383" lon="7.871917">
        <ele>1811.94434</ele>
        <time>2024-08-08T14:09:24.000Z</time>
      </trkpt>
      <trkpt lat="45.593365" lon="7.87189">
        <ele>1811.59924</ele>
        <time>2024-08-08T14:09:26.000Z</time>
      </trkpt>
      <trkpt lat="45.593355" lon="7.871858">
        <ele>1811.13416</ele>
        <time>2024-08-08T14:09:28.000Z</time>
      </trkpt>
      <trkpt lat="45.59334" lon="7.87182">
        <ele>1810.50916</ele>
        <time>2024-08-08T14:09:30.000Z</time>
      </trkpt>
      <trkpt lat="45.593332" lon="7.871788">
        <ele>1809.88928</ele>
        <time>2024-08-08T14:09:32.000Z</time>
      </trkpt>
      <trkpt lat="45.593327" lon="7.871755">
        <ele>1809.27417</ele>
        <time>2024-08-08T14:09:34.000Z</time>
      </trkpt>
      <trkpt lat="45.593312" lon="7.87172">
        <ele>1808.60425</ele>
        <time>2024-08-08T14:09:36.000Z</time>
      </trkpt>
      <trkpt lat="45.593297" lon="7.871683">
        <ele>1807.85425</ele>
        <time>2024-08-08T14:09:38.000Z</time>
      </trkpt>
      <trkpt lat="45.593288" lon="7.87165">
        <ele>1807.05933</ele>
        <time>2024-08-08T14:09:40.000Z</time>
      </trkpt>
      <trkpt lat="45.593272" lon="7.871615">
        <ele>1806.2793</ele>
        <time>2024-08-08T14:09:42.000Z</time>
      </trkpt>
      <trkpt lat="45.593253" lon="7.87158">
        <ele>1805.4895</ele>
        <time>2024-08-08T14:09:44.000Z</time>
      </trkpt>
      <trkpt lat="45.593243" lon="7.87154">
        <ele>1804.67944</ele>
        <time>2024-08-08T14:09:46.000Z</time>
      </trkpt>
      <trkpt lat="45.59323" lon="7.871512">
        <ele>1803.8645</ele>
        <time>2024-08-08T14:09:48.000Z</time>
      </trkpt>
      <trkpt lat="45.593217" lon="7.871482">
        <ele>1803.06445</ele>
        <time>2024-08-08T14:09:50.000Z</time>
      </trkpt>
      <trkpt lat="45.593205" lon="7.871453">
        <ele>1802.30933</ele>
        <time>2024-08-08T14:09:52.000Z</time>
      </trkpt>
      <trkpt lat="45.593187" lon="7.871427">
        <ele>1801.67444</ele>
        <time>2024-08-08T14:09:54.000Z</time>
      </trkpt>
      <trkpt lat="45.593167" lon="7.871402">
        <ele>1801.09448</ele>
        <time>2024-08-08T14:09:56.000Z</time>
      </trkpt>
      <trkpt lat="45.59315" lon="7.871377">
        <ele>1800.5144</ele>
        <time>2024-08-08T14:09:58.000Z</time>
      </trkpt>
      <trkpt lat="45.593128" lon="7.87135">
        <ele>1799.97949</ele>
        <time>2024-08-08T14:10:00.000Z</time>
      </trkpt>
      <trkpt lat="45.593112" lon="7.871327">
        <ele>1799.43457</ele>
        <time>2024-08-08T14:10:02.000Z</time>
      </trkpt>
      <trkpt lat="45.593095" lon="7.871307">
        <ele>1798.97949</ele>
        <time>2024-08-08T14:10:04.000Z</time>
      </trkpt>
      <trkpt lat="45.593075" lon="7.871287">
        <ele>1798.59961</ele>
        <time>2024-08-08T14:10:06.000Z</time>
      </trkpt>
      <trkpt lat="45.59306" lon="7.87126">
        <ele>1798.3396</ele>
        <time>2024-08-08T14:10:08.000Z</time>
      </trkpt>
      <trkpt lat="45.593043" lon="7.871232">
        <ele>1798.13452</ele>
        <time>2024-08-08T14:10:10.000Z</time>
      </trkpt>
      <trkpt lat="45.593025" lon="7.8712">
        <ele>1797.89966</ele>
        <time>2024-08-08T14:10:12.000Z</time>
      </trkpt>
      <trkpt lat="45.593015" lon="7.871175">
        <ele>1797.62964</ele>
        <time>2024-08-08T14:10:14.000Z</time>
      </trkpt>
      <trkpt lat="45.593003" lon="7.871155">
        <ele>1797.36951</ele>
        <time>2024-08-08T14:10:16.000Z</time>
      </trkpt>
      <trkpt lat="45.592982" lon="7.871137">
        <ele>1797.18433</ele>
        <time>2024-08-08T14:10:18.000Z</time>
      </trkpt>
      <trkpt lat="45.59297" lon="7.871108">
        <ele>1797.11426</ele>
        <time>2024-08-08T14:10:20.000Z</time>
      </trkpt>
      <trkpt lat="45.592965" lon="7.871078">
        <ele>1797.12927</ele>
        <time>2024-08-08T14:10:22.000Z</time>
      </trkpt>
      <trkpt lat="45.59296" lon="7.871038">
        <ele>1797.15918</ele>
        <time>2024-08-08T14:10:24.000Z</time>
      </trkpt>
      <trkpt lat="45.592967" lon="7.870995">
        <ele>1797.17419</ele>
        <time>2024-08-08T14:10:26.000Z</time>
      </trkpt>
      <trkpt lat="45.592975" lon="7.870955">
        <ele>1797.11938</ele>
        <time>2024-08-08T14:10:28.000Z</time>
      </trkpt>
      <trkpt lat="45.592985" lon="7.870912">
        <ele>1797.0293</ele>
        <time>2024-08-08T14:10:30.000Z</time>
      </trkpt>
      <trkpt lat="45.592985" lon="7.870868">
        <ele>1796.8844</ele>
        <time>2024-08-08T14:10:32.000Z</time>
      </trkpt>
      <trkpt lat="45.592978" lon="7.87083">
        <ele>1796.68921</ele>
        <time>2024-08-08T14:10:34.000Z</time>
      </trkpt>
      <trkpt lat="45.592973" lon="7.870788">
        <ele>1796.44922</ele>
        <time>2024-08-08T14:10:36.000Z</time>
      </trkpt>
      <trkpt lat="45.592968" lon="7.870753">
        <ele>1796.17419</ele>
        <time>2024-08-08T14:10:38.000Z</time>
      </trkpt>
      <trkpt lat="45.592967" lon="7.870712">
        <ele>1795.89917</ele>
        <time>2024-08-08T14:10:40.000Z</time>
      </trkpt>
      <trkpt lat="45.592967" lon="7.870678">
        <ele>1795.60425</ele>
        <time>2024-08-08T14:10:42.000Z</time>
      </trkpt>
      <trkpt lat="45.592965" lon="7.870643">
        <ele>1795.2644</ele>
        <time>2024-08-08T14:10:44.000Z</time>
      </trkpt>
      <trkpt lat="45.592958" lon="7.870597">
        <ele>1794.87952</ele>
        <time>2024-08-08T14:10:46.000Z</time>
      </trkpt>
      <trkpt lat="45.592953" lon="7.870572">
        <ele>1794.44946</ele>
        <time>2024-08-08T14:10:47.000Z</time>
      </trkpt>
      <trkpt lat="45.59295" lon="7.870543">
        <ele>1794.00952</ele>
        <time>2024-08-08T14:10:48.000Z</time>
      </trkpt>
      <trkpt lat="45.592955" lon="7.870495">
        <ele>1793.59448</ele>
        <time>2024-08-08T14:10:50.000Z</time>
      </trkpt>
      <trkpt lat="45.59295" lon="7.870463">
        <ele>1793.18945</ele>
        <time>2024-08-08T14:10:52.000Z</time>
      </trkpt>
      <trkpt lat="45.592947" lon="7.870435">
        <ele>1792.74451</ele>
        <time>2024-08-08T14:10:54.000Z</time>
      </trkpt>
      <trkpt lat="45.59295" lon="7.870402">
        <ele>1792.23962</ele>
        <time>2024-08-08T14:10:56.000Z</time>
      </trkpt>
      <trkpt lat="45.592962" lon="7.870367">
        <ele>1791.60474</ele>
        <time>2024-08-08T14:10:58.000Z</time>
      </trkpt>
      <trkpt lat="45.592975" lon="7.870318">
        <ele>1790.93457</ele>
        <time>2024-08-08T14:11:00.000Z</time>
      </trkpt>
      <trkpt lat="45.592988" lon="7.870278">
        <ele>1790.23962</ele>
        <time>2024-08-08T14:11:02.000Z</time>
      </trkpt>
      <trkpt lat="45.593007" lon="7.870238">
        <ele>1789.5647</ele>
        <time>2024-08-08T14:11:04.000Z</time>
      </trkpt>
      <trkpt lat="45.593008" lon="7.870205">
        <ele>1788.99963</ele>
        <time>2024-08-08T14:11:06.000Z</time>
      </trkpt>
      <trkpt lat="45.593005" lon="7.870167">
        <ele>1788.48462</ele>
        <time>2024-08-08T14:11:08.000Z</time>
      </trkpt>
      <trkpt lat="45.593018" lon="7.870127">
        <ele>1788.02954</ele>
        <time>2024-08-08T14:11:10.000Z</time>
      </trkpt>
      <trkpt lat="45.593023" lon="7.870093">
        <ele>1787.60962</ele>
        <time>2024-08-08T14:11:11.000Z</time>
      </trkpt>
      <trkpt lat="45.593023" lon="7.870067">
        <ele>1787.24963</ele>
        <time>2024-08-08T14:11:12.000Z</time>
      </trkpt>
      <trkpt lat="45.59303" lon="7.870038">
        <ele>1786.97461</ele>
        <time>2024-08-08T14:11:14.000Z</time>
      </trkpt>
      <trkpt lat="45.593042" lon="7.869997">
        <ele>1786.7146</ele>
        <time>2024-08-08T14:11:16.000Z</time>
      </trkpt>
      <trkpt lat="45.593043" lon="7.869953">
        <ele>1786.45447</ele>
        <time>2024-08-08T14:11:18.000Z</time>
      </trkpt>
      <trkpt lat="45.593053" lon="7.869915">
        <ele>1786.21448</ele>
        <time>2024-08-08T14:11:20.000Z</time>
      </trkpt>
      <trkpt lat="45.593067" lon="7.869882">
        <ele>1785.99438</ele>
        <time>2024-08-08T14:11:22.000Z</time>
      </trkpt>
      <trkpt lat="45.59308" lon="7.869835">
        <ele>1785.72437</ele>
        <time>2024-08-08T14:11:24.000Z</time>
      </trkpt>
      <trkpt lat="45.59308" lon="7.8698">
        <ele>1785.45935</ele>
        <time>2024-08-08T14:11:25.000Z</time>
      </trkpt>
      <trkpt lat="45.59308" lon="7.869767">
        <ele>1785.20935</ele>
        <time>2024-08-08T14:11:26.000Z</time>
      </trkpt>
      <trkpt lat="45.593082" lon="7.86973">
        <ele>1784.95935</ele>
        <time>2024-08-08T14:11:28.000Z</time>
      </trkpt>
      <trkpt lat="45.593082" lon="7.869682">
        <ele>1784.72925</ele>
        <time>2024-08-08T14:11:30.000Z</time>
      </trkpt>
      <trkpt lat="45.593075" lon="7.869643">
        <ele>1784.44434</ele>
        <time>2024-08-08T14:11:32.000Z</time>
      </trkpt>
      <trkpt lat="45.593075" lon="7.869607">
        <ele>1784.16931</ele>
        <time>2024-08-08T14:11:34.000Z</time>
      </trkpt>
      <trkpt lat="45.593075" lon="7.869563">
        <ele>1783.84937</ele>
        <time>2024-08-08T14:11:36.000Z</time>
      </trkpt>
      <trkpt lat="45.593068" lon="7.869537">
        <ele>1783.59436</ele>
        <time>2024-08-08T14:11:37.000Z</time>
      </trkpt>
      <trkpt lat="45.593063" lon="7.869497">
        <ele>1783.3844</ele>
        <time>2024-08-08T14:11:39.000Z</time>
      </trkpt>
      <trkpt lat="45.593063" lon="7.869457">
        <ele>1783.11938</ele>
        <time>2024-08-08T14:11:41.000Z</time>
      </trkpt>
      <trkpt lat="45.593063" lon="7.869425">
        <ele>1782.77441</ele>
        <time>2024-08-08T14:11:43.000Z</time>
      </trkpt>
      <trkpt lat="45.59306" lon="7.869392">
        <ele>1782.35449</ele>
        <time>2024-08-08T14:11:46.000Z</time>
      </trkpt>
      <trkpt lat="45.59307" lon="7.869352">
        <ele>1781.98438</ele>
        <time>2024-08-08T14:11:49.000Z</time>
      </trkpt>
      <trkpt lat="45.59308" lon="7.869327">
        <ele>1781.59937</ele>
        <time>2024-08-08T14:11:50.000Z</time>
      </trkpt>
      <trkpt lat="45.593085" lon="7.869298">
        <ele>1781.19946</ele>
        <time>2024-08-08T14:11:51.000Z</time>
      </trkpt>
      <trkpt lat="45.59309" lon="7.869267">
        <ele>1780.81445</ele>
        <time>2024-08-08T14:11:52.000Z</time>
      </trkpt>
      <trkpt lat="45.593087" lon="7.869225">
        <ele>1780.48462</ele>
        <time>2024-08-08T14:11:54.000Z</time>
      </trkpt>
      <trkpt lat="45.593075" lon="7.8692">
        <ele>1780.20447</ele>
        <time>2024-08-08T14:11:56.000Z</time>
      </trkpt>
      <trkpt lat="45.593072" lon="7.86917">
        <ele>1779.92944</ele>
        <time>2024-08-08T14:11:58.000Z</time>
      </trkpt>
      <trkpt lat="45.593057" lon="7.869137">
        <ele>1779.7395</ele>
        <time>2024-08-08T14:12:01.000Z</time>
      </trkpt>
      <trkpt lat="45.593037" lon="7.869123">
        <ele>1779.57947</ele>
        <time>2024-08-08T14:12:03.000Z</time>
      </trkpt>
      <trkpt lat="45.59301" lon="7.869102">
        <ele>1779.46448</ele>
        <time>2024-08-08T14:12:05.000Z</time>
      </trkpt>
      <trkpt lat="45.59298" lon="7.86908">
        <ele>1779.45959</ele>
        <time>2024-08-08T14:12:07.000Z</time>
      </trkpt>
      <trkpt lat="45.592962" lon="7.869045">
        <ele>1779.47974</ele>
        <time>2024-08-08T14:12:09.000Z</time>
      </trkpt>
      <trkpt lat="45.59294" lon="7.869013">
        <ele>1779.51953</ele>
        <time>2024-08-08T14:12:11.000Z</time>
      </trkpt>
      <trkpt lat="45.592918" lon="7.868982">
        <ele>1779.56445</ele>
        <time>2024-08-08T14:12:13.000Z</time>
      </trkpt>
      <trkpt lat="45.592905" lon="7.868952">
        <ele>1779.58435</ele>
        <time>2024-08-08T14:12:15.000Z</time>
      </trkpt>
      <trkpt lat="45.592892" lon="7.868918">
        <ele>1779.52441</ele>
        <time>2024-08-08T14:12:17.000Z</time>
      </trkpt>
      <trkpt lat="45.592883" lon="7.868895">
        <ele>1779.42444</ele>
        <time>2024-08-08T14:12:18.000Z</time>
      </trkpt>
      <trkpt lat="45.592872" lon="7.868875">
        <ele>1779.33435</ele>
        <time>2024-08-08T14:12:19.000Z</time>
      </trkpt>
      <trkpt lat="45.592855" lon="7.868842">
        <ele>1779.28442</ele>
        <time>2024-08-08T14:12:21.000Z</time>
      </trkpt>
      <trkpt lat="45.592845" lon="7.868815">
        <ele>1779.24927</ele>
        <time>2024-08-08T14:12:23.000Z</time>
      </trkpt>
      <trkpt lat="45.592833" lon="7.868788">
        <ele>1779.12427</ele>
        <time>2024-08-08T14:12:25.000Z</time>
      </trkpt>
      <trkpt lat="45.592827" lon="7.868757">
        <ele>1779.00415</ele>
        <time>2024-08-08T14:12:27.000Z</time>
      </trkpt>
      <trkpt lat="45.592818" lon="7.868733">
        <ele>1778.86426</ele>
        <time>2024-08-08T14:12:29.000Z</time>
      </trkpt>
      <trkpt lat="45.5928" lon="7.868707">
        <ele>1778.73926</ele>
        <time>2024-08-08T14:12:31.000Z</time>
      </trkpt>
      <trkpt lat="45.592775" lon="7.86867">
        <ele>1778.61426</ele>
        <time>2024-08-08T14:12:33.000Z</time>
      </trkpt>
      <trkpt lat="45.59276" lon="7.868648">
        <ele>1778.43921</ele>
        <time>2024-08-08T14:12:34.000Z</time>
      </trkpt>
      <trkpt lat="45.592747" lon="7.868628">
        <ele>1778.28442</ele>
        <time>2024-08-08T14:12:35.000Z</time>
      </trkpt>
      <trkpt lat="45.592733" lon="7.868608">
        <ele>1778.11938</ele>
        <time>2024-08-08T14:12:36.000Z</time>
      </trkpt>
      <trkpt lat="45.592713" lon="7.868577">
        <ele>1777.89429</ele>
        <time>2024-08-08T14:12:38.000Z</time>
      </trkpt>
      <trkpt lat="45.592692" lon="7.868547">
        <ele>1777.57935</ele>
        <time>2024-08-08T14:12:40.000Z</time>
      </trkpt>
      <trkpt lat="45.592668" lon="7.868517">
        <ele>1777.16431</ele>
        <time>2024-08-08T14:12:42.000Z</time>
      </trkpt>
      <trkpt lat="45.592652" lon="7.868493">
        <ele>1776.70923</ele>
        <time>2024-08-08T14:12:44.000Z</time>
      </trkpt>
      <trkpt lat="45.592642" lon="7.868465">
        <ele>1776.25916</ele>
        <time>2024-08-08T14:12:46.000Z</time>
      </trkpt>
      <trkpt lat="45.592633" lon="7.868437">
        <ele>1775.79431</ele>
        <time>2024-08-08T14:12:48.000Z</time>
      </trkpt>
      <trkpt lat="45.592623" lon="7.868408">
        <ele>1775.35938</ele>
        <time>2024-08-08T14:12:50.000Z</time>
      </trkpt>
      <trkpt lat="45.592617" lon="7.86838">
        <ele>1774.98438</ele>
        <time>2024-08-08T14:12:52.000Z</time>
      </trkpt>
      <trkpt lat="45.592607" lon="7.868355">
        <ele>1774.6543</ele>
        <time>2024-08-08T14:12:54.000Z</time>
      </trkpt>
      <trkpt lat="45.592595" lon="7.86832">
        <ele>1774.35938</ele>
        <time>2024-08-08T14:12:56.000Z</time>
      </trkpt>
      <trkpt lat="45.592588" lon="7.868285">
        <ele>1774.10425</ele>
        <time>2024-08-08T14:12:58.000Z</time>
      </trkpt>
      <trkpt lat="45.592572" lon="7.86825">
        <ele>1773.89429</ele>
        <time>2024-08-08T14:13:00.000Z</time>
      </trkpt>
      <trkpt lat="45.592552" lon="7.868218">
        <ele>1773.7594</ele>
        <time>2024-08-08T14:13:02.000Z</time>
      </trkpt>
      <trkpt lat="45.592528" lon="7.868187">
        <ele>1773.64941</ele>
        <time>2024-08-08T14:13:04.000Z</time>
      </trkpt>
      <trkpt lat="45.59251" lon="7.868168">
        <ele>1773.55432</ele>
        <time>2024-08-08T14:13:05.000Z</time>
      </trkpt>
      <trkpt lat="45.592487" lon="7.86815">
        <ele>1773.46423</ele>
        <time>2024-08-08T14:13:06.000Z</time>
      </trkpt>
      <trkpt lat="45.592463" lon="7.868132">
        <ele>1773.37927</ele>
        <time>2024-08-08T14:13:07.000Z</time>
      </trkpt>
      <trkpt lat="45.59244" lon="7.868123">
        <ele>1773.29944</ele>
        <time>2024-08-08T14:13:08.000Z</time>
      </trkpt>
      <trkpt lat="45.592418" lon="7.868115">
        <ele>1773.20935</ele>
        <time>2024-08-08T14:13:09.000Z</time>
      </trkpt>
      <trkpt lat="45.592385" lon="7.868117">
        <ele>1773.1145</ele>
        <time>2024-08-08T14:13:11.000Z</time>
      </trkpt>
      <trkpt lat="45.59236" lon="7.868107">
        <ele>1773.06445</ele>
        <time>2024-08-08T14:13:13.000Z</time>
      </trkpt>
      <trkpt lat="45.592337" lon="7.868097">
        <ele>1773.03943</ele>
        <time>2024-08-08T14:13:15.000Z</time>
      </trkpt>
      <trkpt lat="45.592317" lon="7.868077">
        <ele>1772.97949</ele>
        <time>2024-08-08T14:13:17.000Z</time>
      </trkpt>
      <trkpt lat="45.592288" lon="7.868073">
        <ele>1772.93945</ele>
        <time>2024-08-08T14:13:19.000Z</time>
      </trkpt>
      <trkpt lat="45.59227" lon="7.868073">
        <ele>1772.93457</ele>
        <time>2024-08-08T14:13:20.000Z</time>
      </trkpt>
      <trkpt lat="45.592233" lon="7.868067">
        <ele>1772.96948</ele>
        <time>2024-08-08T14:13:22.000Z</time>
      </trkpt>
      <trkpt lat="45.592217" lon="7.868055">
        <ele>1773.02466</ele>
        <time>2024-08-08T14:13:23.000Z</time>
      </trkpt>
      <trkpt lat="45.59219" lon="7.868032">
        <ele>1773.03967</ele>
        <time>2024-08-08T14:13:25.000Z</time>
      </trkpt>
      <trkpt lat="45.592172" lon="7.867997">
        <ele>1772.97974</ele>
        <time>2024-08-08T14:13:27.000Z</time>
      </trkpt>
      <trkpt lat="45.592157" lon="7.867962">
        <ele>1772.88452</ele>
        <time>2024-08-08T14:13:29.000Z</time>
      </trkpt>
      <trkpt lat="45.592142" lon="7.867928">
        <ele>1772.73462</ele>
        <time>2024-08-08T14:13:31.000Z</time>
      </trkpt>
      <trkpt lat="45.592128" lon="7.867898">
        <ele>1772.51953</ele>
        <time>2024-08-08T14:13:33.000Z</time>
      </trkpt>
      <trkpt lat="45.592112" lon="7.867878">
        <ele>1772.22949</ele>
        <time>2024-08-08T14:13:35.000Z</time>
      </trkpt>
      <trkpt lat="45.59209" lon="7.867865">
        <ele>1771.90454</ele>
        <time>2024-08-08T14:13:37.000Z</time>
      </trkpt>
      <trkpt lat="45.59207" lon="7.867833">
        <ele>1771.53455</ele>
        <time>2024-08-08T14:13:39.000Z</time>
      </trkpt>
      <trkpt lat="45.592063" lon="7.867797">
        <ele>1771.09961</ele>
        <time>2024-08-08T14:13:41.000Z</time>
      </trkpt>
      <trkpt lat="45.592043" lon="7.867772">
        <ele>1770.61951</ele>
        <time>2024-08-08T14:13:43.000Z</time>
      </trkpt>
      <trkpt lat="45.592023" lon="7.867757">
        <ele>1770.1145</ele>
        <time>2024-08-08T14:13:45.000Z</time>
      </trkpt>
      <trkpt lat="45.591998" lon="7.867743">
        <ele>1769.56934</ele>
        <time>2024-08-08T14:13:47.000Z</time>
      </trkpt>
      <trkpt lat="45.591973" lon="7.867722">
        <ele>1768.94434</ele>
        <time>2024-08-08T14:13:49.000Z</time>
      </trkpt>
      <trkpt lat="45.591955" lon="7.867695">
        <ele>1768.25427</ele>
        <time>2024-08-08T14:13:51.000Z</time>
      </trkpt>
      <trkpt lat="45.591938" lon="7.867665">
        <ele>1767.54944</ele>
        <time>2024-08-08T14:13:53.000Z</time>
      </trkpt>
      <trkpt lat="45.59192" lon="7.867635">
        <ele>1766.85425</ele>
        <time>2024-08-08T14:13:55.000Z</time>
      </trkpt>
      <trkpt lat="45.591902" lon="7.86761">
        <ele>1766.1344</ele>
        <time>2024-08-08T14:13:57.000Z</time>
      </trkpt>
      <trkpt lat="45.591872" lon="7.86759">
        <ele>1765.3844</ele>
        <time>2024-08-08T14:13:59.000Z</time>
      </trkpt>
      <trkpt lat="45.591848" lon="7.867568">
        <ele>1764.60425</ele>
        <time>2024-08-08T14:14:01.000Z</time>
      </trkpt>
      <trkpt lat="45.591835" lon="7.867543">
        <ele>1763.82422</ele>
        <time>2024-08-08T14:14:03.000Z</time>
      </trkpt>
      <trkpt lat="45.591818" lon="7.867513">
        <ele>1763.0592</ele>
        <time>2024-08-08T14:14:05.000Z</time>
      </trkpt>
      <trkpt lat="45.591805" lon="7.867478">
        <ele>1762.34412</ele>
        <time>2024-08-08T14:14:07.000Z</time>
      </trkpt>
      <trkpt lat="45.591782" lon="7.867452">
        <ele>1761.63416</ele>
        <time>2024-08-08T14:14:09.000Z</time>
      </trkpt>
      <trkpt lat="45.591763" lon="7.867423">
        <ele>1760.94922</ele>
        <time>2024-08-08T14:14:11.000Z</time>
      </trkpt>
      <trkpt lat="45.591737" lon="7.867395">
        <ele>1760.32935</ele>
        <time>2024-08-08T14:14:13.000Z</time>
      </trkpt>
      <trkpt lat="45.591708" lon="7.867378">
        <ele>1759.76929</ele>
        <time>2024-08-08T14:14:15.000Z</time>
      </trkpt>
      <trkpt lat="45.591682" lon="7.867352">
        <ele>1759.20935</ele>
        <time>2024-08-08T14:14:17.000Z</time>
      </trkpt>
      <trkpt lat="45.591662" lon="7.867325">
        <ele>1758.66931</ele>
        <time>2024-08-08T14:14:19.000Z</time>
      </trkpt>
      <trkpt lat="45.591637" lon="7.867303">
        <ele>1758.17419</ele>
        <time>2024-08-08T14:14:21.000Z</time>
      </trkpt>
      <trkpt lat="45.591622" lon="7.867287">
        <ele>1757.6842</ele>
        <time>2024-08-08T14:14:23.000Z</time>
      </trkpt>
      <trkpt lat="45.591602" lon="7.867273">
        <ele>1757.19409</ele>
        <time>2024-08-08T14:14:26.000Z</time>
      </trkpt>
      <trkpt lat="45.59158" lon="7.867245">
        <ele>1756.71423</ele>
        <time>2024-08-08T14:14:28.000Z</time>
      </trkpt>
      <trkpt lat="45.591565" lon="7.867223">
        <ele>1756.29419</ele>
        <time>2024-08-08T14:14:29.000Z</time>
      </trkpt>
      <trkpt lat="45.591553" lon="7.867203">
        <ele>1755.89417</ele>
        <time>2024-08-08T14:14:30.000Z</time>
      </trkpt>
      <trkpt lat="45.591543" lon="7.867165">
        <ele>1755.4541</ele>
        <time>2024-08-08T14:14:32.000Z</time>
      </trkpt>
      <trkpt lat="45.591545" lon="7.867128">
        <ele>1754.97913</ele>
        <time>2024-08-08T14:14:34.000Z</time>
      </trkpt>
      <trkpt lat="45.591538" lon="7.867095">
        <ele>1754.49902</ele>
        <time>2024-08-08T14:14:36.000Z</time>
      </trkpt>
      <trkpt lat="45.591532" lon="7.867062">
        <ele>1754.00903</ele>
        <time>2024-08-08T14:14:38.000Z</time>
      </trkpt>
      <trkpt lat="45.591523" lon="7.867025">
        <ele>1753.49902</ele>
        <time>2024-08-08T14:14:40.000Z</time>
      </trkpt>
      <trkpt lat="45.591515" lon="7.867002">
        <ele>1753.01404</ele>
        <time>2024-08-08T14:14:41.000Z</time>
      </trkpt>
      <trkpt lat="45.59151" lon="7.866972">
        <ele>1752.56409</ele>
        <time>2024-08-08T14:14:42.000Z</time>
      </trkpt>
      <trkpt lat="45.591497" lon="7.866923">
        <ele>1752.13904</ele>
        <time>2024-08-08T14:14:44.000Z</time>
      </trkpt>
      <trkpt lat="45.591495" lon="7.866895">
        <ele>1751.73413</ele>
        <time>2024-08-08T14:14:45.000Z</time>
      </trkpt>
      <trkpt lat="45.591492" lon="7.866848">
        <ele>1751.27905</ele>
        <time>2024-08-08T14:14:47.000Z</time>
      </trkpt>
      <trkpt lat="45.591488" lon="7.866802">
        <ele>1750.77405</ele>
        <time>2024-08-08T14:14:49.000Z</time>
      </trkpt>
      <trkpt lat="45.59148" lon="7.866763">
        <ele>1750.23901</ele>
        <time>2024-08-08T14:14:51.000Z</time>
      </trkpt>
      <trkpt lat="45.591478" lon="7.86673">
        <ele>1749.73401</ele>
        <time>2024-08-08T14:14:53.000Z</time>
      </trkpt>
      <trkpt lat="45.59148" lon="7.866695">
        <ele>1749.21899</ele>
        <time>2024-08-08T14:14:55.000Z</time>
      </trkpt>
      <trkpt lat="45.591473" lon="7.866662">
        <ele>1748.67407</ele>
        <time>2024-08-08T14:14:57.000Z</time>
      </trkpt>
      <trkpt lat="45.591472" lon="7.866628">
        <ele>1748.15405</ele>
        <time>2024-08-08T14:14:59.000Z</time>
      </trkpt>
      <trkpt lat="45.591447" lon="7.866605">
        <ele>1747.66406</ele>
        <time>2024-08-08T14:15:02.000Z</time>
      </trkpt>
      <trkpt lat="45.591427" lon="7.86658">
        <ele>1747.2041</ele>
        <time>2024-08-08T14:15:04.000Z</time>
      </trkpt>
      <trkpt lat="45.591407" lon="7.866552">
        <ele>1746.75916</ele>
        <time>2024-08-08T14:15:06.000Z</time>
      </trkpt>
      <trkpt lat="45.591393" lon="7.866532">
        <ele>1746.35413</ele>
        <time>2024-08-08T14:15:07.000Z</time>
      </trkpt>
      <trkpt lat="45.591377" lon="7.866517">
        <ele>1746.01917</ele>
        <time>2024-08-08T14:15:08.000Z</time>
      </trkpt>
      <trkpt lat="45.591352" lon="7.866488">
        <ele>1745.77417</ele>
        <time>2024-08-08T14:15:10.000Z</time>
      </trkpt>
      <trkpt lat="45.591333" lon="7.866462">
        <ele>1745.55432</ele>
        <time>2024-08-08T14:15:12.000Z</time>
      </trkpt>
      <trkpt lat="45.591312" lon="7.866437">
        <ele>1745.38928</ele>
        <time>2024-08-08T14:15:14.000Z</time>
      </trkpt>
      <trkpt lat="45.591287" lon="7.866418">
        <ele>1745.25427</ele>
        <time>2024-08-08T14:15:16.000Z</time>
      </trkpt>
      <trkpt lat="45.591263" lon="7.866388">
        <ele>1745.06421</ele>
        <time>2024-08-08T14:15:18.000Z</time>
      </trkpt>
      <trkpt lat="45.591247" lon="7.86636">
        <ele>1744.83923</ele>
        <time>2024-08-08T14:15:20.000Z</time>
      </trkpt>
      <trkpt lat="45.591223" lon="7.866333">
        <ele>1744.59924</ele>
        <time>2024-08-08T14:15:22.000Z</time>
      </trkpt>
      <trkpt lat="45.591203" lon="7.866308">
        <ele>1744.35413</ele>
        <time>2024-08-08T14:15:24.000Z</time>
      </trkpt>
      <trkpt lat="45.591193" lon="7.866273">
        <ele>1744.16919</ele>
        <time>2024-08-08T14:15:26.000Z</time>
      </trkpt>
      <trkpt lat="45.591183" lon="7.866242">
        <ele>1744.02417</ele>
        <time>2024-08-08T14:15:28.000Z</time>
      </trkpt>
      <trkpt lat="45.591168" lon="7.866215">
        <ele>1743.86914</ele>
        <time>2024-08-08T14:15:30.000Z</time>
      </trkpt>
      <trkpt lat="45.591157" lon="7.866195">
        <ele>1743.69409</ele>
        <time>2024-08-08T14:15:31.000Z</time>
      </trkpt>
      <trkpt lat="45.59113" lon="7.866165">
        <ele>1743.54419</ele>
        <time>2024-08-08T14:15:33.000Z</time>
      </trkpt>
      <trkpt lat="45.591103" lon="7.866135">
        <ele>1743.44409</ele>
        <time>2024-08-08T14:15:35.000Z</time>
      </trkpt>
      <trkpt lat="45.591077" lon="7.866102">
        <ele>1743.36914</ele>
        <time>2024-08-08T14:15:37.000Z</time>
      </trkpt>
      <trkpt lat="45.591062" lon="7.866085">
        <ele>1743.28418</ele>
        <time>2024-08-08T14:15:38.000Z</time>
      </trkpt>
      <trkpt lat="45.59105" lon="7.866065">
        <ele>1743.17908</ele>
        <time>2024-08-08T14:15:39.000Z</time>
      </trkpt>
      <trkpt lat="45.591035" lon="7.866023">
        <ele>1743.0791</ele>
        <time>2024-08-08T14:15:41.000Z</time>
      </trkpt>
      <trkpt lat="45.591018" lon="7.865997">
        <ele>1742.97424</ele>
        <time>2024-08-08T14:15:43.000Z</time>
      </trkpt>
      <trkpt lat="45.591007" lon="7.865962">
        <ele>1742.85913</ele>
        <time>2024-08-08T14:15:45.000Z</time>
      </trkpt>
      <trkpt lat="45.590993" lon="7.86593">
        <ele>1742.72913</ele>
        <time>2024-08-08T14:15:47.000Z</time>
      </trkpt>
      <trkpt lat="45.59098" lon="7.865892">
        <ele>1742.599</ele>
        <time>2024-08-08T14:15:49.000Z</time>
      </trkpt>
      <trkpt lat="45.590977" lon="7.865865">
        <ele>1742.42407</ele>
        <time>2024-08-08T14:15:50.000Z</time>
      </trkpt>
      <trkpt lat="45.590957" lon="7.865828">
        <ele>1742.224</ele>
        <time>2024-08-08T14:15:52.000Z</time>
      </trkpt>
      <trkpt lat="45.590933" lon="7.8658">
        <ele>1742.05408</ele>
        <time>2024-08-08T14:15:54.000Z</time>
      </trkpt>
      <trkpt lat="45.590918" lon="7.865783">
        <ele>1741.91406</ele>
        <time>2024-08-08T14:15:55.000Z</time>
      </trkpt>
      <trkpt lat="45.590893" lon="7.865758">
        <ele>1741.77905</ele>
        <time>2024-08-08T14:15:57.000Z</time>
      </trkpt>
      <trkpt lat="45.590865" lon="7.86575">
        <ele>1741.65918</ele>
        <time>2024-08-08T14:15:59.000Z</time>
      </trkpt>
      <trkpt lat="45.590852" lon="7.865723">
        <ele>1741.51428</ele>
        <time>2024-08-08T14:16:01.000Z</time>
      </trkpt>
      <trkpt lat="45.590833" lon="7.865695">
        <ele>1741.32935</ele>
        <time>2024-08-08T14:16:03.000Z</time>
      </trkpt>
      <trkpt lat="45.590812" lon="7.865672">
        <ele>1741.12927</ele>
        <time>2024-08-08T14:16:05.000Z</time>
      </trkpt>
      <trkpt lat="45.590795" lon="7.865658">
        <ele>1740.86938</ele>
        <time>2024-08-08T14:16:07.000Z</time>
      </trkpt>
      <trkpt lat="45.590777" lon="7.865643">
        <ele>1740.55933</ele>
        <time>2024-08-08T14:16:09.000Z</time>
      </trkpt>
      <trkpt lat="45.590755" lon="7.865618">
        <ele>1740.18945</ele>
        <time>2024-08-08T14:16:11.000Z</time>
      </trkpt>
      <trkpt lat="45.590743" lon="7.865592">
        <ele>1739.73438</ele>
        <time>2024-08-08T14:16:13.000Z</time>
      </trkpt>
      <trkpt lat="45.590723" lon="7.865567">
        <ele>1739.2395</ele>
        <time>2024-08-08T14:16:15.000Z</time>
      </trkpt>
      <trkpt lat="45.590708" lon="7.865535">
        <ele>1738.68433</ele>
        <time>2024-08-08T14:16:17.000Z</time>
      </trkpt>
      <trkpt lat="45.590695" lon="7.865507">
        <ele>1738.08948</ele>
        <time>2024-08-08T14:16:19.000Z</time>
      </trkpt>
      <trkpt lat="45.59068" lon="7.865468">
        <ele>1737.44946</ele>
        <time>2024-08-08T14:16:21.000Z</time>
      </trkpt>
      <trkpt lat="45.590665" lon="7.865427">
        <ele>1736.7395</ele>
        <time>2024-08-08T14:16:23.000Z</time>
      </trkpt>
      <trkpt lat="45.59066" lon="7.865398">
        <ele>1735.97949</ele>
        <time>2024-08-08T14:16:25.000Z</time>
      </trkpt>
      <trkpt lat="45.59065" lon="7.865368">
        <ele>1735.22461</ele>
        <time>2024-08-08T14:16:28.000Z</time>
      </trkpt>
      <trkpt lat="45.590637" lon="7.865328">
        <ele>1734.54468</ele>
        <time>2024-08-08T14:16:30.000Z</time>
      </trkpt>
      <trkpt lat="45.590625" lon="7.865297">
        <ele>1733.91467</ele>
        <time>2024-08-08T14:16:31.000Z</time>
      </trkpt>
      <trkpt lat="45.590608" lon="7.865272">
        <ele>1733.30469</ele>
        <time>2024-08-08T14:16:32.000Z</time>
      </trkpt>
      <trkpt lat="45.590592" lon="7.865255">
        <ele>1732.6897</ele>
        <time>2024-08-08T14:16:33.000Z</time>
      </trkpt>
      <trkpt lat="45.590578" lon="7.865235">
        <ele>1732.0647</ele>
        <time>2024-08-08T14:16:34.000Z</time>
      </trkpt>
      <trkpt lat="45.590555" lon="7.865213">
        <ele>1731.38452</ele>
        <time>2024-08-08T14:16:36.000Z</time>
      </trkpt>
      <trkpt lat="45.590542" lon="7.865185">
        <ele>1730.65454</ele>
        <time>2024-08-08T14:16:38.000Z</time>
      </trkpt>
      <trkpt lat="45.59053" lon="7.865153">
        <ele>1729.90942</ele>
        <time>2024-08-08T14:16:40.000Z</time>
      </trkpt>
      <trkpt lat="45.590518" lon="7.86513">
        <ele>1729.16443</ele>
        <time>2024-08-08T14:16:41.000Z</time>
      </trkpt>
      <trkpt lat="45.590505" lon="7.865085">
        <ele>1728.45935</ele>
        <time>2024-08-08T14:16:43.000Z</time>
      </trkpt>
      <trkpt lat="45.590498" lon="7.86504">
        <ele>1727.78943</ele>
        <time>2024-08-08T14:16:45.000Z</time>
      </trkpt>
      <trkpt lat="45.590492" lon="7.865005">
        <ele>1727.1543</ele>
        <time>2024-08-08T14:16:47.000Z</time>
      </trkpt>
      <trkpt lat="45.590488" lon="7.86497">
        <ele>1726.53442</ele>
        <time>2024-08-08T14:16:49.000Z</time>
      </trkpt>
      <trkpt lat="45.590488" lon="7.864943">
        <ele>1725.92932</ele>
        <time>2024-08-08T14:16:51.000Z</time>
      </trkpt>
      <trkpt lat="45.590477" lon="7.864963">
        <ele>1725.45935</ele>
        <time>2024-08-08T14:16:54.000Z</time>
      </trkpt>
      <trkpt lat="45.590495" lon="7.864913">
        <ele>1724.98438</ele>
        <time>2024-08-08T14:17:20.000Z</time>
      </trkpt>
      <trkpt lat="45.590488" lon="7.86488">
        <ele>1724.59937</ele>
        <time>2024-08-08T14:17:22.000Z</time>
      </trkpt>
      <trkpt lat="45.590473" lon="7.864845">
        <ele>1724.31445</ele>
        <time>2024-08-08T14:17:24.000Z</time>
      </trkpt>
      <trkpt lat="45.590458" lon="7.86482">
        <ele>1724.14453</ele>
        <time>2024-08-08T14:17:26.000Z</time>
      </trkpt>
      <trkpt lat="45.590437" lon="7.864793">
        <ele>1724.03943</ele>
        <time>2024-08-08T14:17:28.000Z</time>
      </trkpt>
      <trkpt lat="45.590408" lon="7.864767">
        <ele>1723.91956</ele>
        <time>2024-08-08T14:17:30.000Z</time>
      </trkpt>
      <trkpt lat="45.590387" lon="7.864733">
        <ele>1723.82458</ele>
        <time>2024-08-08T14:17:32.000Z</time>
      </trkpt>
      <trkpt lat="45.59037" lon="7.86471">
        <ele>1723.76953</ele>
        <time>2024-08-08T14:17:34.000Z</time>
      </trkpt>
      <trkpt lat="45.59036" lon="7.864685">
        <ele>1723.69958</ele>
        <time>2024-08-08T14:17:36.000Z</time>
      </trkpt>
      <trkpt lat="45.590343" lon="7.864663">
        <ele>1723.61975</ele>
        <time>2024-08-08T14:17:38.000Z</time>
      </trkpt>
      <trkpt lat="45.590332" lon="7.864632">
        <ele>1723.57483</ele>
        <time>2024-08-08T14:17:40.000Z</time>
      </trkpt>
      <trkpt lat="45.590328" lon="7.864597">
        <ele>1723.57983</ele>
        <time>2024-08-08T14:17:42.000Z</time>
      </trkpt>
      <trkpt lat="45.590317" lon="7.864568">
        <ele>1723.61987</ele>
        <time>2024-08-08T14:17:44.000Z</time>
      </trkpt>
      <trkpt lat="45.590302" lon="7.864532">
        <ele>1723.67505</ele>
        <time>2024-08-08T14:17:46.000Z</time>
      </trkpt>
      <trkpt lat="45.590292" lon="7.86449">
        <ele>1723.71509</ele>
        <time>2024-08-08T14:17:48.000Z</time>
      </trkpt>
      <trkpt lat="45.590283" lon="7.86446">
        <ele>1723.73511</ele>
        <time>2024-08-08T14:17:50.000Z</time>
      </trkpt>
      <trkpt lat="45.590277" lon="7.864428">
        <ele>1723.71521</ele>
        <time>2024-08-08T14:17:53.000Z</time>
      </trkpt>
      <trkpt lat="45.590268" lon="7.864398">
        <ele>1723.75024</ele>
        <time>2024-08-08T14:17:55.000Z</time>
      </trkpt>
      <trkpt lat="45.590262" lon="7.864368">
        <ele>1723.8252</ele>
        <time>2024-08-08T14:17:57.000Z</time>
      </trkpt>
      <trkpt lat="45.590253" lon="7.864327">
        <ele>1723.86523</ele>
        <time>2024-08-08T14:17:59.000Z</time>
      </trkpt>
      <trkpt lat="45.590242" lon="7.864292">
        <ele>1723.98022</ele>
        <time>2024-08-08T14:18:01.000Z</time>
      </trkpt>
      <trkpt lat="45.590227" lon="7.864263">
        <ele>1724.07544</ele>
        <time>2024-08-08T14:18:03.000Z</time>
      </trkpt>
      <trkpt lat="45.590227" lon="7.864237">
        <ele>1724.20044</ele>
        <time>2024-08-08T14:18:05.000Z</time>
      </trkpt>
      <trkpt lat="45.590215" lon="7.8642">
        <ele>1724.31543</ele>
        <time>2024-08-08T14:18:08.000Z</time>
      </trkpt>
      <trkpt lat="45.5902" lon="7.864165">
        <ele>1724.41052</ele>
        <time>2024-08-08T14:18:10.000Z</time>
      </trkpt>
      <trkpt lat="45.590182" lon="7.864135">
        <ele>1724.44556</ele>
        <time>2024-08-08T14:18:12.000Z</time>
      </trkpt>
      <trkpt lat="45.590167" lon="7.864108">
        <ele>1724.42053</ele>
        <time>2024-08-08T14:18:14.000Z</time>
      </trkpt>
      <trkpt lat="45.590157" lon="7.864082">
        <ele>1724.36548</ele>
        <time>2024-08-08T14:18:16.000Z</time>
      </trkpt>
      <trkpt lat="45.590152" lon="7.864038">
        <ele>1724.31543</ele>
        <time>2024-08-08T14:18:18.000Z</time>
      </trkpt>
      <trkpt lat="45.590148" lon="7.863993">
        <ele>1724.27539</ele>
        <time>2024-08-08T14:18:20.000Z</time>
      </trkpt>
      <trkpt lat="45.590148" lon="7.863967">
        <ele>1724.25525</ele>
        <time>2024-08-08T14:18:21.000Z</time>
      </trkpt>
      <trkpt lat="45.59013" lon="7.863927">
        <ele>1724.28027</ele>
        <time>2024-08-08T14:18:23.000Z</time>
      </trkpt>
      <trkpt lat="45.590117" lon="7.863892">
        <ele>1724.33032</ele>
        <time>2024-08-08T14:18:25.000Z</time>
      </trkpt>
      <trkpt lat="45.590102" lon="7.86386">
        <ele>1724.4303</ele>
        <time>2024-08-08T14:18:27.000Z</time>
      </trkpt>
      <trkpt lat="45.590088" lon="7.863832">
        <ele>1724.5553</ele>
        <time>2024-08-08T14:18:29.000Z</time>
      </trkpt>
      <trkpt lat="45.590072" lon="7.863797">
        <ele>1724.65015</ele>
        <time>2024-08-08T14:18:31.000Z</time>
      </trkpt>
      <trkpt lat="45.590057" lon="7.863767">
        <ele>1724.68518</ele>
        <time>2024-08-08T14:18:33.000Z</time>
      </trkpt>
      <trkpt lat="45.590042" lon="7.863738">
        <ele>1724.64514</ele>
        <time>2024-08-08T14:18:36.000Z</time>
      </trkpt>
      <trkpt lat="45.590032" lon="7.863712">
        <ele>1724.56018</ele>
        <time>2024-08-08T14:18:38.000Z</time>
      </trkpt>
      <trkpt lat="45.590022" lon="7.863682">
        <ele>1724.41504</ele>
        <time>2024-08-08T14:18:40.000Z</time>
      </trkpt>
      <trkpt lat="45.590005" lon="7.86365">
        <ele>1724.22498</ele>
        <time>2024-08-08T14:18:42.000Z</time>
      </trkpt>
      <trkpt lat="45.589985" lon="7.863613">
        <ele>1723.98499</ele>
        <time>2024-08-08T14:18:44.000Z</time>
      </trkpt>
      <trkpt lat="45.589965" lon="7.86358">
        <ele>1723.69006</ele>
        <time>2024-08-08T14:18:46.000Z</time>
      </trkpt>
      <trkpt lat="45.589952" lon="7.863562">
        <ele>1723.33008</ele>
        <time>2024-08-08T14:18:48.000Z</time>
      </trkpt>
      <trkpt lat="45.589935" lon="7.863545">
        <ele>1722.92505</ele>
        <time>2024-08-08T14:18:50.000Z</time>
      </trkpt>
      <trkpt lat="45.589903" lon="7.863532">
        <ele>1722.55994</ele>
        <time>2024-08-08T14:18:52.000Z</time>
      </trkpt>
      <trkpt lat="45.589887" lon="7.863522">
        <ele>1722.23987</ele>
        <time>2024-08-08T14:18:53.000Z</time>
      </trkpt>
      <trkpt lat="45.58986" lon="7.863515">
        <ele>1721.91992</ele>
        <time>2024-08-08T14:18:55.000Z</time>
      </trkpt>
      <trkpt lat="45.58984" lon="7.863502">
        <ele>1721.69495</ele>
        <time>2024-08-08T14:18:57.000Z</time>
      </trkpt>
      <trkpt lat="45.589813" lon="7.863487">
        <ele>1721.53979</ele>
        <time>2024-08-08T14:19:00.000Z</time>
      </trkpt>
      <trkpt lat="45.589788" lon="7.863478">
        <ele>1721.38989</ele>
        <time>2024-08-08T14:19:02.000Z</time>
      </trkpt>
      <trkpt lat="45.589772" lon="7.863467">
        <ele>1721.24976</ele>
        <time>2024-08-08T14:19:04.000Z</time>
      </trkpt>
      <trkpt lat="45.58975" lon="7.86346">
        <ele>1721.08472</ele>
        <time>2024-08-08T14:19:06.000Z</time>
      </trkpt>
      <trkpt lat="45.589722" lon="7.863445">
        <ele>1720.85474</ele>
        <time>2024-08-08T14:19:08.000Z</time>
      </trkpt>
      <trkpt lat="45.589695" lon="7.86343">
        <ele>1720.59985</ele>
        <time>2024-08-08T14:19:10.000Z</time>
      </trkpt>
      <trkpt lat="45.589658" lon="7.863418">
        <ele>1720.39978</ele>
        <time>2024-08-08T14:19:12.000Z</time>
      </trkpt>
      <trkpt lat="45.589642" lon="7.863408">
        <ele>1720.29492</ele>
        <time>2024-08-08T14:19:13.000Z</time>
      </trkpt>
      <trkpt lat="45.589618" lon="7.863383">
        <ele>1720.27502</ele>
        <time>2024-08-08T14:19:15.000Z</time>
      </trkpt>
      <trkpt lat="45.589597" lon="7.86336">
        <ele>1720.29004</ele>
        <time>2024-08-08T14:19:17.000Z</time>
      </trkpt>
      <trkpt lat="45.589577" lon="7.863337">
        <ele>1720.30994</ele>
        <time>2024-08-08T14:19:19.000Z</time>
      </trkpt>
      <trkpt lat="45.589567" lon="7.863315">
        <ele>1720.34497</ele>
        <time>2024-08-08T14:19:20.000Z</time>
      </trkpt>
      <trkpt lat="45.589545" lon="7.863277">
        <ele>1720.38501</ele>
        <time>2024-08-08T14:19:22.000Z</time>
      </trkpt>
      <trkpt lat="45.58953" lon="7.863252">
        <ele>1720.41992</ele>
        <time>2024-08-08T14:19:24.000Z</time>
      </trkpt>
      <trkpt lat="45.589513" lon="7.863232">
        <ele>1720.49487</ele>
        <time>2024-08-08T14:19:26.000Z</time>
      </trkpt>
      <trkpt lat="45.5895" lon="7.863207">
        <ele>1720.59998</ele>
        <time>2024-08-08T14:19:28.000Z</time>
      </trkpt>
      <trkpt lat="45.589485" lon="7.863183">
        <ele>1720.71997</ele>
        <time>2024-08-08T14:19:30.000Z</time>
      </trkpt>
      <trkpt lat="45.58947" lon="7.863155">
        <ele>1720.80493</ele>
        <time>2024-08-08T14:19:32.000Z</time>
      </trkpt>
      <trkpt lat="45.589455" lon="7.863132">
        <ele>1720.84985</ele>
        <time>2024-08-08T14:19:34.000Z</time>
      </trkpt>
      <trkpt lat="45.589442" lon="7.863103">
        <ele>1720.81482</ele>
        <time>2024-08-08T14:19:36.000Z</time>
      </trkpt>
      <trkpt lat="45.589428" lon="7.863068">
        <ele>1720.72986</ele>
        <time>2024-08-08T14:19:38.000Z</time>
      </trkpt>
      <trkpt lat="45.589413" lon="7.863035">
        <ele>1720.64978</ele>
        <time>2024-08-08T14:19:40.000Z</time>
      </trkpt>
      <trkpt lat="45.589393" lon="7.863005">
        <ele>1720.57483</ele>
        <time>2024-08-08T14:19:42.000Z</time>
      </trkpt>
      <trkpt lat="45.589373" lon="7.862982">
        <ele>1720.53979</ele>
        <time>2024-08-08T14:19:44.000Z</time>
      </trkpt>
      <trkpt lat="45.589345" lon="7.862962">
        <ele>1720.48987</ele>
        <time>2024-08-08T14:19:46.000Z</time>
      </trkpt>
      <trkpt lat="45.589327" lon="7.862945">
        <ele>1720.43982</ele>
        <time>2024-08-08T14:19:47.000Z</time>
      </trkpt>
      <trkpt lat="45.589312" lon="7.862928">
        <ele>1720.38477</ele>
        <time>2024-08-08T14:19:48.000Z</time>
      </trkpt>
      <trkpt lat="45.589288" lon="7.8629">
        <ele>1720.33472</ele>
        <time>2024-08-08T14:19:50.000Z</time>
      </trkpt>
      <trkpt lat="45.589263" lon="7.862872">
        <ele>1720.26465</ele>
        <time>2024-08-08T14:19:52.000Z</time>
      </trkpt>
      <trkpt lat="45.589235" lon="7.862843">
        <ele>1720.20959</ele>
        <time>2024-08-08T14:19:54.000Z</time>
      </trkpt>
      <trkpt lat="45.589208" lon="7.862818">
        <ele>1720.18457</ele>
        <time>2024-08-08T14:19:56.000Z</time>
      </trkpt>
      <trkpt lat="45.589193" lon="7.862797">
        <ele>1720.16443</ele>
        <time>2024-08-08T14:19:57.000Z</time>
      </trkpt>
      <trkpt lat="45.589177" lon="7.862778">
        <ele>1720.15942</ele>
        <time>2024-08-08T14:19:58.000Z</time>
      </trkpt>
      <trkpt lat="45.589152" lon="7.86275">
        <ele>1720.18945</ele>
        <time>2024-08-08T14:20:00.000Z</time>
      </trkpt>
      <trkpt lat="45.58913" lon="7.862747">
        <ele>1720.24939</ele>
        <time>2024-08-08T14:20:02.000Z</time>
      </trkpt>
      <trkpt lat="45.589107" lon="7.862728">
        <ele>1720.34937</ele>
        <time>2024-08-08T14:20:05.000Z</time>
      </trkpt>
      <trkpt lat="45.589102" lon="7.862697">
        <ele>1720.43945</ele>
        <time>2024-08-08T14:20:07.000Z</time>
      </trkpt>
      <trkpt lat="45.589095" lon="7.86266">
        <ele>1720.5144</ele>
        <time>2024-08-08T14:20:09.000Z</time>
      </trkpt>
      <trkpt lat="45.589098" lon="7.86263">
        <ele>1720.55444</ele>
        <time>2024-08-08T14:20:12.000Z</time>
      </trkpt>
      <trkpt lat="45.589112" lon="7.862608">
        <ele>1720.53442</ele>
        <time>2024-08-08T14:20:14.000Z</time>
      </trkpt>
      <trkpt lat="45.58913" lon="7.862587">
        <ele>1720.48438</ele>
        <time>2024-08-08T14:20:16.000Z</time>
      </trkpt>
      <trkpt lat="45.58915" lon="7.862572">
        <ele>1720.41431</ele>
        <time>2024-08-08T14:20:18.000Z</time>
      </trkpt>
      <trkpt lat="45.589172" lon="7.862575">
        <ele>1720.2793</ele>
        <time>2024-08-08T14:20:20.000Z</time>
      </trkpt>
      <trkpt lat="45.589185" lon="7.862552">
        <ele>1720.13928</ele>
        <time>2024-08-08T14:20:26.000Z</time>
      </trkpt>
      <trkpt lat="45.589197" lon="7.862522">
        <ele>1719.99927</ele>
        <time>2024-08-08T14:20:29.000Z</time>
      </trkpt>
      <trkpt lat="45.5892" lon="7.862483">
        <ele>1719.80432</ele>
        <time>2024-08-08T14:20:32.000Z</time>
      </trkpt>
      <trkpt lat="45.589203" lon="7.862457">
        <ele>1719.58923</ele>
        <time>2024-08-08T14:20:34.000Z</time>
      </trkpt>
      <trkpt lat="45.589222" lon="7.862433">
        <ele>1719.32935</ele>
        <time>2024-08-08T14:20:36.000Z</time>
      </trkpt>
      <trkpt lat="45.589197" lon="7.862428">
        <ele>1718.91431</ele>
        <time>2024-08-08T14:20:45.000Z</time>
      </trkpt>
      <trkpt lat="45.589185" lon="7.8624">
        <ele>1718.41431</ele>
        <time>2024-08-08T14:20:57.000Z</time>
      </trkpt>
      <trkpt lat="45.589162" lon="7.862395">
        <ele>1717.91431</ele>
        <time>2024-08-08T14:20:59.000Z</time>
      </trkpt>
      <trkpt lat="45.589138" lon="7.862403">
        <ele>1717.38416</ele>
        <time>2024-08-08T14:21:01.000Z</time>
      </trkpt>
      <trkpt lat="45.589117" lon="7.862405">
        <ele>1716.77905</ele>
        <time>2024-08-08T14:21:04.000Z</time>
      </trkpt>
      <trkpt lat="45.589098" lon="7.862407">
        <ele>1716.1842</ele>
        <time>2024-08-08T14:21:06.000Z</time>
      </trkpt>
      <trkpt lat="45.589082" lon="7.862423">
        <ele>1715.5592</ele>
        <time>2024-08-08T14:21:09.000Z</time>
      </trkpt>
      <trkpt lat="45.589062" lon="7.862425">
        <ele>1714.86426</ele>
        <time>2024-08-08T14:21:11.000Z</time>
      </trkpt>
      <trkpt lat="45.58904" lon="7.86242">
        <ele>1714.12927</ele>
        <time>2024-08-08T14:21:20.000Z</time>
      </trkpt>
      <trkpt lat="45.58902" lon="7.862413">
        <ele>1713.41431</ele>
        <time>2024-08-08T14:21:24.000Z</time>
      </trkpt>
      <trkpt lat="45.588995" lon="7.862415">
        <ele>1712.72424</ele>
        <time>2024-08-08T14:21:27.000Z</time>
      </trkpt>
      <trkpt lat="45.588975" lon="7.862412">
        <ele>1712.0592</ele>
        <time>2024-08-08T14:21:32.000Z</time>
      </trkpt>
      <trkpt lat="45.588945" lon="7.862392">
        <ele>1711.38416</ele>
        <time>2024-08-08T14:21:36.000Z</time>
      </trkpt>
      <trkpt lat="45.588928" lon="7.862377">
        <ele>1710.67908</ele>
        <time>2024-08-08T14:21:38.000Z</time>
      </trkpt>
      <trkpt lat="45.588907" lon="7.862367">
        <ele>1709.96912</ele>
        <time>2024-08-08T14:21:40.000Z</time>
      </trkpt>
      <trkpt lat="45.588888" lon="7.862355">
        <ele>1709.1842</ele>
        <time>2024-08-08T14:21:43.000Z</time>
      </trkpt>
      <trkpt lat="45.588867" lon="7.862358">
        <ele>1708.42419</ele>
        <time>2024-08-08T14:21:45.000Z</time>
      </trkpt>
      <trkpt lat="45.588847" lon="7.862365">
        <ele>1707.71936</ele>
        <time>2024-08-08T14:21:47.000Z</time>
      </trkpt>
      <trkpt lat="45.588828" lon="7.862355">
        <ele>1707.07935</ele>
        <time>2024-08-08T14:21:50.000Z</time>
      </trkpt>
      <trkpt lat="45.588807" lon="7.862372">
        <ele>1706.52417</ele>
        <time>2024-08-08T14:21:54.000Z</time>
      </trkpt>
      <trkpt lat="45.588797" lon="7.862402">
        <ele>1706.14417</ele>
        <time>2024-08-08T14:21:56.000Z</time>
      </trkpt>
      <trkpt lat="45.588782" lon="7.862417">
        <ele>1705.84924</ele>
        <time>2024-08-08T14:21:59.000Z</time>
      </trkpt>
      <trkpt lat="45.588762" lon="7.862432">
        <ele>1705.54419</ele>
        <time>2024-08-08T14:22:01.000Z</time>
      </trkpt>
      <trkpt lat="45.58873" lon="7.862443">
        <ele>1705.22913</ele>
        <time>2024-08-08T14:22:04.000Z</time>
      </trkpt>
      <trkpt lat="45.588707" lon="7.862438">
        <ele>1704.93909</ele>
        <time>2024-08-08T14:22:06.000Z</time>
      </trkpt>
      <trkpt lat="45.588688" lon="7.86243">
        <ele>1704.5791</ele>
        <time>2024-08-08T14:22:08.000Z</time>
      </trkpt>
      <trkpt lat="45.588668" lon="7.862407">
        <ele>1704.16919</ele>
        <time>2024-08-08T14:22:10.000Z</time>
      </trkpt>
      <trkpt lat="45.588648" lon="7.862373">
        <ele>1703.74414</ele>
        <time>2024-08-08T14:22:12.000Z</time>
      </trkpt>
      <trkpt lat="45.58864" lon="7.862337">
        <ele>1703.30408</ele>
        <time>2024-08-08T14:22:14.000Z</time>
      </trkpt>
      <trkpt lat="45.58863" lon="7.862312">
        <ele>1702.84412</ele>
        <time>2024-08-08T14:22:16.000Z</time>
      </trkpt>
      <trkpt lat="45.588613" lon="7.862295">
        <ele>1702.37915</ele>
        <time>2024-08-08T14:22:19.000Z</time>
      </trkpt>
      <trkpt lat="45.588595" lon="7.86228">
        <ele>1701.91919</ele>
        <time>2024-08-08T14:22:22.000Z</time>
      </trkpt>
      <trkpt lat="45.588587" lon="7.862255">
        <ele>1701.46411</ele>
        <time>2024-08-08T14:22:25.000Z</time>
      </trkpt>
      <trkpt lat="45.588568" lon="7.862237">
        <ele>1701.03394</ele>
        <time>2024-08-08T14:22:28.000Z</time>
      </trkpt>
      <trkpt lat="45.58856" lon="7.862208">
        <ele>1700.57397</ele>
        <time>2024-08-08T14:22:33.000Z</time>
      </trkpt>
      <trkpt lat="45.588572" lon="7.862178">
        <ele>1700.09412</ele>
        <time>2024-08-08T14:22:37.000Z</time>
      </trkpt>
      <trkpt lat="45.588585" lon="7.86216">
        <ele>1699.53906</ele>
        <time>2024-08-08T14:22:40.000Z</time>
      </trkpt>
      <trkpt lat="45.588602" lon="7.862138">
        <ele>1698.94409</ele>
        <time>2024-08-08T14:22:43.000Z</time>
      </trkpt>
      <trkpt lat="45.588603" lon="7.86211">
        <ele>1698.27417</ele>
        <time>2024-08-08T14:22:46.000Z</time>
      </trkpt>
      <trkpt lat="45.58862" lon="7.862023">
        <ele>1697.38416</ele>
        <time>2024-08-08T14:22:58.000Z</time>
      </trkpt>
      <trkpt lat="45.588627" lon="7.861997">
        <ele>1696.46912</ele>
        <time>2024-08-08T14:23:00.000Z</time>
      </trkpt>
      <trkpt lat="45.588632" lon="7.861972">
        <ele>1695.49902</ele>
        <time>2024-08-08T14:23:02.000Z</time>
      </trkpt>
      <trkpt lat="45.588642" lon="7.86195">
        <ele>1694.51917</ele>
        <time>2024-08-08T14:23:04.000Z</time>
      </trkpt>
      <trkpt lat="45.58865" lon="7.861912">
        <ele>1693.56409</ele>
        <time>2024-08-08T14:23:07.000Z</time>
      </trkpt>
      <trkpt lat="45.588662" lon="7.861887">
        <ele>1692.63403</ele>
        <time>2024-08-08T14:23:11.000Z</time>
      </trkpt>
      <trkpt lat="45.588682" lon="7.861873">
        <ele>1691.66895</ele>
        <time>2024-08-08T14:23:15.000Z</time>
      </trkpt>
      <trkpt lat="45.5887" lon="7.861853">
        <ele>1690.71387</ele>
        <time>2024-08-08T14:23:18.000Z</time>
      </trkpt>
      <trkpt lat="45.588727" lon="7.861822">
        <ele>1689.79395</ele>
        <time>2024-08-08T14:23:25.000Z</time>
      </trkpt>
      <trkpt lat="45.588745" lon="7.861802">
        <ele>1688.85388</ele>
        <time>2024-08-08T14:23:29.000Z</time>
      </trkpt>
      <trkpt lat="45.588762" lon="7.861787">
        <ele>1687.90393</ele>
        <time>2024-08-08T14:23:32.000Z</time>
      </trkpt>
      <trkpt lat="45.588782" lon="7.861778">
        <ele>1686.97888</ele>
        <time>2024-08-08T14:23:35.000Z</time>
      </trkpt>
      <trkpt lat="45.5888" lon="7.861763">
        <ele>1686.03882</ele>
        <time>2024-08-08T14:23:39.000Z</time>
      </trkpt>
      <trkpt lat="45.58881" lon="7.861732">
        <ele>1685.07385</ele>
        <time>2024-08-08T14:23:42.000Z</time>
      </trkpt>
      <trkpt lat="45.58882" lon="7.861707">
        <ele>1684.09888</ele>
        <time>2024-08-08T14:23:45.000Z</time>
      </trkpt>
      <trkpt lat="45.588828" lon="7.86167">
        <ele>1683.15393</ele>
        <time>2024-08-08T14:23:50.000Z</time>
      </trkpt>
      <trkpt lat="45.588843" lon="7.861652">
        <ele>1682.22888</ele>
        <time>2024-08-08T14:23:53.000Z</time>
      </trkpt>
      <trkpt lat="45.588843" lon="7.861625">
        <ele>1681.32385</ele>
        <time>2024-08-08T14:23:57.000Z</time>
      </trkpt>
      <trkpt lat="45.588823" lon="7.861612">
        <ele>1680.44397</ele>
        <time>2024-08-08T14:24:01.000Z</time>
      </trkpt>
      <trkpt lat="45.588795" lon="7.861613">
        <ele>1679.60901</ele>
        <time>2024-08-08T14:24:04.000Z</time>
      </trkpt>
      <trkpt lat="45.58879" lon="7.861588">
        <ele>1678.98901</ele>
        <time>2024-08-08T14:24:08.000Z</time>
      </trkpt>
      <trkpt lat="45.588765" lon="7.861595">
        <ele>1678.39417</ele>
        <time>2024-08-08T14:24:12.000Z</time>
      </trkpt>
      <trkpt lat="45.58872" lon="7.861552">
        <ele>1677.75415</ele>
        <time>2024-08-08T14:24:25.000Z</time>
      </trkpt>
      <trkpt lat="45.5887" lon="7.861548">
        <ele>1677.0791</ele>
        <time>2024-08-08T14:24:28.000Z</time>
      </trkpt>
      <trkpt lat="45.588707" lon="7.86152">
        <ele>1676.35413</ele>
        <time>2024-08-08T14:24:32.000Z</time>
      </trkpt>
      <trkpt lat="45.588708" lon="7.861493">
        <ele>1675.62915</ele>
        <time>2024-08-08T14:24:34.000Z</time>
      </trkpt>
      <trkpt lat="45.588717" lon="7.861463">
        <ele>1674.9342</ele>
        <time>2024-08-08T14:24:36.000Z</time>
      </trkpt>
      <trkpt lat="45.588727" lon="7.861428">
        <ele>1674.19409</ele>
        <time>2024-08-08T14:24:38.000Z</time>
      </trkpt>
      <trkpt lat="45.588717" lon="7.861403">
        <ele>1673.37915</ele>
        <time>2024-08-08T14:24:43.000Z</time>
      </trkpt>
      <trkpt lat="45.588707" lon="7.861378">
        <ele>1672.57397</ele>
        <time>2024-08-08T14:24:47.000Z</time>
      </trkpt>
      <trkpt lat="45.588715" lon="7.861348">
        <ele>1671.76404</ele>
        <time>2024-08-08T14:24:50.000Z</time>
      </trkpt>
      <trkpt lat="45.588735" lon="7.861323">
        <ele>1670.91919</ele>
        <time>2024-08-08T14:24:53.000Z</time>
      </trkpt>
      <trkpt lat="45.588758" lon="7.861312">
        <ele>1670.08911</ele>
        <time>2024-08-08T14:24:55.000Z</time>
      </trkpt>
      <trkpt lat="45.588778" lon="7.861295">
        <ele>1669.25903</ele>
        <time>2024-08-08T14:24:57.000Z</time>
      </trkpt>
      <trkpt lat="45.5888" lon="7.861275">
        <ele>1668.39392</ele>
        <time>2024-08-08T14:24:59.000Z</time>
      </trkpt>
      <trkpt lat="45.588815" lon="7.86125">
        <ele>1667.5238</ele>
        <time>2024-08-08T14:25:01.000Z</time>
      </trkpt>
      <trkpt lat="45.588828" lon="7.86122">
        <ele>1666.6687</ele>
        <time>2024-08-08T14:25:04.000Z</time>
      </trkpt>
      <trkpt lat="45.588835" lon="7.861193">
        <ele>1665.78381</ele>
        <time>2024-08-08T14:25:09.000Z</time>
      </trkpt>
      <trkpt lat="45.58884" lon="7.861168">
        <ele>1664.91382</ele>
        <time>2024-08-08T14:25:13.000Z</time>
      </trkpt>
      <trkpt lat="45.588832" lon="7.861135">
        <ele>1664.01392</ele>
        <time>2024-08-08T14:25:16.000Z</time>
      </trkpt>
      <trkpt lat="45.588827" lon="7.861105">
        <ele>1663.06384</ele>
        <time>2024-08-08T14:25:19.000Z</time>
      </trkpt>
      <trkpt lat="45.588833" lon="7.86108">
        <ele>1662.07886</ele>
        <time>2024-08-08T14:25:21.000Z</time>
      </trkpt>
      <trkpt lat="45.588852" lon="7.861053">
        <ele>1661.19397</ele>
        <time>2024-08-08T14:25:23.000Z</time>
      </trkpt>
      <trkpt lat="45.588858" lon="7.861027">
        <ele>1660.37402</ele>
        <time>2024-08-08T14:25:26.000Z</time>
      </trkpt>
      <trkpt lat="45.58888" lon="7.861023">
        <ele>1659.65393</ele>
        <time>2024-08-08T14:25:33.000Z</time>
      </trkpt>
      <trkpt lat="45.588853" lon="7.861018">
        <ele>1658.95386</ele>
        <time>2024-08-08T14:26:03.000Z</time>
      </trkpt>
      <trkpt lat="45.588833" lon="7.861007">
        <ele>1658.16382</ele>
        <time>2024-08-08T14:26:12.000Z</time>
      </trkpt>
      <trkpt lat="45.588817" lon="7.860985">
        <ele>1657.3988</ele>
        <time>2024-08-08T14:26:16.000Z</time>
      </trkpt>
      <trkpt lat="45.588802" lon="7.86097">
        <ele>1656.6687</ele>
        <time>2024-08-08T14:26:18.000Z</time>
      </trkpt>
      <trkpt lat="45.58878" lon="7.860967">
        <ele>1655.8938</ele>
        <time>2024-08-08T14:26:21.000Z</time>
      </trkpt>
      <trkpt lat="45.588755" lon="7.860985">
        <ele>1655.1438</ele>
        <time>2024-08-08T14:26:24.000Z</time>
      </trkpt>
      <trkpt lat="45.58872" lon="7.860972">
        <ele>1654.34888</ele>
        <time>2024-08-08T14:26:28.000Z</time>
      </trkpt>
      <trkpt lat="45.588698" lon="7.860953">
        <ele>1653.44373</ele>
        <time>2024-08-08T14:26:32.000Z</time>
      </trkpt>
      <trkpt lat="45.588687" lon="7.860977">
        <ele>1652.59375</ele>
        <time>2024-08-08T14:26:36.000Z</time>
      </trkpt>
      <trkpt lat="45.588665" lon="7.860987">
        <ele>1651.7937</ele>
        <time>2024-08-08T14:26:40.000Z</time>
      </trkpt>
      <trkpt lat="45.588637" lon="7.860958">
        <ele>1650.99878</ele>
        <time>2024-08-08T14:26:44.000Z</time>
      </trkpt>
      <trkpt lat="45.58862" lon="7.860943">
        <ele>1650.20874</ele>
        <time>2024-08-08T14:26:46.000Z</time>
      </trkpt>
      <trkpt lat="45.588598" lon="7.860945">
        <ele>1649.47888</ele>
        <time>2024-08-08T14:26:50.000Z</time>
      </trkpt>
      <trkpt lat="45.588582" lon="7.860928">
        <ele>1648.75391</ele>
        <time>2024-08-08T14:26:52.000Z</time>
      </trkpt>
      <trkpt lat="45.58857" lon="7.860908">
        <ele>1648.03394</ele>
        <time>2024-08-08T14:26:54.000Z</time>
      </trkpt>
      <trkpt lat="45.588558" lon="7.860883">
        <ele>1647.32397</ele>
        <time>2024-08-08T14:26:56.000Z</time>
      </trkpt>
      <trkpt lat="45.588548" lon="7.86086">
        <ele>1646.60413</ele>
        <time>2024-08-08T14:26:58.000Z</time>
      </trkpt>
      <trkpt lat="45.588475" lon="7.86078">
        <ele>1645.68396</ele>
        <time>2024-08-08T14:27:21.000Z</time>
      </trkpt>
      <trkpt lat="45.588477" lon="7.860748">
        <ele>1644.71411</ele>
        <time>2024-08-08T14:27:23.000Z</time>
      </trkpt>
      <trkpt lat="45.588482" lon="7.860718">
        <ele>1643.67407</ele>
        <time>2024-08-08T14:27:25.000Z</time>
      </trkpt>
      <trkpt lat="45.588468" lon="7.860683">
        <ele>1642.63403</ele>
        <time>2024-08-08T14:27:28.000Z</time>
      </trkpt>
      <trkpt lat="45.588452" lon="7.8607">
        <ele>1641.68909</ele>
        <time>2024-08-08T14:27:33.000Z</time>
      </trkpt>
      <trkpt lat="45.588432" lon="7.860693">
        <ele>1640.71411</ele>
        <time>2024-08-08T14:27:37.000Z</time>
      </trkpt>
      <trkpt lat="45.588415" lon="7.860705">
        <ele>1639.71912</ele>
        <time>2024-08-08T14:27:42.000Z</time>
      </trkpt>
      <trkpt lat="45.588393" lon="7.860707">
        <ele>1638.77905</ele>
        <time>2024-08-08T14:27:45.000Z</time>
      </trkpt>
      <trkpt lat="45.588375" lon="7.860697">
        <ele>1637.83911</ele>
        <time>2024-08-08T14:27:47.000Z</time>
      </trkpt>
      <trkpt lat="45.588353" lon="7.860692">
        <ele>1637.01404</ele>
        <time>2024-08-08T14:27:49.000Z</time>
      </trkpt>
      <trkpt lat="45.588335" lon="7.860693">
        <ele>1636.31909</ele>
        <time>2024-08-08T14:27:52.000Z</time>
      </trkpt>
      <trkpt lat="45.588317" lon="7.860677">
        <ele>1635.64404</ele>
        <time>2024-08-08T14:27:55.000Z</time>
      </trkpt>
      <trkpt lat="45.5883" lon="7.860655">
        <ele>1635.00403</ele>
        <time>2024-08-08T14:27:57.000Z</time>
      </trkpt>
      <trkpt lat="45.58828" lon="7.86063">
        <ele>1634.46399</ele>
        <time>2024-08-08T14:27:59.000Z</time>
      </trkpt>
      <trkpt lat="45.588267" lon="7.860597">
        <ele>1633.98901</ele>
        <time>2024-08-08T14:28:01.000Z</time>
      </trkpt>
      <trkpt lat="45.588273" lon="7.860568">
        <ele>1633.57397</ele>
        <time>2024-08-08T14:28:03.000Z</time>
      </trkpt>
      <trkpt lat="45.588285" lon="7.860545">
        <ele>1633.17896</ele>
        <time>2024-08-08T14:28:05.000Z</time>
      </trkpt>
      <trkpt lat="45.58829" lon="7.860517">
        <ele>1632.77905</ele>
        <time>2024-08-08T14:28:07.000Z</time>
      </trkpt>
      <trkpt lat="45.588282" lon="7.860485">
        <ele>1632.36401</ele>
        <time>2024-08-08T14:28:11.000Z</time>
      </trkpt>
      <trkpt lat="45.588287" lon="7.860457">
        <ele>1631.96899</ele>
        <time>2024-08-08T14:28:13.000Z</time>
      </trkpt>
      <trkpt lat="45.58829" lon="7.860425">
        <ele>1631.70398</ele>
        <time>2024-08-08T14:28:17.000Z</time>
      </trkpt>
      <trkpt lat="45.588305" lon="7.86041">
        <ele>1631.43896</ele>
        <time>2024-08-08T14:28:19.000Z</time>
      </trkpt>
      <trkpt lat="45.588323" lon="7.860392">
        <ele>1631.13892</ele>
        <time>2024-08-08T14:28:21.000Z</time>
      </trkpt>
      <trkpt lat="45.588338" lon="7.86035">
        <ele>1630.79395</ele>
        <time>2024-08-08T14:28:23.000Z</time>
      </trkpt>
      <trkpt lat="45.588348" lon="7.860327">
        <ele>1630.46399</ele>
        <time>2024-08-08T14:28:24.000Z</time>
      </trkpt>
      <trkpt lat="45.588362" lon="7.860298">
        <ele>1630.12402</ele>
        <time>2024-08-08T14:28:27.000Z</time>
      </trkpt>
      <trkpt lat="45.588375" lon="7.860268">
        <ele>1629.76404</ele>
        <time>2024-08-08T14:28:30.000Z</time>
      </trkpt>
      <trkpt lat="45.588385" lon="7.860245">
        <ele>1629.39404</ele>
        <time>2024-08-08T14:28:32.000Z</time>
      </trkpt>
      <trkpt lat="45.588375" lon="7.86022">
        <ele>1628.88403</ele>
        <time>2024-08-08T14:28:40.000Z</time>
      </trkpt>
      <trkpt lat="45.588373" lon="7.860192">
        <ele>1628.30908</ele>
        <time>2024-08-08T14:28:42.000Z</time>
      </trkpt>
      <trkpt lat="45.588358" lon="7.860165">
        <ele>1627.67908</ele>
        <time>2024-08-08T14:28:46.000Z</time>
      </trkpt>
      <trkpt lat="45.588358" lon="7.860133">
        <ele>1626.97913</ele>
        <time>2024-08-08T14:28:48.000Z</time>
      </trkpt>
      <trkpt lat="45.588355" lon="7.860103">
        <ele>1626.26917</ele>
        <time>2024-08-08T14:28:50.000Z</time>
      </trkpt>
      <trkpt lat="45.588342" lon="7.860128">
        <ele>1625.54419</ele>
        <time>2024-08-08T14:28:54.000Z</time>
      </trkpt>
      <trkpt lat="45.588323" lon="7.860157">
        <ele>1624.81909</ele>
        <time>2024-08-08T14:28:58.000Z</time>
      </trkpt>
      <trkpt lat="45.58831" lon="7.860177">
        <ele>1624.07922</ele>
        <time>2024-08-08T14:29:00.000Z</time>
      </trkpt>
      <trkpt lat="45.588288" lon="7.86019">
        <ele>1623.37415</ele>
        <time>2024-08-08T14:29:03.000Z</time>
      </trkpt>
      <trkpt lat="45.588265" lon="7.860198">
        <ele>1622.71411</ele>
        <time>2024-08-08T14:29:06.000Z</time>
      </trkpt>
      <trkpt lat="45.588247" lon="7.860202">
        <ele>1622.10913</ele>
        <time>2024-08-08T14:29:08.000Z</time>
      </trkpt>
      <trkpt lat="45.588227" lon="7.8602">
        <ele>1621.52417</ele>
        <time>2024-08-08T14:29:10.000Z</time>
      </trkpt>
      <trkpt lat="45.588205" lon="7.860195">
        <ele>1620.98413</ele>
        <time>2024-08-08T14:29:13.000Z</time>
      </trkpt>
      <trkpt lat="45.588185" lon="7.860182">
        <ele>1620.43921</ele>
        <time>2024-08-08T14:29:16.000Z</time>
      </trkpt>
      <trkpt lat="45.588165" lon="7.860173">
        <ele>1619.9292</ele>
        <time>2024-08-08T14:29:18.000Z</time>
      </trkpt>
      <trkpt lat="45.588143" lon="7.860155">
        <ele>1619.43433</ele>
        <time>2024-08-08T14:29:20.000Z</time>
      </trkpt>
      <trkpt lat="45.588137" lon="7.860125">
        <ele>1618.91919</ele>
        <time>2024-08-08T14:29:22.000Z</time>
      </trkpt>
      <trkpt lat="45.588148" lon="7.860088">
        <ele>1618.45422</ele>
        <time>2024-08-08T14:29:24.000Z</time>
      </trkpt>
      <trkpt lat="45.588162" lon="7.860067">
        <ele>1618.03418</ele>
        <time>2024-08-08T14:29:26.000Z</time>
      </trkpt>
      <trkpt lat="45.588172" lon="7.860042">
        <ele>1617.61926</ele>
        <time>2024-08-08T14:29:29.000Z</time>
      </trkpt>
      <trkpt lat="45.588182" lon="7.860008">
        <ele>1617.3092</ele>
        <time>2024-08-08T14:29:32.000Z</time>
      </trkpt>
      <trkpt lat="45.588183" lon="7.85998">
        <ele>1616.97913</ele>
        <time>2024-08-08T14:29:37.000Z</time>
      </trkpt>
      <trkpt lat="45.588205" lon="7.859935">
        <ele>1616.53406</ele>
        <time>2024-08-08T14:29:51.000Z</time>
      </trkpt>
      <trkpt lat="45.588208" lon="7.8599">
        <ele>1616.11401</ele>
        <time>2024-08-08T14:29:53.000Z</time>
      </trkpt>
      <trkpt lat="45.588218" lon="7.859877">
        <ele>1615.65906</ele>
        <time>2024-08-08T14:29:55.000Z</time>
      </trkpt>
      <trkpt lat="45.58823" lon="7.859857">
        <ele>1615.15405</ele>
        <time>2024-08-08T14:29:57.000Z</time>
      </trkpt>
      <trkpt lat="45.588235" lon="7.85983">
        <ele>1614.63916</ele>
        <time>2024-08-08T14:30:00.000Z</time>
      </trkpt>
      <trkpt lat="45.588222" lon="7.859812">
        <ele>1614.13916</ele>
        <time>2024-08-08T14:30:03.000Z</time>
      </trkpt>
      <trkpt lat="45.588217" lon="7.859775">
        <ele>1613.62427</ele>
        <time>2024-08-08T14:30:07.000Z</time>
      </trkpt>
      <trkpt lat="45.588217" lon="7.859745">
        <ele>1613.08423</ele>
        <time>2024-08-08T14:30:09.000Z</time>
      </trkpt>
      <trkpt lat="45.5882" lon="7.859725">
        <ele>1612.51917</ele>
        <time>2024-08-08T14:30:12.000Z</time>
      </trkpt>
      <trkpt lat="45.588198" lon="7.859698">
        <ele>1611.92407</ele>
        <time>2024-08-08T14:30:14.000Z</time>
      </trkpt>
      <trkpt lat="45.588183" lon="7.859668">
        <ele>1611.28406</ele>
        <time>2024-08-08T14:30:17.000Z</time>
      </trkpt>
      <trkpt lat="45.588188" lon="7.859635">
        <ele>1610.63904</ele>
        <time>2024-08-08T14:30:19.000Z</time>
      </trkpt>
      <trkpt lat="45.58819" lon="7.859593">
        <ele>1609.97913</ele>
        <time>2024-08-08T14:30:21.000Z</time>
      </trkpt>
      <trkpt lat="45.5882" lon="7.859567">
        <ele>1609.29407</ele>
        <time>2024-08-08T14:30:23.000Z</time>
      </trkpt>
      <trkpt lat="45.588208" lon="7.85954">
        <ele>1608.62402</ele>
        <time>2024-08-08T14:30:25.000Z</time>
      </trkpt>
      <trkpt lat="45.588192" lon="7.85951">
        <ele>1607.88403</ele>
        <time>2024-08-08T14:30:29.000Z</time>
      </trkpt>
      <trkpt lat="45.588202" lon="7.859478">
        <ele>1607.08411</ele>
        <time>2024-08-08T14:30:32.000Z</time>
      </trkpt>
      <trkpt lat="45.58821" lon="7.859448">
        <ele>1606.25415</ele>
        <time>2024-08-08T14:30:34.000Z</time>
      </trkpt>
      <trkpt lat="45.588212" lon="7.859418">
        <ele>1605.40918</ele>
        <time>2024-08-08T14:30:36.000Z</time>
      </trkpt>
      <trkpt lat="45.588208" lon="7.859383">
        <ele>1604.57922</ele>
        <time>2024-08-08T14:30:38.000Z</time>
      </trkpt>
      <trkpt lat="45.588193" lon="7.859408">
        <ele>1603.88916</ele>
        <time>2024-08-08T14:30:41.000Z</time>
      </trkpt>
      <trkpt lat="45.588197" lon="7.859382">
        <ele>1603.11414</ele>
        <time>2024-08-08T14:30:48.000Z</time>
      </trkpt>
      <trkpt lat="45.588197" lon="7.859338">
        <ele>1602.31909</ele>
        <time>2024-08-08T14:30:50.000Z</time>
      </trkpt>
      <trkpt lat="45.588202" lon="7.8593">
        <ele>1601.48914</ele>
        <time>2024-08-08T14:30:52.000Z</time>
      </trkpt>
      <trkpt lat="45.58819" lon="7.859277">
        <ele>1600.53918</ele>
        <time>2024-08-08T14:30:56.000Z</time>
      </trkpt>
      <trkpt lat="45.588177" lon="7.859258">
        <ele>1599.53918</ele>
        <time>2024-08-08T14:30:59.000Z</time>
      </trkpt>
      <trkpt lat="45.588173" lon="7.859222">
        <ele>1598.49915</ele>
        <time>2024-08-08T14:31:01.000Z</time>
      </trkpt>
      <trkpt lat="45.588172" lon="7.859183">
        <ele>1597.46912</ele>
        <time>2024-08-08T14:31:02.000Z</time>
      </trkpt>
      <trkpt lat="45.588173" lon="7.859148">
        <ele>1596.42419</ele>
        <time>2024-08-08T14:31:03.000Z</time>
      </trkpt>
      <trkpt lat="45.588177" lon="7.859122">
        <ele>1595.39917</ele>
        <time>2024-08-08T14:31:04.000Z</time>
      </trkpt>
      <trkpt lat="45.588178" lon="7.859077">
        <ele>1594.44922</ele>
        <time>2024-08-08T14:31:06.000Z</time>
      </trkpt>
      <trkpt lat="45.588185" lon="7.859033">
        <ele>1593.54919</ele>
        <time>2024-08-08T14:31:08.000Z</time>
      </trkpt>
      <trkpt lat="45.588193" lon="7.858997">
        <ele>1592.68921</ele>
        <time>2024-08-08T14:31:10.000Z</time>
      </trkpt>
      <trkpt lat="45.588195" lon="7.858958">
        <ele>1591.88916</ele>
        <time>2024-08-08T14:31:12.000Z</time>
      </trkpt>
      <trkpt lat="45.588198" lon="7.858928">
        <ele>1591.09924</ele>
        <time>2024-08-08T14:31:14.000Z</time>
      </trkpt>
      <trkpt lat="45.588215" lon="7.858898">
        <ele>1590.4292</ele>
        <time>2024-08-08T14:31:16.000Z</time>
      </trkpt>
      <trkpt lat="45.588218" lon="7.858872">
        <ele>1589.87915</ele>
        <time>2024-08-08T14:31:18.000Z</time>
      </trkpt>
      <trkpt lat="45.58822" lon="7.858835">
        <ele>1589.39917</ele>
        <time>2024-08-08T14:31:21.000Z</time>
      </trkpt>
      <trkpt lat="45.58821" lon="7.858803">
        <ele>1589.00415</ele>
        <time>2024-08-08T14:31:23.000Z</time>
      </trkpt>
      <trkpt lat="45.588202" lon="7.85878">
        <ele>1588.67908</ele>
        <time>2024-08-08T14:31:24.000Z</time>
      </trkpt>
      <trkpt lat="45.588212" lon="7.858742">
        <ele>1588.37415</ele>
        <time>2024-08-08T14:31:26.000Z</time>
      </trkpt>
      <trkpt lat="45.588202" lon="7.858713">
        <ele>1588.13916</ele>
        <time>2024-08-08T14:31:29.000Z</time>
      </trkpt>
      <trkpt lat="45.588185" lon="7.858685">
        <ele>1587.88916</ele>
        <time>2024-08-08T14:31:31.000Z</time>
      </trkpt>
      <trkpt lat="45.588175" lon="7.858648">
        <ele>1587.64417</ele>
        <time>2024-08-08T14:31:33.000Z</time>
      </trkpt>
      <trkpt lat="45.588183" lon="7.858618">
        <ele>1587.4491</ele>
        <time>2024-08-08T14:31:35.000Z</time>
      </trkpt>
      <trkpt lat="45.588185" lon="7.858592">
        <ele>1587.25903</ele>
        <time>2024-08-08T14:31:37.000Z</time>
      </trkpt>
      <trkpt lat="45.588192" lon="7.858565">
        <ele>1587.03406</ele>
        <time>2024-08-08T14:31:39.000Z</time>
      </trkpt>
      <trkpt lat="45.588192" lon="7.858525">
        <ele>1586.74414</ele>
        <time>2024-08-08T14:31:42.000Z</time>
      </trkpt>
      <trkpt lat="45.588177" lon="7.858492">
        <ele>1586.43408</ele>
        <time>2024-08-08T14:31:44.000Z</time>
      </trkpt>
      <trkpt lat="45.588167" lon="7.85845">
        <ele>1586.06909</ele>
        <time>2024-08-08T14:31:46.000Z</time>
      </trkpt>
      <trkpt lat="45.588155" lon="7.858427">
        <ele>1585.65918</ele>
        <time>2024-08-08T14:31:48.000Z</time>
      </trkpt>
      <trkpt lat="45.588152" lon="7.858388">
        <ele>1585.18921</ele>
        <time>2024-08-08T14:31:51.000Z</time>
      </trkpt>
      <trkpt lat="45.588152" lon="7.858355">
        <ele>1584.73425</ele>
        <time>2024-08-08T14:31:53.000Z</time>
      </trkpt>
      <trkpt lat="45.588138" lon="7.858335">
        <ele>1584.26929</ele>
        <time>2024-08-08T14:31:55.000Z</time>
      </trkpt>
      <trkpt lat="45.588117" lon="7.85832">
        <ele>1583.80933</ele>
        <time>2024-08-08T14:31:58.000Z</time>
      </trkpt>
      <trkpt lat="45.588095" lon="7.858303">
        <ele>1583.26929</ele>
        <time>2024-08-08T14:32:02.000Z</time>
      </trkpt>
      <trkpt lat="45.588073" lon="7.858295">
        <ele>1582.69922</ele>
        <time>2024-08-08T14:32:04.000Z</time>
      </trkpt>
      <trkpt lat="45.58805" lon="7.858287">
        <ele>1582.14429</ele>
        <time>2024-08-08T14:32:06.000Z</time>
      </trkpt>
      <trkpt lat="45.588032" lon="7.85829">
        <ele>1581.58423</ele>
        <time>2024-08-08T14:32:08.000Z</time>
      </trkpt>
      <trkpt lat="45.588015" lon="7.858315">
        <ele>1581.01929</ele>
        <time>2024-08-08T14:32:11.000Z</time>
      </trkpt>
      <trkpt lat="45.587995" lon="7.858322">
        <ele>1580.45923</ele>
        <time>2024-08-08T14:32:13.000Z</time>
      </trkpt>
      <trkpt lat="45.587972" lon="7.858313">
        <ele>1579.84424</ele>
        <time>2024-08-08T14:32:16.000Z</time>
      </trkpt>
      <trkpt lat="45.58795" lon="7.858308">
        <ele>1579.21423</ele>
        <time>2024-08-08T14:32:19.000Z</time>
      </trkpt>
      <trkpt lat="45.587935" lon="7.85829">
        <ele>1578.59937</ele>
        <time>2024-08-08T14:32:22.000Z</time>
      </trkpt>
      <trkpt lat="45.587917" lon="7.858267">
        <ele>1578.02429</ele>
        <time>2024-08-08T14:32:24.000Z</time>
      </trkpt>
      <trkpt lat="45.587898" lon="7.858247">
        <ele>1577.42432</ele>
        <time>2024-08-08T14:32:27.000Z</time>
      </trkpt>
      <trkpt lat="45.587885" lon="7.858227">
        <ele>1576.84436</ele>
        <time>2024-08-08T14:32:29.000Z</time>
      </trkpt>
      <trkpt lat="45.587865" lon="7.858198">
        <ele>1576.2843</ele>
        <time>2024-08-08T14:32:32.000Z</time>
      </trkpt>
      <trkpt lat="45.587863" lon="7.858167">
        <ele>1575.72925</ele>
        <time>2024-08-08T14:32:34.000Z</time>
      </trkpt>
      <trkpt lat="45.58785" lon="7.858143">
        <ele>1575.17932</ele>
        <time>2024-08-08T14:32:38.000Z</time>
      </trkpt>
      <trkpt lat="45.58783" lon="7.85813">
        <ele>1574.62927</ele>
        <time>2024-08-08T14:32:40.000Z</time>
      </trkpt>
      <trkpt lat="45.587825" lon="7.858098">
        <ele>1574.09924</ele>
        <time>2024-08-08T14:32:43.000Z</time>
      </trkpt>
      <trkpt lat="45.587922" lon="7.858045">
        <ele>1574.01428</ele>
        <time>2024-08-08T14:33:57.000Z</time>
      </trkpt>
      <trkpt lat="45.587845" lon="7.858097">
        <ele>1573.57422</ele>
        <time>2024-08-08T14:36:06.000Z</time>
      </trkpt>
      <trkpt lat="45.587825" lon="7.8581">
        <ele>1573.12427</ele>
        <time>2024-08-08T14:36:11.000Z</time>
      </trkpt>
      <trkpt lat="45.587805" lon="7.858095">
        <ele>1572.73425</ele>
        <time>2024-08-08T14:36:13.000Z</time>
      </trkpt>
      <trkpt lat="45.587783" lon="7.858102">
        <ele>1572.32434</ele>
        <time>2024-08-08T14:36:15.000Z</time>
      </trkpt>
      <trkpt lat="45.587765" lon="7.85811">
        <ele>1571.9043</ele>
        <time>2024-08-08T14:36:17.000Z</time>
      </trkpt>
      <trkpt lat="45.587747" lon="7.85812">
        <ele>1571.46936</ele>
        <time>2024-08-08T14:36:19.000Z</time>
      </trkpt>
      <trkpt lat="45.587727" lon="7.858118">
        <ele>1570.99438</ele>
        <time>2024-08-08T14:36:22.000Z</time>
      </trkpt>
      <trkpt lat="45.587708" lon="7.858117">
        <ele>1570.48425</ele>
        <time>2024-08-08T14:36:25.000Z</time>
      </trkpt>
      <trkpt lat="45.587695" lon="7.858097">
        <ele>1570.0293</ele>
        <time>2024-08-08T14:36:27.000Z</time>
      </trkpt>
      <trkpt lat="45.587683" lon="7.858072">
        <ele>1569.59424</ele>
        <time>2024-08-08T14:36:29.000Z</time>
      </trkpt>
      <trkpt lat="45.587673" lon="7.858027">
        <ele>1569.16919</ele>
        <time>2024-08-08T14:36:31.000Z</time>
      </trkpt>
      <trkpt lat="45.587675" lon="7.857983">
        <ele>1568.70923</ele>
        <time>2024-08-08T14:36:33.000Z</time>
      </trkpt>
      <trkpt lat="45.587683" lon="7.85796">
        <ele>1568.26929</ele>
        <time>2024-08-08T14:36:34.000Z</time>
      </trkpt>
      <trkpt lat="45.587707" lon="7.857925">
        <ele>1567.81934</ele>
        <time>2024-08-08T14:36:36.000Z</time>
      </trkpt>
      <trkpt lat="45.58771" lon="7.857895">
        <ele>1567.39429</ele>
        <time>2024-08-08T14:36:38.000Z</time>
      </trkpt>
      <trkpt lat="45.587692" lon="7.857892">
        <ele>1566.95935</ele>
        <time>2024-08-08T14:36:40.000Z</time>
      </trkpt>
      <trkpt lat="45.587672" lon="7.857908">
        <ele>1566.54431</ele>
        <time>2024-08-08T14:36:42.000Z</time>
      </trkpt>
      <trkpt lat="45.587657" lon="7.857937">
        <ele>1566.06433</ele>
        <time>2024-08-08T14:36:45.000Z</time>
      </trkpt>
      <trkpt lat="45.58763" lon="7.857962">
        <ele>1565.60938</ele>
        <time>2024-08-08T14:36:47.000Z</time>
      </trkpt>
      <trkpt lat="45.587617" lon="7.857993">
        <ele>1564.67432</ele>
        <time>2024-08-08T14:36:49.000Z</time>
      </trkpt>
      <trkpt lat="45.587602" lon="7.858015">
        <ele>1564.06433</ele>
        <time>2024-08-08T14:36:51.000Z</time>
      </trkpt>
      <trkpt lat="45.587582" lon="7.858">
        <ele>1563.45935</ele>
        <time>2024-08-08T14:36:54.000Z</time>
      </trkpt>
      <trkpt lat="45.587578" lon="7.857965">
        <ele>1562.86938</ele>
        <time>2024-08-08T14:36:56.000Z</time>
      </trkpt>
      <trkpt lat="45.587588" lon="7.85794">
        <ele>1562.30933</ele>
        <time>2024-08-08T14:36:58.000Z</time>
      </trkpt>
      <trkpt lat="45.587595" lon="7.857912">
        <ele>1561.7644</ele>
        <time>2024-08-08T14:37:00.000Z</time>
      </trkpt>
      <trkpt lat="45.587602" lon="7.857882">
        <ele>1561.24438</ele>
        <time>2024-08-08T14:37:03.000Z</time>
      </trkpt>
      <trkpt lat="45.587613" lon="7.857853">
        <ele>1560.74438</ele>
        <time>2024-08-08T14:37:06.000Z</time>
      </trkpt>
      <trkpt lat="45.587628" lon="7.857825">
        <ele>1560.28442</ele>
        <time>2024-08-08T14:37:09.000Z</time>
      </trkpt>
      <trkpt lat="45.587647" lon="7.857803">
        <ele>1559.86938</ele>
        <time>2024-08-08T14:37:11.000Z</time>
      </trkpt>
      <trkpt lat="45.587662" lon="7.857782">
        <ele>1559.5094</ele>
        <time>2024-08-08T14:37:13.000Z</time>
      </trkpt>
      <trkpt lat="45.587675" lon="7.857752">
        <ele>1559.14929</ele>
        <time>2024-08-08T14:37:15.000Z</time>
      </trkpt>
      <trkpt lat="45.58769" lon="7.85773">
        <ele>1558.82935</ele>
        <time>2024-08-08T14:37:18.000Z</time>
      </trkpt>
      <trkpt lat="45.587693" lon="7.857703">
        <ele>1558.47424</ele>
        <time>2024-08-08T14:37:23.000Z</time>
      </trkpt>
      <trkpt lat="45.587708" lon="7.857677">
        <ele>1558.11926</ele>
        <time>2024-08-08T14:37:26.000Z</time>
      </trkpt>
      <trkpt lat="45.587718" lon="7.857652">
        <ele>1557.75928</ele>
        <time>2024-08-08T14:37:28.000Z</time>
      </trkpt>
      <trkpt lat="45.587728" lon="7.857627">
        <ele>1557.43921</ele>
        <time>2024-08-08T14:37:30.000Z</time>
      </trkpt>
      <trkpt lat="45.587733" lon="7.857602">
        <ele>1557.1543</ele>
        <time>2024-08-08T14:37:32.000Z</time>
      </trkpt>
      <trkpt lat="45.587738" lon="7.857573">
        <ele>1556.93433</ele>
        <time>2024-08-08T14:37:35.000Z</time>
      </trkpt>
      <trkpt lat="45.58776" lon="7.85755">
        <ele>1556.70435</ele>
        <time>2024-08-08T14:37:37.000Z</time>
      </trkpt>
      <trkpt lat="45.58778" lon="7.857528">
        <ele>1556.44934</ele>
        <time>2024-08-08T14:37:39.000Z</time>
      </trkpt>
      <trkpt lat="45.587792" lon="7.8575">
        <ele>1556.18921</ele>
        <time>2024-08-08T14:37:41.000Z</time>
      </trkpt>
      <trkpt lat="45.587808" lon="7.857472">
        <ele>1555.91431</ele>
        <time>2024-08-08T14:37:43.000Z</time>
      </trkpt>
      <trkpt lat="45.58781" lon="7.85744">
        <ele>1555.60425</ele>
        <time>2024-08-08T14:37:45.000Z</time>
      </trkpt>
      <trkpt lat="45.587813" lon="7.857413">
        <ele>1555.27429</ele>
        <time>2024-08-08T14:37:47.000Z</time>
      </trkpt>
      <trkpt lat="45.587805" lon="7.857388">
        <ele>1554.89929</ele>
        <time>2024-08-08T14:37:50.000Z</time>
      </trkpt>
      <trkpt lat="45.587787" lon="7.857377">
        <ele>1554.47925</ele>
        <time>2024-08-08T14:37:54.000Z</time>
      </trkpt>
      <trkpt lat="45.58777" lon="7.85736">
        <ele>1553.99927</ele>
        <time>2024-08-08T14:37:58.000Z</time>
      </trkpt>
      <trkpt lat="45.58775" lon="7.857378">
        <ele>1553.44421</ele>
        <time>2024-08-08T14:38:02.000Z</time>
      </trkpt>
      <trkpt lat="45.587728" lon="7.857403">
        <ele>1552.82935</ele>
        <time>2024-08-08T14:38:05.000Z</time>
      </trkpt>
      <trkpt lat="45.587715" lon="7.857423">
        <ele>1552.17432</ele>
        <time>2024-08-08T14:38:07.000Z</time>
      </trkpt>
      <trkpt lat="45.5877" lon="7.857447">
        <ele>1551.53442</ele>
        <time>2024-08-08T14:38:10.000Z</time>
      </trkpt>
      <trkpt lat="45.587678" lon="7.857447">
        <ele>1550.91931</ele>
        <time>2024-08-08T14:38:13.000Z</time>
      </trkpt>
      <trkpt lat="45.587662" lon="7.857437">
        <ele>1550.37439</ele>
        <time>2024-08-08T14:38:15.000Z</time>
      </trkpt>
      <trkpt lat="45.587643" lon="7.857428">
        <ele>1549.85938</ele>
        <time>2024-08-08T14:38:17.000Z</time>
      </trkpt>
      <trkpt lat="45.587618" lon="7.857417">
        <ele>1549.36938</ele>
        <time>2024-08-08T14:38:19.000Z</time>
      </trkpt>
      <trkpt lat="45.587592" lon="7.85741">
        <ele>1548.88428</ele>
        <time>2024-08-08T14:38:21.000Z</time>
      </trkpt>
      <trkpt lat="45.587572" lon="7.857403">
        <ele>1548.38928</ele>
        <time>2024-08-08T14:38:24.000Z</time>
      </trkpt>
      <trkpt lat="45.587553" lon="7.857382">
        <ele>1547.89917</ele>
        <time>2024-08-08T14:38:27.000Z</time>
      </trkpt>
      <trkpt lat="45.587542" lon="7.857362">
        <ele>1547.42419</ele>
        <time>2024-08-08T14:38:29.000Z</time>
      </trkpt>
      <trkpt lat="45.587537" lon="7.857333">
        <ele>1546.98926</ele>
        <time>2024-08-08T14:38:31.000Z</time>
      </trkpt>
      <trkpt lat="45.587532" lon="7.857303">
        <ele>1546.58923</ele>
        <time>2024-08-08T14:38:33.000Z</time>
      </trkpt>
      <trkpt lat="45.587535" lon="7.857272">
        <ele>1546.18921</ele>
        <time>2024-08-08T14:38:35.000Z</time>
      </trkpt>
      <trkpt lat="45.587542" lon="7.857238">
        <ele>1545.77417</ele>
        <time>2024-08-08T14:38:37.000Z</time>
      </trkpt>
      <trkpt lat="45.587543" lon="7.8572">
        <ele>1545.36926</ele>
        <time>2024-08-08T14:38:39.000Z</time>
      </trkpt>
      <trkpt lat="45.587545" lon="7.857157">
        <ele>1544.99426</ele>
        <time>2024-08-08T14:38:41.000Z</time>
      </trkpt>
      <trkpt lat="45.587547" lon="7.857118">
        <ele>1544.64929</ele>
        <time>2024-08-08T14:38:43.000Z</time>
      </trkpt>
      <trkpt lat="45.587548" lon="7.857083">
        <ele>1544.3844</ele>
        <time>2024-08-08T14:38:45.000Z</time>
      </trkpt>
      <trkpt lat="45.587545" lon="7.857045">
        <ele>1544.20935</ele>
        <time>2024-08-08T14:38:48.000Z</time>
      </trkpt>
      <trkpt lat="45.587538" lon="7.85701">
        <ele>1544.08435</ele>
        <time>2024-08-08T14:38:50.000Z</time>
      </trkpt>
      <trkpt lat="45.587548" lon="7.856983">
        <ele>1543.97437</ele>
        <time>2024-08-08T14:38:52.000Z</time>
      </trkpt>
      <trkpt lat="45.587568" lon="7.856985">
        <ele>1543.73926</ele>
        <time>2024-08-08T14:38:59.000Z</time>
      </trkpt>
      <trkpt lat="45.587583" lon="7.85701">
        <ele>1543.26428</ele>
        <time>2024-08-08T14:40:38.000Z</time>
      </trkpt>
      <trkpt lat="45.587563" lon="7.857023">
        <ele>1542.81421</ele>
        <time>2024-08-08T14:40:40.000Z</time>
      </trkpt>
      <trkpt lat="45.587537" lon="7.857045">
        <ele>1542.41431</ele>
        <time>2024-08-08T14:40:43.000Z</time>
      </trkpt>
      <trkpt lat="45.58752" lon="7.857057">
        <ele>1542.0293</ele>
        <time>2024-08-08T14:40:44.000Z</time>
      </trkpt>
      <trkpt lat="45.587488" lon="7.857065">
        <ele>1541.67432</ele>
        <time>2024-08-08T14:40:46.000Z</time>
      </trkpt>
      <trkpt lat="45.587467" lon="7.857073">
        <ele>1541.38428</ele>
        <time>2024-08-08T14:40:48.000Z</time>
      </trkpt>
      <trkpt lat="45.58745" lon="7.857063">
        <ele>1541.12927</ele>
        <time>2024-08-08T14:40:50.000Z</time>
      </trkpt>
      <trkpt lat="45.587428" lon="7.857055">
        <ele>1540.87927</ele>
        <time>2024-08-08T14:40:53.000Z</time>
      </trkpt>
      <trkpt lat="45.587408" lon="7.857048">
        <ele>1540.63428</ele>
        <time>2024-08-08T14:40:57.000Z</time>
      </trkpt>
      <trkpt lat="45.58739" lon="7.85705">
        <ele>1540.41931</ele>
        <time>2024-08-08T14:41:00.000Z</time>
      </trkpt>
      <trkpt lat="45.587367" lon="7.857053">
        <ele>1540.25439</ele>
        <time>2024-08-08T14:41:03.000Z</time>
      </trkpt>
      <trkpt lat="45.587347" lon="7.85706">
        <ele>1540.12439</ele>
        <time>2024-08-08T14:41:06.000Z</time>
      </trkpt>
      <trkpt lat="45.58732" lon="7.857053">
        <ele>1539.99939</ele>
        <time>2024-08-08T14:41:08.000Z</time>
      </trkpt>
      <trkpt lat="45.587302" lon="7.85706">
        <ele>1539.86438</ele>
        <time>2024-08-08T14:41:10.000Z</time>
      </trkpt>
      <trkpt lat="45.587283" lon="7.857047">
        <ele>1539.68433</ele>
        <time>2024-08-08T14:41:13.000Z</time>
      </trkpt>
      <trkpt lat="45.587265" lon="7.857047">
        <ele>1539.46924</ele>
        <time>2024-08-08T14:41:16.000Z</time>
      </trkpt>
      <trkpt lat="45.587247" lon="7.85703">
        <ele>1539.1792</ele>
        <time>2024-08-08T14:41:19.000Z</time>
      </trkpt>
      <trkpt lat="45.587227" lon="7.857015">
        <ele>1538.81421</ele>
        <time>2024-08-08T14:41:22.000Z</time>
      </trkpt>
      <trkpt lat="45.587208" lon="7.856998">
        <ele>1538.37915</ele>
        <time>2024-08-08T14:41:25.000Z</time>
      </trkpt>
      <trkpt lat="45.587202" lon="7.856957">
        <ele>1538.03418</ele>
        <time>2024-08-08T14:41:28.000Z</time>
      </trkpt>
      <trkpt lat="45.587198" lon="7.856913">
        <ele>1537.88416</ele>
        <time>2024-08-08T14:41:30.000Z</time>
      </trkpt>
      <trkpt lat="45.58719" lon="7.856875">
        <ele>1537.65918</ele>
        <time>2024-08-08T14:41:33.000Z</time>
      </trkpt>
      <trkpt lat="45.587188" lon="7.856842">
        <ele>1537.34924</ele>
        <time>2024-08-08T14:41:36.000Z</time>
      </trkpt>
      <trkpt lat="45.58719" lon="7.856807">
        <ele>1536.97424</ele>
        <time>2024-08-08T14:41:38.000Z</time>
      </trkpt>
      <trkpt lat="45.587198" lon="7.856775">
        <ele>1536.5343</ele>
        <time>2024-08-08T14:41:40.000Z</time>
      </trkpt>
      <trkpt lat="45.587207" lon="7.856745">
        <ele>1536.0144</ele>
        <time>2024-08-08T14:41:42.000Z</time>
      </trkpt>
      <trkpt lat="45.587215" lon="7.856712">
        <ele>1535.45935</ele>
        <time>2024-08-08T14:41:45.000Z</time>
      </trkpt>
      <trkpt lat="45.587192" lon="7.856725">
        <ele>1534.80933</ele>
        <time>2024-08-08T14:41:53.000Z</time>
      </trkpt>
      <trkpt lat="45.587178" lon="7.856748">
        <ele>1534.14429</ele>
        <time>2024-08-08T14:41:55.000Z</time>
      </trkpt>
      <trkpt lat="45.58716" lon="7.856763">
        <ele>1533.45435</ele>
        <time>2024-08-08T14:41:57.000Z</time>
      </trkpt>
      <trkpt lat="45.587142" lon="7.856787">
        <ele>1532.72925</ele>
        <time>2024-08-08T14:41:59.000Z</time>
      </trkpt>
      <trkpt lat="45.587123" lon="7.856817">
        <ele>1531.99426</ele>
        <time>2024-08-08T14:42:02.000Z</time>
      </trkpt>
      <trkpt lat="45.587098" lon="7.856823">
        <ele>1531.26929</ele>
        <time>2024-08-08T14:42:04.000Z</time>
      </trkpt>
      <trkpt lat="45.58708" lon="7.85683">
        <ele>1530.55432</ele>
        <time>2024-08-08T14:42:06.000Z</time>
      </trkpt>
      <trkpt lat="45.58706" lon="7.856847">
        <ele>1529.8844</ele>
        <time>2024-08-08T14:42:08.000Z</time>
      </trkpt>
      <trkpt lat="45.58704" lon="7.856853">
        <ele>1529.23938</ele>
        <time>2024-08-08T14:42:10.000Z</time>
      </trkpt>
      <trkpt lat="45.58702" lon="7.856842">
        <ele>1528.61438</ele>
        <time>2024-08-08T14:42:13.000Z</time>
      </trkpt>
      <trkpt lat="45.587007" lon="7.856813">
        <ele>1527.98938</ele>
        <time>2024-08-08T14:42:16.000Z</time>
      </trkpt>
      <trkpt lat="45.587008" lon="7.856758">
        <ele>1527.4043</ele>
        <time>2024-08-08T14:42:18.000Z</time>
      </trkpt>
      <trkpt lat="45.587018" lon="7.856713">
        <ele>1526.80933</ele>
        <time>2024-08-08T14:42:20.000Z</time>
      </trkpt>
      <trkpt lat="45.587018" lon="7.856678">
        <ele>1526.18933</ele>
        <time>2024-08-08T14:42:22.000Z</time>
      </trkpt>
      <trkpt lat="45.587015" lon="7.856652">
        <ele>1525.58936</ele>
        <time>2024-08-08T14:42:24.000Z</time>
      </trkpt>
      <trkpt lat="45.58701" lon="7.856627">
        <ele>1525.03931</ele>
        <time>2024-08-08T14:42:25.000Z</time>
      </trkpt>
      <trkpt lat="45.587007" lon="7.856587">
        <ele>1524.54431</ele>
        <time>2024-08-08T14:42:27.000Z</time>
      </trkpt>
      <trkpt lat="45.587007" lon="7.856532">
        <ele>1524.06934</ele>
        <time>2024-08-08T14:42:29.000Z</time>
      </trkpt>
      <trkpt lat="45.587007" lon="7.856505">
        <ele>1523.59937</ele>
        <time>2024-08-08T14:42:30.000Z</time>
      </trkpt>
      <trkpt lat="45.587013" lon="7.85646">
        <ele>1523.13428</ele>
        <time>2024-08-08T14:42:32.000Z</time>
      </trkpt>
      <trkpt lat="45.587023" lon="7.856422">
        <ele>1522.74927</ele>
        <time>2024-08-08T14:42:34.000Z</time>
      </trkpt>
      <trkpt lat="45.587005" lon="7.856418">
        <ele>1522.39429</ele>
        <time>2024-08-08T14:42:40.000Z</time>
      </trkpt>
      <trkpt lat="45.586993" lon="7.856442">
        <ele>1522.03442</ele>
        <time>2024-08-08T14:42:42.000Z</time>
      </trkpt>
      <trkpt lat="45.586985" lon="7.856473">
        <ele>1521.64429</ele>
        <time>2024-08-08T14:42:45.000Z</time>
      </trkpt>
      <trkpt lat="45.58697" lon="7.8565">
        <ele>1521.22937</ele>
        <time>2024-08-08T14:42:48.000Z</time>
      </trkpt>
      <trkpt lat="45.586957" lon="7.856525">
        <ele>1520.79431</ele>
        <time>2024-08-08T14:42:50.000Z</time>
      </trkpt>
      <trkpt lat="45.586942" lon="7.856555">
        <ele>1520.33923</ele>
        <time>2024-08-08T14:42:52.000Z</time>
      </trkpt>
      <trkpt lat="45.586928" lon="7.856583">
        <ele>1519.84924</ele>
        <time>2024-08-08T14:42:56.000Z</time>
      </trkpt>
      <trkpt lat="45.58691" lon="7.856602">
        <ele>1519.34424</ele>
        <time>2024-08-08T14:42:59.000Z</time>
      </trkpt>
      <trkpt lat="45.58689" lon="7.856612">
        <ele>1518.86926</ele>
        <time>2024-08-08T14:43:02.000Z</time>
      </trkpt>
      <trkpt lat="45.58687" lon="7.856622">
        <ele>1518.44421</ele>
        <time>2024-08-08T14:43:04.000Z</time>
      </trkpt>
      <trkpt lat="45.586848" lon="7.85664">
        <ele>1518.04932</ele>
        <time>2024-08-08T14:43:06.000Z</time>
      </trkpt>
      <trkpt lat="45.586837" lon="7.85666">
        <ele>1517.69421</ele>
        <time>2024-08-08T14:43:08.000Z</time>
      </trkpt>
      <trkpt lat="45.586817" lon="7.856677">
        <ele>1517.38428</ele>
        <time>2024-08-08T14:43:11.000Z</time>
      </trkpt>
      <trkpt lat="45.586795" lon="7.856675">
        <ele>1517.08423</ele>
        <time>2024-08-08T14:43:13.000Z</time>
      </trkpt>
      <trkpt lat="45.586775" lon="7.856668">
        <ele>1516.74927</ele>
        <time>2024-08-08T14:43:15.000Z</time>
      </trkpt>
      <trkpt lat="45.586763" lon="7.856645">
        <ele>1516.37915</ele>
        <time>2024-08-08T14:43:17.000Z</time>
      </trkpt>
      <trkpt lat="45.586767" lon="7.856612">
        <ele>1515.97925</ele>
        <time>2024-08-08T14:43:19.000Z</time>
      </trkpt>
      <trkpt lat="45.586768" lon="7.856585">
        <ele>1515.56909</ele>
        <time>2024-08-08T14:43:20.000Z</time>
      </trkpt>
      <trkpt lat="45.586777" lon="7.856555">
        <ele>1515.14417</ele>
        <time>2024-08-08T14:43:22.000Z</time>
      </trkpt>
      <trkpt lat="45.586782" lon="7.856528">
        <ele>1514.7041</ele>
        <time>2024-08-08T14:43:24.000Z</time>
      </trkpt>
      <trkpt lat="45.58678" lon="7.856502">
        <ele>1514.23901</ele>
        <time>2024-08-08T14:43:26.000Z</time>
      </trkpt>
      <trkpt lat="45.586775" lon="7.85647">
        <ele>1513.74902</ele>
        <time>2024-08-08T14:43:29.000Z</time>
      </trkpt>
      <trkpt lat="45.586788" lon="7.85645">
        <ele>1513.23401</ele>
        <time>2024-08-08T14:43:37.000Z</time>
      </trkpt>
      <trkpt lat="45.586752" lon="7.856392">
        <ele>1512.729</ele>
        <time>2024-08-08T14:43:42.000Z</time>
      </trkpt>
      <trkpt lat="45.586728" lon="7.856395">
        <ele>1512.21411</ele>
        <time>2024-08-08T14:43:45.000Z</time>
      </trkpt>
      <trkpt lat="45.586717" lon="7.856423">
        <ele>1511.71411</ele>
        <time>2024-08-08T14:43:48.000Z</time>
      </trkpt>
      <trkpt lat="45.586698" lon="7.856442">
        <ele>1511.23413</ele>
        <time>2024-08-08T14:43:51.000Z</time>
      </trkpt>
      <trkpt lat="45.58668" lon="7.856448">
        <ele>1510.76404</ele>
        <time>2024-08-08T14:43:56.000Z</time>
      </trkpt>
      <trkpt lat="45.586662" lon="7.856455">
        <ele>1510.33411</ele>
        <time>2024-08-08T14:43:59.000Z</time>
      </trkpt>
      <trkpt lat="45.586635" lon="7.856475">
        <ele>1509.92908</ele>
        <time>2024-08-08T14:44:05.000Z</time>
      </trkpt>
      <trkpt lat="45.586612" lon="7.856485">
        <ele>1509.52905</ele>
        <time>2024-08-08T14:44:09.000Z</time>
      </trkpt>
      <trkpt lat="45.586593" lon="7.856492">
        <ele>1509.12415</ele>
        <time>2024-08-08T14:44:12.000Z</time>
      </trkpt>
      <trkpt lat="45.586543" lon="7.856503">
        <ele>1508.58911</ele>
        <time>2024-08-08T14:44:22.000Z</time>
      </trkpt>
      <trkpt lat="45.586523" lon="7.856507">
        <ele>1508.00903</ele>
        <time>2024-08-08T14:44:25.000Z</time>
      </trkpt>
      <trkpt lat="45.586492" lon="7.856505">
        <ele>1507.41919</ele>
        <time>2024-08-08T14:44:28.000Z</time>
      </trkpt>
      <trkpt lat="45.586472" lon="7.8565">
        <ele>1506.83423</ele>
        <time>2024-08-08T14:44:30.000Z</time>
      </trkpt>
      <trkpt lat="45.586448" lon="7.8565">
        <ele>1506.26917</ele>
        <time>2024-08-08T14:44:34.000Z</time>
      </trkpt>
      <trkpt lat="45.586428" lon="7.856492">
        <ele>1505.66919</ele>
        <time>2024-08-08T14:44:38.000Z</time>
      </trkpt>
      <trkpt lat="45.586407" lon="7.856492">
        <ele>1505.06909</ele>
        <time>2024-08-08T14:44:40.000Z</time>
      </trkpt>
      <trkpt lat="45.586387" lon="7.856483">
        <ele>1504.46912</ele>
        <time>2024-08-08T14:44:43.000Z</time>
      </trkpt>
      <trkpt lat="45.586367" lon="7.856473">
        <ele>1503.86414</ele>
        <time>2024-08-08T14:44:45.000Z</time>
      </trkpt>
      <trkpt lat="45.586347" lon="7.856468">
        <ele>1503.25415</ele>
        <time>2024-08-08T14:44:48.000Z</time>
      </trkpt>
      <trkpt lat="45.586327" lon="7.856458">
        <ele>1502.64429</ele>
        <time>2024-08-08T14:44:52.000Z</time>
      </trkpt>
      <trkpt lat="45.586308" lon="7.856458">
        <ele>1501.99927</ele>
        <time>2024-08-08T14:44:54.000Z</time>
      </trkpt>
      <trkpt lat="45.586282" lon="7.856447">
        <ele>1501.32422</ele>
        <time>2024-08-08T14:44:57.000Z</time>
      </trkpt>
      <trkpt lat="45.586257" lon="7.856447">
        <ele>1500.61926</ele>
        <time>2024-08-08T14:44:59.000Z</time>
      </trkpt>
      <trkpt lat="45.586237" lon="7.856445">
        <ele>1499.90417</ele>
        <time>2024-08-08T14:45:01.000Z</time>
      </trkpt>
      <trkpt lat="45.586212" lon="7.856437">
        <ele>1499.14917</ele>
        <time>2024-08-08T14:45:03.000Z</time>
      </trkpt>
      <trkpt lat="45.586188" lon="7.856437">
        <ele>1498.36426</ele>
        <time>2024-08-08T14:45:05.000Z</time>
      </trkpt>
      <trkpt lat="45.58617" lon="7.856418">
        <ele>1497.54919</ele>
        <time>2024-08-08T14:45:07.000Z</time>
      </trkpt>
      <trkpt lat="45.586172" lon="7.856387">
        <ele>1496.65918</ele>
        <time>2024-08-08T14:45:12.000Z</time>
      </trkpt>
      <trkpt lat="45.586163" lon="7.856355">
        <ele>1495.75415</ele>
        <time>2024-08-08T14:45:15.000Z</time>
      </trkpt>
      <trkpt lat="45.586158" lon="7.85633">
        <ele>1494.99414</ele>
        <time>2024-08-08T14:45:17.000Z</time>
      </trkpt>
      <trkpt lat="45.586147" lon="7.85631">
        <ele>1494.27917</ele>
        <time>2024-08-08T14:45:21.000Z</time>
      </trkpt>
      <trkpt lat="45.586123" lon="7.856298">
        <ele>1493.58423</ele>
        <time>2024-08-08T14:45:24.000Z</time>
      </trkpt>
      <trkpt lat="45.586107" lon="7.856277">
        <ele>1492.90918</ele>
        <time>2024-08-08T14:45:27.000Z</time>
      </trkpt>
      <trkpt lat="45.586093" lon="7.856253">
        <ele>1492.24927</ele>
        <time>2024-08-08T14:45:29.000Z</time>
      </trkpt>
      <trkpt lat="45.586075" lon="7.85624">
        <ele>1491.64917</ele>
        <time>2024-08-08T14:45:31.000Z</time>
      </trkpt>
      <trkpt lat="45.586058" lon="7.856227">
        <ele>1491.06921</ele>
        <time>2024-08-08T14:45:33.000Z</time>
      </trkpt>
      <trkpt lat="45.58604" lon="7.856212">
        <ele>1490.50928</ele>
        <time>2024-08-08T14:45:35.000Z</time>
      </trkpt>
      <trkpt lat="45.586018" lon="7.856197">
        <ele>1489.95923</ele>
        <time>2024-08-08T14:45:37.000Z</time>
      </trkpt>
      <trkpt lat="45.586" lon="7.856182">
        <ele>1489.43921</ele>
        <time>2024-08-08T14:45:40.000Z</time>
      </trkpt>
      <trkpt lat="45.585982" lon="7.856175">
        <ele>1488.96423</ele>
        <time>2024-08-08T14:45:42.000Z</time>
      </trkpt>
      <trkpt lat="45.585962" lon="7.856155">
        <ele>1488.52917</ele>
        <time>2024-08-08T14:45:45.000Z</time>
      </trkpt>
      <trkpt lat="45.585957" lon="7.856122">
        <ele>1488.0592</ele>
        <time>2024-08-08T14:45:49.000Z</time>
      </trkpt>
      <trkpt lat="45.585943" lon="7.856092">
        <ele>1487.49927</ele>
        <time>2024-08-08T14:45:55.000Z</time>
      </trkpt>
      <trkpt lat="45.585937" lon="7.856062">
        <ele>1486.87427</ele>
        <time>2024-08-08T14:45:58.000Z</time>
      </trkpt>
      <trkpt lat="45.585918" lon="7.856047">
        <ele>1486.24426</ele>
        <time>2024-08-08T14:46:00.000Z</time>
      </trkpt>
      <trkpt lat="45.585908" lon="7.856018">
        <ele>1485.56921</ele>
        <time>2024-08-08T14:46:05.000Z</time>
      </trkpt>
      <trkpt lat="45.585893" lon="7.856003">
        <ele>1484.89429</ele>
        <time>2024-08-08T14:46:07.000Z</time>
      </trkpt>
      <trkpt lat="45.585877" lon="7.855988">
        <ele>1484.25928</ele>
        <time>2024-08-08T14:46:09.000Z</time>
      </trkpt>
      <trkpt lat="45.585855" lon="7.855978">
        <ele>1483.60425</ele>
        <time>2024-08-08T14:46:11.000Z</time>
      </trkpt>
      <trkpt lat="45.585838" lon="7.855967">
        <ele>1482.8894</ele>
        <time>2024-08-08T14:46:13.000Z</time>
      </trkpt>
      <trkpt lat="45.585827" lon="7.855945">
        <ele>1482.12927</ele>
        <time>2024-08-08T14:46:16.000Z</time>
      </trkpt>
      <trkpt lat="45.585807" lon="7.855923">
        <ele>1481.30933</ele>
        <time>2024-08-08T14:46:19.000Z</time>
      </trkpt>
      <trkpt lat="45.5858" lon="7.855898">
        <ele>1480.46924</ele>
        <time>2024-08-08T14:46:21.000Z</time>
      </trkpt>
      <trkpt lat="45.585785" lon="7.855872">
        <ele>1479.58423</ele>
        <time>2024-08-08T14:46:24.000Z</time>
      </trkpt>
      <trkpt lat="45.585768" lon="7.855847">
        <ele>1478.6792</ele>
        <time>2024-08-08T14:46:27.000Z</time>
      </trkpt>
      <trkpt lat="45.58575" lon="7.85582">
        <ele>1477.77417</ele>
        <time>2024-08-08T14:46:29.000Z</time>
      </trkpt>
      <trkpt lat="45.58573" lon="7.855797">
        <ele>1476.87915</ele>
        <time>2024-08-08T14:46:31.000Z</time>
      </trkpt>
      <trkpt lat="45.585708" lon="7.855777">
        <ele>1475.99426</ele>
        <time>2024-08-08T14:46:33.000Z</time>
      </trkpt>
      <trkpt lat="45.585692" lon="7.855755">
        <ele>1475.10913</ele>
        <time>2024-08-08T14:46:35.000Z</time>
      </trkpt>
      <trkpt lat="45.585678" lon="7.855733">
        <ele>1474.21411</ele>
        <time>2024-08-08T14:46:37.000Z</time>
      </trkpt>
      <trkpt lat="45.585675" lon="7.8557">
        <ele>1473.3042</ele>
        <time>2024-08-08T14:46:39.000Z</time>
      </trkpt>
      <trkpt lat="45.585678" lon="7.855657">
        <ele>1472.46924</ele>
        <time>2024-08-08T14:46:41.000Z</time>
      </trkpt>
      <trkpt lat="45.585673" lon="7.85562">
        <ele>1471.77917</ele>
        <time>2024-08-08T14:46:43.000Z</time>
      </trkpt>
      <trkpt lat="45.585658" lon="7.855588">
        <ele>1471.1792</ele>
        <time>2024-08-08T14:46:45.000Z</time>
      </trkpt>
      <trkpt lat="45.585642" lon="7.855562">
        <ele>1470.63416</ele>
        <time>2024-08-08T14:46:47.000Z</time>
      </trkpt>
      <trkpt lat="45.58563" lon="7.855542">
        <ele>1470.14417</ele>
        <time>2024-08-08T14:46:49.000Z</time>
      </trkpt>
      <trkpt lat="45.58562" lon="7.855508">
        <ele>1469.63916</ele>
        <time>2024-08-08T14:46:52.000Z</time>
      </trkpt>
      <trkpt lat="45.58561" lon="7.855475">
        <ele>1469.15906</ele>
        <time>2024-08-08T14:46:55.000Z</time>
      </trkpt>
      <trkpt lat="45.585597" lon="7.855448">
        <ele>1468.70911</ele>
        <time>2024-08-08T14:46:57.000Z</time>
      </trkpt>
      <trkpt lat="45.585585" lon="7.855415">
        <ele>1468.29907</ele>
        <time>2024-08-08T14:46:59.000Z</time>
      </trkpt>
      <trkpt lat="45.585578" lon="7.85539">
        <ele>1467.92407</ele>
        <time>2024-08-08T14:47:01.000Z</time>
      </trkpt>
      <trkpt lat="45.585572" lon="7.855353">
        <ele>1467.58911</ele>
        <time>2024-08-08T14:47:03.000Z</time>
      </trkpt>
      <trkpt lat="45.585572" lon="7.855315">
        <ele>1467.25415</ele>
        <time>2024-08-08T14:47:05.000Z</time>
      </trkpt>
      <trkpt lat="45.585563" lon="7.855275">
        <ele>1466.9491</ele>
        <time>2024-08-08T14:47:07.000Z</time>
      </trkpt>
      <trkpt lat="45.585558" lon="7.855248">
        <ele>1466.63416</ele>
        <time>2024-08-08T14:47:09.000Z</time>
      </trkpt>
      <trkpt lat="45.585547" lon="7.855222">
        <ele>1466.29419</ele>
        <time>2024-08-08T14:47:11.000Z</time>
      </trkpt>
      <trkpt lat="45.58554" lon="7.855178">
        <ele>1465.91418</ele>
        <time>2024-08-08T14:47:13.000Z</time>
      </trkpt>
      <trkpt lat="45.585522" lon="7.855152">
        <ele>1465.49414</ele>
        <time>2024-08-08T14:47:16.000Z</time>
      </trkpt>
      <trkpt lat="45.585508" lon="7.855123">
        <ele>1465.03418</ele>
        <time>2024-08-08T14:47:18.000Z</time>
      </trkpt>
      <trkpt lat="45.5855" lon="7.8551">
        <ele>1464.5542</ele>
        <time>2024-08-08T14:47:20.000Z</time>
      </trkpt>
      <trkpt lat="45.585483" lon="7.855072">
        <ele>1464.06421</ele>
        <time>2024-08-08T14:47:22.000Z</time>
      </trkpt>
      <trkpt lat="45.585467" lon="7.855045">
        <ele>1463.54907</ele>
        <time>2024-08-08T14:47:24.000Z</time>
      </trkpt>
      <trkpt lat="45.585455" lon="7.855012">
        <ele>1462.99414</ele>
        <time>2024-08-08T14:47:26.000Z</time>
      </trkpt>
      <trkpt lat="45.585443" lon="7.854983">
        <ele>1462.41418</ele>
        <time>2024-08-08T14:47:28.000Z</time>
      </trkpt>
      <trkpt lat="45.585418" lon="7.854955">
        <ele>1461.8092</ele>
        <time>2024-08-08T14:47:30.000Z</time>
      </trkpt>
      <trkpt lat="45.585398" lon="7.854915">
        <ele>1461.22424</ele>
        <time>2024-08-08T14:47:32.000Z</time>
      </trkpt>
      <trkpt lat="45.585385" lon="7.854895">
        <ele>1460.69421</ele>
        <time>2024-08-08T14:47:33.000Z</time>
      </trkpt>
      <trkpt lat="45.585372" lon="7.854858">
        <ele>1460.18921</ele>
        <time>2024-08-08T14:47:35.000Z</time>
      </trkpt>
      <trkpt lat="45.585355" lon="7.85483">
        <ele>1459.69421</ele>
        <time>2024-08-08T14:47:37.000Z</time>
      </trkpt>
      <trkpt lat="45.585335" lon="7.854812">
        <ele>1459.20435</ele>
        <time>2024-08-08T14:47:39.000Z</time>
      </trkpt>
      <trkpt lat="45.585318" lon="7.854797">
        <ele>1458.69934</ele>
        <time>2024-08-08T14:47:41.000Z</time>
      </trkpt>
      <trkpt lat="45.585302" lon="7.854772">
        <ele>1458.23425</ele>
        <time>2024-08-08T14:47:43.000Z</time>
      </trkpt>
      <trkpt lat="45.585288" lon="7.85474">
        <ele>1457.80432</ele>
        <time>2024-08-08T14:47:45.000Z</time>
      </trkpt>
      <trkpt lat="45.58528" lon="7.854702">
        <ele>1457.39929</ele>
        <time>2024-08-08T14:47:47.000Z</time>
      </trkpt>
      <trkpt lat="45.585275" lon="7.85467">
        <ele>1457.0343</ele>
        <time>2024-08-08T14:47:49.000Z</time>
      </trkpt>
      <trkpt lat="45.585265" lon="7.854647">
        <ele>1456.71423</ele>
        <time>2024-08-08T14:47:51.000Z</time>
      </trkpt>
      <trkpt lat="45.585252" lon="7.854625">
        <ele>1456.42419</ele>
        <time>2024-08-08T14:47:53.000Z</time>
      </trkpt>
      <trkpt lat="45.585232" lon="7.8546">
        <ele>1456.13928</ele>
        <time>2024-08-08T14:47:55.000Z</time>
      </trkpt>
      <trkpt lat="45.585213" lon="7.854572">
        <ele>1455.87427</ele>
        <time>2024-08-08T14:47:57.000Z</time>
      </trkpt>
      <trkpt lat="45.585193" lon="7.854547">
        <ele>1455.63416</ele>
        <time>2024-08-08T14:47:59.000Z</time>
      </trkpt>
      <trkpt lat="45.585177" lon="7.854518">
        <ele>1455.38416</ele>
        <time>2024-08-08T14:48:01.000Z</time>
      </trkpt>
      <trkpt lat="45.585158" lon="7.85449">
        <ele>1455.12915</ele>
        <time>2024-08-08T14:48:03.000Z</time>
      </trkpt>
      <trkpt lat="45.585137" lon="7.854458">
        <ele>1454.86414</ele>
        <time>2024-08-08T14:48:05.000Z</time>
      </trkpt>
      <trkpt lat="45.58512" lon="7.85442">
        <ele>1454.57922</ele>
        <time>2024-08-08T14:48:07.000Z</time>
      </trkpt>
      <trkpt lat="45.585103" lon="7.854388">
        <ele>1454.26929</ele>
        <time>2024-08-08T14:48:09.000Z</time>
      </trkpt>
      <trkpt lat="45.58509" lon="7.85436">
        <ele>1453.86414</ele>
        <time>2024-08-08T14:48:11.000Z</time>
      </trkpt>
      <trkpt lat="45.585078" lon="7.85434">
        <ele>1453.40417</ele>
        <time>2024-08-08T14:48:13.000Z</time>
      </trkpt>
      <trkpt lat="45.585062" lon="7.854313">
        <ele>1452.89429</ele>
        <time>2024-08-08T14:48:15.000Z</time>
      </trkpt>
      <trkpt lat="45.585038" lon="7.854288">
        <ele>1452.34924</ele>
        <time>2024-08-08T14:48:17.000Z</time>
      </trkpt>
      <trkpt lat="45.585018" lon="7.854258">
        <ele>1451.8092</ele>
        <time>2024-08-08T14:48:19.000Z</time>
      </trkpt>
      <trkpt lat="45.585008" lon="7.854217">
        <ele>1451.27417</ele>
        <time>2024-08-08T14:48:21.000Z</time>
      </trkpt>
      <trkpt lat="45.584997" lon="7.854182">
        <ele>1450.67419</ele>
        <time>2024-08-08T14:48:23.000Z</time>
      </trkpt>
      <trkpt lat="45.584985" lon="7.854148">
        <ele>1450.01917</ele>
        <time>2024-08-08T14:48:25.000Z</time>
      </trkpt>
      <trkpt lat="45.58497" lon="7.854122">
        <ele>1449.34412</ele>
        <time>2024-08-08T14:48:27.000Z</time>
      </trkpt>
      <trkpt lat="45.584957" lon="7.854088">
        <ele>1448.64917</ele>
        <time>2024-08-08T14:48:29.000Z</time>
      </trkpt>
      <trkpt lat="45.584947" lon="7.854067">
        <ele>1447.93921</ele>
        <time>2024-08-08T14:48:30.000Z</time>
      </trkpt>
      <trkpt lat="45.584938" lon="7.854043">
        <ele>1447.23413</ele>
        <time>2024-08-08T14:48:31.000Z</time>
      </trkpt>
      <trkpt lat="45.584917" lon="7.854012">
        <ele>1446.56909</ele>
        <time>2024-08-08T14:48:33.000Z</time>
      </trkpt>
      <trkpt lat="45.584903" lon="7.853983">
        <ele>1445.93921</ele>
        <time>2024-08-08T14:48:35.000Z</time>
      </trkpt>
      <trkpt lat="45.584888" lon="7.853958">
        <ele>1445.34924</ele>
        <time>2024-08-08T14:48:37.000Z</time>
      </trkpt>
      <trkpt lat="45.58487" lon="7.853928">
        <ele>1444.79419</ele>
        <time>2024-08-08T14:48:39.000Z</time>
      </trkpt>
      <trkpt lat="45.584857" lon="7.853907">
        <ele>1444.26428</ele>
        <time>2024-08-08T14:48:41.000Z</time>
      </trkpt>
      <trkpt lat="45.584838" lon="7.853892">
        <ele>1443.74438</ele>
        <time>2024-08-08T14:48:43.000Z</time>
      </trkpt>
      <trkpt lat="45.584822" lon="7.853877">
        <ele>1443.24438</ele>
        <time>2024-08-08T14:48:45.000Z</time>
      </trkpt>
      <trkpt lat="45.584803" lon="7.853845">
        <ele>1442.73425</ele>
        <time>2024-08-08T14:48:48.000Z</time>
      </trkpt>
      <trkpt lat="45.584785" lon="7.853807">
        <ele>1442.22437</ele>
        <time>2024-08-08T14:48:50.000Z</time>
      </trkpt>
      <trkpt lat="45.584772" lon="7.853782">
        <ele>1441.71423</ele>
        <time>2024-08-08T14:48:52.000Z</time>
      </trkpt>
      <trkpt lat="45.584758" lon="7.853757">
        <ele>1441.20422</ele>
        <time>2024-08-08T14:48:54.000Z</time>
      </trkpt>
      <trkpt lat="45.584738" lon="7.853715">
        <ele>1440.68921</ele>
        <time>2024-08-08T14:48:56.000Z</time>
      </trkpt>
      <trkpt lat="45.584728" lon="7.853688">
        <ele>1440.1543</ele>
        <time>2024-08-08T14:48:57.000Z</time>
      </trkpt>
      <trkpt lat="45.584715" lon="7.853665">
        <ele>1439.63928</ele>
        <time>2024-08-08T14:48:58.000Z</time>
      </trkpt>
      <trkpt lat="45.584708" lon="7.853623">
        <ele>1439.1593</ele>
        <time>2024-08-08T14:49:00.000Z</time>
      </trkpt>
      <trkpt lat="45.5847" lon="7.85359">
        <ele>1438.73938</ele>
        <time>2024-08-08T14:49:02.000Z</time>
      </trkpt>
      <trkpt lat="45.584682" lon="7.85356">
        <ele>1438.35425</ele>
        <time>2024-08-08T14:49:04.000Z</time>
      </trkpt>
      <trkpt lat="45.584668" lon="7.853538">
        <ele>1437.95923</ele>
        <time>2024-08-08T14:49:09.000Z</time>
      </trkpt>
      <trkpt lat="45.584648" lon="7.853537">
        <ele>1437.60925</ele>
        <time>2024-08-08T14:49:11.000Z</time>
      </trkpt>
      <trkpt lat="45.58463" lon="7.853523">
        <ele>1437.26428</ele>
        <time>2024-08-08T14:49:14.000Z</time>
      </trkpt>
      <trkpt lat="45.584648" lon="7.853543">
        <ele>1437.0343</ele>
        <time>2024-08-08T14:49:27.000Z</time>
      </trkpt>
      <trkpt lat="45.584668" lon="7.85354">
        <ele>1436.80432</ele>
        <time>2024-08-08T14:49:30.000Z</time>
      </trkpt>
      <trkpt lat="45.584667" lon="7.853503">
        <ele>1436.51929</ele>
        <time>2024-08-08T14:49:35.000Z</time>
      </trkpt>
      <trkpt lat="45.584658" lon="7.853478">
        <ele>1436.21924</ele>
        <time>2024-08-08T14:49:37.000Z</time>
      </trkpt>
      <trkpt lat="45.584645" lon="7.853452">
        <ele>1435.88416</ele>
        <time>2024-08-08T14:49:39.000Z</time>
      </trkpt>
      <trkpt lat="45.58463" lon="7.85343">
        <ele>1435.50415</ele>
        <time>2024-08-08T14:49:41.000Z</time>
      </trkpt>
      <trkpt lat="45.584613" lon="7.853405">
        <ele>1435.099</ele>
        <time>2024-08-08T14:49:44.000Z</time>
      </trkpt>
      <trkpt lat="45.584593" lon="7.85338">
        <ele>1434.71899</ele>
        <time>2024-08-08T14:49:46.000Z</time>
      </trkpt>
      <trkpt lat="45.584577" lon="7.85335">
        <ele>1434.32397</ele>
        <time>2024-08-08T14:49:48.000Z</time>
      </trkpt>
      <trkpt lat="45.584562" lon="7.853325">
        <ele>1433.90906</ele>
        <time>2024-08-08T14:49:50.000Z</time>
      </trkpt>
      <trkpt lat="45.584547" lon="7.8533">
        <ele>1433.4491</ele>
        <time>2024-08-08T14:49:53.000Z</time>
      </trkpt>
      <trkpt lat="45.584538" lon="7.853273">
        <ele>1432.97412</ele>
        <time>2024-08-08T14:49:56.000Z</time>
      </trkpt>
      <trkpt lat="45.584522" lon="7.85325">
        <ele>1432.46411</ele>
        <time>2024-08-08T14:49:58.000Z</time>
      </trkpt>
      <trkpt lat="45.584503" lon="7.85324">
        <ele>1431.90405</ele>
        <time>2024-08-08T14:50:00.000Z</time>
      </trkpt>
      <trkpt lat="45.584487" lon="7.853217">
        <ele>1431.30408</ele>
        <time>2024-08-08T14:50:02.000Z</time>
      </trkpt>
      <trkpt lat="45.584465" lon="7.8532">
        <ele>1430.64905</ele>
        <time>2024-08-08T14:50:04.000Z</time>
      </trkpt>
      <trkpt lat="45.584442" lon="7.853185">
        <ele>1429.91406</ele>
        <time>2024-08-08T14:50:06.000Z</time>
      </trkpt>
      <trkpt lat="45.584423" lon="7.853168">
        <ele>1429.18408</ele>
        <time>2024-08-08T14:50:08.000Z</time>
      </trkpt>
      <trkpt lat="45.584403" lon="7.853158">
        <ele>1428.38904</ele>
        <time>2024-08-08T14:50:10.000Z</time>
      </trkpt>
      <trkpt lat="45.584385" lon="7.853142">
        <ele>1427.56409</ele>
        <time>2024-08-08T14:50:12.000Z</time>
      </trkpt>
      <trkpt lat="45.58436" lon="7.853123">
        <ele>1426.56409</ele>
        <time>2024-08-08T14:50:15.000Z</time>
      </trkpt>
      <trkpt lat="45.58434" lon="7.853097">
        <ele>1425.53406</ele>
        <time>2024-08-08T14:50:17.000Z</time>
      </trkpt>
      <trkpt lat="45.584328" lon="7.853077">
        <ele>1424.53918</ele>
        <time>2024-08-08T14:50:18.000Z</time>
      </trkpt>
      <trkpt lat="45.584307" lon="7.853052">
        <ele>1423.58423</ele>
        <time>2024-08-08T14:50:21.000Z</time>
      </trkpt>
      <trkpt lat="45.584285" lon="7.853027">
        <ele>1422.72424</ele>
        <time>2024-08-08T14:50:24.000Z</time>
      </trkpt>
      <trkpt lat="45.584258" lon="7.853005">
        <ele>1422.00928</ele>
        <time>2024-08-08T14:50:26.000Z</time>
      </trkpt>
      <trkpt lat="45.584242" lon="7.852987">
        <ele>1421.36938</ele>
        <time>2024-08-08T14:50:28.000Z</time>
      </trkpt>
      <trkpt lat="45.584223" lon="7.85297">
        <ele>1420.7793</ele>
        <time>2024-08-08T14:50:30.000Z</time>
      </trkpt>
      <trkpt lat="45.5842" lon="7.852955">
        <ele>1420.30933</ele>
        <time>2024-08-08T14:50:33.000Z</time>
      </trkpt>
      <trkpt lat="45.584177" lon="7.85294">
        <ele>1419.88428</ele>
        <time>2024-08-08T14:50:35.000Z</time>
      </trkpt>
      <trkpt lat="45.584157" lon="7.852932">
        <ele>1419.53931</ele>
        <time>2024-08-08T14:50:37.000Z</time>
      </trkpt>
      <trkpt lat="45.584133" lon="7.852922">
        <ele>1419.26428</ele>
        <time>2024-08-08T14:50:39.000Z</time>
      </trkpt>
      <trkpt lat="45.58412" lon="7.852903">
        <ele>1419.02429</ele>
        <time>2024-08-08T14:50:42.000Z</time>
      </trkpt>
      <trkpt lat="45.5841" lon="7.852878">
        <ele>1418.82935</ele>
        <time>2024-08-08T14:50:45.000Z</time>
      </trkpt>
      <trkpt lat="45.58409" lon="7.852845">
        <ele>1418.67932</ele>
        <time>2024-08-08T14:50:48.000Z</time>
      </trkpt>
      <trkpt lat="45.58407" lon="7.852833">
        <ele>1418.53442</ele>
        <time>2024-08-08T14:50:51.000Z</time>
      </trkpt>
      <trkpt lat="45.584052" lon="7.852815">
        <ele>1418.45435</ele>
        <time>2024-08-08T14:50:54.000Z</time>
      </trkpt>
      <trkpt lat="45.58403" lon="7.852803">
        <ele>1418.3645</ele>
        <time>2024-08-08T14:50:57.000Z</time>
      </trkpt>
      <trkpt lat="45.584015" lon="7.852783">
        <ele>1418.24438</ele>
        <time>2024-08-08T14:51:01.000Z</time>
      </trkpt>
      <trkpt lat="45.583982" lon="7.852728">
        <ele>1418.04944</ele>
        <time>2024-08-08T14:51:08.000Z</time>
      </trkpt>
      <trkpt lat="45.583962" lon="7.852703">
        <ele>1417.83936</ele>
        <time>2024-08-08T14:51:11.000Z</time>
      </trkpt>
      <trkpt lat="45.583877" lon="7.85262">
        <ele>1417.48438</ele>
        <time>2024-08-08T14:51:23.000Z</time>
      </trkpt>
      <trkpt lat="45.583838" lon="7.852578">
        <ele>1417.04431</ele>
        <time>2024-08-08T14:51:30.000Z</time>
      </trkpt>
      <trkpt lat="45.583823" lon="7.852558">
        <ele>1416.58435</ele>
        <time>2024-08-08T14:51:33.000Z</time>
      </trkpt>
      <trkpt lat="45.583783" lon="7.852535">
        <ele>1416.09937</ele>
        <time>2024-08-08T14:51:38.000Z</time>
      </trkpt>
      <trkpt lat="45.583765" lon="7.852528">
        <ele>1415.55933</ele>
        <time>2024-08-08T14:51:41.000Z</time>
      </trkpt>
      <trkpt lat="45.583743" lon="7.852517">
        <ele>1414.99927</ele>
        <time>2024-08-08T14:51:44.000Z</time>
      </trkpt>
      <trkpt lat="45.583722" lon="7.8525">
        <ele>1414.44922</ele>
        <time>2024-08-08T14:51:47.000Z</time>
      </trkpt>
      <trkpt lat="45.583702" lon="7.852468">
        <ele>1413.86926</ele>
        <time>2024-08-08T14:51:49.000Z</time>
      </trkpt>
      <trkpt lat="45.583677" lon="7.85246">
        <ele>1413.32422</ele>
        <time>2024-08-08T14:51:52.000Z</time>
      </trkpt>
      <trkpt lat="45.583657" lon="7.852455">
        <ele>1412.77917</ele>
        <time>2024-08-08T14:51:54.000Z</time>
      </trkpt>
      <trkpt lat="45.583637" lon="7.85246">
        <ele>1412.1991</ele>
        <time>2024-08-08T14:51:57.000Z</time>
      </trkpt>
      <trkpt lat="45.583618" lon="7.852467">
        <ele>1411.65405</ele>
        <time>2024-08-08T14:51:59.000Z</time>
      </trkpt>
      <trkpt lat="45.58359" lon="7.852465">
        <ele>1411.14417</ele>
        <time>2024-08-08T14:52:02.000Z</time>
      </trkpt>
      <trkpt lat="45.58357" lon="7.85246">
        <ele>1410.66919</ele>
        <time>2024-08-08T14:52:04.000Z</time>
      </trkpt>
      <trkpt lat="45.583547" lon="7.852457">
        <ele>1410.21411</ele>
        <time>2024-08-08T14:52:07.000Z</time>
      </trkpt>
      <trkpt lat="45.583528" lon="7.852455">
        <ele>1409.75403</ele>
        <time>2024-08-08T14:52:09.000Z</time>
      </trkpt>
      <trkpt lat="45.583508" lon="7.852457">
        <ele>1409.33398</ele>
        <time>2024-08-08T14:52:11.000Z</time>
      </trkpt>
      <trkpt lat="45.583483" lon="7.85246">
        <ele>1408.98401</ele>
        <time>2024-08-08T14:52:13.000Z</time>
      </trkpt>
      <trkpt lat="45.583465" lon="7.852467">
        <ele>1408.75403</ele>
        <time>2024-08-08T14:52:15.000Z</time>
      </trkpt>
      <trkpt lat="45.58344" lon="7.852472">
        <ele>1408.604</ele>
        <time>2024-08-08T14:52:17.000Z</time>
      </trkpt>
      <trkpt lat="45.583422" lon="7.852478">
        <ele>1408.63892</ele>
        <time>2024-08-08T14:52:19.000Z</time>
      </trkpt>
      <trkpt lat="45.583403" lon="7.852487">
        <ele>1408.75903</ele>
        <time>2024-08-08T14:52:21.000Z</time>
      </trkpt>
      <trkpt lat="45.583377" lon="7.852502">
        <ele>1408.8689</ele>
        <time>2024-08-08T14:52:23.000Z</time>
      </trkpt>
      <trkpt lat="45.58336" lon="7.852515">
        <ele>1408.90405</ele>
        <time>2024-08-08T14:52:26.000Z</time>
      </trkpt>
      <trkpt lat="45.583342" lon="7.852503">
        <ele>1408.95898</ele>
        <time>2024-08-08T14:52:30.000Z</time>
      </trkpt>
      <trkpt lat="45.583332" lon="7.852478">
        <ele>1409.04407</ele>
        <time>2024-08-08T14:52:34.000Z</time>
      </trkpt>
      <trkpt lat="45.583345" lon="7.85245">
        <ele>1409.20911</ele>
        <time>2024-08-08T14:52:38.000Z</time>
      </trkpt>
      <trkpt lat="45.583367" lon="7.85243">
        <ele>1409.52417</ele>
        <time>2024-08-08T14:52:47.000Z</time>
      </trkpt>
      <trkpt lat="45.583353" lon="7.852452">
        <ele>1409.83411</ele>
        <time>2024-08-08T14:52:51.000Z</time>
      </trkpt>
      <trkpt lat="45.583333" lon="7.852457">
        <ele>1410.12415</ele>
        <time>2024-08-08T14:52:53.000Z</time>
      </trkpt>
      <trkpt lat="45.58333" lon="7.85242">
        <ele>1410.39417</ele>
        <time>2024-08-08T14:52:57.000Z</time>
      </trkpt>
      <trkpt lat="45.583335" lon="7.852387">
        <ele>1410.64917</ele>
        <time>2024-08-08T14:52:59.000Z</time>
      </trkpt>
      <trkpt lat="45.583323" lon="7.852365">
        <ele>1410.86401</ele>
        <time>2024-08-08T14:53:01.000Z</time>
      </trkpt>
      <trkpt lat="45.583312" lon="7.852332">
        <ele>1411.00903</ele>
        <time>2024-08-08T14:53:04.000Z</time>
      </trkpt>
      <trkpt lat="45.583307" lon="7.852305">
        <ele>1411.13916</ele>
        <time>2024-08-08T14:53:06.000Z</time>
      </trkpt>
      <trkpt lat="45.583292" lon="7.852287">
        <ele>1411.21924</ele>
        <time>2024-08-08T14:53:08.000Z</time>
      </trkpt>
      <trkpt lat="45.583283" lon="7.85226">
        <ele>1411.22925</ele>
        <time>2024-08-08T14:53:11.000Z</time>
      </trkpt>
      <trkpt lat="45.583277" lon="7.85223">
        <ele>1411.19421</ele>
        <time>2024-08-08T14:53:13.000Z</time>
      </trkpt>
      <trkpt lat="45.583263" lon="7.8522">
        <ele>1411.06921</ele>
        <time>2024-08-08T14:53:16.000Z</time>
      </trkpt>
      <trkpt lat="45.58326" lon="7.852172">
        <ele>1410.91919</ele>
        <time>2024-08-08T14:53:19.000Z</time>
      </trkpt>
      <trkpt lat="45.583225" lon="7.852115">
        <ele>1410.60425</ele>
        <time>2024-08-08T14:53:25.000Z</time>
      </trkpt>
      <trkpt lat="45.583215" lon="7.852085">
        <ele>1410.20422</ele>
        <time>2024-08-08T14:53:28.000Z</time>
      </trkpt>
      <trkpt lat="45.5832" lon="7.852068">
        <ele>1409.75415</ele>
        <time>2024-08-08T14:53:31.000Z</time>
      </trkpt>
      <trkpt lat="45.583185" lon="7.852048">
        <ele>1409.29919</ele>
        <time>2024-08-08T14:53:35.000Z</time>
      </trkpt>
      <trkpt lat="45.583167" lon="7.85203">
        <ele>1408.7793</ele>
        <time>2024-08-08T14:53:38.000Z</time>
      </trkpt>
      <trkpt lat="45.58314" lon="7.852015">
        <ele>1408.19934</ele>
        <time>2024-08-08T14:53:40.000Z</time>
      </trkpt>
      <trkpt lat="45.583117" lon="7.852012">
        <ele>1407.48938</ele>
        <time>2024-08-08T14:53:43.000Z</time>
      </trkpt>
      <trkpt lat="45.583102" lon="7.852028">
        <ele>1406.62927</ele>
        <time>2024-08-08T14:53:46.000Z</time>
      </trkpt>
      <trkpt lat="45.583097" lon="7.852058">
        <ele>1405.73425</ele>
        <time>2024-08-08T14:53:50.000Z</time>
      </trkpt>
      <trkpt lat="45.58309" lon="7.852087">
        <ele>1404.86426</ele>
        <time>2024-08-08T14:53:55.000Z</time>
      </trkpt>
      <trkpt lat="45.583075" lon="7.852105">
        <ele>1404.01929</ele>
        <time>2024-08-08T14:53:57.000Z</time>
      </trkpt>
      <trkpt lat="45.583058" lon="7.852118">
        <ele>1403.12915</ele>
        <time>2024-08-08T14:54:03.000Z</time>
      </trkpt>
      <trkpt lat="45.583042" lon="7.852137">
        <ele>1402.20923</ele>
        <time>2024-08-08T14:54:07.000Z</time>
      </trkpt>
      <trkpt lat="45.583032" lon="7.852158">
        <ele>1401.31421</ele>
        <time>2024-08-08T14:54:10.000Z</time>
      </trkpt>
      <trkpt lat="45.583017" lon="7.852182">
        <ele>1400.41919</ele>
        <time>2024-08-08T14:54:12.000Z</time>
      </trkpt>
      <trkpt lat="45.58301" lon="7.852213">
        <ele>1399.55408</ele>
        <time>2024-08-08T14:54:15.000Z</time>
      </trkpt>
      <trkpt lat="45.583008" lon="7.852245">
        <ele>1398.6991</ele>
        <time>2024-08-08T14:54:18.000Z</time>
      </trkpt>
      <trkpt lat="45.582992" lon="7.852282">
        <ele>1397.79907</ele>
        <time>2024-08-08T14:54:21.000Z</time>
      </trkpt>
      <trkpt lat="45.58298" lon="7.85231">
        <ele>1396.93408</ele>
        <time>2024-08-08T14:54:23.000Z</time>
      </trkpt>
      <trkpt lat="45.582963" lon="7.852338">
        <ele>1396.05908</ele>
        <time>2024-08-08T14:54:25.000Z</time>
      </trkpt>
      <trkpt lat="45.582943" lon="7.852365">
        <ele>1395.3291</ele>
        <time>2024-08-08T14:54:27.000Z</time>
      </trkpt>
      <trkpt lat="45.58292" lon="7.852392">
        <ele>1394.63904</ele>
        <time>2024-08-08T14:54:29.000Z</time>
      </trkpt>
      <trkpt lat="45.5829" lon="7.852402">
        <ele>1393.974</ele>
        <time>2024-08-08T14:54:32.000Z</time>
      </trkpt>
      <trkpt lat="45.582887" lon="7.852425">
        <ele>1393.349</ele>
        <time>2024-08-08T14:54:34.000Z</time>
      </trkpt>
      <trkpt lat="45.582865" lon="7.852448">
        <ele>1392.71399</ele>
        <time>2024-08-08T14:54:36.000Z</time>
      </trkpt>
      <trkpt lat="45.582847" lon="7.852475">
        <ele>1392.07397</ele>
        <time>2024-08-08T14:54:38.000Z</time>
      </trkpt>
      <trkpt lat="45.582828" lon="7.852495">
        <ele>1391.41882</ele>
        <time>2024-08-08T14:54:40.000Z</time>
      </trkpt>
      <trkpt lat="45.582815" lon="7.852513">
        <ele>1390.69385</ele>
        <time>2024-08-08T14:54:43.000Z</time>
      </trkpt>
      <trkpt lat="45.582805" lon="7.85254">
        <ele>1389.91382</ele>
        <time>2024-08-08T14:54:46.000Z</time>
      </trkpt>
      <trkpt lat="45.58279" lon="7.852557">
        <ele>1389.08887</ele>
        <time>2024-08-08T14:54:48.000Z</time>
      </trkpt>
      <trkpt lat="45.582767" lon="7.852563">
        <ele>1388.22388</ele>
        <time>2024-08-08T14:54:52.000Z</time>
      </trkpt>
      <trkpt lat="45.582755" lon="7.852583">
        <ele>1387.39893</ele>
        <time>2024-08-08T14:54:55.000Z</time>
      </trkpt>
      <trkpt lat="45.582732" lon="7.852612">
        <ele>1386.65405</ele>
        <time>2024-08-08T14:54:58.000Z</time>
      </trkpt>
      <trkpt lat="45.582713" lon="7.85261">
        <ele>1385.93896</ele>
        <time>2024-08-08T14:55:01.000Z</time>
      </trkpt>
      <trkpt lat="45.582685" lon="7.852605">
        <ele>1385.2439</ele>
        <time>2024-08-08T14:55:04.000Z</time>
      </trkpt>
      <trkpt lat="45.582663" lon="7.852617">
        <ele>1384.57397</ele>
        <time>2024-08-08T14:55:06.000Z</time>
      </trkpt>
      <trkpt lat="45.582638" lon="7.852628">
        <ele>1383.96399</ele>
        <time>2024-08-08T14:55:08.000Z</time>
      </trkpt>
      <trkpt lat="45.582615" lon="7.852637">
        <ele>1383.44397</ele>
        <time>2024-08-08T14:55:11.000Z</time>
      </trkpt>
      <trkpt lat="45.582597" lon="7.852648">
        <ele>1382.974</ele>
        <time>2024-08-08T14:55:14.000Z</time>
      </trkpt>
      <trkpt lat="45.582605" lon="7.852672">
        <ele>1382.53906</ele>
        <time>2024-08-08T14:55:20.000Z</time>
      </trkpt>
      <trkpt lat="45.582593" lon="7.85271">
        <ele>1382.10413</ele>
        <time>2024-08-08T14:55:32.000Z</time>
      </trkpt>
      <trkpt lat="45.582612" lon="7.852732">
        <ele>1381.70911</ele>
        <time>2024-08-08T14:55:35.000Z</time>
      </trkpt>
      <trkpt lat="45.582617" lon="7.852757">
        <ele>1381.34912</ele>
        <time>2024-08-08T14:55:37.000Z</time>
      </trkpt>
      <trkpt lat="45.582618" lon="7.852785">
        <ele>1380.96899</ele>
        <time>2024-08-08T14:55:39.000Z</time>
      </trkpt>
      <trkpt lat="45.58262" lon="7.852817">
        <ele>1380.60413</ele>
        <time>2024-08-08T14:55:41.000Z</time>
      </trkpt>
      <trkpt lat="45.582618" lon="7.852855">
        <ele>1380.23413</ele>
        <time>2024-08-08T14:55:44.000Z</time>
      </trkpt>
      <trkpt lat="45.582622" lon="7.852892">
        <ele>1379.84412</ele>
        <time>2024-08-08T14:55:47.000Z</time>
      </trkpt>
      <trkpt lat="45.582618" lon="7.852918">
        <ele>1379.47424</ele>
        <time>2024-08-08T14:55:49.000Z</time>
      </trkpt>
      <trkpt lat="45.582618" lon="7.852953">
        <ele>1379.12915</ele>
        <time>2024-08-08T14:55:51.000Z</time>
      </trkpt>
      <trkpt lat="45.582618" lon="7.852992">
        <ele>1378.76428</ele>
        <time>2024-08-08T14:55:54.000Z</time>
      </trkpt>
      <trkpt lat="45.582608" lon="7.853032">
        <ele>1378.41919</ele>
        <time>2024-08-08T14:55:56.000Z</time>
      </trkpt>
      <trkpt lat="45.582598" lon="7.853057">
        <ele>1378.06421</ele>
        <time>2024-08-08T14:55:57.000Z</time>
      </trkpt>
      <trkpt lat="45.582583" lon="7.85309">
        <ele>1377.66431</ele>
        <time>2024-08-08T14:55:59.000Z</time>
      </trkpt>
      <trkpt lat="45.582567" lon="7.853112">
        <ele>1377.21936</ele>
        <time>2024-08-08T14:56:01.000Z</time>
      </trkpt>
      <trkpt lat="45.582555" lon="7.853138">
        <ele>1376.74927</ele>
        <time>2024-08-08T14:56:03.000Z</time>
      </trkpt>
      <trkpt lat="45.582547" lon="7.853185">
        <ele>1376.22925</ele>
        <time>2024-08-08T14:56:05.000Z</time>
      </trkpt>
      <trkpt lat="45.582548" lon="7.853232">
        <ele>1375.64429</ele>
        <time>2024-08-08T14:56:07.000Z</time>
      </trkpt>
      <trkpt lat="45.582548" lon="7.85326">
        <ele>1375.02417</ele>
        <time>2024-08-08T14:56:08.000Z</time>
      </trkpt>
      <trkpt lat="45.58255" lon="7.8533">
        <ele>1374.36914</ele>
        <time>2024-08-08T14:56:10.000Z</time>
      </trkpt>
      <trkpt lat="45.58255" lon="7.853333">
        <ele>1373.64917</ele>
        <time>2024-08-08T14:56:12.000Z</time>
      </trkpt>
      <trkpt lat="45.582548" lon="7.853373">
        <ele>1372.87415</ele>
        <time>2024-08-08T14:56:14.000Z</time>
      </trkpt>
      <trkpt lat="45.582542" lon="7.853417">
        <ele>1372.03418</ele>
        <time>2024-08-08T14:56:16.000Z</time>
      </trkpt>
      <trkpt lat="45.582542" lon="7.853455">
        <ele>1371.15918</ele>
        <time>2024-08-08T14:56:18.000Z</time>
      </trkpt>
      <trkpt lat="45.58255" lon="7.853493">
        <ele>1370.31921</ele>
        <time>2024-08-08T14:56:20.000Z</time>
      </trkpt>
      <trkpt lat="45.582557" lon="7.853533">
        <ele>1369.49426</ele>
        <time>2024-08-08T14:56:22.000Z</time>
      </trkpt>
      <trkpt lat="45.582555" lon="7.85356">
        <ele>1368.70435</ele>
        <time>2024-08-08T14:56:24.000Z</time>
      </trkpt>
      <trkpt lat="45.582552" lon="7.853593">
        <ele>1367.94934</ele>
        <time>2024-08-08T14:56:26.000Z</time>
      </trkpt>
      <trkpt lat="45.582555" lon="7.853632">
        <ele>1367.21423</ele>
        <time>2024-08-08T14:56:28.000Z</time>
      </trkpt>
      <trkpt lat="45.582558" lon="7.853668">
        <ele>1366.49927</ele>
        <time>2024-08-08T14:56:30.000Z</time>
      </trkpt>
      <trkpt lat="45.582562" lon="7.853705">
        <ele>1365.83923</ele>
        <time>2024-08-08T14:56:32.000Z</time>
      </trkpt>
      <trkpt lat="45.582558" lon="7.853752">
        <ele>1365.21924</ele>
        <time>2024-08-08T14:56:34.000Z</time>
      </trkpt>
      <trkpt lat="45.582562" lon="7.8538">
        <ele>1364.59424</ele>
        <time>2024-08-08T14:56:36.000Z</time>
      </trkpt>
      <trkpt lat="45.582558" lon="7.853838">
        <ele>1363.94922</ele>
        <time>2024-08-08T14:56:39.000Z</time>
      </trkpt>
      <trkpt lat="45.582547" lon="7.853872">
        <ele>1363.33911</ele>
        <time>2024-08-08T14:56:41.000Z</time>
      </trkpt>
      <trkpt lat="45.582535" lon="7.853908">
        <ele>1362.75916</ele>
        <time>2024-08-08T14:56:43.000Z</time>
      </trkpt>
      <trkpt lat="45.582527" lon="7.85394">
        <ele>1362.20923</ele>
        <time>2024-08-08T14:56:45.000Z</time>
      </trkpt>
      <trkpt lat="45.582518" lon="7.85399">
        <ele>1361.69922</ele>
        <time>2024-08-08T14:56:47.000Z</time>
      </trkpt>
      <trkpt lat="45.582512" lon="7.85402">
        <ele>1361.20923</ele>
        <time>2024-08-08T14:56:48.000Z</time>
      </trkpt>
      <trkpt lat="45.582505" lon="7.854065">
        <ele>1360.75427</ele>
        <time>2024-08-08T14:56:50.000Z</time>
      </trkpt>
      <trkpt lat="45.582493" lon="7.854098">
        <ele>1360.37927</ele>
        <time>2024-08-08T14:56:52.000Z</time>
      </trkpt>
      <trkpt lat="45.582488" lon="7.854125">
        <ele>1360.08923</ele>
        <time>2024-08-08T14:56:54.000Z</time>
      </trkpt>
      <trkpt lat="45.582472" lon="7.854148">
        <ele>1359.90417</ele>
        <time>2024-08-08T14:56:57.000Z</time>
      </trkpt>
      <trkpt lat="45.58247" lon="7.854175">
        <ele>1359.77417</ele>
        <time>2024-08-08T14:57:00.000Z</time>
      </trkpt>
      <trkpt lat="45.582468" lon="7.854213">
        <ele>1359.63916</ele>
        <time>2024-08-08T14:57:03.000Z</time>
      </trkpt>
      <trkpt lat="45.582472" lon="7.85425">
        <ele>1359.49414</ele>
        <time>2024-08-08T14:57:06.000Z</time>
      </trkpt>
      <trkpt lat="45.582477" lon="7.854288">
        <ele>1359.34912</ele>
        <time>2024-08-08T14:57:09.000Z</time>
      </trkpt>
      <trkpt lat="45.582477" lon="7.854327">
        <ele>1359.24402</ele>
        <time>2024-08-08T14:57:11.000Z</time>
      </trkpt>
      <trkpt lat="45.582475" lon="7.854353">
        <ele>1359.15906</ele>
        <time>2024-08-08T14:57:12.000Z</time>
      </trkpt>
      <trkpt lat="45.582475" lon="7.854382">
        <ele>1359.11401</ele>
        <time>2024-08-08T14:57:13.000Z</time>
      </trkpt>
      <trkpt lat="45.582468" lon="7.854407">
        <ele>1359.0741</ele>
        <time>2024-08-08T14:57:14.000Z</time>
      </trkpt>
      <trkpt lat="45.58247" lon="7.854433">
        <ele>1359.04419</ele>
        <time>2024-08-08T14:57:16.000Z</time>
      </trkpt>
      <trkpt lat="45.582475" lon="7.854463">
        <ele>1359.02917</ele>
        <time>2024-08-08T14:57:18.000Z</time>
      </trkpt>
      <trkpt lat="45.582473" lon="7.85449">
        <ele>1359.03418</ele>
        <time>2024-08-08T14:57:20.000Z</time>
      </trkpt>
      <trkpt lat="45.582473" lon="7.85452">
        <ele>1359.03418</ele>
        <time>2024-08-08T14:57:23.000Z</time>
      </trkpt>
      <trkpt lat="45.582468" lon="7.854555">
        <ele>1358.98914</ele>
        <time>2024-08-08T14:57:26.000Z</time>
      </trkpt>
      <trkpt lat="45.582468" lon="7.854593">
        <ele>1358.90417</ele>
        <time>2024-08-08T14:57:28.000Z</time>
      </trkpt>
      <trkpt lat="45.582473" lon="7.854622">
        <ele>1358.82922</ele>
        <time>2024-08-08T14:57:29.000Z</time>
      </trkpt>
      <trkpt lat="45.582483" lon="7.854643">
        <ele>1358.74927</ele>
        <time>2024-08-08T14:57:30.000Z</time>
      </trkpt>
      <trkpt lat="45.5825" lon="7.854687">
        <ele>1358.68433</ele>
        <time>2024-08-08T14:57:32.000Z</time>
      </trkpt>
      <trkpt lat="45.582523" lon="7.8547">
        <ele>1358.61938</ele>
        <time>2024-08-08T14:57:34.000Z</time>
      </trkpt>
      <trkpt lat="45.582528" lon="7.854725">
        <ele>1358.54932</ele>
        <time>2024-08-08T14:57:36.000Z</time>
      </trkpt>
      <trkpt lat="45.582533" lon="7.85476">
        <ele>1358.46436</ele>
        <time>2024-08-08T14:57:38.000Z</time>
      </trkpt>
      <trkpt lat="45.58254" lon="7.854792">
        <ele>1358.3894</ele>
        <time>2024-08-08T14:57:40.000Z</time>
      </trkpt>
      <trkpt lat="45.58255" lon="7.85482">
        <ele>1358.32935</ele>
        <time>2024-08-08T14:57:42.000Z</time>
      </trkpt>
      <trkpt lat="45.582565" lon="7.85484">
        <ele>1358.28442</ele>
        <time>2024-08-08T14:57:44.000Z</time>
      </trkpt>
      <trkpt lat="45.582587" lon="7.854865">
        <ele>1358.20935</ele>
        <time>2024-08-08T14:57:46.000Z</time>
      </trkpt>
      <trkpt lat="45.582598" lon="7.854888">
        <ele>1358.1145</ele>
        <time>2024-08-08T14:57:48.000Z</time>
      </trkpt>
      <trkpt lat="45.58261" lon="7.85492">
        <ele>1358.01941</ele>
        <time>2024-08-08T14:57:50.000Z</time>
      </trkpt>
      <trkpt lat="45.582622" lon="7.854945">
        <ele>1357.89941</ele>
        <time>2024-08-08T14:57:52.000Z</time>
      </trkpt>
      <trkpt lat="45.582627" lon="7.854985">
        <ele>1357.77942</ele>
        <time>2024-08-08T14:57:54.000Z</time>
      </trkpt>
      <trkpt lat="45.582627" lon="7.855015">
        <ele>1357.64441</ele>
        <time>2024-08-08T14:57:55.000Z</time>
      </trkpt>
      <trkpt lat="45.582623" lon="7.85506">
        <ele>1357.52942</ele>
        <time>2024-08-08T14:57:57.000Z</time>
      </trkpt>
      <trkpt lat="45.582625" lon="7.8551">
        <ele>1357.46436</ele>
        <time>2024-08-08T14:57:59.000Z</time>
      </trkpt>
      <trkpt lat="45.582625" lon="7.855137">
        <ele>1357.44434</ele>
        <time>2024-08-08T14:58:01.000Z</time>
      </trkpt>
      <trkpt lat="45.582618" lon="7.855172">
        <ele>1357.50439</ele>
        <time>2024-08-08T14:58:03.000Z</time>
      </trkpt>
      <trkpt lat="45.582613" lon="7.8552">
        <ele>1357.66943</ele>
        <time>2024-08-08T14:58:06.000Z</time>
      </trkpt>
      <trkpt lat="45.58261" lon="7.855235">
        <ele>1357.85437</ele>
        <time>2024-08-08T14:58:09.000Z</time>
      </trkpt>
      <trkpt lat="45.5826" lon="7.855262">
        <ele>1358.04431</ele>
        <time>2024-08-08T14:58:11.000Z</time>
      </trkpt>
      <trkpt lat="45.582573" lon="7.855287">
        <ele>1358.21423</ele>
        <time>2024-08-08T14:58:13.000Z</time>
      </trkpt>
      <trkpt lat="45.582552" lon="7.855307">
        <ele>1358.37427</ele>
        <time>2024-08-08T14:58:15.000Z</time>
      </trkpt>
      <trkpt lat="45.582533" lon="7.855318">
        <ele>1358.50928</ele>
        <time>2024-08-08T14:58:17.000Z</time>
      </trkpt>
      <trkpt lat="45.582508" lon="7.855333">
        <ele>1358.62427</ele>
        <time>2024-08-08T14:58:19.000Z</time>
      </trkpt>
      <trkpt lat="45.58248" lon="7.85536">
        <ele>1358.72925</ele>
        <time>2024-08-08T14:58:21.000Z</time>
      </trkpt>
      <trkpt lat="45.582462" lon="7.855372">
        <ele>1358.83923</ele>
        <time>2024-08-08T14:58:22.000Z</time>
      </trkpt>
      <trkpt lat="45.58243" lon="7.85538">
        <ele>1358.96924</ele>
        <time>2024-08-08T14:58:24.000Z</time>
      </trkpt>
      <trkpt lat="45.582405" lon="7.855373">
        <ele>1359.14917</ele>
        <time>2024-08-08T14:58:26.000Z</time>
      </trkpt>
      <trkpt lat="45.582395" lon="7.855348">
        <ele>1359.31421</ele>
        <time>2024-08-08T14:58:29.000Z</time>
      </trkpt>
      <trkpt lat="45.58239" lon="7.85532">
        <ele>1359.4292</ele>
        <time>2024-08-08T14:58:31.000Z</time>
      </trkpt>
      <trkpt lat="45.582385" lon="7.85529">
        <ele>1359.47925</ele>
        <time>2024-08-08T14:58:33.000Z</time>
      </trkpt>
      <trkpt lat="45.582375" lon="7.855265">
        <ele>1359.41919</ele>
        <time>2024-08-08T14:58:35.000Z</time>
      </trkpt>
      <trkpt lat="45.582355" lon="7.855248">
        <ele>1359.26404</ele>
        <time>2024-08-08T14:58:37.000Z</time>
      </trkpt>
      <trkpt lat="45.582323" lon="7.855207">
        <ele>1359.04907</ele>
        <time>2024-08-08T14:58:39.000Z</time>
      </trkpt>
      <trkpt lat="45.5823" lon="7.855183">
        <ele>1358.77405</ele>
        <time>2024-08-08T14:58:40.000Z</time>
      </trkpt>
      <trkpt lat="45.582277" lon="7.855167">
        <ele>1358.43408</ele>
        <time>2024-08-08T14:58:41.000Z</time>
      </trkpt>
      <trkpt lat="45.582257" lon="7.855133">
        <ele>1358.03406</ele>
        <time>2024-08-08T14:58:43.000Z</time>
      </trkpt>
      <trkpt lat="45.582242" lon="7.855113">
        <ele>1357.55396</ele>
        <time>2024-08-08T14:58:44.000Z</time>
      </trkpt>
      <trkpt lat="45.582222" lon="7.855077">
        <ele>1357.01904</ele>
        <time>2024-08-08T14:58:46.000Z</time>
      </trkpt>
      <trkpt lat="45.582212" lon="7.855055">
        <ele>1356.474</ele>
        <time>2024-08-08T14:58:47.000Z</time>
      </trkpt>
      <trkpt lat="45.582195" lon="7.855018">
        <ele>1355.88403</ele>
        <time>2024-08-08T14:58:49.000Z</time>
      </trkpt>
      <trkpt lat="45.582177" lon="7.854993">
        <ele>1355.20911</ele>
        <time>2024-08-08T14:58:51.000Z</time>
      </trkpt>
      <trkpt lat="45.582168" lon="7.854963">
        <ele>1354.48901</ele>
        <time>2024-08-08T14:58:53.000Z</time>
      </trkpt>
      <trkpt lat="45.582162" lon="7.85493">
        <ele>1353.71411</ele>
        <time>2024-08-08T14:58:55.000Z</time>
      </trkpt>
      <trkpt lat="45.582143" lon="7.854893">
        <ele>1352.87402</ele>
        <time>2024-08-08T14:58:57.000Z</time>
      </trkpt>
      <trkpt lat="45.582132" lon="7.854872">
        <ele>1351.99902</ele>
        <time>2024-08-08T14:58:58.000Z</time>
      </trkpt>
      <trkpt lat="45.582105" lon="7.854833">
        <ele>1351.05908</ele>
        <time>2024-08-08T14:59:00.000Z</time>
      </trkpt>
      <trkpt lat="45.58209" lon="7.854815">
        <ele>1350.06909</ele>
        <time>2024-08-08T14:59:01.000Z</time>
      </trkpt>
      <trkpt lat="45.582075" lon="7.854797">
        <ele>1349.06909</ele>
        <time>2024-08-08T14:59:02.000Z</time>
      </trkpt>
      <trkpt lat="45.582067" lon="7.854773">
        <ele>1348.11902</ele>
        <time>2024-08-08T14:59:03.000Z</time>
      </trkpt>
      <trkpt lat="45.582053" lon="7.854747">
        <ele>1347.224</ele>
        <time>2024-08-08T14:59:05.000Z</time>
      </trkpt>
      <trkpt lat="45.582038" lon="7.854718">
        <ele>1346.41907</ele>
        <time>2024-08-08T14:59:07.000Z</time>
      </trkpt>
      <trkpt lat="45.582023" lon="7.85469">
        <ele>1345.6991</ele>
        <time>2024-08-08T14:59:09.000Z</time>
      </trkpt>
      <trkpt lat="45.582005" lon="7.854658">
        <ele>1344.99414</ele>
        <time>2024-08-08T14:59:11.000Z</time>
      </trkpt>
      <trkpt lat="45.581997" lon="7.854625">
        <ele>1344.29419</ele>
        <time>2024-08-08T14:59:13.000Z</time>
      </trkpt>
      <trkpt lat="45.581982" lon="7.854587">
        <ele>1343.63916</ele>
        <time>2024-08-08T14:59:15.000Z</time>
      </trkpt>
      <trkpt lat="45.581973" lon="7.854552">
        <ele>1343.02417</ele>
        <time>2024-08-08T14:59:17.000Z</time>
      </trkpt>
      <trkpt lat="45.581967" lon="7.854507">
        <ele>1342.48413</ele>
        <time>2024-08-08T14:59:19.000Z</time>
      </trkpt>
      <trkpt lat="45.581953" lon="7.854463">
        <ele>1342.02417</ele>
        <time>2024-08-08T14:59:21.000Z</time>
      </trkpt>
      <trkpt lat="45.581937" lon="7.854433">
        <ele>1341.60913</ele>
        <time>2024-08-08T14:59:23.000Z</time>
      </trkpt>
      <trkpt lat="45.581917" lon="7.854423">
        <ele>1341.26917</ele>
        <time>2024-08-08T14:59:25.000Z</time>
      </trkpt>
      <trkpt lat="45.581907" lon="7.854402">
        <ele>1341.06909</ele>
        <time>2024-08-08T14:59:27.000Z</time>
      </trkpt>
      <trkpt lat="45.581883" lon="7.854385">
        <ele>1340.9541</ele>
        <time>2024-08-08T14:59:29.000Z</time>
      </trkpt>
      <trkpt lat="45.581865" lon="7.854368">
        <ele>1340.9541</ele>
        <time>2024-08-08T14:59:31.000Z</time>
      </trkpt>
      <trkpt lat="45.581847" lon="7.854342">
        <ele>1341.04907</ele>
        <time>2024-08-08T14:59:34.000Z</time>
      </trkpt>
      <trkpt lat="45.581835" lon="7.854322">
        <ele>1341.1991</ele>
        <time>2024-08-08T14:59:36.000Z</time>
      </trkpt>
      <trkpt lat="45.581822" lon="7.854302">
        <ele>1341.37915</ele>
        <time>2024-08-08T14:59:39.000Z</time>
      </trkpt>
      <trkpt lat="45.581805" lon="7.854277">
        <ele>1341.55408</ele>
        <time>2024-08-08T14:59:42.000Z</time>
      </trkpt>
      <trkpt lat="45.581788" lon="7.854252">
        <ele>1341.75415</ele>
        <time>2024-08-08T14:59:45.000Z</time>
      </trkpt>
      <trkpt lat="45.581765" lon="7.854235">
        <ele>1341.96899</ele>
        <time>2024-08-08T14:59:47.000Z</time>
      </trkpt>
      <trkpt lat="45.581737" lon="7.854223">
        <ele>1342.23413</ele>
        <time>2024-08-08T14:59:49.000Z</time>
      </trkpt>
      <trkpt lat="45.581708" lon="7.854218">
        <ele>1342.58411</ele>
        <time>2024-08-08T14:59:51.000Z</time>
      </trkpt>
      <trkpt lat="45.581687" lon="7.854222">
        <ele>1342.96411</ele>
        <time>2024-08-08T14:59:52.000Z</time>
      </trkpt>
      <trkpt lat="45.581652" lon="7.854218">
        <ele>1343.42407</ele>
        <time>2024-08-08T14:59:54.000Z</time>
      </trkpt>
      <trkpt lat="45.581618" lon="7.854207">
        <ele>1343.9292</ele>
        <time>2024-08-08T14:59:56.000Z</time>
      </trkpt>
      <trkpt lat="45.5816" lon="7.854195">
        <ele>1344.46912</ele>
        <time>2024-08-08T14:59:57.000Z</time>
      </trkpt>
      <trkpt lat="45.581578" lon="7.854175">
        <ele>1345.14917</ele>
        <time>2024-08-08T14:59:59.000Z</time>
      </trkpt>
      <trkpt lat="45.581562" lon="7.85415">
        <ele>1345.87915</ele>
        <time>2024-08-08T15:00:01.000Z</time>
      </trkpt>
      <trkpt lat="45.581543" lon="7.854132">
        <ele>1346.63916</ele>
        <time>2024-08-08T15:00:03.000Z</time>
      </trkpt>
      <trkpt lat="45.581527" lon="7.854122">
        <ele>1347.38916</ele>
        <time>2024-08-08T15:00:05.000Z</time>
      </trkpt>
      <trkpt lat="45.581498" lon="7.854115">
        <ele>1348.13416</ele>
        <time>2024-08-08T15:00:07.000Z</time>
      </trkpt>
      <trkpt lat="45.581473" lon="7.854118">
        <ele>1348.84924</ele>
        <time>2024-08-08T15:00:10.000Z</time>
      </trkpt>
      <trkpt lat="45.581455" lon="7.85411">
        <ele>1349.51428</ele>
        <time>2024-08-08T15:00:12.000Z</time>
      </trkpt>
      <trkpt lat="45.581437" lon="7.8541">
        <ele>1350.13416</ele>
        <time>2024-08-08T15:00:14.000Z</time>
      </trkpt>
      <trkpt lat="45.581418" lon="7.854115">
        <ele>1350.72424</ele>
        <time>2024-08-08T15:00:16.000Z</time>
      </trkpt>
      <trkpt lat="45.581402" lon="7.854125">
        <ele>1351.31421</ele>
        <time>2024-08-08T15:00:18.000Z</time>
      </trkpt>
      <trkpt lat="45.581377" lon="7.854118">
        <ele>1351.93921</ele>
        <time>2024-08-08T15:00:20.000Z</time>
      </trkpt>
      <trkpt lat="45.581357" lon="7.854097">
        <ele>1352.60925</ele>
        <time>2024-08-08T15:00:22.000Z</time>
      </trkpt>
      <trkpt lat="45.581328" lon="7.85409">
        <ele>1353.2793</ele>
        <time>2024-08-08T15:00:25.000Z</time>
      </trkpt>
      <trkpt lat="45.581305" lon="7.85409">
        <ele>1353.95923</ele>
        <time>2024-08-08T15:00:28.000Z</time>
      </trkpt>
      <trkpt lat="45.581287" lon="7.854083">
        <ele>1354.60925</ele>
        <time>2024-08-08T15:00:30.000Z</time>
      </trkpt>
      <trkpt lat="45.581263" lon="7.854067">
        <ele>1355.1593</ele>
        <time>2024-08-08T15:00:32.000Z</time>
      </trkpt>
      <trkpt lat="45.581248" lon="7.854048">
        <ele>1355.63928</ele>
        <time>2024-08-08T15:00:34.000Z</time>
      </trkpt>
      <trkpt lat="45.581228" lon="7.854038">
        <ele>1356.03931</ele>
        <time>2024-08-08T15:00:36.000Z</time>
      </trkpt>
      <trkpt lat="45.58121" lon="7.854033">
        <ele>1356.33923</ele>
        <time>2024-08-08T15:00:38.000Z</time>
      </trkpt>
      <trkpt lat="45.581187" lon="7.854048">
        <ele>1356.55432</ele>
        <time>2024-08-08T15:00:40.000Z</time>
      </trkpt>
      <trkpt lat="45.581163" lon="7.854055">
        <ele>1356.6543</ele>
        <time>2024-08-08T15:00:42.000Z</time>
      </trkpt>
      <trkpt lat="45.581143" lon="7.854053">
        <ele>1356.71936</ele>
        <time>2024-08-08T15:00:44.000Z</time>
      </trkpt>
      <trkpt lat="45.581122" lon="7.854055">
        <ele>1356.77429</ele>
        <time>2024-08-08T15:00:46.000Z</time>
      </trkpt>
      <trkpt lat="45.581098" lon="7.854068">
        <ele>1356.89429</ele>
        <time>2024-08-08T15:00:49.000Z</time>
      </trkpt>
      <trkpt lat="45.581078" lon="7.854092">
        <ele>1357.05432</ele>
        <time>2024-08-08T15:00:51.000Z</time>
      </trkpt>
      <trkpt lat="45.581058" lon="7.85411">
        <ele>1357.20435</ele>
        <time>2024-08-08T15:00:52.000Z</time>
      </trkpt>
      <trkpt lat="45.58104" lon="7.854115">
        <ele>1357.4043</ele>
        <time>2024-08-08T15:00:53.000Z</time>
      </trkpt>
      <trkpt lat="45.58102" lon="7.854118">
        <ele>1357.6344</ele>
        <time>2024-08-08T15:00:54.000Z</time>
      </trkpt>
      <trkpt lat="45.580995" lon="7.85412">
        <ele>1357.92432</ele>
        <time>2024-08-08T15:00:56.000Z</time>
      </trkpt>
      <trkpt lat="45.580977" lon="7.854088">
        <ele>1358.17432</ele>
        <time>2024-08-08T15:00:59.000Z</time>
      </trkpt>
      <trkpt lat="45.580948" lon="7.85407">
        <ele>1358.38428</ele>
        <time>2024-08-08T15:01:01.000Z</time>
      </trkpt>
      <trkpt lat="45.58093" lon="7.854062">
        <ele>1358.56934</ele>
        <time>2024-08-08T15:01:02.000Z</time>
      </trkpt>
      <trkpt lat="45.580903" lon="7.854042">
        <ele>1358.75427</ele>
        <time>2024-08-08T15:01:04.000Z</time>
      </trkpt>
      <trkpt lat="45.580885" lon="7.854023">
        <ele>1358.93433</ele>
        <time>2024-08-08T15:01:06.000Z</time>
      </trkpt>
      <trkpt lat="45.580868" lon="7.85401">
        <ele>1359.12939</ele>
        <time>2024-08-08T15:01:08.000Z</time>
      </trkpt>
      <trkpt lat="45.580852" lon="7.853998">
        <ele>1359.37939</ele>
        <time>2024-08-08T15:01:10.000Z</time>
      </trkpt>
      <trkpt lat="45.580828" lon="7.853995">
        <ele>1359.66943</ele>
        <time>2024-08-08T15:01:12.000Z</time>
      </trkpt>
      <trkpt lat="45.580803" lon="7.85399">
        <ele>1359.98938</ele>
        <time>2024-08-08T15:01:14.000Z</time>
      </trkpt>
      <trkpt lat="45.580783" lon="7.853977">
        <ele>1360.37427</ele>
        <time>2024-08-08T15:01:16.000Z</time>
      </trkpt>
      <trkpt lat="45.580758" lon="7.853965">
        <ele>1360.7793</ele>
        <time>2024-08-08T15:01:18.000Z</time>
      </trkpt>
      <trkpt lat="45.580728" lon="7.853963">
        <ele>1361.10925</ele>
        <time>2024-08-08T15:01:21.000Z</time>
      </trkpt>
      <trkpt lat="45.580703" lon="7.853972">
        <ele>1361.37915</ele>
        <time>2024-08-08T15:01:23.000Z</time>
      </trkpt>
      <trkpt lat="45.580675" lon="7.853975">
        <ele>1361.58423</ele>
        <time>2024-08-08T15:01:25.000Z</time>
      </trkpt>
      <trkpt lat="45.580643" lon="7.853978">
        <ele>1361.67407</ele>
        <time>2024-08-08T15:01:27.000Z</time>
      </trkpt>
      <trkpt lat="45.580625" lon="7.85397">
        <ele>1361.67407</ele>
        <time>2024-08-08T15:01:29.000Z</time>
      </trkpt>
      <trkpt lat="45.580598" lon="7.853963">
        <ele>1361.58911</ele>
        <time>2024-08-08T15:01:31.000Z</time>
      </trkpt>
      <trkpt lat="45.58057" lon="7.853955">
        <ele>1361.44409</ele>
        <time>2024-08-08T15:01:33.000Z</time>
      </trkpt>
      <trkpt lat="45.58057" lon="7.853928">
        <ele>1361.25403</ele>
        <time>2024-08-08T15:01:34.000Z</time>
      </trkpt>
      <trkpt lat="45.58056" lon="7.853902">
        <ele>1360.94897</ele>
        <time>2024-08-08T15:01:35.000Z</time>
      </trkpt>
      <trkpt lat="45.580545" lon="7.853867">
        <ele>1360.53394</ele>
        <time>2024-08-08T15:01:37.000Z</time>
      </trkpt>
      <trkpt lat="45.580528" lon="7.853835">
        <ele>1360.01904</ele>
        <time>2024-08-08T15:01:39.000Z</time>
      </trkpt>
      <trkpt lat="45.580517" lon="7.853805">
        <ele>1359.42407</ele>
        <time>2024-08-08T15:01:41.000Z</time>
      </trkpt>
      <trkpt lat="45.580503" lon="7.85378">
        <ele>1358.73413</ele>
        <time>2024-08-08T15:01:43.000Z</time>
      </trkpt>
      <trkpt lat="45.58049" lon="7.853747">
        <ele>1357.96899</ele>
        <time>2024-08-08T15:01:45.000Z</time>
      </trkpt>
      <trkpt lat="45.58048" lon="7.853718">
        <ele>1357.15405</ele>
        <time>2024-08-08T15:01:47.000Z</time>
      </trkpt>
      <trkpt lat="45.580473" lon="7.853692">
        <ele>1356.36401</ele>
        <time>2024-08-08T15:01:49.000Z</time>
      </trkpt>
      <trkpt lat="45.580468" lon="7.853658">
        <ele>1355.60901</ele>
        <time>2024-08-08T15:01:51.000Z</time>
      </trkpt>
      <trkpt lat="45.580457" lon="7.853627">
        <ele>1354.89905</ele>
        <time>2024-08-08T15:01:53.000Z</time>
      </trkpt>
      <trkpt lat="45.580445" lon="7.85358">
        <ele>1354.229</ele>
        <time>2024-08-08T15:01:55.000Z</time>
      </trkpt>
      <trkpt lat="45.580445" lon="7.853553">
        <ele>1353.59399</ele>
        <time>2024-08-08T15:01:56.000Z</time>
      </trkpt>
      <trkpt lat="45.580442" lon="7.85352">
        <ele>1353.03406</ele>
        <time>2024-08-08T15:01:58.000Z</time>
      </trkpt>
      <trkpt lat="45.58043" lon="7.853498">
        <ele>1352.47913</ele>
        <time>2024-08-08T15:02:00.000Z</time>
      </trkpt>
      <trkpt lat="45.580428" lon="7.85346">
        <ele>1351.89417</ele>
        <time>2024-08-08T15:02:02.000Z</time>
      </trkpt>
      <trkpt lat="45.580435" lon="7.853412">
        <ele>1351.31909</ele>
        <time>2024-08-08T15:02:04.000Z</time>
      </trkpt>
      <trkpt lat="45.580442" lon="7.853373">
        <ele>1350.74414</ele>
        <time>2024-08-08T15:02:06.000Z</time>
      </trkpt>
      <trkpt lat="45.58045" lon="7.85335">
        <ele>1350.20923</ele>
        <time>2024-08-08T15:02:08.000Z</time>
      </trkpt>
      <trkpt lat="45.580462" lon="7.853323">
        <ele>1349.68921</ele>
        <time>2024-08-08T15:02:10.000Z</time>
      </trkpt>
      <trkpt lat="45.580462" lon="7.853288">
        <ele>1349.14917</ele>
        <time>2024-08-08T15:02:12.000Z</time>
      </trkpt>
      <trkpt lat="45.580467" lon="7.853252">
        <ele>1348.60913</ele>
        <time>2024-08-08T15:02:14.000Z</time>
      </trkpt>
      <trkpt lat="45.580472" lon="7.853215">
        <ele>1348.1792</ele>
        <time>2024-08-08T15:02:17.000Z</time>
      </trkpt>
      <trkpt lat="45.58047" lon="7.853187">
        <ele>1347.86914</ele>
        <time>2024-08-08T15:02:19.000Z</time>
      </trkpt>
      <trkpt lat="45.58045" lon="7.853165">
        <ele>1347.64417</ele>
        <time>2024-08-08T15:02:21.000Z</time>
      </trkpt>
      <trkpt lat="45.580432" lon="7.853138">
        <ele>1347.50415</ele>
        <time>2024-08-08T15:02:23.000Z</time>
      </trkpt>
      <trkpt lat="45.580413" lon="7.853117">
        <ele>1347.42407</ele>
        <time>2024-08-08T15:02:25.000Z</time>
      </trkpt>
      <trkpt lat="45.580393" lon="7.853083">
        <ele>1347.37415</ele>
        <time>2024-08-08T15:02:27.000Z</time>
      </trkpt>
      <trkpt lat="45.580378" lon="7.853057">
        <ele>1347.31409</ele>
        <time>2024-08-08T15:02:29.000Z</time>
      </trkpt>
      <trkpt lat="45.580373" lon="7.853027">
        <ele>1347.28406</ele>
        <time>2024-08-08T15:02:31.000Z</time>
      </trkpt>
      <trkpt lat="45.580362" lon="7.853003">
        <ele>1347.26904</ele>
        <time>2024-08-08T15:02:34.000Z</time>
      </trkpt>
      <trkpt lat="45.580343" lon="7.85299">
        <ele>1347.22913</ele>
        <time>2024-08-08T15:02:36.000Z</time>
      </trkpt>
      <trkpt lat="45.580332" lon="7.85297">
        <ele>1347.19409</ele>
        <time>2024-08-08T15:02:37.000Z</time>
      </trkpt>
      <trkpt lat="45.580302" lon="7.85294">
        <ele>1347.14905</ele>
        <time>2024-08-08T15:02:39.000Z</time>
      </trkpt>
      <trkpt lat="45.580278" lon="7.852908">
        <ele>1347.10913</ele>
        <time>2024-08-08T15:02:41.000Z</time>
      </trkpt>
      <trkpt lat="45.58026" lon="7.85288">
        <ele>1347.11902</ele>
        <time>2024-08-08T15:02:43.000Z</time>
      </trkpt>
      <trkpt lat="45.58025" lon="7.852855">
        <ele>1347.16907</ele>
        <time>2024-08-08T15:02:45.000Z</time>
      </trkpt>
      <trkpt lat="45.580242" lon="7.852825">
        <ele>1347.25903</ele>
        <time>2024-08-08T15:02:47.000Z</time>
      </trkpt>
      <trkpt lat="45.580238" lon="7.852797">
        <ele>1347.36902</ele>
        <time>2024-08-08T15:02:49.000Z</time>
      </trkpt>
      <trkpt lat="45.580237" lon="7.852765">
        <ele>1347.50903</ele>
        <time>2024-08-08T15:02:51.000Z</time>
      </trkpt>
      <trkpt lat="45.58024" lon="7.852737">
        <ele>1347.67908</ele>
        <time>2024-08-08T15:02:53.000Z</time>
      </trkpt>
      <trkpt lat="45.580232" lon="7.852713">
        <ele>1347.90906</ele>
        <time>2024-08-08T15:02:55.000Z</time>
      </trkpt>
      <trkpt lat="45.580223" lon="7.85269">
        <ele>1348.16406</ele>
        <time>2024-08-08T15:02:57.000Z</time>
      </trkpt>
      <trkpt lat="45.58021" lon="7.85265">
        <ele>1348.44409</ele>
        <time>2024-08-08T15:02:59.000Z</time>
      </trkpt>
      <trkpt lat="45.580198" lon="7.852613">
        <ele>1348.77405</ele>
        <time>2024-08-08T15:03:01.000Z</time>
      </trkpt>
      <trkpt lat="45.580183" lon="7.852588">
        <ele>1349.15906</ele>
        <time>2024-08-08T15:03:03.000Z</time>
      </trkpt>
      <trkpt lat="45.580172" lon="7.852562">
        <ele>1349.61902</ele>
        <time>2024-08-08T15:03:06.000Z</time>
      </trkpt>
      <trkpt lat="45.580173" lon="7.852592">
        <ele>1350.24402</ele>
        <time>2024-08-08T15:03:15.000Z</time>
      </trkpt>
      <trkpt lat="45.580187" lon="7.852617">
        <ele>1350.91907</ele>
        <time>2024-08-08T15:03:21.000Z</time>
      </trkpt>
      <trkpt lat="45.580187" lon="7.852652">
        <ele>1351.71411</ele>
        <time>2024-08-08T15:03:26.000Z</time>
      </trkpt>
      <trkpt lat="45.580178" lon="7.852677">
        <ele>1352.51917</ele>
        <time>2024-08-08T15:03:30.000Z</time>
      </trkpt>
      <trkpt lat="45.580172" lon="7.852705">
        <ele>1353.39417</ele>
        <time>2024-08-08T15:03:35.000Z</time>
      </trkpt>
      <trkpt lat="45.580173" lon="7.852733">
        <ele>1354.25916</ele>
        <time>2024-08-08T15:03:38.000Z</time>
      </trkpt>
      <trkpt lat="45.580152" lon="7.852742">
        <ele>1354.78418</ele>
        <time>2024-08-08T15:04:09.000Z</time>
      </trkpt>
      <trkpt lat="45.580157" lon="7.852773">
        <ele>1355.37915</ele>
        <time>2024-08-08T15:04:17.000Z</time>
      </trkpt>
      <trkpt lat="45.580175" lon="7.852795">
        <ele>1355.99915</ele>
        <time>2024-08-08T15:04:19.000Z</time>
      </trkpt>
      <trkpt lat="45.580183" lon="7.852825">
        <ele>1356.65918</ele>
        <time>2024-08-08T15:04:21.000Z</time>
      </trkpt>
      <trkpt lat="45.580183" lon="7.85286">
        <ele>1357.33423</ele>
        <time>2024-08-08T15:04:24.000Z</time>
      </trkpt>
      <trkpt lat="45.580177" lon="7.852888">
        <ele>1358.02417</ele>
        <time>2024-08-08T15:04:26.000Z</time>
      </trkpt>
      <trkpt lat="45.580172" lon="7.852922">
        <ele>1358.73413</ele>
        <time>2024-08-08T15:04:29.000Z</time>
      </trkpt>
      <trkpt lat="45.580165" lon="7.852948">
        <ele>1359.47925</ele>
        <time>2024-08-08T15:04:31.000Z</time>
      </trkpt>
      <trkpt lat="45.580163" lon="7.85298">
        <ele>1360.22424</ele>
        <time>2024-08-08T15:04:33.000Z</time>
      </trkpt>
      <trkpt lat="45.580167" lon="7.853012">
        <ele>1361.00928</ele>
        <time>2024-08-08T15:04:36.000Z</time>
      </trkpt>
      <trkpt lat="45.580168" lon="7.853043">
        <ele>1361.79431</ele>
        <time>2024-08-08T15:04:38.000Z</time>
      </trkpt>
      <trkpt lat="45.580167" lon="7.853073">
        <ele>1362.57935</ele>
        <time>2024-08-08T15:04:41.000Z</time>
      </trkpt>
      <trkpt lat="45.580172" lon="7.853103">
        <ele>1363.35925</ele>
        <time>2024-08-08T15:04:43.000Z</time>
      </trkpt>
      <trkpt lat="45.580168" lon="7.853135">
        <ele>1364.12927</ele>
        <time>2024-08-08T15:04:47.000Z</time>
      </trkpt>
      <trkpt lat="45.580162" lon="7.85316">
        <ele>1364.76929</ele>
        <time>2024-08-08T15:04:50.000Z</time>
      </trkpt>
      <trkpt lat="45.580163" lon="7.853198">
        <ele>1365.36438</ele>
        <time>2024-08-08T15:04:53.000Z</time>
      </trkpt>
      <trkpt lat="45.580157" lon="7.853223">
        <ele>1365.79431</ele>
        <time>2024-08-08T15:04:55.000Z</time>
      </trkpt>
      <trkpt lat="45.58015" lon="7.853248">
        <ele>1366.17432</ele>
        <time>2024-08-08T15:04:57.000Z</time>
      </trkpt>
      <trkpt lat="45.580147" lon="7.853275">
        <ele>1366.51929</ele>
        <time>2024-08-08T15:05:01.000Z</time>
      </trkpt>
      <trkpt lat="45.58014" lon="7.8533">
        <ele>1366.87915</ele>
        <time>2024-08-08T15:05:03.000Z</time>
      </trkpt>
      <trkpt lat="45.580133" lon="7.853328">
        <ele>1367.56421</ele>
        <time>2024-08-08T15:05:05.000Z</time>
      </trkpt>
      <trkpt lat="45.580123" lon="7.85335">
        <ele>1368.21423</ele>
        <time>2024-08-08T15:05:07.000Z</time>
      </trkpt>
      <trkpt lat="45.580113" lon="7.853382">
        <ele>1368.89429</ele>
        <time>2024-08-08T15:05:10.000Z</time>
      </trkpt>
      <trkpt lat="45.580097" lon="7.853405">
        <ele>1369.56421</ele>
        <time>2024-08-08T15:05:14.000Z</time>
      </trkpt>
      <trkpt lat="45.580083" lon="7.853423">
        <ele>1370.26416</ele>
        <time>2024-08-08T15:05:19.000Z</time>
      </trkpt>
      <trkpt lat="45.580072" lon="7.853447">
        <ele>1371.04907</ele>
        <time>2024-08-08T15:05:22.000Z</time>
      </trkpt>
      <trkpt lat="45.580058" lon="7.853468">
        <ele>1371.83423</ele>
        <time>2024-08-08T15:05:26.000Z</time>
      </trkpt>
      <trkpt lat="45.58005" lon="7.853498">
        <ele>1372.63416</ele>
        <time>2024-08-08T15:05:29.000Z</time>
      </trkpt>
      <trkpt lat="45.580042" lon="7.853525">
        <ele>1373.4491</ele>
        <time>2024-08-08T15:05:31.000Z</time>
      </trkpt>
      <trkpt lat="45.58003" lon="7.853553">
        <ele>1374.26404</ele>
        <time>2024-08-08T15:05:33.000Z</time>
      </trkpt>
      <trkpt lat="45.580028" lon="7.853582">
        <ele>1375.10913</ele>
        <time>2024-08-08T15:05:35.000Z</time>
      </trkpt>
      <trkpt lat="45.580005" lon="7.853607">
        <ele>1375.96411</ele>
        <time>2024-08-08T15:05:37.000Z</time>
      </trkpt>
      <trkpt lat="45.579982" lon="7.853628">
        <ele>1376.80408</ele>
        <time>2024-08-08T15:05:39.000Z</time>
      </trkpt>
      <trkpt lat="45.579957" lon="7.853652">
        <ele>1377.61401</ele>
        <time>2024-08-08T15:05:42.000Z</time>
      </trkpt>
      <trkpt lat="45.579938" lon="7.853672">
        <ele>1378.40405</ele>
        <time>2024-08-08T15:05:44.000Z</time>
      </trkpt>
      <trkpt lat="45.579917" lon="7.853688">
        <ele>1379.14404</ele>
        <time>2024-08-08T15:05:46.000Z</time>
      </trkpt>
      <trkpt lat="45.579898" lon="7.853713">
        <ele>1379.87915</ele>
        <time>2024-08-08T15:05:48.000Z</time>
      </trkpt>
      <trkpt lat="45.57989" lon="7.853738">
        <ele>1380.59912</ele>
        <time>2024-08-08T15:05:50.000Z</time>
      </trkpt>
      <trkpt lat="45.579882" lon="7.853763">
        <ele>1381.25916</ele>
        <time>2024-08-08T15:05:52.000Z</time>
      </trkpt>
      <trkpt lat="45.579867" lon="7.853785">
        <ele>1381.87915</ele>
        <time>2024-08-08T15:05:55.000Z</time>
      </trkpt>
      <trkpt lat="45.579852" lon="7.853813">
        <ele>1382.47412</ele>
        <time>2024-08-08T15:05:58.000Z</time>
      </trkpt>
      <trkpt lat="45.579837" lon="7.853833">
        <ele>1382.98413</ele>
        <time>2024-08-08T15:06:01.000Z</time>
      </trkpt>
      <trkpt lat="45.579823" lon="7.853858">
        <ele>1383.38916</ele>
        <time>2024-08-08T15:06:06.000Z</time>
      </trkpt>
      <trkpt lat="45.57981" lon="7.853878">
        <ele>1383.74426</ele>
        <time>2024-08-08T15:06:09.000Z</time>
      </trkpt>
      <trkpt lat="45.579797" lon="7.853902">
        <ele>1384.08423</ele>
        <time>2024-08-08T15:06:14.000Z</time>
      </trkpt>
      <trkpt lat="45.579783" lon="7.85392">
        <ele>1384.38428</ele>
        <time>2024-08-08T15:06:19.000Z</time>
      </trkpt>
      <trkpt lat="45.579757" lon="7.853927">
        <ele>1384.6543</ele>
        <time>2024-08-08T15:06:22.000Z</time>
      </trkpt>
      <trkpt lat="45.579737" lon="7.853925">
        <ele>1384.86938</ele>
        <time>2024-08-08T15:06:24.000Z</time>
      </trkpt>
      <trkpt lat="45.579717" lon="7.853922">
        <ele>1385.03442</ele>
        <time>2024-08-08T15:06:27.000Z</time>
      </trkpt>
      <trkpt lat="45.579697" lon="7.853913">
        <ele>1385.14441</ele>
        <time>2024-08-08T15:06:29.000Z</time>
      </trkpt>
      <trkpt lat="45.579675" lon="7.853913">
        <ele>1385.2644</ele>
        <time>2024-08-08T15:06:32.000Z</time>
      </trkpt>
      <trkpt lat="45.579657" lon="7.853915">
        <ele>1385.36438</ele>
        <time>2024-08-08T15:06:34.000Z</time>
      </trkpt>
      <trkpt lat="45.579633" lon="7.853908">
        <ele>1385.57446</ele>
        <time>2024-08-08T15:06:38.000Z</time>
      </trkpt>
      <trkpt lat="45.57961" lon="7.853902">
        <ele>1385.83948</ele>
        <time>2024-08-08T15:06:41.000Z</time>
      </trkpt>
      <trkpt lat="45.57959" lon="7.853897">
        <ele>1386.16443</ele>
        <time>2024-08-08T15:06:44.000Z</time>
      </trkpt>
      <trkpt lat="45.579567" lon="7.853898">
        <ele>1386.54443</ele>
        <time>2024-08-08T15:06:47.000Z</time>
      </trkpt>
      <trkpt lat="45.579532" lon="7.853898">
        <ele>1386.92444</ele>
        <time>2024-08-08T15:06:52.000Z</time>
      </trkpt>
      <trkpt lat="45.579513" lon="7.853878">
        <ele>1387.33936</ele>
        <time>2024-08-08T15:06:55.000Z</time>
      </trkpt>
      <trkpt lat="45.579487" lon="7.853872">
        <ele>1387.80933</ele>
        <time>2024-08-08T15:06:58.000Z</time>
      </trkpt>
      <trkpt lat="45.579468" lon="7.853865">
        <ele>1388.33936</ele>
        <time>2024-08-08T15:07:00.000Z</time>
      </trkpt>
      <trkpt lat="45.579452" lon="7.853882">
        <ele>1388.96436</ele>
        <time>2024-08-08T15:07:06.000Z</time>
      </trkpt>
      <trkpt lat="45.5794" lon="7.853882">
        <ele>1389.74438</ele>
        <time>2024-08-08T15:07:18.000Z</time>
      </trkpt>
      <trkpt lat="45.579377" lon="7.853878">
        <ele>1390.58936</ele>
        <time>2024-08-08T15:07:20.000Z</time>
      </trkpt>
      <trkpt lat="45.579358" lon="7.853867">
        <ele>1391.45923</ele>
        <time>2024-08-08T15:07:22.000Z</time>
      </trkpt>
      <trkpt lat="45.579338" lon="7.85386">
        <ele>1392.33923</ele>
        <time>2024-08-08T15:07:25.000Z</time>
      </trkpt>
      <trkpt lat="45.57931" lon="7.853858">
        <ele>1393.17432</ele>
        <time>2024-08-08T15:07:28.000Z</time>
      </trkpt>
      <trkpt lat="45.579285" lon="7.853865">
        <ele>1394.00928</ele>
        <time>2024-08-08T15:07:31.000Z</time>
      </trkpt>
      <trkpt lat="45.579258" lon="7.85387">
        <ele>1394.83423</ele>
        <time>2024-08-08T15:07:33.000Z</time>
      </trkpt>
      <trkpt lat="45.579238" lon="7.853863">
        <ele>1395.68921</ele>
        <time>2024-08-08T15:07:36.000Z</time>
      </trkpt>
      <trkpt lat="45.579218" lon="7.853853">
        <ele>1396.54419</ele>
        <time>2024-08-08T15:07:39.000Z</time>
      </trkpt>
      <trkpt lat="45.579195" lon="7.853855">
        <ele>1397.29932</ele>
        <time>2024-08-08T15:07:42.000Z</time>
      </trkpt>
      <trkpt lat="45.579177" lon="7.853852">
        <ele>1398.03931</ele>
        <time>2024-08-08T15:07:44.000Z</time>
      </trkpt>
      <trkpt lat="45.57915" lon="7.853842">
        <ele>1398.71423</ele>
        <time>2024-08-08T15:07:48.000Z</time>
      </trkpt>
      <trkpt lat="45.579125" lon="7.853845">
        <ele>1399.31921</ele>
        <time>2024-08-08T15:07:50.000Z</time>
      </trkpt>
      <trkpt lat="45.579105" lon="7.853832">
        <ele>1399.89429</ele>
        <time>2024-08-08T15:07:52.000Z</time>
      </trkpt>
      <trkpt lat="45.57908" lon="7.853823">
        <ele>1400.47925</ele>
        <time>2024-08-08T15:07:54.000Z</time>
      </trkpt>
      <trkpt lat="45.57906" lon="7.85382">
        <ele>1401.07422</ele>
        <time>2024-08-08T15:07:56.000Z</time>
      </trkpt>
      <trkpt lat="45.57904" lon="7.853822">
        <ele>1401.64917</ele>
        <time>2024-08-08T15:07:59.000Z</time>
      </trkpt>
      <trkpt lat="45.57902" lon="7.85381">
        <ele>1402.20422</ele>
        <time>2024-08-08T15:08:03.000Z</time>
      </trkpt>
      <trkpt lat="45.578998" lon="7.853797">
        <ele>1402.67419</ele>
        <time>2024-08-08T15:08:06.000Z</time>
      </trkpt>
      <trkpt lat="45.578982" lon="7.85378">
        <ele>1403.05933</ele>
        <time>2024-08-08T15:08:09.000Z</time>
      </trkpt>
      <trkpt lat="45.578962" lon="7.853773">
        <ele>1403.32935</ele>
        <time>2024-08-08T15:08:11.000Z</time>
      </trkpt>
      <trkpt lat="45.578942" lon="7.853763">
        <ele>1403.60925</ele>
        <time>2024-08-08T15:08:13.000Z</time>
      </trkpt>
      <trkpt lat="45.578918" lon="7.853757">
        <ele>1403.93433</ele>
        <time>2024-08-08T15:08:16.000Z</time>
      </trkpt>
      <trkpt lat="45.578895" lon="7.853747">
        <ele>1404.23425</ele>
        <time>2024-08-08T15:08:19.000Z</time>
      </trkpt>
      <trkpt lat="45.578868" lon="7.853745">
        <ele>1404.51929</ele>
        <time>2024-08-08T15:08:22.000Z</time>
      </trkpt>
      <trkpt lat="45.578842" lon="7.853738">
        <ele>1404.80933</ele>
        <time>2024-08-08T15:08:24.000Z</time>
      </trkpt>
      <trkpt lat="45.578817" lon="7.853733">
        <ele>1405.12915</ele>
        <time>2024-08-08T15:08:26.000Z</time>
      </trkpt>
      <trkpt lat="45.578798" lon="7.85373">
        <ele>1405.50415</ele>
        <time>2024-08-08T15:08:28.000Z</time>
      </trkpt>
      <trkpt lat="45.578778" lon="7.85371">
        <ele>1405.93921</ele>
        <time>2024-08-08T15:08:31.000Z</time>
      </trkpt>
      <trkpt lat="45.578763" lon="7.853693">
        <ele>1406.41919</ele>
        <time>2024-08-08T15:08:33.000Z</time>
      </trkpt>
      <trkpt lat="45.578738" lon="7.853698">
        <ele>1406.91418</ele>
        <time>2024-08-08T15:08:36.000Z</time>
      </trkpt>
      <trkpt lat="45.578707" lon="7.853705">
        <ele>1407.33423</ele>
        <time>2024-08-08T15:08:38.000Z</time>
      </trkpt>
      <trkpt lat="45.578683" lon="7.853703">
        <ele>1407.69421</ele>
        <time>2024-08-08T15:08:42.000Z</time>
      </trkpt>
      <trkpt lat="45.578662" lon="7.853693">
        <ele>1408.0343</ele>
        <time>2024-08-08T15:08:45.000Z</time>
      </trkpt>
      <trkpt lat="45.578643" lon="7.85369">
        <ele>1408.34937</ele>
        <time>2024-08-08T15:08:47.000Z</time>
      </trkpt>
      <trkpt lat="45.57861" lon="7.85369">
        <ele>1408.64929</ele>
        <time>2024-08-08T15:08:49.000Z</time>
      </trkpt>
      <trkpt lat="45.578592" lon="7.853692">
        <ele>1408.92432</ele>
        <time>2024-08-08T15:08:50.000Z</time>
      </trkpt>
      <trkpt lat="45.578575" lon="7.853702">
        <ele>1409.17432</ele>
        <time>2024-08-08T15:08:55.000Z</time>
      </trkpt>
      <trkpt lat="45.578552" lon="7.853703">
        <ele>1409.43933</ele>
        <time>2024-08-08T15:08:57.000Z</time>
      </trkpt>
      <trkpt lat="45.578528" lon="7.853702">
        <ele>1409.72437</ele>
        <time>2024-08-08T15:08:59.000Z</time>
      </trkpt>
      <trkpt lat="45.578508" lon="7.853697">
        <ele>1410.01929</ele>
        <time>2024-08-08T15:09:01.000Z</time>
      </trkpt>
      <trkpt lat="45.57848" lon="7.853695">
        <ele>1410.29431</ele>
        <time>2024-08-08T15:09:04.000Z</time>
      </trkpt>
      <trkpt lat="45.578452" lon="7.853697">
        <ele>1410.49939</ele>
        <time>2024-08-08T15:09:06.000Z</time>
      </trkpt>
      <trkpt lat="45.57843" lon="7.853703">
        <ele>1410.66431</ele>
        <time>2024-08-08T15:09:09.000Z</time>
      </trkpt>
      <trkpt lat="45.578398" lon="7.853705">
        <ele>1410.83435</ele>
        <time>2024-08-08T15:09:11.000Z</time>
      </trkpt>
      <trkpt lat="45.578373" lon="7.853703">
        <ele>1410.98438</ele>
        <time>2024-08-08T15:09:13.000Z</time>
      </trkpt>
      <trkpt lat="45.578355" lon="7.853705">
        <ele>1411.10938</ele>
        <time>2024-08-08T15:09:14.000Z</time>
      </trkpt>
      <trkpt lat="45.578327" lon="7.853707">
        <ele>1411.17444</ele>
        <time>2024-08-08T15:09:16.000Z</time>
      </trkpt>
      <trkpt lat="45.578307" lon="7.85371">
        <ele>1411.16943</ele>
        <time>2024-08-08T15:09:18.000Z</time>
      </trkpt>
      <trkpt lat="45.578287" lon="7.853715">
        <ele>1411.17944</ele>
        <time>2024-08-08T15:09:20.000Z</time>
      </trkpt>
      <trkpt lat="45.578288" lon="7.853745">
        <ele>1411.15942</ele>
        <time>2024-08-08T15:09:25.000Z</time>
      </trkpt>
      <trkpt lat="45.578268" lon="7.853743">
        <ele>1411.17432</ele>
        <time>2024-08-08T15:09:30.000Z</time>
      </trkpt>
      <trkpt lat="45.578242" lon="7.853742">
        <ele>1411.21924</ele>
        <time>2024-08-08T15:09:34.000Z</time>
      </trkpt>
      <trkpt lat="45.578222" lon="7.853737">
        <ele>1411.24426</ele>
        <time>2024-08-08T15:09:36.000Z</time>
      </trkpt>
      <trkpt lat="45.578202" lon="7.853733">
        <ele>1411.24426</ele>
        <time>2024-08-08T15:09:38.000Z</time>
      </trkpt>
      <trkpt lat="45.578183" lon="7.853735">
        <ele>1411.25916</ele>
        <time>2024-08-08T15:09:40.000Z</time>
      </trkpt>
      <trkpt lat="45.578158" lon="7.853753">
        <ele>1411.34924</ele>
        <time>2024-08-08T15:09:43.000Z</time>
      </trkpt>
      <trkpt lat="45.578138" lon="7.853765">
        <ele>1411.51929</ele>
        <time>2024-08-08T15:09:45.000Z</time>
      </trkpt>
      <trkpt lat="45.578108" lon="7.853775">
        <ele>1411.79419</ele>
        <time>2024-08-08T15:09:48.000Z</time>
      </trkpt>
      <trkpt lat="45.578085" lon="7.853777">
        <ele>1412.08923</ele>
        <time>2024-08-08T15:09:50.000Z</time>
      </trkpt>
      <trkpt lat="45.578057" lon="7.853763">
        <ele>1412.40918</ele>
        <time>2024-08-08T15:09:54.000Z</time>
      </trkpt>
      <trkpt lat="45.578032" lon="7.853752">
        <ele>1412.68921</ele>
        <time>2024-08-08T15:09:56.000Z</time>
      </trkpt>
      <trkpt lat="45.578007" lon="7.853738">
        <ele>1412.95923</ele>
        <time>2024-08-08T15:09:58.000Z</time>
      </trkpt>
      <trkpt lat="45.577977" lon="7.853735">
        <ele>1413.22925</ele>
        <time>2024-08-08T15:10:00.000Z</time>
      </trkpt>
      <trkpt lat="45.577947" lon="7.853735">
        <ele>1413.46912</ele>
        <time>2024-08-08T15:10:02.000Z</time>
      </trkpt>
      <trkpt lat="45.577923" lon="7.853728">
        <ele>1413.71912</ele>
        <time>2024-08-08T15:10:04.000Z</time>
      </trkpt>
      <trkpt lat="45.577903" lon="7.853725">
        <ele>1413.94922</ele>
        <time>2024-08-08T15:10:06.000Z</time>
      </trkpt>
      <trkpt lat="45.577877" lon="7.853727">
        <ele>1414.13916</ele>
        <time>2024-08-08T15:10:09.000Z</time>
      </trkpt>
      <trkpt lat="45.577857" lon="7.853737">
        <ele>1414.31909</ele>
        <time>2024-08-08T15:10:11.000Z</time>
      </trkpt>
      <trkpt lat="45.577828" lon="7.853747">
        <ele>1414.4491</ele>
        <time>2024-08-08T15:10:14.000Z</time>
      </trkpt>
      <trkpt lat="45.577802" lon="7.853743">
        <ele>1414.56909</ele>
        <time>2024-08-08T15:10:16.000Z</time>
      </trkpt>
      <trkpt lat="45.577778" lon="7.853752">
        <ele>1414.65417</ele>
        <time>2024-08-08T15:10:18.000Z</time>
      </trkpt>
      <trkpt lat="45.577753" lon="7.853755">
        <ele>1414.77917</ele>
        <time>2024-08-08T15:10:20.000Z</time>
      </trkpt>
      <trkpt lat="45.577732" lon="7.85377">
        <ele>1414.9342</ele>
        <time>2024-08-08T15:10:22.000Z</time>
      </trkpt>
      <trkpt lat="45.57771" lon="7.85378">
        <ele>1415.09912</ele>
        <time>2024-08-08T15:10:24.000Z</time>
      </trkpt>
      <trkpt lat="45.577683" lon="7.853798">
        <ele>1415.27417</ele>
        <time>2024-08-08T15:10:26.000Z</time>
      </trkpt>
      <trkpt lat="45.577657" lon="7.853815">
        <ele>1415.37415</ele>
        <time>2024-08-08T15:10:28.000Z</time>
      </trkpt>
      <trkpt lat="45.577638" lon="7.85383">
        <ele>1415.43909</ele>
        <time>2024-08-08T15:10:30.000Z</time>
      </trkpt>
      <trkpt lat="45.57762" lon="7.85386">
        <ele>1415.43396</ele>
        <time>2024-08-08T15:10:32.000Z</time>
      </trkpt>
      <trkpt lat="45.5776" lon="7.853882">
        <ele>1415.42896</ele>
        <time>2024-08-08T15:10:34.000Z</time>
      </trkpt>
      <trkpt lat="45.577573" lon="7.853902">
        <ele>1415.42407</ele>
        <time>2024-08-08T15:10:36.000Z</time>
      </trkpt>
      <trkpt lat="45.577555" lon="7.853907">
        <ele>1415.43896</ele>
        <time>2024-08-08T15:10:38.000Z</time>
      </trkpt>
      <trkpt lat="45.577545" lon="7.853932">
        <ele>1415.50403</ele>
        <time>2024-08-08T15:10:42.000Z</time>
      </trkpt>
      <trkpt lat="45.577532" lon="7.85395">
        <ele>1415.57397</ele>
        <time>2024-08-08T15:10:45.000Z</time>
      </trkpt>
      <trkpt lat="45.577508" lon="7.853967">
        <ele>1415.66907</ele>
        <time>2024-08-08T15:10:48.000Z</time>
      </trkpt>
      <trkpt lat="45.577488" lon="7.853992">
        <ele>1415.73401</ele>
        <time>2024-08-08T15:10:51.000Z</time>
      </trkpt>
      <trkpt lat="45.577482" lon="7.854022">
        <ele>1415.81396</ele>
        <time>2024-08-08T15:10:54.000Z</time>
      </trkpt>
      <trkpt lat="45.577477" lon="7.854057">
        <ele>1415.92407</ele>
        <time>2024-08-08T15:10:57.000Z</time>
      </trkpt>
      <trkpt lat="45.57747" lon="7.854083">
        <ele>1416.05408</ele>
        <time>2024-08-08T15:10:59.000Z</time>
      </trkpt>
      <trkpt lat="45.577465" lon="7.854112">
        <ele>1416.21411</ele>
        <time>2024-08-08T15:11:02.000Z</time>
      </trkpt>
      <trkpt lat="45.57745" lon="7.854147">
        <ele>1416.40417</ele>
        <time>2024-08-08T15:11:05.000Z</time>
      </trkpt>
      <trkpt lat="45.577428" lon="7.854163">
        <ele>1416.61414</ele>
        <time>2024-08-08T15:11:07.000Z</time>
      </trkpt>
      <trkpt lat="45.577408" lon="7.854183">
        <ele>1416.81421</ele>
        <time>2024-08-08T15:11:09.000Z</time>
      </trkpt>
      <trkpt lat="45.577393" lon="7.854208">
        <ele>1416.99414</ele>
        <time>2024-08-08T15:11:11.000Z</time>
      </trkpt>
      <trkpt lat="45.57738" lon="7.854232">
        <ele>1417.22424</ele>
        <time>2024-08-08T15:11:14.000Z</time>
      </trkpt>
      <trkpt lat="45.57739" lon="7.854257">
        <ele>1417.45422</ele>
        <time>2024-08-08T15:11:18.000Z</time>
      </trkpt>
      <trkpt lat="45.577385" lon="7.854288">
        <ele>1417.78418</ele>
        <time>2024-08-08T15:11:22.000Z</time>
      </trkpt>
      <trkpt lat="45.577372" lon="7.854317">
        <ele>1418.13916</ele>
        <time>2024-08-08T15:11:25.000Z</time>
      </trkpt>
      <trkpt lat="45.577355" lon="7.854345">
        <ele>1418.51929</ele>
        <time>2024-08-08T15:11:28.000Z</time>
      </trkpt>
      <trkpt lat="45.577348" lon="7.854373">
        <ele>1418.85425</ele>
        <time>2024-08-08T15:11:30.000Z</time>
      </trkpt>
      <trkpt lat="45.577353" lon="7.854405">
        <ele>1419.18921</ele>
        <time>2024-08-08T15:11:33.000Z</time>
      </trkpt>
      <trkpt lat="45.577358" lon="7.85444">
        <ele>1419.54932</ele>
        <time>2024-08-08T15:11:35.000Z</time>
      </trkpt>
      <trkpt lat="45.57734" lon="7.854467">
        <ele>1419.89429</ele>
        <time>2024-08-08T15:11:37.000Z</time>
      </trkpt>
      <trkpt lat="45.577308" lon="7.854493">
        <ele>1420.24927</ele>
        <time>2024-08-08T15:11:40.000Z</time>
      </trkpt>
      <trkpt lat="45.577297" lon="7.85453">
        <ele>1420.62427</ele>
        <time>2024-08-08T15:11:42.000Z</time>
      </trkpt>
      <trkpt lat="45.577307" lon="7.854552">
        <ele>1421.05933</ele>
        <time>2024-08-08T15:11:44.000Z</time>
      </trkpt>
      <trkpt lat="45.577315" lon="7.85459">
        <ele>1421.53931</ele>
        <time>2024-08-08T15:11:47.000Z</time>
      </trkpt>
      <trkpt lat="45.577318" lon="7.85462">
        <ele>1422.01929</ele>
        <time>2024-08-08T15:11:49.000Z</time>
      </trkpt>
      <trkpt lat="45.577313" lon="7.854653">
        <ele>1422.46936</ele>
        <time>2024-08-08T15:11:53.000Z</time>
      </trkpt>
      <trkpt lat="45.577313" lon="7.854687">
        <ele>1422.89429</ele>
        <time>2024-08-08T15:11:55.000Z</time>
      </trkpt>
      <trkpt lat="45.577308" lon="7.854723">
        <ele>1423.25427</ele>
        <time>2024-08-08T15:11:58.000Z</time>
      </trkpt>
      <trkpt lat="45.57733" lon="7.854753">
        <ele>1423.57935</ele>
        <time>2024-08-08T15:12:01.000Z</time>
      </trkpt>
      <trkpt lat="45.577342" lon="7.854775">
        <ele>1423.8844</ele>
        <time>2024-08-08T15:12:02.000Z</time>
      </trkpt>
      <trkpt lat="45.577347" lon="7.854802">
        <ele>1424.16943</ele>
        <time>2024-08-08T15:12:03.000Z</time>
      </trkpt>
      <trkpt lat="45.577362" lon="7.85484">
        <ele>1424.30933</ele>
        <time>2024-08-08T15:12:05.000Z</time>
      </trkpt>
      <trkpt lat="45.57735" lon="7.854867">
        <ele>1424.47937</ele>
        <time>2024-08-08T15:12:07.000Z</time>
      </trkpt>
      <trkpt lat="45.57734" lon="7.8549">
        <ele>1424.60437</ele>
        <time>2024-08-08T15:12:10.000Z</time>
      </trkpt>
      <trkpt lat="45.577315" lon="7.854932">
        <ele>1424.65442</ele>
        <time>2024-08-08T15:12:12.000Z</time>
      </trkpt>
      <trkpt lat="45.5773" lon="7.854948">
        <ele>1424.66431</ele>
        <time>2024-08-08T15:12:13.000Z</time>
      </trkpt>
      <trkpt lat="45.577272" lon="7.854982">
        <ele>1424.67444</ele>
        <time>2024-08-08T15:12:15.000Z</time>
      </trkpt>
      <trkpt lat="45.577257" lon="7.855002">
        <ele>1424.65942</ele>
        <time>2024-08-08T15:12:16.000Z</time>
      </trkpt>
      <trkpt lat="45.577227" lon="7.855022">
        <ele>1424.62927</ele>
        <time>2024-08-08T15:12:18.000Z</time>
      </trkpt>
      <trkpt lat="45.577203" lon="7.855047">
        <ele>1424.55933</ele>
        <time>2024-08-08T15:12:20.000Z</time>
      </trkpt>
      <trkpt lat="45.577188" lon="7.855078">
        <ele>1424.50928</ele>
        <time>2024-08-08T15:12:22.000Z</time>
      </trkpt>
      <trkpt lat="45.57717" lon="7.855093">
        <ele>1424.46936</ele>
        <time>2024-08-08T15:12:24.000Z</time>
      </trkpt>
      <trkpt lat="45.577153" lon="7.855117">
        <ele>1424.42432</ele>
        <time>2024-08-08T15:12:26.000Z</time>
      </trkpt>
      <trkpt lat="45.577138" lon="7.855145">
        <ele>1424.3894</ele>
        <time>2024-08-08T15:12:28.000Z</time>
      </trkpt>
      <trkpt lat="45.57713" lon="7.855168">
        <ele>1424.3894</ele>
        <time>2024-08-08T15:12:31.000Z</time>
      </trkpt>
      <trkpt lat="45.577113" lon="7.8552">
        <ele>1424.36438</ele>
        <time>2024-08-08T15:12:34.000Z</time>
      </trkpt>
      <trkpt lat="45.577102" lon="7.855237">
        <ele>1424.33936</ele>
        <time>2024-08-08T15:12:36.000Z</time>
      </trkpt>
      <trkpt lat="45.577095" lon="7.855282">
        <ele>1424.35437</ele>
        <time>2024-08-08T15:12:38.000Z</time>
      </trkpt>
      <trkpt lat="45.577097" lon="7.855308">
        <ele>1424.39441</ele>
        <time>2024-08-08T15:12:39.000Z</time>
      </trkpt>
      <trkpt lat="45.577102" lon="7.855343">
        <ele>1424.41943</ele>
        <time>2024-08-08T15:12:41.000Z</time>
      </trkpt>
      <trkpt lat="45.5771" lon="7.85537">
        <ele>1424.44946</ele>
        <time>2024-08-08T15:12:43.000Z</time>
      </trkpt>
      <trkpt lat="45.577088" lon="7.855402">
        <ele>1424.56445</ele>
        <time>2024-08-08T15:12:45.000Z</time>
      </trkpt>
      <trkpt lat="45.57708" lon="7.855432">
        <ele>1424.6095</ele>
        <time>2024-08-08T15:12:47.000Z</time>
      </trkpt>
      <trkpt lat="45.577068" lon="7.855468">
        <ele>1424.60449</ele>
        <time>2024-08-08T15:12:49.000Z</time>
      </trkpt>
      <trkpt lat="45.577057" lon="7.855492">
        <ele>1424.61951</ele>
        <time>2024-08-08T15:12:51.000Z</time>
      </trkpt>
      <trkpt lat="45.577053" lon="7.855518">
        <ele>1424.66956</ele>
        <time>2024-08-08T15:12:55.000Z</time>
      </trkpt>
      <trkpt lat="45.577037" lon="7.855547">
        <ele>1424.75952</ele>
        <time>2024-08-08T15:12:57.000Z</time>
      </trkpt>
      <trkpt lat="45.577015" lon="7.855573">
        <ele>1424.91943</ele>
        <time>2024-08-08T15:13:00.000Z</time>
      </trkpt>
      <trkpt lat="45.576995" lon="7.855582">
        <ele>1425.10449</ele>
        <time>2024-08-08T15:13:02.000Z</time>
      </trkpt>
      <trkpt lat="45.576972" lon="7.855592">
        <ele>1425.35449</ele>
        <time>2024-08-08T15:13:04.000Z</time>
      </trkpt>
      <trkpt lat="45.57695" lon="7.855603">
        <ele>1425.59949</ele>
        <time>2024-08-08T15:13:05.000Z</time>
      </trkpt>
      <trkpt lat="45.576915" lon="7.85561">
        <ele>1425.81946</ele>
        <time>2024-08-08T15:13:07.000Z</time>
      </trkpt>
      <trkpt lat="45.576888" lon="7.855597">
        <ele>1426.0144</ele>
        <time>2024-08-08T15:13:09.000Z</time>
      </trkpt>
      <trkpt lat="45.576863" lon="7.85559">
        <ele>1426.14441</ele>
        <time>2024-08-08T15:13:11.000Z</time>
      </trkpt>
      <trkpt lat="45.576833" lon="7.85558">
        <ele>1426.22437</ele>
        <time>2024-08-08T15:13:13.000Z</time>
      </trkpt>
      <trkpt lat="45.576798" lon="7.855562">
        <ele>1426.32935</ele>
        <time>2024-08-08T15:13:15.000Z</time>
      </trkpt>
      <trkpt lat="45.576765" lon="7.855545">
        <ele>1426.44946</ele>
        <time>2024-08-08T15:13:17.000Z</time>
      </trkpt>
      <trkpt lat="45.57674" lon="7.855547">
        <ele>1426.57446</ele>
        <time>2024-08-08T15:13:19.000Z</time>
      </trkpt>
      <trkpt lat="45.576718" lon="7.855533">
        <ele>1426.71436</ele>
        <time>2024-08-08T15:13:21.000Z</time>
      </trkpt>
      <trkpt lat="45.576703" lon="7.855503">
        <ele>1426.93433</ele>
        <time>2024-08-08T15:13:23.000Z</time>
      </trkpt>
      <trkpt lat="45.576685" lon="7.855483">
        <ele>1427.23926</ele>
        <time>2024-08-08T15:13:25.000Z</time>
      </trkpt>
      <trkpt lat="45.57665" lon="7.855463">
        <ele>1427.59924</ele>
        <time>2024-08-08T15:13:27.000Z</time>
      </trkpt>
      <trkpt lat="45.576628" lon="7.855438">
        <ele>1428.04919</ele>
        <time>2024-08-08T15:13:29.000Z</time>
      </trkpt>
      <trkpt lat="45.576612" lon="7.855423">
        <ele>1428.52917</ele>
        <time>2024-08-08T15:13:30.000Z</time>
      </trkpt>
      <trkpt lat="45.576593" lon="7.85548">
        <ele>1428.73413</ele>
        <time>2024-08-08T15:14:46.000Z</time>
      </trkpt>
      <trkpt lat="45.576587" lon="7.855448">
        <ele>1428.9292</ele>
        <time>2024-08-08T15:14:52.000Z</time>
      </trkpt>
      <trkpt lat="45.576577" lon="7.855417">
        <ele>1429.11426</ele>
        <time>2024-08-08T15:14:55.000Z</time>
      </trkpt>
      <trkpt lat="45.576563" lon="7.855388">
        <ele>1429.21936</ele>
        <time>2024-08-08T15:14:57.000Z</time>
      </trkpt>
      <trkpt lat="45.576552" lon="7.855362">
        <ele>1429.2793</ele>
        <time>2024-08-08T15:14:59.000Z</time>
      </trkpt>
      <trkpt lat="45.576538" lon="7.855327">
        <ele>1429.24927</ele>
        <time>2024-08-08T15:15:02.000Z</time>
      </trkpt>
      <trkpt lat="45.576532" lon="7.8553">
        <ele>1429.18933</ele>
        <time>2024-08-08T15:15:04.000Z</time>
      </trkpt>
      <trkpt lat="45.576533" lon="7.855272">
        <ele>1429.12439</ele>
        <time>2024-08-08T15:15:06.000Z</time>
      </trkpt>
      <trkpt lat="45.576542" lon="7.855237">
        <ele>1429.05444</ele>
        <time>2024-08-08T15:15:08.000Z</time>
      </trkpt>
      <trkpt lat="45.576545" lon="7.855205">
        <ele>1428.98938</ele>
        <time>2024-08-08T15:15:10.000Z</time>
      </trkpt>
      <trkpt lat="45.57655" lon="7.855177">
        <ele>1428.93433</ele>
        <time>2024-08-08T15:15:12.000Z</time>
      </trkpt>
      <trkpt lat="45.576545" lon="7.855143">
        <ele>1428.89929</ele>
        <time>2024-08-08T15:15:14.000Z</time>
      </trkpt>
      <trkpt lat="45.576545" lon="7.855117">
        <ele>1428.84937</ele>
        <time>2024-08-08T15:15:16.000Z</time>
      </trkpt>
      <trkpt lat="45.576545" lon="7.855082">
        <ele>1428.76929</ele>
        <time>2024-08-08T15:15:18.000Z</time>
      </trkpt>
      <trkpt lat="45.576543" lon="7.85504">
        <ele>1428.64429</ele>
        <time>2024-08-08T15:15:20.000Z</time>
      </trkpt>
      <trkpt lat="45.576547" lon="7.855003">
        <ele>1428.45435</ele>
        <time>2024-08-08T15:15:22.000Z</time>
      </trkpt>
      <trkpt lat="45.576535" lon="7.854973">
        <ele>1428.16931</ele>
        <time>2024-08-08T15:15:24.000Z</time>
      </trkpt>
      <trkpt lat="45.57651" lon="7.854948">
        <ele>1427.79932</ele>
        <time>2024-08-08T15:15:26.000Z</time>
      </trkpt>
      <trkpt lat="45.576492" lon="7.854918">
        <ele>1427.31934</ele>
        <time>2024-08-08T15:15:28.000Z</time>
      </trkpt>
      <trkpt lat="45.57648" lon="7.854897">
        <ele>1426.78931</ele>
        <time>2024-08-08T15:15:30.000Z</time>
      </trkpt>
      <trkpt lat="45.576468" lon="7.854872">
        <ele>1426.48438</ele>
        <time>2024-08-08T15:15:33.000Z</time>
      </trkpt>
      <trkpt lat="45.57645" lon="7.854848">
        <ele>1426.16431</ele>
        <time>2024-08-08T15:15:36.000Z</time>
      </trkpt>
      <trkpt lat="45.576423" lon="7.854837">
        <ele>1425.85425</ele>
        <time>2024-08-08T15:15:39.000Z</time>
      </trkpt>
      <trkpt lat="45.57641" lon="7.854818">
        <ele>1425.54919</ele>
        <time>2024-08-08T15:15:41.000Z</time>
      </trkpt>
      <trkpt lat="45.576392" lon="7.85479">
        <ele>1425.25415</ele>
        <time>2024-08-08T15:15:44.000Z</time>
      </trkpt>
      <trkpt lat="45.576377" lon="7.85477">
        <ele>1424.98914</ele>
        <time>2024-08-08T15:15:46.000Z</time>
      </trkpt>
      <trkpt lat="45.576357" lon="7.854747">
        <ele>1424.73413</ele>
        <time>2024-08-08T15:15:48.000Z</time>
      </trkpt>
      <trkpt lat="45.576337" lon="7.854723">
        <ele>1424.46899</ele>
        <time>2024-08-08T15:15:50.000Z</time>
      </trkpt>
      <trkpt lat="45.576318" lon="7.854705">
        <ele>1424.19897</ele>
        <time>2024-08-08T15:15:52.000Z</time>
      </trkpt>
      <trkpt lat="45.576303" lon="7.854683">
        <ele>1423.93408</ele>
        <time>2024-08-08T15:15:54.000Z</time>
      </trkpt>
      <trkpt lat="45.576287" lon="7.854662">
        <ele>1423.67407</ele>
        <time>2024-08-08T15:15:56.000Z</time>
      </trkpt>
      <trkpt lat="45.576278" lon="7.854633">
        <ele>1423.39404</ele>
        <time>2024-08-08T15:15:58.000Z</time>
      </trkpt>
      <trkpt lat="45.57626" lon="7.854623">
        <ele>1423.08899</ele>
        <time>2024-08-08T15:16:00.000Z</time>
      </trkpt>
      <trkpt lat="45.576238" lon="7.85461">
        <ele>1422.71399</ele>
        <time>2024-08-08T15:16:02.000Z</time>
      </trkpt>
      <trkpt lat="45.576212" lon="7.854597">
        <ele>1422.30396</ele>
        <time>2024-08-08T15:16:05.000Z</time>
      </trkpt>
      <trkpt lat="45.576185" lon="7.854592">
        <ele>1421.87402</ele>
        <time>2024-08-08T15:16:07.000Z</time>
      </trkpt>
      <trkpt lat="45.57616" lon="7.854587">
        <ele>1421.42896</ele>
        <time>2024-08-08T15:16:09.000Z</time>
      </trkpt>
      <trkpt lat="45.576137" lon="7.854587">
        <ele>1420.98413</ele>
        <time>2024-08-08T15:16:11.000Z</time>
      </trkpt>
      <trkpt lat="45.576113" lon="7.854575">
        <ele>1420.54407</ele>
        <time>2024-08-08T15:16:13.000Z</time>
      </trkpt>
      <trkpt lat="45.576088" lon="7.854552">
        <ele>1420.11902</ele>
        <time>2024-08-08T15:16:15.000Z</time>
      </trkpt>
      <trkpt lat="45.576063" lon="7.854535">
        <ele>1419.71899</ele>
        <time>2024-08-08T15:16:17.000Z</time>
      </trkpt>
      <trkpt lat="45.57605" lon="7.854515">
        <ele>1419.29407</ele>
        <time>2024-08-08T15:16:19.000Z</time>
      </trkpt>
      <trkpt lat="45.576037" lon="7.854495">
        <ele>1418.84399</ele>
        <time>2024-08-08T15:16:21.000Z</time>
      </trkpt>
      <trkpt lat="45.576017" lon="7.854465">
        <ele>1418.38403</ele>
        <time>2024-08-08T15:16:23.000Z</time>
      </trkpt>
      <trkpt lat="45.576" lon="7.854442">
        <ele>1417.92908</ele>
        <time>2024-08-08T15:16:25.000Z</time>
      </trkpt>
      <trkpt lat="45.575983" lon="7.854417">
        <ele>1417.50415</ele>
        <time>2024-08-08T15:16:27.000Z</time>
      </trkpt>
      <trkpt lat="45.575968" lon="7.854393">
        <ele>1417.04907</ele>
        <time>2024-08-08T15:16:28.000Z</time>
      </trkpt>
      <trkpt lat="45.575973" lon="7.854345">
        <ele>1416.5791</ele>
        <time>2024-08-08T15:16:30.000Z</time>
      </trkpt>
      <trkpt lat="45.57598" lon="7.854305">
        <ele>1416.04419</ele>
        <time>2024-08-08T15:16:32.000Z</time>
      </trkpt>
      <trkpt lat="45.576002" lon="7.854278">
        <ele>1415.42908</ele>
        <time>2024-08-08T15:16:35.000Z</time>
      </trkpt>
      <trkpt lat="45.576027" lon="7.85426">
        <ele>1414.77417</ele>
        <time>2024-08-08T15:16:37.000Z</time>
      </trkpt>
      <trkpt lat="45.576043" lon="7.85425">
        <ele>1414.11414</ele>
        <time>2024-08-08T15:16:38.000Z</time>
      </trkpt>
      <trkpt lat="45.576063" lon="7.854243">
        <ele>1413.45422</ele>
        <time>2024-08-08T15:16:39.000Z</time>
      </trkpt>
      <trkpt lat="45.576088" lon="7.854227">
        <ele>1412.8042</ele>
        <time>2024-08-08T15:16:41.000Z</time>
      </trkpt>
      <trkpt lat="45.576113" lon="7.854215">
        <ele>1412.11914</ele>
        <time>2024-08-08T15:16:43.000Z</time>
      </trkpt>
      <trkpt lat="45.576143" lon="7.854207">
        <ele>1411.39417</ele>
        <time>2024-08-08T15:16:45.000Z</time>
      </trkpt>
      <trkpt lat="45.576173" lon="7.8542">
        <ele>1410.65918</ele>
        <time>2024-08-08T15:16:47.000Z</time>
      </trkpt>
      <trkpt lat="45.5762" lon="7.854198">
        <ele>1409.89917</ele>
        <time>2024-08-08T15:16:49.000Z</time>
      </trkpt>
      <trkpt lat="45.57622" lon="7.854197">
        <ele>1409.12415</ele>
        <time>2024-08-08T15:16:51.000Z</time>
      </trkpt>
      <trkpt lat="45.576238" lon="7.854223">
        <ele>1408.28406</ele>
        <time>2024-08-08T15:16:53.000Z</time>
      </trkpt>
      <trkpt lat="45.576257" lon="7.854232">
        <ele>1407.38403</ele>
        <time>2024-08-08T15:16:57.000Z</time>
      </trkpt>
      <trkpt lat="45.576277" lon="7.854232">
        <ele>1406.51404</ele>
        <time>2024-08-08T15:17:02.000Z</time>
      </trkpt>
      <trkpt lat="45.57629" lon="7.854212">
        <ele>1405.70911</ele>
        <time>2024-08-08T15:17:04.000Z</time>
      </trkpt>
      <trkpt lat="45.576317" lon="7.854205">
        <ele>1405.00903</ele>
        <time>2024-08-08T15:17:21.000Z</time>
      </trkpt>
      <trkpt lat="45.576338" lon="7.854205">
        <ele>1404.28906</ele>
        <time>2024-08-08T15:17:23.000Z</time>
      </trkpt>
      <trkpt lat="45.576358" lon="7.854203">
        <ele>1403.51404</ele>
        <time>2024-08-08T15:17:25.000Z</time>
      </trkpt>
      <trkpt lat="45.57636" lon="7.854232">
        <ele>1402.81909</ele>
        <time>2024-08-08T15:17:32.000Z</time>
      </trkpt>
    </trkseg>
  </trk>
</gpx>